<?xml version="1.0" encoding="UTF-8"?>
<gpx version="1.1" creator="https://www.youtrack.es" xsi:schemaLocation="http://www.topografix.com/GPX/1/1 http://www.topografix.com/GPX/1/1/gpx.xsd http://www.garmin.com/xmlschemas/GpxExtensions/v3 http://www.garmin.com/xmlschemas/GpxExtensionsv3.xsd http://www.garmin.com/xmlschemas/TrackPointExtension/v1 http://www.garmin.com/xmlschemas/TrackPointExtensionv1.xsd" xmlns:gpxtpx="http://www.garmin.com/xmlschemas/TrackPointExtension/v1" xmlns:gpxx="http://www.garmin.com/xmlschemas/GpxExtensions/v3" xmlns:xsi="http://www.w3.org/2001/XMLSchema-instance">
  <metadata>
    <link href="https://www.youtrack.es">
      <text>YouTrack.es</text>
    </link>
    <time>2026-05-08T00:33:28Z</time>
  </metadata>
  <trk>
    <src>https://www.youtrack.es</src>
    <link href="https://www.youtrack.es/ruta/37742-mtb--gurutze-jaizkibel-faro">
      <text>YouTrack.es</text>
    </link>
    <trkseg>
      <trkpt lat="43.3326760" lon="-1.8119060">
        <ele>29.0</ele>
        <time>2022-10-29T07:53:18Z</time>
      </trkpt>
      <trkpt lat="43.3326830" lon="-1.8120090">
        <ele>21.2</ele>
        <time>2022-10-29T07:53:21Z</time>
      </trkpt>
      <trkpt lat="43.3326540" lon="-1.8120750">
        <ele>21.8</ele>
        <time>2022-10-29T07:53:23Z</time>
      </trkpt>
      <trkpt lat="43.3326440" lon="-1.8120950">
        <ele>22.0</ele>
        <time>2022-10-29T07:53:24Z</time>
      </trkpt>
      <trkpt lat="43.3326290" lon="-1.8121100">
        <ele>22.4</ele>
        <time>2022-10-29T07:53:25Z</time>
      </trkpt>
      <trkpt lat="43.3326030" lon="-1.8121150">
        <ele>22.6</ele>
        <time>2022-10-29T07:53:26Z</time>
      </trkpt>
      <trkpt lat="43.3325720" lon="-1.8121060">
        <ele>22.8</ele>
        <time>2022-10-29T07:53:27Z</time>
      </trkpt>
      <trkpt lat="43.3324680" lon="-1.8120410">
        <ele>22.4</ele>
        <time>2022-10-29T07:53:30Z</time>
      </trkpt>
      <trkpt lat="43.3324230" lon="-1.8120230">
        <ele>22.6</ele>
        <time>2022-10-29T07:53:31Z</time>
      </trkpt>
      <trkpt lat="43.3323320" lon="-1.8120090">
        <ele>22.8</ele>
        <time>2022-10-29T07:53:33Z</time>
      </trkpt>
      <trkpt lat="43.3322440" lon="-1.8119880">
        <ele>23.0</ele>
        <time>2022-10-29T07:53:35Z</time>
      </trkpt>
      <trkpt lat="43.3320970" lon="-1.8119600">
        <ele>23.4</ele>
        <time>2022-10-29T07:53:38Z</time>
      </trkpt>
      <trkpt lat="43.3319610" lon="-1.8118900">
        <ele>23.8</ele>
        <time>2022-10-29T07:53:41Z</time>
      </trkpt>
      <trkpt lat="43.3318570" lon="-1.8118870">
        <ele>24.0</ele>
        <time>2022-10-29T07:53:43Z</time>
      </trkpt>
      <trkpt lat="43.3318170" lon="-1.8118900">
        <ele>24.0</ele>
        <time>2022-10-29T07:53:44Z</time>
      </trkpt>
      <trkpt lat="43.3317650" lon="-1.8118940">
        <ele>24.0</ele>
        <time>2022-10-29T07:53:45Z</time>
      </trkpt>
      <trkpt lat="43.3317160" lon="-1.8119010">
        <ele>24.2</ele>
        <time>2022-10-29T07:53:46Z</time>
      </trkpt>
      <trkpt lat="43.3315810" lon="-1.8118880">
        <ele>24.4</ele>
        <time>2022-10-29T07:53:48Z</time>
      </trkpt>
      <trkpt lat="43.3313620" lon="-1.8119130">
        <ele>24.6</ele>
        <time>2022-10-29T07:53:51Z</time>
      </trkpt>
      <trkpt lat="43.3312670" lon="-1.8120250">
        <ele>24.6</ele>
        <time>2022-10-29T07:53:53Z</time>
      </trkpt>
      <trkpt lat="43.3312370" lon="-1.8121080">
        <ele>24.6</ele>
        <time>2022-10-29T07:53:54Z</time>
      </trkpt>
      <trkpt lat="43.3312200" lon="-1.8121870">
        <ele>24.8</ele>
        <time>2022-10-29T07:53:55Z</time>
      </trkpt>
      <trkpt lat="43.3312100" lon="-1.8122600">
        <ele>24.8</ele>
        <time>2022-10-29T07:53:56Z</time>
      </trkpt>
      <trkpt lat="43.3311860" lon="-1.8123350">
        <ele>24.8</ele>
        <time>2022-10-29T07:53:57Z</time>
      </trkpt>
      <trkpt lat="43.3311690" lon="-1.8124010">
        <ele>25.0</ele>
        <time>2022-10-29T07:53:58Z</time>
      </trkpt>
      <trkpt lat="43.3311500" lon="-1.8125330">
        <ele>25.0</ele>
        <time>2022-10-29T07:54:00Z</time>
      </trkpt>
      <trkpt lat="43.3311380" lon="-1.8125980">
        <ele>25.0</ele>
        <time>2022-10-29T07:54:01Z</time>
      </trkpt>
      <trkpt lat="43.3310810" lon="-1.8129320">
        <ele>25.8</ele>
        <time>2022-10-29T07:54:06Z</time>
      </trkpt>
      <trkpt lat="43.3310770" lon="-1.8130690">
        <ele>26.2</ele>
        <time>2022-10-29T07:54:08Z</time>
      </trkpt>
      <trkpt lat="43.3310590" lon="-1.8132000">
        <ele>26.4</ele>
        <time>2022-10-29T07:54:10Z</time>
      </trkpt>
      <trkpt lat="43.3310120" lon="-1.8133160">
        <ele>26.8</ele>
        <time>2022-10-29T07:54:12Z</time>
      </trkpt>
      <trkpt lat="43.3309810" lon="-1.8133440">
        <ele>27.0</ele>
        <time>2022-10-29T07:54:13Z</time>
      </trkpt>
      <trkpt lat="43.3309490" lon="-1.8133730">
        <ele>27.0</ele>
        <time>2022-10-29T07:54:14Z</time>
      </trkpt>
      <trkpt lat="43.3308870" lon="-1.8134300">
        <ele>27.2</ele>
        <time>2022-10-29T07:54:15Z</time>
      </trkpt>
      <trkpt lat="43.3308370" lon="-1.8134450">
        <ele>27.2</ele>
        <time>2022-10-29T07:54:16Z</time>
      </trkpt>
      <trkpt lat="43.3307850" lon="-1.8134450">
        <ele>27.2</ele>
        <time>2022-10-29T07:54:17Z</time>
      </trkpt>
      <trkpt lat="43.3307350" lon="-1.8134310">
        <ele>27.4</ele>
        <time>2022-10-29T07:54:18Z</time>
      </trkpt>
      <trkpt lat="43.3306880" lon="-1.8134060">
        <ele>27.4</ele>
        <time>2022-10-29T07:54:19Z</time>
      </trkpt>
      <trkpt lat="43.3306460" lon="-1.8133710">
        <ele>27.6</ele>
        <time>2022-10-29T07:54:20Z</time>
      </trkpt>
      <trkpt lat="43.3306000" lon="-1.8133130">
        <ele>27.6</ele>
        <time>2022-10-29T07:54:21Z</time>
      </trkpt>
      <trkpt lat="43.3305630" lon="-1.8132350">
        <ele>27.6</ele>
        <time>2022-10-29T07:54:22Z</time>
      </trkpt>
      <trkpt lat="43.3305450" lon="-1.8131560">
        <ele>27.6</ele>
        <time>2022-10-29T07:54:23Z</time>
      </trkpt>
      <trkpt lat="43.3305360" lon="-1.8130640">
        <ele>27.6</ele>
        <time>2022-10-29T07:54:24Z</time>
      </trkpt>
      <trkpt lat="43.3305350" lon="-1.8129680">
        <ele>27.6</ele>
        <time>2022-10-29T07:54:25Z</time>
      </trkpt>
      <trkpt lat="43.3305370" lon="-1.8128710">
        <ele>27.6</ele>
        <time>2022-10-29T07:54:26Z</time>
      </trkpt>
      <trkpt lat="43.3305300" lon="-1.8127720">
        <ele>27.6</ele>
        <time>2022-10-29T07:54:27Z</time>
      </trkpt>
      <trkpt lat="43.3305020" lon="-1.8126750">
        <ele>27.6</ele>
        <time>2022-10-29T07:54:28Z</time>
      </trkpt>
      <trkpt lat="43.3304530" lon="-1.8125920">
        <ele>27.6</ele>
        <time>2022-10-29T07:54:29Z</time>
      </trkpt>
      <trkpt lat="43.3303970" lon="-1.8125180">
        <ele>27.6</ele>
        <time>2022-10-29T07:54:30Z</time>
      </trkpt>
      <trkpt lat="43.3303420" lon="-1.8124400">
        <ele>27.6</ele>
        <time>2022-10-29T07:54:31Z</time>
      </trkpt>
      <trkpt lat="43.3302880" lon="-1.8123610">
        <ele>27.6</ele>
        <time>2022-10-29T07:54:32Z</time>
      </trkpt>
      <trkpt lat="43.3302340" lon="-1.8122830">
        <ele>27.6</ele>
        <time>2022-10-29T07:54:33Z</time>
      </trkpt>
      <trkpt lat="43.3301430" lon="-1.8121260">
        <ele>27.6</ele>
        <time>2022-10-29T07:54:35Z</time>
      </trkpt>
      <trkpt lat="43.3300180" lon="-1.8118770">
        <ele>27.6</ele>
        <time>2022-10-29T07:54:38Z</time>
      </trkpt>
      <trkpt lat="43.3299420" lon="-1.8117090">
        <ele>27.8</ele>
        <time>2022-10-29T07:54:40Z</time>
      </trkpt>
      <trkpt lat="43.3299060" lon="-1.8116220">
        <ele>28.0</ele>
        <time>2022-10-29T07:54:41Z</time>
      </trkpt>
      <trkpt lat="43.3298750" lon="-1.8115380">
        <ele>28.2</ele>
        <time>2022-10-29T07:54:42Z</time>
      </trkpt>
      <trkpt lat="43.3298500" lon="-1.8114550">
        <ele>28.2</ele>
        <time>2022-10-29T07:54:43Z</time>
      </trkpt>
      <trkpt lat="43.3298350" lon="-1.8113640">
        <ele>28.4</ele>
        <time>2022-10-29T07:54:44Z</time>
      </trkpt>
      <trkpt lat="43.3298270" lon="-1.8112740">
        <ele>28.4</ele>
        <time>2022-10-29T07:54:45Z</time>
      </trkpt>
      <trkpt lat="43.3298090" lon="-1.8109910">
        <ele>29.0</ele>
        <time>2022-10-29T07:54:48Z</time>
      </trkpt>
      <trkpt lat="43.3298050" lon="-1.8109000">
        <ele>29.2</ele>
        <time>2022-10-29T07:54:49Z</time>
      </trkpt>
      <trkpt lat="43.3298070" lon="-1.8108140">
        <ele>29.4</ele>
        <time>2022-10-29T07:54:50Z</time>
      </trkpt>
      <trkpt lat="43.3298090" lon="-1.8107190">
        <ele>29.6</ele>
        <time>2022-10-29T07:54:51Z</time>
      </trkpt>
      <trkpt lat="43.3298130" lon="-1.8102510">
        <ele>30.4</ele>
        <time>2022-10-29T07:54:56Z</time>
      </trkpt>
      <trkpt lat="43.3298110" lon="-1.8100710">
        <ele>30.4</ele>
        <time>2022-10-29T07:54:58Z</time>
      </trkpt>
      <trkpt lat="43.3298130" lon="-1.8099800">
        <ele>30.4</ele>
        <time>2022-10-29T07:54:59Z</time>
      </trkpt>
      <trkpt lat="43.3298120" lon="-1.8098910">
        <ele>30.4</ele>
        <time>2022-10-29T07:55:00Z</time>
      </trkpt>
      <trkpt lat="43.3298140" lon="-1.8098000">
        <ele>30.4</ele>
        <time>2022-10-29T07:55:01Z</time>
      </trkpt>
      <trkpt lat="43.3298110" lon="-1.8097110">
        <ele>30.4</ele>
        <time>2022-10-29T07:55:02Z</time>
      </trkpt>
      <trkpt lat="43.3298070" lon="-1.8096150">
        <ele>30.4</ele>
        <time>2022-10-29T07:55:03Z</time>
      </trkpt>
      <trkpt lat="43.3298030" lon="-1.8095280">
        <ele>30.4</ele>
        <time>2022-10-29T07:55:04Z</time>
      </trkpt>
      <trkpt lat="43.3298000" lon="-1.8094440">
        <ele>30.4</ele>
        <time>2022-10-29T07:55:05Z</time>
      </trkpt>
      <trkpt lat="43.3297990" lon="-1.8093590">
        <ele>30.4</ele>
        <time>2022-10-29T07:55:06Z</time>
      </trkpt>
      <trkpt lat="43.3297980" lon="-1.8092720">
        <ele>30.4</ele>
        <time>2022-10-29T07:55:07Z</time>
      </trkpt>
      <trkpt lat="43.3297980" lon="-1.8091870">
        <ele>30.4</ele>
        <time>2022-10-29T07:55:08Z</time>
      </trkpt>
      <trkpt lat="43.3297980" lon="-1.8091020">
        <ele>30.2</ele>
        <time>2022-10-29T07:55:09Z</time>
      </trkpt>
      <trkpt lat="43.3297920" lon="-1.8090190">
        <ele>30.2</ele>
        <time>2022-10-29T07:55:10Z</time>
      </trkpt>
      <trkpt lat="43.3297690" lon="-1.8089460">
        <ele>30.2</ele>
        <time>2022-10-29T07:55:11Z</time>
      </trkpt>
      <trkpt lat="43.3297270" lon="-1.8088970">
        <ele>30.2</ele>
        <time>2022-10-29T07:55:12Z</time>
      </trkpt>
      <trkpt lat="43.3296720" lon="-1.8088660">
        <ele>30.2</ele>
        <time>2022-10-29T07:55:13Z</time>
      </trkpt>
      <trkpt lat="43.3296120" lon="-1.8088620">
        <ele>30.2</ele>
        <time>2022-10-29T07:55:14Z</time>
      </trkpt>
      <trkpt lat="43.3294860" lon="-1.8088770">
        <ele>30.2</ele>
        <time>2022-10-29T07:55:16Z</time>
      </trkpt>
      <trkpt lat="43.3294190" lon="-1.8088810">
        <ele>30.2</ele>
        <time>2022-10-29T07:55:17Z</time>
      </trkpt>
      <trkpt lat="43.3293510" lon="-1.8088830">
        <ele>30.2</ele>
        <time>2022-10-29T07:55:18Z</time>
      </trkpt>
      <trkpt lat="43.3291440" lon="-1.8088960">
        <ele>29.8</ele>
        <time>2022-10-29T07:55:21Z</time>
      </trkpt>
      <trkpt lat="43.3290750" lon="-1.8089020">
        <ele>29.6</ele>
        <time>2022-10-29T07:55:22Z</time>
      </trkpt>
      <trkpt lat="43.3290070" lon="-1.8089030">
        <ele>29.6</ele>
        <time>2022-10-29T07:55:23Z</time>
      </trkpt>
      <trkpt lat="43.3286260" lon="-1.8089220">
        <ele>29.8</ele>
        <time>2022-10-29T07:55:29Z</time>
      </trkpt>
      <trkpt lat="43.3285590" lon="-1.8089240">
        <ele>30.0</ele>
        <time>2022-10-29T07:55:30Z</time>
      </trkpt>
      <trkpt lat="43.3285140" lon="-1.8089250">
        <ele>30.2</ele>
        <time>2022-10-29T07:55:31Z</time>
      </trkpt>
      <trkpt lat="43.3284570" lon="-1.8089260">
        <ele>30.2</ele>
        <time>2022-10-29T07:55:32Z</time>
      </trkpt>
      <trkpt lat="43.3284060" lon="-1.8089190">
        <ele>30.4</ele>
        <time>2022-10-29T07:55:33Z</time>
      </trkpt>
      <trkpt lat="43.3283590" lon="-1.8089070">
        <ele>30.4</ele>
        <time>2022-10-29T07:55:34Z</time>
      </trkpt>
      <trkpt lat="43.3283230" lon="-1.8088830">
        <ele>30.6</ele>
        <time>2022-10-29T07:55:35Z</time>
      </trkpt>
      <trkpt lat="43.3282910" lon="-1.8088410">
        <ele>30.6</ele>
        <time>2022-10-29T07:55:36Z</time>
      </trkpt>
      <trkpt lat="43.3282690" lon="-1.8087860">
        <ele>30.8</ele>
        <time>2022-10-29T07:55:37Z</time>
      </trkpt>
      <trkpt lat="43.3282490" lon="-1.8087240">
        <ele>31.2</ele>
        <time>2022-10-29T07:55:38Z</time>
      </trkpt>
      <trkpt lat="43.3282410" lon="-1.8086600">
        <ele>31.6</ele>
        <time>2022-10-29T07:55:39Z</time>
      </trkpt>
      <trkpt lat="43.3282420" lon="-1.8085990">
        <ele>31.8</ele>
        <time>2022-10-29T07:55:40Z</time>
      </trkpt>
      <trkpt lat="43.3282490" lon="-1.8085390">
        <ele>32.0</ele>
        <time>2022-10-29T07:55:41Z</time>
      </trkpt>
      <trkpt lat="43.3282560" lon="-1.8084790">
        <ele>32.4</ele>
        <time>2022-10-29T07:55:42Z</time>
      </trkpt>
      <trkpt lat="43.3282630" lon="-1.8084180">
        <ele>32.6</ele>
        <time>2022-10-29T07:55:43Z</time>
      </trkpt>
      <trkpt lat="43.3282710" lon="-1.8083570">
        <ele>32.8</ele>
        <time>2022-10-29T07:55:44Z</time>
      </trkpt>
      <trkpt lat="43.3282760" lon="-1.8082920">
        <ele>33.0</ele>
        <time>2022-10-29T07:55:45Z</time>
      </trkpt>
      <trkpt lat="43.3282740" lon="-1.8082260">
        <ele>33.2</ele>
        <time>2022-10-29T07:55:46Z</time>
      </trkpt>
      <trkpt lat="43.3282690" lon="-1.8081610">
        <ele>33.2</ele>
        <time>2022-10-29T07:55:47Z</time>
      </trkpt>
      <trkpt lat="43.3282650" lon="-1.8080850">
        <ele>33.4</ele>
        <time>2022-10-29T07:55:48Z</time>
      </trkpt>
      <trkpt lat="43.3282600" lon="-1.8080340">
        <ele>33.6</ele>
        <time>2022-10-29T07:55:49Z</time>
      </trkpt>
      <trkpt lat="43.3282570" lon="-1.8079720">
        <ele>33.8</ele>
        <time>2022-10-29T07:55:50Z</time>
      </trkpt>
      <trkpt lat="43.3282540" lon="-1.8079090">
        <ele>34.0</ele>
        <time>2022-10-29T07:55:51Z</time>
      </trkpt>
      <trkpt lat="43.3282510" lon="-1.8078440">
        <ele>34.0</ele>
        <time>2022-10-29T07:55:52Z</time>
      </trkpt>
      <trkpt lat="43.3282430" lon="-1.8077840">
        <ele>34.2</ele>
        <time>2022-10-29T07:55:53Z</time>
      </trkpt>
      <trkpt lat="43.3282330" lon="-1.8077260">
        <ele>34.4</ele>
        <time>2022-10-29T07:55:54Z</time>
      </trkpt>
      <trkpt lat="43.3282120" lon="-1.8076690">
        <ele>34.6</ele>
        <time>2022-10-29T07:55:55Z</time>
      </trkpt>
      <trkpt lat="43.3281810" lon="-1.8076190">
        <ele>34.6</ele>
        <time>2022-10-29T07:55:56Z</time>
      </trkpt>
      <trkpt lat="43.3281370" lon="-1.8075710">
        <ele>35.0</ele>
        <time>2022-10-29T07:55:57Z</time>
      </trkpt>
      <trkpt lat="43.3281020" lon="-1.8075480">
        <ele>35.0</ele>
        <time>2022-10-29T07:55:58Z</time>
      </trkpt>
      <trkpt lat="43.3280590" lon="-1.8075290">
        <ele>35.2</ele>
        <time>2022-10-29T07:55:59Z</time>
      </trkpt>
      <trkpt lat="43.3280130" lon="-1.8075170">
        <ele>35.4</ele>
        <time>2022-10-29T07:56:00Z</time>
      </trkpt>
      <trkpt lat="43.3279750" lon="-1.8075080">
        <ele>35.4</ele>
        <time>2022-10-29T07:56:01Z</time>
      </trkpt>
      <trkpt lat="43.3279590" lon="-1.8075020">
        <ele>35.8</ele>
        <time>2022-10-29T07:56:02Z</time>
      </trkpt>
      <trkpt lat="43.3279500" lon="-1.8075000">
        <ele>35.8</ele>
        <time>2022-10-29T07:56:03Z</time>
      </trkpt>
      <trkpt lat="43.3279220" lon="-1.8074880">
        <ele>36.2</ele>
        <time>2022-10-29T07:56:04Z</time>
      </trkpt>
      <trkpt lat="43.3278950" lon="-1.8074750">
        <ele>36.4</ele>
        <time>2022-10-29T07:56:05Z</time>
      </trkpt>
      <trkpt lat="43.3278850" lon="-1.8074690">
        <ele>36.8</ele>
        <time>2022-10-29T07:56:06Z</time>
      </trkpt>
      <trkpt lat="43.3278460" lon="-1.8074440">
        <ele>37.2</ele>
        <time>2022-10-29T07:56:07Z</time>
      </trkpt>
      <trkpt lat="43.3277750" lon="-1.8073970">
        <ele>37.2</ele>
        <time>2022-10-29T07:56:08Z</time>
      </trkpt>
      <trkpt lat="43.3277110" lon="-1.8073690">
        <ele>37.6</ele>
        <time>2022-10-29T07:56:09Z</time>
      </trkpt>
      <trkpt lat="43.3276640" lon="-1.8073440">
        <ele>37.6</ele>
        <time>2022-10-29T07:56:10Z</time>
      </trkpt>
      <trkpt lat="43.3276360" lon="-1.8073010">
        <ele>38.0</ele>
        <time>2022-10-29T07:56:11Z</time>
      </trkpt>
      <trkpt lat="43.3276130" lon="-1.8072450">
        <ele>38.2</ele>
        <time>2022-10-29T07:56:12Z</time>
      </trkpt>
      <trkpt lat="43.3275990" lon="-1.8071730">
        <ele>38.2</ele>
        <time>2022-10-29T07:56:13Z</time>
      </trkpt>
      <trkpt lat="43.3275870" lon="-1.8070870">
        <ele>38.2</ele>
        <time>2022-10-29T07:56:14Z</time>
      </trkpt>
      <trkpt lat="43.3275740" lon="-1.8069970">
        <ele>38.4</ele>
        <time>2022-10-29T07:56:15Z</time>
      </trkpt>
      <trkpt lat="43.3275490" lon="-1.8069000">
        <ele>38.4</ele>
        <time>2022-10-29T07:56:16Z</time>
      </trkpt>
      <trkpt lat="43.3275070" lon="-1.8068020">
        <ele>38.4</ele>
        <time>2022-10-29T07:56:17Z</time>
      </trkpt>
      <trkpt lat="43.3274580" lon="-1.8067040">
        <ele>38.4</ele>
        <time>2022-10-29T07:56:18Z</time>
      </trkpt>
      <trkpt lat="43.3274080" lon="-1.8066070">
        <ele>38.4</ele>
        <time>2022-10-29T07:56:19Z</time>
      </trkpt>
      <trkpt lat="43.3273620" lon="-1.8065060">
        <ele>38.0</ele>
        <time>2022-10-29T07:56:20Z</time>
      </trkpt>
      <trkpt lat="43.3273190" lon="-1.8064070">
        <ele>37.6</ele>
        <time>2022-10-29T07:56:21Z</time>
      </trkpt>
      <trkpt lat="43.3272790" lon="-1.8063110">
        <ele>37.4</ele>
        <time>2022-10-29T07:56:22Z</time>
      </trkpt>
      <trkpt lat="43.3272380" lon="-1.8062260">
        <ele>37.2</ele>
        <time>2022-10-29T07:56:23Z</time>
      </trkpt>
      <trkpt lat="43.3271900" lon="-1.8061520">
        <ele>36.8</ele>
        <time>2022-10-29T07:56:24Z</time>
      </trkpt>
      <trkpt lat="43.3271360" lon="-1.8060980">
        <ele>36.6</ele>
        <time>2022-10-29T07:56:25Z</time>
      </trkpt>
      <trkpt lat="43.3270750" lon="-1.8060630">
        <ele>36.4</ele>
        <time>2022-10-29T07:56:26Z</time>
      </trkpt>
      <trkpt lat="43.3270120" lon="-1.8060410">
        <ele>36.4</ele>
        <time>2022-10-29T07:56:27Z</time>
      </trkpt>
      <trkpt lat="43.3269560" lon="-1.8060260">
        <ele>36.4</ele>
        <time>2022-10-29T07:56:28Z</time>
      </trkpt>
      <trkpt lat="43.3269060" lon="-1.8060180">
        <ele>36.4</ele>
        <time>2022-10-29T07:56:29Z</time>
      </trkpt>
      <trkpt lat="43.3268610" lon="-1.8060130">
        <ele>36.6</ele>
        <time>2022-10-29T07:56:30Z</time>
      </trkpt>
      <trkpt lat="43.3268180" lon="-1.8060150">
        <ele>36.6</ele>
        <time>2022-10-29T07:56:31Z</time>
      </trkpt>
      <trkpt lat="43.3267790" lon="-1.8060220">
        <ele>36.8</ele>
        <time>2022-10-29T07:56:32Z</time>
      </trkpt>
      <trkpt lat="43.3267460" lon="-1.8060360">
        <ele>37.2</ele>
        <time>2022-10-29T07:56:33Z</time>
      </trkpt>
      <trkpt lat="43.3267120" lon="-1.8060530">
        <ele>37.2</ele>
        <time>2022-10-29T07:56:34Z</time>
      </trkpt>
      <trkpt lat="43.3266780" lon="-1.8060700">
        <ele>37.4</ele>
        <time>2022-10-29T07:56:35Z</time>
      </trkpt>
      <trkpt lat="43.3266170" lon="-1.8061000">
        <ele>37.8</ele>
        <time>2022-10-29T07:56:37Z</time>
      </trkpt>
      <trkpt lat="43.3265900" lon="-1.8061140">
        <ele>38.0</ele>
        <time>2022-10-29T07:56:38Z</time>
      </trkpt>
      <trkpt lat="43.3265650" lon="-1.8061250">
        <ele>38.0</ele>
        <time>2022-10-29T07:56:39Z</time>
      </trkpt>
      <trkpt lat="43.3265370" lon="-1.8061380">
        <ele>38.8</ele>
        <time>2022-10-29T07:56:40Z</time>
      </trkpt>
      <trkpt lat="43.3265070" lon="-1.8061530">
        <ele>38.8</ele>
        <time>2022-10-29T07:56:41Z</time>
      </trkpt>
      <trkpt lat="43.3264800" lon="-1.8061720">
        <ele>39.2</ele>
        <time>2022-10-29T07:56:42Z</time>
      </trkpt>
      <trkpt lat="43.3263920" lon="-1.8062150">
        <ele>39.8</ele>
        <time>2022-10-29T07:56:45Z</time>
      </trkpt>
      <trkpt lat="43.3263650" lon="-1.8062300">
        <ele>40.0</ele>
        <time>2022-10-29T07:56:46Z</time>
      </trkpt>
      <trkpt lat="43.3263100" lon="-1.8062610">
        <ele>40.4</ele>
        <time>2022-10-29T07:56:48Z</time>
      </trkpt>
      <trkpt lat="43.3262850" lon="-1.8062770">
        <ele>40.6</ele>
        <time>2022-10-29T07:56:49Z</time>
      </trkpt>
      <trkpt lat="43.3262600" lon="-1.8062940">
        <ele>40.8</ele>
        <time>2022-10-29T07:56:50Z</time>
      </trkpt>
      <trkpt lat="43.3262360" lon="-1.8063100">
        <ele>41.0</ele>
        <time>2022-10-29T07:56:51Z</time>
      </trkpt>
      <trkpt lat="43.3262100" lon="-1.8063250">
        <ele>41.2</ele>
        <time>2022-10-29T07:56:52Z</time>
      </trkpt>
      <trkpt lat="43.3261860" lon="-1.8063420">
        <ele>41.6</ele>
        <time>2022-10-29T07:56:53Z</time>
      </trkpt>
      <trkpt lat="43.3261600" lon="-1.8063590">
        <ele>41.8</ele>
        <time>2022-10-29T07:56:54Z</time>
      </trkpt>
      <trkpt lat="43.3261340" lon="-1.8063740">
        <ele>42.0</ele>
        <time>2022-10-29T07:56:55Z</time>
      </trkpt>
      <trkpt lat="43.3261030" lon="-1.8063890">
        <ele>42.2</ele>
        <time>2022-10-29T07:56:56Z</time>
      </trkpt>
      <trkpt lat="43.3260730" lon="-1.8064070">
        <ele>42.4</ele>
        <time>2022-10-29T07:56:57Z</time>
      </trkpt>
      <trkpt lat="43.3260430" lon="-1.8064250">
        <ele>42.6</ele>
        <time>2022-10-29T07:56:58Z</time>
      </trkpt>
      <trkpt lat="43.3260140" lon="-1.8064410">
        <ele>42.6</ele>
        <time>2022-10-29T07:56:59Z</time>
      </trkpt>
      <trkpt lat="43.3259860" lon="-1.8064530">
        <ele>42.6</ele>
        <time>2022-10-29T07:57:00Z</time>
      </trkpt>
      <trkpt lat="43.3259590" lon="-1.8064640">
        <ele>42.8</ele>
        <time>2022-10-29T07:57:01Z</time>
      </trkpt>
      <trkpt lat="43.3259320" lon="-1.8064720">
        <ele>43.0</ele>
        <time>2022-10-29T07:57:02Z</time>
      </trkpt>
      <trkpt lat="43.3259030" lon="-1.8064830">
        <ele>43.2</ele>
        <time>2022-10-29T07:57:03Z</time>
      </trkpt>
      <trkpt lat="43.3258760" lon="-1.8064950">
        <ele>43.2</ele>
        <time>2022-10-29T07:57:04Z</time>
      </trkpt>
      <trkpt lat="43.3258490" lon="-1.8065070">
        <ele>43.4</ele>
        <time>2022-10-29T07:57:05Z</time>
      </trkpt>
      <trkpt lat="43.3258220" lon="-1.8065210">
        <ele>43.4</ele>
        <time>2022-10-29T07:57:06Z</time>
      </trkpt>
      <trkpt lat="43.3257970" lon="-1.8065330">
        <ele>43.6</ele>
        <time>2022-10-29T07:57:07Z</time>
      </trkpt>
      <trkpt lat="43.3257740" lon="-1.8065470">
        <ele>43.6</ele>
        <time>2022-10-29T07:57:08Z</time>
      </trkpt>
      <trkpt lat="43.3257500" lon="-1.8065650">
        <ele>43.6</ele>
        <time>2022-10-29T07:57:09Z</time>
      </trkpt>
      <trkpt lat="43.3257270" lon="-1.8065870">
        <ele>43.6</ele>
        <time>2022-10-29T07:57:10Z</time>
      </trkpt>
      <trkpt lat="43.3257060" lon="-1.8066150">
        <ele>44.0</ele>
        <time>2022-10-29T07:57:11Z</time>
      </trkpt>
      <trkpt lat="43.3256850" lon="-1.8066430">
        <ele>44.2</ele>
        <time>2022-10-29T07:57:12Z</time>
      </trkpt>
      <trkpt lat="43.3256640" lon="-1.8066760">
        <ele>44.4</ele>
        <time>2022-10-29T07:57:13Z</time>
      </trkpt>
      <trkpt lat="43.3256410" lon="-1.8067120">
        <ele>44.6</ele>
        <time>2022-10-29T07:57:14Z</time>
      </trkpt>
      <trkpt lat="43.3256170" lon="-1.8067490">
        <ele>44.8</ele>
        <time>2022-10-29T07:57:15Z</time>
      </trkpt>
      <trkpt lat="43.3255920" lon="-1.8067830">
        <ele>45.0</ele>
        <time>2022-10-29T07:57:16Z</time>
      </trkpt>
      <trkpt lat="43.3255650" lon="-1.8068170">
        <ele>45.0</ele>
        <time>2022-10-29T07:57:17Z</time>
      </trkpt>
      <trkpt lat="43.3255410" lon="-1.8068460">
        <ele>45.2</ele>
        <time>2022-10-29T07:57:18Z</time>
      </trkpt>
      <trkpt lat="43.3255160" lon="-1.8068750">
        <ele>45.2</ele>
        <time>2022-10-29T07:57:19Z</time>
      </trkpt>
      <trkpt lat="43.3254890" lon="-1.8069070">
        <ele>45.2</ele>
        <time>2022-10-29T07:57:20Z</time>
      </trkpt>
      <trkpt lat="43.3254630" lon="-1.8069380">
        <ele>45.4</ele>
        <time>2022-10-29T07:57:21Z</time>
      </trkpt>
      <trkpt lat="43.3254380" lon="-1.8069670">
        <ele>45.4</ele>
        <time>2022-10-29T07:57:22Z</time>
      </trkpt>
      <trkpt lat="43.3254140" lon="-1.8069970">
        <ele>45.6</ele>
        <time>2022-10-29T07:57:23Z</time>
      </trkpt>
      <trkpt lat="43.3253880" lon="-1.8070290">
        <ele>45.6</ele>
        <time>2022-10-29T07:57:24Z</time>
      </trkpt>
      <trkpt lat="43.3253610" lon="-1.8070600">
        <ele>45.6</ele>
        <time>2022-10-29T07:57:25Z</time>
      </trkpt>
      <trkpt lat="43.3253340" lon="-1.8070860">
        <ele>45.6</ele>
        <time>2022-10-29T07:57:26Z</time>
      </trkpt>
      <trkpt lat="43.3253070" lon="-1.8071100">
        <ele>45.6</ele>
        <time>2022-10-29T07:57:27Z</time>
      </trkpt>
      <trkpt lat="43.3252830" lon="-1.8071360">
        <ele>45.6</ele>
        <time>2022-10-29T07:57:28Z</time>
      </trkpt>
      <trkpt lat="43.3252590" lon="-1.8071590">
        <ele>45.6</ele>
        <time>2022-10-29T07:57:29Z</time>
      </trkpt>
      <trkpt lat="43.3252350" lon="-1.8071840">
        <ele>45.6</ele>
        <time>2022-10-29T07:57:30Z</time>
      </trkpt>
      <trkpt lat="43.3252100" lon="-1.8072090">
        <ele>45.6</ele>
        <time>2022-10-29T07:57:31Z</time>
      </trkpt>
      <trkpt lat="43.3251880" lon="-1.8072300">
        <ele>45.8</ele>
        <time>2022-10-29T07:57:32Z</time>
      </trkpt>
      <trkpt lat="43.3251700" lon="-1.8072510">
        <ele>46.0</ele>
        <time>2022-10-29T07:57:33Z</time>
      </trkpt>
      <trkpt lat="43.3251530" lon="-1.8072690">
        <ele>46.2</ele>
        <time>2022-10-29T07:57:34Z</time>
      </trkpt>
      <trkpt lat="43.3251380" lon="-1.8072830">
        <ele>46.4</ele>
        <time>2022-10-29T07:57:35Z</time>
      </trkpt>
      <trkpt lat="43.3251260" lon="-1.8072940">
        <ele>46.4</ele>
        <time>2022-10-29T07:57:36Z</time>
      </trkpt>
      <trkpt lat="43.3251160" lon="-1.8073060">
        <ele>46.6</ele>
        <time>2022-10-29T07:57:37Z</time>
      </trkpt>
      <trkpt lat="43.3251060" lon="-1.8073150">
        <ele>46.6</ele>
        <time>2022-10-29T07:57:38Z</time>
      </trkpt>
      <trkpt lat="43.3250950" lon="-1.8073260">
        <ele>46.6</ele>
        <time>2022-10-29T07:57:39Z</time>
      </trkpt>
      <trkpt lat="43.3250840" lon="-1.8073330">
        <ele>46.8</ele>
        <time>2022-10-29T07:57:40Z</time>
      </trkpt>
      <trkpt lat="43.3250750" lon="-1.8073410">
        <ele>47.0</ele>
        <time>2022-10-29T07:57:41Z</time>
      </trkpt>
      <trkpt lat="43.3250620" lon="-1.8073680">
        <ele>47.2</ele>
        <time>2022-10-29T07:57:43Z</time>
      </trkpt>
      <trkpt lat="43.3250460" lon="-1.8074030">
        <ele>47.8</ele>
        <time>2022-10-29T07:57:45Z</time>
      </trkpt>
      <trkpt lat="43.3250410" lon="-1.8074120">
        <ele>48.2</ele>
        <time>2022-10-29T07:57:46Z</time>
      </trkpt>
      <trkpt lat="43.3250410" lon="-1.8074190">
        <ele>48.6</ele>
        <time>2022-10-29T07:57:47Z</time>
      </trkpt>
      <trkpt lat="43.3250380" lon="-1.8074360">
        <ele>48.8</ele>
        <time>2022-10-29T07:57:48Z</time>
      </trkpt>
      <trkpt lat="43.3250310" lon="-1.8074570">
        <ele>49.0</ele>
        <time>2022-10-29T07:57:49Z</time>
      </trkpt>
      <trkpt lat="43.3250220" lon="-1.8074780">
        <ele>49.0</ele>
        <time>2022-10-29T07:57:50Z</time>
      </trkpt>
      <trkpt lat="43.3250130" lon="-1.8074970">
        <ele>49.4</ele>
        <time>2022-10-29T07:57:51Z</time>
      </trkpt>
      <trkpt lat="43.3250030" lon="-1.8075140">
        <ele>49.6</ele>
        <time>2022-10-29T07:57:52Z</time>
      </trkpt>
      <trkpt lat="43.3249920" lon="-1.8075300">
        <ele>49.8</ele>
        <time>2022-10-29T07:57:53Z</time>
      </trkpt>
      <trkpt lat="43.3249830" lon="-1.8075480">
        <ele>50.0</ele>
        <time>2022-10-29T07:57:54Z</time>
      </trkpt>
      <trkpt lat="43.3249750" lon="-1.8075660">
        <ele>50.2</ele>
        <time>2022-10-29T07:57:55Z</time>
      </trkpt>
      <trkpt lat="43.3249660" lon="-1.8075810">
        <ele>50.4</ele>
        <time>2022-10-29T07:57:56Z</time>
      </trkpt>
      <trkpt lat="43.3249590" lon="-1.8075970">
        <ele>50.6</ele>
        <time>2022-10-29T07:57:57Z</time>
      </trkpt>
      <trkpt lat="43.3249530" lon="-1.8076150">
        <ele>51.0</ele>
        <time>2022-10-29T07:57:58Z</time>
      </trkpt>
      <trkpt lat="43.3249440" lon="-1.8076380">
        <ele>51.0</ele>
        <time>2022-10-29T07:57:59Z</time>
      </trkpt>
      <trkpt lat="43.3249390" lon="-1.8076560">
        <ele>51.4</ele>
        <time>2022-10-29T07:58:00Z</time>
      </trkpt>
      <trkpt lat="43.3249350" lon="-1.8076730">
        <ele>51.6</ele>
        <time>2022-10-29T07:58:01Z</time>
      </trkpt>
      <trkpt lat="43.3249330" lon="-1.8076890">
        <ele>52.2</ele>
        <time>2022-10-29T07:58:02Z</time>
      </trkpt>
      <trkpt lat="43.3249250" lon="-1.8077060">
        <ele>52.4</ele>
        <time>2022-10-29T07:58:03Z</time>
      </trkpt>
      <trkpt lat="43.3249200" lon="-1.8077260">
        <ele>52.4</ele>
        <time>2022-10-29T07:58:04Z</time>
      </trkpt>
      <trkpt lat="43.3249120" lon="-1.8077460">
        <ele>52.6</ele>
        <time>2022-10-29T07:58:05Z</time>
      </trkpt>
      <trkpt lat="43.3248900" lon="-1.8077710">
        <ele>52.6</ele>
        <time>2022-10-29T07:58:06Z</time>
      </trkpt>
      <trkpt lat="43.3248700" lon="-1.8077870">
        <ele>53.0</ele>
        <time>2022-10-29T07:58:07Z</time>
      </trkpt>
      <trkpt lat="43.3248570" lon="-1.8078070">
        <ele>53.2</ele>
        <time>2022-10-29T07:58:08Z</time>
      </trkpt>
      <trkpt lat="43.3248440" lon="-1.8078250">
        <ele>53.4</ele>
        <time>2022-10-29T07:58:09Z</time>
      </trkpt>
      <trkpt lat="43.3248350" lon="-1.8078430">
        <ele>53.4</ele>
        <time>2022-10-29T07:58:10Z</time>
      </trkpt>
      <trkpt lat="43.3248270" lon="-1.8078620">
        <ele>53.8</ele>
        <time>2022-10-29T07:58:11Z</time>
      </trkpt>
      <trkpt lat="43.3248250" lon="-1.8078840">
        <ele>54.0</ele>
        <time>2022-10-29T07:58:12Z</time>
      </trkpt>
      <trkpt lat="43.3248190" lon="-1.8078990">
        <ele>54.6</ele>
        <time>2022-10-29T07:58:13Z</time>
      </trkpt>
      <trkpt lat="43.3248140" lon="-1.8079160">
        <ele>54.8</ele>
        <time>2022-10-29T07:58:14Z</time>
      </trkpt>
      <trkpt lat="43.3248110" lon="-1.8079340">
        <ele>55.0</ele>
        <time>2022-10-29T07:58:15Z</time>
      </trkpt>
      <trkpt lat="43.3247980" lon="-1.8079570">
        <ele>55.2</ele>
        <time>2022-10-29T07:58:16Z</time>
      </trkpt>
      <trkpt lat="43.3247870" lon="-1.8079800">
        <ele>55.4</ele>
        <time>2022-10-29T07:58:17Z</time>
      </trkpt>
      <trkpt lat="43.3247780" lon="-1.8079970">
        <ele>55.6</ele>
        <time>2022-10-29T07:58:18Z</time>
      </trkpt>
      <trkpt lat="43.3247740" lon="-1.8080130">
        <ele>55.6</ele>
        <time>2022-10-29T07:58:19Z</time>
      </trkpt>
      <trkpt lat="43.3247610" lon="-1.8080450">
        <ele>55.8</ele>
        <time>2022-10-29T07:58:20Z</time>
      </trkpt>
      <trkpt lat="43.3247580" lon="-1.8080640">
        <ele>56.0</ele>
        <time>2022-10-29T07:58:21Z</time>
      </trkpt>
      <trkpt lat="43.3247550" lon="-1.8080820">
        <ele>56.4</ele>
        <time>2022-10-29T07:58:22Z</time>
      </trkpt>
      <trkpt lat="43.3247450" lon="-1.8081070">
        <ele>56.6</ele>
        <time>2022-10-29T07:58:23Z</time>
      </trkpt>
      <trkpt lat="43.3247410" lon="-1.8081360">
        <ele>57.0</ele>
        <time>2022-10-29T07:58:24Z</time>
      </trkpt>
      <trkpt lat="43.3247370" lon="-1.8081550">
        <ele>57.8</ele>
        <time>2022-10-29T07:58:25Z</time>
      </trkpt>
      <trkpt lat="43.3247440" lon="-1.8081860">
        <ele>58.0</ele>
        <time>2022-10-29T07:58:26Z</time>
      </trkpt>
      <trkpt lat="43.3247130" lon="-1.8082230">
        <ele>58.6</ele>
        <time>2022-10-29T07:58:27Z</time>
      </trkpt>
      <trkpt lat="43.3246910" lon="-1.8082590">
        <ele>58.8</ele>
        <time>2022-10-29T07:58:28Z</time>
      </trkpt>
      <trkpt lat="43.3246790" lon="-1.8082880">
        <ele>59.2</ele>
        <time>2022-10-29T07:58:29Z</time>
      </trkpt>
      <trkpt lat="43.3246780" lon="-1.8083090">
        <ele>59.4</ele>
        <time>2022-10-29T07:58:30Z</time>
      </trkpt>
      <trkpt lat="43.3246680" lon="-1.8083180">
        <ele>59.6</ele>
        <time>2022-10-29T07:58:31Z</time>
      </trkpt>
      <trkpt lat="43.3246640" lon="-1.8083240">
        <ele>59.8</ele>
        <time>2022-10-29T07:58:32Z</time>
      </trkpt>
      <trkpt lat="43.3246640" lon="-1.8083240">
        <ele>60.0</ele>
        <time>2022-10-29T07:58:33Z</time>
      </trkpt>
      <trkpt lat="43.3246640" lon="-1.8083350">
        <ele>60.0</ele>
        <time>2022-10-29T07:58:34Z</time>
      </trkpt>
      <trkpt lat="43.3246520" lon="-1.8083500">
        <ele>60.2</ele>
        <time>2022-10-29T07:58:35Z</time>
      </trkpt>
      <trkpt lat="43.3246370" lon="-1.8083600">
        <ele>60.8</ele>
        <time>2022-10-29T07:58:36Z</time>
      </trkpt>
      <trkpt lat="43.3246290" lon="-1.8083680">
        <ele>61.0</ele>
        <time>2022-10-29T07:58:37Z</time>
      </trkpt>
      <trkpt lat="43.3246210" lon="-1.8083810">
        <ele>61.4</ele>
        <time>2022-10-29T07:58:38Z</time>
      </trkpt>
      <trkpt lat="43.3246150" lon="-1.8084000">
        <ele>61.4</ele>
        <time>2022-10-29T07:58:39Z</time>
      </trkpt>
      <trkpt lat="43.3246110" lon="-1.8084210">
        <ele>61.8</ele>
        <time>2022-10-29T07:58:40Z</time>
      </trkpt>
      <trkpt lat="43.3246040" lon="-1.8084480">
        <ele>61.8</ele>
        <time>2022-10-29T07:58:41Z</time>
      </trkpt>
      <trkpt lat="43.3245990" lon="-1.8084780">
        <ele>62.4</ele>
        <time>2022-10-29T07:58:42Z</time>
      </trkpt>
      <trkpt lat="43.3245950" lon="-1.8085020">
        <ele>62.4</ele>
        <time>2022-10-29T07:58:43Z</time>
      </trkpt>
      <trkpt lat="43.3245880" lon="-1.8085280">
        <ele>62.8</ele>
        <time>2022-10-29T07:58:44Z</time>
      </trkpt>
      <trkpt lat="43.3245810" lon="-1.8085510">
        <ele>63.0</ele>
        <time>2022-10-29T07:58:45Z</time>
      </trkpt>
      <trkpt lat="43.3245770" lon="-1.8085770">
        <ele>63.0</ele>
        <time>2022-10-29T07:58:46Z</time>
      </trkpt>
      <trkpt lat="43.3245720" lon="-1.8085970">
        <ele>63.2</ele>
        <time>2022-10-29T07:58:47Z</time>
      </trkpt>
      <trkpt lat="43.3245650" lon="-1.8086140">
        <ele>63.4</ele>
        <time>2022-10-29T07:58:48Z</time>
      </trkpt>
      <trkpt lat="43.3245560" lon="-1.8086340">
        <ele>64.0</ele>
        <time>2022-10-29T07:58:49Z</time>
      </trkpt>
      <trkpt lat="43.3245440" lon="-1.8086550">
        <ele>64.2</ele>
        <time>2022-10-29T07:58:50Z</time>
      </trkpt>
      <trkpt lat="43.3245380" lon="-1.8086740">
        <ele>64.4</ele>
        <time>2022-10-29T07:58:51Z</time>
      </trkpt>
      <trkpt lat="43.3245340" lon="-1.8086960">
        <ele>64.4</ele>
        <time>2022-10-29T07:58:52Z</time>
      </trkpt>
      <trkpt lat="43.3245290" lon="-1.8087210">
        <ele>64.6</ele>
        <time>2022-10-29T07:58:53Z</time>
      </trkpt>
      <trkpt lat="43.3245250" lon="-1.8087490">
        <ele>64.6</ele>
        <time>2022-10-29T07:58:54Z</time>
      </trkpt>
      <trkpt lat="43.3245180" lon="-1.8087700">
        <ele>64.6</ele>
        <time>2022-10-29T07:58:55Z</time>
      </trkpt>
      <trkpt lat="43.3245050" lon="-1.8087870">
        <ele>64.8</ele>
        <time>2022-10-29T07:58:56Z</time>
      </trkpt>
      <trkpt lat="43.3244860" lon="-1.8088180">
        <ele>64.8</ele>
        <time>2022-10-29T07:58:57Z</time>
      </trkpt>
      <trkpt lat="43.3244780" lon="-1.8088350">
        <ele>64.8</ele>
        <time>2022-10-29T07:58:58Z</time>
      </trkpt>
      <trkpt lat="43.3244710" lon="-1.8088570">
        <ele>65.0</ele>
        <time>2022-10-29T07:58:59Z</time>
      </trkpt>
      <trkpt lat="43.3244650" lon="-1.8088810">
        <ele>65.0</ele>
        <time>2022-10-29T07:59:00Z</time>
      </trkpt>
      <trkpt lat="43.3244640" lon="-1.8089080">
        <ele>65.2</ele>
        <time>2022-10-29T07:59:01Z</time>
      </trkpt>
      <trkpt lat="43.3244600" lon="-1.8089360">
        <ele>65.4</ele>
        <time>2022-10-29T07:59:02Z</time>
      </trkpt>
      <trkpt lat="43.3244550" lon="-1.8089610">
        <ele>65.4</ele>
        <time>2022-10-29T07:59:03Z</time>
      </trkpt>
      <trkpt lat="43.3244510" lon="-1.8089870">
        <ele>65.6</ele>
        <time>2022-10-29T07:59:04Z</time>
      </trkpt>
      <trkpt lat="43.3244460" lon="-1.8090100">
        <ele>66.0</ele>
        <time>2022-10-29T07:59:05Z</time>
      </trkpt>
      <trkpt lat="43.3244270" lon="-1.8090350">
        <ele>66.2</ele>
        <time>2022-10-29T07:59:06Z</time>
      </trkpt>
      <trkpt lat="43.3244110" lon="-1.8090620">
        <ele>66.4</ele>
        <time>2022-10-29T07:59:07Z</time>
      </trkpt>
      <trkpt lat="43.3244130" lon="-1.8090820">
        <ele>66.6</ele>
        <time>2022-10-29T07:59:08Z</time>
      </trkpt>
      <trkpt lat="43.3244110" lon="-1.8091040">
        <ele>66.6</ele>
        <time>2022-10-29T07:59:09Z</time>
      </trkpt>
      <trkpt lat="43.3244070" lon="-1.8091430">
        <ele>66.6</ele>
        <time>2022-10-29T07:59:10Z</time>
      </trkpt>
      <trkpt lat="43.3243970" lon="-1.8091660">
        <ele>66.8</ele>
        <time>2022-10-29T07:59:11Z</time>
      </trkpt>
      <trkpt lat="43.3243870" lon="-1.8091880">
        <ele>67.2</ele>
        <time>2022-10-29T07:59:12Z</time>
      </trkpt>
      <trkpt lat="43.3243760" lon="-1.8092180">
        <ele>67.6</ele>
        <time>2022-10-29T07:59:13Z</time>
      </trkpt>
      <trkpt lat="43.3243650" lon="-1.8092560">
        <ele>67.8</ele>
        <time>2022-10-29T07:59:14Z</time>
      </trkpt>
      <trkpt lat="43.3243640" lon="-1.8092800">
        <ele>68.0</ele>
        <time>2022-10-29T07:59:15Z</time>
      </trkpt>
      <trkpt lat="43.3243650" lon="-1.8093050">
        <ele>68.2</ele>
        <time>2022-10-29T07:59:16Z</time>
      </trkpt>
      <trkpt lat="43.3243640" lon="-1.8093400">
        <ele>68.2</ele>
        <time>2022-10-29T07:59:17Z</time>
      </trkpt>
      <trkpt lat="43.3243650" lon="-1.8093740">
        <ele>68.4</ele>
        <time>2022-10-29T07:59:18Z</time>
      </trkpt>
      <trkpt lat="43.3243640" lon="-1.8094090">
        <ele>68.4</ele>
        <time>2022-10-29T07:59:19Z</time>
      </trkpt>
      <trkpt lat="43.3243540" lon="-1.8094390">
        <ele>68.6</ele>
        <time>2022-10-29T07:59:20Z</time>
      </trkpt>
      <trkpt lat="43.3243500" lon="-1.8094710">
        <ele>68.8</ele>
        <time>2022-10-29T07:59:21Z</time>
      </trkpt>
      <trkpt lat="43.3243360" lon="-1.8095010">
        <ele>69.2</ele>
        <time>2022-10-29T07:59:22Z</time>
      </trkpt>
      <trkpt lat="43.3243220" lon="-1.8095270">
        <ele>69.2</ele>
        <time>2022-10-29T07:59:23Z</time>
      </trkpt>
      <trkpt lat="43.3243100" lon="-1.8095480">
        <ele>69.6</ele>
        <time>2022-10-29T07:59:24Z</time>
      </trkpt>
      <trkpt lat="43.3243030" lon="-1.8095790">
        <ele>70.0</ele>
        <time>2022-10-29T07:59:25Z</time>
      </trkpt>
      <trkpt lat="43.3242930" lon="-1.8096110">
        <ele>70.2</ele>
        <time>2022-10-29T07:59:26Z</time>
      </trkpt>
      <trkpt lat="43.3242830" lon="-1.8096420">
        <ele>70.4</ele>
        <time>2022-10-29T07:59:27Z</time>
      </trkpt>
      <trkpt lat="43.3242690" lon="-1.8096740">
        <ele>70.6</ele>
        <time>2022-10-29T07:59:28Z</time>
      </trkpt>
      <trkpt lat="43.3242630" lon="-1.8097030">
        <ele>70.6</ele>
        <time>2022-10-29T07:59:29Z</time>
      </trkpt>
      <trkpt lat="43.3242650" lon="-1.8097380">
        <ele>70.8</ele>
        <time>2022-10-29T07:59:30Z</time>
      </trkpt>
      <trkpt lat="43.3242580" lon="-1.8097840">
        <ele>70.8</ele>
        <time>2022-10-29T07:59:31Z</time>
      </trkpt>
      <trkpt lat="43.3242590" lon="-1.8098340">
        <ele>70.8</ele>
        <time>2022-10-29T07:59:32Z</time>
      </trkpt>
      <trkpt lat="43.3242530" lon="-1.8098900">
        <ele>70.8</ele>
        <time>2022-10-29T07:59:33Z</time>
      </trkpt>
      <trkpt lat="43.3242370" lon="-1.8099590">
        <ele>70.8</ele>
        <time>2022-10-29T07:59:34Z</time>
      </trkpt>
      <trkpt lat="43.3242330" lon="-1.8100420">
        <ele>71.0</ele>
        <time>2022-10-29T07:59:35Z</time>
      </trkpt>
      <trkpt lat="43.3242120" lon="-1.8101600">
        <ele>71.0</ele>
        <time>2022-10-29T07:59:36Z</time>
      </trkpt>
      <trkpt lat="43.3241870" lon="-1.8102550">
        <ele>71.0</ele>
        <time>2022-10-29T07:59:37Z</time>
      </trkpt>
      <trkpt lat="43.3241570" lon="-1.8103540">
        <ele>71.2</ele>
        <time>2022-10-29T07:59:38Z</time>
      </trkpt>
      <trkpt lat="43.3241140" lon="-1.8104460">
        <ele>71.0</ele>
        <time>2022-10-29T07:59:39Z</time>
      </trkpt>
      <trkpt lat="43.3240510" lon="-1.8104980">
        <ele>70.6</ele>
        <time>2022-10-29T07:59:40Z</time>
      </trkpt>
      <trkpt lat="43.3239920" lon="-1.8105150">
        <ele>70.6</ele>
        <time>2022-10-29T07:59:41Z</time>
      </trkpt>
      <trkpt lat="43.3239120" lon="-1.8105170">
        <ele>70.2</ele>
        <time>2022-10-29T07:59:42Z</time>
      </trkpt>
      <trkpt lat="43.3238590" lon="-1.8105110">
        <ele>70.0</ele>
        <time>2022-10-29T07:59:43Z</time>
      </trkpt>
      <trkpt lat="43.3237920" lon="-1.8104890">
        <ele>70.0</ele>
        <time>2022-10-29T07:59:44Z</time>
      </trkpt>
      <trkpt lat="43.3237300" lon="-1.8104440">
        <ele>69.8</ele>
        <time>2022-10-29T07:59:45Z</time>
      </trkpt>
      <trkpt lat="43.3236740" lon="-1.8104000">
        <ele>69.6</ele>
        <time>2022-10-29T07:59:46Z</time>
      </trkpt>
      <trkpt lat="43.3236180" lon="-1.8103590">
        <ele>69.6</ele>
        <time>2022-10-29T07:59:47Z</time>
      </trkpt>
      <trkpt lat="43.3235630" lon="-1.8103160">
        <ele>69.4</ele>
        <time>2022-10-29T07:59:48Z</time>
      </trkpt>
      <trkpt lat="43.3235060" lon="-1.8102700">
        <ele>69.2</ele>
        <time>2022-10-29T07:59:49Z</time>
      </trkpt>
      <trkpt lat="43.3234490" lon="-1.8102350">
        <ele>69.0</ele>
        <time>2022-10-29T07:59:50Z</time>
      </trkpt>
      <trkpt lat="43.3233760" lon="-1.8102110">
        <ele>68.8</ele>
        <time>2022-10-29T07:59:51Z</time>
      </trkpt>
      <trkpt lat="43.3233240" lon="-1.8102020">
        <ele>68.6</ele>
        <time>2022-10-29T07:59:52Z</time>
      </trkpt>
      <trkpt lat="43.3232620" lon="-1.8101940">
        <ele>67.8</ele>
        <time>2022-10-29T07:59:53Z</time>
      </trkpt>
      <trkpt lat="43.3230640" lon="-1.8101790">
        <ele>66.0</ele>
        <time>2022-10-29T07:59:56Z</time>
      </trkpt>
      <trkpt lat="43.3229320" lon="-1.8101630">
        <ele>65.2</ele>
        <time>2022-10-29T07:59:58Z</time>
      </trkpt>
      <trkpt lat="43.3227890" lon="-1.8101480">
        <ele>64.8</ele>
        <time>2022-10-29T08:00:00Z</time>
      </trkpt>
      <trkpt lat="43.3225160" lon="-1.8101610">
        <ele>63.2</ele>
        <time>2022-10-29T08:00:04Z</time>
      </trkpt>
      <trkpt lat="43.3224510" lon="-1.8101790">
        <ele>63.0</ele>
        <time>2022-10-29T08:00:05Z</time>
      </trkpt>
      <trkpt lat="43.3223880" lon="-1.8101910">
        <ele>62.6</ele>
        <time>2022-10-29T08:00:06Z</time>
      </trkpt>
      <trkpt lat="43.3223190" lon="-1.8102110">
        <ele>62.2</ele>
        <time>2022-10-29T08:00:07Z</time>
      </trkpt>
      <trkpt lat="43.3221570" lon="-1.8102540">
        <ele>62.0</ele>
        <time>2022-10-29T08:00:09Z</time>
      </trkpt>
      <trkpt lat="43.3219330" lon="-1.8102580">
        <ele>60.6</ele>
        <time>2022-10-29T08:00:12Z</time>
      </trkpt>
      <trkpt lat="43.3218650" lon="-1.8102520">
        <ele>59.8</ele>
        <time>2022-10-29T08:00:13Z</time>
      </trkpt>
      <trkpt lat="43.3217810" lon="-1.8102530">
        <ele>59.6</ele>
        <time>2022-10-29T08:00:14Z</time>
      </trkpt>
      <trkpt lat="43.3217220" lon="-1.8102640">
        <ele>59.2</ele>
        <time>2022-10-29T08:00:15Z</time>
      </trkpt>
      <trkpt lat="43.3216630" lon="-1.8102880">
        <ele>59.0</ele>
        <time>2022-10-29T08:00:16Z</time>
      </trkpt>
      <trkpt lat="43.3216180" lon="-1.8103150">
        <ele>58.8</ele>
        <time>2022-10-29T08:00:17Z</time>
      </trkpt>
      <trkpt lat="43.3215670" lon="-1.8103570">
        <ele>58.4</ele>
        <time>2022-10-29T08:00:18Z</time>
      </trkpt>
      <trkpt lat="43.3215230" lon="-1.8104040">
        <ele>58.0</ele>
        <time>2022-10-29T08:00:19Z</time>
      </trkpt>
      <trkpt lat="43.3214870" lon="-1.8104390">
        <ele>57.8</ele>
        <time>2022-10-29T08:00:20Z</time>
      </trkpt>
      <trkpt lat="43.3214430" lon="-1.8104690">
        <ele>57.4</ele>
        <time>2022-10-29T08:00:21Z</time>
      </trkpt>
      <trkpt lat="43.3214080" lon="-1.8104960">
        <ele>57.0</ele>
        <time>2022-10-29T08:00:22Z</time>
      </trkpt>
      <trkpt lat="43.3213660" lon="-1.8105280">
        <ele>56.8</ele>
        <time>2022-10-29T08:00:23Z</time>
      </trkpt>
      <trkpt lat="43.3213030" lon="-1.8105650">
        <ele>56.6</ele>
        <time>2022-10-29T08:00:24Z</time>
      </trkpt>
      <trkpt lat="43.3212350" lon="-1.8106270">
        <ele>56.6</ele>
        <time>2022-10-29T08:00:25Z</time>
      </trkpt>
      <trkpt lat="43.3210580" lon="-1.8107010">
        <ele>56.0</ele>
        <time>2022-10-29T08:00:28Z</time>
      </trkpt>
      <trkpt lat="43.3209430" lon="-1.8106990">
        <ele>56.0</ele>
        <time>2022-10-29T08:00:31Z</time>
      </trkpt>
      <trkpt lat="43.3209070" lon="-1.8106960">
        <ele>56.0</ele>
        <time>2022-10-29T08:00:32Z</time>
      </trkpt>
      <trkpt lat="43.3208660" lon="-1.8106870">
        <ele>56.0</ele>
        <time>2022-10-29T08:00:33Z</time>
      </trkpt>
      <trkpt lat="43.3206980" lon="-1.8107130">
        <ele>56.6</ele>
        <time>2022-10-29T08:00:36Z</time>
      </trkpt>
      <trkpt lat="43.3206380" lon="-1.8107320">
        <ele>56.6</ele>
        <time>2022-10-29T08:00:37Z</time>
      </trkpt>
      <trkpt lat="43.3205910" lon="-1.8107510">
        <ele>56.8</ele>
        <time>2022-10-29T08:00:38Z</time>
      </trkpt>
      <trkpt lat="43.3204930" lon="-1.8108130">
        <ele>57.2</ele>
        <time>2022-10-29T08:00:40Z</time>
      </trkpt>
      <trkpt lat="43.3204580" lon="-1.8108550">
        <ele>57.0</ele>
        <time>2022-10-29T08:00:41Z</time>
      </trkpt>
      <trkpt lat="43.3204150" lon="-1.8109140">
        <ele>56.8</ele>
        <time>2022-10-29T08:00:42Z</time>
      </trkpt>
      <trkpt lat="43.3203700" lon="-1.8109860">
        <ele>56.8</ele>
        <time>2022-10-29T08:00:43Z</time>
      </trkpt>
      <trkpt lat="43.3203380" lon="-1.8110560">
        <ele>56.8</ele>
        <time>2022-10-29T08:00:44Z</time>
      </trkpt>
      <trkpt lat="43.3203100" lon="-1.8111070">
        <ele>57.0</ele>
        <time>2022-10-29T08:00:45Z</time>
      </trkpt>
      <trkpt lat="43.3202450" lon="-1.8112180">
        <ele>57.0</ele>
        <time>2022-10-29T08:00:47Z</time>
      </trkpt>
      <trkpt lat="43.3202050" lon="-1.8112610">
        <ele>56.8</ele>
        <time>2022-10-29T08:00:48Z</time>
      </trkpt>
      <trkpt lat="43.3201660" lon="-1.8112990">
        <ele>56.8</ele>
        <time>2022-10-29T08:00:49Z</time>
      </trkpt>
      <trkpt lat="43.3201220" lon="-1.8113380">
        <ele>56.8</ele>
        <time>2022-10-29T08:00:50Z</time>
      </trkpt>
      <trkpt lat="43.3200830" lon="-1.8113670">
        <ele>56.8</ele>
        <time>2022-10-29T08:00:51Z</time>
      </trkpt>
      <trkpt lat="43.3200510" lon="-1.8113990">
        <ele>56.8</ele>
        <time>2022-10-29T08:00:52Z</time>
      </trkpt>
      <trkpt lat="43.3200290" lon="-1.8114320">
        <ele>56.8</ele>
        <time>2022-10-29T08:00:53Z</time>
      </trkpt>
      <trkpt lat="43.3200050" lon="-1.8114620">
        <ele>57.0</ele>
        <time>2022-10-29T08:00:54Z</time>
      </trkpt>
      <trkpt lat="43.3199660" lon="-1.8114930">
        <ele>57.4</ele>
        <time>2022-10-29T08:00:55Z</time>
      </trkpt>
      <trkpt lat="43.3199310" lon="-1.8115190">
        <ele>57.6</ele>
        <time>2022-10-29T08:00:56Z</time>
      </trkpt>
      <trkpt lat="43.3199040" lon="-1.8115480">
        <ele>58.2</ele>
        <time>2022-10-29T08:00:57Z</time>
      </trkpt>
      <trkpt lat="43.3198060" lon="-1.8116100">
        <ele>58.8</ele>
        <time>2022-10-29T08:01:00Z</time>
      </trkpt>
      <trkpt lat="43.3197760" lon="-1.8116180">
        <ele>58.8</ele>
        <time>2022-10-29T08:01:01Z</time>
      </trkpt>
      <trkpt lat="43.3197440" lon="-1.8116250">
        <ele>59.4</ele>
        <time>2022-10-29T08:01:02Z</time>
      </trkpt>
      <trkpt lat="43.3197110" lon="-1.8116270">
        <ele>59.6</ele>
        <time>2022-10-29T08:01:03Z</time>
      </trkpt>
      <trkpt lat="43.3196780" lon="-1.8116270">
        <ele>60.0</ele>
        <time>2022-10-29T08:01:04Z</time>
      </trkpt>
      <trkpt lat="43.3196500" lon="-1.8116260">
        <ele>60.2</ele>
        <time>2022-10-29T08:01:05Z</time>
      </trkpt>
      <trkpt lat="43.3196240" lon="-1.8116250">
        <ele>60.4</ele>
        <time>2022-10-29T08:01:06Z</time>
      </trkpt>
      <trkpt lat="43.3196040" lon="-1.8116180">
        <ele>60.6</ele>
        <time>2022-10-29T08:01:07Z</time>
      </trkpt>
      <trkpt lat="43.3195860" lon="-1.8116020">
        <ele>60.8</ele>
        <time>2022-10-29T08:01:08Z</time>
      </trkpt>
      <trkpt lat="43.3195690" lon="-1.8115780">
        <ele>61.2</ele>
        <time>2022-10-29T08:01:09Z</time>
      </trkpt>
      <trkpt lat="43.3195560" lon="-1.8115460">
        <ele>61.6</ele>
        <time>2022-10-29T08:01:10Z</time>
      </trkpt>
      <trkpt lat="43.3195450" lon="-1.8115140">
        <ele>62.0</ele>
        <time>2022-10-29T08:01:11Z</time>
      </trkpt>
      <trkpt lat="43.3195300" lon="-1.8114820">
        <ele>62.0</ele>
        <time>2022-10-29T08:01:12Z</time>
      </trkpt>
      <trkpt lat="43.3195150" lon="-1.8114480">
        <ele>62.2</ele>
        <time>2022-10-29T08:01:13Z</time>
      </trkpt>
      <trkpt lat="43.3195020" lon="-1.8114140">
        <ele>62.4</ele>
        <time>2022-10-29T08:01:14Z</time>
      </trkpt>
      <trkpt lat="43.3194930" lon="-1.8113810">
        <ele>62.6</ele>
        <time>2022-10-29T08:01:15Z</time>
      </trkpt>
      <trkpt lat="43.3194860" lon="-1.8113520">
        <ele>62.8</ele>
        <time>2022-10-29T08:01:16Z</time>
      </trkpt>
      <trkpt lat="43.3194840" lon="-1.8113200">
        <ele>63.0</ele>
        <time>2022-10-29T08:01:17Z</time>
      </trkpt>
      <trkpt lat="43.3194900" lon="-1.8112860">
        <ele>63.2</ele>
        <time>2022-10-29T08:01:18Z</time>
      </trkpt>
      <trkpt lat="43.3195050" lon="-1.8112500">
        <ele>63.4</ele>
        <time>2022-10-29T08:01:19Z</time>
      </trkpt>
      <trkpt lat="43.3195230" lon="-1.8112040">
        <ele>63.6</ele>
        <time>2022-10-29T08:01:20Z</time>
      </trkpt>
      <trkpt lat="43.3195360" lon="-1.8111530">
        <ele>63.6</ele>
        <time>2022-10-29T08:01:21Z</time>
      </trkpt>
      <trkpt lat="43.3195480" lon="-1.8110790">
        <ele>63.8</ele>
        <time>2022-10-29T08:01:22Z</time>
      </trkpt>
      <trkpt lat="43.3195510" lon="-1.8110060">
        <ele>63.8</ele>
        <time>2022-10-29T08:01:23Z</time>
      </trkpt>
      <trkpt lat="43.3195450" lon="-1.8109430">
        <ele>63.8</ele>
        <time>2022-10-29T08:01:24Z</time>
      </trkpt>
      <trkpt lat="43.3195330" lon="-1.8108740">
        <ele>63.8</ele>
        <time>2022-10-29T08:01:25Z</time>
      </trkpt>
      <trkpt lat="43.3195160" lon="-1.8107930">
        <ele>63.8</ele>
        <time>2022-10-29T08:01:26Z</time>
      </trkpt>
      <trkpt lat="43.3194920" lon="-1.8107120">
        <ele>63.6</ele>
        <time>2022-10-29T08:01:27Z</time>
      </trkpt>
      <trkpt lat="43.3194600" lon="-1.8106480">
        <ele>63.6</ele>
        <time>2022-10-29T08:01:28Z</time>
      </trkpt>
      <trkpt lat="43.3194290" lon="-1.8105890">
        <ele>63.4</ele>
        <time>2022-10-29T08:01:29Z</time>
      </trkpt>
      <trkpt lat="43.3193940" lon="-1.8105460">
        <ele>63.4</ele>
        <time>2022-10-29T08:01:30Z</time>
      </trkpt>
      <trkpt lat="43.3193450" lon="-1.8105070">
        <ele>63.2</ele>
        <time>2022-10-29T08:01:31Z</time>
      </trkpt>
      <trkpt lat="43.3192900" lon="-1.8104760">
        <ele>63.2</ele>
        <time>2022-10-29T08:01:32Z</time>
      </trkpt>
      <trkpt lat="43.3192340" lon="-1.8104580">
        <ele>63.4</ele>
        <time>2022-10-29T08:01:33Z</time>
      </trkpt>
      <trkpt lat="43.3191860" lon="-1.8104450">
        <ele>63.0</ele>
        <time>2022-10-29T08:01:34Z</time>
      </trkpt>
      <trkpt lat="43.3191380" lon="-1.8104280">
        <ele>63.0</ele>
        <time>2022-10-29T08:01:35Z</time>
      </trkpt>
      <trkpt lat="43.3190900" lon="-1.8104210">
        <ele>63.0</ele>
        <time>2022-10-29T08:01:36Z</time>
      </trkpt>
      <trkpt lat="43.3190510" lon="-1.8104150">
        <ele>63.0</ele>
        <time>2022-10-29T08:01:37Z</time>
      </trkpt>
      <trkpt lat="43.3189470" lon="-1.8104140">
        <ele>63.4</ele>
        <time>2022-10-29T08:01:39Z</time>
      </trkpt>
      <trkpt lat="43.3188600" lon="-1.8103470">
        <ele>63.2</ele>
        <time>2022-10-29T08:01:41Z</time>
      </trkpt>
      <trkpt lat="43.3188360" lon="-1.8102970">
        <ele>63.2</ele>
        <time>2022-10-29T08:01:42Z</time>
      </trkpt>
      <trkpt lat="43.3188150" lon="-1.8102550">
        <ele>63.0</ele>
        <time>2022-10-29T08:01:43Z</time>
      </trkpt>
      <trkpt lat="43.3187950" lon="-1.8102380">
        <ele>62.8</ele>
        <time>2022-10-29T08:01:44Z</time>
      </trkpt>
      <trkpt lat="43.3187640" lon="-1.8102290">
        <ele>62.6</ele>
        <time>2022-10-29T08:01:45Z</time>
      </trkpt>
      <trkpt lat="43.3187380" lon="-1.8102310">
        <ele>62.2</ele>
        <time>2022-10-29T08:01:46Z</time>
      </trkpt>
      <trkpt lat="43.3187250" lon="-1.8102320">
        <ele>62.0</ele>
        <time>2022-10-29T08:01:47Z</time>
      </trkpt>
      <trkpt lat="43.3187200" lon="-1.8102290">
        <ele>61.6</ele>
        <time>2022-10-29T08:01:48Z</time>
      </trkpt>
      <trkpt lat="43.3187200" lon="-1.8102290">
        <ele>61.4</ele>
        <time>2022-10-29T08:01:49Z</time>
      </trkpt>
      <trkpt lat="43.3187200" lon="-1.8102290">
        <ele>61.0</ele>
        <time>2022-10-29T08:01:50Z</time>
      </trkpt>
      <trkpt lat="43.3186780" lon="-1.8101920">
        <ele>60.6</ele>
        <time>2022-10-29T08:01:55Z</time>
      </trkpt>
      <trkpt lat="43.3186660" lon="-1.8101700">
        <ele>60.6</ele>
        <time>2022-10-29T08:01:56Z</time>
      </trkpt>
      <trkpt lat="43.3186560" lon="-1.8101420">
        <ele>60.6</ele>
        <time>2022-10-29T08:01:57Z</time>
      </trkpt>
      <trkpt lat="43.3186510" lon="-1.8101100">
        <ele>60.6</ele>
        <time>2022-10-29T08:01:58Z</time>
      </trkpt>
      <trkpt lat="43.3186510" lon="-1.8100780">
        <ele>60.6</ele>
        <time>2022-10-29T08:01:59Z</time>
      </trkpt>
      <trkpt lat="43.3186510" lon="-1.8100520">
        <ele>60.6</ele>
        <time>2022-10-29T08:02:00Z</time>
      </trkpt>
      <trkpt lat="43.3186450" lon="-1.8100330">
        <ele>60.6</ele>
        <time>2022-10-29T08:02:01Z</time>
      </trkpt>
      <trkpt lat="43.3186400" lon="-1.8100140">
        <ele>60.8</ele>
        <time>2022-10-29T08:02:02Z</time>
      </trkpt>
      <trkpt lat="43.3186290" lon="-1.8099970">
        <ele>60.8</ele>
        <time>2022-10-29T08:02:03Z</time>
      </trkpt>
      <trkpt lat="43.3186200" lon="-1.8099710">
        <ele>60.8</ele>
        <time>2022-10-29T08:02:04Z</time>
      </trkpt>
      <trkpt lat="43.3186080" lon="-1.8099410">
        <ele>60.8</ele>
        <time>2022-10-29T08:02:05Z</time>
      </trkpt>
      <trkpt lat="43.3185730" lon="-1.8098650">
        <ele>61.0</ele>
        <time>2022-10-29T08:02:08Z</time>
      </trkpt>
      <trkpt lat="43.3185600" lon="-1.8098410">
        <ele>61.0</ele>
        <time>2022-10-29T08:02:09Z</time>
      </trkpt>
      <trkpt lat="43.3185450" lon="-1.8098120">
        <ele>61.2</ele>
        <time>2022-10-29T08:02:10Z</time>
      </trkpt>
      <trkpt lat="43.3185320" lon="-1.8097870">
        <ele>61.2</ele>
        <time>2022-10-29T08:02:11Z</time>
      </trkpt>
      <trkpt lat="43.3185170" lon="-1.8097670">
        <ele>61.0</ele>
        <time>2022-10-29T08:02:12Z</time>
      </trkpt>
      <trkpt lat="43.3185060" lon="-1.8097560">
        <ele>61.2</ele>
        <time>2022-10-29T08:02:13Z</time>
      </trkpt>
      <trkpt lat="43.3184930" lon="-1.8097260">
        <ele>61.2</ele>
        <time>2022-10-29T08:02:14Z</time>
      </trkpt>
      <trkpt lat="43.3184510" lon="-1.8096150">
        <ele>61.4</ele>
        <time>2022-10-29T08:02:17Z</time>
      </trkpt>
      <trkpt lat="43.3184160" lon="-1.8095370">
        <ele>61.6</ele>
        <time>2022-10-29T08:02:20Z</time>
      </trkpt>
      <trkpt lat="43.3184090" lon="-1.8095160">
        <ele>61.6</ele>
        <time>2022-10-29T08:02:21Z</time>
      </trkpt>
      <trkpt lat="43.3184020" lon="-1.8094950">
        <ele>61.8</ele>
        <time>2022-10-29T08:02:22Z</time>
      </trkpt>
      <trkpt lat="43.3183940" lon="-1.8094770">
        <ele>62.0</ele>
        <time>2022-10-29T08:02:23Z</time>
      </trkpt>
      <trkpt lat="43.3183500" lon="-1.8093760">
        <ele>63.0</ele>
        <time>2022-10-29T08:02:27Z</time>
      </trkpt>
      <trkpt lat="43.3183330" lon="-1.8093560">
        <ele>63.2</ele>
        <time>2022-10-29T08:02:28Z</time>
      </trkpt>
      <trkpt lat="43.3183150" lon="-1.8093150">
        <ele>63.6</ele>
        <time>2022-10-29T08:02:29Z</time>
      </trkpt>
      <trkpt lat="43.3183020" lon="-1.8092760">
        <ele>64.0</ele>
        <time>2022-10-29T08:02:30Z</time>
      </trkpt>
      <trkpt lat="43.3182940" lon="-1.8092490">
        <ele>64.4</ele>
        <time>2022-10-29T08:02:31Z</time>
      </trkpt>
      <trkpt lat="43.3182800" lon="-1.8092220">
        <ele>64.6</ele>
        <time>2022-10-29T08:02:32Z</time>
      </trkpt>
      <trkpt lat="43.3182670" lon="-1.8091930">
        <ele>64.8</ele>
        <time>2022-10-29T08:02:33Z</time>
      </trkpt>
      <trkpt lat="43.3182550" lon="-1.8091590">
        <ele>65.0</ele>
        <time>2022-10-29T08:02:34Z</time>
      </trkpt>
      <trkpt lat="43.3182330" lon="-1.8091210">
        <ele>65.2</ele>
        <time>2022-10-29T08:02:35Z</time>
      </trkpt>
      <trkpt lat="43.3182230" lon="-1.8090830">
        <ele>65.2</ele>
        <time>2022-10-29T08:02:36Z</time>
      </trkpt>
      <trkpt lat="43.3182130" lon="-1.8090590">
        <ele>65.4</ele>
        <time>2022-10-29T08:02:37Z</time>
      </trkpt>
      <trkpt lat="43.3181960" lon="-1.8090240">
        <ele>65.4</ele>
        <time>2022-10-29T08:02:38Z</time>
      </trkpt>
      <trkpt lat="43.3181940" lon="-1.8089900">
        <ele>65.6</ele>
        <time>2022-10-29T08:02:39Z</time>
      </trkpt>
      <trkpt lat="43.3181950" lon="-1.8089620">
        <ele>65.6</ele>
        <time>2022-10-29T08:02:40Z</time>
      </trkpt>
      <trkpt lat="43.3181880" lon="-1.8089250">
        <ele>65.6</ele>
        <time>2022-10-29T08:02:41Z</time>
      </trkpt>
      <trkpt lat="43.3181770" lon="-1.8088810">
        <ele>65.6</ele>
        <time>2022-10-29T08:02:42Z</time>
      </trkpt>
      <trkpt lat="43.3181700" lon="-1.8088470">
        <ele>65.8</ele>
        <time>2022-10-29T08:02:43Z</time>
      </trkpt>
      <trkpt lat="43.3181560" lon="-1.8088210">
        <ele>65.8</ele>
        <time>2022-10-29T08:02:44Z</time>
      </trkpt>
      <trkpt lat="43.3181340" lon="-1.8088000">
        <ele>66.0</ele>
        <time>2022-10-29T08:02:45Z</time>
      </trkpt>
      <trkpt lat="43.3181080" lon="-1.8087470">
        <ele>66.0</ele>
        <time>2022-10-29T08:02:46Z</time>
      </trkpt>
      <trkpt lat="43.3180800" lon="-1.8087040">
        <ele>66.0</ele>
        <time>2022-10-29T08:02:47Z</time>
      </trkpt>
      <trkpt lat="43.3180610" lon="-1.8086800">
        <ele>66.2</ele>
        <time>2022-10-29T08:02:48Z</time>
      </trkpt>
      <trkpt lat="43.3180450" lon="-1.8086530">
        <ele>66.2</ele>
        <time>2022-10-29T08:02:49Z</time>
      </trkpt>
      <trkpt lat="43.3180350" lon="-1.8086500">
        <ele>66.2</ele>
        <time>2022-10-29T08:02:50Z</time>
      </trkpt>
      <trkpt lat="43.3180210" lon="-1.8086520">
        <ele>66.2</ele>
        <time>2022-10-29T08:02:51Z</time>
      </trkpt>
      <trkpt lat="43.3180040" lon="-1.8086600">
        <ele>66.6</ele>
        <time>2022-10-29T08:02:52Z</time>
      </trkpt>
      <trkpt lat="43.3179880" lon="-1.8086560">
        <ele>66.6</ele>
        <time>2022-10-29T08:02:53Z</time>
      </trkpt>
      <trkpt lat="43.3179720" lon="-1.8086560">
        <ele>67.0</ele>
        <time>2022-10-29T08:02:54Z</time>
      </trkpt>
      <trkpt lat="43.3179530" lon="-1.8086510">
        <ele>67.4</ele>
        <time>2022-10-29T08:02:55Z</time>
      </trkpt>
      <trkpt lat="43.3179320" lon="-1.8086460">
        <ele>67.6</ele>
        <time>2022-10-29T08:02:56Z</time>
      </trkpt>
      <trkpt lat="43.3179180" lon="-1.8086400">
        <ele>68.0</ele>
        <time>2022-10-29T08:02:57Z</time>
      </trkpt>
      <trkpt lat="43.3179030" lon="-1.8086320">
        <ele>68.0</ele>
        <time>2022-10-29T08:02:58Z</time>
      </trkpt>
      <trkpt lat="43.3178850" lon="-1.8086210">
        <ele>68.4</ele>
        <time>2022-10-29T08:02:59Z</time>
      </trkpt>
      <trkpt lat="43.3178670" lon="-1.8086070">
        <ele>68.6</ele>
        <time>2022-10-29T08:03:00Z</time>
      </trkpt>
      <trkpt lat="43.3178490" lon="-1.8085890">
        <ele>68.8</ele>
        <time>2022-10-29T08:03:01Z</time>
      </trkpt>
      <trkpt lat="43.3178320" lon="-1.8085730">
        <ele>69.0</ele>
        <time>2022-10-29T08:03:02Z</time>
      </trkpt>
      <trkpt lat="43.3178170" lon="-1.8085620">
        <ele>69.2</ele>
        <time>2022-10-29T08:03:03Z</time>
      </trkpt>
      <trkpt lat="43.3178090" lon="-1.8085520">
        <ele>69.2</ele>
        <time>2022-10-29T08:03:04Z</time>
      </trkpt>
      <trkpt lat="43.3177970" lon="-1.8085420">
        <ele>69.4</ele>
        <time>2022-10-29T08:03:05Z</time>
      </trkpt>
      <trkpt lat="43.3177800" lon="-1.8085320">
        <ele>70.0</ele>
        <time>2022-10-29T08:03:06Z</time>
      </trkpt>
      <trkpt lat="43.3177620" lon="-1.8085170">
        <ele>70.2</ele>
        <time>2022-10-29T08:03:07Z</time>
      </trkpt>
      <trkpt lat="43.3177470" lon="-1.8085060">
        <ele>70.8</ele>
        <time>2022-10-29T08:03:08Z</time>
      </trkpt>
      <trkpt lat="43.3177250" lon="-1.8084950">
        <ele>70.8</ele>
        <time>2022-10-29T08:03:09Z</time>
      </trkpt>
      <trkpt lat="43.3177070" lon="-1.8084830">
        <ele>71.0</ele>
        <time>2022-10-29T08:03:10Z</time>
      </trkpt>
      <trkpt lat="43.3176890" lon="-1.8084670">
        <ele>71.2</ele>
        <time>2022-10-29T08:03:11Z</time>
      </trkpt>
      <trkpt lat="43.3176630" lon="-1.8084490">
        <ele>71.4</ele>
        <time>2022-10-29T08:03:12Z</time>
      </trkpt>
      <trkpt lat="43.3176300" lon="-1.8084420">
        <ele>71.6</ele>
        <time>2022-10-29T08:03:13Z</time>
      </trkpt>
      <trkpt lat="43.3175940" lon="-1.8084330">
        <ele>71.6</ele>
        <time>2022-10-29T08:03:14Z</time>
      </trkpt>
      <trkpt lat="43.3175520" lon="-1.8084240">
        <ele>71.6</ele>
        <time>2022-10-29T08:03:15Z</time>
      </trkpt>
      <trkpt lat="43.3175090" lon="-1.8084100">
        <ele>71.6</ele>
        <time>2022-10-29T08:03:16Z</time>
      </trkpt>
      <trkpt lat="43.3174650" lon="-1.8083910">
        <ele>71.6</ele>
        <time>2022-10-29T08:03:17Z</time>
      </trkpt>
      <trkpt lat="43.3174210" lon="-1.8083560">
        <ele>71.6</ele>
        <time>2022-10-29T08:03:18Z</time>
      </trkpt>
      <trkpt lat="43.3173720" lon="-1.8083220">
        <ele>71.4</ele>
        <time>2022-10-29T08:03:19Z</time>
      </trkpt>
      <trkpt lat="43.3173170" lon="-1.8082990">
        <ele>71.2</ele>
        <time>2022-10-29T08:03:20Z</time>
      </trkpt>
      <trkpt lat="43.3172630" lon="-1.8082880">
        <ele>70.8</ele>
        <time>2022-10-29T08:03:21Z</time>
      </trkpt>
      <trkpt lat="43.3172180" lon="-1.8082830">
        <ele>70.6</ele>
        <time>2022-10-29T08:03:22Z</time>
      </trkpt>
      <trkpt lat="43.3171720" lon="-1.8082800">
        <ele>70.2</ele>
        <time>2022-10-29T08:03:23Z</time>
      </trkpt>
      <trkpt lat="43.3171230" lon="-1.8082840">
        <ele>70.0</ele>
        <time>2022-10-29T08:03:24Z</time>
      </trkpt>
      <trkpt lat="43.3170680" lon="-1.8082900">
        <ele>69.8</ele>
        <time>2022-10-29T08:03:25Z</time>
      </trkpt>
      <trkpt lat="43.3170180" lon="-1.8082970">
        <ele>69.4</ele>
        <time>2022-10-29T08:03:26Z</time>
      </trkpt>
      <trkpt lat="43.3169720" lon="-1.8083070">
        <ele>69.4</ele>
        <time>2022-10-29T08:03:27Z</time>
      </trkpt>
      <trkpt lat="43.3169290" lon="-1.8083170">
        <ele>69.2</ele>
        <time>2022-10-29T08:03:28Z</time>
      </trkpt>
      <trkpt lat="43.3168910" lon="-1.8083260">
        <ele>69.0</ele>
        <time>2022-10-29T08:03:29Z</time>
      </trkpt>
      <trkpt lat="43.3168500" lon="-1.8083390">
        <ele>68.8</ele>
        <time>2022-10-29T08:03:30Z</time>
      </trkpt>
      <trkpt lat="43.3168090" lon="-1.8083520">
        <ele>68.6</ele>
        <time>2022-10-29T08:03:31Z</time>
      </trkpt>
      <trkpt lat="43.3167740" lon="-1.8083670">
        <ele>68.6</ele>
        <time>2022-10-29T08:03:32Z</time>
      </trkpt>
      <trkpt lat="43.3167380" lon="-1.8083870">
        <ele>68.6</ele>
        <time>2022-10-29T08:03:33Z</time>
      </trkpt>
      <trkpt lat="43.3166950" lon="-1.8084120">
        <ele>68.6</ele>
        <time>2022-10-29T08:03:34Z</time>
      </trkpt>
      <trkpt lat="43.3166560" lon="-1.8084400">
        <ele>68.6</ele>
        <time>2022-10-29T08:03:35Z</time>
      </trkpt>
      <trkpt lat="43.3165910" lon="-1.8084800">
        <ele>69.0</ele>
        <time>2022-10-29T08:03:37Z</time>
      </trkpt>
      <trkpt lat="43.3165640" lon="-1.8084980">
        <ele>69.0</ele>
        <time>2022-10-29T08:03:38Z</time>
      </trkpt>
      <trkpt lat="43.3165370" lon="-1.8085140">
        <ele>69.2</ele>
        <time>2022-10-29T08:03:39Z</time>
      </trkpt>
      <trkpt lat="43.3165100" lon="-1.8085300">
        <ele>69.4</ele>
        <time>2022-10-29T08:03:40Z</time>
      </trkpt>
      <trkpt lat="43.3164800" lon="-1.8085480">
        <ele>69.8</ele>
        <time>2022-10-29T08:03:41Z</time>
      </trkpt>
      <trkpt lat="43.3164250" lon="-1.8085890">
        <ele>70.4</ele>
        <time>2022-10-29T08:03:43Z</time>
      </trkpt>
      <trkpt lat="43.3163880" lon="-1.8086390">
        <ele>70.6</ele>
        <time>2022-10-29T08:03:45Z</time>
      </trkpt>
      <trkpt lat="43.3163740" lon="-1.8086650">
        <ele>70.8</ele>
        <time>2022-10-29T08:03:46Z</time>
      </trkpt>
      <trkpt lat="43.3163650" lon="-1.8086860">
        <ele>71.0</ele>
        <time>2022-10-29T08:03:47Z</time>
      </trkpt>
      <trkpt lat="43.3163610" lon="-1.8087180">
        <ele>71.4</ele>
        <time>2022-10-29T08:03:48Z</time>
      </trkpt>
      <trkpt lat="43.3163550" lon="-1.8087470">
        <ele>71.6</ele>
        <time>2022-10-29T08:03:49Z</time>
      </trkpt>
      <trkpt lat="43.3163500" lon="-1.8087740">
        <ele>72.0</ele>
        <time>2022-10-29T08:03:50Z</time>
      </trkpt>
      <trkpt lat="43.3163430" lon="-1.8087970">
        <ele>72.4</ele>
        <time>2022-10-29T08:03:51Z</time>
      </trkpt>
      <trkpt lat="43.3163340" lon="-1.8088210">
        <ele>72.8</ele>
        <time>2022-10-29T08:03:52Z</time>
      </trkpt>
      <trkpt lat="43.3163300" lon="-1.8088370">
        <ele>73.0</ele>
        <time>2022-10-29T08:03:53Z</time>
      </trkpt>
      <trkpt lat="43.3163310" lon="-1.8088620">
        <ele>73.2</ele>
        <time>2022-10-29T08:03:54Z</time>
      </trkpt>
      <trkpt lat="43.3163360" lon="-1.8088910">
        <ele>73.4</ele>
        <time>2022-10-29T08:03:55Z</time>
      </trkpt>
      <trkpt lat="43.3163440" lon="-1.8089240">
        <ele>73.8</ele>
        <time>2022-10-29T08:03:56Z</time>
      </trkpt>
      <trkpt lat="43.3163530" lon="-1.8089570">
        <ele>74.0</ele>
        <time>2022-10-29T08:03:57Z</time>
      </trkpt>
      <trkpt lat="43.3163630" lon="-1.8089860">
        <ele>74.6</ele>
        <time>2022-10-29T08:03:58Z</time>
      </trkpt>
      <trkpt lat="43.3163760" lon="-1.8090180">
        <ele>75.0</ele>
        <time>2022-10-29T08:03:59Z</time>
      </trkpt>
      <trkpt lat="43.3163910" lon="-1.8090520">
        <ele>75.4</ele>
        <time>2022-10-29T08:04:00Z</time>
      </trkpt>
      <trkpt lat="43.3164060" lon="-1.8090850">
        <ele>75.6</ele>
        <time>2022-10-29T08:04:01Z</time>
      </trkpt>
      <trkpt lat="43.3164210" lon="-1.8091160">
        <ele>75.8</ele>
        <time>2022-10-29T08:04:02Z</time>
      </trkpt>
      <trkpt lat="43.3164360" lon="-1.8091530">
        <ele>75.8</ele>
        <time>2022-10-29T08:04:03Z</time>
      </trkpt>
      <trkpt lat="43.3164500" lon="-1.8091890">
        <ele>76.0</ele>
        <time>2022-10-29T08:04:04Z</time>
      </trkpt>
      <trkpt lat="43.3164620" lon="-1.8092250">
        <ele>76.0</ele>
        <time>2022-10-29T08:04:05Z</time>
      </trkpt>
      <trkpt lat="43.3164700" lon="-1.8092620">
        <ele>76.2</ele>
        <time>2022-10-29T08:04:06Z</time>
      </trkpt>
      <trkpt lat="43.3164750" lon="-1.8093010">
        <ele>76.2</ele>
        <time>2022-10-29T08:04:07Z</time>
      </trkpt>
      <trkpt lat="43.3164810" lon="-1.8093400">
        <ele>76.2</ele>
        <time>2022-10-29T08:04:08Z</time>
      </trkpt>
      <trkpt lat="43.3164830" lon="-1.8093780">
        <ele>76.0</ele>
        <time>2022-10-29T08:04:09Z</time>
      </trkpt>
      <trkpt lat="43.3164850" lon="-1.8094180">
        <ele>76.0</ele>
        <time>2022-10-29T08:04:10Z</time>
      </trkpt>
      <trkpt lat="43.3164860" lon="-1.8094580">
        <ele>76.0</ele>
        <time>2022-10-29T08:04:11Z</time>
      </trkpt>
      <trkpt lat="43.3164840" lon="-1.8094990">
        <ele>76.2</ele>
        <time>2022-10-29T08:04:12Z</time>
      </trkpt>
      <trkpt lat="43.3164790" lon="-1.8095370">
        <ele>76.2</ele>
        <time>2022-10-29T08:04:13Z</time>
      </trkpt>
      <trkpt lat="43.3164720" lon="-1.8095750">
        <ele>76.2</ele>
        <time>2022-10-29T08:04:14Z</time>
      </trkpt>
      <trkpt lat="43.3164640" lon="-1.8096150">
        <ele>76.2</ele>
        <time>2022-10-29T08:04:15Z</time>
      </trkpt>
      <trkpt lat="43.3164560" lon="-1.8096520">
        <ele>76.2</ele>
        <time>2022-10-29T08:04:16Z</time>
      </trkpt>
      <trkpt lat="43.3164470" lon="-1.8096900">
        <ele>76.2</ele>
        <time>2022-10-29T08:04:17Z</time>
      </trkpt>
      <trkpt lat="43.3164370" lon="-1.8097280">
        <ele>76.4</ele>
        <time>2022-10-29T08:04:18Z</time>
      </trkpt>
      <trkpt lat="43.3164270" lon="-1.8097680">
        <ele>76.4</ele>
        <time>2022-10-29T08:04:19Z</time>
      </trkpt>
      <trkpt lat="43.3164180" lon="-1.8098090">
        <ele>76.6</ele>
        <time>2022-10-29T08:04:20Z</time>
      </trkpt>
      <trkpt lat="43.3164080" lon="-1.8098490">
        <ele>76.6</ele>
        <time>2022-10-29T08:04:21Z</time>
      </trkpt>
      <trkpt lat="43.3163970" lon="-1.8098890">
        <ele>76.8</ele>
        <time>2022-10-29T08:04:22Z</time>
      </trkpt>
      <trkpt lat="43.3163850" lon="-1.8099280">
        <ele>76.8</ele>
        <time>2022-10-29T08:04:23Z</time>
      </trkpt>
      <trkpt lat="43.3163720" lon="-1.8099670">
        <ele>76.8</ele>
        <time>2022-10-29T08:04:24Z</time>
      </trkpt>
      <trkpt lat="43.3163550" lon="-1.8100010">
        <ele>76.8</ele>
        <time>2022-10-29T08:04:25Z</time>
      </trkpt>
      <trkpt lat="43.3163350" lon="-1.8100290">
        <ele>76.8</ele>
        <time>2022-10-29T08:04:26Z</time>
      </trkpt>
      <trkpt lat="43.3163130" lon="-1.8100600">
        <ele>77.2</ele>
        <time>2022-10-29T08:04:27Z</time>
      </trkpt>
      <trkpt lat="43.3162900" lon="-1.8100870">
        <ele>77.2</ele>
        <time>2022-10-29T08:04:28Z</time>
      </trkpt>
      <trkpt lat="43.3162660" lon="-1.8101120">
        <ele>77.4</ele>
        <time>2022-10-29T08:04:29Z</time>
      </trkpt>
      <trkpt lat="43.3162420" lon="-1.8101380">
        <ele>77.4</ele>
        <time>2022-10-29T08:04:30Z</time>
      </trkpt>
      <trkpt lat="43.3161740" lon="-1.8102180">
        <ele>77.8</ele>
        <time>2022-10-29T08:04:33Z</time>
      </trkpt>
      <trkpt lat="43.3161520" lon="-1.8102450">
        <ele>77.8</ele>
        <time>2022-10-29T08:04:34Z</time>
      </trkpt>
      <trkpt lat="43.3161290" lon="-1.8102730">
        <ele>77.8</ele>
        <time>2022-10-29T08:04:35Z</time>
      </trkpt>
      <trkpt lat="43.3160590" lon="-1.8103510">
        <ele>78.0</ele>
        <time>2022-10-29T08:04:38Z</time>
      </trkpt>
      <trkpt lat="43.3160350" lon="-1.8103740">
        <ele>77.8</ele>
        <time>2022-10-29T08:04:39Z</time>
      </trkpt>
      <trkpt lat="43.3159450" lon="-1.8104680">
        <ele>78.0</ele>
        <time>2022-10-29T08:04:43Z</time>
      </trkpt>
      <trkpt lat="43.3159210" lon="-1.8104930">
        <ele>78.2</ele>
        <time>2022-10-29T08:04:44Z</time>
      </trkpt>
      <trkpt lat="43.3158970" lon="-1.8105160">
        <ele>78.2</ele>
        <time>2022-10-29T08:04:45Z</time>
      </trkpt>
      <trkpt lat="43.3158710" lon="-1.8105350">
        <ele>78.2</ele>
        <time>2022-10-29T08:04:46Z</time>
      </trkpt>
      <trkpt lat="43.3157590" lon="-1.8106050">
        <ele>79.0</ele>
        <time>2022-10-29T08:04:50Z</time>
      </trkpt>
      <trkpt lat="43.3156030" lon="-1.8107000">
        <ele>79.8</ele>
        <time>2022-10-29T08:04:55Z</time>
      </trkpt>
      <trkpt lat="43.3155750" lon="-1.8107250">
        <ele>80.2</ele>
        <time>2022-10-29T08:04:56Z</time>
      </trkpt>
      <trkpt lat="43.3155490" lon="-1.8107500">
        <ele>80.2</ele>
        <time>2022-10-29T08:04:57Z</time>
      </trkpt>
      <trkpt lat="43.3155170" lon="-1.8107790">
        <ele>80.4</ele>
        <time>2022-10-29T08:04:58Z</time>
      </trkpt>
      <trkpt lat="43.3154900" lon="-1.8108030">
        <ele>80.6</ele>
        <time>2022-10-29T08:04:59Z</time>
      </trkpt>
      <trkpt lat="43.3154610" lon="-1.8108280">
        <ele>80.6</ele>
        <time>2022-10-29T08:05:00Z</time>
      </trkpt>
      <trkpt lat="43.3154330" lon="-1.8108520">
        <ele>81.0</ele>
        <time>2022-10-29T08:05:01Z</time>
      </trkpt>
      <trkpt lat="43.3154110" lon="-1.8108700">
        <ele>81.2</ele>
        <time>2022-10-29T08:05:02Z</time>
      </trkpt>
      <trkpt lat="43.3153790" lon="-1.8109000">
        <ele>81.4</ele>
        <time>2022-10-29T08:05:03Z</time>
      </trkpt>
      <trkpt lat="43.3153530" lon="-1.8109250">
        <ele>81.4</ele>
        <time>2022-10-29T08:05:04Z</time>
      </trkpt>
      <trkpt lat="43.3153250" lon="-1.8109470">
        <ele>81.6</ele>
        <time>2022-10-29T08:05:05Z</time>
      </trkpt>
      <trkpt lat="43.3153030" lon="-1.8109660">
        <ele>81.6</ele>
        <time>2022-10-29T08:05:06Z</time>
      </trkpt>
      <trkpt lat="43.3152780" lon="-1.8109890">
        <ele>81.6</ele>
        <time>2022-10-29T08:05:07Z</time>
      </trkpt>
      <trkpt lat="43.3152490" lon="-1.8110170">
        <ele>81.8</ele>
        <time>2022-10-29T08:05:08Z</time>
      </trkpt>
      <trkpt lat="43.3152240" lon="-1.8110390">
        <ele>81.8</ele>
        <time>2022-10-29T08:05:09Z</time>
      </trkpt>
      <trkpt lat="43.3151990" lon="-1.8110600">
        <ele>82.0</ele>
        <time>2022-10-29T08:05:10Z</time>
      </trkpt>
      <trkpt lat="43.3151800" lon="-1.8110780">
        <ele>82.0</ele>
        <time>2022-10-29T08:05:11Z</time>
      </trkpt>
      <trkpt lat="43.3151610" lon="-1.8111020">
        <ele>82.6</ele>
        <time>2022-10-29T08:05:12Z</time>
      </trkpt>
      <trkpt lat="43.3151370" lon="-1.8111300">
        <ele>82.8</ele>
        <time>2022-10-29T08:05:13Z</time>
      </trkpt>
      <trkpt lat="43.3151190" lon="-1.8111610">
        <ele>83.0</ele>
        <time>2022-10-29T08:05:14Z</time>
      </trkpt>
      <trkpt lat="43.3151020" lon="-1.8111920">
        <ele>83.0</ele>
        <time>2022-10-29T08:05:15Z</time>
      </trkpt>
      <trkpt lat="43.3150880" lon="-1.8112180">
        <ele>83.2</ele>
        <time>2022-10-29T08:05:16Z</time>
      </trkpt>
      <trkpt lat="43.3150690" lon="-1.8112510">
        <ele>83.2</ele>
        <time>2022-10-29T08:05:17Z</time>
      </trkpt>
      <trkpt lat="43.3150420" lon="-1.8112840">
        <ele>83.4</ele>
        <time>2022-10-29T08:05:18Z</time>
      </trkpt>
      <trkpt lat="43.3150200" lon="-1.8113080">
        <ele>83.4</ele>
        <time>2022-10-29T08:05:19Z</time>
      </trkpt>
      <trkpt lat="43.3150030" lon="-1.8113230">
        <ele>83.4</ele>
        <time>2022-10-29T08:05:20Z</time>
      </trkpt>
      <trkpt lat="43.3149760" lon="-1.8113470">
        <ele>83.6</ele>
        <time>2022-10-29T08:05:21Z</time>
      </trkpt>
      <trkpt lat="43.3149560" lon="-1.8113630">
        <ele>83.8</ele>
        <time>2022-10-29T08:05:22Z</time>
      </trkpt>
      <trkpt lat="43.3149290" lon="-1.8113840">
        <ele>84.2</ele>
        <time>2022-10-29T08:05:23Z</time>
      </trkpt>
      <trkpt lat="43.3149020" lon="-1.8114060">
        <ele>84.2</ele>
        <time>2022-10-29T08:05:24Z</time>
      </trkpt>
      <trkpt lat="43.3148710" lon="-1.8114350">
        <ele>84.6</ele>
        <time>2022-10-29T08:05:25Z</time>
      </trkpt>
      <trkpt lat="43.3148510" lon="-1.8114560">
        <ele>84.6</ele>
        <time>2022-10-29T08:05:26Z</time>
      </trkpt>
      <trkpt lat="43.3148250" lon="-1.8114810">
        <ele>84.6</ele>
        <time>2022-10-29T08:05:27Z</time>
      </trkpt>
      <trkpt lat="43.3147980" lon="-1.8115050">
        <ele>84.6</ele>
        <time>2022-10-29T08:05:28Z</time>
      </trkpt>
      <trkpt lat="43.3147690" lon="-1.8115290">
        <ele>85.0</ele>
        <time>2022-10-29T08:05:29Z</time>
      </trkpt>
      <trkpt lat="43.3147480" lon="-1.8115510">
        <ele>85.0</ele>
        <time>2022-10-29T08:05:30Z</time>
      </trkpt>
      <trkpt lat="43.3147220" lon="-1.8115720">
        <ele>85.4</ele>
        <time>2022-10-29T08:05:31Z</time>
      </trkpt>
      <trkpt lat="43.3147020" lon="-1.8115920">
        <ele>85.4</ele>
        <time>2022-10-29T08:05:32Z</time>
      </trkpt>
      <trkpt lat="43.3146790" lon="-1.8116160">
        <ele>85.6</ele>
        <time>2022-10-29T08:05:33Z</time>
      </trkpt>
      <trkpt lat="43.3146510" lon="-1.8116430">
        <ele>85.8</ele>
        <time>2022-10-29T08:05:34Z</time>
      </trkpt>
      <trkpt lat="43.3146280" lon="-1.8116670">
        <ele>86.0</ele>
        <time>2022-10-29T08:05:35Z</time>
      </trkpt>
      <trkpt lat="43.3146050" lon="-1.8116930">
        <ele>86.2</ele>
        <time>2022-10-29T08:05:36Z</time>
      </trkpt>
      <trkpt lat="43.3145790" lon="-1.8117170">
        <ele>86.4</ele>
        <time>2022-10-29T08:05:37Z</time>
      </trkpt>
      <trkpt lat="43.3145580" lon="-1.8117360">
        <ele>86.2</ele>
        <time>2022-10-29T08:05:38Z</time>
      </trkpt>
      <trkpt lat="43.3145250" lon="-1.8117670">
        <ele>86.4</ele>
        <time>2022-10-29T08:05:39Z</time>
      </trkpt>
      <trkpt lat="43.3145000" lon="-1.8117860">
        <ele>86.6</ele>
        <time>2022-10-29T08:05:40Z</time>
      </trkpt>
      <trkpt lat="43.3144670" lon="-1.8118120">
        <ele>86.6</ele>
        <time>2022-10-29T08:05:41Z</time>
      </trkpt>
      <trkpt lat="43.3144450" lon="-1.8118300">
        <ele>86.8</ele>
        <time>2022-10-29T08:05:42Z</time>
      </trkpt>
      <trkpt lat="43.3144180" lon="-1.8118540">
        <ele>87.2</ele>
        <time>2022-10-29T08:05:43Z</time>
      </trkpt>
      <trkpt lat="43.3143910" lon="-1.8118770">
        <ele>87.4</ele>
        <time>2022-10-29T08:05:44Z</time>
      </trkpt>
      <trkpt lat="43.3143580" lon="-1.8119060">
        <ele>87.6</ele>
        <time>2022-10-29T08:05:45Z</time>
      </trkpt>
      <trkpt lat="43.3143300" lon="-1.8119320">
        <ele>87.8</ele>
        <time>2022-10-29T08:05:46Z</time>
      </trkpt>
      <trkpt lat="43.3143090" lon="-1.8119510">
        <ele>88.0</ele>
        <time>2022-10-29T08:05:47Z</time>
      </trkpt>
      <trkpt lat="43.3142840" lon="-1.8119720">
        <ele>88.2</ele>
        <time>2022-10-29T08:05:48Z</time>
      </trkpt>
      <trkpt lat="43.3142600" lon="-1.8119910">
        <ele>88.4</ele>
        <time>2022-10-29T08:05:49Z</time>
      </trkpt>
      <trkpt lat="43.3142320" lon="-1.8120100">
        <ele>88.4</ele>
        <time>2022-10-29T08:05:50Z</time>
      </trkpt>
      <trkpt lat="43.3142100" lon="-1.8120240">
        <ele>88.6</ele>
        <time>2022-10-29T08:05:51Z</time>
      </trkpt>
      <trkpt lat="43.3141880" lon="-1.8120340">
        <ele>88.8</ele>
        <time>2022-10-29T08:05:52Z</time>
      </trkpt>
      <trkpt lat="43.3141710" lon="-1.8120350">
        <ele>89.2</ele>
        <time>2022-10-29T08:05:53Z</time>
      </trkpt>
      <trkpt lat="43.3141460" lon="-1.8120350">
        <ele>89.8</ele>
        <time>2022-10-29T08:05:54Z</time>
      </trkpt>
      <trkpt lat="43.3141120" lon="-1.8120290">
        <ele>90.0</ele>
        <time>2022-10-29T08:05:55Z</time>
      </trkpt>
      <trkpt lat="43.3140840" lon="-1.8120210">
        <ele>90.4</ele>
        <time>2022-10-29T08:05:56Z</time>
      </trkpt>
      <trkpt lat="43.3140550" lon="-1.8120120">
        <ele>90.6</ele>
        <time>2022-10-29T08:05:57Z</time>
      </trkpt>
      <trkpt lat="43.3140320" lon="-1.8120040">
        <ele>90.8</ele>
        <time>2022-10-29T08:05:58Z</time>
      </trkpt>
      <trkpt lat="43.3140040" lon="-1.8119950">
        <ele>91.0</ele>
        <time>2022-10-29T08:05:59Z</time>
      </trkpt>
      <trkpt lat="43.3139710" lon="-1.8119830">
        <ele>91.2</ele>
        <time>2022-10-29T08:06:00Z</time>
      </trkpt>
      <trkpt lat="43.3139450" lon="-1.8119730">
        <ele>91.4</ele>
        <time>2022-10-29T08:06:01Z</time>
      </trkpt>
      <trkpt lat="43.3139170" lon="-1.8119630">
        <ele>91.6</ele>
        <time>2022-10-29T08:06:02Z</time>
      </trkpt>
      <trkpt lat="43.3138950" lon="-1.8119560">
        <ele>91.6</ele>
        <time>2022-10-29T08:06:03Z</time>
      </trkpt>
      <trkpt lat="43.3138660" lon="-1.8119460">
        <ele>92.0</ele>
        <time>2022-10-29T08:06:04Z</time>
      </trkpt>
      <trkpt lat="43.3138380" lon="-1.8119360">
        <ele>92.4</ele>
        <time>2022-10-29T08:06:05Z</time>
      </trkpt>
      <trkpt lat="43.3138070" lon="-1.8119270">
        <ele>92.4</ele>
        <time>2022-10-29T08:06:06Z</time>
      </trkpt>
      <trkpt lat="43.3137770" lon="-1.8119170">
        <ele>92.6</ele>
        <time>2022-10-29T08:06:07Z</time>
      </trkpt>
      <trkpt lat="43.3137470" lon="-1.8119080">
        <ele>92.8</ele>
        <time>2022-10-29T08:06:08Z</time>
      </trkpt>
      <trkpt lat="43.3137160" lon="-1.8119000">
        <ele>93.0</ele>
        <time>2022-10-29T08:06:09Z</time>
      </trkpt>
      <trkpt lat="43.3136850" lon="-1.8118960">
        <ele>93.0</ele>
        <time>2022-10-29T08:06:10Z</time>
      </trkpt>
      <trkpt lat="43.3136540" lon="-1.8118980">
        <ele>93.4</ele>
        <time>2022-10-29T08:06:11Z</time>
      </trkpt>
      <trkpt lat="43.3136250" lon="-1.8119070">
        <ele>93.4</ele>
        <time>2022-10-29T08:06:12Z</time>
      </trkpt>
      <trkpt lat="43.3135970" lon="-1.8119190">
        <ele>93.6</ele>
        <time>2022-10-29T08:06:13Z</time>
      </trkpt>
      <trkpt lat="43.3135690" lon="-1.8119330">
        <ele>93.8</ele>
        <time>2022-10-29T08:06:14Z</time>
      </trkpt>
      <trkpt lat="43.3135420" lon="-1.8119460">
        <ele>94.0</ele>
        <time>2022-10-29T08:06:15Z</time>
      </trkpt>
      <trkpt lat="43.3135140" lon="-1.8119590">
        <ele>94.2</ele>
        <time>2022-10-29T08:06:16Z</time>
      </trkpt>
      <trkpt lat="43.3134870" lon="-1.8119700">
        <ele>94.4</ele>
        <time>2022-10-29T08:06:17Z</time>
      </trkpt>
      <trkpt lat="43.3134600" lon="-1.8119830">
        <ele>94.6</ele>
        <time>2022-10-29T08:06:18Z</time>
      </trkpt>
      <trkpt lat="43.3134330" lon="-1.8119960">
        <ele>94.8</ele>
        <time>2022-10-29T08:06:19Z</time>
      </trkpt>
      <trkpt lat="43.3134060" lon="-1.8120090">
        <ele>95.0</ele>
        <time>2022-10-29T08:06:20Z</time>
      </trkpt>
      <trkpt lat="43.3133790" lon="-1.8120210">
        <ele>95.0</ele>
        <time>2022-10-29T08:06:21Z</time>
      </trkpt>
      <trkpt lat="43.3133510" lon="-1.8120340">
        <ele>95.2</ele>
        <time>2022-10-29T08:06:22Z</time>
      </trkpt>
      <trkpt lat="43.3133220" lon="-1.8120440">
        <ele>95.4</ele>
        <time>2022-10-29T08:06:23Z</time>
      </trkpt>
      <trkpt lat="43.3132940" lon="-1.8120560">
        <ele>95.6</ele>
        <time>2022-10-29T08:06:24Z</time>
      </trkpt>
      <trkpt lat="43.3132670" lon="-1.8120670">
        <ele>95.8</ele>
        <time>2022-10-29T08:06:25Z</time>
      </trkpt>
      <trkpt lat="43.3132410" lon="-1.8120780">
        <ele>95.8</ele>
        <time>2022-10-29T08:06:26Z</time>
      </trkpt>
      <trkpt lat="43.3132130" lon="-1.8120900">
        <ele>96.4</ele>
        <time>2022-10-29T08:06:27Z</time>
      </trkpt>
      <trkpt lat="43.3131860" lon="-1.8121020">
        <ele>96.4</ele>
        <time>2022-10-29T08:06:28Z</time>
      </trkpt>
      <trkpt lat="43.3131610" lon="-1.8121160">
        <ele>96.8</ele>
        <time>2022-10-29T08:06:29Z</time>
      </trkpt>
      <trkpt lat="43.3131360" lon="-1.8121330">
        <ele>97.0</ele>
        <time>2022-10-29T08:06:30Z</time>
      </trkpt>
      <trkpt lat="43.3131120" lon="-1.8121510">
        <ele>97.6</ele>
        <time>2022-10-29T08:06:31Z</time>
      </trkpt>
      <trkpt lat="43.3130880" lon="-1.8121730">
        <ele>97.6</ele>
        <time>2022-10-29T08:06:32Z</time>
      </trkpt>
      <trkpt lat="43.3130650" lon="-1.8122020">
        <ele>98.0</ele>
        <time>2022-10-29T08:06:33Z</time>
      </trkpt>
      <trkpt lat="43.3130450" lon="-1.8122370">
        <ele>98.0</ele>
        <time>2022-10-29T08:06:34Z</time>
      </trkpt>
      <trkpt lat="43.3130290" lon="-1.8122790">
        <ele>98.2</ele>
        <time>2022-10-29T08:06:35Z</time>
      </trkpt>
      <trkpt lat="43.3130140" lon="-1.8123250">
        <ele>98.4</ele>
        <time>2022-10-29T08:06:36Z</time>
      </trkpt>
      <trkpt lat="43.3129990" lon="-1.8123740">
        <ele>98.4</ele>
        <time>2022-10-29T08:06:37Z</time>
      </trkpt>
      <trkpt lat="43.3129870" lon="-1.8124260">
        <ele>98.4</ele>
        <time>2022-10-29T08:06:38Z</time>
      </trkpt>
      <trkpt lat="43.3129730" lon="-1.8124780">
        <ele>98.6</ele>
        <time>2022-10-29T08:06:39Z</time>
      </trkpt>
      <trkpt lat="43.3129600" lon="-1.8125330">
        <ele>99.0</ele>
        <time>2022-10-29T08:06:40Z</time>
      </trkpt>
      <trkpt lat="43.3129500" lon="-1.8125910">
        <ele>99.2</ele>
        <time>2022-10-29T08:06:41Z</time>
      </trkpt>
      <trkpt lat="43.3129430" lon="-1.8126490">
        <ele>99.2</ele>
        <time>2022-10-29T08:06:42Z</time>
      </trkpt>
      <trkpt lat="43.3129360" lon="-1.8127070">
        <ele>99.4</ele>
        <time>2022-10-29T08:06:43Z</time>
      </trkpt>
      <trkpt lat="43.3129290" lon="-1.8127750">
        <ele>99.4</ele>
        <time>2022-10-29T08:06:44Z</time>
      </trkpt>
      <trkpt lat="43.3129220" lon="-1.8128340">
        <ele>99.6</ele>
        <time>2022-10-29T08:06:45Z</time>
      </trkpt>
      <trkpt lat="43.3129130" lon="-1.8128910">
        <ele>99.6</ele>
        <time>2022-10-29T08:06:46Z</time>
      </trkpt>
      <trkpt lat="43.3129080" lon="-1.8129370">
        <ele>99.8</ele>
        <time>2022-10-29T08:06:47Z</time>
      </trkpt>
      <trkpt lat="43.3129040" lon="-1.8130090">
        <ele>99.8</ele>
        <time>2022-10-29T08:06:48Z</time>
      </trkpt>
      <trkpt lat="43.3129030" lon="-1.8130660">
        <ele>100.2</ele>
        <time>2022-10-29T08:06:49Z</time>
      </trkpt>
      <trkpt lat="43.3129030" lon="-1.8131260">
        <ele>100.4</ele>
        <time>2022-10-29T08:06:50Z</time>
      </trkpt>
      <trkpt lat="43.3129020" lon="-1.8131860">
        <ele>100.8</ele>
        <time>2022-10-29T08:06:51Z</time>
      </trkpt>
      <trkpt lat="43.3129000" lon="-1.8132460">
        <ele>101.0</ele>
        <time>2022-10-29T08:06:52Z</time>
      </trkpt>
      <trkpt lat="43.3128980" lon="-1.8133040">
        <ele>101.0</ele>
        <time>2022-10-29T08:06:53Z</time>
      </trkpt>
      <trkpt lat="43.3128970" lon="-1.8133590">
        <ele>101.2</ele>
        <time>2022-10-29T08:06:54Z</time>
      </trkpt>
      <trkpt lat="43.3128950" lon="-1.8134140">
        <ele>101.6</ele>
        <time>2022-10-29T08:06:55Z</time>
      </trkpt>
      <trkpt lat="43.3128860" lon="-1.8134700">
        <ele>101.8</ele>
        <time>2022-10-29T08:06:56Z</time>
      </trkpt>
      <trkpt lat="43.3128730" lon="-1.8135240">
        <ele>102.0</ele>
        <time>2022-10-29T08:06:57Z</time>
      </trkpt>
      <trkpt lat="43.3128580" lon="-1.8135770">
        <ele>102.2</ele>
        <time>2022-10-29T08:06:58Z</time>
      </trkpt>
      <trkpt lat="43.3128380" lon="-1.8136280">
        <ele>102.4</ele>
        <time>2022-10-29T08:06:59Z</time>
      </trkpt>
      <trkpt lat="43.3128160" lon="-1.8136760">
        <ele>102.6</ele>
        <time>2022-10-29T08:07:00Z</time>
      </trkpt>
      <trkpt lat="43.3127930" lon="-1.8137250">
        <ele>102.6</ele>
        <time>2022-10-29T08:07:01Z</time>
      </trkpt>
      <trkpt lat="43.3127700" lon="-1.8137710">
        <ele>102.8</ele>
        <time>2022-10-29T08:07:02Z</time>
      </trkpt>
      <trkpt lat="43.3127490" lon="-1.8138070">
        <ele>102.8</ele>
        <time>2022-10-29T08:07:03Z</time>
      </trkpt>
      <trkpt lat="43.3127170" lon="-1.8138620">
        <ele>103.0</ele>
        <time>2022-10-29T08:07:04Z</time>
      </trkpt>
      <trkpt lat="43.3126890" lon="-1.8139020">
        <ele>103.2</ele>
        <time>2022-10-29T08:07:05Z</time>
      </trkpt>
      <trkpt lat="43.3126620" lon="-1.8139460">
        <ele>103.4</ele>
        <time>2022-10-29T08:07:06Z</time>
      </trkpt>
      <trkpt lat="43.3126360" lon="-1.8139920">
        <ele>103.6</ele>
        <time>2022-10-29T08:07:07Z</time>
      </trkpt>
      <trkpt lat="43.3126080" lon="-1.8140400">
        <ele>103.6</ele>
        <time>2022-10-29T08:07:08Z</time>
      </trkpt>
      <trkpt lat="43.3125800" lon="-1.8140840">
        <ele>103.8</ele>
        <time>2022-10-29T08:07:09Z</time>
      </trkpt>
      <trkpt lat="43.3125520" lon="-1.8141290">
        <ele>103.8</ele>
        <time>2022-10-29T08:07:10Z</time>
      </trkpt>
      <trkpt lat="43.3125260" lon="-1.8141770">
        <ele>104.2</ele>
        <time>2022-10-29T08:07:11Z</time>
      </trkpt>
      <trkpt lat="43.3125070" lon="-1.8142200">
        <ele>104.4</ele>
        <time>2022-10-29T08:07:12Z</time>
      </trkpt>
      <trkpt lat="43.3124830" lon="-1.8142880">
        <ele>104.6</ele>
        <time>2022-10-29T08:07:13Z</time>
      </trkpt>
      <trkpt lat="43.3124670" lon="-1.8143470">
        <ele>104.8</ele>
        <time>2022-10-29T08:07:14Z</time>
      </trkpt>
      <trkpt lat="43.3124600" lon="-1.8144060">
        <ele>104.8</ele>
        <time>2022-10-29T08:07:15Z</time>
      </trkpt>
      <trkpt lat="43.3124590" lon="-1.8144710">
        <ele>104.8</ele>
        <time>2022-10-29T08:07:16Z</time>
      </trkpt>
      <trkpt lat="43.3124650" lon="-1.8145340">
        <ele>104.8</ele>
        <time>2022-10-29T08:07:17Z</time>
      </trkpt>
      <trkpt lat="43.3124760" lon="-1.8145930">
        <ele>105.0</ele>
        <time>2022-10-29T08:07:18Z</time>
      </trkpt>
      <trkpt lat="43.3124900" lon="-1.8146530">
        <ele>105.0</ele>
        <time>2022-10-29T08:07:19Z</time>
      </trkpt>
      <trkpt lat="43.3125040" lon="-1.8147140">
        <ele>105.0</ele>
        <time>2022-10-29T08:07:20Z</time>
      </trkpt>
      <trkpt lat="43.3125200" lon="-1.8147750">
        <ele>105.0</ele>
        <time>2022-10-29T08:07:21Z</time>
      </trkpt>
      <trkpt lat="43.3125380" lon="-1.8148360">
        <ele>105.0</ele>
        <time>2022-10-29T08:07:22Z</time>
      </trkpt>
      <trkpt lat="43.3125570" lon="-1.8148940">
        <ele>105.0</ele>
        <time>2022-10-29T08:07:23Z</time>
      </trkpt>
      <trkpt lat="43.3125740" lon="-1.8149540">
        <ele>105.2</ele>
        <time>2022-10-29T08:07:24Z</time>
      </trkpt>
      <trkpt lat="43.3125900" lon="-1.8150150">
        <ele>105.4</ele>
        <time>2022-10-29T08:07:25Z</time>
      </trkpt>
      <trkpt lat="43.3126060" lon="-1.8150760">
        <ele>105.6</ele>
        <time>2022-10-29T08:07:26Z</time>
      </trkpt>
      <trkpt lat="43.3126180" lon="-1.8151380">
        <ele>105.6</ele>
        <time>2022-10-29T08:07:27Z</time>
      </trkpt>
      <trkpt lat="43.3126260" lon="-1.8151980">
        <ele>105.8</ele>
        <time>2022-10-29T08:07:28Z</time>
      </trkpt>
      <trkpt lat="43.3126310" lon="-1.8152560">
        <ele>106.2</ele>
        <time>2022-10-29T08:07:29Z</time>
      </trkpt>
      <trkpt lat="43.3126290" lon="-1.8153190">
        <ele>106.2</ele>
        <time>2022-10-29T08:07:30Z</time>
      </trkpt>
      <trkpt lat="43.3126220" lon="-1.8153790">
        <ele>106.6</ele>
        <time>2022-10-29T08:07:31Z</time>
      </trkpt>
      <trkpt lat="43.3126110" lon="-1.8154360">
        <ele>106.6</ele>
        <time>2022-10-29T08:07:32Z</time>
      </trkpt>
      <trkpt lat="43.3125950" lon="-1.8154950">
        <ele>106.8</ele>
        <time>2022-10-29T08:07:33Z</time>
      </trkpt>
      <trkpt lat="43.3125770" lon="-1.8155510">
        <ele>106.8</ele>
        <time>2022-10-29T08:07:34Z</time>
      </trkpt>
      <trkpt lat="43.3125610" lon="-1.8156070">
        <ele>107.0</ele>
        <time>2022-10-29T08:07:35Z</time>
      </trkpt>
      <trkpt lat="43.3125440" lon="-1.8156640">
        <ele>107.0</ele>
        <time>2022-10-29T08:07:36Z</time>
      </trkpt>
      <trkpt lat="43.3125230" lon="-1.8157250">
        <ele>107.0</ele>
        <time>2022-10-29T08:07:37Z</time>
      </trkpt>
      <trkpt lat="43.3125030" lon="-1.8157860">
        <ele>107.0</ele>
        <time>2022-10-29T08:07:38Z</time>
      </trkpt>
      <trkpt lat="43.3124830" lon="-1.8158450">
        <ele>107.2</ele>
        <time>2022-10-29T08:07:39Z</time>
      </trkpt>
      <trkpt lat="43.3124650" lon="-1.8159030">
        <ele>107.4</ele>
        <time>2022-10-29T08:07:40Z</time>
      </trkpt>
      <trkpt lat="43.3124470" lon="-1.8159610">
        <ele>107.6</ele>
        <time>2022-10-29T08:07:41Z</time>
      </trkpt>
      <trkpt lat="43.3124270" lon="-1.8160200">
        <ele>107.6</ele>
        <time>2022-10-29T08:07:42Z</time>
      </trkpt>
      <trkpt lat="43.3124100" lon="-1.8160770">
        <ele>107.8</ele>
        <time>2022-10-29T08:07:43Z</time>
      </trkpt>
      <trkpt lat="43.3123950" lon="-1.8161370">
        <ele>108.0</ele>
        <time>2022-10-29T08:07:44Z</time>
      </trkpt>
      <trkpt lat="43.3123870" lon="-1.8162010">
        <ele>108.0</ele>
        <time>2022-10-29T08:07:45Z</time>
      </trkpt>
      <trkpt lat="43.3123850" lon="-1.8162680">
        <ele>108.2</ele>
        <time>2022-10-29T08:07:46Z</time>
      </trkpt>
      <trkpt lat="43.3123890" lon="-1.8163340">
        <ele>108.4</ele>
        <time>2022-10-29T08:07:47Z</time>
      </trkpt>
      <trkpt lat="43.3123970" lon="-1.8163950">
        <ele>108.6</ele>
        <time>2022-10-29T08:07:48Z</time>
      </trkpt>
      <trkpt lat="43.3124120" lon="-1.8164570">
        <ele>108.8</ele>
        <time>2022-10-29T08:07:49Z</time>
      </trkpt>
      <trkpt lat="43.3124280" lon="-1.8165190">
        <ele>109.0</ele>
        <time>2022-10-29T08:07:50Z</time>
      </trkpt>
      <trkpt lat="43.3124440" lon="-1.8165810">
        <ele>109.2</ele>
        <time>2022-10-29T08:07:51Z</time>
      </trkpt>
      <trkpt lat="43.3124600" lon="-1.8166460">
        <ele>109.4</ele>
        <time>2022-10-29T08:07:52Z</time>
      </trkpt>
      <trkpt lat="43.3124720" lon="-1.8167000">
        <ele>109.6</ele>
        <time>2022-10-29T08:07:53Z</time>
      </trkpt>
      <trkpt lat="43.3124920" lon="-1.8167740">
        <ele>109.6</ele>
        <time>2022-10-29T08:07:54Z</time>
      </trkpt>
      <trkpt lat="43.3125100" lon="-1.8168320">
        <ele>109.8</ele>
        <time>2022-10-29T08:07:55Z</time>
      </trkpt>
      <trkpt lat="43.3125250" lon="-1.8168930">
        <ele>109.8</ele>
        <time>2022-10-29T08:07:56Z</time>
      </trkpt>
      <trkpt lat="43.3125400" lon="-1.8169540">
        <ele>110.0</ele>
        <time>2022-10-29T08:07:57Z</time>
      </trkpt>
      <trkpt lat="43.3125530" lon="-1.8170170">
        <ele>110.0</ele>
        <time>2022-10-29T08:07:58Z</time>
      </trkpt>
      <trkpt lat="43.3125650" lon="-1.8170840">
        <ele>110.2</ele>
        <time>2022-10-29T08:07:59Z</time>
      </trkpt>
      <trkpt lat="43.3125710" lon="-1.8171510">
        <ele>110.4</ele>
        <time>2022-10-29T08:08:00Z</time>
      </trkpt>
      <trkpt lat="43.3125680" lon="-1.8172240">
        <ele>110.6</ele>
        <time>2022-10-29T08:08:01Z</time>
      </trkpt>
      <trkpt lat="43.3125600" lon="-1.8173000">
        <ele>110.8</ele>
        <time>2022-10-29T08:08:02Z</time>
      </trkpt>
      <trkpt lat="43.3125470" lon="-1.8173810">
        <ele>110.8</ele>
        <time>2022-10-29T08:08:03Z</time>
      </trkpt>
      <trkpt lat="43.3125360" lon="-1.8174620">
        <ele>111.0</ele>
        <time>2022-10-29T08:08:04Z</time>
      </trkpt>
      <trkpt lat="43.3125240" lon="-1.8175410">
        <ele>111.0</ele>
        <time>2022-10-29T08:08:05Z</time>
      </trkpt>
      <trkpt lat="43.3125110" lon="-1.8176220">
        <ele>111.2</ele>
        <time>2022-10-29T08:08:06Z</time>
      </trkpt>
      <trkpt lat="43.3124960" lon="-1.8177010">
        <ele>111.2</ele>
        <time>2022-10-29T08:08:07Z</time>
      </trkpt>
      <trkpt lat="43.3124790" lon="-1.8177740">
        <ele>111.2</ele>
        <time>2022-10-29T08:08:08Z</time>
      </trkpt>
      <trkpt lat="43.3124580" lon="-1.8178420">
        <ele>111.2</ele>
        <time>2022-10-29T08:08:09Z</time>
      </trkpt>
      <trkpt lat="43.3124330" lon="-1.8179080">
        <ele>111.2</ele>
        <time>2022-10-29T08:08:10Z</time>
      </trkpt>
      <trkpt lat="43.3124060" lon="-1.8179740">
        <ele>111.2</ele>
        <time>2022-10-29T08:08:11Z</time>
      </trkpt>
      <trkpt lat="43.3123800" lon="-1.8180360">
        <ele>111.2</ele>
        <time>2022-10-29T08:08:12Z</time>
      </trkpt>
      <trkpt lat="43.3123470" lon="-1.8180980">
        <ele>111.2</ele>
        <time>2022-10-29T08:08:13Z</time>
      </trkpt>
      <trkpt lat="43.3123140" lon="-1.8181560">
        <ele>111.0</ele>
        <time>2022-10-29T08:08:14Z</time>
      </trkpt>
      <trkpt lat="43.3122830" lon="-1.8182090">
        <ele>111.0</ele>
        <time>2022-10-29T08:08:15Z</time>
      </trkpt>
      <trkpt lat="43.3122520" lon="-1.8182570">
        <ele>111.0</ele>
        <time>2022-10-29T08:08:16Z</time>
      </trkpt>
      <trkpt lat="43.3122210" lon="-1.8183010">
        <ele>111.0</ele>
        <time>2022-10-29T08:08:17Z</time>
      </trkpt>
      <trkpt lat="43.3121900" lon="-1.8183450">
        <ele>110.8</ele>
        <time>2022-10-29T08:08:18Z</time>
      </trkpt>
      <trkpt lat="43.3121640" lon="-1.8183850">
        <ele>110.6</ele>
        <time>2022-10-29T08:08:19Z</time>
      </trkpt>
      <trkpt lat="43.3121390" lon="-1.8184250">
        <ele>110.6</ele>
        <time>2022-10-29T08:08:20Z</time>
      </trkpt>
      <trkpt lat="43.3121140" lon="-1.8184620">
        <ele>110.8</ele>
        <time>2022-10-29T08:08:21Z</time>
      </trkpt>
      <trkpt lat="43.3120890" lon="-1.8185020">
        <ele>110.8</ele>
        <time>2022-10-29T08:08:22Z</time>
      </trkpt>
      <trkpt lat="43.3120660" lon="-1.8185420">
        <ele>111.0</ele>
        <time>2022-10-29T08:08:23Z</time>
      </trkpt>
      <trkpt lat="43.3120210" lon="-1.8186230">
        <ele>111.2</ele>
        <time>2022-10-29T08:08:25Z</time>
      </trkpt>
      <trkpt lat="43.3120020" lon="-1.8186630">
        <ele>111.2</ele>
        <time>2022-10-29T08:08:26Z</time>
      </trkpt>
      <trkpt lat="43.3119830" lon="-1.8187010">
        <ele>111.4</ele>
        <time>2022-10-29T08:08:27Z</time>
      </trkpt>
      <trkpt lat="43.3119650" lon="-1.8187390">
        <ele>111.6</ele>
        <time>2022-10-29T08:08:28Z</time>
      </trkpt>
      <trkpt lat="43.3119440" lon="-1.8187770">
        <ele>111.6</ele>
        <time>2022-10-29T08:08:29Z</time>
      </trkpt>
      <trkpt lat="43.3119190" lon="-1.8188180">
        <ele>111.6</ele>
        <time>2022-10-29T08:08:30Z</time>
      </trkpt>
      <trkpt lat="43.3118980" lon="-1.8188580">
        <ele>111.8</ele>
        <time>2022-10-29T08:08:31Z</time>
      </trkpt>
      <trkpt lat="43.3118740" lon="-1.8188970">
        <ele>112.0</ele>
        <time>2022-10-29T08:08:32Z</time>
      </trkpt>
      <trkpt lat="43.3118530" lon="-1.8189300">
        <ele>112.2</ele>
        <time>2022-10-29T08:08:33Z</time>
      </trkpt>
      <trkpt lat="43.3118310" lon="-1.8189630">
        <ele>112.2</ele>
        <time>2022-10-29T08:08:34Z</time>
      </trkpt>
      <trkpt lat="43.3118070" lon="-1.8190010">
        <ele>112.4</ele>
        <time>2022-10-29T08:08:35Z</time>
      </trkpt>
      <trkpt lat="43.3117830" lon="-1.8190430">
        <ele>112.6</ele>
        <time>2022-10-29T08:08:36Z</time>
      </trkpt>
      <trkpt lat="43.3117050" lon="-1.8192020">
        <ele>113.2</ele>
        <time>2022-10-29T08:08:40Z</time>
      </trkpt>
      <trkpt lat="43.3116860" lon="-1.8192420">
        <ele>113.4</ele>
        <time>2022-10-29T08:08:41Z</time>
      </trkpt>
      <trkpt lat="43.3116670" lon="-1.8192780">
        <ele>113.6</ele>
        <time>2022-10-29T08:08:42Z</time>
      </trkpt>
      <trkpt lat="43.3116510" lon="-1.8193130">
        <ele>113.6</ele>
        <time>2022-10-29T08:08:43Z</time>
      </trkpt>
      <trkpt lat="43.3116120" lon="-1.8193920">
        <ele>114.0</ele>
        <time>2022-10-29T08:08:45Z</time>
      </trkpt>
      <trkpt lat="43.3115930" lon="-1.8194270">
        <ele>114.6</ele>
        <time>2022-10-29T08:08:46Z</time>
      </trkpt>
      <trkpt lat="43.3115850" lon="-1.8194580">
        <ele>115.0</ele>
        <time>2022-10-29T08:08:47Z</time>
      </trkpt>
      <trkpt lat="43.3115790" lon="-1.8194900">
        <ele>116.0</ele>
        <time>2022-10-29T08:08:48Z</time>
      </trkpt>
      <trkpt lat="43.3115650" lon="-1.8195220">
        <ele>116.4</ele>
        <time>2022-10-29T08:08:49Z</time>
      </trkpt>
      <trkpt lat="43.3115450" lon="-1.8195560">
        <ele>117.0</ele>
        <time>2022-10-29T08:08:50Z</time>
      </trkpt>
      <trkpt lat="43.3115250" lon="-1.8195910">
        <ele>117.2</ele>
        <time>2022-10-29T08:08:51Z</time>
      </trkpt>
      <trkpt lat="43.3115030" lon="-1.8196270">
        <ele>117.6</ele>
        <time>2022-10-29T08:08:52Z</time>
      </trkpt>
      <trkpt lat="43.3114840" lon="-1.8196630">
        <ele>117.8</ele>
        <time>2022-10-29T08:08:53Z</time>
      </trkpt>
      <trkpt lat="43.3114670" lon="-1.8197010">
        <ele>118.0</ele>
        <time>2022-10-29T08:08:54Z</time>
      </trkpt>
      <trkpt lat="43.3114480" lon="-1.8197400">
        <ele>118.4</ele>
        <time>2022-10-29T08:08:55Z</time>
      </trkpt>
      <trkpt lat="43.3114290" lon="-1.8197780">
        <ele>118.6</ele>
        <time>2022-10-29T08:08:56Z</time>
      </trkpt>
      <trkpt lat="43.3114110" lon="-1.8198160">
        <ele>119.0</ele>
        <time>2022-10-29T08:08:57Z</time>
      </trkpt>
      <trkpt lat="43.3113920" lon="-1.8198540">
        <ele>119.0</ele>
        <time>2022-10-29T08:08:58Z</time>
      </trkpt>
      <trkpt lat="43.3113730" lon="-1.8198930">
        <ele>119.4</ele>
        <time>2022-10-29T08:08:59Z</time>
      </trkpt>
      <trkpt lat="43.3113530" lon="-1.8199330">
        <ele>119.8</ele>
        <time>2022-10-29T08:09:00Z</time>
      </trkpt>
      <trkpt lat="43.3113340" lon="-1.8199750">
        <ele>120.2</ele>
        <time>2022-10-29T08:09:01Z</time>
      </trkpt>
      <trkpt lat="43.3113140" lon="-1.8200190">
        <ele>120.6</ele>
        <time>2022-10-29T08:09:02Z</time>
      </trkpt>
      <trkpt lat="43.3112950" lon="-1.8200650">
        <ele>121.0</ele>
        <time>2022-10-29T08:09:03Z</time>
      </trkpt>
      <trkpt lat="43.3112750" lon="-1.8201110">
        <ele>121.2</ele>
        <time>2022-10-29T08:09:04Z</time>
      </trkpt>
      <trkpt lat="43.3112560" lon="-1.8201600">
        <ele>121.4</ele>
        <time>2022-10-29T08:09:05Z</time>
      </trkpt>
      <trkpt lat="43.3112360" lon="-1.8202110">
        <ele>121.6</ele>
        <time>2022-10-29T08:09:06Z</time>
      </trkpt>
      <trkpt lat="43.3112180" lon="-1.8202630">
        <ele>121.6</ele>
        <time>2022-10-29T08:09:07Z</time>
      </trkpt>
      <trkpt lat="43.3112000" lon="-1.8203160">
        <ele>121.6</ele>
        <time>2022-10-29T08:09:08Z</time>
      </trkpt>
      <trkpt lat="43.3111820" lon="-1.8203700">
        <ele>121.8</ele>
        <time>2022-10-29T08:09:09Z</time>
      </trkpt>
      <trkpt lat="43.3111610" lon="-1.8204230">
        <ele>121.8</ele>
        <time>2022-10-29T08:09:10Z</time>
      </trkpt>
      <trkpt lat="43.3111380" lon="-1.8204740">
        <ele>122.0</ele>
        <time>2022-10-29T08:09:11Z</time>
      </trkpt>
      <trkpt lat="43.3111130" lon="-1.8205250">
        <ele>122.0</ele>
        <time>2022-10-29T08:09:12Z</time>
      </trkpt>
      <trkpt lat="43.3110900" lon="-1.8205770">
        <ele>122.0</ele>
        <time>2022-10-29T08:09:13Z</time>
      </trkpt>
      <trkpt lat="43.3110680" lon="-1.8206300">
        <ele>122.0</ele>
        <time>2022-10-29T08:09:14Z</time>
      </trkpt>
      <trkpt lat="43.3110460" lon="-1.8206840">
        <ele>122.0</ele>
        <time>2022-10-29T08:09:15Z</time>
      </trkpt>
      <trkpt lat="43.3110210" lon="-1.8207350">
        <ele>122.0</ele>
        <time>2022-10-29T08:09:16Z</time>
      </trkpt>
      <trkpt lat="43.3109980" lon="-1.8207870">
        <ele>122.0</ele>
        <time>2022-10-29T08:09:17Z</time>
      </trkpt>
      <trkpt lat="43.3109730" lon="-1.8208360">
        <ele>122.0</ele>
        <time>2022-10-29T08:09:18Z</time>
      </trkpt>
      <trkpt lat="43.3109460" lon="-1.8208820">
        <ele>122.2</ele>
        <time>2022-10-29T08:09:19Z</time>
      </trkpt>
      <trkpt lat="43.3109150" lon="-1.8209250">
        <ele>122.0</ele>
        <time>2022-10-29T08:09:20Z</time>
      </trkpt>
      <trkpt lat="43.3108830" lon="-1.8209650">
        <ele>122.0</ele>
        <time>2022-10-29T08:09:21Z</time>
      </trkpt>
      <trkpt lat="43.3108520" lon="-1.8210040">
        <ele>122.0</ele>
        <time>2022-10-29T08:09:22Z</time>
      </trkpt>
      <trkpt lat="43.3108200" lon="-1.8210420">
        <ele>122.0</ele>
        <time>2022-10-29T08:09:23Z</time>
      </trkpt>
      <trkpt lat="43.3107900" lon="-1.8210860">
        <ele>122.0</ele>
        <time>2022-10-29T08:09:24Z</time>
      </trkpt>
      <trkpt lat="43.3107630" lon="-1.8211360">
        <ele>122.0</ele>
        <time>2022-10-29T08:09:25Z</time>
      </trkpt>
      <trkpt lat="43.3107300" lon="-1.8211890">
        <ele>122.0</ele>
        <time>2022-10-29T08:09:26Z</time>
      </trkpt>
      <trkpt lat="43.3106930" lon="-1.8212420">
        <ele>122.0</ele>
        <time>2022-10-29T08:09:27Z</time>
      </trkpt>
      <trkpt lat="43.3106620" lon="-1.8213020">
        <ele>122.0</ele>
        <time>2022-10-29T08:09:28Z</time>
      </trkpt>
      <trkpt lat="43.3106410" lon="-1.8213670">
        <ele>122.0</ele>
        <time>2022-10-29T08:09:29Z</time>
      </trkpt>
      <trkpt lat="43.3106290" lon="-1.8214350">
        <ele>122.2</ele>
        <time>2022-10-29T08:09:30Z</time>
      </trkpt>
      <trkpt lat="43.3106200" lon="-1.8215050">
        <ele>122.2</ele>
        <time>2022-10-29T08:09:31Z</time>
      </trkpt>
      <trkpt lat="43.3106100" lon="-1.8215760">
        <ele>122.6</ele>
        <time>2022-10-29T08:09:32Z</time>
      </trkpt>
      <trkpt lat="43.3106030" lon="-1.8216470">
        <ele>122.6</ele>
        <time>2022-10-29T08:09:33Z</time>
      </trkpt>
      <trkpt lat="43.3105620" lon="-1.8219940">
        <ele>123.6</ele>
        <time>2022-10-29T08:09:38Z</time>
      </trkpt>
      <trkpt lat="43.3105180" lon="-1.8223480">
        <ele>124.6</ele>
        <time>2022-10-29T08:09:43Z</time>
      </trkpt>
      <trkpt lat="43.3105020" lon="-1.8224850">
        <ele>125.4</ele>
        <time>2022-10-29T08:09:45Z</time>
      </trkpt>
      <trkpt lat="43.3104960" lon="-1.8225480">
        <ele>125.6</ele>
        <time>2022-10-29T08:09:46Z</time>
      </trkpt>
      <trkpt lat="43.3104890" lon="-1.8226130">
        <ele>125.8</ele>
        <time>2022-10-29T08:09:47Z</time>
      </trkpt>
      <trkpt lat="43.3104820" lon="-1.8226800">
        <ele>126.2</ele>
        <time>2022-10-29T08:09:48Z</time>
      </trkpt>
      <trkpt lat="43.3104800" lon="-1.8227440">
        <ele>126.4</ele>
        <time>2022-10-29T08:09:49Z</time>
      </trkpt>
      <trkpt lat="43.3104840" lon="-1.8228070">
        <ele>127.0</ele>
        <time>2022-10-29T08:09:50Z</time>
      </trkpt>
      <trkpt lat="43.3104930" lon="-1.8228640">
        <ele>127.2</ele>
        <time>2022-10-29T08:09:51Z</time>
      </trkpt>
      <trkpt lat="43.3105030" lon="-1.8229160">
        <ele>127.4</ele>
        <time>2022-10-29T08:09:52Z</time>
      </trkpt>
      <trkpt lat="43.3105060" lon="-1.8229650">
        <ele>127.4</ele>
        <time>2022-10-29T08:09:53Z</time>
      </trkpt>
      <trkpt lat="43.3105010" lon="-1.8230130">
        <ele>127.4</ele>
        <time>2022-10-29T08:09:54Z</time>
      </trkpt>
      <trkpt lat="43.3104880" lon="-1.8230660">
        <ele>127.6</ele>
        <time>2022-10-29T08:09:55Z</time>
      </trkpt>
      <trkpt lat="43.3104700" lon="-1.8231250">
        <ele>128.0</ele>
        <time>2022-10-29T08:09:56Z</time>
      </trkpt>
      <trkpt lat="43.3104460" lon="-1.8231830">
        <ele>128.2</ele>
        <time>2022-10-29T08:09:57Z</time>
      </trkpt>
      <trkpt lat="43.3104190" lon="-1.8232420">
        <ele>128.4</ele>
        <time>2022-10-29T08:09:58Z</time>
      </trkpt>
      <trkpt lat="43.3103960" lon="-1.8233020">
        <ele>128.6</ele>
        <time>2022-10-29T08:09:59Z</time>
      </trkpt>
      <trkpt lat="43.3103750" lon="-1.8233600">
        <ele>128.8</ele>
        <time>2022-10-29T08:10:00Z</time>
      </trkpt>
      <trkpt lat="43.3103550" lon="-1.8234160">
        <ele>129.0</ele>
        <time>2022-10-29T08:10:01Z</time>
      </trkpt>
      <trkpt lat="43.3103400" lon="-1.8234640">
        <ele>129.0</ele>
        <time>2022-10-29T08:10:02Z</time>
      </trkpt>
      <trkpt lat="43.3103290" lon="-1.8235050">
        <ele>129.4</ele>
        <time>2022-10-29T08:10:03Z</time>
      </trkpt>
      <trkpt lat="43.3103160" lon="-1.8235380">
        <ele>129.8</ele>
        <time>2022-10-29T08:10:04Z</time>
      </trkpt>
      <trkpt lat="43.3103050" lon="-1.8235630">
        <ele>130.2</ele>
        <time>2022-10-29T08:10:05Z</time>
      </trkpt>
      <trkpt lat="43.3102950" lon="-1.8235880">
        <ele>130.4</ele>
        <time>2022-10-29T08:10:06Z</time>
      </trkpt>
      <trkpt lat="43.3102790" lon="-1.8236180">
        <ele>130.6</ele>
        <time>2022-10-29T08:10:07Z</time>
      </trkpt>
      <trkpt lat="43.3102670" lon="-1.8236430">
        <ele>131.0</ele>
        <time>2022-10-29T08:10:08Z</time>
      </trkpt>
      <trkpt lat="43.3102570" lon="-1.8236660">
        <ele>131.2</ele>
        <time>2022-10-29T08:10:09Z</time>
      </trkpt>
      <trkpt lat="43.3102490" lon="-1.8236910">
        <ele>132.0</ele>
        <time>2022-10-29T08:10:10Z</time>
      </trkpt>
      <trkpt lat="43.3102430" lon="-1.8237190">
        <ele>132.2</ele>
        <time>2022-10-29T08:10:11Z</time>
      </trkpt>
      <trkpt lat="43.3102340" lon="-1.8237450">
        <ele>133.0</ele>
        <time>2022-10-29T08:10:12Z</time>
      </trkpt>
      <trkpt lat="43.3102240" lon="-1.8237720">
        <ele>133.0</ele>
        <time>2022-10-29T08:10:13Z</time>
      </trkpt>
      <trkpt lat="43.3102140" lon="-1.8237980">
        <ele>133.4</ele>
        <time>2022-10-29T08:10:14Z</time>
      </trkpt>
      <trkpt lat="43.3102040" lon="-1.8238260">
        <ele>133.6</ele>
        <time>2022-10-29T08:10:15Z</time>
      </trkpt>
      <trkpt lat="43.3101930" lon="-1.8238540">
        <ele>134.0</ele>
        <time>2022-10-29T08:10:16Z</time>
      </trkpt>
      <trkpt lat="43.3101830" lon="-1.8238850">
        <ele>134.2</ele>
        <time>2022-10-29T08:10:17Z</time>
      </trkpt>
      <trkpt lat="43.3101740" lon="-1.8239150">
        <ele>134.4</ele>
        <time>2022-10-29T08:10:18Z</time>
      </trkpt>
      <trkpt lat="43.3101650" lon="-1.8239460">
        <ele>134.4</ele>
        <time>2022-10-29T08:10:19Z</time>
      </trkpt>
      <trkpt lat="43.3101570" lon="-1.8239740">
        <ele>134.6</ele>
        <time>2022-10-29T08:10:20Z</time>
      </trkpt>
      <trkpt lat="43.3101500" lon="-1.8240030">
        <ele>134.6</ele>
        <time>2022-10-29T08:10:21Z</time>
      </trkpt>
      <trkpt lat="43.3101430" lon="-1.8240310">
        <ele>134.6</ele>
        <time>2022-10-29T08:10:22Z</time>
      </trkpt>
      <trkpt lat="43.3101360" lon="-1.8240580">
        <ele>134.8</ele>
        <time>2022-10-29T08:10:23Z</time>
      </trkpt>
      <trkpt lat="43.3101290" lon="-1.8240840">
        <ele>135.0</ele>
        <time>2022-10-29T08:10:24Z</time>
      </trkpt>
      <trkpt lat="43.3101230" lon="-1.8241070">
        <ele>135.4</ele>
        <time>2022-10-29T08:10:25Z</time>
      </trkpt>
      <trkpt lat="43.3101160" lon="-1.8241370">
        <ele>135.6</ele>
        <time>2022-10-29T08:10:26Z</time>
      </trkpt>
      <trkpt lat="43.3101120" lon="-1.8241610">
        <ele>136.0</ele>
        <time>2022-10-29T08:10:27Z</time>
      </trkpt>
      <trkpt lat="43.3101070" lon="-1.8241840">
        <ele>136.2</ele>
        <time>2022-10-29T08:10:28Z</time>
      </trkpt>
      <trkpt lat="43.3101040" lon="-1.8242010">
        <ele>136.4</ele>
        <time>2022-10-29T08:10:29Z</time>
      </trkpt>
      <trkpt lat="43.3100980" lon="-1.8242270">
        <ele>136.6</ele>
        <time>2022-10-29T08:10:30Z</time>
      </trkpt>
      <trkpt lat="43.3100910" lon="-1.8242480">
        <ele>136.8</ele>
        <time>2022-10-29T08:10:31Z</time>
      </trkpt>
      <trkpt lat="43.3100890" lon="-1.8242700">
        <ele>137.0</ele>
        <time>2022-10-29T08:10:32Z</time>
      </trkpt>
      <trkpt lat="43.3100890" lon="-1.8242920">
        <ele>137.4</ele>
        <time>2022-10-29T08:10:33Z</time>
      </trkpt>
      <trkpt lat="43.3100890" lon="-1.8243140">
        <ele>137.8</ele>
        <time>2022-10-29T08:10:34Z</time>
      </trkpt>
      <trkpt lat="43.3100900" lon="-1.8243370">
        <ele>138.0</ele>
        <time>2022-10-29T08:10:35Z</time>
      </trkpt>
      <trkpt lat="43.3100920" lon="-1.8243580">
        <ele>138.4</ele>
        <time>2022-10-29T08:10:36Z</time>
      </trkpt>
      <trkpt lat="43.3100950" lon="-1.8243810">
        <ele>139.0</ele>
        <time>2022-10-29T08:10:37Z</time>
      </trkpt>
      <trkpt lat="43.3100960" lon="-1.8244040">
        <ele>139.0</ele>
        <time>2022-10-29T08:10:38Z</time>
      </trkpt>
      <trkpt lat="43.3100970" lon="-1.8244280">
        <ele>139.2</ele>
        <time>2022-10-29T08:10:39Z</time>
      </trkpt>
      <trkpt lat="43.3101000" lon="-1.8244490">
        <ele>139.4</ele>
        <time>2022-10-29T08:10:40Z</time>
      </trkpt>
      <trkpt lat="43.3101030" lon="-1.8244740">
        <ele>139.8</ele>
        <time>2022-10-29T08:10:41Z</time>
      </trkpt>
      <trkpt lat="43.3101020" lon="-1.8244970">
        <ele>140.0</ele>
        <time>2022-10-29T08:10:42Z</time>
      </trkpt>
      <trkpt lat="43.3101020" lon="-1.8245200">
        <ele>140.2</ele>
        <time>2022-10-29T08:10:43Z</time>
      </trkpt>
      <trkpt lat="43.3101010" lon="-1.8245410">
        <ele>140.4</ele>
        <time>2022-10-29T08:10:44Z</time>
      </trkpt>
      <trkpt lat="43.3101020" lon="-1.8245570">
        <ele>140.8</ele>
        <time>2022-10-29T08:10:45Z</time>
      </trkpt>
      <trkpt lat="43.3101020" lon="-1.8245730">
        <ele>141.0</ele>
        <time>2022-10-29T08:10:46Z</time>
      </trkpt>
      <trkpt lat="43.3101030" lon="-1.8245910">
        <ele>141.2</ele>
        <time>2022-10-29T08:10:47Z</time>
      </trkpt>
      <trkpt lat="43.3101030" lon="-1.8246130">
        <ele>141.4</ele>
        <time>2022-10-29T08:10:48Z</time>
      </trkpt>
      <trkpt lat="43.3101020" lon="-1.8246340">
        <ele>141.6</ele>
        <time>2022-10-29T08:10:49Z</time>
      </trkpt>
      <trkpt lat="43.3100970" lon="-1.8246530">
        <ele>141.8</ele>
        <time>2022-10-29T08:10:50Z</time>
      </trkpt>
      <trkpt lat="43.3100900" lon="-1.8246700">
        <ele>141.8</ele>
        <time>2022-10-29T08:10:51Z</time>
      </trkpt>
      <trkpt lat="43.3100840" lon="-1.8246890">
        <ele>142.4</ele>
        <time>2022-10-29T08:10:52Z</time>
      </trkpt>
      <trkpt lat="43.3100790" lon="-1.8247070">
        <ele>142.4</ele>
        <time>2022-10-29T08:10:53Z</time>
      </trkpt>
      <trkpt lat="43.3100770" lon="-1.8247260">
        <ele>142.8</ele>
        <time>2022-10-29T08:10:54Z</time>
      </trkpt>
      <trkpt lat="43.3100730" lon="-1.8247500">
        <ele>142.8</ele>
        <time>2022-10-29T08:10:55Z</time>
      </trkpt>
      <trkpt lat="43.3100680" lon="-1.8247740">
        <ele>143.4</ele>
        <time>2022-10-29T08:10:56Z</time>
      </trkpt>
      <trkpt lat="43.3100660" lon="-1.8247980">
        <ele>143.8</ele>
        <time>2022-10-29T08:10:57Z</time>
      </trkpt>
      <trkpt lat="43.3100570" lon="-1.8248200">
        <ele>144.4</ele>
        <time>2022-10-29T08:10:58Z</time>
      </trkpt>
      <trkpt lat="43.3100440" lon="-1.8248410">
        <ele>144.8</ele>
        <time>2022-10-29T08:10:59Z</time>
      </trkpt>
      <trkpt lat="43.3100370" lon="-1.8248620">
        <ele>145.0</ele>
        <time>2022-10-29T08:11:00Z</time>
      </trkpt>
      <trkpt lat="43.3100350" lon="-1.8248850">
        <ele>145.2</ele>
        <time>2022-10-29T08:11:01Z</time>
      </trkpt>
      <trkpt lat="43.3100330" lon="-1.8249090">
        <ele>145.2</ele>
        <time>2022-10-29T08:11:02Z</time>
      </trkpt>
      <trkpt lat="43.3100320" lon="-1.8249290">
        <ele>145.4</ele>
        <time>2022-10-29T08:11:03Z</time>
      </trkpt>
      <trkpt lat="43.3100260" lon="-1.8249540">
        <ele>145.8</ele>
        <time>2022-10-29T08:11:04Z</time>
      </trkpt>
      <trkpt lat="43.3100170" lon="-1.8249760">
        <ele>146.2</ele>
        <time>2022-10-29T08:11:05Z</time>
      </trkpt>
      <trkpt lat="43.3100080" lon="-1.8250020">
        <ele>146.4</ele>
        <time>2022-10-29T08:11:06Z</time>
      </trkpt>
      <trkpt lat="43.3100040" lon="-1.8250250">
        <ele>146.6</ele>
        <time>2022-10-29T08:11:07Z</time>
      </trkpt>
      <trkpt lat="43.3100000" lon="-1.8250440">
        <ele>147.4</ele>
        <time>2022-10-29T08:11:08Z</time>
      </trkpt>
      <trkpt lat="43.3099970" lon="-1.8250630">
        <ele>147.6</ele>
        <time>2022-10-29T08:11:09Z</time>
      </trkpt>
      <trkpt lat="43.3099980" lon="-1.8250840">
        <ele>148.0</ele>
        <time>2022-10-29T08:11:10Z</time>
      </trkpt>
      <trkpt lat="43.3100000" lon="-1.8250990">
        <ele>148.2</ele>
        <time>2022-10-29T08:11:11Z</time>
      </trkpt>
      <trkpt lat="43.3099970" lon="-1.8251170">
        <ele>148.4</ele>
        <time>2022-10-29T08:11:12Z</time>
      </trkpt>
      <trkpt lat="43.3099940" lon="-1.8251300">
        <ele>148.6</ele>
        <time>2022-10-29T08:11:13Z</time>
      </trkpt>
      <trkpt lat="43.3099910" lon="-1.8251520">
        <ele>148.8</ele>
        <time>2022-10-29T08:11:14Z</time>
      </trkpt>
      <trkpt lat="43.3099870" lon="-1.8251670">
        <ele>149.2</ele>
        <time>2022-10-29T08:11:15Z</time>
      </trkpt>
      <trkpt lat="43.3099820" lon="-1.8251840">
        <ele>149.6</ele>
        <time>2022-10-29T08:11:16Z</time>
      </trkpt>
      <trkpt lat="43.3099700" lon="-1.8251970">
        <ele>149.8</ele>
        <time>2022-10-29T08:11:17Z</time>
      </trkpt>
      <trkpt lat="43.3099540" lon="-1.8252030">
        <ele>150.4</ele>
        <time>2022-10-29T08:11:18Z</time>
      </trkpt>
      <trkpt lat="43.3099320" lon="-1.8252230">
        <ele>150.8</ele>
        <time>2022-10-29T08:11:19Z</time>
      </trkpt>
      <trkpt lat="43.3099270" lon="-1.8252540">
        <ele>150.8</ele>
        <time>2022-10-29T08:11:20Z</time>
      </trkpt>
      <trkpt lat="43.3099280" lon="-1.8252640">
        <ele>151.4</ele>
        <time>2022-10-29T08:11:21Z</time>
      </trkpt>
      <trkpt lat="43.3099240" lon="-1.8252710">
        <ele>151.6</ele>
        <time>2022-10-29T08:11:22Z</time>
      </trkpt>
      <trkpt lat="43.3099160" lon="-1.8252860">
        <ele>152.0</ele>
        <time>2022-10-29T08:11:23Z</time>
      </trkpt>
      <trkpt lat="43.3099050" lon="-1.8253020">
        <ele>152.2</ele>
        <time>2022-10-29T08:11:24Z</time>
      </trkpt>
      <trkpt lat="43.3098900" lon="-1.8253210">
        <ele>152.4</ele>
        <time>2022-10-29T08:11:25Z</time>
      </trkpt>
      <trkpt lat="43.3098900" lon="-1.8253390">
        <ele>152.8</ele>
        <time>2022-10-29T08:11:26Z</time>
      </trkpt>
      <trkpt lat="43.3098930" lon="-1.8253610">
        <ele>153.2</ele>
        <time>2022-10-29T08:11:27Z</time>
      </trkpt>
      <trkpt lat="43.3098710" lon="-1.8253740">
        <ele>153.6</ele>
        <time>2022-10-29T08:11:28Z</time>
      </trkpt>
      <trkpt lat="43.3098550" lon="-1.8253940">
        <ele>154.4</ele>
        <time>2022-10-29T08:11:29Z</time>
      </trkpt>
      <trkpt lat="43.3098370" lon="-1.8254170">
        <ele>155.0</ele>
        <time>2022-10-29T08:11:30Z</time>
      </trkpt>
      <trkpt lat="43.3098270" lon="-1.8254280">
        <ele>155.2</ele>
        <time>2022-10-29T08:11:31Z</time>
      </trkpt>
      <trkpt lat="43.3098170" lon="-1.8254390">
        <ele>155.6</ele>
        <time>2022-10-29T08:11:32Z</time>
      </trkpt>
      <trkpt lat="43.3098070" lon="-1.8254580">
        <ele>155.6</ele>
        <time>2022-10-29T08:11:33Z</time>
      </trkpt>
      <trkpt lat="43.3097930" lon="-1.8254720">
        <ele>156.0</ele>
        <time>2022-10-29T08:11:34Z</time>
      </trkpt>
      <trkpt lat="43.3097890" lon="-1.8254900">
        <ele>156.2</ele>
        <time>2022-10-29T08:11:35Z</time>
      </trkpt>
      <trkpt lat="43.3097750" lon="-1.8255040">
        <ele>156.8</ele>
        <time>2022-10-29T08:11:36Z</time>
      </trkpt>
      <trkpt lat="43.3097610" lon="-1.8255200">
        <ele>157.0</ele>
        <time>2022-10-29T08:11:37Z</time>
      </trkpt>
      <trkpt lat="43.3097540" lon="-1.8255360">
        <ele>157.4</ele>
        <time>2022-10-29T08:11:38Z</time>
      </trkpt>
      <trkpt lat="43.3097460" lon="-1.8255650">
        <ele>157.8</ele>
        <time>2022-10-29T08:11:39Z</time>
      </trkpt>
      <trkpt lat="43.3097440" lon="-1.8255800">
        <ele>158.0</ele>
        <time>2022-10-29T08:11:40Z</time>
      </trkpt>
      <trkpt lat="43.3097430" lon="-1.8255930">
        <ele>158.2</ele>
        <time>2022-10-29T08:11:41Z</time>
      </trkpt>
      <trkpt lat="43.3097360" lon="-1.8256020">
        <ele>158.2</ele>
        <time>2022-10-29T08:11:42Z</time>
      </trkpt>
      <trkpt lat="43.3097340" lon="-1.8256160">
        <ele>158.8</ele>
        <time>2022-10-29T08:11:43Z</time>
      </trkpt>
      <trkpt lat="43.3097290" lon="-1.8256280">
        <ele>159.2</ele>
        <time>2022-10-29T08:11:44Z</time>
      </trkpt>
      <trkpt lat="43.3097230" lon="-1.8256420">
        <ele>159.4</ele>
        <time>2022-10-29T08:11:45Z</time>
      </trkpt>
      <trkpt lat="43.3097200" lon="-1.8256580">
        <ele>159.6</ele>
        <time>2022-10-29T08:11:46Z</time>
      </trkpt>
      <trkpt lat="43.3097180" lon="-1.8256760">
        <ele>160.2</ele>
        <time>2022-10-29T08:11:47Z</time>
      </trkpt>
      <trkpt lat="43.3097200" lon="-1.8256900">
        <ele>160.4</ele>
        <time>2022-10-29T08:11:48Z</time>
      </trkpt>
      <trkpt lat="43.3097220" lon="-1.8257070">
        <ele>160.8</ele>
        <time>2022-10-29T08:11:49Z</time>
      </trkpt>
      <trkpt lat="43.3097190" lon="-1.8257200">
        <ele>161.0</ele>
        <time>2022-10-29T08:11:50Z</time>
      </trkpt>
      <trkpt lat="43.3097120" lon="-1.8257320">
        <ele>161.2</ele>
        <time>2022-10-29T08:11:51Z</time>
      </trkpt>
      <trkpt lat="43.3097050" lon="-1.8257450">
        <ele>161.6</ele>
        <time>2022-10-29T08:11:52Z</time>
      </trkpt>
      <trkpt lat="43.3097010" lon="-1.8257600">
        <ele>161.6</ele>
        <time>2022-10-29T08:11:53Z</time>
      </trkpt>
      <trkpt lat="43.3097020" lon="-1.8257770">
        <ele>161.8</ele>
        <time>2022-10-29T08:11:54Z</time>
      </trkpt>
      <trkpt lat="43.3097060" lon="-1.8257890">
        <ele>162.0</ele>
        <time>2022-10-29T08:11:55Z</time>
      </trkpt>
      <trkpt lat="43.3097090" lon="-1.8258020">
        <ele>162.6</ele>
        <time>2022-10-29T08:11:56Z</time>
      </trkpt>
      <trkpt lat="43.3097050" lon="-1.8258160">
        <ele>162.8</ele>
        <time>2022-10-29T08:11:57Z</time>
      </trkpt>
      <trkpt lat="43.3097040" lon="-1.8258350">
        <ele>163.2</ele>
        <time>2022-10-29T08:11:58Z</time>
      </trkpt>
      <trkpt lat="43.3097080" lon="-1.8258460">
        <ele>163.4</ele>
        <time>2022-10-29T08:11:59Z</time>
      </trkpt>
      <trkpt lat="43.3097070" lon="-1.8258570">
        <ele>163.6</ele>
        <time>2022-10-29T08:12:00Z</time>
      </trkpt>
      <trkpt lat="43.3097020" lon="-1.8258660">
        <ele>164.0</ele>
        <time>2022-10-29T08:12:01Z</time>
      </trkpt>
      <trkpt lat="43.3097020" lon="-1.8258700">
        <ele>164.2</ele>
        <time>2022-10-29T08:12:02Z</time>
      </trkpt>
      <trkpt lat="43.3096990" lon="-1.8258780">
        <ele>164.6</ele>
        <time>2022-10-29T08:12:03Z</time>
      </trkpt>
      <trkpt lat="43.3096980" lon="-1.8258940">
        <ele>164.6</ele>
        <time>2022-10-29T08:12:04Z</time>
      </trkpt>
      <trkpt lat="43.3096970" lon="-1.8259150">
        <ele>165.0</ele>
        <time>2022-10-29T08:12:05Z</time>
      </trkpt>
      <trkpt lat="43.3096970" lon="-1.8259370">
        <ele>165.2</ele>
        <time>2022-10-29T08:12:06Z</time>
      </trkpt>
      <trkpt lat="43.3096900" lon="-1.8259540">
        <ele>165.4</ele>
        <time>2022-10-29T08:12:07Z</time>
      </trkpt>
      <trkpt lat="43.3096880" lon="-1.8259660">
        <ele>165.6</ele>
        <time>2022-10-29T08:12:08Z</time>
      </trkpt>
      <trkpt lat="43.3096840" lon="-1.8259870">
        <ele>165.8</ele>
        <time>2022-10-29T08:12:09Z</time>
      </trkpt>
      <trkpt lat="43.3096850" lon="-1.8260040">
        <ele>166.2</ele>
        <time>2022-10-29T08:12:10Z</time>
      </trkpt>
      <trkpt lat="43.3096850" lon="-1.8260230">
        <ele>166.4</ele>
        <time>2022-10-29T08:12:11Z</time>
      </trkpt>
      <trkpt lat="43.3096800" lon="-1.8260450">
        <ele>166.6</ele>
        <time>2022-10-29T08:12:12Z</time>
      </trkpt>
      <trkpt lat="43.3096730" lon="-1.8260650">
        <ele>166.8</ele>
        <time>2022-10-29T08:12:13Z</time>
      </trkpt>
      <trkpt lat="43.3096680" lon="-1.8260880">
        <ele>167.2</ele>
        <time>2022-10-29T08:12:14Z</time>
      </trkpt>
      <trkpt lat="43.3096590" lon="-1.8261030">
        <ele>167.4</ele>
        <time>2022-10-29T08:12:15Z</time>
      </trkpt>
      <trkpt lat="43.3096540" lon="-1.8261190">
        <ele>167.6</ele>
        <time>2022-10-29T08:12:16Z</time>
      </trkpt>
      <trkpt lat="43.3096430" lon="-1.8261380">
        <ele>167.6</ele>
        <time>2022-10-29T08:12:17Z</time>
      </trkpt>
      <trkpt lat="43.3096440" lon="-1.8261620">
        <ele>167.8</ele>
        <time>2022-10-29T08:12:18Z</time>
      </trkpt>
      <trkpt lat="43.3096440" lon="-1.8261810">
        <ele>167.8</ele>
        <time>2022-10-29T08:12:19Z</time>
      </trkpt>
      <trkpt lat="43.3096370" lon="-1.8261960">
        <ele>168.0</ele>
        <time>2022-10-29T08:12:20Z</time>
      </trkpt>
      <trkpt lat="43.3096280" lon="-1.8262190">
        <ele>168.4</ele>
        <time>2022-10-29T08:12:21Z</time>
      </trkpt>
      <trkpt lat="43.3096210" lon="-1.8262400">
        <ele>168.4</ele>
        <time>2022-10-29T08:12:22Z</time>
      </trkpt>
      <trkpt lat="43.3096170" lon="-1.8262600">
        <ele>168.4</ele>
        <time>2022-10-29T08:12:23Z</time>
      </trkpt>
      <trkpt lat="43.3096130" lon="-1.8262830">
        <ele>168.6</ele>
        <time>2022-10-29T08:12:24Z</time>
      </trkpt>
      <trkpt lat="43.3096080" lon="-1.8263030">
        <ele>168.8</ele>
        <time>2022-10-29T08:12:25Z</time>
      </trkpt>
      <trkpt lat="43.3096000" lon="-1.8263250">
        <ele>168.8</ele>
        <time>2022-10-29T08:12:26Z</time>
      </trkpt>
      <trkpt lat="43.3095850" lon="-1.8263450">
        <ele>169.0</ele>
        <time>2022-10-29T08:12:27Z</time>
      </trkpt>
      <trkpt lat="43.3095700" lon="-1.8263610">
        <ele>169.2</ele>
        <time>2022-10-29T08:12:28Z</time>
      </trkpt>
      <trkpt lat="43.3095550" lon="-1.8263790">
        <ele>169.6</ele>
        <time>2022-10-29T08:12:29Z</time>
      </trkpt>
      <trkpt lat="43.3095450" lon="-1.8263940">
        <ele>169.6</ele>
        <time>2022-10-29T08:12:30Z</time>
      </trkpt>
      <trkpt lat="43.3095460" lon="-1.8264080">
        <ele>169.8</ele>
        <time>2022-10-29T08:12:31Z</time>
      </trkpt>
      <trkpt lat="43.3095350" lon="-1.8264240">
        <ele>170.2</ele>
        <time>2022-10-29T08:12:32Z</time>
      </trkpt>
      <trkpt lat="43.3095300" lon="-1.8264460">
        <ele>170.2</ele>
        <time>2022-10-29T08:12:33Z</time>
      </trkpt>
      <trkpt lat="43.3095210" lon="-1.8264720">
        <ele>170.4</ele>
        <time>2022-10-29T08:12:34Z</time>
      </trkpt>
      <trkpt lat="43.3095030" lon="-1.8264990">
        <ele>170.6</ele>
        <time>2022-10-29T08:12:35Z</time>
      </trkpt>
      <trkpt lat="43.3095020" lon="-1.8265240">
        <ele>170.8</ele>
        <time>2022-10-29T08:12:36Z</time>
      </trkpt>
      <trkpt lat="43.3094820" lon="-1.8265490">
        <ele>171.0</ele>
        <time>2022-10-29T08:12:37Z</time>
      </trkpt>
      <trkpt lat="43.3094620" lon="-1.8265720">
        <ele>171.0</ele>
        <time>2022-10-29T08:12:38Z</time>
      </trkpt>
      <trkpt lat="43.3094500" lon="-1.8265930">
        <ele>171.2</ele>
        <time>2022-10-29T08:12:39Z</time>
      </trkpt>
      <trkpt lat="43.3094380" lon="-1.8266140">
        <ele>171.4</ele>
        <time>2022-10-29T08:12:40Z</time>
      </trkpt>
      <trkpt lat="43.3094270" lon="-1.8266380">
        <ele>171.8</ele>
        <time>2022-10-29T08:12:41Z</time>
      </trkpt>
      <trkpt lat="43.3094250" lon="-1.8266470">
        <ele>172.0</ele>
        <time>2022-10-29T08:12:42Z</time>
      </trkpt>
      <trkpt lat="43.3094200" lon="-1.8266710">
        <ele>172.2</ele>
        <time>2022-10-29T08:12:43Z</time>
      </trkpt>
      <trkpt lat="43.3094090" lon="-1.8266900">
        <ele>172.2</ele>
        <time>2022-10-29T08:12:44Z</time>
      </trkpt>
      <trkpt lat="43.3093970" lon="-1.8267040">
        <ele>172.6</ele>
        <time>2022-10-29T08:12:45Z</time>
      </trkpt>
      <trkpt lat="43.3093840" lon="-1.8267200">
        <ele>173.0</ele>
        <time>2022-10-29T08:12:46Z</time>
      </trkpt>
      <trkpt lat="43.3093710" lon="-1.8267280">
        <ele>173.2</ele>
        <time>2022-10-29T08:12:47Z</time>
      </trkpt>
      <trkpt lat="43.3093700" lon="-1.8267420">
        <ele>173.4</ele>
        <time>2022-10-29T08:12:48Z</time>
      </trkpt>
      <trkpt lat="43.3093620" lon="-1.8267550">
        <ele>173.8</ele>
        <time>2022-10-29T08:12:49Z</time>
      </trkpt>
      <trkpt lat="43.3093600" lon="-1.8267750">
        <ele>173.8</ele>
        <time>2022-10-29T08:12:50Z</time>
      </trkpt>
      <trkpt lat="43.3093420" lon="-1.8267890">
        <ele>174.2</ele>
        <time>2022-10-29T08:12:51Z</time>
      </trkpt>
      <trkpt lat="43.3093410" lon="-1.8268090">
        <ele>174.4</ele>
        <time>2022-10-29T08:12:52Z</time>
      </trkpt>
      <trkpt lat="43.3093400" lon="-1.8268270">
        <ele>174.4</ele>
        <time>2022-10-29T08:12:53Z</time>
      </trkpt>
      <trkpt lat="43.3093390" lon="-1.8268410">
        <ele>174.8</ele>
        <time>2022-10-29T08:12:54Z</time>
      </trkpt>
      <trkpt lat="43.3093370" lon="-1.8268560">
        <ele>175.0</ele>
        <time>2022-10-29T08:12:55Z</time>
      </trkpt>
      <trkpt lat="43.3093350" lon="-1.8268630">
        <ele>175.6</ele>
        <time>2022-10-29T08:12:56Z</time>
      </trkpt>
      <trkpt lat="43.3093350" lon="-1.8268630">
        <ele>175.8</ele>
        <time>2022-10-29T08:12:57Z</time>
      </trkpt>
      <trkpt lat="43.3093360" lon="-1.8268680">
        <ele>176.0</ele>
        <time>2022-10-29T08:12:58Z</time>
      </trkpt>
      <trkpt lat="43.3093360" lon="-1.8268790">
        <ele>176.2</ele>
        <time>2022-10-29T08:12:59Z</time>
      </trkpt>
      <trkpt lat="43.3093330" lon="-1.8268940">
        <ele>176.8</ele>
        <time>2022-10-29T08:13:00Z</time>
      </trkpt>
      <trkpt lat="43.3093280" lon="-1.8269120">
        <ele>177.0</ele>
        <time>2022-10-29T08:13:01Z</time>
      </trkpt>
      <trkpt lat="43.3093230" lon="-1.8269290">
        <ele>177.6</ele>
        <time>2022-10-29T08:13:02Z</time>
      </trkpt>
      <trkpt lat="43.3093270" lon="-1.8269490">
        <ele>177.8</ele>
        <time>2022-10-29T08:13:03Z</time>
      </trkpt>
      <trkpt lat="43.3093270" lon="-1.8269720">
        <ele>178.0</ele>
        <time>2022-10-29T08:13:04Z</time>
      </trkpt>
      <trkpt lat="43.3093250" lon="-1.8269930">
        <ele>178.4</ele>
        <time>2022-10-29T08:13:05Z</time>
      </trkpt>
      <trkpt lat="43.3093240" lon="-1.8270090">
        <ele>178.4</ele>
        <time>2022-10-29T08:13:06Z</time>
      </trkpt>
      <trkpt lat="43.3093240" lon="-1.8270300">
        <ele>179.0</ele>
        <time>2022-10-29T08:13:07Z</time>
      </trkpt>
      <trkpt lat="43.3093250" lon="-1.8270530">
        <ele>179.2</ele>
        <time>2022-10-29T08:13:08Z</time>
      </trkpt>
      <trkpt lat="43.3093260" lon="-1.8270730">
        <ele>179.6</ele>
        <time>2022-10-29T08:13:09Z</time>
      </trkpt>
      <trkpt lat="43.3093260" lon="-1.8270990">
        <ele>179.6</ele>
        <time>2022-10-29T08:13:10Z</time>
      </trkpt>
      <trkpt lat="43.3093220" lon="-1.8271230">
        <ele>180.2</ele>
        <time>2022-10-29T08:13:11Z</time>
      </trkpt>
      <trkpt lat="43.3093200" lon="-1.8271460">
        <ele>180.6</ele>
        <time>2022-10-29T08:13:12Z</time>
      </trkpt>
      <trkpt lat="43.3093200" lon="-1.8271780">
        <ele>180.8</ele>
        <time>2022-10-29T08:13:13Z</time>
      </trkpt>
      <trkpt lat="43.3093110" lon="-1.8272010">
        <ele>181.2</ele>
        <time>2022-10-29T08:13:14Z</time>
      </trkpt>
      <trkpt lat="43.3093070" lon="-1.8272220">
        <ele>181.4</ele>
        <time>2022-10-29T08:13:15Z</time>
      </trkpt>
      <trkpt lat="43.3093000" lon="-1.8272410">
        <ele>181.6</ele>
        <time>2022-10-29T08:13:16Z</time>
      </trkpt>
      <trkpt lat="43.3092970" lon="-1.8272650">
        <ele>181.8</ele>
        <time>2022-10-29T08:13:17Z</time>
      </trkpt>
      <trkpt lat="43.3092930" lon="-1.8273000">
        <ele>182.0</ele>
        <time>2022-10-29T08:13:18Z</time>
      </trkpt>
      <trkpt lat="43.3092860" lon="-1.8273290">
        <ele>182.2</ele>
        <time>2022-10-29T08:13:19Z</time>
      </trkpt>
      <trkpt lat="43.3092800" lon="-1.8273540">
        <ele>182.4</ele>
        <time>2022-10-29T08:13:20Z</time>
      </trkpt>
      <trkpt lat="43.3092800" lon="-1.8273710">
        <ele>182.6</ele>
        <time>2022-10-29T08:13:21Z</time>
      </trkpt>
      <trkpt lat="43.3092800" lon="-1.8273880">
        <ele>182.8</ele>
        <time>2022-10-29T08:13:22Z</time>
      </trkpt>
      <trkpt lat="43.3092840" lon="-1.8274230">
        <ele>183.2</ele>
        <time>2022-10-29T08:13:23Z</time>
      </trkpt>
      <trkpt lat="43.3092810" lon="-1.8274560">
        <ele>183.4</ele>
        <time>2022-10-29T08:13:24Z</time>
      </trkpt>
      <trkpt lat="43.3092800" lon="-1.8274920">
        <ele>183.6</ele>
        <time>2022-10-29T08:13:25Z</time>
      </trkpt>
      <trkpt lat="43.3092770" lon="-1.8275280">
        <ele>183.8</ele>
        <time>2022-10-29T08:13:26Z</time>
      </trkpt>
      <trkpt lat="43.3092760" lon="-1.8275660">
        <ele>184.2</ele>
        <time>2022-10-29T08:13:27Z</time>
      </trkpt>
      <trkpt lat="43.3092740" lon="-1.8276070">
        <ele>184.4</ele>
        <time>2022-10-29T08:13:28Z</time>
      </trkpt>
      <trkpt lat="43.3092800" lon="-1.8276400">
        <ele>184.4</ele>
        <time>2022-10-29T08:13:29Z</time>
      </trkpt>
      <trkpt lat="43.3092720" lon="-1.8276810">
        <ele>184.6</ele>
        <time>2022-10-29T08:13:30Z</time>
      </trkpt>
      <trkpt lat="43.3092560" lon="-1.8277130">
        <ele>184.8</ele>
        <time>2022-10-29T08:13:31Z</time>
      </trkpt>
      <trkpt lat="43.3092490" lon="-1.8277570">
        <ele>184.8</ele>
        <time>2022-10-29T08:13:32Z</time>
      </trkpt>
      <trkpt lat="43.3092500" lon="-1.8277950">
        <ele>184.8</ele>
        <time>2022-10-29T08:13:33Z</time>
      </trkpt>
      <trkpt lat="43.3092540" lon="-1.8278360">
        <ele>185.0</ele>
        <time>2022-10-29T08:13:34Z</time>
      </trkpt>
      <trkpt lat="43.3092620" lon="-1.8278760">
        <ele>185.0</ele>
        <time>2022-10-29T08:13:35Z</time>
      </trkpt>
      <trkpt lat="43.3092630" lon="-1.8279130">
        <ele>185.0</ele>
        <time>2022-10-29T08:13:36Z</time>
      </trkpt>
      <trkpt lat="43.3092540" lon="-1.8279530">
        <ele>185.0</ele>
        <time>2022-10-29T08:13:37Z</time>
      </trkpt>
      <trkpt lat="43.3092400" lon="-1.8279910">
        <ele>185.2</ele>
        <time>2022-10-29T08:13:38Z</time>
      </trkpt>
      <trkpt lat="43.3092280" lon="-1.8280290">
        <ele>185.2</ele>
        <time>2022-10-29T08:13:39Z</time>
      </trkpt>
      <trkpt lat="43.3092150" lon="-1.8280650">
        <ele>185.2</ele>
        <time>2022-10-29T08:13:40Z</time>
      </trkpt>
      <trkpt lat="43.3091990" lon="-1.8281000">
        <ele>185.4</ele>
        <time>2022-10-29T08:13:41Z</time>
      </trkpt>
      <trkpt lat="43.3091790" lon="-1.8281370">
        <ele>185.4</ele>
        <time>2022-10-29T08:13:42Z</time>
      </trkpt>
      <trkpt lat="43.3091610" lon="-1.8281790">
        <ele>185.4</ele>
        <time>2022-10-29T08:13:43Z</time>
      </trkpt>
      <trkpt lat="43.3091470" lon="-1.8282240">
        <ele>185.2</ele>
        <time>2022-10-29T08:13:44Z</time>
      </trkpt>
      <trkpt lat="43.3091300" lon="-1.8282710">
        <ele>185.2</ele>
        <time>2022-10-29T08:13:45Z</time>
      </trkpt>
      <trkpt lat="43.3091180" lon="-1.8283180">
        <ele>185.2</ele>
        <time>2022-10-29T08:13:46Z</time>
      </trkpt>
      <trkpt lat="43.3091040" lon="-1.8283640">
        <ele>185.2</ele>
        <time>2022-10-29T08:13:47Z</time>
      </trkpt>
      <trkpt lat="43.3090860" lon="-1.8284090">
        <ele>185.2</ele>
        <time>2022-10-29T08:13:48Z</time>
      </trkpt>
      <trkpt lat="43.3090700" lon="-1.8284540">
        <ele>185.2</ele>
        <time>2022-10-29T08:13:49Z</time>
      </trkpt>
      <trkpt lat="43.3090550" lon="-1.8284960">
        <ele>185.2</ele>
        <time>2022-10-29T08:13:50Z</time>
      </trkpt>
      <trkpt lat="43.3090360" lon="-1.8285360">
        <ele>185.0</ele>
        <time>2022-10-29T08:13:51Z</time>
      </trkpt>
      <trkpt lat="43.3090180" lon="-1.8285750">
        <ele>185.0</ele>
        <time>2022-10-29T08:13:52Z</time>
      </trkpt>
      <trkpt lat="43.3089240" lon="-1.8287640">
        <ele>185.0</ele>
        <time>2022-10-29T08:13:57Z</time>
      </trkpt>
      <trkpt lat="43.3089180" lon="-1.8287950">
        <ele>185.0</ele>
        <time>2022-10-29T08:13:58Z</time>
      </trkpt>
      <trkpt lat="43.3089040" lon="-1.8288310">
        <ele>185.0</ele>
        <time>2022-10-29T08:13:59Z</time>
      </trkpt>
      <trkpt lat="43.3088830" lon="-1.8288660">
        <ele>185.0</ele>
        <time>2022-10-29T08:14:00Z</time>
      </trkpt>
      <trkpt lat="43.3088700" lon="-1.8288970">
        <ele>185.2</ele>
        <time>2022-10-29T08:14:01Z</time>
      </trkpt>
      <trkpt lat="43.3088540" lon="-1.8289260">
        <ele>185.2</ele>
        <time>2022-10-29T08:14:02Z</time>
      </trkpt>
      <trkpt lat="43.3088370" lon="-1.8289610">
        <ele>185.4</ele>
        <time>2022-10-29T08:14:03Z</time>
      </trkpt>
      <trkpt lat="43.3088190" lon="-1.8290000">
        <ele>185.6</ele>
        <time>2022-10-29T08:14:04Z</time>
      </trkpt>
      <trkpt lat="43.3087920" lon="-1.8290710">
        <ele>186.0</ele>
        <time>2022-10-29T08:14:06Z</time>
      </trkpt>
      <trkpt lat="43.3087680" lon="-1.8291050">
        <ele>186.2</ele>
        <time>2022-10-29T08:14:07Z</time>
      </trkpt>
      <trkpt lat="43.3087500" lon="-1.8291470">
        <ele>186.4</ele>
        <time>2022-10-29T08:14:08Z</time>
      </trkpt>
      <trkpt lat="43.3087050" lon="-1.8292710">
        <ele>187.2</ele>
        <time>2022-10-29T08:14:11Z</time>
      </trkpt>
      <trkpt lat="43.3086820" lon="-1.8293440">
        <ele>188.0</ele>
        <time>2022-10-29T08:14:13Z</time>
      </trkpt>
      <trkpt lat="43.3086720" lon="-1.8294320">
        <ele>189.0</ele>
        <time>2022-10-29T08:14:15Z</time>
      </trkpt>
      <trkpt lat="43.3086690" lon="-1.8294690">
        <ele>189.6</ele>
        <time>2022-10-29T08:14:16Z</time>
      </trkpt>
      <trkpt lat="43.3086670" lon="-1.8295110">
        <ele>189.8</ele>
        <time>2022-10-29T08:14:17Z</time>
      </trkpt>
      <trkpt lat="43.3086620" lon="-1.8295480">
        <ele>190.4</ele>
        <time>2022-10-29T08:14:18Z</time>
      </trkpt>
      <trkpt lat="43.3086540" lon="-1.8295860">
        <ele>190.8</ele>
        <time>2022-10-29T08:14:19Z</time>
      </trkpt>
      <trkpt lat="43.3086530" lon="-1.8296440">
        <ele>191.6</ele>
        <time>2022-10-29T08:14:20Z</time>
      </trkpt>
      <trkpt lat="43.3086510" lon="-1.8296990">
        <ele>192.0</ele>
        <time>2022-10-29T08:14:21Z</time>
      </trkpt>
      <trkpt lat="43.3086440" lon="-1.8297490">
        <ele>193.0</ele>
        <time>2022-10-29T08:14:22Z</time>
      </trkpt>
      <trkpt lat="43.3086310" lon="-1.8297900">
        <ele>193.6</ele>
        <time>2022-10-29T08:14:23Z</time>
      </trkpt>
      <trkpt lat="43.3086210" lon="-1.8298240">
        <ele>194.2</ele>
        <time>2022-10-29T08:14:24Z</time>
      </trkpt>
      <trkpt lat="43.3086190" lon="-1.8298740">
        <ele>195.0</ele>
        <time>2022-10-29T08:14:25Z</time>
      </trkpt>
      <trkpt lat="43.3086110" lon="-1.8299120">
        <ele>195.2</ele>
        <time>2022-10-29T08:14:26Z</time>
      </trkpt>
      <trkpt lat="43.3085970" lon="-1.8299470">
        <ele>196.2</ele>
        <time>2022-10-29T08:14:27Z</time>
      </trkpt>
      <trkpt lat="43.3085920" lon="-1.8299800">
        <ele>196.4</ele>
        <time>2022-10-29T08:14:28Z</time>
      </trkpt>
      <trkpt lat="43.3085890" lon="-1.8300300">
        <ele>197.0</ele>
        <time>2022-10-29T08:14:29Z</time>
      </trkpt>
      <trkpt lat="43.3085790" lon="-1.8300810">
        <ele>197.2</ele>
        <time>2022-10-29T08:14:30Z</time>
      </trkpt>
      <trkpt lat="43.3085700" lon="-1.8301360">
        <ele>197.8</ele>
        <time>2022-10-29T08:14:31Z</time>
      </trkpt>
      <trkpt lat="43.3085600" lon="-1.8301840">
        <ele>198.0</ele>
        <time>2022-10-29T08:14:32Z</time>
      </trkpt>
      <trkpt lat="43.3085600" lon="-1.8302480">
        <ele>198.4</ele>
        <time>2022-10-29T08:14:33Z</time>
      </trkpt>
      <trkpt lat="43.3085600" lon="-1.8303050">
        <ele>198.6</ele>
        <time>2022-10-29T08:14:34Z</time>
      </trkpt>
      <trkpt lat="43.3085550" lon="-1.8303790">
        <ele>198.8</ele>
        <time>2022-10-29T08:14:35Z</time>
      </trkpt>
      <trkpt lat="43.3085480" lon="-1.8304470">
        <ele>199.0</ele>
        <time>2022-10-29T08:14:36Z</time>
      </trkpt>
      <trkpt lat="43.3085430" lon="-1.8305250">
        <ele>199.0</ele>
        <time>2022-10-29T08:14:37Z</time>
      </trkpt>
      <trkpt lat="43.3085320" lon="-1.8306070">
        <ele>199.0</ele>
        <time>2022-10-29T08:14:38Z</time>
      </trkpt>
      <trkpt lat="43.3085210" lon="-1.8307030">
        <ele>199.0</ele>
        <time>2022-10-29T08:14:39Z</time>
      </trkpt>
      <trkpt lat="43.3085150" lon="-1.8307880">
        <ele>199.0</ele>
        <time>2022-10-29T08:14:40Z</time>
      </trkpt>
      <trkpt lat="43.3085190" lon="-1.8308670">
        <ele>199.0</ele>
        <time>2022-10-29T08:14:41Z</time>
      </trkpt>
      <trkpt lat="43.3085240" lon="-1.8309600">
        <ele>199.0</ele>
        <time>2022-10-29T08:14:42Z</time>
      </trkpt>
      <trkpt lat="43.3085260" lon="-1.8310760">
        <ele>198.8</ele>
        <time>2022-10-29T08:14:43Z</time>
      </trkpt>
      <trkpt lat="43.3085330" lon="-1.8311580">
        <ele>198.6</ele>
        <time>2022-10-29T08:14:44Z</time>
      </trkpt>
      <trkpt lat="43.3085330" lon="-1.8312730">
        <ele>198.4</ele>
        <time>2022-10-29T08:14:45Z</time>
      </trkpt>
      <trkpt lat="43.3085220" lon="-1.8314060">
        <ele>198.0</ele>
        <time>2022-10-29T08:14:46Z</time>
      </trkpt>
      <trkpt lat="43.3085190" lon="-1.8315240">
        <ele>197.0</ele>
        <time>2022-10-29T08:14:47Z</time>
      </trkpt>
      <trkpt lat="43.3085140" lon="-1.8316460">
        <ele>196.6</ele>
        <time>2022-10-29T08:14:48Z</time>
      </trkpt>
      <trkpt lat="43.3085110" lon="-1.8317670">
        <ele>195.8</ele>
        <time>2022-10-29T08:14:49Z</time>
      </trkpt>
      <trkpt lat="43.3085060" lon="-1.8318920">
        <ele>195.6</ele>
        <time>2022-10-29T08:14:50Z</time>
      </trkpt>
      <trkpt lat="43.3085020" lon="-1.8320200">
        <ele>194.8</ele>
        <time>2022-10-29T08:14:51Z</time>
      </trkpt>
      <trkpt lat="43.3085020" lon="-1.8321500">
        <ele>194.4</ele>
        <time>2022-10-29T08:14:52Z</time>
      </trkpt>
      <trkpt lat="43.3085030" lon="-1.8322880">
        <ele>193.4</ele>
        <time>2022-10-29T08:14:53Z</time>
      </trkpt>
      <trkpt lat="43.3085070" lon="-1.8324300">
        <ele>192.8</ele>
        <time>2022-10-29T08:14:54Z</time>
      </trkpt>
      <trkpt lat="43.3085190" lon="-1.8325840">
        <ele>192.2</ele>
        <time>2022-10-29T08:14:55Z</time>
      </trkpt>
      <trkpt lat="43.3085310" lon="-1.8327770">
        <ele>190.6</ele>
        <time>2022-10-29T08:14:56Z</time>
      </trkpt>
      <trkpt lat="43.3085550" lon="-1.8331050">
        <ele>188.8</ele>
        <time>2022-10-29T08:14:58Z</time>
      </trkpt>
      <trkpt lat="43.3085750" lon="-1.8332640">
        <ele>188.2</ele>
        <time>2022-10-29T08:14:59Z</time>
      </trkpt>
      <trkpt lat="43.3086050" lon="-1.8334180">
        <ele>187.0</ele>
        <time>2022-10-29T08:15:00Z</time>
      </trkpt>
      <trkpt lat="43.3086480" lon="-1.8335550">
        <ele>186.6</ele>
        <time>2022-10-29T08:15:01Z</time>
      </trkpt>
      <trkpt lat="43.3087030" lon="-1.8336740">
        <ele>185.8</ele>
        <time>2022-10-29T08:15:02Z</time>
      </trkpt>
      <trkpt lat="43.3087550" lon="-1.8337860">
        <ele>185.6</ele>
        <time>2022-10-29T08:15:03Z</time>
      </trkpt>
      <trkpt lat="43.3087980" lon="-1.8339040">
        <ele>183.4</ele>
        <time>2022-10-29T08:15:04Z</time>
      </trkpt>
      <trkpt lat="43.3088330" lon="-1.8340320">
        <ele>182.2</ele>
        <time>2022-10-29T08:15:05Z</time>
      </trkpt>
      <trkpt lat="43.3088620" lon="-1.8341640">
        <ele>180.0</ele>
        <time>2022-10-29T08:15:06Z</time>
      </trkpt>
      <trkpt lat="43.3088860" lon="-1.8342950">
        <ele>179.0</ele>
        <time>2022-10-29T08:15:07Z</time>
      </trkpt>
      <trkpt lat="43.3089060" lon="-1.8344110">
        <ele>178.2</ele>
        <time>2022-10-29T08:15:08Z</time>
      </trkpt>
      <trkpt lat="43.3089200" lon="-1.8345180">
        <ele>176.2</ele>
        <time>2022-10-29T08:15:09Z</time>
      </trkpt>
      <trkpt lat="43.3089420" lon="-1.8346210">
        <ele>175.0</ele>
        <time>2022-10-29T08:15:10Z</time>
      </trkpt>
      <trkpt lat="43.3089770" lon="-1.8347150">
        <ele>173.2</ele>
        <time>2022-10-29T08:15:11Z</time>
      </trkpt>
      <trkpt lat="43.3090180" lon="-1.8348070">
        <ele>172.4</ele>
        <time>2022-10-29T08:15:12Z</time>
      </trkpt>
      <trkpt lat="43.3090610" lon="-1.8349030">
        <ele>170.6</ele>
        <time>2022-10-29T08:15:13Z</time>
      </trkpt>
      <trkpt lat="43.3091030" lon="-1.8350140">
        <ele>168.8</ele>
        <time>2022-10-29T08:15:14Z</time>
      </trkpt>
      <trkpt lat="43.3091340" lon="-1.8351380">
        <ele>166.4</ele>
        <time>2022-10-29T08:15:15Z</time>
      </trkpt>
      <trkpt lat="43.3091550" lon="-1.8352680">
        <ele>165.0</ele>
        <time>2022-10-29T08:15:16Z</time>
      </trkpt>
      <trkpt lat="43.3091690" lon="-1.8353980">
        <ele>164.0</ele>
        <time>2022-10-29T08:15:17Z</time>
      </trkpt>
      <trkpt lat="43.3091740" lon="-1.8355240">
        <ele>162.2</ele>
        <time>2022-10-29T08:15:18Z</time>
      </trkpt>
      <trkpt lat="43.3091840" lon="-1.8357630">
        <ele>160.4</ele>
        <time>2022-10-29T08:15:20Z</time>
      </trkpt>
      <trkpt lat="43.3092050" lon="-1.8358830">
        <ele>159.2</ele>
        <time>2022-10-29T08:15:21Z</time>
      </trkpt>
      <trkpt lat="43.3092280" lon="-1.8360040">
        <ele>157.4</ele>
        <time>2022-10-29T08:15:22Z</time>
      </trkpt>
      <trkpt lat="43.3092510" lon="-1.8361240">
        <ele>156.0</ele>
        <time>2022-10-29T08:15:23Z</time>
      </trkpt>
      <trkpt lat="43.3092680" lon="-1.8362410">
        <ele>154.6</ele>
        <time>2022-10-29T08:15:24Z</time>
      </trkpt>
      <trkpt lat="43.3092820" lon="-1.8363560">
        <ele>153.8</ele>
        <time>2022-10-29T08:15:25Z</time>
      </trkpt>
      <trkpt lat="43.3092940" lon="-1.8364810">
        <ele>152.6</ele>
        <time>2022-10-29T08:15:26Z</time>
      </trkpt>
      <trkpt lat="43.3093010" lon="-1.8366170">
        <ele>150.6</ele>
        <time>2022-10-29T08:15:27Z</time>
      </trkpt>
      <trkpt lat="43.3093020" lon="-1.8367510">
        <ele>149.8</ele>
        <time>2022-10-29T08:15:28Z</time>
      </trkpt>
      <trkpt lat="43.3092950" lon="-1.8368820">
        <ele>148.0</ele>
        <time>2022-10-29T08:15:29Z</time>
      </trkpt>
      <trkpt lat="43.3092830" lon="-1.8370090">
        <ele>146.2</ele>
        <time>2022-10-29T08:15:30Z</time>
      </trkpt>
      <trkpt lat="43.3092650" lon="-1.8371250">
        <ele>143.8</ele>
        <time>2022-10-29T08:15:31Z</time>
      </trkpt>
      <trkpt lat="43.3092440" lon="-1.8372380">
        <ele>143.2</ele>
        <time>2022-10-29T08:15:32Z</time>
      </trkpt>
      <trkpt lat="43.3092340" lon="-1.8373450">
        <ele>141.8</ele>
        <time>2022-10-29T08:15:33Z</time>
      </trkpt>
      <trkpt lat="43.3092450" lon="-1.8374550">
        <ele>141.2</ele>
        <time>2022-10-29T08:15:34Z</time>
      </trkpt>
      <trkpt lat="43.3092740" lon="-1.8375570">
        <ele>139.6</ele>
        <time>2022-10-29T08:15:35Z</time>
      </trkpt>
      <trkpt lat="43.3093200" lon="-1.8376390">
        <ele>138.6</ele>
        <time>2022-10-29T08:15:36Z</time>
      </trkpt>
      <trkpt lat="43.3093870" lon="-1.8377030">
        <ele>135.2</ele>
        <time>2022-10-29T08:15:37Z</time>
      </trkpt>
      <trkpt lat="43.3094470" lon="-1.8377650">
        <ele>133.6</ele>
        <time>2022-10-29T08:15:38Z</time>
      </trkpt>
      <trkpt lat="43.3094940" lon="-1.8378380">
        <ele>132.8</ele>
        <time>2022-10-29T08:15:39Z</time>
      </trkpt>
      <trkpt lat="43.3095360" lon="-1.8379220">
        <ele>131.4</ele>
        <time>2022-10-29T08:15:40Z</time>
      </trkpt>
      <trkpt lat="43.3095690" lon="-1.8380210">
        <ele>130.8</ele>
        <time>2022-10-29T08:15:41Z</time>
      </trkpt>
      <trkpt lat="43.3095960" lon="-1.8381230">
        <ele>130.2</ele>
        <time>2022-10-29T08:15:42Z</time>
      </trkpt>
      <trkpt lat="43.3095980" lon="-1.8382370">
        <ele>130.0</ele>
        <time>2022-10-29T08:15:43Z</time>
      </trkpt>
      <trkpt lat="43.3095840" lon="-1.8383200">
        <ele>129.6</ele>
        <time>2022-10-29T08:15:44Z</time>
      </trkpt>
      <trkpt lat="43.3095640" lon="-1.8383920">
        <ele>129.4</ele>
        <time>2022-10-29T08:15:45Z</time>
      </trkpt>
      <trkpt lat="43.3095480" lon="-1.8384680">
        <ele>128.6</ele>
        <time>2022-10-29T08:15:46Z</time>
      </trkpt>
      <trkpt lat="43.3095360" lon="-1.8385370">
        <ele>128.2</ele>
        <time>2022-10-29T08:15:47Z</time>
      </trkpt>
      <trkpt lat="43.3095240" lon="-1.8385990">
        <ele>127.6</ele>
        <time>2022-10-29T08:15:48Z</time>
      </trkpt>
      <trkpt lat="43.3095160" lon="-1.8386600">
        <ele>127.4</ele>
        <time>2022-10-29T08:15:49Z</time>
      </trkpt>
      <trkpt lat="43.3095090" lon="-1.8387140">
        <ele>127.2</ele>
        <time>2022-10-29T08:15:50Z</time>
      </trkpt>
      <trkpt lat="43.3095000" lon="-1.8387620">
        <ele>127.2</ele>
        <time>2022-10-29T08:15:51Z</time>
      </trkpt>
      <trkpt lat="43.3094960" lon="-1.8388120">
        <ele>127.2</ele>
        <time>2022-10-29T08:15:52Z</time>
      </trkpt>
      <trkpt lat="43.3094920" lon="-1.8388590">
        <ele>127.4</ele>
        <time>2022-10-29T08:15:53Z</time>
      </trkpt>
      <trkpt lat="43.3094850" lon="-1.8389120">
        <ele>127.6</ele>
        <time>2022-10-29T08:15:54Z</time>
      </trkpt>
      <trkpt lat="43.3094850" lon="-1.8389600">
        <ele>127.6</ele>
        <time>2022-10-29T08:15:55Z</time>
      </trkpt>
      <trkpt lat="43.3094760" lon="-1.8391060">
        <ele>128.4</ele>
        <time>2022-10-29T08:15:58Z</time>
      </trkpt>
      <trkpt lat="43.3094740" lon="-1.8391520">
        <ele>128.6</ele>
        <time>2022-10-29T08:15:59Z</time>
      </trkpt>
      <trkpt lat="43.3094700" lon="-1.8391920">
        <ele>129.2</ele>
        <time>2022-10-29T08:16:00Z</time>
      </trkpt>
      <trkpt lat="43.3094640" lon="-1.8392430">
        <ele>129.4</ele>
        <time>2022-10-29T08:16:01Z</time>
      </trkpt>
      <trkpt lat="43.3094580" lon="-1.8392950">
        <ele>129.8</ele>
        <time>2022-10-29T08:16:02Z</time>
      </trkpt>
      <trkpt lat="43.3094390" lon="-1.8395230">
        <ele>130.8</ele>
        <time>2022-10-29T08:16:06Z</time>
      </trkpt>
      <trkpt lat="43.3094370" lon="-1.8397700">
        <ele>131.4</ele>
        <time>2022-10-29T08:16:11Z</time>
      </trkpt>
      <trkpt lat="43.3094400" lon="-1.8398660">
        <ele>131.8</ele>
        <time>2022-10-29T08:16:13Z</time>
      </trkpt>
      <trkpt lat="43.3094390" lon="-1.8399130">
        <ele>132.0</ele>
        <time>2022-10-29T08:16:14Z</time>
      </trkpt>
      <trkpt lat="43.3094390" lon="-1.8399580">
        <ele>132.2</ele>
        <time>2022-10-29T08:16:15Z</time>
      </trkpt>
      <trkpt lat="43.3094400" lon="-1.8400030">
        <ele>132.2</ele>
        <time>2022-10-29T08:16:16Z</time>
      </trkpt>
      <trkpt lat="43.3094420" lon="-1.8400460">
        <ele>132.4</ele>
        <time>2022-10-29T08:16:17Z</time>
      </trkpt>
      <trkpt lat="43.3094430" lon="-1.8400910">
        <ele>132.4</ele>
        <time>2022-10-29T08:16:18Z</time>
      </trkpt>
      <trkpt lat="43.3094430" lon="-1.8401350">
        <ele>132.4</ele>
        <time>2022-10-29T08:16:19Z</time>
      </trkpt>
      <trkpt lat="43.3094410" lon="-1.8401800">
        <ele>132.6</ele>
        <time>2022-10-29T08:16:20Z</time>
      </trkpt>
      <trkpt lat="43.3094400" lon="-1.8402260">
        <ele>132.6</ele>
        <time>2022-10-29T08:16:21Z</time>
      </trkpt>
      <trkpt lat="43.3094390" lon="-1.8402690">
        <ele>132.8</ele>
        <time>2022-10-29T08:16:22Z</time>
      </trkpt>
      <trkpt lat="43.3094390" lon="-1.8403130">
        <ele>132.8</ele>
        <time>2022-10-29T08:16:23Z</time>
      </trkpt>
      <trkpt lat="43.3094350" lon="-1.8404080">
        <ele>133.0</ele>
        <time>2022-10-29T08:16:25Z</time>
      </trkpt>
      <trkpt lat="43.3094360" lon="-1.8404530">
        <ele>133.2</ele>
        <time>2022-10-29T08:16:26Z</time>
      </trkpt>
      <trkpt lat="43.3094390" lon="-1.8404980">
        <ele>133.2</ele>
        <time>2022-10-29T08:16:27Z</time>
      </trkpt>
      <trkpt lat="43.3094420" lon="-1.8405430">
        <ele>133.6</ele>
        <time>2022-10-29T08:16:28Z</time>
      </trkpt>
      <trkpt lat="43.3094450" lon="-1.8405910">
        <ele>134.0</ele>
        <time>2022-10-29T08:16:29Z</time>
      </trkpt>
      <trkpt lat="43.3094490" lon="-1.8406440">
        <ele>134.0</ele>
        <time>2022-10-29T08:16:30Z</time>
      </trkpt>
      <trkpt lat="43.3094560" lon="-1.8406980">
        <ele>134.4</ele>
        <time>2022-10-29T08:16:31Z</time>
      </trkpt>
      <trkpt lat="43.3094620" lon="-1.8407530">
        <ele>134.6</ele>
        <time>2022-10-29T08:16:32Z</time>
      </trkpt>
      <trkpt lat="43.3094700" lon="-1.8408060">
        <ele>135.0</ele>
        <time>2022-10-29T08:16:33Z</time>
      </trkpt>
      <trkpt lat="43.3094800" lon="-1.8408690">
        <ele>135.2</ele>
        <time>2022-10-29T08:16:34Z</time>
      </trkpt>
      <trkpt lat="43.3094890" lon="-1.8409190">
        <ele>135.2</ele>
        <time>2022-10-29T08:16:35Z</time>
      </trkpt>
      <trkpt lat="43.3094950" lon="-1.8409660">
        <ele>135.4</ele>
        <time>2022-10-29T08:16:36Z</time>
      </trkpt>
      <trkpt lat="43.3095010" lon="-1.8410080">
        <ele>135.4</ele>
        <time>2022-10-29T08:16:37Z</time>
      </trkpt>
      <trkpt lat="43.3095070" lon="-1.8410500">
        <ele>135.4</ele>
        <time>2022-10-29T08:16:38Z</time>
      </trkpt>
      <trkpt lat="43.3095120" lon="-1.8410900">
        <ele>135.4</ele>
        <time>2022-10-29T08:16:39Z</time>
      </trkpt>
      <trkpt lat="43.3095150" lon="-1.8411270">
        <ele>135.4</ele>
        <time>2022-10-29T08:16:40Z</time>
      </trkpt>
      <trkpt lat="43.3095130" lon="-1.8411630">
        <ele>135.4</ele>
        <time>2022-10-29T08:16:41Z</time>
      </trkpt>
      <trkpt lat="43.3095130" lon="-1.8411980">
        <ele>135.4</ele>
        <time>2022-10-29T08:16:42Z</time>
      </trkpt>
      <trkpt lat="43.3095150" lon="-1.8412270">
        <ele>135.4</ele>
        <time>2022-10-29T08:16:43Z</time>
      </trkpt>
      <trkpt lat="43.3095200" lon="-1.8412690">
        <ele>135.8</ele>
        <time>2022-10-29T08:16:44Z</time>
      </trkpt>
      <trkpt lat="43.3095220" lon="-1.8413020">
        <ele>136.0</ele>
        <time>2022-10-29T08:16:45Z</time>
      </trkpt>
      <trkpt lat="43.3095240" lon="-1.8413310">
        <ele>136.4</ele>
        <time>2022-10-29T08:16:46Z</time>
      </trkpt>
      <trkpt lat="43.3095260" lon="-1.8413590">
        <ele>136.6</ele>
        <time>2022-10-29T08:16:47Z</time>
      </trkpt>
      <trkpt lat="43.3095290" lon="-1.8413810">
        <ele>137.0</ele>
        <time>2022-10-29T08:16:48Z</time>
      </trkpt>
      <trkpt lat="43.3095320" lon="-1.8414140">
        <ele>137.2</ele>
        <time>2022-10-29T08:16:49Z</time>
      </trkpt>
      <trkpt lat="43.3095350" lon="-1.8414370">
        <ele>137.4</ele>
        <time>2022-10-29T08:16:50Z</time>
      </trkpt>
      <trkpt lat="43.3095380" lon="-1.8414580">
        <ele>138.0</ele>
        <time>2022-10-29T08:16:51Z</time>
      </trkpt>
      <trkpt lat="43.3095410" lon="-1.8414780">
        <ele>138.2</ele>
        <time>2022-10-29T08:16:52Z</time>
      </trkpt>
      <trkpt lat="43.3095450" lon="-1.8414990">
        <ele>138.4</ele>
        <time>2022-10-29T08:16:53Z</time>
      </trkpt>
      <trkpt lat="43.3095470" lon="-1.8415210">
        <ele>138.6</ele>
        <time>2022-10-29T08:16:54Z</time>
      </trkpt>
      <trkpt lat="43.3095520" lon="-1.8415370">
        <ele>139.0</ele>
        <time>2022-10-29T08:16:55Z</time>
      </trkpt>
      <trkpt lat="43.3095540" lon="-1.8415520">
        <ele>139.0</ele>
        <time>2022-10-29T08:16:56Z</time>
      </trkpt>
      <trkpt lat="43.3095560" lon="-1.8415740">
        <ele>139.4</ele>
        <time>2022-10-29T08:16:57Z</time>
      </trkpt>
      <trkpt lat="43.3095570" lon="-1.8415970">
        <ele>139.6</ele>
        <time>2022-10-29T08:16:58Z</time>
      </trkpt>
      <trkpt lat="43.3095580" lon="-1.8416190">
        <ele>140.2</ele>
        <time>2022-10-29T08:16:59Z</time>
      </trkpt>
      <trkpt lat="43.3095600" lon="-1.8416400">
        <ele>140.6</ele>
        <time>2022-10-29T08:17:00Z</time>
      </trkpt>
      <trkpt lat="43.3095620" lon="-1.8416590">
        <ele>140.8</ele>
        <time>2022-10-29T08:17:01Z</time>
      </trkpt>
      <trkpt lat="43.3095670" lon="-1.8416810">
        <ele>141.0</ele>
        <time>2022-10-29T08:17:02Z</time>
      </trkpt>
      <trkpt lat="43.3095660" lon="-1.8417040">
        <ele>141.2</ele>
        <time>2022-10-29T08:17:03Z</time>
      </trkpt>
      <trkpt lat="43.3095610" lon="-1.8417270">
        <ele>141.6</ele>
        <time>2022-10-29T08:17:04Z</time>
      </trkpt>
      <trkpt lat="43.3095590" lon="-1.8417490">
        <ele>141.8</ele>
        <time>2022-10-29T08:17:05Z</time>
      </trkpt>
      <trkpt lat="43.3095590" lon="-1.8417780">
        <ele>142.2</ele>
        <time>2022-10-29T08:17:06Z</time>
      </trkpt>
      <trkpt lat="43.3095570" lon="-1.8418120">
        <ele>142.4</ele>
        <time>2022-10-29T08:17:07Z</time>
      </trkpt>
      <trkpt lat="43.3095580" lon="-1.8418460">
        <ele>142.8</ele>
        <time>2022-10-29T08:17:08Z</time>
      </trkpt>
      <trkpt lat="43.3095580" lon="-1.8418800">
        <ele>142.8</ele>
        <time>2022-10-29T08:17:09Z</time>
      </trkpt>
      <trkpt lat="43.3095540" lon="-1.8419160">
        <ele>143.2</ele>
        <time>2022-10-29T08:17:10Z</time>
      </trkpt>
      <trkpt lat="43.3095520" lon="-1.8419470">
        <ele>143.6</ele>
        <time>2022-10-29T08:17:11Z</time>
      </trkpt>
      <trkpt lat="43.3095520" lon="-1.8419770">
        <ele>143.8</ele>
        <time>2022-10-29T08:17:12Z</time>
      </trkpt>
      <trkpt lat="43.3095520" lon="-1.8420060">
        <ele>144.2</ele>
        <time>2022-10-29T08:17:13Z</time>
      </trkpt>
      <trkpt lat="43.3095540" lon="-1.8420410">
        <ele>144.4</ele>
        <time>2022-10-29T08:17:14Z</time>
      </trkpt>
      <trkpt lat="43.3095570" lon="-1.8420720">
        <ele>144.6</ele>
        <time>2022-10-29T08:17:15Z</time>
      </trkpt>
      <trkpt lat="43.3095580" lon="-1.8420980">
        <ele>144.8</ele>
        <time>2022-10-29T08:17:16Z</time>
      </trkpt>
      <trkpt lat="43.3095570" lon="-1.8421280">
        <ele>145.2</ele>
        <time>2022-10-29T08:17:17Z</time>
      </trkpt>
      <trkpt lat="43.3095610" lon="-1.8421590">
        <ele>145.4</ele>
        <time>2022-10-29T08:17:18Z</time>
      </trkpt>
      <trkpt lat="43.3095600" lon="-1.8421800">
        <ele>145.8</ele>
        <time>2022-10-29T08:17:19Z</time>
      </trkpt>
      <trkpt lat="43.3095620" lon="-1.8422080">
        <ele>145.8</ele>
        <time>2022-10-29T08:17:20Z</time>
      </trkpt>
      <trkpt lat="43.3095660" lon="-1.8422350">
        <ele>146.2</ele>
        <time>2022-10-29T08:17:21Z</time>
      </trkpt>
      <trkpt lat="43.3095640" lon="-1.8422600">
        <ele>146.2</ele>
        <time>2022-10-29T08:17:22Z</time>
      </trkpt>
      <trkpt lat="43.3095620" lon="-1.8422870">
        <ele>146.4</ele>
        <time>2022-10-29T08:17:23Z</time>
      </trkpt>
      <trkpt lat="43.3095550" lon="-1.8423160">
        <ele>146.6</ele>
        <time>2022-10-29T08:17:24Z</time>
      </trkpt>
      <trkpt lat="43.3095550" lon="-1.8423440">
        <ele>147.0</ele>
        <time>2022-10-29T08:17:25Z</time>
      </trkpt>
      <trkpt lat="43.3095530" lon="-1.8423730">
        <ele>147.4</ele>
        <time>2022-10-29T08:17:26Z</time>
      </trkpt>
      <trkpt lat="43.3095370" lon="-1.8424020">
        <ele>147.6</ele>
        <time>2022-10-29T08:17:27Z</time>
      </trkpt>
      <trkpt lat="43.3095220" lon="-1.8424300">
        <ele>147.8</ele>
        <time>2022-10-29T08:17:28Z</time>
      </trkpt>
      <trkpt lat="43.3095040" lon="-1.8424500">
        <ele>148.0</ele>
        <time>2022-10-29T08:17:29Z</time>
      </trkpt>
      <trkpt lat="43.3094840" lon="-1.8424620">
        <ele>148.6</ele>
        <time>2022-10-29T08:17:30Z</time>
      </trkpt>
      <trkpt lat="43.3094660" lon="-1.8424640">
        <ele>149.0</ele>
        <time>2022-10-29T08:17:31Z</time>
      </trkpt>
      <trkpt lat="43.3094450" lon="-1.8424670">
        <ele>149.2</ele>
        <time>2022-10-29T08:17:32Z</time>
      </trkpt>
      <trkpt lat="43.3094280" lon="-1.8424710">
        <ele>149.4</ele>
        <time>2022-10-29T08:17:33Z</time>
      </trkpt>
      <trkpt lat="43.3094080" lon="-1.8424750">
        <ele>149.6</ele>
        <time>2022-10-29T08:17:34Z</time>
      </trkpt>
      <trkpt lat="43.3093860" lon="-1.8424830">
        <ele>149.8</ele>
        <time>2022-10-29T08:17:35Z</time>
      </trkpt>
      <trkpt lat="43.3093670" lon="-1.8424900">
        <ele>150.0</ele>
        <time>2022-10-29T08:17:36Z</time>
      </trkpt>
      <trkpt lat="43.3093500" lon="-1.8424940">
        <ele>150.2</ele>
        <time>2022-10-29T08:17:37Z</time>
      </trkpt>
      <trkpt lat="43.3093360" lon="-1.8424980">
        <ele>150.4</ele>
        <time>2022-10-29T08:17:38Z</time>
      </trkpt>
      <trkpt lat="43.3093200" lon="-1.8425060">
        <ele>150.6</ele>
        <time>2022-10-29T08:17:39Z</time>
      </trkpt>
      <trkpt lat="43.3093060" lon="-1.8425160">
        <ele>150.8</ele>
        <time>2022-10-29T08:17:40Z</time>
      </trkpt>
      <trkpt lat="43.3092950" lon="-1.8425300">
        <ele>151.4</ele>
        <time>2022-10-29T08:17:41Z</time>
      </trkpt>
      <trkpt lat="43.3092870" lon="-1.8425480">
        <ele>151.8</ele>
        <time>2022-10-29T08:17:42Z</time>
      </trkpt>
      <trkpt lat="43.3092820" lon="-1.8425640">
        <ele>151.8</ele>
        <time>2022-10-29T08:17:43Z</time>
      </trkpt>
      <trkpt lat="43.3092760" lon="-1.8425890">
        <ele>152.0</ele>
        <time>2022-10-29T08:17:44Z</time>
      </trkpt>
      <trkpt lat="43.3092720" lon="-1.8426090">
        <ele>152.2</ele>
        <time>2022-10-29T08:17:45Z</time>
      </trkpt>
      <trkpt lat="43.3092710" lon="-1.8426290">
        <ele>152.4</ele>
        <time>2022-10-29T08:17:46Z</time>
      </trkpt>
      <trkpt lat="43.3092700" lon="-1.8426490">
        <ele>152.4</ele>
        <time>2022-10-29T08:17:47Z</time>
      </trkpt>
      <trkpt lat="43.3092680" lon="-1.8426690">
        <ele>152.6</ele>
        <time>2022-10-29T08:17:48Z</time>
      </trkpt>
      <trkpt lat="43.3092670" lon="-1.8426870">
        <ele>152.6</ele>
        <time>2022-10-29T08:17:49Z</time>
      </trkpt>
      <trkpt lat="43.3092660" lon="-1.8427060">
        <ele>152.8</ele>
        <time>2022-10-29T08:17:50Z</time>
      </trkpt>
      <trkpt lat="43.3092670" lon="-1.8427250">
        <ele>152.8</ele>
        <time>2022-10-29T08:17:51Z</time>
      </trkpt>
      <trkpt lat="43.3092690" lon="-1.8427440">
        <ele>153.0</ele>
        <time>2022-10-29T08:17:52Z</time>
      </trkpt>
      <trkpt lat="43.3092710" lon="-1.8427650">
        <ele>153.2</ele>
        <time>2022-10-29T08:17:53Z</time>
      </trkpt>
      <trkpt lat="43.3092710" lon="-1.8427830">
        <ele>153.4</ele>
        <time>2022-10-29T08:17:54Z</time>
      </trkpt>
      <trkpt lat="43.3092730" lon="-1.8428000">
        <ele>153.6</ele>
        <time>2022-10-29T08:17:55Z</time>
      </trkpt>
      <trkpt lat="43.3092800" lon="-1.8428200">
        <ele>153.6</ele>
        <time>2022-10-29T08:17:56Z</time>
      </trkpt>
      <trkpt lat="43.3092930" lon="-1.8428400">
        <ele>153.8</ele>
        <time>2022-10-29T08:17:57Z</time>
      </trkpt>
      <trkpt lat="43.3093070" lon="-1.8428570">
        <ele>153.8</ele>
        <time>2022-10-29T08:17:58Z</time>
      </trkpt>
      <trkpt lat="43.3093270" lon="-1.8428700">
        <ele>154.2</ele>
        <time>2022-10-29T08:17:59Z</time>
      </trkpt>
      <trkpt lat="43.3093530" lon="-1.8428790">
        <ele>154.4</ele>
        <time>2022-10-29T08:18:00Z</time>
      </trkpt>
      <trkpt lat="43.3093820" lon="-1.8428830">
        <ele>154.6</ele>
        <time>2022-10-29T08:18:01Z</time>
      </trkpt>
      <trkpt lat="43.3094060" lon="-1.8428810">
        <ele>155.0</ele>
        <time>2022-10-29T08:18:02Z</time>
      </trkpt>
      <trkpt lat="43.3094370" lon="-1.8428790">
        <ele>155.0</ele>
        <time>2022-10-29T08:18:03Z</time>
      </trkpt>
      <trkpt lat="43.3094780" lon="-1.8428820">
        <ele>155.2</ele>
        <time>2022-10-29T08:18:04Z</time>
      </trkpt>
      <trkpt lat="43.3095050" lon="-1.8428930">
        <ele>155.2</ele>
        <time>2022-10-29T08:18:05Z</time>
      </trkpt>
      <trkpt lat="43.3095370" lon="-1.8429130">
        <ele>155.2</ele>
        <time>2022-10-29T08:18:06Z</time>
      </trkpt>
      <trkpt lat="43.3095680" lon="-1.8429420">
        <ele>155.2</ele>
        <time>2022-10-29T08:18:07Z</time>
      </trkpt>
      <trkpt lat="43.3095960" lon="-1.8429790">
        <ele>155.2</ele>
        <time>2022-10-29T08:18:08Z</time>
      </trkpt>
      <trkpt lat="43.3096220" lon="-1.8430190">
        <ele>155.2</ele>
        <time>2022-10-29T08:18:09Z</time>
      </trkpt>
      <trkpt lat="43.3096460" lon="-1.8430590">
        <ele>155.4</ele>
        <time>2022-10-29T08:18:10Z</time>
      </trkpt>
      <trkpt lat="43.3096590" lon="-1.8431070">
        <ele>155.4</ele>
        <time>2022-10-29T08:18:11Z</time>
      </trkpt>
      <trkpt lat="43.3096580" lon="-1.8431380">
        <ele>155.2</ele>
        <time>2022-10-29T08:18:12Z</time>
      </trkpt>
      <trkpt lat="43.3096660" lon="-1.8431770">
        <ele>155.2</ele>
        <time>2022-10-29T08:18:13Z</time>
      </trkpt>
      <trkpt lat="43.3096860" lon="-1.8431910">
        <ele>155.2</ele>
        <time>2022-10-29T08:18:14Z</time>
      </trkpt>
      <trkpt lat="43.3097120" lon="-1.8432060">
        <ele>155.2</ele>
        <time>2022-10-29T08:18:15Z</time>
      </trkpt>
      <trkpt lat="43.3097370" lon="-1.8432310">
        <ele>155.2</ele>
        <time>2022-10-29T08:18:16Z</time>
      </trkpt>
      <trkpt lat="43.3097500" lon="-1.8432670">
        <ele>155.4</ele>
        <time>2022-10-29T08:18:17Z</time>
      </trkpt>
      <trkpt lat="43.3097520" lon="-1.8433110">
        <ele>155.4</ele>
        <time>2022-10-29T08:18:18Z</time>
      </trkpt>
      <trkpt lat="43.3097480" lon="-1.8433560">
        <ele>155.4</ele>
        <time>2022-10-29T08:18:19Z</time>
      </trkpt>
      <trkpt lat="43.3097510" lon="-1.8434000">
        <ele>155.6</ele>
        <time>2022-10-29T08:18:20Z</time>
      </trkpt>
      <trkpt lat="43.3097600" lon="-1.8434450">
        <ele>155.4</ele>
        <time>2022-10-29T08:18:21Z</time>
      </trkpt>
      <trkpt lat="43.3097730" lon="-1.8434910">
        <ele>155.6</ele>
        <time>2022-10-29T08:18:22Z</time>
      </trkpt>
      <trkpt lat="43.3098010" lon="-1.8435810">
        <ele>155.8</ele>
        <time>2022-10-29T08:18:24Z</time>
      </trkpt>
      <trkpt lat="43.3098120" lon="-1.8436320">
        <ele>155.8</ele>
        <time>2022-10-29T08:18:25Z</time>
      </trkpt>
      <trkpt lat="43.3098160" lon="-1.8438450">
        <ele>155.8</ele>
        <time>2022-10-29T08:18:29Z</time>
      </trkpt>
      <trkpt lat="43.3098130" lon="-1.8438900">
        <ele>155.6</ele>
        <time>2022-10-29T08:18:30Z</time>
      </trkpt>
      <trkpt lat="43.3098000" lon="-1.8439260">
        <ele>155.6</ele>
        <time>2022-10-29T08:18:31Z</time>
      </trkpt>
      <trkpt lat="43.3097700" lon="-1.8439490">
        <ele>155.4</ele>
        <time>2022-10-29T08:18:32Z</time>
      </trkpt>
      <trkpt lat="43.3097490" lon="-1.8439460">
        <ele>155.2</ele>
        <time>2022-10-29T08:18:33Z</time>
      </trkpt>
      <trkpt lat="43.3097230" lon="-1.8439540">
        <ele>154.8</ele>
        <time>2022-10-29T08:18:34Z</time>
      </trkpt>
      <trkpt lat="43.3097110" lon="-1.8439740">
        <ele>154.4</ele>
        <time>2022-10-29T08:18:35Z</time>
      </trkpt>
      <trkpt lat="43.3097120" lon="-1.8440030">
        <ele>154.2</ele>
        <time>2022-10-29T08:18:36Z</time>
      </trkpt>
      <trkpt lat="43.3097220" lon="-1.8440410">
        <ele>153.4</ele>
        <time>2022-10-29T08:18:37Z</time>
      </trkpt>
      <trkpt lat="43.3097400" lon="-1.8441040">
        <ele>153.0</ele>
        <time>2022-10-29T08:18:38Z</time>
      </trkpt>
      <trkpt lat="43.3097560" lon="-1.8441820">
        <ele>152.8</ele>
        <time>2022-10-29T08:18:39Z</time>
      </trkpt>
      <trkpt lat="43.3097740" lon="-1.8442710">
        <ele>152.6</ele>
        <time>2022-10-29T08:18:40Z</time>
      </trkpt>
      <trkpt lat="43.3097890" lon="-1.8443660">
        <ele>152.0</ele>
        <time>2022-10-29T08:18:41Z</time>
      </trkpt>
      <trkpt lat="43.3097990" lon="-1.8444640">
        <ele>151.2</ele>
        <time>2022-10-29T08:18:42Z</time>
      </trkpt>
      <trkpt lat="43.3098100" lon="-1.8445690">
        <ele>151.0</ele>
        <time>2022-10-29T08:18:43Z</time>
      </trkpt>
      <trkpt lat="43.3098350" lon="-1.8446900">
        <ele>150.6</ele>
        <time>2022-10-29T08:18:44Z</time>
      </trkpt>
      <trkpt lat="43.3099060" lon="-1.8449080">
        <ele>149.6</ele>
        <time>2022-10-29T08:18:46Z</time>
      </trkpt>
      <trkpt lat="43.3099380" lon="-1.8450130">
        <ele>149.2</ele>
        <time>2022-10-29T08:18:47Z</time>
      </trkpt>
      <trkpt lat="43.3099580" lon="-1.8451150">
        <ele>148.6</ele>
        <time>2022-10-29T08:18:48Z</time>
      </trkpt>
      <trkpt lat="43.3099600" lon="-1.8452240">
        <ele>148.2</ele>
        <time>2022-10-29T08:18:49Z</time>
      </trkpt>
      <trkpt lat="43.3099470" lon="-1.8453280">
        <ele>147.4</ele>
        <time>2022-10-29T08:18:50Z</time>
      </trkpt>
      <trkpt lat="43.3099090" lon="-1.8454360">
        <ele>147.0</ele>
        <time>2022-10-29T08:18:51Z</time>
      </trkpt>
      <trkpt lat="43.3098530" lon="-1.8455440">
        <ele>146.4</ele>
        <time>2022-10-29T08:18:52Z</time>
      </trkpt>
      <trkpt lat="43.3098020" lon="-1.8456510">
        <ele>145.6</ele>
        <time>2022-10-29T08:18:53Z</time>
      </trkpt>
      <trkpt lat="43.3097660" lon="-1.8457620">
        <ele>145.2</ele>
        <time>2022-10-29T08:18:54Z</time>
      </trkpt>
      <trkpt lat="43.3097410" lon="-1.8458810">
        <ele>144.4</ele>
        <time>2022-10-29T08:18:55Z</time>
      </trkpt>
      <trkpt lat="43.3097200" lon="-1.8460070">
        <ele>144.2</ele>
        <time>2022-10-29T08:18:56Z</time>
      </trkpt>
      <trkpt lat="43.3097010" lon="-1.8461380">
        <ele>143.0</ele>
        <time>2022-10-29T08:18:57Z</time>
      </trkpt>
      <trkpt lat="43.3096670" lon="-1.8464200">
        <ele>141.2</ele>
        <time>2022-10-29T08:18:59Z</time>
      </trkpt>
      <trkpt lat="43.3095970" lon="-1.8467640">
        <ele>140.0</ele>
        <time>2022-10-29T08:19:01Z</time>
      </trkpt>
      <trkpt lat="43.3095280" lon="-1.8471100">
        <ele>138.2</ele>
        <time>2022-10-29T08:19:03Z</time>
      </trkpt>
      <trkpt lat="43.3094990" lon="-1.8472870">
        <ele>136.8</ele>
        <time>2022-10-29T08:19:04Z</time>
      </trkpt>
      <trkpt lat="43.3094590" lon="-1.8476230">
        <ele>134.8</ele>
        <time>2022-10-29T08:19:06Z</time>
      </trkpt>
      <trkpt lat="43.3094180" lon="-1.8479090">
        <ele>134.2</ele>
        <time>2022-10-29T08:19:08Z</time>
      </trkpt>
      <trkpt lat="43.3093860" lon="-1.8480380">
        <ele>133.8</ele>
        <time>2022-10-29T08:19:09Z</time>
      </trkpt>
      <trkpt lat="43.3093430" lon="-1.8481530">
        <ele>131.4</ele>
        <time>2022-10-29T08:19:10Z</time>
      </trkpt>
      <trkpt lat="43.3092970" lon="-1.8482640">
        <ele>130.2</ele>
        <time>2022-10-29T08:19:11Z</time>
      </trkpt>
      <trkpt lat="43.3092500" lon="-1.8483690">
        <ele>128.0</ele>
        <time>2022-10-29T08:19:12Z</time>
      </trkpt>
      <trkpt lat="43.3092010" lon="-1.8484740">
        <ele>126.6</ele>
        <time>2022-10-29T08:19:13Z</time>
      </trkpt>
      <trkpt lat="43.3091540" lon="-1.8485830">
        <ele>126.0</ele>
        <time>2022-10-29T08:19:14Z</time>
      </trkpt>
      <trkpt lat="43.3091080" lon="-1.8487000">
        <ele>124.4</ele>
        <time>2022-10-29T08:19:15Z</time>
      </trkpt>
      <trkpt lat="43.3090170" lon="-1.8489290">
        <ele>122.6</ele>
        <time>2022-10-29T08:19:17Z</time>
      </trkpt>
      <trkpt lat="43.3089270" lon="-1.8491520">
        <ele>121.4</ele>
        <time>2022-10-29T08:19:19Z</time>
      </trkpt>
      <trkpt lat="43.3088870" lon="-1.8492620">
        <ele>120.8</ele>
        <time>2022-10-29T08:19:20Z</time>
      </trkpt>
      <trkpt lat="43.3088590" lon="-1.8493720">
        <ele>120.2</ele>
        <time>2022-10-29T08:19:21Z</time>
      </trkpt>
      <trkpt lat="43.3088400" lon="-1.8494800">
        <ele>120.0</ele>
        <time>2022-10-29T08:19:22Z</time>
      </trkpt>
      <trkpt lat="43.3088330" lon="-1.8495880">
        <ele>119.0</ele>
        <time>2022-10-29T08:19:23Z</time>
      </trkpt>
      <trkpt lat="43.3088380" lon="-1.8496960">
        <ele>118.2</ele>
        <time>2022-10-29T08:19:24Z</time>
      </trkpt>
      <trkpt lat="43.3088530" lon="-1.8498000">
        <ele>118.0</ele>
        <time>2022-10-29T08:19:25Z</time>
      </trkpt>
      <trkpt lat="43.3088740" lon="-1.8499090">
        <ele>117.4</ele>
        <time>2022-10-29T08:19:26Z</time>
      </trkpt>
      <trkpt lat="43.3088980" lon="-1.8500160">
        <ele>117.2</ele>
        <time>2022-10-29T08:19:27Z</time>
      </trkpt>
      <trkpt lat="43.3089530" lon="-1.8502240">
        <ele>116.8</ele>
        <time>2022-10-29T08:19:29Z</time>
      </trkpt>
      <trkpt lat="43.3089820" lon="-1.8503250">
        <ele>116.0</ele>
        <time>2022-10-29T08:19:30Z</time>
      </trkpt>
      <trkpt lat="43.3090090" lon="-1.8504250">
        <ele>115.6</ele>
        <time>2022-10-29T08:19:31Z</time>
      </trkpt>
      <trkpt lat="43.3090280" lon="-1.8505200">
        <ele>114.8</ele>
        <time>2022-10-29T08:19:32Z</time>
      </trkpt>
      <trkpt lat="43.3090390" lon="-1.8506120">
        <ele>114.6</ele>
        <time>2022-10-29T08:19:33Z</time>
      </trkpt>
      <trkpt lat="43.3090430" lon="-1.8507010">
        <ele>114.4</ele>
        <time>2022-10-29T08:19:34Z</time>
      </trkpt>
      <trkpt lat="43.3090400" lon="-1.8507890">
        <ele>113.8</ele>
        <time>2022-10-29T08:19:35Z</time>
      </trkpt>
      <trkpt lat="43.3090250" lon="-1.8508790">
        <ele>113.6</ele>
        <time>2022-10-29T08:19:36Z</time>
      </trkpt>
      <trkpt lat="43.3090000" lon="-1.8509730">
        <ele>113.0</ele>
        <time>2022-10-29T08:19:37Z</time>
      </trkpt>
      <trkpt lat="43.3089740" lon="-1.8510720">
        <ele>113.0</ele>
        <time>2022-10-29T08:19:38Z</time>
      </trkpt>
      <trkpt lat="43.3089550" lon="-1.8511720">
        <ele>112.2</ele>
        <time>2022-10-29T08:19:39Z</time>
      </trkpt>
      <trkpt lat="43.3089450" lon="-1.8512620">
        <ele>112.0</ele>
        <time>2022-10-29T08:19:40Z</time>
      </trkpt>
      <trkpt lat="43.3089510" lon="-1.8513480">
        <ele>111.6</ele>
        <time>2022-10-29T08:19:41Z</time>
      </trkpt>
      <trkpt lat="43.3089690" lon="-1.8514290">
        <ele>111.4</ele>
        <time>2022-10-29T08:19:42Z</time>
      </trkpt>
      <trkpt lat="43.3089900" lon="-1.8515090">
        <ele>111.0</ele>
        <time>2022-10-29T08:19:43Z</time>
      </trkpt>
      <trkpt lat="43.3090100" lon="-1.8515890">
        <ele>110.8</ele>
        <time>2022-10-29T08:19:44Z</time>
      </trkpt>
      <trkpt lat="43.3090220" lon="-1.8516710">
        <ele>110.6</ele>
        <time>2022-10-29T08:19:45Z</time>
      </trkpt>
      <trkpt lat="43.3090170" lon="-1.8517530">
        <ele>110.4</ele>
        <time>2022-10-29T08:19:46Z</time>
      </trkpt>
      <trkpt lat="43.3089870" lon="-1.8518340">
        <ele>110.0</ele>
        <time>2022-10-29T08:19:47Z</time>
      </trkpt>
      <trkpt lat="43.3089490" lon="-1.8518970">
        <ele>109.6</ele>
        <time>2022-10-29T08:19:48Z</time>
      </trkpt>
      <trkpt lat="43.3089020" lon="-1.8519450">
        <ele>109.4</ele>
        <time>2022-10-29T08:19:49Z</time>
      </trkpt>
      <trkpt lat="43.3088530" lon="-1.8519790">
        <ele>109.2</ele>
        <time>2022-10-29T08:19:50Z</time>
      </trkpt>
      <trkpt lat="43.3088090" lon="-1.8520080">
        <ele>109.0</ele>
        <time>2022-10-29T08:19:51Z</time>
      </trkpt>
      <trkpt lat="43.3087710" lon="-1.8520370">
        <ele>108.8</ele>
        <time>2022-10-29T08:19:52Z</time>
      </trkpt>
      <trkpt lat="43.3087400" lon="-1.8520670">
        <ele>108.2</ele>
        <time>2022-10-29T08:19:53Z</time>
      </trkpt>
      <trkpt lat="43.3087120" lon="-1.8520960">
        <ele>108.0</ele>
        <time>2022-10-29T08:19:54Z</time>
      </trkpt>
      <trkpt lat="43.3086920" lon="-1.8521160">
        <ele>107.4</ele>
        <time>2022-10-29T08:19:55Z</time>
      </trkpt>
      <trkpt lat="43.3086810" lon="-1.8521370">
        <ele>107.2</ele>
        <time>2022-10-29T08:19:56Z</time>
      </trkpt>
      <trkpt lat="43.3086750" lon="-1.8521560">
        <ele>107.2</ele>
        <time>2022-10-29T08:19:57Z</time>
      </trkpt>
      <trkpt lat="43.3086810" lon="-1.8521720">
        <ele>107.0</ele>
        <time>2022-10-29T08:19:58Z</time>
      </trkpt>
      <trkpt lat="43.3086970" lon="-1.8521870">
        <ele>106.8</ele>
        <time>2022-10-29T08:19:59Z</time>
      </trkpt>
      <trkpt lat="43.3087230" lon="-1.8522030">
        <ele>106.8</ele>
        <time>2022-10-29T08:20:00Z</time>
      </trkpt>
      <trkpt lat="43.3087860" lon="-1.8522300">
        <ele>106.6</ele>
        <time>2022-10-29T08:20:02Z</time>
      </trkpt>
      <trkpt lat="43.3088240" lon="-1.8522400">
        <ele>106.4</ele>
        <time>2022-10-29T08:20:03Z</time>
      </trkpt>
      <trkpt lat="43.3088670" lon="-1.8522510">
        <ele>106.2</ele>
        <time>2022-10-29T08:20:04Z</time>
      </trkpt>
      <trkpt lat="43.3089270" lon="-1.8522800">
        <ele>106.2</ele>
        <time>2022-10-29T08:20:06Z</time>
      </trkpt>
      <trkpt lat="43.3089530" lon="-1.8523000">
        <ele>106.2</ele>
        <time>2022-10-29T08:20:07Z</time>
      </trkpt>
      <trkpt lat="43.3089800" lon="-1.8523050">
        <ele>106.0</ele>
        <time>2022-10-29T08:20:08Z</time>
      </trkpt>
      <trkpt lat="43.3090090" lon="-1.8523100">
        <ele>106.0</ele>
        <time>2022-10-29T08:20:09Z</time>
      </trkpt>
      <trkpt lat="43.3091050" lon="-1.8523020">
        <ele>105.8</ele>
        <time>2022-10-29T08:20:13Z</time>
      </trkpt>
      <trkpt lat="43.3091270" lon="-1.8523020">
        <ele>105.8</ele>
        <time>2022-10-29T08:20:14Z</time>
      </trkpt>
      <trkpt lat="43.3091470" lon="-1.8523080">
        <ele>105.8</ele>
        <time>2022-10-29T08:20:15Z</time>
      </trkpt>
      <trkpt lat="43.3091640" lon="-1.8523000">
        <ele>105.8</ele>
        <time>2022-10-29T08:20:16Z</time>
      </trkpt>
      <trkpt lat="43.3091850" lon="-1.8522990">
        <ele>106.0</ele>
        <time>2022-10-29T08:20:17Z</time>
      </trkpt>
      <trkpt lat="43.3092060" lon="-1.8523050">
        <ele>106.2</ele>
        <time>2022-10-29T08:20:18Z</time>
      </trkpt>
      <trkpt lat="43.3092300" lon="-1.8523050">
        <ele>106.2</ele>
        <time>2022-10-29T08:20:19Z</time>
      </trkpt>
      <trkpt lat="43.3092530" lon="-1.8523000">
        <ele>106.0</ele>
        <time>2022-10-29T08:20:20Z</time>
      </trkpt>
      <trkpt lat="43.3092750" lon="-1.8522960">
        <ele>106.0</ele>
        <time>2022-10-29T08:20:21Z</time>
      </trkpt>
      <trkpt lat="43.3093990" lon="-1.8522830">
        <ele>107.0</ele>
        <time>2022-10-29T08:20:27Z</time>
      </trkpt>
      <trkpt lat="43.3094350" lon="-1.8522750">
        <ele>107.4</ele>
        <time>2022-10-29T08:20:29Z</time>
      </trkpt>
      <trkpt lat="43.3094420" lon="-1.8522690">
        <ele>107.8</ele>
        <time>2022-10-29T08:20:30Z</time>
      </trkpt>
      <trkpt lat="43.3094440" lon="-1.8522650">
        <ele>107.8</ele>
        <time>2022-10-29T08:20:31Z</time>
      </trkpt>
      <trkpt lat="43.3094440" lon="-1.8522650">
        <ele>108.0</ele>
        <time>2022-10-29T08:20:32Z</time>
      </trkpt>
      <trkpt lat="43.3094180" lon="-1.8522660">
        <ele>108.2</ele>
        <time>2022-10-29T08:20:35Z</time>
      </trkpt>
      <trkpt lat="43.3093800" lon="-1.8522820">
        <ele>108.2</ele>
        <time>2022-10-29T08:20:37Z</time>
      </trkpt>
      <trkpt lat="43.3093580" lon="-1.8522880">
        <ele>108.2</ele>
        <time>2022-10-29T08:20:38Z</time>
      </trkpt>
      <trkpt lat="43.3092730" lon="-1.8523000">
        <ele>108.0</ele>
        <time>2022-10-29T08:20:42Z</time>
      </trkpt>
      <trkpt lat="43.3092520" lon="-1.8523000">
        <ele>108.0</ele>
        <time>2022-10-29T08:20:43Z</time>
      </trkpt>
      <trkpt lat="43.3092280" lon="-1.8523000">
        <ele>107.8</ele>
        <time>2022-10-29T08:20:44Z</time>
      </trkpt>
      <trkpt lat="43.3092020" lon="-1.8523000">
        <ele>107.6</ele>
        <time>2022-10-29T08:20:45Z</time>
      </trkpt>
      <trkpt lat="43.3090800" lon="-1.8523000">
        <ele>107.4</ele>
        <time>2022-10-29T08:20:49Z</time>
      </trkpt>
      <trkpt lat="43.3090480" lon="-1.8523020">
        <ele>107.2</ele>
        <time>2022-10-29T08:20:50Z</time>
      </trkpt>
      <trkpt lat="43.3089880" lon="-1.8523060">
        <ele>106.8</ele>
        <time>2022-10-29T08:20:52Z</time>
      </trkpt>
      <trkpt lat="43.3089620" lon="-1.8523050">
        <ele>106.4</ele>
        <time>2022-10-29T08:20:53Z</time>
      </trkpt>
      <trkpt lat="43.3089400" lon="-1.8523000">
        <ele>106.4</ele>
        <time>2022-10-29T08:20:54Z</time>
      </trkpt>
      <trkpt lat="43.3089150" lon="-1.8522910">
        <ele>106.2</ele>
        <time>2022-10-29T08:20:55Z</time>
      </trkpt>
      <trkpt lat="43.3088870" lon="-1.8522840">
        <ele>106.0</ele>
        <time>2022-10-29T08:20:56Z</time>
      </trkpt>
      <trkpt lat="43.3088700" lon="-1.8522850">
        <ele>106.0</ele>
        <time>2022-10-29T08:20:57Z</time>
      </trkpt>
      <trkpt lat="43.3088470" lon="-1.8523200">
        <ele>105.8</ele>
        <time>2022-10-29T08:20:59Z</time>
      </trkpt>
      <trkpt lat="43.3088480" lon="-1.8523580">
        <ele>105.6</ele>
        <time>2022-10-29T08:21:00Z</time>
      </trkpt>
      <trkpt lat="43.3088520" lon="-1.8524710">
        <ele>105.4</ele>
        <time>2022-10-29T08:21:03Z</time>
      </trkpt>
      <trkpt lat="43.3088630" lon="-1.8525120">
        <ele>105.0</ele>
        <time>2022-10-29T08:21:04Z</time>
      </trkpt>
      <trkpt lat="43.3088950" lon="-1.8525870">
        <ele>104.8</ele>
        <time>2022-10-29T08:21:06Z</time>
      </trkpt>
      <trkpt lat="43.3089050" lon="-1.8526390">
        <ele>104.6</ele>
        <time>2022-10-29T08:21:07Z</time>
      </trkpt>
      <trkpt lat="43.3089080" lon="-1.8526950">
        <ele>104.6</ele>
        <time>2022-10-29T08:21:08Z</time>
      </trkpt>
      <trkpt lat="43.3089240" lon="-1.8527500">
        <ele>104.6</ele>
        <time>2022-10-29T08:21:09Z</time>
      </trkpt>
      <trkpt lat="43.3089400" lon="-1.8529850">
        <ele>104.2</ele>
        <time>2022-10-29T08:21:13Z</time>
      </trkpt>
      <trkpt lat="43.3089910" lon="-1.8531260">
        <ele>104.0</ele>
        <time>2022-10-29T08:21:16Z</time>
      </trkpt>
      <trkpt lat="43.3090000" lon="-1.8533220">
        <ele>104.0</ele>
        <time>2022-10-29T08:21:20Z</time>
      </trkpt>
      <trkpt lat="43.3090070" lon="-1.8533770">
        <ele>103.8</ele>
        <time>2022-10-29T08:21:21Z</time>
      </trkpt>
      <trkpt lat="43.3090190" lon="-1.8534330">
        <ele>103.4</ele>
        <time>2022-10-29T08:21:22Z</time>
      </trkpt>
      <trkpt lat="43.3090410" lon="-1.8535470">
        <ele>103.4</ele>
        <time>2022-10-29T08:21:24Z</time>
      </trkpt>
      <trkpt lat="43.3090560" lon="-1.8536030">
        <ele>103.4</ele>
        <time>2022-10-29T08:21:25Z</time>
      </trkpt>
      <trkpt lat="43.3091000" lon="-1.8537660">
        <ele>103.2</ele>
        <time>2022-10-29T08:21:28Z</time>
      </trkpt>
      <trkpt lat="43.3090950" lon="-1.8538410">
        <ele>102.8</ele>
        <time>2022-10-29T08:21:30Z</time>
      </trkpt>
      <trkpt lat="43.3090890" lon="-1.8538700">
        <ele>102.6</ele>
        <time>2022-10-29T08:21:31Z</time>
      </trkpt>
      <trkpt lat="43.3090760" lon="-1.8539020">
        <ele>102.4</ele>
        <time>2022-10-29T08:21:32Z</time>
      </trkpt>
      <trkpt lat="43.3090640" lon="-1.8539440">
        <ele>102.2</ele>
        <time>2022-10-29T08:21:33Z</time>
      </trkpt>
      <trkpt lat="43.3090660" lon="-1.8539890">
        <ele>102.0</ele>
        <time>2022-10-29T08:21:34Z</time>
      </trkpt>
      <trkpt lat="43.3090740" lon="-1.8540380">
        <ele>101.6</ele>
        <time>2022-10-29T08:21:36Z</time>
      </trkpt>
      <trkpt lat="43.3090740" lon="-1.8540480">
        <ele>101.4</ele>
        <time>2022-10-29T08:21:37Z</time>
      </trkpt>
      <trkpt lat="43.3090740" lon="-1.8540480">
        <ele>101.4</ele>
        <time>2022-10-29T08:21:38Z</time>
      </trkpt>
      <trkpt lat="43.3090740" lon="-1.8540480">
        <ele>101.4</ele>
        <time>2022-10-29T08:21:41Z</time>
      </trkpt>
      <trkpt lat="43.3090740" lon="-1.8540480">
        <ele>101.2</ele>
        <time>2022-10-29T08:21:46Z</time>
      </trkpt>
      <trkpt lat="43.3090740" lon="-1.8540480">
        <ele>101.2</ele>
        <time>2022-10-29T08:21:47Z</time>
      </trkpt>
      <trkpt lat="43.3090740" lon="-1.8540480">
        <ele>101.2</ele>
        <time>2022-10-29T08:21:49Z</time>
      </trkpt>
      <trkpt lat="43.3090720" lon="-1.8540800">
        <ele>101.2</ele>
        <time>2022-10-29T08:21:53Z</time>
      </trkpt>
      <trkpt lat="43.3090740" lon="-1.8541470">
        <ele>101.2</ele>
        <time>2022-10-29T08:21:55Z</time>
      </trkpt>
      <trkpt lat="43.3090660" lon="-1.8542700">
        <ele>101.2</ele>
        <time>2022-10-29T08:21:58Z</time>
      </trkpt>
      <trkpt lat="43.3090680" lon="-1.8543530">
        <ele>101.2</ele>
        <time>2022-10-29T08:22:00Z</time>
      </trkpt>
      <trkpt lat="43.3090730" lon="-1.8544070">
        <ele>101.2</ele>
        <time>2022-10-29T08:22:01Z</time>
      </trkpt>
      <trkpt lat="43.3091070" lon="-1.8545890">
        <ele>101.2</ele>
        <time>2022-10-29T08:22:04Z</time>
      </trkpt>
      <trkpt lat="43.3091120" lon="-1.8546470">
        <ele>101.2</ele>
        <time>2022-10-29T08:22:05Z</time>
      </trkpt>
      <trkpt lat="43.3091220" lon="-1.8547020">
        <ele>101.2</ele>
        <time>2022-10-29T08:22:06Z</time>
      </trkpt>
      <trkpt lat="43.3091330" lon="-1.8547530">
        <ele>101.2</ele>
        <time>2022-10-29T08:22:07Z</time>
      </trkpt>
      <trkpt lat="43.3091400" lon="-1.8548070">
        <ele>101.2</ele>
        <time>2022-10-29T08:22:08Z</time>
      </trkpt>
      <trkpt lat="43.3091520" lon="-1.8548680">
        <ele>101.2</ele>
        <time>2022-10-29T08:22:09Z</time>
      </trkpt>
      <trkpt lat="43.3091670" lon="-1.8549320">
        <ele>101.0</ele>
        <time>2022-10-29T08:22:10Z</time>
      </trkpt>
      <trkpt lat="43.3092570" lon="-1.8552400">
        <ele>101.2</ele>
        <time>2022-10-29T08:22:15Z</time>
      </trkpt>
      <trkpt lat="43.3093130" lon="-1.8553970">
        <ele>101.0</ele>
        <time>2022-10-29T08:22:18Z</time>
      </trkpt>
      <trkpt lat="43.3093230" lon="-1.8554380">
        <ele>101.0</ele>
        <time>2022-10-29T08:22:19Z</time>
      </trkpt>
      <trkpt lat="43.3093260" lon="-1.8554890">
        <ele>101.0</ele>
        <time>2022-10-29T08:22:20Z</time>
      </trkpt>
      <trkpt lat="43.3093250" lon="-1.8555320">
        <ele>101.2</ele>
        <time>2022-10-29T08:22:21Z</time>
      </trkpt>
      <trkpt lat="43.3093180" lon="-1.8555910">
        <ele>101.0</ele>
        <time>2022-10-29T08:22:22Z</time>
      </trkpt>
      <trkpt lat="43.3093180" lon="-1.8556640">
        <ele>101.0</ele>
        <time>2022-10-29T08:22:23Z</time>
      </trkpt>
      <trkpt lat="43.3093280" lon="-1.8558320">
        <ele>101.2</ele>
        <time>2022-10-29T08:22:26Z</time>
      </trkpt>
      <trkpt lat="43.3093300" lon="-1.8558820">
        <ele>101.2</ele>
        <time>2022-10-29T08:22:27Z</time>
      </trkpt>
      <trkpt lat="43.3093320" lon="-1.8559270">
        <ele>101.2</ele>
        <time>2022-10-29T08:22:28Z</time>
      </trkpt>
      <trkpt lat="43.3093280" lon="-1.8559740">
        <ele>101.2</ele>
        <time>2022-10-29T08:22:29Z</time>
      </trkpt>
      <trkpt lat="43.3093270" lon="-1.8560170">
        <ele>101.2</ele>
        <time>2022-10-29T08:22:30Z</time>
      </trkpt>
      <trkpt lat="43.3093350" lon="-1.8560570">
        <ele>101.2</ele>
        <time>2022-10-29T08:22:31Z</time>
      </trkpt>
      <trkpt lat="43.3093410" lon="-1.8560990">
        <ele>101.4</ele>
        <time>2022-10-29T08:22:32Z</time>
      </trkpt>
      <trkpt lat="43.3093440" lon="-1.8561330">
        <ele>101.8</ele>
        <time>2022-10-29T08:22:33Z</time>
      </trkpt>
      <trkpt lat="43.3093370" lon="-1.8561690">
        <ele>101.8</ele>
        <time>2022-10-29T08:22:34Z</time>
      </trkpt>
      <trkpt lat="43.3093430" lon="-1.8562030">
        <ele>102.0</ele>
        <time>2022-10-29T08:22:35Z</time>
      </trkpt>
      <trkpt lat="43.3093410" lon="-1.8562440">
        <ele>102.2</ele>
        <time>2022-10-29T08:22:36Z</time>
      </trkpt>
      <trkpt lat="43.3093360" lon="-1.8562790">
        <ele>102.4</ele>
        <time>2022-10-29T08:22:37Z</time>
      </trkpt>
      <trkpt lat="43.3093330" lon="-1.8563290">
        <ele>102.8</ele>
        <time>2022-10-29T08:22:38Z</time>
      </trkpt>
      <trkpt lat="43.3093390" lon="-1.8563790">
        <ele>103.2</ele>
        <time>2022-10-29T08:22:39Z</time>
      </trkpt>
      <trkpt lat="43.3093410" lon="-1.8564200">
        <ele>103.4</ele>
        <time>2022-10-29T08:22:40Z</time>
      </trkpt>
      <trkpt lat="43.3093500" lon="-1.8564810">
        <ele>104.8</ele>
        <time>2022-10-29T08:22:42Z</time>
      </trkpt>
      <trkpt lat="43.3093530" lon="-1.8565330">
        <ele>105.0</ele>
        <time>2022-10-29T08:22:43Z</time>
      </trkpt>
      <trkpt lat="43.3093470" lon="-1.8566120">
        <ele>105.2</ele>
        <time>2022-10-29T08:22:45Z</time>
      </trkpt>
      <trkpt lat="43.3093410" lon="-1.8566510">
        <ele>105.4</ele>
        <time>2022-10-29T08:22:46Z</time>
      </trkpt>
      <trkpt lat="43.3093370" lon="-1.8566980">
        <ele>105.4</ele>
        <time>2022-10-29T08:22:47Z</time>
      </trkpt>
      <trkpt lat="43.3093390" lon="-1.8567440">
        <ele>105.4</ele>
        <time>2022-10-29T08:22:48Z</time>
      </trkpt>
      <trkpt lat="43.3093310" lon="-1.8567960">
        <ele>105.4</ele>
        <time>2022-10-29T08:22:49Z</time>
      </trkpt>
      <trkpt lat="43.3093240" lon="-1.8568500">
        <ele>105.4</ele>
        <time>2022-10-29T08:22:50Z</time>
      </trkpt>
      <trkpt lat="43.3093200" lon="-1.8568920">
        <ele>105.4</ele>
        <time>2022-10-29T08:22:51Z</time>
      </trkpt>
      <trkpt lat="43.3093180" lon="-1.8569330">
        <ele>105.4</ele>
        <time>2022-10-29T08:22:52Z</time>
      </trkpt>
      <trkpt lat="43.3093170" lon="-1.8569670">
        <ele>105.4</ele>
        <time>2022-10-29T08:22:53Z</time>
      </trkpt>
      <trkpt lat="43.3093190" lon="-1.8570010">
        <ele>105.6</ele>
        <time>2022-10-29T08:22:54Z</time>
      </trkpt>
      <trkpt lat="43.3093210" lon="-1.8570370">
        <ele>105.6</ele>
        <time>2022-10-29T08:22:55Z</time>
      </trkpt>
      <trkpt lat="43.3093230" lon="-1.8570690">
        <ele>105.6</ele>
        <time>2022-10-29T08:22:56Z</time>
      </trkpt>
      <trkpt lat="43.3093250" lon="-1.8571040">
        <ele>105.8</ele>
        <time>2022-10-29T08:22:57Z</time>
      </trkpt>
      <trkpt lat="43.3093290" lon="-1.8571410">
        <ele>105.8</ele>
        <time>2022-10-29T08:22:58Z</time>
      </trkpt>
      <trkpt lat="43.3093370" lon="-1.8571790">
        <ele>105.8</ele>
        <time>2022-10-29T08:22:59Z</time>
      </trkpt>
      <trkpt lat="43.3093480" lon="-1.8572170">
        <ele>106.0</ele>
        <time>2022-10-29T08:23:00Z</time>
      </trkpt>
      <trkpt lat="43.3093610" lon="-1.8572530">
        <ele>106.0</ele>
        <time>2022-10-29T08:23:01Z</time>
      </trkpt>
      <trkpt lat="43.3093740" lon="-1.8572910">
        <ele>106.4</ele>
        <time>2022-10-29T08:23:02Z</time>
      </trkpt>
      <trkpt lat="43.3093880" lon="-1.8573310">
        <ele>106.4</ele>
        <time>2022-10-29T08:23:03Z</time>
      </trkpt>
      <trkpt lat="43.3094020" lon="-1.8573750">
        <ele>106.6</ele>
        <time>2022-10-29T08:23:04Z</time>
      </trkpt>
      <trkpt lat="43.3094160" lon="-1.8574280">
        <ele>106.6</ele>
        <time>2022-10-29T08:23:05Z</time>
      </trkpt>
      <trkpt lat="43.3094340" lon="-1.8574880">
        <ele>106.6</ele>
        <time>2022-10-29T08:23:06Z</time>
      </trkpt>
      <trkpt lat="43.3094550" lon="-1.8575520">
        <ele>106.4</ele>
        <time>2022-10-29T08:23:07Z</time>
      </trkpt>
      <trkpt lat="43.3094800" lon="-1.8576190">
        <ele>106.2</ele>
        <time>2022-10-29T08:23:08Z</time>
      </trkpt>
      <trkpt lat="43.3095060" lon="-1.8576920">
        <ele>106.2</ele>
        <time>2022-10-29T08:23:09Z</time>
      </trkpt>
      <trkpt lat="43.3095270" lon="-1.8577530">
        <ele>106.2</ele>
        <time>2022-10-29T08:23:10Z</time>
      </trkpt>
      <trkpt lat="43.3096450" lon="-1.8580670">
        <ele>105.6</ele>
        <time>2022-10-29T08:23:14Z</time>
      </trkpt>
      <trkpt lat="43.3097040" lon="-1.8582290">
        <ele>105.2</ele>
        <time>2022-10-29T08:23:16Z</time>
      </trkpt>
      <trkpt lat="43.3097550" lon="-1.8584110">
        <ele>104.6</ele>
        <time>2022-10-29T08:23:18Z</time>
      </trkpt>
      <trkpt lat="43.3097760" lon="-1.8585130">
        <ele>104.2</ele>
        <time>2022-10-29T08:23:19Z</time>
      </trkpt>
      <trkpt lat="43.3098180" lon="-1.8587700">
        <ele>103.6</ele>
        <time>2022-10-29T08:23:21Z</time>
      </trkpt>
      <trkpt lat="43.3098420" lon="-1.8589960">
        <ele>102.8</ele>
        <time>2022-10-29T08:23:23Z</time>
      </trkpt>
      <trkpt lat="43.3098680" lon="-1.8591440">
        <ele>102.4</ele>
        <time>2022-10-29T08:23:24Z</time>
      </trkpt>
      <trkpt lat="43.3099580" lon="-1.8593480">
        <ele>100.4</ele>
        <time>2022-10-29T08:23:26Z</time>
      </trkpt>
      <trkpt lat="43.3100100" lon="-1.8594050">
        <ele>100.0</ele>
        <time>2022-10-29T08:23:27Z</time>
      </trkpt>
      <trkpt lat="43.3100870" lon="-1.8594820">
        <ele>99.2</ele>
        <time>2022-10-29T08:23:28Z</time>
      </trkpt>
      <trkpt lat="43.3101460" lon="-1.8595500">
        <ele>99.0</ele>
        <time>2022-10-29T08:23:29Z</time>
      </trkpt>
      <trkpt lat="43.3102010" lon="-1.8596160">
        <ele>98.4</ele>
        <time>2022-10-29T08:23:30Z</time>
      </trkpt>
      <trkpt lat="43.3102510" lon="-1.8596780">
        <ele>98.2</ele>
        <time>2022-10-29T08:23:31Z</time>
      </trkpt>
      <trkpt lat="43.3103020" lon="-1.8597360">
        <ele>97.8</ele>
        <time>2022-10-29T08:23:32Z</time>
      </trkpt>
      <trkpt lat="43.3103490" lon="-1.8597910">
        <ele>97.6</ele>
        <time>2022-10-29T08:23:33Z</time>
      </trkpt>
      <trkpt lat="43.3103910" lon="-1.8598420">
        <ele>97.4</ele>
        <time>2022-10-29T08:23:34Z</time>
      </trkpt>
      <trkpt lat="43.3104290" lon="-1.8598850">
        <ele>97.4</ele>
        <time>2022-10-29T08:23:35Z</time>
      </trkpt>
      <trkpt lat="43.3104620" lon="-1.8599230">
        <ele>97.4</ele>
        <time>2022-10-29T08:23:36Z</time>
      </trkpt>
      <trkpt lat="43.3104950" lon="-1.8599640">
        <ele>97.4</ele>
        <time>2022-10-29T08:23:37Z</time>
      </trkpt>
      <trkpt lat="43.3105290" lon="-1.8600010">
        <ele>97.4</ele>
        <time>2022-10-29T08:23:38Z</time>
      </trkpt>
      <trkpt lat="43.3105620" lon="-1.8600370">
        <ele>97.6</ele>
        <time>2022-10-29T08:23:39Z</time>
      </trkpt>
      <trkpt lat="43.3105950" lon="-1.8600720">
        <ele>97.6</ele>
        <time>2022-10-29T08:23:40Z</time>
      </trkpt>
      <trkpt lat="43.3106270" lon="-1.8601040">
        <ele>98.0</ele>
        <time>2022-10-29T08:23:41Z</time>
      </trkpt>
      <trkpt lat="43.3106590" lon="-1.8601360">
        <ele>98.2</ele>
        <time>2022-10-29T08:23:42Z</time>
      </trkpt>
      <trkpt lat="43.3106910" lon="-1.8601690">
        <ele>98.6</ele>
        <time>2022-10-29T08:23:43Z</time>
      </trkpt>
      <trkpt lat="43.3107250" lon="-1.8602010">
        <ele>99.0</ele>
        <time>2022-10-29T08:23:44Z</time>
      </trkpt>
      <trkpt lat="43.3107590" lon="-1.8602290">
        <ele>99.2</ele>
        <time>2022-10-29T08:23:45Z</time>
      </trkpt>
      <trkpt lat="43.3107960" lon="-1.8602550">
        <ele>99.4</ele>
        <time>2022-10-29T08:23:46Z</time>
      </trkpt>
      <trkpt lat="43.3108310" lon="-1.8602790">
        <ele>99.6</ele>
        <time>2022-10-29T08:23:47Z</time>
      </trkpt>
      <trkpt lat="43.3108630" lon="-1.8603020">
        <ele>100.0</ele>
        <time>2022-10-29T08:23:48Z</time>
      </trkpt>
      <trkpt lat="43.3108910" lon="-1.8603240">
        <ele>100.0</ele>
        <time>2022-10-29T08:23:49Z</time>
      </trkpt>
      <trkpt lat="43.3109120" lon="-1.8603420">
        <ele>100.4</ele>
        <time>2022-10-29T08:23:50Z</time>
      </trkpt>
      <trkpt lat="43.3109340" lon="-1.8603560">
        <ele>100.4</ele>
        <time>2022-10-29T08:23:51Z</time>
      </trkpt>
      <trkpt lat="43.3109580" lon="-1.8603660">
        <ele>100.6</ele>
        <time>2022-10-29T08:23:52Z</time>
      </trkpt>
      <trkpt lat="43.3109800" lon="-1.8603780">
        <ele>100.8</ele>
        <time>2022-10-29T08:23:53Z</time>
      </trkpt>
      <trkpt lat="43.3110000" lon="-1.8603890">
        <ele>100.8</ele>
        <time>2022-10-29T08:23:54Z</time>
      </trkpt>
      <trkpt lat="43.3110190" lon="-1.8604000">
        <ele>100.8</ele>
        <time>2022-10-29T08:23:55Z</time>
      </trkpt>
      <trkpt lat="43.3110550" lon="-1.8604230">
        <ele>101.0</ele>
        <time>2022-10-29T08:23:57Z</time>
      </trkpt>
      <trkpt lat="43.3110750" lon="-1.8604290">
        <ele>101.2</ele>
        <time>2022-10-29T08:23:58Z</time>
      </trkpt>
      <trkpt lat="43.3110970" lon="-1.8604360">
        <ele>101.4</ele>
        <time>2022-10-29T08:23:59Z</time>
      </trkpt>
      <trkpt lat="43.3111170" lon="-1.8604440">
        <ele>101.6</ele>
        <time>2022-10-29T08:24:00Z</time>
      </trkpt>
      <trkpt lat="43.3111370" lon="-1.8604510">
        <ele>101.6</ele>
        <time>2022-10-29T08:24:01Z</time>
      </trkpt>
      <trkpt lat="43.3111590" lon="-1.8604580">
        <ele>101.8</ele>
        <time>2022-10-29T08:24:02Z</time>
      </trkpt>
      <trkpt lat="43.3111810" lon="-1.8604670">
        <ele>101.8</ele>
        <time>2022-10-29T08:24:03Z</time>
      </trkpt>
      <trkpt lat="43.3112450" lon="-1.8604870">
        <ele>102.2</ele>
        <time>2022-10-29T08:24:06Z</time>
      </trkpt>
      <trkpt lat="43.3112610" lon="-1.8604910">
        <ele>102.4</ele>
        <time>2022-10-29T08:24:07Z</time>
      </trkpt>
      <trkpt lat="43.3112800" lon="-1.8604970">
        <ele>102.6</ele>
        <time>2022-10-29T08:24:08Z</time>
      </trkpt>
      <trkpt lat="43.3113000" lon="-1.8605030">
        <ele>102.8</ele>
        <time>2022-10-29T08:24:09Z</time>
      </trkpt>
      <trkpt lat="43.3113200" lon="-1.8605090">
        <ele>103.0</ele>
        <time>2022-10-29T08:24:10Z</time>
      </trkpt>
      <trkpt lat="43.3113410" lon="-1.8605140">
        <ele>103.2</ele>
        <time>2022-10-29T08:24:11Z</time>
      </trkpt>
      <trkpt lat="43.3113610" lon="-1.8605210">
        <ele>103.4</ele>
        <time>2022-10-29T08:24:12Z</time>
      </trkpt>
      <trkpt lat="43.3113810" lon="-1.8605290">
        <ele>103.8</ele>
        <time>2022-10-29T08:24:13Z</time>
      </trkpt>
      <trkpt lat="43.3114020" lon="-1.8605350">
        <ele>104.0</ele>
        <time>2022-10-29T08:24:14Z</time>
      </trkpt>
      <trkpt lat="43.3114290" lon="-1.8605440">
        <ele>104.2</ele>
        <time>2022-10-29T08:24:15Z</time>
      </trkpt>
      <trkpt lat="43.3114520" lon="-1.8605550">
        <ele>104.6</ele>
        <time>2022-10-29T08:24:16Z</time>
      </trkpt>
      <trkpt lat="43.3114760" lon="-1.8605650">
        <ele>105.0</ele>
        <time>2022-10-29T08:24:17Z</time>
      </trkpt>
      <trkpt lat="43.3115020" lon="-1.8605710">
        <ele>105.2</ele>
        <time>2022-10-29T08:24:18Z</time>
      </trkpt>
      <trkpt lat="43.3115270" lon="-1.8605770">
        <ele>105.6</ele>
        <time>2022-10-29T08:24:19Z</time>
      </trkpt>
      <trkpt lat="43.3115510" lon="-1.8605850">
        <ele>105.6</ele>
        <time>2022-10-29T08:24:20Z</time>
      </trkpt>
      <trkpt lat="43.3115750" lon="-1.8605940">
        <ele>105.8</ele>
        <time>2022-10-29T08:24:21Z</time>
      </trkpt>
      <trkpt lat="43.3115970" lon="-1.8606020">
        <ele>106.0</ele>
        <time>2022-10-29T08:24:22Z</time>
      </trkpt>
      <trkpt lat="43.3116180" lon="-1.8606090">
        <ele>106.2</ele>
        <time>2022-10-29T08:24:23Z</time>
      </trkpt>
      <trkpt lat="43.3116360" lon="-1.8606130">
        <ele>106.4</ele>
        <time>2022-10-29T08:24:24Z</time>
      </trkpt>
      <trkpt lat="43.3116620" lon="-1.8606160">
        <ele>106.6</ele>
        <time>2022-10-29T08:24:25Z</time>
      </trkpt>
      <trkpt lat="43.3116830" lon="-1.8606160">
        <ele>106.8</ele>
        <time>2022-10-29T08:24:26Z</time>
      </trkpt>
      <trkpt lat="43.3117050" lon="-1.8606120">
        <ele>107.0</ele>
        <time>2022-10-29T08:24:27Z</time>
      </trkpt>
      <trkpt lat="43.3117260" lon="-1.8606130">
        <ele>107.2</ele>
        <time>2022-10-29T08:24:28Z</time>
      </trkpt>
      <trkpt lat="43.3117420" lon="-1.8606140">
        <ele>107.4</ele>
        <time>2022-10-29T08:24:29Z</time>
      </trkpt>
      <trkpt lat="43.3117670" lon="-1.8606130">
        <ele>107.8</ele>
        <time>2022-10-29T08:24:30Z</time>
      </trkpt>
      <trkpt lat="43.3117890" lon="-1.8606130">
        <ele>108.0</ele>
        <time>2022-10-29T08:24:31Z</time>
      </trkpt>
      <trkpt lat="43.3118060" lon="-1.8606100">
        <ele>108.4</ele>
        <time>2022-10-29T08:24:32Z</time>
      </trkpt>
      <trkpt lat="43.3118260" lon="-1.8606060">
        <ele>108.6</ele>
        <time>2022-10-29T08:24:33Z</time>
      </trkpt>
      <trkpt lat="43.3118450" lon="-1.8606050">
        <ele>108.8</ele>
        <time>2022-10-29T08:24:34Z</time>
      </trkpt>
      <trkpt lat="43.3118610" lon="-1.8606050">
        <ele>109.4</ele>
        <time>2022-10-29T08:24:35Z</time>
      </trkpt>
      <trkpt lat="43.3118750" lon="-1.8606050">
        <ele>109.6</ele>
        <time>2022-10-29T08:24:36Z</time>
      </trkpt>
      <trkpt lat="43.3118870" lon="-1.8606030">
        <ele>109.8</ele>
        <time>2022-10-29T08:24:37Z</time>
      </trkpt>
      <trkpt lat="43.3119030" lon="-1.8606000">
        <ele>110.0</ele>
        <time>2022-10-29T08:24:38Z</time>
      </trkpt>
      <trkpt lat="43.3119200" lon="-1.8606000">
        <ele>110.2</ele>
        <time>2022-10-29T08:24:39Z</time>
      </trkpt>
      <trkpt lat="43.3119340" lon="-1.8606010">
        <ele>110.2</ele>
        <time>2022-10-29T08:24:40Z</time>
      </trkpt>
      <trkpt lat="43.3119470" lon="-1.8606000">
        <ele>110.4</ele>
        <time>2022-10-29T08:24:41Z</time>
      </trkpt>
      <trkpt lat="43.3119640" lon="-1.8605930">
        <ele>110.6</ele>
        <time>2022-10-29T08:24:42Z</time>
      </trkpt>
      <trkpt lat="43.3119800" lon="-1.8605850">
        <ele>110.6</ele>
        <time>2022-10-29T08:24:43Z</time>
      </trkpt>
      <trkpt lat="43.3119950" lon="-1.8605800">
        <ele>111.2</ele>
        <time>2022-10-29T08:24:44Z</time>
      </trkpt>
      <trkpt lat="43.3120070" lon="-1.8605770">
        <ele>111.4</ele>
        <time>2022-10-29T08:24:45Z</time>
      </trkpt>
      <trkpt lat="43.3120200" lon="-1.8605750">
        <ele>111.6</ele>
        <time>2022-10-29T08:24:46Z</time>
      </trkpt>
      <trkpt lat="43.3120340" lon="-1.8605720">
        <ele>111.6</ele>
        <time>2022-10-29T08:24:47Z</time>
      </trkpt>
      <trkpt lat="43.3120490" lon="-1.8605700">
        <ele>112.0</ele>
        <time>2022-10-29T08:24:48Z</time>
      </trkpt>
      <trkpt lat="43.3120660" lon="-1.8605660">
        <ele>112.4</ele>
        <time>2022-10-29T08:24:49Z</time>
      </trkpt>
      <trkpt lat="43.3120820" lon="-1.8605630">
        <ele>113.2</ele>
        <time>2022-10-29T08:24:50Z</time>
      </trkpt>
      <trkpt lat="43.3120980" lon="-1.8605580">
        <ele>113.4</ele>
        <time>2022-10-29T08:24:51Z</time>
      </trkpt>
      <trkpt lat="43.3121120" lon="-1.8605560">
        <ele>113.6</ele>
        <time>2022-10-29T08:24:52Z</time>
      </trkpt>
      <trkpt lat="43.3121270" lon="-1.8605590">
        <ele>114.4</ele>
        <time>2022-10-29T08:24:53Z</time>
      </trkpt>
      <trkpt lat="43.3121420" lon="-1.8605600">
        <ele>114.6</ele>
        <time>2022-10-29T08:24:54Z</time>
      </trkpt>
      <trkpt lat="43.3121570" lon="-1.8605630">
        <ele>115.2</ele>
        <time>2022-10-29T08:24:55Z</time>
      </trkpt>
      <trkpt lat="43.3121730" lon="-1.8605650">
        <ele>115.4</ele>
        <time>2022-10-29T08:24:56Z</time>
      </trkpt>
      <trkpt lat="43.3121870" lon="-1.8605670">
        <ele>116.0</ele>
        <time>2022-10-29T08:24:57Z</time>
      </trkpt>
      <trkpt lat="43.3122020" lon="-1.8605700">
        <ele>116.0</ele>
        <time>2022-10-29T08:24:58Z</time>
      </trkpt>
      <trkpt lat="43.3122180" lon="-1.8605740">
        <ele>116.4</ele>
        <time>2022-10-29T08:24:59Z</time>
      </trkpt>
      <trkpt lat="43.3122350" lon="-1.8605760">
        <ele>116.6</ele>
        <time>2022-10-29T08:25:00Z</time>
      </trkpt>
      <trkpt lat="43.3122520" lon="-1.8605780">
        <ele>117.0</ele>
        <time>2022-10-29T08:25:01Z</time>
      </trkpt>
      <trkpt lat="43.3122690" lon="-1.8605820">
        <ele>117.2</ele>
        <time>2022-10-29T08:25:02Z</time>
      </trkpt>
      <trkpt lat="43.3122890" lon="-1.8605870">
        <ele>117.4</ele>
        <time>2022-10-29T08:25:03Z</time>
      </trkpt>
      <trkpt lat="43.3123090" lon="-1.8605930">
        <ele>118.0</ele>
        <time>2022-10-29T08:25:04Z</time>
      </trkpt>
      <trkpt lat="43.3123280" lon="-1.8606000">
        <ele>118.2</ele>
        <time>2022-10-29T08:25:05Z</time>
      </trkpt>
      <trkpt lat="43.3123470" lon="-1.8606070">
        <ele>118.4</ele>
        <time>2022-10-29T08:25:06Z</time>
      </trkpt>
      <trkpt lat="43.3123650" lon="-1.8606130">
        <ele>118.6</ele>
        <time>2022-10-29T08:25:07Z</time>
      </trkpt>
      <trkpt lat="43.3123820" lon="-1.8606190">
        <ele>118.8</ele>
        <time>2022-10-29T08:25:08Z</time>
      </trkpt>
      <trkpt lat="43.3124000" lon="-1.8606260">
        <ele>119.0</ele>
        <time>2022-10-29T08:25:09Z</time>
      </trkpt>
      <trkpt lat="43.3124180" lon="-1.8606340">
        <ele>119.2</ele>
        <time>2022-10-29T08:25:10Z</time>
      </trkpt>
      <trkpt lat="43.3124330" lon="-1.8606400">
        <ele>119.4</ele>
        <time>2022-10-29T08:25:11Z</time>
      </trkpt>
      <trkpt lat="43.3131800" lon="-1.8612610">
        <ele>131.4</ele>
        <time>2022-10-29T08:26:02Z</time>
      </trkpt>
      <trkpt lat="43.3132200" lon="-1.8612870">
        <ele>127.4</ele>
        <time>2022-10-29T08:26:03Z</time>
      </trkpt>
      <trkpt lat="43.3133680" lon="-1.8613860">
        <ele>126.8</ele>
        <time>2022-10-29T08:26:06Z</time>
      </trkpt>
      <trkpt lat="43.3134020" lon="-1.8614070">
        <ele>127.2</ele>
        <time>2022-10-29T08:26:07Z</time>
      </trkpt>
      <trkpt lat="43.3134430" lon="-1.8614360">
        <ele>126.8</ele>
        <time>2022-10-29T08:26:08Z</time>
      </trkpt>
      <trkpt lat="43.3134850" lon="-1.8614670">
        <ele>127.0</ele>
        <time>2022-10-29T08:26:09Z</time>
      </trkpt>
      <trkpt lat="43.3135270" lon="-1.8615020">
        <ele>127.0</ele>
        <time>2022-10-29T08:26:10Z</time>
      </trkpt>
      <trkpt lat="43.3137570" lon="-1.8617150">
        <ele>126.8</ele>
        <time>2022-10-29T08:26:15Z</time>
      </trkpt>
      <trkpt lat="43.3138670" lon="-1.8618000">
        <ele>126.8</ele>
        <time>2022-10-29T08:26:17Z</time>
      </trkpt>
      <trkpt lat="43.3139990" lon="-1.8618370">
        <ele>126.8</ele>
        <time>2022-10-29T08:26:19Z</time>
      </trkpt>
      <trkpt lat="43.3140710" lon="-1.8618370">
        <ele>126.8</ele>
        <time>2022-10-29T08:26:20Z</time>
      </trkpt>
      <trkpt lat="43.3141440" lon="-1.8618330">
        <ele>126.6</ele>
        <time>2022-10-29T08:26:21Z</time>
      </trkpt>
      <trkpt lat="43.3142180" lon="-1.8618260">
        <ele>126.4</ele>
        <time>2022-10-29T08:26:22Z</time>
      </trkpt>
      <trkpt lat="43.3143690" lon="-1.8618300">
        <ele>126.0</ele>
        <time>2022-10-29T08:26:24Z</time>
      </trkpt>
      <trkpt lat="43.3144450" lon="-1.8618480">
        <ele>126.0</ele>
        <time>2022-10-29T08:26:25Z</time>
      </trkpt>
      <trkpt lat="43.3145180" lon="-1.8618900">
        <ele>125.6</ele>
        <time>2022-10-29T08:26:26Z</time>
      </trkpt>
      <trkpt lat="43.3145840" lon="-1.8619550">
        <ele>125.4</ele>
        <time>2022-10-29T08:26:27Z</time>
      </trkpt>
      <trkpt lat="43.3146420" lon="-1.8620400">
        <ele>125.0</ele>
        <time>2022-10-29T08:26:28Z</time>
      </trkpt>
      <trkpt lat="43.3146860" lon="-1.8621430">
        <ele>125.0</ele>
        <time>2022-10-29T08:26:29Z</time>
      </trkpt>
      <trkpt lat="43.3147170" lon="-1.8622570">
        <ele>124.4</ele>
        <time>2022-10-29T08:26:30Z</time>
      </trkpt>
      <trkpt lat="43.3147380" lon="-1.8623790">
        <ele>124.2</ele>
        <time>2022-10-29T08:26:31Z</time>
      </trkpt>
      <trkpt lat="43.3147510" lon="-1.8625050">
        <ele>123.6</ele>
        <time>2022-10-29T08:26:32Z</time>
      </trkpt>
      <trkpt lat="43.3147640" lon="-1.8626300">
        <ele>123.0</ele>
        <time>2022-10-29T08:26:33Z</time>
      </trkpt>
      <trkpt lat="43.3147790" lon="-1.8627800">
        <ele>122.8</ele>
        <time>2022-10-29T08:26:34Z</time>
      </trkpt>
      <trkpt lat="43.3147880" lon="-1.8629040">
        <ele>122.2</ele>
        <time>2022-10-29T08:26:35Z</time>
      </trkpt>
      <trkpt lat="43.3147920" lon="-1.8630270">
        <ele>122.2</ele>
        <time>2022-10-29T08:26:36Z</time>
      </trkpt>
      <trkpt lat="43.3147870" lon="-1.8631260">
        <ele>121.8</ele>
        <time>2022-10-29T08:26:37Z</time>
      </trkpt>
      <trkpt lat="43.3147740" lon="-1.8632750">
        <ele>121.6</ele>
        <time>2022-10-29T08:26:38Z</time>
      </trkpt>
      <trkpt lat="43.3147240" lon="-1.8635290">
        <ele>121.2</ele>
        <time>2022-10-29T08:26:40Z</time>
      </trkpt>
      <trkpt lat="43.3147000" lon="-1.8636630">
        <ele>120.8</ele>
        <time>2022-10-29T08:26:41Z</time>
      </trkpt>
      <trkpt lat="43.3146910" lon="-1.8639490">
        <ele>120.4</ele>
        <time>2022-10-29T08:26:43Z</time>
      </trkpt>
      <trkpt lat="43.3147050" lon="-1.8640940">
        <ele>119.8</ele>
        <time>2022-10-29T08:26:44Z</time>
      </trkpt>
      <trkpt lat="43.3147410" lon="-1.8643560">
        <ele>118.6</ele>
        <time>2022-10-29T08:26:46Z</time>
      </trkpt>
      <trkpt lat="43.3147890" lon="-1.8648390">
        <ele>117.4</ele>
        <time>2022-10-29T08:26:49Z</time>
      </trkpt>
      <trkpt lat="43.3147880" lon="-1.8649880">
        <ele>117.0</ele>
        <time>2022-10-29T08:26:50Z</time>
      </trkpt>
      <trkpt lat="43.3147800" lon="-1.8652630">
        <ele>116.4</ele>
        <time>2022-10-29T08:26:52Z</time>
      </trkpt>
      <trkpt lat="43.3147730" lon="-1.8654210">
        <ele>115.6</ele>
        <time>2022-10-29T08:26:53Z</time>
      </trkpt>
      <trkpt lat="43.3147580" lon="-1.8656130">
        <ele>115.4</ele>
        <time>2022-10-29T08:26:54Z</time>
      </trkpt>
      <trkpt lat="43.3147370" lon="-1.8657720">
        <ele>115.0</ele>
        <time>2022-10-29T08:26:55Z</time>
      </trkpt>
      <trkpt lat="43.3146740" lon="-1.8660770">
        <ele>113.6</ele>
        <time>2022-10-29T08:26:57Z</time>
      </trkpt>
      <trkpt lat="43.3145950" lon="-1.8663790">
        <ele>112.4</ele>
        <time>2022-10-29T08:26:59Z</time>
      </trkpt>
      <trkpt lat="43.3145510" lon="-1.8665370">
        <ele>111.8</ele>
        <time>2022-10-29T08:27:00Z</time>
      </trkpt>
      <trkpt lat="43.3145160" lon="-1.8666610">
        <ele>110.8</ele>
        <time>2022-10-29T08:27:01Z</time>
      </trkpt>
      <trkpt lat="43.3144520" lon="-1.8668380">
        <ele>109.8</ele>
        <time>2022-10-29T08:27:02Z</time>
      </trkpt>
      <trkpt lat="43.3143840" lon="-1.8669770">
        <ele>108.8</ele>
        <time>2022-10-29T08:27:03Z</time>
      </trkpt>
      <trkpt lat="43.3143030" lon="-1.8671020">
        <ele>107.6</ele>
        <time>2022-10-29T08:27:04Z</time>
      </trkpt>
      <trkpt lat="43.3141470" lon="-1.8673210">
        <ele>105.4</ele>
        <time>2022-10-29T08:27:06Z</time>
      </trkpt>
      <trkpt lat="43.3140520" lon="-1.8674630">
        <ele>104.4</ele>
        <time>2022-10-29T08:27:07Z</time>
      </trkpt>
      <trkpt lat="43.3139740" lon="-1.8675880">
        <ele>103.2</ele>
        <time>2022-10-29T08:27:08Z</time>
      </trkpt>
      <trkpt lat="43.3138180" lon="-1.8678550">
        <ele>101.8</ele>
        <time>2022-10-29T08:27:10Z</time>
      </trkpt>
      <trkpt lat="43.3137620" lon="-1.8679720">
        <ele>101.0</ele>
        <time>2022-10-29T08:27:11Z</time>
      </trkpt>
      <trkpt lat="43.3136880" lon="-1.8681580">
        <ele>100.2</ele>
        <time>2022-10-29T08:27:12Z</time>
      </trkpt>
      <trkpt lat="43.3136410" lon="-1.8683170">
        <ele>99.2</ele>
        <time>2022-10-29T08:27:13Z</time>
      </trkpt>
      <trkpt lat="43.3136090" lon="-1.8684840">
        <ele>98.6</ele>
        <time>2022-10-29T08:27:14Z</time>
      </trkpt>
      <trkpt lat="43.3135930" lon="-1.8686270">
        <ele>97.4</ele>
        <time>2022-10-29T08:27:15Z</time>
      </trkpt>
      <trkpt lat="43.3135630" lon="-1.8690090">
        <ele>96.2</ele>
        <time>2022-10-29T08:27:17Z</time>
      </trkpt>
      <trkpt lat="43.3135560" lon="-1.8691650">
        <ele>95.8</ele>
        <time>2022-10-29T08:27:18Z</time>
      </trkpt>
      <trkpt lat="43.3135610" lon="-1.8693070">
        <ele>95.0</ele>
        <time>2022-10-29T08:27:19Z</time>
      </trkpt>
      <trkpt lat="43.3135810" lon="-1.8694060">
        <ele>94.6</ele>
        <time>2022-10-29T08:27:20Z</time>
      </trkpt>
      <trkpt lat="43.3136220" lon="-1.8695050">
        <ele>94.0</ele>
        <time>2022-10-29T08:27:21Z</time>
      </trkpt>
      <trkpt lat="43.3136900" lon="-1.8695590">
        <ele>93.0</ele>
        <time>2022-10-29T08:27:22Z</time>
      </trkpt>
      <trkpt lat="43.3137720" lon="-1.8695480">
        <ele>91.8</ele>
        <time>2022-10-29T08:27:23Z</time>
      </trkpt>
      <trkpt lat="43.3138580" lon="-1.8694950">
        <ele>90.2</ele>
        <time>2022-10-29T08:27:24Z</time>
      </trkpt>
      <trkpt lat="43.3139450" lon="-1.8693810">
        <ele>89.6</ele>
        <time>2022-10-29T08:27:25Z</time>
      </trkpt>
      <trkpt lat="43.3140150" lon="-1.8692630">
        <ele>87.8</ele>
        <time>2022-10-29T08:27:26Z</time>
      </trkpt>
      <trkpt lat="43.3141320" lon="-1.8690330">
        <ele>85.8</ele>
        <time>2022-10-29T08:27:28Z</time>
      </trkpt>
      <trkpt lat="43.3141820" lon="-1.8688870">
        <ele>85.6</ele>
        <time>2022-10-29T08:27:29Z</time>
      </trkpt>
      <trkpt lat="43.3142360" lon="-1.8687190">
        <ele>85.0</ele>
        <time>2022-10-29T08:27:30Z</time>
      </trkpt>
      <trkpt lat="43.3142830" lon="-1.8685900">
        <ele>83.8</ele>
        <time>2022-10-29T08:27:31Z</time>
      </trkpt>
      <trkpt lat="43.3143460" lon="-1.8684830">
        <ele>83.2</ele>
        <time>2022-10-29T08:27:32Z</time>
      </trkpt>
      <trkpt lat="43.3144370" lon="-1.8684220">
        <ele>82.2</ele>
        <time>2022-10-29T08:27:33Z</time>
      </trkpt>
      <trkpt lat="43.3145270" lon="-1.8683940">
        <ele>81.6</ele>
        <time>2022-10-29T08:27:34Z</time>
      </trkpt>
      <trkpt lat="43.3145740" lon="-1.8684120">
        <ele>80.4</ele>
        <time>2022-10-29T08:27:35Z</time>
      </trkpt>
      <trkpt lat="43.3146220" lon="-1.8684300">
        <ele>79.8</ele>
        <time>2022-10-29T08:27:36Z</time>
      </trkpt>
      <trkpt lat="43.3146690" lon="-1.8684480">
        <ele>78.2</ele>
        <time>2022-10-29T08:27:37Z</time>
      </trkpt>
      <trkpt lat="43.3147160" lon="-1.8684660">
        <ele>77.6</ele>
        <time>2022-10-29T08:27:38Z</time>
      </trkpt>
      <trkpt lat="43.3147630" lon="-1.8684840">
        <ele>76.4</ele>
        <time>2022-10-29T08:27:39Z</time>
      </trkpt>
      <trkpt lat="43.3149990" lon="-1.8685740">
        <ele>76.0</ele>
        <time>2022-10-29T08:27:40Z</time>
      </trkpt>
      <trkpt lat="43.3150630" lon="-1.8686820">
        <ele>75.2</ele>
        <time>2022-10-29T08:27:41Z</time>
      </trkpt>
      <trkpt lat="43.3151020" lon="-1.8688150">
        <ele>74.2</ele>
        <time>2022-10-29T08:27:42Z</time>
      </trkpt>
      <trkpt lat="43.3151130" lon="-1.8689290">
        <ele>74.0</ele>
        <time>2022-10-29T08:27:43Z</time>
      </trkpt>
      <trkpt lat="43.3150810" lon="-1.8691770">
        <ele>73.2</ele>
        <time>2022-10-29T08:27:45Z</time>
      </trkpt>
      <trkpt lat="43.3150430" lon="-1.8693070">
        <ele>71.8</ele>
        <time>2022-10-29T08:27:46Z</time>
      </trkpt>
      <trkpt lat="43.3150020" lon="-1.8694380">
        <ele>71.2</ele>
        <time>2022-10-29T08:27:47Z</time>
      </trkpt>
      <trkpt lat="43.3149660" lon="-1.8695420">
        <ele>70.4</ele>
        <time>2022-10-29T08:27:48Z</time>
      </trkpt>
      <trkpt lat="43.3148660" lon="-1.8697910">
        <ele>69.0</ele>
        <time>2022-10-29T08:27:50Z</time>
      </trkpt>
      <trkpt lat="43.3148350" lon="-1.8699310">
        <ele>67.8</ele>
        <time>2022-10-29T08:27:51Z</time>
      </trkpt>
      <trkpt lat="43.3148230" lon="-1.8700800">
        <ele>67.2</ele>
        <time>2022-10-29T08:27:52Z</time>
      </trkpt>
      <trkpt lat="43.3148280" lon="-1.8702330">
        <ele>66.2</ele>
        <time>2022-10-29T08:27:53Z</time>
      </trkpt>
      <trkpt lat="43.3148550" lon="-1.8703840">
        <ele>65.8</ele>
        <time>2022-10-29T08:27:54Z</time>
      </trkpt>
      <trkpt lat="43.3149100" lon="-1.8705310">
        <ele>65.2</ele>
        <time>2022-10-29T08:27:55Z</time>
      </trkpt>
      <trkpt lat="43.3149930" lon="-1.8706500">
        <ele>64.8</ele>
        <time>2022-10-29T08:27:56Z</time>
      </trkpt>
      <trkpt lat="43.3150960" lon="-1.8707350">
        <ele>64.0</ele>
        <time>2022-10-29T08:27:57Z</time>
      </trkpt>
      <trkpt lat="43.3152080" lon="-1.8707830">
        <ele>63.4</ele>
        <time>2022-10-29T08:27:58Z</time>
      </trkpt>
      <trkpt lat="43.3153460" lon="-1.8708050">
        <ele>62.6</ele>
        <time>2022-10-29T08:27:59Z</time>
      </trkpt>
      <trkpt lat="43.3154570" lon="-1.8707610">
        <ele>62.2</ele>
        <time>2022-10-29T08:28:00Z</time>
      </trkpt>
      <trkpt lat="43.3155660" lon="-1.8707020">
        <ele>60.8</ele>
        <time>2022-10-29T08:28:01Z</time>
      </trkpt>
      <trkpt lat="43.3156720" lon="-1.8706330">
        <ele>59.8</ele>
        <time>2022-10-29T08:28:02Z</time>
      </trkpt>
      <trkpt lat="43.3157570" lon="-1.8705750">
        <ele>59.4</ele>
        <time>2022-10-29T08:28:03Z</time>
      </trkpt>
      <trkpt lat="43.3158810" lon="-1.8704940">
        <ele>58.4</ele>
        <time>2022-10-29T08:28:04Z</time>
      </trkpt>
      <trkpt lat="43.3159800" lon="-1.8704270">
        <ele>57.8</ele>
        <time>2022-10-29T08:28:05Z</time>
      </trkpt>
      <trkpt lat="43.3160770" lon="-1.8703560">
        <ele>57.2</ele>
        <time>2022-10-29T08:28:06Z</time>
      </trkpt>
      <trkpt lat="43.3161740" lon="-1.8702840">
        <ele>56.6</ele>
        <time>2022-10-29T08:28:07Z</time>
      </trkpt>
      <trkpt lat="43.3162680" lon="-1.8702180">
        <ele>55.6</ele>
        <time>2022-10-29T08:28:08Z</time>
      </trkpt>
      <trkpt lat="43.3164440" lon="-1.8700710">
        <ele>54.4</ele>
        <time>2022-10-29T08:28:10Z</time>
      </trkpt>
      <trkpt lat="43.3165260" lon="-1.8699890">
        <ele>53.8</ele>
        <time>2022-10-29T08:28:11Z</time>
      </trkpt>
      <trkpt lat="43.3165970" lon="-1.8699010">
        <ele>53.6</ele>
        <time>2022-10-29T08:28:12Z</time>
      </trkpt>
      <trkpt lat="43.3166650" lon="-1.8698060">
        <ele>53.0</ele>
        <time>2022-10-29T08:28:13Z</time>
      </trkpt>
      <trkpt lat="43.3167280" lon="-1.8697060">
        <ele>52.6</ele>
        <time>2022-10-29T08:28:14Z</time>
      </trkpt>
      <trkpt lat="43.3167840" lon="-1.8696010">
        <ele>52.0</ele>
        <time>2022-10-29T08:28:15Z</time>
      </trkpt>
      <trkpt lat="43.3168320" lon="-1.8694900">
        <ele>51.6</ele>
        <time>2022-10-29T08:28:16Z</time>
      </trkpt>
      <trkpt lat="43.3168750" lon="-1.8693810">
        <ele>51.4</ele>
        <time>2022-10-29T08:28:17Z</time>
      </trkpt>
      <trkpt lat="43.3170040" lon="-1.8690590">
        <ele>50.8</ele>
        <time>2022-10-29T08:28:20Z</time>
      </trkpt>
      <trkpt lat="43.3170400" lon="-1.8689520">
        <ele>50.6</ele>
        <time>2022-10-29T08:28:21Z</time>
      </trkpt>
      <trkpt lat="43.3170780" lon="-1.8688460">
        <ele>50.4</ele>
        <time>2022-10-29T08:28:22Z</time>
      </trkpt>
      <trkpt lat="43.3171150" lon="-1.8687390">
        <ele>50.2</ele>
        <time>2022-10-29T08:28:23Z</time>
      </trkpt>
      <trkpt lat="43.3171520" lon="-1.8686330">
        <ele>50.0</ele>
        <time>2022-10-29T08:28:24Z</time>
      </trkpt>
      <trkpt lat="43.3171880" lon="-1.8685280">
        <ele>50.0</ele>
        <time>2022-10-29T08:28:25Z</time>
      </trkpt>
      <trkpt lat="43.3172220" lon="-1.8684230">
        <ele>50.0</ele>
        <time>2022-10-29T08:28:26Z</time>
      </trkpt>
      <trkpt lat="43.3172580" lon="-1.8683200">
        <ele>50.0</ele>
        <time>2022-10-29T08:28:27Z</time>
      </trkpt>
      <trkpt lat="43.3172940" lon="-1.8682150">
        <ele>50.0</ele>
        <time>2022-10-29T08:28:28Z</time>
      </trkpt>
      <trkpt lat="43.3173700" lon="-1.8680060">
        <ele>49.8</ele>
        <time>2022-10-29T08:28:30Z</time>
      </trkpt>
      <trkpt lat="43.3174850" lon="-1.8676910">
        <ele>50.0</ele>
        <time>2022-10-29T08:28:33Z</time>
      </trkpt>
      <trkpt lat="43.3176370" lon="-1.8672690">
        <ele>50.0</ele>
        <time>2022-10-29T08:28:37Z</time>
      </trkpt>
      <trkpt lat="43.3177090" lon="-1.8670560">
        <ele>50.0</ele>
        <time>2022-10-29T08:28:39Z</time>
      </trkpt>
      <trkpt lat="43.3177410" lon="-1.8669710">
        <ele>50.0</ele>
        <time>2022-10-29T08:28:40Z</time>
      </trkpt>
      <trkpt lat="43.3178980" lon="-1.8665410">
        <ele>49.6</ele>
        <time>2022-10-29T08:28:44Z</time>
      </trkpt>
      <trkpt lat="43.3180130" lon="-1.8661640">
        <ele>49.6</ele>
        <time>2022-10-29T08:28:48Z</time>
      </trkpt>
      <trkpt lat="43.3180260" lon="-1.8660610">
        <ele>49.6</ele>
        <time>2022-10-29T08:28:49Z</time>
      </trkpt>
      <trkpt lat="43.3180270" lon="-1.8659590">
        <ele>49.8</ele>
        <time>2022-10-29T08:28:50Z</time>
      </trkpt>
      <trkpt lat="43.3180220" lon="-1.8658590">
        <ele>49.8</ele>
        <time>2022-10-29T08:28:51Z</time>
      </trkpt>
      <trkpt lat="43.3180160" lon="-1.8657650">
        <ele>49.8</ele>
        <time>2022-10-29T08:28:52Z</time>
      </trkpt>
      <trkpt lat="43.3180150" lon="-1.8656760">
        <ele>50.0</ele>
        <time>2022-10-29T08:28:53Z</time>
      </trkpt>
      <trkpt lat="43.3180240" lon="-1.8655930">
        <ele>50.0</ele>
        <time>2022-10-29T08:28:54Z</time>
      </trkpt>
      <trkpt lat="43.3180500" lon="-1.8655140">
        <ele>50.0</ele>
        <time>2022-10-29T08:28:55Z</time>
      </trkpt>
      <trkpt lat="43.3180920" lon="-1.8654490">
        <ele>50.0</ele>
        <time>2022-10-29T08:28:56Z</time>
      </trkpt>
      <trkpt lat="43.3181440" lon="-1.8654030">
        <ele>50.0</ele>
        <time>2022-10-29T08:28:57Z</time>
      </trkpt>
      <trkpt lat="43.3182020" lon="-1.8653780">
        <ele>50.0</ele>
        <time>2022-10-29T08:28:58Z</time>
      </trkpt>
      <trkpt lat="43.3182610" lon="-1.8653760">
        <ele>50.0</ele>
        <time>2022-10-29T08:28:59Z</time>
      </trkpt>
      <trkpt lat="43.3183750" lon="-1.8654500">
        <ele>50.0</ele>
        <time>2022-10-29T08:29:01Z</time>
      </trkpt>
      <trkpt lat="43.3184660" lon="-1.8655900">
        <ele>50.0</ele>
        <time>2022-10-29T08:29:03Z</time>
      </trkpt>
      <trkpt lat="43.3185060" lon="-1.8656700">
        <ele>50.0</ele>
        <time>2022-10-29T08:29:04Z</time>
      </trkpt>
      <trkpt lat="43.3185490" lon="-1.8657490">
        <ele>49.8</ele>
        <time>2022-10-29T08:29:05Z</time>
      </trkpt>
      <trkpt lat="43.3186670" lon="-1.8658810">
        <ele>49.4</ele>
        <time>2022-10-29T08:29:07Z</time>
      </trkpt>
      <trkpt lat="43.3187370" lon="-1.8659320">
        <ele>49.2</ele>
        <time>2022-10-29T08:29:08Z</time>
      </trkpt>
      <trkpt lat="43.3188110" lon="-1.8659840">
        <ele>49.0</ele>
        <time>2022-10-29T08:29:09Z</time>
      </trkpt>
      <trkpt lat="43.3191240" lon="-1.8662230">
        <ele>47.8</ele>
        <time>2022-10-29T08:29:13Z</time>
      </trkpt>
      <trkpt lat="43.3192840" lon="-1.8663590">
        <ele>47.4</ele>
        <time>2022-10-29T08:29:15Z</time>
      </trkpt>
      <trkpt lat="43.3194330" lon="-1.8664920">
        <ele>46.6</ele>
        <time>2022-10-29T08:29:17Z</time>
      </trkpt>
      <trkpt lat="43.3195020" lon="-1.8665610">
        <ele>46.4</ele>
        <time>2022-10-29T08:29:18Z</time>
      </trkpt>
      <trkpt lat="43.3195700" lon="-1.8666330">
        <ele>45.8</ele>
        <time>2022-10-29T08:29:19Z</time>
      </trkpt>
      <trkpt lat="43.3196360" lon="-1.8667030">
        <ele>45.2</ele>
        <time>2022-10-29T08:29:20Z</time>
      </trkpt>
      <trkpt lat="43.3197610" lon="-1.8668510">
        <ele>44.0</ele>
        <time>2022-10-29T08:29:22Z</time>
      </trkpt>
      <trkpt lat="43.3198240" lon="-1.8669220">
        <ele>43.6</ele>
        <time>2022-10-29T08:29:23Z</time>
      </trkpt>
      <trkpt lat="43.3198910" lon="-1.8669880">
        <ele>43.0</ele>
        <time>2022-10-29T08:29:24Z</time>
      </trkpt>
      <trkpt lat="43.3199670" lon="-1.8670390">
        <ele>42.6</ele>
        <time>2022-10-29T08:29:25Z</time>
      </trkpt>
      <trkpt lat="43.3200480" lon="-1.8670670">
        <ele>41.8</ele>
        <time>2022-10-29T08:29:26Z</time>
      </trkpt>
      <trkpt lat="43.3201290" lon="-1.8670780">
        <ele>41.2</ele>
        <time>2022-10-29T08:29:27Z</time>
      </trkpt>
      <trkpt lat="43.3202030" lon="-1.8670960">
        <ele>40.4</ele>
        <time>2022-10-29T08:29:28Z</time>
      </trkpt>
      <trkpt lat="43.3202720" lon="-1.8671310">
        <ele>39.8</ele>
        <time>2022-10-29T08:29:29Z</time>
      </trkpt>
      <trkpt lat="43.3203500" lon="-1.8671890">
        <ele>39.0</ele>
        <time>2022-10-29T08:29:30Z</time>
      </trkpt>
      <trkpt lat="43.3204110" lon="-1.8672390">
        <ele>38.6</ele>
        <time>2022-10-29T08:29:31Z</time>
      </trkpt>
      <trkpt lat="43.3204550" lon="-1.8673100">
        <ele>38.4</ele>
        <time>2022-10-29T08:29:32Z</time>
      </trkpt>
      <trkpt lat="43.3204670" lon="-1.8673770">
        <ele>38.0</ele>
        <time>2022-10-29T08:29:33Z</time>
      </trkpt>
      <trkpt lat="43.3204760" lon="-1.8674490">
        <ele>37.8</ele>
        <time>2022-10-29T08:29:34Z</time>
      </trkpt>
      <trkpt lat="43.3204910" lon="-1.8675170">
        <ele>37.6</ele>
        <time>2022-10-29T08:29:35Z</time>
      </trkpt>
      <trkpt lat="43.3205180" lon="-1.8675660">
        <ele>37.6</ele>
        <time>2022-10-29T08:29:36Z</time>
      </trkpt>
      <trkpt lat="43.3205520" lon="-1.8675860">
        <ele>37.2</ele>
        <time>2022-10-29T08:29:37Z</time>
      </trkpt>
      <trkpt lat="43.3205880" lon="-1.8675800">
        <ele>37.0</ele>
        <time>2022-10-29T08:29:38Z</time>
      </trkpt>
      <trkpt lat="43.3206210" lon="-1.8675540">
        <ele>36.6</ele>
        <time>2022-10-29T08:29:39Z</time>
      </trkpt>
      <trkpt lat="43.3206570" lon="-1.8675060">
        <ele>36.6</ele>
        <time>2022-10-29T08:29:40Z</time>
      </trkpt>
      <trkpt lat="43.3206880" lon="-1.8674590">
        <ele>36.6</ele>
        <time>2022-10-29T08:29:41Z</time>
      </trkpt>
      <trkpt lat="43.3207220" lon="-1.8674070">
        <ele>36.6</ele>
        <time>2022-10-29T08:29:42Z</time>
      </trkpt>
      <trkpt lat="43.3207500" lon="-1.8673630">
        <ele>36.4</ele>
        <time>2022-10-29T08:29:43Z</time>
      </trkpt>
      <trkpt lat="43.3208200" lon="-1.8672390">
        <ele>36.6</ele>
        <time>2022-10-29T08:29:45Z</time>
      </trkpt>
      <trkpt lat="43.3208840" lon="-1.8671060">
        <ele>37.0</ele>
        <time>2022-10-29T08:29:47Z</time>
      </trkpt>
      <trkpt lat="43.3209850" lon="-1.8669190">
        <ele>37.4</ele>
        <time>2022-10-29T08:29:50Z</time>
      </trkpt>
      <trkpt lat="43.3210530" lon="-1.8668550">
        <ele>37.8</ele>
        <time>2022-10-29T08:29:52Z</time>
      </trkpt>
      <trkpt lat="43.3211040" lon="-1.8668320">
        <ele>38.0</ele>
        <time>2022-10-29T08:29:53Z</time>
      </trkpt>
      <trkpt lat="43.3211350" lon="-1.8668570">
        <ele>38.2</ele>
        <time>2022-10-29T08:29:54Z</time>
      </trkpt>
      <trkpt lat="43.3211710" lon="-1.8668830">
        <ele>38.4</ele>
        <time>2022-10-29T08:29:55Z</time>
      </trkpt>
      <trkpt lat="43.3212150" lon="-1.8669040">
        <ele>38.4</ele>
        <time>2022-10-29T08:29:56Z</time>
      </trkpt>
      <trkpt lat="43.3212620" lon="-1.8669620">
        <ele>38.6</ele>
        <time>2022-10-29T08:29:57Z</time>
      </trkpt>
      <trkpt lat="43.3213400" lon="-1.8670440">
        <ele>38.8</ele>
        <time>2022-10-29T08:29:58Z</time>
      </trkpt>
      <trkpt lat="43.3214140" lon="-1.8671040">
        <ele>38.8</ele>
        <time>2022-10-29T08:29:59Z</time>
      </trkpt>
      <trkpt lat="43.3216120" lon="-1.8672780">
        <ele>38.6</ele>
        <time>2022-10-29T08:30:02Z</time>
      </trkpt>
      <trkpt lat="43.3216760" lon="-1.8673200">
        <ele>38.6</ele>
        <time>2022-10-29T08:30:03Z</time>
      </trkpt>
      <trkpt lat="43.3217430" lon="-1.8673640">
        <ele>38.6</ele>
        <time>2022-10-29T08:30:04Z</time>
      </trkpt>
      <trkpt lat="43.3218100" lon="-1.8674020">
        <ele>38.6</ele>
        <time>2022-10-29T08:30:05Z</time>
      </trkpt>
      <trkpt lat="43.3218670" lon="-1.8674250">
        <ele>38.6</ele>
        <time>2022-10-29T08:30:06Z</time>
      </trkpt>
      <trkpt lat="43.3219430" lon="-1.8674610">
        <ele>38.6</ele>
        <time>2022-10-29T08:30:07Z</time>
      </trkpt>
      <trkpt lat="43.3219940" lon="-1.8675040">
        <ele>38.4</ele>
        <time>2022-10-29T08:30:08Z</time>
      </trkpt>
      <trkpt lat="43.3220350" lon="-1.8675630">
        <ele>38.2</ele>
        <time>2022-10-29T08:30:09Z</time>
      </trkpt>
      <trkpt lat="43.3220620" lon="-1.8676350">
        <ele>38.0</ele>
        <time>2022-10-29T08:30:10Z</time>
      </trkpt>
      <trkpt lat="43.3220650" lon="-1.8677110">
        <ele>37.8</ele>
        <time>2022-10-29T08:30:11Z</time>
      </trkpt>
      <trkpt lat="43.3220530" lon="-1.8678190">
        <ele>37.8</ele>
        <time>2022-10-29T08:30:12Z</time>
      </trkpt>
      <trkpt lat="43.3220400" lon="-1.8679110">
        <ele>37.8</ele>
        <time>2022-10-29T08:30:13Z</time>
      </trkpt>
      <trkpt lat="43.3220330" lon="-1.8680030">
        <ele>37.8</ele>
        <time>2022-10-29T08:30:14Z</time>
      </trkpt>
      <trkpt lat="43.3220360" lon="-1.8680740">
        <ele>37.8</ele>
        <time>2022-10-29T08:30:15Z</time>
      </trkpt>
      <trkpt lat="43.3220650" lon="-1.8681770">
        <ele>37.6</ele>
        <time>2022-10-29T08:30:16Z</time>
      </trkpt>
      <trkpt lat="43.3220900" lon="-1.8682330">
        <ele>37.6</ele>
        <time>2022-10-29T08:30:17Z</time>
      </trkpt>
      <trkpt lat="43.3221400" lon="-1.8682930">
        <ele>37.4</ele>
        <time>2022-10-29T08:30:18Z</time>
      </trkpt>
      <trkpt lat="43.3221890" lon="-1.8683260">
        <ele>37.4</ele>
        <time>2022-10-29T08:30:19Z</time>
      </trkpt>
      <trkpt lat="43.3222440" lon="-1.8683520">
        <ele>37.4</ele>
        <time>2022-10-29T08:30:20Z</time>
      </trkpt>
      <trkpt lat="43.3223010" lon="-1.8683780">
        <ele>37.4</ele>
        <time>2022-10-29T08:30:21Z</time>
      </trkpt>
      <trkpt lat="43.3223570" lon="-1.8684030">
        <ele>37.8</ele>
        <time>2022-10-29T08:30:22Z</time>
      </trkpt>
      <trkpt lat="43.3224120" lon="-1.8684310">
        <ele>37.8</ele>
        <time>2022-10-29T08:30:23Z</time>
      </trkpt>
      <trkpt lat="43.3225110" lon="-1.8684810">
        <ele>38.0</ele>
        <time>2022-10-29T08:30:25Z</time>
      </trkpt>
      <trkpt lat="43.3225750" lon="-1.8685170">
        <ele>38.0</ele>
        <time>2022-10-29T08:30:26Z</time>
      </trkpt>
      <trkpt lat="43.3226280" lon="-1.8685490">
        <ele>38.2</ele>
        <time>2022-10-29T08:30:27Z</time>
      </trkpt>
      <trkpt lat="43.3226810" lon="-1.8685810">
        <ele>38.4</ele>
        <time>2022-10-29T08:30:28Z</time>
      </trkpt>
      <trkpt lat="43.3227310" lon="-1.8686090">
        <ele>38.6</ele>
        <time>2022-10-29T08:30:29Z</time>
      </trkpt>
      <trkpt lat="43.3227840" lon="-1.8686350">
        <ele>38.8</ele>
        <time>2022-10-29T08:30:30Z</time>
      </trkpt>
      <trkpt lat="43.3228380" lon="-1.8686620">
        <ele>39.0</ele>
        <time>2022-10-29T08:30:31Z</time>
      </trkpt>
      <trkpt lat="43.3232680" lon="-1.8688910">
        <ele>40.0</ele>
        <time>2022-10-29T08:30:39Z</time>
      </trkpt>
      <trkpt lat="43.3234120" lon="-1.8689760">
        <ele>40.4</ele>
        <time>2022-10-29T08:30:42Z</time>
      </trkpt>
      <trkpt lat="43.3236170" lon="-1.8691230">
        <ele>41.0</ele>
        <time>2022-10-29T08:30:46Z</time>
      </trkpt>
      <trkpt lat="43.3236540" lon="-1.8691500">
        <ele>41.2</ele>
        <time>2022-10-29T08:30:47Z</time>
      </trkpt>
      <trkpt lat="43.3237040" lon="-1.8691860">
        <ele>41.2</ele>
        <time>2022-10-29T08:30:48Z</time>
      </trkpt>
      <trkpt lat="43.3237540" lon="-1.8692190">
        <ele>41.4</ele>
        <time>2022-10-29T08:30:49Z</time>
      </trkpt>
      <trkpt lat="43.3238120" lon="-1.8692560">
        <ele>41.4</ele>
        <time>2022-10-29T08:30:50Z</time>
      </trkpt>
      <trkpt lat="43.3238590" lon="-1.8692870">
        <ele>41.6</ele>
        <time>2022-10-29T08:30:51Z</time>
      </trkpt>
      <trkpt lat="43.3238930" lon="-1.8693120">
        <ele>41.8</ele>
        <time>2022-10-29T08:30:52Z</time>
      </trkpt>
      <trkpt lat="43.3239470" lon="-1.8693490">
        <ele>42.0</ele>
        <time>2022-10-29T08:30:53Z</time>
      </trkpt>
      <trkpt lat="43.3239950" lon="-1.8693840">
        <ele>42.0</ele>
        <time>2022-10-29T08:30:54Z</time>
      </trkpt>
      <trkpt lat="43.3240420" lon="-1.8694190">
        <ele>42.0</ele>
        <time>2022-10-29T08:30:55Z</time>
      </trkpt>
      <trkpt lat="43.3240800" lon="-1.8694460">
        <ele>42.2</ele>
        <time>2022-10-29T08:30:56Z</time>
      </trkpt>
      <trkpt lat="43.3241250" lon="-1.8694780">
        <ele>42.4</ele>
        <time>2022-10-29T08:30:57Z</time>
      </trkpt>
      <trkpt lat="43.3241770" lon="-1.8695150">
        <ele>42.6</ele>
        <time>2022-10-29T08:30:58Z</time>
      </trkpt>
      <trkpt lat="43.3242220" lon="-1.8695450">
        <ele>43.0</ele>
        <time>2022-10-29T08:30:59Z</time>
      </trkpt>
      <trkpt lat="43.3242660" lon="-1.8695770">
        <ele>43.0</ele>
        <time>2022-10-29T08:31:00Z</time>
      </trkpt>
      <trkpt lat="43.3242990" lon="-1.8696010">
        <ele>43.4</ele>
        <time>2022-10-29T08:31:01Z</time>
      </trkpt>
      <trkpt lat="43.3243430" lon="-1.8696320">
        <ele>43.6</ele>
        <time>2022-10-29T08:31:02Z</time>
      </trkpt>
      <trkpt lat="43.3243990" lon="-1.8696730">
        <ele>43.6</ele>
        <time>2022-10-29T08:31:03Z</time>
      </trkpt>
      <trkpt lat="43.3244440" lon="-1.8697040">
        <ele>43.8</ele>
        <time>2022-10-29T08:31:04Z</time>
      </trkpt>
      <trkpt lat="43.3244880" lon="-1.8697340">
        <ele>43.8</ele>
        <time>2022-10-29T08:31:05Z</time>
      </trkpt>
      <trkpt lat="43.3245220" lon="-1.8697570">
        <ele>44.0</ele>
        <time>2022-10-29T08:31:06Z</time>
      </trkpt>
      <trkpt lat="43.3245670" lon="-1.8697880">
        <ele>44.0</ele>
        <time>2022-10-29T08:31:07Z</time>
      </trkpt>
      <trkpt lat="43.3246190" lon="-1.8698300">
        <ele>44.0</ele>
        <time>2022-10-29T08:31:08Z</time>
      </trkpt>
      <trkpt lat="43.3246620" lon="-1.8698620">
        <ele>44.2</ele>
        <time>2022-10-29T08:31:09Z</time>
      </trkpt>
      <trkpt lat="43.3247040" lon="-1.8698920">
        <ele>44.2</ele>
        <time>2022-10-29T08:31:10Z</time>
      </trkpt>
      <trkpt lat="43.3247370" lon="-1.8699150">
        <ele>44.2</ele>
        <time>2022-10-29T08:31:11Z</time>
      </trkpt>
      <trkpt lat="43.3247800" lon="-1.8699430">
        <ele>44.2</ele>
        <time>2022-10-29T08:31:12Z</time>
      </trkpt>
      <trkpt lat="43.3248290" lon="-1.8699770">
        <ele>44.4</ele>
        <time>2022-10-29T08:31:13Z</time>
      </trkpt>
      <trkpt lat="43.3248690" lon="-1.8700050">
        <ele>44.4</ele>
        <time>2022-10-29T08:31:14Z</time>
      </trkpt>
      <trkpt lat="43.3249010" lon="-1.8700280">
        <ele>44.6</ele>
        <time>2022-10-29T08:31:15Z</time>
      </trkpt>
      <trkpt lat="43.3249420" lon="-1.8700540">
        <ele>44.8</ele>
        <time>2022-10-29T08:31:16Z</time>
      </trkpt>
      <trkpt lat="43.3249820" lon="-1.8700790">
        <ele>45.2</ele>
        <time>2022-10-29T08:31:17Z</time>
      </trkpt>
      <trkpt lat="43.3250260" lon="-1.8701120">
        <ele>45.2</ele>
        <time>2022-10-29T08:31:18Z</time>
      </trkpt>
      <trkpt lat="43.3250640" lon="-1.8701420">
        <ele>45.6</ele>
        <time>2022-10-29T08:31:19Z</time>
      </trkpt>
      <trkpt lat="43.3250980" lon="-1.8701630">
        <ele>45.6</ele>
        <time>2022-10-29T08:31:20Z</time>
      </trkpt>
      <trkpt lat="43.3251410" lon="-1.8701830">
        <ele>45.8</ele>
        <time>2022-10-29T08:31:21Z</time>
      </trkpt>
      <trkpt lat="43.3251930" lon="-1.8702080">
        <ele>45.8</ele>
        <time>2022-10-29T08:31:22Z</time>
      </trkpt>
      <trkpt lat="43.3252320" lon="-1.8702330">
        <ele>45.8</ele>
        <time>2022-10-29T08:31:23Z</time>
      </trkpt>
      <trkpt lat="43.3252720" lon="-1.8702570">
        <ele>46.0</ele>
        <time>2022-10-29T08:31:24Z</time>
      </trkpt>
      <trkpt lat="43.3253000" lon="-1.8702790">
        <ele>46.2</ele>
        <time>2022-10-29T08:31:25Z</time>
      </trkpt>
      <trkpt lat="43.3253350" lon="-1.8703070">
        <ele>46.2</ele>
        <time>2022-10-29T08:31:26Z</time>
      </trkpt>
      <trkpt lat="43.3253800" lon="-1.8703390">
        <ele>46.4</ele>
        <time>2022-10-29T08:31:27Z</time>
      </trkpt>
      <trkpt lat="43.3254210" lon="-1.8703650">
        <ele>46.4</ele>
        <time>2022-10-29T08:31:28Z</time>
      </trkpt>
      <trkpt lat="43.3254630" lon="-1.8703930">
        <ele>46.4</ele>
        <time>2022-10-29T08:31:29Z</time>
      </trkpt>
      <trkpt lat="43.3254960" lon="-1.8704140">
        <ele>46.6</ele>
        <time>2022-10-29T08:31:30Z</time>
      </trkpt>
      <trkpt lat="43.3255380" lon="-1.8704400">
        <ele>46.8</ele>
        <time>2022-10-29T08:31:31Z</time>
      </trkpt>
      <trkpt lat="43.3255860" lon="-1.8704720">
        <ele>46.8</ele>
        <time>2022-10-29T08:31:32Z</time>
      </trkpt>
      <trkpt lat="43.3256270" lon="-1.8705030">
        <ele>46.8</ele>
        <time>2022-10-29T08:31:33Z</time>
      </trkpt>
      <trkpt lat="43.3256690" lon="-1.8705340">
        <ele>47.0</ele>
        <time>2022-10-29T08:31:34Z</time>
      </trkpt>
      <trkpt lat="43.3257120" lon="-1.8705630">
        <ele>47.2</ele>
        <time>2022-10-29T08:31:35Z</time>
      </trkpt>
      <trkpt lat="43.3257470" lon="-1.8705830">
        <ele>47.2</ele>
        <time>2022-10-29T08:31:36Z</time>
      </trkpt>
      <trkpt lat="43.3257960" lon="-1.8706150">
        <ele>47.4</ele>
        <time>2022-10-29T08:31:37Z</time>
      </trkpt>
      <trkpt lat="43.3258390" lon="-1.8706430">
        <ele>47.4</ele>
        <time>2022-10-29T08:31:38Z</time>
      </trkpt>
      <trkpt lat="43.3258790" lon="-1.8706700">
        <ele>47.6</ele>
        <time>2022-10-29T08:31:39Z</time>
      </trkpt>
      <trkpt lat="43.3259130" lon="-1.8706910">
        <ele>47.6</ele>
        <time>2022-10-29T08:31:40Z</time>
      </trkpt>
      <trkpt lat="43.3259600" lon="-1.8707230">
        <ele>47.8</ele>
        <time>2022-10-29T08:31:41Z</time>
      </trkpt>
      <trkpt lat="43.3259980" lon="-1.8707500">
        <ele>48.2</ele>
        <time>2022-10-29T08:31:42Z</time>
      </trkpt>
      <trkpt lat="43.3260380" lon="-1.8707770">
        <ele>48.4</ele>
        <time>2022-10-29T08:31:43Z</time>
      </trkpt>
      <trkpt lat="43.3260740" lon="-1.8707980">
        <ele>48.8</ele>
        <time>2022-10-29T08:31:44Z</time>
      </trkpt>
      <trkpt lat="43.3261170" lon="-1.8708240">
        <ele>48.8</ele>
        <time>2022-10-29T08:31:45Z</time>
      </trkpt>
      <trkpt lat="43.3261680" lon="-1.8708500">
        <ele>49.2</ele>
        <time>2022-10-29T08:31:46Z</time>
      </trkpt>
      <trkpt lat="43.3262040" lon="-1.8708650">
        <ele>49.4</ele>
        <time>2022-10-29T08:31:47Z</time>
      </trkpt>
      <trkpt lat="43.3262550" lon="-1.8708880">
        <ele>49.6</ele>
        <time>2022-10-29T08:31:48Z</time>
      </trkpt>
      <trkpt lat="43.3262890" lon="-1.8709020">
        <ele>49.6</ele>
        <time>2022-10-29T08:31:49Z</time>
      </trkpt>
      <trkpt lat="43.3263300" lon="-1.8709200">
        <ele>50.0</ele>
        <time>2022-10-29T08:31:50Z</time>
      </trkpt>
      <trkpt lat="43.3263660" lon="-1.8709390">
        <ele>50.2</ele>
        <time>2022-10-29T08:31:51Z</time>
      </trkpt>
      <trkpt lat="43.3264130" lon="-1.8709570">
        <ele>50.4</ele>
        <time>2022-10-29T08:31:52Z</time>
      </trkpt>
      <trkpt lat="43.3264520" lon="-1.8709730">
        <ele>50.4</ele>
        <time>2022-10-29T08:31:53Z</time>
      </trkpt>
      <trkpt lat="43.3264850" lon="-1.8709860">
        <ele>50.6</ele>
        <time>2022-10-29T08:31:54Z</time>
      </trkpt>
      <trkpt lat="43.3265220" lon="-1.8710000">
        <ele>50.8</ele>
        <time>2022-10-29T08:31:55Z</time>
      </trkpt>
      <trkpt lat="43.3265590" lon="-1.8710120">
        <ele>51.0</ele>
        <time>2022-10-29T08:31:56Z</time>
      </trkpt>
      <trkpt lat="43.3266040" lon="-1.8710230">
        <ele>51.2</ele>
        <time>2022-10-29T08:31:57Z</time>
      </trkpt>
      <trkpt lat="43.3266430" lon="-1.8710240">
        <ele>51.2</ele>
        <time>2022-10-29T08:31:58Z</time>
      </trkpt>
      <trkpt lat="43.3266740" lon="-1.8710130">
        <ele>51.6</ele>
        <time>2022-10-29T08:31:59Z</time>
      </trkpt>
      <trkpt lat="43.3267220" lon="-1.8709960">
        <ele>51.8</ele>
        <time>2022-10-29T08:32:00Z</time>
      </trkpt>
      <trkpt lat="43.3267620" lon="-1.8709800">
        <ele>52.0</ele>
        <time>2022-10-29T08:32:01Z</time>
      </trkpt>
      <trkpt lat="43.3268010" lon="-1.8709610">
        <ele>52.2</ele>
        <time>2022-10-29T08:32:02Z</time>
      </trkpt>
      <trkpt lat="43.3268320" lon="-1.8709510">
        <ele>52.2</ele>
        <time>2022-10-29T08:32:03Z</time>
      </trkpt>
      <trkpt lat="43.3268710" lon="-1.8709380">
        <ele>52.6</ele>
        <time>2022-10-29T08:32:04Z</time>
      </trkpt>
      <trkpt lat="43.3269160" lon="-1.8709220">
        <ele>52.6</ele>
        <time>2022-10-29T08:32:05Z</time>
      </trkpt>
      <trkpt lat="43.3269460" lon="-1.8709140">
        <ele>52.8</ele>
        <time>2022-10-29T08:32:06Z</time>
      </trkpt>
      <trkpt lat="43.3269810" lon="-1.8709100">
        <ele>52.8</ele>
        <time>2022-10-29T08:32:07Z</time>
      </trkpt>
      <trkpt lat="43.3270110" lon="-1.8709110">
        <ele>53.0</ele>
        <time>2022-10-29T08:32:08Z</time>
      </trkpt>
      <trkpt lat="43.3270330" lon="-1.8709150">
        <ele>53.0</ele>
        <time>2022-10-29T08:32:09Z</time>
      </trkpt>
      <trkpt lat="43.3270480" lon="-1.8709230">
        <ele>53.0</ele>
        <time>2022-10-29T08:32:10Z</time>
      </trkpt>
      <trkpt lat="43.3270620" lon="-1.8709380">
        <ele>53.0</ele>
        <time>2022-10-29T08:32:11Z</time>
      </trkpt>
      <trkpt lat="43.3270820" lon="-1.8709580">
        <ele>53.0</ele>
        <time>2022-10-29T08:32:12Z</time>
      </trkpt>
      <trkpt lat="43.3271040" lon="-1.8709830">
        <ele>53.0</ele>
        <time>2022-10-29T08:32:13Z</time>
      </trkpt>
      <trkpt lat="43.3271230" lon="-1.8710180">
        <ele>53.0</ele>
        <time>2022-10-29T08:32:14Z</time>
      </trkpt>
      <trkpt lat="43.3271370" lon="-1.8710610">
        <ele>53.0</ele>
        <time>2022-10-29T08:32:15Z</time>
      </trkpt>
      <trkpt lat="43.3271450" lon="-1.8711100">
        <ele>53.0</ele>
        <time>2022-10-29T08:32:16Z</time>
      </trkpt>
      <trkpt lat="43.3271450" lon="-1.8711680">
        <ele>53.2</ele>
        <time>2022-10-29T08:32:17Z</time>
      </trkpt>
      <trkpt lat="43.3271390" lon="-1.8712290">
        <ele>53.2</ele>
        <time>2022-10-29T08:32:18Z</time>
      </trkpt>
      <trkpt lat="43.3271280" lon="-1.8712930">
        <ele>53.2</ele>
        <time>2022-10-29T08:32:19Z</time>
      </trkpt>
      <trkpt lat="43.3271180" lon="-1.8713570">
        <ele>53.2</ele>
        <time>2022-10-29T08:32:20Z</time>
      </trkpt>
      <trkpt lat="43.3271080" lon="-1.8714170">
        <ele>53.4</ele>
        <time>2022-10-29T08:32:21Z</time>
      </trkpt>
      <trkpt lat="43.3270970" lon="-1.8714760">
        <ele>53.6</ele>
        <time>2022-10-29T08:32:22Z</time>
      </trkpt>
      <trkpt lat="43.3270860" lon="-1.8715360">
        <ele>53.6</ele>
        <time>2022-10-29T08:32:23Z</time>
      </trkpt>
      <trkpt lat="43.3270720" lon="-1.8715950">
        <ele>54.0</ele>
        <time>2022-10-29T08:32:24Z</time>
      </trkpt>
      <trkpt lat="43.3270280" lon="-1.8717680">
        <ele>54.4</ele>
        <time>2022-10-29T08:32:27Z</time>
      </trkpt>
      <trkpt lat="43.3270130" lon="-1.8718250">
        <ele>54.8</ele>
        <time>2022-10-29T08:32:28Z</time>
      </trkpt>
      <trkpt lat="43.3269790" lon="-1.8719410">
        <ele>55.2</ele>
        <time>2022-10-29T08:32:30Z</time>
      </trkpt>
      <trkpt lat="43.3269620" lon="-1.8719970">
        <ele>55.6</ele>
        <time>2022-10-29T08:32:31Z</time>
      </trkpt>
      <trkpt lat="43.3269460" lon="-1.8720500">
        <ele>55.6</ele>
        <time>2022-10-29T08:32:32Z</time>
      </trkpt>
      <trkpt lat="43.3269290" lon="-1.8721050">
        <ele>56.0</ele>
        <time>2022-10-29T08:32:33Z</time>
      </trkpt>
      <trkpt lat="43.3269120" lon="-1.8721630">
        <ele>56.0</ele>
        <time>2022-10-29T08:32:34Z</time>
      </trkpt>
      <trkpt lat="43.3268960" lon="-1.8722230">
        <ele>56.4</ele>
        <time>2022-10-29T08:32:35Z</time>
      </trkpt>
      <trkpt lat="43.3268780" lon="-1.8722840">
        <ele>56.6</ele>
        <time>2022-10-29T08:32:36Z</time>
      </trkpt>
      <trkpt lat="43.3268550" lon="-1.8723470">
        <ele>56.8</ele>
        <time>2022-10-29T08:32:37Z</time>
      </trkpt>
      <trkpt lat="43.3268330" lon="-1.8724110">
        <ele>56.8</ele>
        <time>2022-10-29T08:32:38Z</time>
      </trkpt>
      <trkpt lat="43.3268140" lon="-1.8724750">
        <ele>57.2</ele>
        <time>2022-10-29T08:32:39Z</time>
      </trkpt>
      <trkpt lat="43.3267930" lon="-1.8725420">
        <ele>57.2</ele>
        <time>2022-10-29T08:32:40Z</time>
      </trkpt>
      <trkpt lat="43.3267720" lon="-1.8726080">
        <ele>57.6</ele>
        <time>2022-10-29T08:32:41Z</time>
      </trkpt>
      <trkpt lat="43.3267540" lon="-1.8726740">
        <ele>58.0</ele>
        <time>2022-10-29T08:32:42Z</time>
      </trkpt>
      <trkpt lat="43.3267340" lon="-1.8727400">
        <ele>58.4</ele>
        <time>2022-10-29T08:32:43Z</time>
      </trkpt>
      <trkpt lat="43.3267130" lon="-1.8728060">
        <ele>58.8</ele>
        <time>2022-10-29T08:32:44Z</time>
      </trkpt>
      <trkpt lat="43.3266900" lon="-1.8728750">
        <ele>58.8</ele>
        <time>2022-10-29T08:32:45Z</time>
      </trkpt>
      <trkpt lat="43.3266700" lon="-1.8729500">
        <ele>59.0</ele>
        <time>2022-10-29T08:32:46Z</time>
      </trkpt>
      <trkpt lat="43.3266500" lon="-1.8730180">
        <ele>59.2</ele>
        <time>2022-10-29T08:32:47Z</time>
      </trkpt>
      <trkpt lat="43.3266300" lon="-1.8730870">
        <ele>59.6</ele>
        <time>2022-10-29T08:32:48Z</time>
      </trkpt>
      <trkpt lat="43.3266070" lon="-1.8731580">
        <ele>59.8</ele>
        <time>2022-10-29T08:32:49Z</time>
      </trkpt>
      <trkpt lat="43.3265840" lon="-1.8732320">
        <ele>60.0</ele>
        <time>2022-10-29T08:32:50Z</time>
      </trkpt>
      <trkpt lat="43.3265630" lon="-1.8733050">
        <ele>60.2</ele>
        <time>2022-10-29T08:32:51Z</time>
      </trkpt>
      <trkpt lat="43.3265400" lon="-1.8733810">
        <ele>60.2</ele>
        <time>2022-10-29T08:32:52Z</time>
      </trkpt>
      <trkpt lat="43.3265150" lon="-1.8734560">
        <ele>60.4</ele>
        <time>2022-10-29T08:32:53Z</time>
      </trkpt>
      <trkpt lat="43.3264880" lon="-1.8735350">
        <ele>60.4</ele>
        <time>2022-10-29T08:32:54Z</time>
      </trkpt>
      <trkpt lat="43.3264580" lon="-1.8736180">
        <ele>60.4</ele>
        <time>2022-10-29T08:32:55Z</time>
      </trkpt>
      <trkpt lat="43.3264290" lon="-1.8737060">
        <ele>60.4</ele>
        <time>2022-10-29T08:32:56Z</time>
      </trkpt>
      <trkpt lat="43.3263980" lon="-1.8737980">
        <ele>60.4</ele>
        <time>2022-10-29T08:32:57Z</time>
      </trkpt>
      <trkpt lat="43.3263680" lon="-1.8738950">
        <ele>60.4</ele>
        <time>2022-10-29T08:32:58Z</time>
      </trkpt>
      <trkpt lat="43.3263330" lon="-1.8739960">
        <ele>60.2</ele>
        <time>2022-10-29T08:32:59Z</time>
      </trkpt>
      <trkpt lat="43.3262970" lon="-1.8741020">
        <ele>60.2</ele>
        <time>2022-10-29T08:33:00Z</time>
      </trkpt>
      <trkpt lat="43.3262610" lon="-1.8742110">
        <ele>60.2</ele>
        <time>2022-10-29T08:33:01Z</time>
      </trkpt>
      <trkpt lat="43.3262280" lon="-1.8743240">
        <ele>59.8</ele>
        <time>2022-10-29T08:33:02Z</time>
      </trkpt>
      <trkpt lat="43.3261900" lon="-1.8744400">
        <ele>59.6</ele>
        <time>2022-10-29T08:33:03Z</time>
      </trkpt>
      <trkpt lat="43.3261520" lon="-1.8745610">
        <ele>59.2</ele>
        <time>2022-10-29T08:33:04Z</time>
      </trkpt>
      <trkpt lat="43.3261150" lon="-1.8746840">
        <ele>59.0</ele>
        <time>2022-10-29T08:33:05Z</time>
      </trkpt>
      <trkpt lat="43.3260780" lon="-1.8748060">
        <ele>58.6</ele>
        <time>2022-10-29T08:33:06Z</time>
      </trkpt>
      <trkpt lat="43.3260420" lon="-1.8749280">
        <ele>58.4</ele>
        <time>2022-10-29T08:33:07Z</time>
      </trkpt>
      <trkpt lat="43.3260090" lon="-1.8750490">
        <ele>58.2</ele>
        <time>2022-10-29T08:33:08Z</time>
      </trkpt>
      <trkpt lat="43.3259800" lon="-1.8751670">
        <ele>57.8</ele>
        <time>2022-10-29T08:33:09Z</time>
      </trkpt>
      <trkpt lat="43.3259570" lon="-1.8752800">
        <ele>57.0</ele>
        <time>2022-10-29T08:33:10Z</time>
      </trkpt>
      <trkpt lat="43.3259440" lon="-1.8753940">
        <ele>56.2</ele>
        <time>2022-10-29T08:33:11Z</time>
      </trkpt>
      <trkpt lat="43.3259380" lon="-1.8755060">
        <ele>56.0</ele>
        <time>2022-10-29T08:33:12Z</time>
      </trkpt>
      <trkpt lat="43.3259210" lon="-1.8756170">
        <ele>55.4</ele>
        <time>2022-10-29T08:33:13Z</time>
      </trkpt>
      <trkpt lat="43.3258870" lon="-1.8757200">
        <ele>55.0</ele>
        <time>2022-10-29T08:33:14Z</time>
      </trkpt>
      <trkpt lat="43.3258400" lon="-1.8758100">
        <ele>54.4</ele>
        <time>2022-10-29T08:33:15Z</time>
      </trkpt>
      <trkpt lat="43.3257730" lon="-1.8759070">
        <ele>54.4</ele>
        <time>2022-10-29T08:33:16Z</time>
      </trkpt>
      <trkpt lat="43.3257270" lon="-1.8759700">
        <ele>53.8</ele>
        <time>2022-10-29T08:33:17Z</time>
      </trkpt>
      <trkpt lat="43.3256760" lon="-1.8760540">
        <ele>53.6</ele>
        <time>2022-10-29T08:33:18Z</time>
      </trkpt>
      <trkpt lat="43.3256370" lon="-1.8761470">
        <ele>53.2</ele>
        <time>2022-10-29T08:33:19Z</time>
      </trkpt>
      <trkpt lat="43.3256040" lon="-1.8762430">
        <ele>53.0</ele>
        <time>2022-10-29T08:33:20Z</time>
      </trkpt>
      <trkpt lat="43.3255760" lon="-1.8763380">
        <ele>52.8</ele>
        <time>2022-10-29T08:33:21Z</time>
      </trkpt>
      <trkpt lat="43.3255500" lon="-1.8764260">
        <ele>52.8</ele>
        <time>2022-10-29T08:33:22Z</time>
      </trkpt>
      <trkpt lat="43.3255260" lon="-1.8765100">
        <ele>52.8</ele>
        <time>2022-10-29T08:33:23Z</time>
      </trkpt>
      <trkpt lat="43.3254990" lon="-1.8766030">
        <ele>52.8</ele>
        <time>2022-10-29T08:33:24Z</time>
      </trkpt>
      <trkpt lat="43.3254790" lon="-1.8766740">
        <ele>52.8</ele>
        <time>2022-10-29T08:33:25Z</time>
      </trkpt>
      <trkpt lat="43.3254600" lon="-1.8767400">
        <ele>52.8</ele>
        <time>2022-10-29T08:33:26Z</time>
      </trkpt>
      <trkpt lat="43.3254460" lon="-1.8767900">
        <ele>52.8</ele>
        <time>2022-10-29T08:33:27Z</time>
      </trkpt>
      <trkpt lat="43.3254290" lon="-1.8768480">
        <ele>53.0</ele>
        <time>2022-10-29T08:33:28Z</time>
      </trkpt>
      <trkpt lat="43.3254110" lon="-1.8769170">
        <ele>53.2</ele>
        <time>2022-10-29T08:33:29Z</time>
      </trkpt>
      <trkpt lat="43.3253970" lon="-1.8769710">
        <ele>53.6</ele>
        <time>2022-10-29T08:33:30Z</time>
      </trkpt>
      <trkpt lat="43.3253820" lon="-1.8770230">
        <ele>53.8</ele>
        <time>2022-10-29T08:33:31Z</time>
      </trkpt>
      <trkpt lat="43.3253710" lon="-1.8770640">
        <ele>53.8</ele>
        <time>2022-10-29T08:33:32Z</time>
      </trkpt>
      <trkpt lat="43.3253520" lon="-1.8771300">
        <ele>54.0</ele>
        <time>2022-10-29T08:33:33Z</time>
      </trkpt>
      <trkpt lat="43.3253410" lon="-1.8771720">
        <ele>54.0</ele>
        <time>2022-10-29T08:33:34Z</time>
      </trkpt>
      <trkpt lat="43.3253280" lon="-1.8772240">
        <ele>54.0</ele>
        <time>2022-10-29T08:33:35Z</time>
      </trkpt>
      <trkpt lat="43.3253070" lon="-1.8773240">
        <ele>54.4</ele>
        <time>2022-10-29T08:33:37Z</time>
      </trkpt>
      <trkpt lat="43.3252930" lon="-1.8773810">
        <ele>54.6</ele>
        <time>2022-10-29T08:33:38Z</time>
      </trkpt>
      <trkpt lat="43.3252800" lon="-1.8774250">
        <ele>55.2</ele>
        <time>2022-10-29T08:33:39Z</time>
      </trkpt>
      <trkpt lat="43.3252690" lon="-1.8774660">
        <ele>55.4</ele>
        <time>2022-10-29T08:33:40Z</time>
      </trkpt>
      <trkpt lat="43.3252480" lon="-1.8775440">
        <ele>56.2</ele>
        <time>2022-10-29T08:33:42Z</time>
      </trkpt>
      <trkpt lat="43.3252380" lon="-1.8775990">
        <ele>56.2</ele>
        <time>2022-10-29T08:33:43Z</time>
      </trkpt>
      <trkpt lat="43.3252280" lon="-1.8776480">
        <ele>56.6</ele>
        <time>2022-10-29T08:33:44Z</time>
      </trkpt>
      <trkpt lat="43.3252170" lon="-1.8776960">
        <ele>56.8</ele>
        <time>2022-10-29T08:33:45Z</time>
      </trkpt>
      <trkpt lat="43.3252100" lon="-1.8777330">
        <ele>57.2</ele>
        <time>2022-10-29T08:33:46Z</time>
      </trkpt>
      <trkpt lat="43.3251980" lon="-1.8777900">
        <ele>57.4</ele>
        <time>2022-10-29T08:33:47Z</time>
      </trkpt>
      <trkpt lat="43.3251850" lon="-1.8778370">
        <ele>57.8</ele>
        <time>2022-10-29T08:33:48Z</time>
      </trkpt>
      <trkpt lat="43.3251720" lon="-1.8778880">
        <ele>58.0</ele>
        <time>2022-10-29T08:33:49Z</time>
      </trkpt>
      <trkpt lat="43.3251630" lon="-1.8779340">
        <ele>58.2</ele>
        <time>2022-10-29T08:33:50Z</time>
      </trkpt>
      <trkpt lat="43.3251510" lon="-1.8779920">
        <ele>58.6</ele>
        <time>2022-10-29T08:33:51Z</time>
      </trkpt>
      <trkpt lat="43.3251370" lon="-1.8780560">
        <ele>58.8</ele>
        <time>2022-10-29T08:33:52Z</time>
      </trkpt>
      <trkpt lat="43.3251210" lon="-1.8781100">
        <ele>59.0</ele>
        <time>2022-10-29T08:33:53Z</time>
      </trkpt>
      <trkpt lat="43.3251080" lon="-1.8781530">
        <ele>59.2</ele>
        <time>2022-10-29T08:33:54Z</time>
      </trkpt>
      <trkpt lat="43.3250900" lon="-1.8782200">
        <ele>59.6</ele>
        <time>2022-10-29T08:33:55Z</time>
      </trkpt>
      <trkpt lat="43.3250780" lon="-1.8782810">
        <ele>59.8</ele>
        <time>2022-10-29T08:33:56Z</time>
      </trkpt>
      <trkpt lat="43.3250610" lon="-1.8783550">
        <ele>59.8</ele>
        <time>2022-10-29T08:33:57Z</time>
      </trkpt>
      <trkpt lat="43.3250510" lon="-1.8784120">
        <ele>60.0</ele>
        <time>2022-10-29T08:33:58Z</time>
      </trkpt>
      <trkpt lat="43.3250330" lon="-1.8784740">
        <ele>60.0</ele>
        <time>2022-10-29T08:33:59Z</time>
      </trkpt>
      <trkpt lat="43.3250220" lon="-1.8785220">
        <ele>60.2</ele>
        <time>2022-10-29T08:34:00Z</time>
      </trkpt>
      <trkpt lat="43.3250070" lon="-1.8785820">
        <ele>60.4</ele>
        <time>2022-10-29T08:34:01Z</time>
      </trkpt>
      <trkpt lat="43.3249950" lon="-1.8786420">
        <ele>60.4</ele>
        <time>2022-10-29T08:34:02Z</time>
      </trkpt>
      <trkpt lat="43.3249780" lon="-1.8787170">
        <ele>60.4</ele>
        <time>2022-10-29T08:34:03Z</time>
      </trkpt>
      <trkpt lat="43.3249630" lon="-1.8787790">
        <ele>60.6</ele>
        <time>2022-10-29T08:34:04Z</time>
      </trkpt>
      <trkpt lat="43.3249520" lon="-1.8788280">
        <ele>60.6</ele>
        <time>2022-10-29T08:34:05Z</time>
      </trkpt>
      <trkpt lat="43.3249340" lon="-1.8789050">
        <ele>60.6</ele>
        <time>2022-10-29T08:34:06Z</time>
      </trkpt>
      <trkpt lat="43.3249220" lon="-1.8789590">
        <ele>60.6</ele>
        <time>2022-10-29T08:34:07Z</time>
      </trkpt>
      <trkpt lat="43.3249040" lon="-1.8790300">
        <ele>60.6</ele>
        <time>2022-10-29T08:34:08Z</time>
      </trkpt>
      <trkpt lat="43.3248850" lon="-1.8791080">
        <ele>60.6</ele>
        <time>2022-10-29T08:34:09Z</time>
      </trkpt>
      <trkpt lat="43.3248660" lon="-1.8791910">
        <ele>60.6</ele>
        <time>2022-10-29T08:34:10Z</time>
      </trkpt>
      <trkpt lat="43.3248440" lon="-1.8792910">
        <ele>60.6</ele>
        <time>2022-10-29T08:34:11Z</time>
      </trkpt>
      <trkpt lat="43.3248290" lon="-1.8793620">
        <ele>60.6</ele>
        <time>2022-10-29T08:34:12Z</time>
      </trkpt>
      <trkpt lat="43.3248060" lon="-1.8794740">
        <ele>60.6</ele>
        <time>2022-10-29T08:34:13Z</time>
      </trkpt>
      <trkpt lat="43.3247900" lon="-1.8795550">
        <ele>60.6</ele>
        <time>2022-10-29T08:34:14Z</time>
      </trkpt>
      <trkpt lat="43.3247740" lon="-1.8796520">
        <ele>60.6</ele>
        <time>2022-10-29T08:34:15Z</time>
      </trkpt>
      <trkpt lat="43.3247500" lon="-1.8797720">
        <ele>60.6</ele>
        <time>2022-10-29T08:34:16Z</time>
      </trkpt>
      <trkpt lat="43.3247280" lon="-1.8798750">
        <ele>60.6</ele>
        <time>2022-10-29T08:34:17Z</time>
      </trkpt>
      <trkpt lat="43.3247100" lon="-1.8799590">
        <ele>60.6</ele>
        <time>2022-10-29T08:34:18Z</time>
      </trkpt>
      <trkpt lat="43.3246890" lon="-1.8800650">
        <ele>60.6</ele>
        <time>2022-10-29T08:34:19Z</time>
      </trkpt>
      <trkpt lat="43.3246670" lon="-1.8801760">
        <ele>60.4</ele>
        <time>2022-10-29T08:34:20Z</time>
      </trkpt>
      <trkpt lat="43.3245870" lon="-1.8805470">
        <ele>60.0</ele>
        <time>2022-10-29T08:34:23Z</time>
      </trkpt>
      <trkpt lat="43.3245220" lon="-1.8807900">
        <ele>59.6</ele>
        <time>2022-10-29T08:34:25Z</time>
      </trkpt>
      <trkpt lat="43.3244850" lon="-1.8809080">
        <ele>59.4</ele>
        <time>2022-10-29T08:34:26Z</time>
      </trkpt>
      <trkpt lat="43.3244070" lon="-1.8811470">
        <ele>58.8</ele>
        <time>2022-10-29T08:34:29Z</time>
      </trkpt>
      <trkpt lat="43.3243720" lon="-1.8812400">
        <ele>58.2</ele>
        <time>2022-10-29T08:34:30Z</time>
      </trkpt>
      <trkpt lat="43.3243050" lon="-1.8813660">
        <ele>57.8</ele>
        <time>2022-10-29T08:34:31Z</time>
      </trkpt>
      <trkpt lat="43.3241820" lon="-1.8815550">
        <ele>57.4</ele>
        <time>2022-10-29T08:34:33Z</time>
      </trkpt>
      <trkpt lat="43.3241180" lon="-1.8816430">
        <ele>57.0</ele>
        <time>2022-10-29T08:34:34Z</time>
      </trkpt>
      <trkpt lat="43.3239260" lon="-1.8818890">
        <ele>56.0</ele>
        <time>2022-10-29T08:34:37Z</time>
      </trkpt>
      <trkpt lat="43.3238650" lon="-1.8819690">
        <ele>55.4</ele>
        <time>2022-10-29T08:34:38Z</time>
      </trkpt>
      <trkpt lat="43.3238160" lon="-1.8820320">
        <ele>55.4</ele>
        <time>2022-10-29T08:34:39Z</time>
      </trkpt>
      <trkpt lat="43.3237540" lon="-1.8821080">
        <ele>55.2</ele>
        <time>2022-10-29T08:34:40Z</time>
      </trkpt>
      <trkpt lat="43.3236820" lon="-1.8821940">
        <ele>55.0</ele>
        <time>2022-10-29T08:34:41Z</time>
      </trkpt>
      <trkpt lat="43.3236220" lon="-1.8822660">
        <ele>54.6</ele>
        <time>2022-10-29T08:34:42Z</time>
      </trkpt>
      <trkpt lat="43.3235640" lon="-1.8823380">
        <ele>54.4</ele>
        <time>2022-10-29T08:34:43Z</time>
      </trkpt>
      <trkpt lat="43.3234090" lon="-1.8825320">
        <ele>54.0</ele>
        <time>2022-10-29T08:34:46Z</time>
      </trkpt>
      <trkpt lat="43.3233560" lon="-1.8826030">
        <ele>53.8</ele>
        <time>2022-10-29T08:34:47Z</time>
      </trkpt>
      <trkpt lat="43.3233030" lon="-1.8826760">
        <ele>53.6</ele>
        <time>2022-10-29T08:34:48Z</time>
      </trkpt>
      <trkpt lat="43.3232510" lon="-1.8827500">
        <ele>53.6</ele>
        <time>2022-10-29T08:34:49Z</time>
      </trkpt>
      <trkpt lat="43.3232000" lon="-1.8828220">
        <ele>53.6</ele>
        <time>2022-10-29T08:34:50Z</time>
      </trkpt>
      <trkpt lat="43.3231500" lon="-1.8828960">
        <ele>53.4</ele>
        <time>2022-10-29T08:34:51Z</time>
      </trkpt>
      <trkpt lat="43.3230990" lon="-1.8829720">
        <ele>53.4</ele>
        <time>2022-10-29T08:34:52Z</time>
      </trkpt>
      <trkpt lat="43.3228300" lon="-1.8834600">
        <ele>53.4</ele>
        <time>2022-10-29T08:34:58Z</time>
      </trkpt>
      <trkpt lat="43.3226250" lon="-1.8838570">
        <ele>53.4</ele>
        <time>2022-10-29T08:35:03Z</time>
      </trkpt>
      <trkpt lat="43.3225870" lon="-1.8839340">
        <ele>53.4</ele>
        <time>2022-10-29T08:35:04Z</time>
      </trkpt>
      <trkpt lat="43.3225120" lon="-1.8840860">
        <ele>53.4</ele>
        <time>2022-10-29T08:35:06Z</time>
      </trkpt>
      <trkpt lat="43.3224760" lon="-1.8841640">
        <ele>53.4</ele>
        <time>2022-10-29T08:35:07Z</time>
      </trkpt>
      <trkpt lat="43.3224390" lon="-1.8842400">
        <ele>53.4</ele>
        <time>2022-10-29T08:35:08Z</time>
      </trkpt>
      <trkpt lat="43.3224020" lon="-1.8843140">
        <ele>53.4</ele>
        <time>2022-10-29T08:35:09Z</time>
      </trkpt>
      <trkpt lat="43.3223670" lon="-1.8843890">
        <ele>53.4</ele>
        <time>2022-10-29T08:35:10Z</time>
      </trkpt>
      <trkpt lat="43.3223310" lon="-1.8844670">
        <ele>53.4</ele>
        <time>2022-10-29T08:35:11Z</time>
      </trkpt>
      <trkpt lat="43.3222210" lon="-1.8847030">
        <ele>53.2</ele>
        <time>2022-10-29T08:35:14Z</time>
      </trkpt>
      <trkpt lat="43.3220330" lon="-1.8851430">
        <ele>52.8</ele>
        <time>2022-10-29T08:35:19Z</time>
      </trkpt>
      <trkpt lat="43.3219920" lon="-1.8852430">
        <ele>52.8</ele>
        <time>2022-10-29T08:35:20Z</time>
      </trkpt>
      <trkpt lat="43.3218710" lon="-1.8855670">
        <ele>52.4</ele>
        <time>2022-10-29T08:35:23Z</time>
      </trkpt>
      <trkpt lat="43.3217420" lon="-1.8859210">
        <ele>52.2</ele>
        <time>2022-10-29T08:35:26Z</time>
      </trkpt>
      <trkpt lat="43.3216100" lon="-1.8862950">
        <ele>51.2</ele>
        <time>2022-10-29T08:35:29Z</time>
      </trkpt>
      <trkpt lat="43.3214990" lon="-1.8867050">
        <ele>50.0</ele>
        <time>2022-10-29T08:35:32Z</time>
      </trkpt>
      <trkpt lat="43.3214500" lon="-1.8869920">
        <ele>48.8</ele>
        <time>2022-10-29T08:35:34Z</time>
      </trkpt>
      <trkpt lat="43.3214100" lon="-1.8872940">
        <ele>48.0</ele>
        <time>2022-10-29T08:35:36Z</time>
      </trkpt>
      <trkpt lat="43.3213900" lon="-1.8874440">
        <ele>47.6</ele>
        <time>2022-10-29T08:35:37Z</time>
      </trkpt>
      <trkpt lat="43.3213700" lon="-1.8875950">
        <ele>46.8</ele>
        <time>2022-10-29T08:35:38Z</time>
      </trkpt>
      <trkpt lat="43.3213520" lon="-1.8877470">
        <ele>46.2</ele>
        <time>2022-10-29T08:35:39Z</time>
      </trkpt>
      <trkpt lat="43.3213160" lon="-1.8880520">
        <ele>45.2</ele>
        <time>2022-10-29T08:35:41Z</time>
      </trkpt>
      <trkpt lat="43.3212860" lon="-1.8883440">
        <ele>43.2</ele>
        <time>2022-10-29T08:35:43Z</time>
      </trkpt>
      <trkpt lat="43.3212690" lon="-1.8884870">
        <ele>42.6</ele>
        <time>2022-10-29T08:35:44Z</time>
      </trkpt>
      <trkpt lat="43.3212510" lon="-1.8886290">
        <ele>41.4</ele>
        <time>2022-10-29T08:35:45Z</time>
      </trkpt>
      <trkpt lat="43.3212210" lon="-1.8889110">
        <ele>40.4</ele>
        <time>2022-10-29T08:35:47Z</time>
      </trkpt>
      <trkpt lat="43.3211940" lon="-1.8891840">
        <ele>39.6</ele>
        <time>2022-10-29T08:35:49Z</time>
      </trkpt>
      <trkpt lat="43.3211790" lon="-1.8893180">
        <ele>39.4</ele>
        <time>2022-10-29T08:35:50Z</time>
      </trkpt>
      <trkpt lat="43.3211690" lon="-1.8894520">
        <ele>38.8</ele>
        <time>2022-10-29T08:35:51Z</time>
      </trkpt>
      <trkpt lat="43.3211600" lon="-1.8895850">
        <ele>38.6</ele>
        <time>2022-10-29T08:35:52Z</time>
      </trkpt>
      <trkpt lat="43.3211520" lon="-1.8897180">
        <ele>38.2</ele>
        <time>2022-10-29T08:35:53Z</time>
      </trkpt>
      <trkpt lat="43.3211430" lon="-1.8898520">
        <ele>38.0</ele>
        <time>2022-10-29T08:35:54Z</time>
      </trkpt>
      <trkpt lat="43.3211350" lon="-1.8899870">
        <ele>37.8</ele>
        <time>2022-10-29T08:35:55Z</time>
      </trkpt>
      <trkpt lat="43.3211200" lon="-1.8902660">
        <ele>37.6</ele>
        <time>2022-10-29T08:35:57Z</time>
      </trkpt>
      <trkpt lat="43.3211180" lon="-1.8904090">
        <ele>37.0</ele>
        <time>2022-10-29T08:35:58Z</time>
      </trkpt>
      <trkpt lat="43.3211050" lon="-1.8908600">
        <ele>35.8</ele>
        <time>2022-10-29T08:36:01Z</time>
      </trkpt>
      <trkpt lat="43.3211050" lon="-1.8910210">
        <ele>35.0</ele>
        <time>2022-10-29T08:36:02Z</time>
      </trkpt>
      <trkpt lat="43.3211020" lon="-1.8911870">
        <ele>34.4</ele>
        <time>2022-10-29T08:36:03Z</time>
      </trkpt>
      <trkpt lat="43.3210810" lon="-1.8915320">
        <ele>33.2</ele>
        <time>2022-10-29T08:36:05Z</time>
      </trkpt>
      <trkpt lat="43.3210710" lon="-1.8918880">
        <ele>31.8</ele>
        <time>2022-10-29T08:36:07Z</time>
      </trkpt>
      <trkpt lat="43.3210640" lon="-1.8920670">
        <ele>31.4</ele>
        <time>2022-10-29T08:36:08Z</time>
      </trkpt>
      <trkpt lat="43.3210530" lon="-1.8922460">
        <ele>30.4</ele>
        <time>2022-10-29T08:36:09Z</time>
      </trkpt>
      <trkpt lat="43.3210390" lon="-1.8925980">
        <ele>29.4</ele>
        <time>2022-10-29T08:36:11Z</time>
      </trkpt>
      <trkpt lat="43.3210360" lon="-1.8927680">
        <ele>29.0</ele>
        <time>2022-10-29T08:36:12Z</time>
      </trkpt>
      <trkpt lat="43.3210330" lon="-1.8929330">
        <ele>28.4</ele>
        <time>2022-10-29T08:36:13Z</time>
      </trkpt>
      <trkpt lat="43.3210300" lon="-1.8930850">
        <ele>27.6</ele>
        <time>2022-10-29T08:36:14Z</time>
      </trkpt>
      <trkpt lat="43.3210260" lon="-1.8932300">
        <ele>27.0</ele>
        <time>2022-10-29T08:36:15Z</time>
      </trkpt>
      <trkpt lat="43.3210250" lon="-1.8933620">
        <ele>25.6</ele>
        <time>2022-10-29T08:36:16Z</time>
      </trkpt>
      <trkpt lat="43.3210220" lon="-1.8934870">
        <ele>24.6</ele>
        <time>2022-10-29T08:36:17Z</time>
      </trkpt>
      <trkpt lat="43.3210190" lon="-1.8936020">
        <ele>22.8</ele>
        <time>2022-10-29T08:36:18Z</time>
      </trkpt>
      <trkpt lat="43.3210180" lon="-1.8937040">
        <ele>21.8</ele>
        <time>2022-10-29T08:36:19Z</time>
      </trkpt>
      <trkpt lat="43.3210200" lon="-1.8938000">
        <ele>20.4</ele>
        <time>2022-10-29T08:36:20Z</time>
      </trkpt>
      <trkpt lat="43.3210200" lon="-1.8938890">
        <ele>19.6</ele>
        <time>2022-10-29T08:36:21Z</time>
      </trkpt>
      <trkpt lat="43.3210190" lon="-1.8939710">
        <ele>18.2</ele>
        <time>2022-10-29T08:36:22Z</time>
      </trkpt>
      <trkpt lat="43.3210180" lon="-1.8940480">
        <ele>17.0</ele>
        <time>2022-10-29T08:36:23Z</time>
      </trkpt>
      <trkpt lat="43.3210180" lon="-1.8941220">
        <ele>16.4</ele>
        <time>2022-10-29T08:36:24Z</time>
      </trkpt>
      <trkpt lat="43.3210190" lon="-1.8941870">
        <ele>15.6</ele>
        <time>2022-10-29T08:36:25Z</time>
      </trkpt>
      <trkpt lat="43.3210190" lon="-1.8942450">
        <ele>15.2</ele>
        <time>2022-10-29T08:36:26Z</time>
      </trkpt>
      <trkpt lat="43.3210170" lon="-1.8942950">
        <ele>14.4</ele>
        <time>2022-10-29T08:36:27Z</time>
      </trkpt>
      <trkpt lat="43.3210100" lon="-1.8944870">
        <ele>12.6</ele>
        <time>2022-10-29T08:36:35Z</time>
      </trkpt>
      <trkpt lat="43.3210100" lon="-1.8945100">
        <ele>12.4</ele>
        <time>2022-10-29T08:36:36Z</time>
      </trkpt>
      <trkpt lat="43.3210080" lon="-1.8945440">
        <ele>12.4</ele>
        <time>2022-10-29T08:36:37Z</time>
      </trkpt>
      <trkpt lat="43.3210070" lon="-1.8945870">
        <ele>12.2</ele>
        <time>2022-10-29T08:36:38Z</time>
      </trkpt>
      <trkpt lat="43.3210060" lon="-1.8946380">
        <ele>12.4</ele>
        <time>2022-10-29T08:36:39Z</time>
      </trkpt>
      <trkpt lat="43.3210050" lon="-1.8946970">
        <ele>12.4</ele>
        <time>2022-10-29T08:36:40Z</time>
      </trkpt>
      <trkpt lat="43.3210010" lon="-1.8947610">
        <ele>12.4</ele>
        <time>2022-10-29T08:36:41Z</time>
      </trkpt>
      <trkpt lat="43.3209870" lon="-1.8951400">
        <ele>12.0</ele>
        <time>2022-10-29T08:36:46Z</time>
      </trkpt>
      <trkpt lat="43.3209690" lon="-1.8954080">
        <ele>12.2</ele>
        <time>2022-10-29T08:36:49Z</time>
      </trkpt>
      <trkpt lat="43.3209380" lon="-1.8955940">
        <ele>12.4</ele>
        <time>2022-10-29T08:36:51Z</time>
      </trkpt>
      <trkpt lat="43.3209150" lon="-1.8956920">
        <ele>12.4</ele>
        <time>2022-10-29T08:36:52Z</time>
      </trkpt>
      <trkpt lat="43.3208920" lon="-1.8957790">
        <ele>12.6</ele>
        <time>2022-10-29T08:36:53Z</time>
      </trkpt>
      <trkpt lat="43.3208640" lon="-1.8958640">
        <ele>12.6</ele>
        <time>2022-10-29T08:36:54Z</time>
      </trkpt>
      <trkpt lat="43.3207680" lon="-1.8961150">
        <ele>12.8</ele>
        <time>2022-10-29T08:36:57Z</time>
      </trkpt>
      <trkpt lat="43.3206270" lon="-1.8965300">
        <ele>13.2</ele>
        <time>2022-10-29T08:37:02Z</time>
      </trkpt>
      <trkpt lat="43.3206320" lon="-1.8967000">
        <ele>13.2</ele>
        <time>2022-10-29T08:37:04Z</time>
      </trkpt>
      <trkpt lat="43.3206570" lon="-1.8967830">
        <ele>13.0</ele>
        <time>2022-10-29T08:37:05Z</time>
      </trkpt>
      <trkpt lat="43.3206950" lon="-1.8968590">
        <ele>13.0</ele>
        <time>2022-10-29T08:37:06Z</time>
      </trkpt>
      <trkpt lat="43.3207440" lon="-1.8969130">
        <ele>13.0</ele>
        <time>2022-10-29T08:37:07Z</time>
      </trkpt>
      <trkpt lat="43.3207960" lon="-1.8969520">
        <ele>13.0</ele>
        <time>2022-10-29T08:37:08Z</time>
      </trkpt>
      <trkpt lat="43.3208520" lon="-1.8969760">
        <ele>13.0</ele>
        <time>2022-10-29T08:37:09Z</time>
      </trkpt>
      <trkpt lat="43.3209100" lon="-1.8969910">
        <ele>12.8</ele>
        <time>2022-10-29T08:37:10Z</time>
      </trkpt>
      <trkpt lat="43.3209670" lon="-1.8970050">
        <ele>12.8</ele>
        <time>2022-10-29T08:37:11Z</time>
      </trkpt>
      <trkpt lat="43.3210190" lon="-1.8970220">
        <ele>12.8</ele>
        <time>2022-10-29T08:37:12Z</time>
      </trkpt>
      <trkpt lat="43.3210680" lon="-1.8970430">
        <ele>12.8</ele>
        <time>2022-10-29T08:37:13Z</time>
      </trkpt>
      <trkpt lat="43.3211130" lon="-1.8970720">
        <ele>12.8</ele>
        <time>2022-10-29T08:37:14Z</time>
      </trkpt>
      <trkpt lat="43.3211560" lon="-1.8971000">
        <ele>12.8</ele>
        <time>2022-10-29T08:37:15Z</time>
      </trkpt>
      <trkpt lat="43.3211940" lon="-1.8971240">
        <ele>12.8</ele>
        <time>2022-10-29T08:37:16Z</time>
      </trkpt>
      <trkpt lat="43.3212300" lon="-1.8971450">
        <ele>12.8</ele>
        <time>2022-10-29T08:37:17Z</time>
      </trkpt>
      <trkpt lat="43.3212610" lon="-1.8971730">
        <ele>12.8</ele>
        <time>2022-10-29T08:37:18Z</time>
      </trkpt>
      <trkpt lat="43.3212860" lon="-1.8972010">
        <ele>12.8</ele>
        <time>2022-10-29T08:37:19Z</time>
      </trkpt>
      <trkpt lat="43.3213060" lon="-1.8972270">
        <ele>13.0</ele>
        <time>2022-10-29T08:37:20Z</time>
      </trkpt>
      <trkpt lat="43.3213220" lon="-1.8972480">
        <ele>12.8</ele>
        <time>2022-10-29T08:37:21Z</time>
      </trkpt>
      <trkpt lat="43.3213340" lon="-1.8972640">
        <ele>12.8</ele>
        <time>2022-10-29T08:37:22Z</time>
      </trkpt>
      <trkpt lat="43.3213440" lon="-1.8972810">
        <ele>12.8</ele>
        <time>2022-10-29T08:37:23Z</time>
      </trkpt>
      <trkpt lat="43.3213520" lon="-1.8972970">
        <ele>13.0</ele>
        <time>2022-10-29T08:37:24Z</time>
      </trkpt>
      <trkpt lat="43.3213620" lon="-1.8973170">
        <ele>12.8</ele>
        <time>2022-10-29T08:37:25Z</time>
      </trkpt>
      <trkpt lat="43.3213770" lon="-1.8973370">
        <ele>13.0</ele>
        <time>2022-10-29T08:37:26Z</time>
      </trkpt>
      <trkpt lat="43.3214560" lon="-1.8974840">
        <ele>13.0</ele>
        <time>2022-10-29T08:37:30Z</time>
      </trkpt>
      <trkpt lat="43.3215390" lon="-1.8977020">
        <ele>13.4</ele>
        <time>2022-10-29T08:37:34Z</time>
      </trkpt>
      <trkpt lat="43.3215930" lon="-1.8978130">
        <ele>13.8</ele>
        <time>2022-10-29T08:37:36Z</time>
      </trkpt>
      <trkpt lat="43.3216940" lon="-1.8980310">
        <ele>14.6</ele>
        <time>2022-10-29T08:37:40Z</time>
      </trkpt>
      <trkpt lat="43.3217630" lon="-1.8981950">
        <ele>15.2</ele>
        <time>2022-10-29T08:37:43Z</time>
      </trkpt>
      <trkpt lat="43.3218060" lon="-1.8983000">
        <ele>15.6</ele>
        <time>2022-10-29T08:37:45Z</time>
      </trkpt>
      <trkpt lat="43.3218730" lon="-1.8984570">
        <ele>16.4</ele>
        <time>2022-10-29T08:37:48Z</time>
      </trkpt>
      <trkpt lat="43.3218920" lon="-1.8985080">
        <ele>16.6</ele>
        <time>2022-10-29T08:37:49Z</time>
      </trkpt>
      <trkpt lat="43.3219110" lon="-1.8985590">
        <ele>16.8</ele>
        <time>2022-10-29T08:37:50Z</time>
      </trkpt>
      <trkpt lat="43.3219340" lon="-1.8986100">
        <ele>16.8</ele>
        <time>2022-10-29T08:37:51Z</time>
      </trkpt>
      <trkpt lat="43.3219560" lon="-1.8986590">
        <ele>17.0</ele>
        <time>2022-10-29T08:37:52Z</time>
      </trkpt>
      <trkpt lat="43.3219770" lon="-1.8987050">
        <ele>17.6</ele>
        <time>2022-10-29T08:37:53Z</time>
      </trkpt>
      <trkpt lat="43.3219960" lon="-1.8987530">
        <ele>18.0</ele>
        <time>2022-10-29T08:37:54Z</time>
      </trkpt>
      <trkpt lat="43.3220140" lon="-1.8988010">
        <ele>18.2</ele>
        <time>2022-10-29T08:37:55Z</time>
      </trkpt>
      <trkpt lat="43.3220340" lon="-1.8988500">
        <ele>18.4</ele>
        <time>2022-10-29T08:37:56Z</time>
      </trkpt>
      <trkpt lat="43.3220530" lon="-1.8988980">
        <ele>18.6</ele>
        <time>2022-10-29T08:37:57Z</time>
      </trkpt>
      <trkpt lat="43.3220710" lon="-1.8989440">
        <ele>18.8</ele>
        <time>2022-10-29T08:37:58Z</time>
      </trkpt>
      <trkpt lat="43.3220900" lon="-1.8989920">
        <ele>18.8</ele>
        <time>2022-10-29T08:37:59Z</time>
      </trkpt>
      <trkpt lat="43.3221100" lon="-1.8990370">
        <ele>19.0</ele>
        <time>2022-10-29T08:38:00Z</time>
      </trkpt>
      <trkpt lat="43.3221300" lon="-1.8990840">
        <ele>19.0</ele>
        <time>2022-10-29T08:38:01Z</time>
      </trkpt>
      <trkpt lat="43.3221480" lon="-1.8991320">
        <ele>19.4</ele>
        <time>2022-10-29T08:38:02Z</time>
      </trkpt>
      <trkpt lat="43.3221640" lon="-1.8991820">
        <ele>19.6</ele>
        <time>2022-10-29T08:38:03Z</time>
      </trkpt>
      <trkpt lat="43.3221830" lon="-1.8992320">
        <ele>19.8</ele>
        <time>2022-10-29T08:38:04Z</time>
      </trkpt>
      <trkpt lat="43.3222020" lon="-1.8992770">
        <ele>20.0</ele>
        <time>2022-10-29T08:38:05Z</time>
      </trkpt>
      <trkpt lat="43.3222210" lon="-1.8993210">
        <ele>20.2</ele>
        <time>2022-10-29T08:38:06Z</time>
      </trkpt>
      <trkpt lat="43.3222410" lon="-1.8993660">
        <ele>20.4</ele>
        <time>2022-10-29T08:38:07Z</time>
      </trkpt>
      <trkpt lat="43.3222610" lon="-1.8994120">
        <ele>20.6</ele>
        <time>2022-10-29T08:38:08Z</time>
      </trkpt>
      <trkpt lat="43.3222790" lon="-1.8994590">
        <ele>21.0</ele>
        <time>2022-10-29T08:38:09Z</time>
      </trkpt>
      <trkpt lat="43.3222960" lon="-1.8995070">
        <ele>21.2</ele>
        <time>2022-10-29T08:38:10Z</time>
      </trkpt>
      <trkpt lat="43.3223170" lon="-1.8995560">
        <ele>21.4</ele>
        <time>2022-10-29T08:38:11Z</time>
      </trkpt>
      <trkpt lat="43.3223410" lon="-1.8996020">
        <ele>21.6</ele>
        <time>2022-10-29T08:38:12Z</time>
      </trkpt>
      <trkpt lat="43.3223630" lon="-1.8996520">
        <ele>22.0</ele>
        <time>2022-10-29T08:38:13Z</time>
      </trkpt>
      <trkpt lat="43.3223830" lon="-1.8997070">
        <ele>22.4</ele>
        <time>2022-10-29T08:38:14Z</time>
      </trkpt>
      <trkpt lat="43.3224040" lon="-1.8997620">
        <ele>22.6</ele>
        <time>2022-10-29T08:38:15Z</time>
      </trkpt>
      <trkpt lat="43.3224260" lon="-1.8998140">
        <ele>22.8</ele>
        <time>2022-10-29T08:38:16Z</time>
      </trkpt>
      <trkpt lat="43.3224480" lon="-1.8998690">
        <ele>23.0</ele>
        <time>2022-10-29T08:38:17Z</time>
      </trkpt>
      <trkpt lat="43.3224720" lon="-1.8999230">
        <ele>23.2</ele>
        <time>2022-10-29T08:38:18Z</time>
      </trkpt>
      <trkpt lat="43.3225000" lon="-1.8999780">
        <ele>23.2</ele>
        <time>2022-10-29T08:38:19Z</time>
      </trkpt>
      <trkpt lat="43.3225260" lon="-1.9000310">
        <ele>23.6</ele>
        <time>2022-10-29T08:38:20Z</time>
      </trkpt>
      <trkpt lat="43.3225520" lon="-1.9000870">
        <ele>23.8</ele>
        <time>2022-10-29T08:38:21Z</time>
      </trkpt>
      <trkpt lat="43.3225830" lon="-1.9001440">
        <ele>24.0</ele>
        <time>2022-10-29T08:38:22Z</time>
      </trkpt>
      <trkpt lat="43.3226190" lon="-1.9001960">
        <ele>24.6</ele>
        <time>2022-10-29T08:38:23Z</time>
      </trkpt>
      <trkpt lat="43.3226520" lon="-1.9002480">
        <ele>24.8</ele>
        <time>2022-10-29T08:38:24Z</time>
      </trkpt>
      <trkpt lat="43.3226760" lon="-1.9002990">
        <ele>25.0</ele>
        <time>2022-10-29T08:38:25Z</time>
      </trkpt>
      <trkpt lat="43.3226980" lon="-1.9003430">
        <ele>25.2</ele>
        <time>2022-10-29T08:38:26Z</time>
      </trkpt>
      <trkpt lat="43.3227460" lon="-1.9003900">
        <ele>25.6</ele>
        <time>2022-10-29T08:38:27Z</time>
      </trkpt>
      <trkpt lat="43.3228050" lon="-1.9004360">
        <ele>25.6</ele>
        <time>2022-10-29T08:38:28Z</time>
      </trkpt>
      <trkpt lat="43.3228570" lon="-1.9004720">
        <ele>26.0</ele>
        <time>2022-10-29T08:38:29Z</time>
      </trkpt>
      <trkpt lat="43.3229240" lon="-1.9005040">
        <ele>26.0</ele>
        <time>2022-10-29T08:38:30Z</time>
      </trkpt>
      <trkpt lat="43.3229980" lon="-1.9005380">
        <ele>26.2</ele>
        <time>2022-10-29T08:38:31Z</time>
      </trkpt>
      <trkpt lat="43.3230740" lon="-1.9005660">
        <ele>26.4</ele>
        <time>2022-10-29T08:38:32Z</time>
      </trkpt>
      <trkpt lat="43.3231430" lon="-1.9005890">
        <ele>26.4</ele>
        <time>2022-10-29T08:38:33Z</time>
      </trkpt>
      <trkpt lat="43.3232160" lon="-1.9006110">
        <ele>26.4</ele>
        <time>2022-10-29T08:38:34Z</time>
      </trkpt>
      <trkpt lat="43.3232900" lon="-1.9006360">
        <ele>26.4</ele>
        <time>2022-10-29T08:38:35Z</time>
      </trkpt>
      <trkpt lat="43.3233790" lon="-1.9006700">
        <ele>26.4</ele>
        <time>2022-10-29T08:38:36Z</time>
      </trkpt>
      <trkpt lat="43.3234530" lon="-1.9007010">
        <ele>26.4</ele>
        <time>2022-10-29T08:38:37Z</time>
      </trkpt>
      <trkpt lat="43.3235140" lon="-1.9007260">
        <ele>26.2</ele>
        <time>2022-10-29T08:38:38Z</time>
      </trkpt>
      <trkpt lat="43.3235910" lon="-1.9007590">
        <ele>26.0</ele>
        <time>2022-10-29T08:38:39Z</time>
      </trkpt>
      <trkpt lat="43.3236830" lon="-1.9008050">
        <ele>25.4</ele>
        <time>2022-10-29T08:38:40Z</time>
      </trkpt>
      <trkpt lat="43.3237420" lon="-1.9008410">
        <ele>25.2</ele>
        <time>2022-10-29T08:38:41Z</time>
      </trkpt>
      <trkpt lat="43.3238110" lon="-1.9008920">
        <ele>24.8</ele>
        <time>2022-10-29T08:38:42Z</time>
      </trkpt>
      <trkpt lat="43.3238790" lon="-1.9009430">
        <ele>24.4</ele>
        <time>2022-10-29T08:38:43Z</time>
      </trkpt>
      <trkpt lat="43.3239430" lon="-1.9010090">
        <ele>24.2</ele>
        <time>2022-10-29T08:38:44Z</time>
      </trkpt>
      <trkpt lat="43.3240200" lon="-1.9010880">
        <ele>24.0</ele>
        <time>2022-10-29T08:38:45Z</time>
      </trkpt>
      <trkpt lat="43.3241270" lon="-1.9012350">
        <ele>24.0</ele>
        <time>2022-10-29T08:38:47Z</time>
      </trkpt>
      <trkpt lat="43.3242650" lon="-1.9014580">
        <ele>24.0</ele>
        <time>2022-10-29T08:38:50Z</time>
      </trkpt>
      <trkpt lat="43.3243020" lon="-1.9015390">
        <ele>24.0</ele>
        <time>2022-10-29T08:38:51Z</time>
      </trkpt>
      <trkpt lat="43.3243290" lon="-1.9016020">
        <ele>24.2</ele>
        <time>2022-10-29T08:38:52Z</time>
      </trkpt>
      <trkpt lat="43.3243630" lon="-1.9016790">
        <ele>24.2</ele>
        <time>2022-10-29T08:38:53Z</time>
      </trkpt>
      <trkpt lat="43.3243930" lon="-1.9017570">
        <ele>24.4</ele>
        <time>2022-10-29T08:38:54Z</time>
      </trkpt>
      <trkpt lat="43.3244230" lon="-1.9018500">
        <ele>24.6</ele>
        <time>2022-10-29T08:38:55Z</time>
      </trkpt>
      <trkpt lat="43.3244440" lon="-1.9019310">
        <ele>24.8</ele>
        <time>2022-10-29T08:38:56Z</time>
      </trkpt>
      <trkpt lat="43.3244650" lon="-1.9020120">
        <ele>24.8</ele>
        <time>2022-10-29T08:38:57Z</time>
      </trkpt>
      <trkpt lat="43.3244820" lon="-1.9020820">
        <ele>25.0</ele>
        <time>2022-10-29T08:38:58Z</time>
      </trkpt>
      <trkpt lat="43.3244990" lon="-1.9021710">
        <ele>25.2</ele>
        <time>2022-10-29T08:38:59Z</time>
      </trkpt>
      <trkpt lat="43.3245440" lon="-1.9025380">
        <ele>25.4</ele>
        <time>2022-10-29T08:39:03Z</time>
      </trkpt>
      <trkpt lat="43.3245670" lon="-1.9029230">
        <ele>25.8</ele>
        <time>2022-10-29T08:39:07Z</time>
      </trkpt>
      <trkpt lat="43.3245850" lon="-1.9032420">
        <ele>25.8</ele>
        <time>2022-10-29T08:39:10Z</time>
      </trkpt>
      <trkpt lat="43.3246770" lon="-1.9038360">
        <ele>26.0</ele>
        <time>2022-10-29T08:39:16Z</time>
      </trkpt>
      <trkpt lat="43.3246840" lon="-1.9039140">
        <ele>26.0</ele>
        <time>2022-10-29T08:39:17Z</time>
      </trkpt>
      <trkpt lat="43.3246750" lon="-1.9043230">
        <ele>26.2</ele>
        <time>2022-10-29T08:39:21Z</time>
      </trkpt>
      <trkpt lat="43.3246520" lon="-1.9045070">
        <ele>26.2</ele>
        <time>2022-10-29T08:39:23Z</time>
      </trkpt>
      <trkpt lat="43.3246410" lon="-1.9045780">
        <ele>26.2</ele>
        <time>2022-10-29T08:39:24Z</time>
      </trkpt>
      <trkpt lat="43.3246260" lon="-1.9046860">
        <ele>26.2</ele>
        <time>2022-10-29T08:39:25Z</time>
      </trkpt>
      <trkpt lat="43.3246120" lon="-1.9047790">
        <ele>26.2</ele>
        <time>2022-10-29T08:39:26Z</time>
      </trkpt>
      <trkpt lat="43.3246020" lon="-1.9048530">
        <ele>26.2</ele>
        <time>2022-10-29T08:39:27Z</time>
      </trkpt>
      <trkpt lat="43.3245850" lon="-1.9049630">
        <ele>26.4</ele>
        <time>2022-10-29T08:39:28Z</time>
      </trkpt>
      <trkpt lat="43.3245730" lon="-1.9050380">
        <ele>26.4</ele>
        <time>2022-10-29T08:39:29Z</time>
      </trkpt>
      <trkpt lat="43.3245270" lon="-1.9053150">
        <ele>26.4</ele>
        <time>2022-10-29T08:39:32Z</time>
      </trkpt>
      <trkpt lat="43.3245120" lon="-1.9054240">
        <ele>26.4</ele>
        <time>2022-10-29T08:39:33Z</time>
      </trkpt>
      <trkpt lat="43.3244570" lon="-1.9057770">
        <ele>26.8</ele>
        <time>2022-10-29T08:39:37Z</time>
      </trkpt>
      <trkpt lat="43.3244420" lon="-1.9058900">
        <ele>26.8</ele>
        <time>2022-10-29T08:39:38Z</time>
      </trkpt>
      <trkpt lat="43.3243590" lon="-1.9064740">
        <ele>26.8</ele>
        <time>2022-10-29T08:39:44Z</time>
      </trkpt>
      <trkpt lat="43.3243400" lon="-1.9065750">
        <ele>26.8</ele>
        <time>2022-10-29T08:39:45Z</time>
      </trkpt>
      <trkpt lat="43.3243270" lon="-1.9066560">
        <ele>26.8</ele>
        <time>2022-10-29T08:39:46Z</time>
      </trkpt>
      <trkpt lat="43.3243060" lon="-1.9067810">
        <ele>26.6</ele>
        <time>2022-10-29T08:39:47Z</time>
      </trkpt>
      <trkpt lat="43.3242520" lon="-1.9070730">
        <ele>26.4</ele>
        <time>2022-10-29T08:39:50Z</time>
      </trkpt>
      <trkpt lat="43.3242080" lon="-1.9073080">
        <ele>25.6</ele>
        <time>2022-10-29T08:39:52Z</time>
      </trkpt>
      <trkpt lat="43.3241910" lon="-1.9074140">
        <ele>25.4</ele>
        <time>2022-10-29T08:39:53Z</time>
      </trkpt>
      <trkpt lat="43.3241640" lon="-1.9076040">
        <ele>25.2</ele>
        <time>2022-10-29T08:39:55Z</time>
      </trkpt>
      <trkpt lat="43.3241510" lon="-1.9077070">
        <ele>25.0</ele>
        <time>2022-10-29T08:39:56Z</time>
      </trkpt>
      <trkpt lat="43.3241190" lon="-1.9080220">
        <ele>24.4</ele>
        <time>2022-10-29T08:39:59Z</time>
      </trkpt>
      <trkpt lat="43.3241120" lon="-1.9083540">
        <ele>22.8</ele>
        <time>2022-10-29T08:40:02Z</time>
      </trkpt>
      <trkpt lat="43.3241600" lon="-1.9086990">
        <ele>21.4</ele>
        <time>2022-10-29T08:40:05Z</time>
      </trkpt>
      <trkpt lat="43.3241850" lon="-1.9088170">
        <ele>21.2</ele>
        <time>2022-10-29T08:40:06Z</time>
      </trkpt>
      <trkpt lat="43.3242160" lon="-1.9089310">
        <ele>20.2</ele>
        <time>2022-10-29T08:40:07Z</time>
      </trkpt>
      <trkpt lat="43.3242920" lon="-1.9091600">
        <ele>19.2</ele>
        <time>2022-10-29T08:40:09Z</time>
      </trkpt>
      <trkpt lat="43.3243280" lon="-1.9092780">
        <ele>19.2</ele>
        <time>2022-10-29T08:40:10Z</time>
      </trkpt>
      <trkpt lat="43.3243760" lon="-1.9094170">
        <ele>18.6</ele>
        <time>2022-10-29T08:40:11Z</time>
      </trkpt>
      <trkpt lat="43.3244280" lon="-1.9095220">
        <ele>17.8</ele>
        <time>2022-10-29T08:40:12Z</time>
      </trkpt>
      <trkpt lat="43.3244850" lon="-1.9096140">
        <ele>17.4</ele>
        <time>2022-10-29T08:40:13Z</time>
      </trkpt>
      <trkpt lat="43.3245570" lon="-1.9096790">
        <ele>16.8</ele>
        <time>2022-10-29T08:40:14Z</time>
      </trkpt>
      <trkpt lat="43.3246180" lon="-1.9097100">
        <ele>16.8</ele>
        <time>2022-10-29T08:40:15Z</time>
      </trkpt>
      <trkpt lat="43.3247080" lon="-1.9097400">
        <ele>16.2</ele>
        <time>2022-10-29T08:40:16Z</time>
      </trkpt>
      <trkpt lat="43.3247780" lon="-1.9097590">
        <ele>16.2</ele>
        <time>2022-10-29T08:40:17Z</time>
      </trkpt>
      <trkpt lat="43.3248450" lon="-1.9097710">
        <ele>15.6</ele>
        <time>2022-10-29T08:40:18Z</time>
      </trkpt>
      <trkpt lat="43.3248960" lon="-1.9097760">
        <ele>15.2</ele>
        <time>2022-10-29T08:40:19Z</time>
      </trkpt>
      <trkpt lat="43.3249710" lon="-1.9097860">
        <ele>15.0</ele>
        <time>2022-10-29T08:40:20Z</time>
      </trkpt>
      <trkpt lat="43.3250280" lon="-1.9097900">
        <ele>14.8</ele>
        <time>2022-10-29T08:40:21Z</time>
      </trkpt>
      <trkpt lat="43.3250810" lon="-1.9097920">
        <ele>14.8</ele>
        <time>2022-10-29T08:40:22Z</time>
      </trkpt>
      <trkpt lat="43.3251310" lon="-1.9097950">
        <ele>14.8</ele>
        <time>2022-10-29T08:40:23Z</time>
      </trkpt>
      <trkpt lat="43.3251760" lon="-1.9098000">
        <ele>14.8</ele>
        <time>2022-10-29T08:40:24Z</time>
      </trkpt>
      <trkpt lat="43.3252190" lon="-1.9098030">
        <ele>14.8</ele>
        <time>2022-10-29T08:40:25Z</time>
      </trkpt>
      <trkpt lat="43.3252600" lon="-1.9098060">
        <ele>14.8</ele>
        <time>2022-10-29T08:40:26Z</time>
      </trkpt>
      <trkpt lat="43.3253010" lon="-1.9098100">
        <ele>15.0</ele>
        <time>2022-10-29T08:40:27Z</time>
      </trkpt>
      <trkpt lat="43.3253420" lon="-1.9098170">
        <ele>15.2</ele>
        <time>2022-10-29T08:40:28Z</time>
      </trkpt>
      <trkpt lat="43.3253740" lon="-1.9098200">
        <ele>15.8</ele>
        <time>2022-10-29T08:40:29Z</time>
      </trkpt>
      <trkpt lat="43.3254550" lon="-1.9098250">
        <ele>16.2</ele>
        <time>2022-10-29T08:40:31Z</time>
      </trkpt>
      <trkpt lat="43.3254880" lon="-1.9098280">
        <ele>16.6</ele>
        <time>2022-10-29T08:40:32Z</time>
      </trkpt>
      <trkpt lat="43.3255220" lon="-1.9098340">
        <ele>16.8</ele>
        <time>2022-10-29T08:40:33Z</time>
      </trkpt>
      <trkpt lat="43.3255480" lon="-1.9098370">
        <ele>17.2</ele>
        <time>2022-10-29T08:40:34Z</time>
      </trkpt>
      <trkpt lat="43.3255820" lon="-1.9098390">
        <ele>17.6</ele>
        <time>2022-10-29T08:40:35Z</time>
      </trkpt>
      <trkpt lat="43.3256230" lon="-1.9098360">
        <ele>17.8</ele>
        <time>2022-10-29T08:40:36Z</time>
      </trkpt>
      <trkpt lat="43.3256540" lon="-1.9098330">
        <ele>18.0</ele>
        <time>2022-10-29T08:40:37Z</time>
      </trkpt>
      <trkpt lat="43.3256850" lon="-1.9098280">
        <ele>18.4</ele>
        <time>2022-10-29T08:40:38Z</time>
      </trkpt>
      <trkpt lat="43.3257150" lon="-1.9098220">
        <ele>18.6</ele>
        <time>2022-10-29T08:40:39Z</time>
      </trkpt>
      <trkpt lat="43.3257460" lon="-1.9098180">
        <ele>19.0</ele>
        <time>2022-10-29T08:40:40Z</time>
      </trkpt>
      <trkpt lat="43.3257750" lon="-1.9098150">
        <ele>19.2</ele>
        <time>2022-10-29T08:40:41Z</time>
      </trkpt>
      <trkpt lat="43.3258040" lon="-1.9098110">
        <ele>19.4</ele>
        <time>2022-10-29T08:40:42Z</time>
      </trkpt>
      <trkpt lat="43.3258310" lon="-1.9098040">
        <ele>19.8</ele>
        <time>2022-10-29T08:40:43Z</time>
      </trkpt>
      <trkpt lat="43.3258580" lon="-1.9097980">
        <ele>20.0</ele>
        <time>2022-10-29T08:40:44Z</time>
      </trkpt>
      <trkpt lat="43.3258800" lon="-1.9097920">
        <ele>20.2</ele>
        <time>2022-10-29T08:40:45Z</time>
      </trkpt>
      <trkpt lat="43.3259080" lon="-1.9097840">
        <ele>20.2</ele>
        <time>2022-10-29T08:40:46Z</time>
      </trkpt>
      <trkpt lat="43.3259350" lon="-1.9097780">
        <ele>20.8</ele>
        <time>2022-10-29T08:40:47Z</time>
      </trkpt>
      <trkpt lat="43.3259670" lon="-1.9097670">
        <ele>21.0</ele>
        <time>2022-10-29T08:40:48Z</time>
      </trkpt>
      <trkpt lat="43.3259900" lon="-1.9097610">
        <ele>21.6</ele>
        <time>2022-10-29T08:40:49Z</time>
      </trkpt>
      <trkpt lat="43.3260130" lon="-1.9097540">
        <ele>21.8</ele>
        <time>2022-10-29T08:40:50Z</time>
      </trkpt>
      <trkpt lat="43.3260340" lon="-1.9097470">
        <ele>22.2</ele>
        <time>2022-10-29T08:40:51Z</time>
      </trkpt>
      <trkpt lat="43.3260550" lon="-1.9097420">
        <ele>22.6</ele>
        <time>2022-10-29T08:40:52Z</time>
      </trkpt>
      <trkpt lat="43.3260720" lon="-1.9097380">
        <ele>23.0</ele>
        <time>2022-10-29T08:40:53Z</time>
      </trkpt>
      <trkpt lat="43.3260980" lon="-1.9097300">
        <ele>23.4</ele>
        <time>2022-10-29T08:40:54Z</time>
      </trkpt>
      <trkpt lat="43.3261210" lon="-1.9097220">
        <ele>23.6</ele>
        <time>2022-10-29T08:40:55Z</time>
      </trkpt>
      <trkpt lat="43.3261400" lon="-1.9097210">
        <ele>23.8</ele>
        <time>2022-10-29T08:40:56Z</time>
      </trkpt>
      <trkpt lat="43.3261670" lon="-1.9097170">
        <ele>24.0</ele>
        <time>2022-10-29T08:40:57Z</time>
      </trkpt>
      <trkpt lat="43.3261900" lon="-1.9097120">
        <ele>24.2</ele>
        <time>2022-10-29T08:40:58Z</time>
      </trkpt>
      <trkpt lat="43.3262070" lon="-1.9097080">
        <ele>24.2</ele>
        <time>2022-10-29T08:40:59Z</time>
      </trkpt>
      <trkpt lat="43.3262360" lon="-1.9097010">
        <ele>24.4</ele>
        <time>2022-10-29T08:41:00Z</time>
      </trkpt>
      <trkpt lat="43.3262600" lon="-1.9096960">
        <ele>24.6</ele>
        <time>2022-10-29T08:41:01Z</time>
      </trkpt>
      <trkpt lat="43.3262780" lon="-1.9096910">
        <ele>25.0</ele>
        <time>2022-10-29T08:41:02Z</time>
      </trkpt>
      <trkpt lat="43.3263020" lon="-1.9096860">
        <ele>25.4</ele>
        <time>2022-10-29T08:41:03Z</time>
      </trkpt>
      <trkpt lat="43.3263250" lon="-1.9096850">
        <ele>25.6</ele>
        <time>2022-10-29T08:41:04Z</time>
      </trkpt>
      <trkpt lat="43.3263520" lon="-1.9096850">
        <ele>26.0</ele>
        <time>2022-10-29T08:41:05Z</time>
      </trkpt>
      <trkpt lat="43.3263710" lon="-1.9096840">
        <ele>26.2</ele>
        <time>2022-10-29T08:41:06Z</time>
      </trkpt>
      <trkpt lat="43.3263940" lon="-1.9096860">
        <ele>26.4</ele>
        <time>2022-10-29T08:41:07Z</time>
      </trkpt>
      <trkpt lat="43.3264170" lon="-1.9096870">
        <ele>26.6</ele>
        <time>2022-10-29T08:41:08Z</time>
      </trkpt>
      <trkpt lat="43.3264470" lon="-1.9096860">
        <ele>26.8</ele>
        <time>2022-10-29T08:41:09Z</time>
      </trkpt>
      <trkpt lat="43.3264670" lon="-1.9096860">
        <ele>26.8</ele>
        <time>2022-10-29T08:41:10Z</time>
      </trkpt>
      <trkpt lat="43.3264920" lon="-1.9096850">
        <ele>27.4</ele>
        <time>2022-10-29T08:41:11Z</time>
      </trkpt>
      <trkpt lat="43.3265100" lon="-1.9096840">
        <ele>27.6</ele>
        <time>2022-10-29T08:41:12Z</time>
      </trkpt>
      <trkpt lat="43.3265320" lon="-1.9096790">
        <ele>27.8</ele>
        <time>2022-10-29T08:41:13Z</time>
      </trkpt>
      <trkpt lat="43.3265580" lon="-1.9096740">
        <ele>28.2</ele>
        <time>2022-10-29T08:41:14Z</time>
      </trkpt>
      <trkpt lat="43.3265810" lon="-1.9096710">
        <ele>28.6</ele>
        <time>2022-10-29T08:41:15Z</time>
      </trkpt>
      <trkpt lat="43.3266030" lon="-1.9096740">
        <ele>28.8</ele>
        <time>2022-10-29T08:41:16Z</time>
      </trkpt>
      <trkpt lat="43.3266240" lon="-1.9096750">
        <ele>29.0</ele>
        <time>2022-10-29T08:41:17Z</time>
      </trkpt>
      <trkpt lat="43.3266470" lon="-1.9096750">
        <ele>29.4</ele>
        <time>2022-10-29T08:41:18Z</time>
      </trkpt>
      <trkpt lat="43.3266690" lon="-1.9096740">
        <ele>29.4</ele>
        <time>2022-10-29T08:41:19Z</time>
      </trkpt>
      <trkpt lat="43.3266920" lon="-1.9096730">
        <ele>29.8</ele>
        <time>2022-10-29T08:41:20Z</time>
      </trkpt>
      <trkpt lat="43.3267160" lon="-1.9096750">
        <ele>30.0</ele>
        <time>2022-10-29T08:41:21Z</time>
      </trkpt>
      <trkpt lat="43.3267350" lon="-1.9096780">
        <ele>30.2</ele>
        <time>2022-10-29T08:41:22Z</time>
      </trkpt>
      <trkpt lat="43.3267580" lon="-1.9096820">
        <ele>30.4</ele>
        <time>2022-10-29T08:41:23Z</time>
      </trkpt>
      <trkpt lat="43.3267850" lon="-1.9096860">
        <ele>30.6</ele>
        <time>2022-10-29T08:41:24Z</time>
      </trkpt>
      <trkpt lat="43.3268090" lon="-1.9096890">
        <ele>30.8</ele>
        <time>2022-10-29T08:41:25Z</time>
      </trkpt>
      <trkpt lat="43.3268320" lon="-1.9096880">
        <ele>31.0</ele>
        <time>2022-10-29T08:41:26Z</time>
      </trkpt>
      <trkpt lat="43.3268490" lon="-1.9096890">
        <ele>31.4</ele>
        <time>2022-10-29T08:41:27Z</time>
      </trkpt>
      <trkpt lat="43.3268740" lon="-1.9096900">
        <ele>31.6</ele>
        <time>2022-10-29T08:41:28Z</time>
      </trkpt>
      <trkpt lat="43.3268990" lon="-1.9096960">
        <ele>31.8</ele>
        <time>2022-10-29T08:41:29Z</time>
      </trkpt>
      <trkpt lat="43.3269230" lon="-1.9096930">
        <ele>31.8</ele>
        <time>2022-10-29T08:41:30Z</time>
      </trkpt>
      <trkpt lat="43.3269490" lon="-1.9096940">
        <ele>32.0</ele>
        <time>2022-10-29T08:41:31Z</time>
      </trkpt>
      <trkpt lat="43.3269740" lon="-1.9096930">
        <ele>32.4</ele>
        <time>2022-10-29T08:41:32Z</time>
      </trkpt>
      <trkpt lat="43.3269990" lon="-1.9096920">
        <ele>32.4</ele>
        <time>2022-10-29T08:41:33Z</time>
      </trkpt>
      <trkpt lat="43.3270230" lon="-1.9096910">
        <ele>32.8</ele>
        <time>2022-10-29T08:41:34Z</time>
      </trkpt>
      <trkpt lat="43.3270460" lon="-1.9096850">
        <ele>33.0</ele>
        <time>2022-10-29T08:41:35Z</time>
      </trkpt>
      <trkpt lat="43.3270690" lon="-1.9096810">
        <ele>33.6</ele>
        <time>2022-10-29T08:41:36Z</time>
      </trkpt>
      <trkpt lat="43.3270910" lon="-1.9096790">
        <ele>33.8</ele>
        <time>2022-10-29T08:41:37Z</time>
      </trkpt>
      <trkpt lat="43.3271140" lon="-1.9096760">
        <ele>34.2</ele>
        <time>2022-10-29T08:41:38Z</time>
      </trkpt>
      <trkpt lat="43.3271370" lon="-1.9096740">
        <ele>34.4</ele>
        <time>2022-10-29T08:41:39Z</time>
      </trkpt>
      <trkpt lat="43.3271560" lon="-1.9096680">
        <ele>34.6</ele>
        <time>2022-10-29T08:41:40Z</time>
      </trkpt>
      <trkpt lat="43.3271770" lon="-1.9096650">
        <ele>34.8</ele>
        <time>2022-10-29T08:41:41Z</time>
      </trkpt>
      <trkpt lat="43.3271950" lon="-1.9096650">
        <ele>35.0</ele>
        <time>2022-10-29T08:41:42Z</time>
      </trkpt>
      <trkpt lat="43.3272180" lon="-1.9096550">
        <ele>35.4</ele>
        <time>2022-10-29T08:41:43Z</time>
      </trkpt>
      <trkpt lat="43.3272380" lon="-1.9096460">
        <ele>35.6</ele>
        <time>2022-10-29T08:41:44Z</time>
      </trkpt>
      <trkpt lat="43.3272590" lon="-1.9096400">
        <ele>36.0</ele>
        <time>2022-10-29T08:41:45Z</time>
      </trkpt>
      <trkpt lat="43.3272790" lon="-1.9096250">
        <ele>36.2</ele>
        <time>2022-10-29T08:41:46Z</time>
      </trkpt>
      <trkpt lat="43.3272980" lon="-1.9096030">
        <ele>36.6</ele>
        <time>2022-10-29T08:41:47Z</time>
      </trkpt>
      <trkpt lat="43.3273140" lon="-1.9095790">
        <ele>36.6</ele>
        <time>2022-10-29T08:41:48Z</time>
      </trkpt>
      <trkpt lat="43.3273300" lon="-1.9095520">
        <ele>37.0</ele>
        <time>2022-10-29T08:41:49Z</time>
      </trkpt>
      <trkpt lat="43.3273500" lon="-1.9095280">
        <ele>37.2</ele>
        <time>2022-10-29T08:41:50Z</time>
      </trkpt>
      <trkpt lat="43.3273650" lon="-1.9095100">
        <ele>37.4</ele>
        <time>2022-10-29T08:41:51Z</time>
      </trkpt>
      <trkpt lat="43.3273840" lon="-1.9094820">
        <ele>37.8</ele>
        <time>2022-10-29T08:41:52Z</time>
      </trkpt>
      <trkpt lat="43.3273990" lon="-1.9094560">
        <ele>37.8</ele>
        <time>2022-10-29T08:41:53Z</time>
      </trkpt>
      <trkpt lat="43.3274150" lon="-1.9094340">
        <ele>38.0</ele>
        <time>2022-10-29T08:41:54Z</time>
      </trkpt>
      <trkpt lat="43.3274320" lon="-1.9094130">
        <ele>38.2</ele>
        <time>2022-10-29T08:41:55Z</time>
      </trkpt>
      <trkpt lat="43.3274470" lon="-1.9093890">
        <ele>38.6</ele>
        <time>2022-10-29T08:41:56Z</time>
      </trkpt>
      <trkpt lat="43.3274570" lon="-1.9093630">
        <ele>38.8</ele>
        <time>2022-10-29T08:41:57Z</time>
      </trkpt>
      <trkpt lat="43.3274650" lon="-1.9093390">
        <ele>39.2</ele>
        <time>2022-10-29T08:41:58Z</time>
      </trkpt>
      <trkpt lat="43.3274750" lon="-1.9093170">
        <ele>39.4</ele>
        <time>2022-10-29T08:41:59Z</time>
      </trkpt>
      <trkpt lat="43.3274840" lon="-1.9092880">
        <ele>40.0</ele>
        <time>2022-10-29T08:42:00Z</time>
      </trkpt>
      <trkpt lat="43.3274900" lon="-1.9092580">
        <ele>40.4</ele>
        <time>2022-10-29T08:42:01Z</time>
      </trkpt>
      <trkpt lat="43.3274930" lon="-1.9092250">
        <ele>40.4</ele>
        <time>2022-10-29T08:42:02Z</time>
      </trkpt>
      <trkpt lat="43.3274960" lon="-1.9091940">
        <ele>41.0</ele>
        <time>2022-10-29T08:42:03Z</time>
      </trkpt>
      <trkpt lat="43.3275000" lon="-1.9091620">
        <ele>41.0</ele>
        <time>2022-10-29T08:42:04Z</time>
      </trkpt>
      <trkpt lat="43.3275060" lon="-1.9091360">
        <ele>41.6</ele>
        <time>2022-10-29T08:42:05Z</time>
      </trkpt>
      <trkpt lat="43.3275130" lon="-1.9091050">
        <ele>41.8</ele>
        <time>2022-10-29T08:42:06Z</time>
      </trkpt>
      <trkpt lat="43.3275210" lon="-1.9090690">
        <ele>42.2</ele>
        <time>2022-10-29T08:42:07Z</time>
      </trkpt>
      <trkpt lat="43.3275280" lon="-1.9090430">
        <ele>42.4</ele>
        <time>2022-10-29T08:42:08Z</time>
      </trkpt>
      <trkpt lat="43.3275350" lon="-1.9090140">
        <ele>43.0</ele>
        <time>2022-10-29T08:42:09Z</time>
      </trkpt>
      <trkpt lat="43.3275380" lon="-1.9089860">
        <ele>43.2</ele>
        <time>2022-10-29T08:42:10Z</time>
      </trkpt>
      <trkpt lat="43.3275420" lon="-1.9089590">
        <ele>43.6</ele>
        <time>2022-10-29T08:42:11Z</time>
      </trkpt>
      <trkpt lat="43.3275460" lon="-1.9089340">
        <ele>44.0</ele>
        <time>2022-10-29T08:42:12Z</time>
      </trkpt>
      <trkpt lat="43.3275500" lon="-1.9088980">
        <ele>44.2</ele>
        <time>2022-10-29T08:42:13Z</time>
      </trkpt>
      <trkpt lat="43.3275570" lon="-1.9088680">
        <ele>44.8</ele>
        <time>2022-10-29T08:42:14Z</time>
      </trkpt>
      <trkpt lat="43.3275630" lon="-1.9088410">
        <ele>44.8</ele>
        <time>2022-10-29T08:42:15Z</time>
      </trkpt>
      <trkpt lat="43.3275690" lon="-1.9088170">
        <ele>45.4</ele>
        <time>2022-10-29T08:42:16Z</time>
      </trkpt>
      <trkpt lat="43.3275770" lon="-1.9087810">
        <ele>45.4</ele>
        <time>2022-10-29T08:42:17Z</time>
      </trkpt>
      <trkpt lat="43.3275850" lon="-1.9087540">
        <ele>45.8</ele>
        <time>2022-10-29T08:42:18Z</time>
      </trkpt>
      <trkpt lat="43.3275950" lon="-1.9087240">
        <ele>46.0</ele>
        <time>2022-10-29T08:42:19Z</time>
      </trkpt>
      <trkpt lat="43.3276040" lon="-1.9086960">
        <ele>46.4</ele>
        <time>2022-10-29T08:42:20Z</time>
      </trkpt>
      <trkpt lat="43.3276120" lon="-1.9086740">
        <ele>46.6</ele>
        <time>2022-10-29T08:42:21Z</time>
      </trkpt>
      <trkpt lat="43.3276170" lon="-1.9086480">
        <ele>46.8</ele>
        <time>2022-10-29T08:42:22Z</time>
      </trkpt>
      <trkpt lat="43.3276230" lon="-1.9086220">
        <ele>47.2</ele>
        <time>2022-10-29T08:42:23Z</time>
      </trkpt>
      <trkpt lat="43.3276290" lon="-1.9085970">
        <ele>47.2</ele>
        <time>2022-10-29T08:42:24Z</time>
      </trkpt>
      <trkpt lat="43.3276430" lon="-1.9085650">
        <ele>47.6</ele>
        <time>2022-10-29T08:42:25Z</time>
      </trkpt>
      <trkpt lat="43.3276540" lon="-1.9085300">
        <ele>47.8</ele>
        <time>2022-10-29T08:42:26Z</time>
      </trkpt>
      <trkpt lat="43.3276640" lon="-1.9085020">
        <ele>48.2</ele>
        <time>2022-10-29T08:42:27Z</time>
      </trkpt>
      <trkpt lat="43.3276700" lon="-1.9084770">
        <ele>48.4</ele>
        <time>2022-10-29T08:42:28Z</time>
      </trkpt>
      <trkpt lat="43.3276790" lon="-1.9084490">
        <ele>48.4</ele>
        <time>2022-10-29T08:42:29Z</time>
      </trkpt>
      <trkpt lat="43.3276870" lon="-1.9084270">
        <ele>48.8</ele>
        <time>2022-10-29T08:42:30Z</time>
      </trkpt>
      <trkpt lat="43.3276910" lon="-1.9084030">
        <ele>48.8</ele>
        <time>2022-10-29T08:42:31Z</time>
      </trkpt>
      <trkpt lat="43.3276960" lon="-1.9083770">
        <ele>49.4</ele>
        <time>2022-10-29T08:42:32Z</time>
      </trkpt>
      <trkpt lat="43.3277080" lon="-1.9083520">
        <ele>49.6</ele>
        <time>2022-10-29T08:42:33Z</time>
      </trkpt>
      <trkpt lat="43.3277200" lon="-1.9083240">
        <ele>50.0</ele>
        <time>2022-10-29T08:42:34Z</time>
      </trkpt>
      <trkpt lat="43.3277250" lon="-1.9083030">
        <ele>50.2</ele>
        <time>2022-10-29T08:42:35Z</time>
      </trkpt>
      <trkpt lat="43.3277240" lon="-1.9082840">
        <ele>50.6</ele>
        <time>2022-10-29T08:42:36Z</time>
      </trkpt>
      <trkpt lat="43.3277270" lon="-1.9082560">
        <ele>50.6</ele>
        <time>2022-10-29T08:42:37Z</time>
      </trkpt>
      <trkpt lat="43.3277460" lon="-1.9082070">
        <ele>50.8</ele>
        <time>2022-10-29T08:42:38Z</time>
      </trkpt>
      <trkpt lat="43.3277550" lon="-1.9081740">
        <ele>51.0</ele>
        <time>2022-10-29T08:42:39Z</time>
      </trkpt>
      <trkpt lat="43.3277610" lon="-1.9081420">
        <ele>51.0</ele>
        <time>2022-10-29T08:42:40Z</time>
      </trkpt>
      <trkpt lat="43.3277790" lon="-1.9081000">
        <ele>51.4</ele>
        <time>2022-10-29T08:42:41Z</time>
      </trkpt>
      <trkpt lat="43.3278150" lon="-1.9080240">
        <ele>51.4</ele>
        <time>2022-10-29T08:42:42Z</time>
      </trkpt>
      <trkpt lat="43.3278230" lon="-1.9079930">
        <ele>51.8</ele>
        <time>2022-10-29T08:42:43Z</time>
      </trkpt>
      <trkpt lat="43.3278350" lon="-1.9079640">
        <ele>52.0</ele>
        <time>2022-10-29T08:42:44Z</time>
      </trkpt>
      <trkpt lat="43.3278430" lon="-1.9079320">
        <ele>52.2</ele>
        <time>2022-10-29T08:42:45Z</time>
      </trkpt>
      <trkpt lat="43.3278440" lon="-1.9078940">
        <ele>52.4</ele>
        <time>2022-10-29T08:42:46Z</time>
      </trkpt>
      <trkpt lat="43.3278490" lon="-1.9078530">
        <ele>52.6</ele>
        <time>2022-10-29T08:42:47Z</time>
      </trkpt>
      <trkpt lat="43.3278550" lon="-1.9078100">
        <ele>52.6</ele>
        <time>2022-10-29T08:42:48Z</time>
      </trkpt>
      <trkpt lat="43.3278620" lon="-1.9077610">
        <ele>53.0</ele>
        <time>2022-10-29T08:42:49Z</time>
      </trkpt>
      <trkpt lat="43.3278760" lon="-1.9077250">
        <ele>53.2</ele>
        <time>2022-10-29T08:42:50Z</time>
      </trkpt>
      <trkpt lat="43.3278840" lon="-1.9076980">
        <ele>53.4</ele>
        <time>2022-10-29T08:42:51Z</time>
      </trkpt>
      <trkpt lat="43.3278950" lon="-1.9076740">
        <ele>53.8</ele>
        <time>2022-10-29T08:42:52Z</time>
      </trkpt>
      <trkpt lat="43.3279140" lon="-1.9076300">
        <ele>54.0</ele>
        <time>2022-10-29T08:42:53Z</time>
      </trkpt>
      <trkpt lat="43.3279260" lon="-1.9075940">
        <ele>54.2</ele>
        <time>2022-10-29T08:42:54Z</time>
      </trkpt>
      <trkpt lat="43.3279330" lon="-1.9075560">
        <ele>54.4</ele>
        <time>2022-10-29T08:42:55Z</time>
      </trkpt>
      <trkpt lat="43.3279470" lon="-1.9075230">
        <ele>54.8</ele>
        <time>2022-10-29T08:42:56Z</time>
      </trkpt>
      <trkpt lat="43.3279590" lon="-1.9074900">
        <ele>55.2</ele>
        <time>2022-10-29T08:42:57Z</time>
      </trkpt>
      <trkpt lat="43.3279630" lon="-1.9074510">
        <ele>55.2</ele>
        <time>2022-10-29T08:42:58Z</time>
      </trkpt>
      <trkpt lat="43.3279680" lon="-1.9074170">
        <ele>55.4</ele>
        <time>2022-10-29T08:42:59Z</time>
      </trkpt>
      <trkpt lat="43.3279680" lon="-1.9073930">
        <ele>55.8</ele>
        <time>2022-10-29T08:43:00Z</time>
      </trkpt>
      <trkpt lat="43.3279870" lon="-1.9073550">
        <ele>56.2</ele>
        <time>2022-10-29T08:43:01Z</time>
      </trkpt>
      <trkpt lat="43.3279990" lon="-1.9073210">
        <ele>56.4</ele>
        <time>2022-10-29T08:43:02Z</time>
      </trkpt>
      <trkpt lat="43.3280100" lon="-1.9072900">
        <ele>56.6</ele>
        <time>2022-10-29T08:43:03Z</time>
      </trkpt>
      <trkpt lat="43.3280200" lon="-1.9072600">
        <ele>56.8</ele>
        <time>2022-10-29T08:43:04Z</time>
      </trkpt>
      <trkpt lat="43.3280290" lon="-1.9072280">
        <ele>57.2</ele>
        <time>2022-10-29T08:43:05Z</time>
      </trkpt>
      <trkpt lat="43.3280360" lon="-1.9071940">
        <ele>57.4</ele>
        <time>2022-10-29T08:43:06Z</time>
      </trkpt>
      <trkpt lat="43.3280430" lon="-1.9071600">
        <ele>57.6</ele>
        <time>2022-10-29T08:43:07Z</time>
      </trkpt>
      <trkpt lat="43.3280520" lon="-1.9071220">
        <ele>57.8</ele>
        <time>2022-10-29T08:43:08Z</time>
      </trkpt>
      <trkpt lat="43.3280590" lon="-1.9070790">
        <ele>58.0</ele>
        <time>2022-10-29T08:43:09Z</time>
      </trkpt>
      <trkpt lat="43.3280640" lon="-1.9070390">
        <ele>58.2</ele>
        <time>2022-10-29T08:43:10Z</time>
      </trkpt>
      <trkpt lat="43.3280700" lon="-1.9069980">
        <ele>58.4</ele>
        <time>2022-10-29T08:43:11Z</time>
      </trkpt>
      <trkpt lat="43.3280710" lon="-1.9069580">
        <ele>58.6</ele>
        <time>2022-10-29T08:43:12Z</time>
      </trkpt>
      <trkpt lat="43.3280730" lon="-1.9069240">
        <ele>58.8</ele>
        <time>2022-10-29T08:43:13Z</time>
      </trkpt>
      <trkpt lat="43.3280760" lon="-1.9068870">
        <ele>59.0</ele>
        <time>2022-10-29T08:43:14Z</time>
      </trkpt>
      <trkpt lat="43.3280790" lon="-1.9068420">
        <ele>59.2</ele>
        <time>2022-10-29T08:43:15Z</time>
      </trkpt>
      <trkpt lat="43.3280780" lon="-1.9068060">
        <ele>59.6</ele>
        <time>2022-10-29T08:43:16Z</time>
      </trkpt>
      <trkpt lat="43.3280770" lon="-1.9067700">
        <ele>59.6</ele>
        <time>2022-10-29T08:43:17Z</time>
      </trkpt>
      <trkpt lat="43.3280710" lon="-1.9067340">
        <ele>59.8</ele>
        <time>2022-10-29T08:43:18Z</time>
      </trkpt>
      <trkpt lat="43.3280650" lon="-1.9066960">
        <ele>60.0</ele>
        <time>2022-10-29T08:43:19Z</time>
      </trkpt>
      <trkpt lat="43.3280580" lon="-1.9066580">
        <ele>60.2</ele>
        <time>2022-10-29T08:43:20Z</time>
      </trkpt>
      <trkpt lat="43.3280540" lon="-1.9066190">
        <ele>60.8</ele>
        <time>2022-10-29T08:43:21Z</time>
      </trkpt>
      <trkpt lat="43.3280490" lon="-1.9065810">
        <ele>61.0</ele>
        <time>2022-10-29T08:43:22Z</time>
      </trkpt>
      <trkpt lat="43.3280450" lon="-1.9065430">
        <ele>61.2</ele>
        <time>2022-10-29T08:43:23Z</time>
      </trkpt>
      <trkpt lat="43.3280420" lon="-1.9065050">
        <ele>61.4</ele>
        <time>2022-10-29T08:43:24Z</time>
      </trkpt>
      <trkpt lat="43.3280390" lon="-1.9064740">
        <ele>61.6</ele>
        <time>2022-10-29T08:43:25Z</time>
      </trkpt>
      <trkpt lat="43.3280370" lon="-1.9064480">
        <ele>61.6</ele>
        <time>2022-10-29T08:43:26Z</time>
      </trkpt>
      <trkpt lat="43.3280380" lon="-1.9064140">
        <ele>61.8</ele>
        <time>2022-10-29T08:43:27Z</time>
      </trkpt>
      <trkpt lat="43.3280380" lon="-1.9063790">
        <ele>62.0</ele>
        <time>2022-10-29T08:43:28Z</time>
      </trkpt>
      <trkpt lat="43.3280370" lon="-1.9063520">
        <ele>62.2</ele>
        <time>2022-10-29T08:43:29Z</time>
      </trkpt>
      <trkpt lat="43.3280380" lon="-1.9063210">
        <ele>62.2</ele>
        <time>2022-10-29T08:43:30Z</time>
      </trkpt>
      <trkpt lat="43.3280340" lon="-1.9062900">
        <ele>62.4</ele>
        <time>2022-10-29T08:43:31Z</time>
      </trkpt>
      <trkpt lat="43.3280340" lon="-1.9062590">
        <ele>62.6</ele>
        <time>2022-10-29T08:43:32Z</time>
      </trkpt>
      <trkpt lat="43.3280400" lon="-1.9062370">
        <ele>62.8</ele>
        <time>2022-10-29T08:43:33Z</time>
      </trkpt>
      <trkpt lat="43.3280440" lon="-1.9062130">
        <ele>63.0</ele>
        <time>2022-10-29T08:43:34Z</time>
      </trkpt>
      <trkpt lat="43.3280450" lon="-1.9061860">
        <ele>63.2</ele>
        <time>2022-10-29T08:43:35Z</time>
      </trkpt>
      <trkpt lat="43.3280460" lon="-1.9061540">
        <ele>63.4</ele>
        <time>2022-10-29T08:43:36Z</time>
      </trkpt>
      <trkpt lat="43.3280480" lon="-1.9061310">
        <ele>63.6</ele>
        <time>2022-10-29T08:43:37Z</time>
      </trkpt>
      <trkpt lat="43.3280490" lon="-1.9061090">
        <ele>63.8</ele>
        <time>2022-10-29T08:43:38Z</time>
      </trkpt>
      <trkpt lat="43.3280540" lon="-1.9060870">
        <ele>63.8</ele>
        <time>2022-10-29T08:43:39Z</time>
      </trkpt>
      <trkpt lat="43.3280620" lon="-1.9060640">
        <ele>64.0</ele>
        <time>2022-10-29T08:43:40Z</time>
      </trkpt>
      <trkpt lat="43.3280670" lon="-1.9060340">
        <ele>64.2</ele>
        <time>2022-10-29T08:43:41Z</time>
      </trkpt>
      <trkpt lat="43.3280660" lon="-1.9059960">
        <ele>64.4</ele>
        <time>2022-10-29T08:43:42Z</time>
      </trkpt>
      <trkpt lat="43.3280610" lon="-1.9059520">
        <ele>64.6</ele>
        <time>2022-10-29T08:43:43Z</time>
      </trkpt>
      <trkpt lat="43.3280550" lon="-1.9059100">
        <ele>64.8</ele>
        <time>2022-10-29T08:43:44Z</time>
      </trkpt>
      <trkpt lat="43.3280510" lon="-1.9058690">
        <ele>65.0</ele>
        <time>2022-10-29T08:43:45Z</time>
      </trkpt>
      <trkpt lat="43.3280520" lon="-1.9058320">
        <ele>65.2</ele>
        <time>2022-10-29T08:43:46Z</time>
      </trkpt>
      <trkpt lat="43.3280530" lon="-1.9057970">
        <ele>65.6</ele>
        <time>2022-10-29T08:43:47Z</time>
      </trkpt>
      <trkpt lat="43.3280540" lon="-1.9057610">
        <ele>65.6</ele>
        <time>2022-10-29T08:43:48Z</time>
      </trkpt>
      <trkpt lat="43.3280540" lon="-1.9057210">
        <ele>65.8</ele>
        <time>2022-10-29T08:43:49Z</time>
      </trkpt>
      <trkpt lat="43.3280470" lon="-1.9056800">
        <ele>66.0</ele>
        <time>2022-10-29T08:43:50Z</time>
      </trkpt>
      <trkpt lat="43.3280400" lon="-1.9056360">
        <ele>66.2</ele>
        <time>2022-10-29T08:43:51Z</time>
      </trkpt>
      <trkpt lat="43.3280380" lon="-1.9055860">
        <ele>66.6</ele>
        <time>2022-10-29T08:43:52Z</time>
      </trkpt>
      <trkpt lat="43.3280310" lon="-1.9055350">
        <ele>66.8</ele>
        <time>2022-10-29T08:43:53Z</time>
      </trkpt>
      <trkpt lat="43.3280210" lon="-1.9054940">
        <ele>67.0</ele>
        <time>2022-10-29T08:43:54Z</time>
      </trkpt>
      <trkpt lat="43.3280080" lon="-1.9054460">
        <ele>67.0</ele>
        <time>2022-10-29T08:43:55Z</time>
      </trkpt>
      <trkpt lat="43.3280090" lon="-1.9053940">
        <ele>67.2</ele>
        <time>2022-10-29T08:43:56Z</time>
      </trkpt>
      <trkpt lat="43.3280120" lon="-1.9053490">
        <ele>67.4</ele>
        <time>2022-10-29T08:43:57Z</time>
      </trkpt>
      <trkpt lat="43.3280070" lon="-1.9053080">
        <ele>67.8</ele>
        <time>2022-10-29T08:43:58Z</time>
      </trkpt>
      <trkpt lat="43.3280070" lon="-1.9052630">
        <ele>67.8</ele>
        <time>2022-10-29T08:43:59Z</time>
      </trkpt>
      <trkpt lat="43.3280080" lon="-1.9052140">
        <ele>68.2</ele>
        <time>2022-10-29T08:44:00Z</time>
      </trkpt>
      <trkpt lat="43.3280010" lon="-1.9051520">
        <ele>68.4</ele>
        <time>2022-10-29T08:44:01Z</time>
      </trkpt>
      <trkpt lat="43.3279860" lon="-1.9051000">
        <ele>68.6</ele>
        <time>2022-10-29T08:44:02Z</time>
      </trkpt>
      <trkpt lat="43.3279760" lon="-1.9050570">
        <ele>69.0</ele>
        <time>2022-10-29T08:44:03Z</time>
      </trkpt>
      <trkpt lat="43.3279790" lon="-1.9050130">
        <ele>69.0</ele>
        <time>2022-10-29T08:44:04Z</time>
      </trkpt>
      <trkpt lat="43.3279730" lon="-1.9049790">
        <ele>69.4</ele>
        <time>2022-10-29T08:44:05Z</time>
      </trkpt>
      <trkpt lat="43.3279660" lon="-1.9049560">
        <ele>69.4</ele>
        <time>2022-10-29T08:44:06Z</time>
      </trkpt>
      <trkpt lat="43.3279570" lon="-1.9049240">
        <ele>69.8</ele>
        <time>2022-10-29T08:44:07Z</time>
      </trkpt>
      <trkpt lat="43.3279520" lon="-1.9048880">
        <ele>70.0</ele>
        <time>2022-10-29T08:44:08Z</time>
      </trkpt>
      <trkpt lat="43.3279440" lon="-1.9048490">
        <ele>70.2</ele>
        <time>2022-10-29T08:44:09Z</time>
      </trkpt>
      <trkpt lat="43.3279370" lon="-1.9048180">
        <ele>70.4</ele>
        <time>2022-10-29T08:44:10Z</time>
      </trkpt>
      <trkpt lat="43.3279310" lon="-1.9047860">
        <ele>70.8</ele>
        <time>2022-10-29T08:44:11Z</time>
      </trkpt>
      <trkpt lat="43.3279290" lon="-1.9047500">
        <ele>71.2</ele>
        <time>2022-10-29T08:44:12Z</time>
      </trkpt>
      <trkpt lat="43.3279270" lon="-1.9047150">
        <ele>71.4</ele>
        <time>2022-10-29T08:44:13Z</time>
      </trkpt>
      <trkpt lat="43.3279230" lon="-1.9046820">
        <ele>71.6</ele>
        <time>2022-10-29T08:44:14Z</time>
      </trkpt>
      <trkpt lat="43.3279210" lon="-1.9046480">
        <ele>71.8</ele>
        <time>2022-10-29T08:44:15Z</time>
      </trkpt>
      <trkpt lat="43.3279160" lon="-1.9046120">
        <ele>71.8</ele>
        <time>2022-10-29T08:44:16Z</time>
      </trkpt>
      <trkpt lat="43.3279070" lon="-1.9045780">
        <ele>72.0</ele>
        <time>2022-10-29T08:44:17Z</time>
      </trkpt>
      <trkpt lat="43.3279000" lon="-1.9045420">
        <ele>72.4</ele>
        <time>2022-10-29T08:44:18Z</time>
      </trkpt>
      <trkpt lat="43.3278940" lon="-1.9045080">
        <ele>72.6</ele>
        <time>2022-10-29T08:44:19Z</time>
      </trkpt>
      <trkpt lat="43.3278870" lon="-1.9044780">
        <ele>73.0</ele>
        <time>2022-10-29T08:44:20Z</time>
      </trkpt>
      <trkpt lat="43.3278820" lon="-1.9044540">
        <ele>73.2</ele>
        <time>2022-10-29T08:44:21Z</time>
      </trkpt>
      <trkpt lat="43.3278750" lon="-1.9044150">
        <ele>73.6</ele>
        <time>2022-10-29T08:44:22Z</time>
      </trkpt>
      <trkpt lat="43.3278690" lon="-1.9043780">
        <ele>73.8</ele>
        <time>2022-10-29T08:44:23Z</time>
      </trkpt>
      <trkpt lat="43.3278630" lon="-1.9043440">
        <ele>74.0</ele>
        <time>2022-10-29T08:44:24Z</time>
      </trkpt>
      <trkpt lat="43.3278580" lon="-1.9043090">
        <ele>74.4</ele>
        <time>2022-10-29T08:44:25Z</time>
      </trkpt>
      <trkpt lat="43.3278540" lon="-1.9042760">
        <ele>74.4</ele>
        <time>2022-10-29T08:44:26Z</time>
      </trkpt>
      <trkpt lat="43.3278490" lon="-1.9042430">
        <ele>74.8</ele>
        <time>2022-10-29T08:44:27Z</time>
      </trkpt>
      <trkpt lat="43.3278470" lon="-1.9042120">
        <ele>74.8</ele>
        <time>2022-10-29T08:44:28Z</time>
      </trkpt>
      <trkpt lat="43.3278450" lon="-1.9041820">
        <ele>75.0</ele>
        <time>2022-10-29T08:44:29Z</time>
      </trkpt>
      <trkpt lat="43.3278390" lon="-1.9041510">
        <ele>75.2</ele>
        <time>2022-10-29T08:44:30Z</time>
      </trkpt>
      <trkpt lat="43.3278300" lon="-1.9041210">
        <ele>75.6</ele>
        <time>2022-10-29T08:44:31Z</time>
      </trkpt>
      <trkpt lat="43.3278220" lon="-1.9040890">
        <ele>76.2</ele>
        <time>2022-10-29T08:44:32Z</time>
      </trkpt>
      <trkpt lat="43.3278170" lon="-1.9040570">
        <ele>76.2</ele>
        <time>2022-10-29T08:44:33Z</time>
      </trkpt>
      <trkpt lat="43.3278150" lon="-1.9040210">
        <ele>76.6</ele>
        <time>2022-10-29T08:44:34Z</time>
      </trkpt>
      <trkpt lat="43.3278160" lon="-1.9039850">
        <ele>76.8</ele>
        <time>2022-10-29T08:44:35Z</time>
      </trkpt>
      <trkpt lat="43.3278140" lon="-1.9039480">
        <ele>77.0</ele>
        <time>2022-10-29T08:44:36Z</time>
      </trkpt>
      <trkpt lat="43.3278080" lon="-1.9039140">
        <ele>77.4</ele>
        <time>2022-10-29T08:44:37Z</time>
      </trkpt>
      <trkpt lat="43.3278010" lon="-1.9038790">
        <ele>77.6</ele>
        <time>2022-10-29T08:44:38Z</time>
      </trkpt>
      <trkpt lat="43.3277990" lon="-1.9038440">
        <ele>77.8</ele>
        <time>2022-10-29T08:44:39Z</time>
      </trkpt>
      <trkpt lat="43.3278000" lon="-1.9038080">
        <ele>78.0</ele>
        <time>2022-10-29T08:44:40Z</time>
      </trkpt>
      <trkpt lat="43.3278000" lon="-1.9037720">
        <ele>78.2</ele>
        <time>2022-10-29T08:44:41Z</time>
      </trkpt>
      <trkpt lat="43.3277980" lon="-1.9037370">
        <ele>78.4</ele>
        <time>2022-10-29T08:44:42Z</time>
      </trkpt>
      <trkpt lat="43.3277980" lon="-1.9037010">
        <ele>78.8</ele>
        <time>2022-10-29T08:44:43Z</time>
      </trkpt>
      <trkpt lat="43.3277980" lon="-1.9036650">
        <ele>78.6</ele>
        <time>2022-10-29T08:44:44Z</time>
      </trkpt>
      <trkpt lat="43.3277970" lon="-1.9036300">
        <ele>78.8</ele>
        <time>2022-10-29T08:44:45Z</time>
      </trkpt>
      <trkpt lat="43.3277980" lon="-1.9035960">
        <ele>79.0</ele>
        <time>2022-10-29T08:44:46Z</time>
      </trkpt>
      <trkpt lat="43.3278010" lon="-1.9035620">
        <ele>79.2</ele>
        <time>2022-10-29T08:44:47Z</time>
      </trkpt>
      <trkpt lat="43.3278030" lon="-1.9035270">
        <ele>79.4</ele>
        <time>2022-10-29T08:44:48Z</time>
      </trkpt>
      <trkpt lat="43.3278020" lon="-1.9034920">
        <ele>79.6</ele>
        <time>2022-10-29T08:44:49Z</time>
      </trkpt>
      <trkpt lat="43.3278020" lon="-1.9034560">
        <ele>79.8</ele>
        <time>2022-10-29T08:44:50Z</time>
      </trkpt>
      <trkpt lat="43.3278040" lon="-1.9034210">
        <ele>80.0</ele>
        <time>2022-10-29T08:44:51Z</time>
      </trkpt>
      <trkpt lat="43.3278050" lon="-1.9033880">
        <ele>80.0</ele>
        <time>2022-10-29T08:44:52Z</time>
      </trkpt>
      <trkpt lat="43.3278070" lon="-1.9033570">
        <ele>80.2</ele>
        <time>2022-10-29T08:44:53Z</time>
      </trkpt>
      <trkpt lat="43.3278080" lon="-1.9033180">
        <ele>80.6</ele>
        <time>2022-10-29T08:44:54Z</time>
      </trkpt>
      <trkpt lat="43.3278080" lon="-1.9032830">
        <ele>80.6</ele>
        <time>2022-10-29T08:44:55Z</time>
      </trkpt>
      <trkpt lat="43.3278090" lon="-1.9032470">
        <ele>80.8</ele>
        <time>2022-10-29T08:44:56Z</time>
      </trkpt>
      <trkpt lat="43.3278060" lon="-1.9032120">
        <ele>81.0</ele>
        <time>2022-10-29T08:44:57Z</time>
      </trkpt>
      <trkpt lat="43.3278060" lon="-1.9031750">
        <ele>81.2</ele>
        <time>2022-10-29T08:44:58Z</time>
      </trkpt>
      <trkpt lat="43.3278060" lon="-1.9031420">
        <ele>81.4</ele>
        <time>2022-10-29T08:44:59Z</time>
      </trkpt>
      <trkpt lat="43.3278060" lon="-1.9031100">
        <ele>81.8</ele>
        <time>2022-10-29T08:45:00Z</time>
      </trkpt>
      <trkpt lat="43.3278060" lon="-1.9030760">
        <ele>82.0</ele>
        <time>2022-10-29T08:45:01Z</time>
      </trkpt>
      <trkpt lat="43.3278080" lon="-1.9030420">
        <ele>82.4</ele>
        <time>2022-10-29T08:45:02Z</time>
      </trkpt>
      <trkpt lat="43.3278080" lon="-1.9030070">
        <ele>82.6</ele>
        <time>2022-10-29T08:45:03Z</time>
      </trkpt>
      <trkpt lat="43.3278080" lon="-1.9029720">
        <ele>82.8</ele>
        <time>2022-10-29T08:45:04Z</time>
      </trkpt>
      <trkpt lat="43.3278070" lon="-1.9029350">
        <ele>83.2</ele>
        <time>2022-10-29T08:45:05Z</time>
      </trkpt>
      <trkpt lat="43.3278090" lon="-1.9028990">
        <ele>83.4</ele>
        <time>2022-10-29T08:45:06Z</time>
      </trkpt>
      <trkpt lat="43.3278100" lon="-1.9028640">
        <ele>83.6</ele>
        <time>2022-10-29T08:45:07Z</time>
      </trkpt>
      <trkpt lat="43.3278090" lon="-1.9028280">
        <ele>83.6</ele>
        <time>2022-10-29T08:45:08Z</time>
      </trkpt>
      <trkpt lat="43.3278070" lon="-1.9027930">
        <ele>83.8</ele>
        <time>2022-10-29T08:45:09Z</time>
      </trkpt>
      <trkpt lat="43.3278060" lon="-1.9027600">
        <ele>84.0</ele>
        <time>2022-10-29T08:45:10Z</time>
      </trkpt>
      <trkpt lat="43.3278060" lon="-1.9027280">
        <ele>84.6</ele>
        <time>2022-10-29T08:45:11Z</time>
      </trkpt>
      <trkpt lat="43.3278060" lon="-1.9026960">
        <ele>84.6</ele>
        <time>2022-10-29T08:45:12Z</time>
      </trkpt>
      <trkpt lat="43.3278080" lon="-1.9026640">
        <ele>85.2</ele>
        <time>2022-10-29T08:45:13Z</time>
      </trkpt>
      <trkpt lat="43.3278070" lon="-1.9026290">
        <ele>85.6</ele>
        <time>2022-10-29T08:45:14Z</time>
      </trkpt>
      <trkpt lat="43.3278070" lon="-1.9025930">
        <ele>85.8</ele>
        <time>2022-10-29T08:45:15Z</time>
      </trkpt>
      <trkpt lat="43.3278060" lon="-1.9025590">
        <ele>86.2</ele>
        <time>2022-10-29T08:45:16Z</time>
      </trkpt>
      <trkpt lat="43.3278050" lon="-1.9025280">
        <ele>86.4</ele>
        <time>2022-10-29T08:45:17Z</time>
      </trkpt>
      <trkpt lat="43.3278040" lon="-1.9024960">
        <ele>86.8</ele>
        <time>2022-10-29T08:45:18Z</time>
      </trkpt>
      <trkpt lat="43.3278060" lon="-1.9024610">
        <ele>87.0</ele>
        <time>2022-10-29T08:45:19Z</time>
      </trkpt>
      <trkpt lat="43.3278040" lon="-1.9024260">
        <ele>87.2</ele>
        <time>2022-10-29T08:45:20Z</time>
      </trkpt>
      <trkpt lat="43.3278020" lon="-1.9023930">
        <ele>87.4</ele>
        <time>2022-10-29T08:45:21Z</time>
      </trkpt>
      <trkpt lat="43.3278010" lon="-1.9023630">
        <ele>87.8</ele>
        <time>2022-10-29T08:45:22Z</time>
      </trkpt>
      <trkpt lat="43.3278000" lon="-1.9023340">
        <ele>88.0</ele>
        <time>2022-10-29T08:45:23Z</time>
      </trkpt>
      <trkpt lat="43.3278000" lon="-1.9023000">
        <ele>88.2</ele>
        <time>2022-10-29T08:45:24Z</time>
      </trkpt>
      <trkpt lat="43.3278010" lon="-1.9022670">
        <ele>88.6</ele>
        <time>2022-10-29T08:45:25Z</time>
      </trkpt>
      <trkpt lat="43.3278030" lon="-1.9022320">
        <ele>88.8</ele>
        <time>2022-10-29T08:45:26Z</time>
      </trkpt>
      <trkpt lat="43.3278030" lon="-1.9021970">
        <ele>89.2</ele>
        <time>2022-10-29T08:45:27Z</time>
      </trkpt>
      <trkpt lat="43.3278050" lon="-1.9021590">
        <ele>89.4</ele>
        <time>2022-10-29T08:45:28Z</time>
      </trkpt>
      <trkpt lat="43.3278080" lon="-1.9021230">
        <ele>89.6</ele>
        <time>2022-10-29T08:45:29Z</time>
      </trkpt>
      <trkpt lat="43.3278100" lon="-1.9020880">
        <ele>89.8</ele>
        <time>2022-10-29T08:45:30Z</time>
      </trkpt>
      <trkpt lat="43.3278140" lon="-1.9020520">
        <ele>90.0</ele>
        <time>2022-10-29T08:45:31Z</time>
      </trkpt>
      <trkpt lat="43.3278210" lon="-1.9020200">
        <ele>90.0</ele>
        <time>2022-10-29T08:45:32Z</time>
      </trkpt>
      <trkpt lat="43.3278290" lon="-1.9019860">
        <ele>90.4</ele>
        <time>2022-10-29T08:45:33Z</time>
      </trkpt>
      <trkpt lat="43.3278380" lon="-1.9019510">
        <ele>90.4</ele>
        <time>2022-10-29T08:45:34Z</time>
      </trkpt>
      <trkpt lat="43.3278460" lon="-1.9019190">
        <ele>90.8</ele>
        <time>2022-10-29T08:45:35Z</time>
      </trkpt>
      <trkpt lat="43.3278530" lon="-1.9018870">
        <ele>91.0</ele>
        <time>2022-10-29T08:45:36Z</time>
      </trkpt>
      <trkpt lat="43.3278610" lon="-1.9018520">
        <ele>91.2</ele>
        <time>2022-10-29T08:45:37Z</time>
      </trkpt>
      <trkpt lat="43.3278680" lon="-1.9018190">
        <ele>91.4</ele>
        <time>2022-10-29T08:45:38Z</time>
      </trkpt>
      <trkpt lat="43.3278750" lon="-1.9017860">
        <ele>91.6</ele>
        <time>2022-10-29T08:45:39Z</time>
      </trkpt>
      <trkpt lat="43.3278840" lon="-1.9017520">
        <ele>91.8</ele>
        <time>2022-10-29T08:45:40Z</time>
      </trkpt>
      <trkpt lat="43.3278940" lon="-1.9017190">
        <ele>92.0</ele>
        <time>2022-10-29T08:45:41Z</time>
      </trkpt>
      <trkpt lat="43.3279020" lon="-1.9016840">
        <ele>92.2</ele>
        <time>2022-10-29T08:45:42Z</time>
      </trkpt>
      <trkpt lat="43.3279100" lon="-1.9016480">
        <ele>92.4</ele>
        <time>2022-10-29T08:45:43Z</time>
      </trkpt>
      <trkpt lat="43.3279160" lon="-1.9016120">
        <ele>92.6</ele>
        <time>2022-10-29T08:45:44Z</time>
      </trkpt>
      <trkpt lat="43.3279240" lon="-1.9015760">
        <ele>93.0</ele>
        <time>2022-10-29T08:45:45Z</time>
      </trkpt>
      <trkpt lat="43.3279300" lon="-1.9015410">
        <ele>93.0</ele>
        <time>2022-10-29T08:45:46Z</time>
      </trkpt>
      <trkpt lat="43.3279380" lon="-1.9015050">
        <ele>93.4</ele>
        <time>2022-10-29T08:45:47Z</time>
      </trkpt>
      <trkpt lat="43.3279460" lon="-1.9014690">
        <ele>93.6</ele>
        <time>2022-10-29T08:45:48Z</time>
      </trkpt>
      <trkpt lat="43.3279510" lon="-1.9014350">
        <ele>94.0</ele>
        <time>2022-10-29T08:45:49Z</time>
      </trkpt>
      <trkpt lat="43.3279590" lon="-1.9014010">
        <ele>94.0</ele>
        <time>2022-10-29T08:45:50Z</time>
      </trkpt>
      <trkpt lat="43.3279670" lon="-1.9013680">
        <ele>94.4</ele>
        <time>2022-10-29T08:45:51Z</time>
      </trkpt>
      <trkpt lat="43.3279760" lon="-1.9013350">
        <ele>94.4</ele>
        <time>2022-10-29T08:45:52Z</time>
      </trkpt>
      <trkpt lat="43.3279820" lon="-1.9013010">
        <ele>94.8</ele>
        <time>2022-10-29T08:45:53Z</time>
      </trkpt>
      <trkpt lat="43.3279890" lon="-1.9012660">
        <ele>94.8</ele>
        <time>2022-10-29T08:45:54Z</time>
      </trkpt>
      <trkpt lat="43.3279940" lon="-1.9012340">
        <ele>95.0</ele>
        <time>2022-10-29T08:45:55Z</time>
      </trkpt>
      <trkpt lat="43.3280000" lon="-1.9012000">
        <ele>95.2</ele>
        <time>2022-10-29T08:45:56Z</time>
      </trkpt>
      <trkpt lat="43.3280070" lon="-1.9011680">
        <ele>95.4</ele>
        <time>2022-10-29T08:45:57Z</time>
      </trkpt>
      <trkpt lat="43.3280140" lon="-1.9011330">
        <ele>95.4</ele>
        <time>2022-10-29T08:45:58Z</time>
      </trkpt>
      <trkpt lat="43.3280200" lon="-1.9010980">
        <ele>95.6</ele>
        <time>2022-10-29T08:45:59Z</time>
      </trkpt>
      <trkpt lat="43.3280260" lon="-1.9010640">
        <ele>96.0</ele>
        <time>2022-10-29T08:46:00Z</time>
      </trkpt>
      <trkpt lat="43.3280340" lon="-1.9010340">
        <ele>96.0</ele>
        <time>2022-10-29T08:46:01Z</time>
      </trkpt>
      <trkpt lat="43.3280410" lon="-1.9010020">
        <ele>96.2</ele>
        <time>2022-10-29T08:46:02Z</time>
      </trkpt>
      <trkpt lat="43.3280480" lon="-1.9009680">
        <ele>96.4</ele>
        <time>2022-10-29T08:46:03Z</time>
      </trkpt>
      <trkpt lat="43.3280570" lon="-1.9009350">
        <ele>96.6</ele>
        <time>2022-10-29T08:46:04Z</time>
      </trkpt>
      <trkpt lat="43.3280630" lon="-1.9009040">
        <ele>96.8</ele>
        <time>2022-10-29T08:46:05Z</time>
      </trkpt>
      <trkpt lat="43.3280700" lon="-1.9008700">
        <ele>97.0</ele>
        <time>2022-10-29T08:46:06Z</time>
      </trkpt>
      <trkpt lat="43.3280770" lon="-1.9008360">
        <ele>97.4</ele>
        <time>2022-10-29T08:46:07Z</time>
      </trkpt>
      <trkpt lat="43.3280850" lon="-1.9008000">
        <ele>97.6</ele>
        <time>2022-10-29T08:46:08Z</time>
      </trkpt>
      <trkpt lat="43.3280930" lon="-1.9007640">
        <ele>98.0</ele>
        <time>2022-10-29T08:46:09Z</time>
      </trkpt>
      <trkpt lat="43.3281020" lon="-1.9007290">
        <ele>98.0</ele>
        <time>2022-10-29T08:46:10Z</time>
      </trkpt>
      <trkpt lat="43.3281110" lon="-1.9006950">
        <ele>98.4</ele>
        <time>2022-10-29T08:46:11Z</time>
      </trkpt>
      <trkpt lat="43.3281210" lon="-1.9006610">
        <ele>98.6</ele>
        <time>2022-10-29T08:46:12Z</time>
      </trkpt>
      <trkpt lat="43.3281340" lon="-1.9006250">
        <ele>98.8</ele>
        <time>2022-10-29T08:46:13Z</time>
      </trkpt>
      <trkpt lat="43.3281490" lon="-1.9005940">
        <ele>99.0</ele>
        <time>2022-10-29T08:46:14Z</time>
      </trkpt>
      <trkpt lat="43.3281690" lon="-1.9005660">
        <ele>99.2</ele>
        <time>2022-10-29T08:46:15Z</time>
      </trkpt>
      <trkpt lat="43.3281880" lon="-1.9005400">
        <ele>99.4</ele>
        <time>2022-10-29T08:46:16Z</time>
      </trkpt>
      <trkpt lat="43.3282070" lon="-1.9005150">
        <ele>100.0</ele>
        <time>2022-10-29T08:46:17Z</time>
      </trkpt>
      <trkpt lat="43.3282270" lon="-1.9004920">
        <ele>100.4</ele>
        <time>2022-10-29T08:46:18Z</time>
      </trkpt>
      <trkpt lat="43.3282510" lon="-1.9004740">
        <ele>100.4</ele>
        <time>2022-10-29T08:46:19Z</time>
      </trkpt>
      <trkpt lat="43.3282740" lon="-1.9004570">
        <ele>100.8</ele>
        <time>2022-10-29T08:46:20Z</time>
      </trkpt>
      <trkpt lat="43.3282960" lon="-1.9004360">
        <ele>100.8</ele>
        <time>2022-10-29T08:46:21Z</time>
      </trkpt>
      <trkpt lat="43.3283190" lon="-1.9004180">
        <ele>101.2</ele>
        <time>2022-10-29T08:46:22Z</time>
      </trkpt>
      <trkpt lat="43.3283430" lon="-1.9004040">
        <ele>101.2</ele>
        <time>2022-10-29T08:46:23Z</time>
      </trkpt>
      <trkpt lat="43.3283660" lon="-1.9003900">
        <ele>101.6</ele>
        <time>2022-10-29T08:46:24Z</time>
      </trkpt>
      <trkpt lat="43.3283870" lon="-1.9003750">
        <ele>101.8</ele>
        <time>2022-10-29T08:46:25Z</time>
      </trkpt>
      <trkpt lat="43.3284090" lon="-1.9003580">
        <ele>102.0</ele>
        <time>2022-10-29T08:46:26Z</time>
      </trkpt>
      <trkpt lat="43.3284310" lon="-1.9003410">
        <ele>102.2</ele>
        <time>2022-10-29T08:46:27Z</time>
      </trkpt>
      <trkpt lat="43.3284540" lon="-1.9003250">
        <ele>102.2</ele>
        <time>2022-10-29T08:46:28Z</time>
      </trkpt>
      <trkpt lat="43.3284770" lon="-1.9003080">
        <ele>102.4</ele>
        <time>2022-10-29T08:46:29Z</time>
      </trkpt>
      <trkpt lat="43.3285000" lon="-1.9002910">
        <ele>102.4</ele>
        <time>2022-10-29T08:46:30Z</time>
      </trkpt>
      <trkpt lat="43.3285240" lon="-1.9002780">
        <ele>102.6</ele>
        <time>2022-10-29T08:46:31Z</time>
      </trkpt>
      <trkpt lat="43.3285460" lon="-1.9002630">
        <ele>102.6</ele>
        <time>2022-10-29T08:46:32Z</time>
      </trkpt>
      <trkpt lat="43.3285690" lon="-1.9002480">
        <ele>102.8</ele>
        <time>2022-10-29T08:46:33Z</time>
      </trkpt>
      <trkpt lat="43.3285910" lon="-1.9002330">
        <ele>102.8</ele>
        <time>2022-10-29T08:46:34Z</time>
      </trkpt>
      <trkpt lat="43.3286130" lon="-1.9002170">
        <ele>103.0</ele>
        <time>2022-10-29T08:46:35Z</time>
      </trkpt>
      <trkpt lat="43.3286340" lon="-1.9002010">
        <ele>103.2</ele>
        <time>2022-10-29T08:46:36Z</time>
      </trkpt>
      <trkpt lat="43.3286520" lon="-1.9001830">
        <ele>103.4</ele>
        <time>2022-10-29T08:46:37Z</time>
      </trkpt>
      <trkpt lat="43.3286700" lon="-1.9001650">
        <ele>103.6</ele>
        <time>2022-10-29T08:46:38Z</time>
      </trkpt>
      <trkpt lat="43.3286860" lon="-1.9001440">
        <ele>103.8</ele>
        <time>2022-10-29T08:46:39Z</time>
      </trkpt>
      <trkpt lat="43.3286980" lon="-1.9001210">
        <ele>104.0</ele>
        <time>2022-10-29T08:46:40Z</time>
      </trkpt>
      <trkpt lat="43.3287090" lon="-1.9000910">
        <ele>104.2</ele>
        <time>2022-10-29T08:46:41Z</time>
      </trkpt>
      <trkpt lat="43.3287210" lon="-1.9000620">
        <ele>104.4</ele>
        <time>2022-10-29T08:46:42Z</time>
      </trkpt>
      <trkpt lat="43.3287330" lon="-1.9000340">
        <ele>104.6</ele>
        <time>2022-10-29T08:46:43Z</time>
      </trkpt>
      <trkpt lat="43.3287430" lon="-1.9000040">
        <ele>104.8</ele>
        <time>2022-10-29T08:46:44Z</time>
      </trkpt>
      <trkpt lat="43.3287520" lon="-1.8999750">
        <ele>104.8</ele>
        <time>2022-10-29T08:46:45Z</time>
      </trkpt>
      <trkpt lat="43.3287600" lon="-1.8999450">
        <ele>105.2</ele>
        <time>2022-10-29T08:46:46Z</time>
      </trkpt>
      <trkpt lat="43.3287680" lon="-1.8999140">
        <ele>105.4</ele>
        <time>2022-10-29T08:46:47Z</time>
      </trkpt>
      <trkpt lat="43.3287750" lon="-1.8998820">
        <ele>105.6</ele>
        <time>2022-10-29T08:46:48Z</time>
      </trkpt>
      <trkpt lat="43.3287830" lon="-1.8998480">
        <ele>106.0</ele>
        <time>2022-10-29T08:46:49Z</time>
      </trkpt>
      <trkpt lat="43.3287870" lon="-1.8998160">
        <ele>106.0</ele>
        <time>2022-10-29T08:46:50Z</time>
      </trkpt>
      <trkpt lat="43.3287900" lon="-1.8997840">
        <ele>106.2</ele>
        <time>2022-10-29T08:46:51Z</time>
      </trkpt>
      <trkpt lat="43.3287950" lon="-1.8997530">
        <ele>106.4</ele>
        <time>2022-10-29T08:46:52Z</time>
      </trkpt>
      <trkpt lat="43.3288000" lon="-1.8997200">
        <ele>106.8</ele>
        <time>2022-10-29T08:46:53Z</time>
      </trkpt>
      <trkpt lat="43.3288070" lon="-1.8996850">
        <ele>106.8</ele>
        <time>2022-10-29T08:46:54Z</time>
      </trkpt>
      <trkpt lat="43.3288120" lon="-1.8996510">
        <ele>107.2</ele>
        <time>2022-10-29T08:46:55Z</time>
      </trkpt>
      <trkpt lat="43.3288170" lon="-1.8996190">
        <ele>107.2</ele>
        <time>2022-10-29T08:46:56Z</time>
      </trkpt>
      <trkpt lat="43.3288190" lon="-1.8995870">
        <ele>107.6</ele>
        <time>2022-10-29T08:46:57Z</time>
      </trkpt>
      <trkpt lat="43.3288230" lon="-1.8995560">
        <ele>107.8</ele>
        <time>2022-10-29T08:46:58Z</time>
      </trkpt>
      <trkpt lat="43.3288270" lon="-1.8995220">
        <ele>108.4</ele>
        <time>2022-10-29T08:46:59Z</time>
      </trkpt>
      <trkpt lat="43.3288320" lon="-1.8994890">
        <ele>108.6</ele>
        <time>2022-10-29T08:47:00Z</time>
      </trkpt>
      <trkpt lat="43.3288360" lon="-1.8994570">
        <ele>108.8</ele>
        <time>2022-10-29T08:47:01Z</time>
      </trkpt>
      <trkpt lat="43.3288390" lon="-1.8994250">
        <ele>109.4</ele>
        <time>2022-10-29T08:47:02Z</time>
      </trkpt>
      <trkpt lat="43.3288440" lon="-1.8993940">
        <ele>109.6</ele>
        <time>2022-10-29T08:47:03Z</time>
      </trkpt>
      <trkpt lat="43.3288500" lon="-1.8993650">
        <ele>109.8</ele>
        <time>2022-10-29T08:47:04Z</time>
      </trkpt>
      <trkpt lat="43.3288560" lon="-1.8993350">
        <ele>109.8</ele>
        <time>2022-10-29T08:47:05Z</time>
      </trkpt>
      <trkpt lat="43.3288620" lon="-1.8993050">
        <ele>110.2</ele>
        <time>2022-10-29T08:47:06Z</time>
      </trkpt>
      <trkpt lat="43.3288680" lon="-1.8992740">
        <ele>110.2</ele>
        <time>2022-10-29T08:47:07Z</time>
      </trkpt>
      <trkpt lat="43.3288750" lon="-1.8992420">
        <ele>110.6</ele>
        <time>2022-10-29T08:47:08Z</time>
      </trkpt>
      <trkpt lat="43.3288880" lon="-1.8992130">
        <ele>110.8</ele>
        <time>2022-10-29T08:47:09Z</time>
      </trkpt>
      <trkpt lat="43.3289020" lon="-1.8991830">
        <ele>111.2</ele>
        <time>2022-10-29T08:47:10Z</time>
      </trkpt>
      <trkpt lat="43.3289190" lon="-1.8991530">
        <ele>111.6</ele>
        <time>2022-10-29T08:47:11Z</time>
      </trkpt>
      <trkpt lat="43.3289380" lon="-1.8991280">
        <ele>111.8</ele>
        <time>2022-10-29T08:47:12Z</time>
      </trkpt>
      <trkpt lat="43.3289600" lon="-1.8991080">
        <ele>112.0</ele>
        <time>2022-10-29T08:47:13Z</time>
      </trkpt>
      <trkpt lat="43.3289860" lon="-1.8990910">
        <ele>112.2</ele>
        <time>2022-10-29T08:47:14Z</time>
      </trkpt>
      <trkpt lat="43.3290140" lon="-1.8990820">
        <ele>112.4</ele>
        <time>2022-10-29T08:47:15Z</time>
      </trkpt>
      <trkpt lat="43.3290430" lon="-1.8990800">
        <ele>112.6</ele>
        <time>2022-10-29T08:47:16Z</time>
      </trkpt>
      <trkpt lat="43.3290760" lon="-1.8990850">
        <ele>113.0</ele>
        <time>2022-10-29T08:47:17Z</time>
      </trkpt>
      <trkpt lat="43.3291110" lon="-1.8990930">
        <ele>113.2</ele>
        <time>2022-10-29T08:47:18Z</time>
      </trkpt>
      <trkpt lat="43.3291470" lon="-1.8991070">
        <ele>113.6</ele>
        <time>2022-10-29T08:47:19Z</time>
      </trkpt>
      <trkpt lat="43.3291820" lon="-1.8991240">
        <ele>114.0</ele>
        <time>2022-10-29T08:47:20Z</time>
      </trkpt>
      <trkpt lat="43.3292170" lon="-1.8991470">
        <ele>114.0</ele>
        <time>2022-10-29T08:47:21Z</time>
      </trkpt>
      <trkpt lat="43.3292520" lon="-1.8991740">
        <ele>114.4</ele>
        <time>2022-10-29T08:47:22Z</time>
      </trkpt>
      <trkpt lat="43.3292870" lon="-1.8992010">
        <ele>114.6</ele>
        <time>2022-10-29T08:47:23Z</time>
      </trkpt>
      <trkpt lat="43.3293220" lon="-1.8992300">
        <ele>115.0</ele>
        <time>2022-10-29T08:47:24Z</time>
      </trkpt>
      <trkpt lat="43.3293550" lon="-1.8992580">
        <ele>115.0</ele>
        <time>2022-10-29T08:47:25Z</time>
      </trkpt>
      <trkpt lat="43.3293890" lon="-1.8992810">
        <ele>115.2</ele>
        <time>2022-10-29T08:47:26Z</time>
      </trkpt>
      <trkpt lat="43.3294290" lon="-1.8993040">
        <ele>115.2</ele>
        <time>2022-10-29T08:47:27Z</time>
      </trkpt>
      <trkpt lat="43.3294670" lon="-1.8993250">
        <ele>115.2</ele>
        <time>2022-10-29T08:47:28Z</time>
      </trkpt>
      <trkpt lat="43.3295020" lon="-1.8993450">
        <ele>115.4</ele>
        <time>2022-10-29T08:47:29Z</time>
      </trkpt>
      <trkpt lat="43.3295360" lon="-1.8993620">
        <ele>115.6</ele>
        <time>2022-10-29T08:47:30Z</time>
      </trkpt>
      <trkpt lat="43.3295730" lon="-1.8993750">
        <ele>115.8</ele>
        <time>2022-10-29T08:47:31Z</time>
      </trkpt>
      <trkpt lat="43.3296080" lon="-1.8993850">
        <ele>116.0</ele>
        <time>2022-10-29T08:47:32Z</time>
      </trkpt>
      <trkpt lat="43.3296410" lon="-1.8993910">
        <ele>116.0</ele>
        <time>2022-10-29T08:47:33Z</time>
      </trkpt>
      <trkpt lat="43.3296740" lon="-1.8993990">
        <ele>116.0</ele>
        <time>2022-10-29T08:47:34Z</time>
      </trkpt>
      <trkpt lat="43.3297100" lon="-1.8994090">
        <ele>116.2</ele>
        <time>2022-10-29T08:47:35Z</time>
      </trkpt>
      <trkpt lat="43.3297460" lon="-1.8994210">
        <ele>116.4</ele>
        <time>2022-10-29T08:47:36Z</time>
      </trkpt>
      <trkpt lat="43.3297790" lon="-1.8994300">
        <ele>116.6</ele>
        <time>2022-10-29T08:47:37Z</time>
      </trkpt>
      <trkpt lat="43.3298150" lon="-1.8994350">
        <ele>116.6</ele>
        <time>2022-10-29T08:47:38Z</time>
      </trkpt>
      <trkpt lat="43.3298540" lon="-1.8994410">
        <ele>116.6</ele>
        <time>2022-10-29T08:47:39Z</time>
      </trkpt>
      <trkpt lat="43.3298910" lon="-1.8994450">
        <ele>116.6</ele>
        <time>2022-10-29T08:47:40Z</time>
      </trkpt>
      <trkpt lat="43.3299310" lon="-1.8994480">
        <ele>116.8</ele>
        <time>2022-10-29T08:47:41Z</time>
      </trkpt>
      <trkpt lat="43.3299630" lon="-1.8994420">
        <ele>117.0</ele>
        <time>2022-10-29T08:47:42Z</time>
      </trkpt>
      <trkpt lat="43.3300070" lon="-1.8994340">
        <ele>117.2</ele>
        <time>2022-10-29T08:47:43Z</time>
      </trkpt>
      <trkpt lat="43.3300450" lon="-1.8994230">
        <ele>117.4</ele>
        <time>2022-10-29T08:47:44Z</time>
      </trkpt>
      <trkpt lat="43.3300830" lon="-1.8994160">
        <ele>117.6</ele>
        <time>2022-10-29T08:47:45Z</time>
      </trkpt>
      <trkpt lat="43.3301190" lon="-1.8994080">
        <ele>118.0</ele>
        <time>2022-10-29T08:47:46Z</time>
      </trkpt>
      <trkpt lat="43.3301560" lon="-1.8994010">
        <ele>118.2</ele>
        <time>2022-10-29T08:47:47Z</time>
      </trkpt>
      <trkpt lat="43.3301920" lon="-1.8993950">
        <ele>118.6</ele>
        <time>2022-10-29T08:47:48Z</time>
      </trkpt>
      <trkpt lat="43.3302300" lon="-1.8993880">
        <ele>118.8</ele>
        <time>2022-10-29T08:47:49Z</time>
      </trkpt>
      <trkpt lat="43.3302650" lon="-1.8993760">
        <ele>119.2</ele>
        <time>2022-10-29T08:47:50Z</time>
      </trkpt>
      <trkpt lat="43.3302990" lon="-1.8993700">
        <ele>119.4</ele>
        <time>2022-10-29T08:47:51Z</time>
      </trkpt>
      <trkpt lat="43.3303340" lon="-1.8993620">
        <ele>120.0</ele>
        <time>2022-10-29T08:47:52Z</time>
      </trkpt>
      <trkpt lat="43.3303680" lon="-1.8993550">
        <ele>120.6</ele>
        <time>2022-10-29T08:47:53Z</time>
      </trkpt>
      <trkpt lat="43.3304020" lon="-1.8993510">
        <ele>120.8</ele>
        <time>2022-10-29T08:47:54Z</time>
      </trkpt>
      <trkpt lat="43.3304360" lon="-1.8993450">
        <ele>121.0</ele>
        <time>2022-10-29T08:47:55Z</time>
      </trkpt>
      <trkpt lat="43.3304700" lon="-1.8993370">
        <ele>121.2</ele>
        <time>2022-10-29T08:47:56Z</time>
      </trkpt>
      <trkpt lat="43.3305020" lon="-1.8993330">
        <ele>121.4</ele>
        <time>2022-10-29T08:47:57Z</time>
      </trkpt>
      <trkpt lat="43.3305370" lon="-1.8993320">
        <ele>121.6</ele>
        <time>2022-10-29T08:47:58Z</time>
      </trkpt>
      <trkpt lat="43.3305740" lon="-1.8993340">
        <ele>122.0</ele>
        <time>2022-10-29T08:47:59Z</time>
      </trkpt>
      <trkpt lat="43.3306120" lon="-1.8993390">
        <ele>122.2</ele>
        <time>2022-10-29T08:48:00Z</time>
      </trkpt>
      <trkpt lat="43.3306520" lon="-1.8993440">
        <ele>122.4</ele>
        <time>2022-10-29T08:48:01Z</time>
      </trkpt>
      <trkpt lat="43.3306930" lon="-1.8993480">
        <ele>122.8</ele>
        <time>2022-10-29T08:48:02Z</time>
      </trkpt>
      <trkpt lat="43.3307340" lon="-1.8993570">
        <ele>123.0</ele>
        <time>2022-10-29T08:48:03Z</time>
      </trkpt>
      <trkpt lat="43.3307730" lon="-1.8993680">
        <ele>123.4</ele>
        <time>2022-10-29T08:48:04Z</time>
      </trkpt>
      <trkpt lat="43.3308110" lon="-1.8993780">
        <ele>123.6</ele>
        <time>2022-10-29T08:48:05Z</time>
      </trkpt>
      <trkpt lat="43.3308510" lon="-1.8993880">
        <ele>124.0</ele>
        <time>2022-10-29T08:48:06Z</time>
      </trkpt>
      <trkpt lat="43.3308930" lon="-1.8994030">
        <ele>124.2</ele>
        <time>2022-10-29T08:48:07Z</time>
      </trkpt>
      <trkpt lat="43.3309310" lon="-1.8994140">
        <ele>124.6</ele>
        <time>2022-10-29T08:48:08Z</time>
      </trkpt>
      <trkpt lat="43.3309600" lon="-1.8994220">
        <ele>124.6</ele>
        <time>2022-10-29T08:48:09Z</time>
      </trkpt>
      <trkpt lat="43.3309980" lon="-1.8994370">
        <ele>125.0</ele>
        <time>2022-10-29T08:48:10Z</time>
      </trkpt>
      <trkpt lat="43.3310340" lon="-1.8994570">
        <ele>125.4</ele>
        <time>2022-10-29T08:48:11Z</time>
      </trkpt>
      <trkpt lat="43.3310730" lon="-1.8994910">
        <ele>125.6</ele>
        <time>2022-10-29T08:48:12Z</time>
      </trkpt>
      <trkpt lat="43.3311050" lon="-1.8995220">
        <ele>126.0</ele>
        <time>2022-10-29T08:48:13Z</time>
      </trkpt>
      <trkpt lat="43.3311350" lon="-1.8995580">
        <ele>126.2</ele>
        <time>2022-10-29T08:48:14Z</time>
      </trkpt>
      <trkpt lat="43.3311550" lon="-1.8995970">
        <ele>126.6</ele>
        <time>2022-10-29T08:48:15Z</time>
      </trkpt>
      <trkpt lat="43.3311750" lon="-1.8996500">
        <ele>126.6</ele>
        <time>2022-10-29T08:48:16Z</time>
      </trkpt>
      <trkpt lat="43.3311870" lon="-1.8997200">
        <ele>126.8</ele>
        <time>2022-10-29T08:48:17Z</time>
      </trkpt>
      <trkpt lat="43.3311850" lon="-1.8997790">
        <ele>126.8</ele>
        <time>2022-10-29T08:48:18Z</time>
      </trkpt>
      <trkpt lat="43.3311710" lon="-1.8998380">
        <ele>127.2</ele>
        <time>2022-10-29T08:48:19Z</time>
      </trkpt>
      <trkpt lat="43.3311450" lon="-1.8998860">
        <ele>127.4</ele>
        <time>2022-10-29T08:48:20Z</time>
      </trkpt>
      <trkpt lat="43.3311190" lon="-1.8999230">
        <ele>127.8</ele>
        <time>2022-10-29T08:48:21Z</time>
      </trkpt>
      <trkpt lat="43.3310800" lon="-1.8999850">
        <ele>127.8</ele>
        <time>2022-10-29T08:48:22Z</time>
      </trkpt>
      <trkpt lat="43.3310490" lon="-1.9000340">
        <ele>128.2</ele>
        <time>2022-10-29T08:48:23Z</time>
      </trkpt>
      <trkpt lat="43.3310260" lon="-1.9000660">
        <ele>128.4</ele>
        <time>2022-10-29T08:48:24Z</time>
      </trkpt>
      <trkpt lat="43.3309980" lon="-1.9001040">
        <ele>128.6</ele>
        <time>2022-10-29T08:48:25Z</time>
      </trkpt>
      <trkpt lat="43.3309680" lon="-1.9001400">
        <ele>129.0</ele>
        <time>2022-10-29T08:48:26Z</time>
      </trkpt>
      <trkpt lat="43.3309320" lon="-1.9001820">
        <ele>129.2</ele>
        <time>2022-10-29T08:48:27Z</time>
      </trkpt>
      <trkpt lat="43.3309020" lon="-1.9002180">
        <ele>129.4</ele>
        <time>2022-10-29T08:48:28Z</time>
      </trkpt>
      <trkpt lat="43.3308750" lon="-1.9002500">
        <ele>129.4</ele>
        <time>2022-10-29T08:48:29Z</time>
      </trkpt>
      <trkpt lat="43.3308480" lon="-1.9002860">
        <ele>129.6</ele>
        <time>2022-10-29T08:48:30Z</time>
      </trkpt>
      <trkpt lat="43.3308190" lon="-1.9003240">
        <ele>129.8</ele>
        <time>2022-10-29T08:48:31Z</time>
      </trkpt>
      <trkpt lat="43.3307930" lon="-1.9003560">
        <ele>130.2</ele>
        <time>2022-10-29T08:48:32Z</time>
      </trkpt>
      <trkpt lat="43.3307620" lon="-1.9003950">
        <ele>130.4</ele>
        <time>2022-10-29T08:48:33Z</time>
      </trkpt>
      <trkpt lat="43.3307320" lon="-1.9004410">
        <ele>130.8</ele>
        <time>2022-10-29T08:48:34Z</time>
      </trkpt>
      <trkpt lat="43.3307000" lon="-1.9005000">
        <ele>131.2</ele>
        <time>2022-10-29T08:48:35Z</time>
      </trkpt>
      <trkpt lat="43.3306790" lon="-1.9005510">
        <ele>131.4</ele>
        <time>2022-10-29T08:48:36Z</time>
      </trkpt>
      <trkpt lat="43.3306520" lon="-1.9006130">
        <ele>131.6</ele>
        <time>2022-10-29T08:48:37Z</time>
      </trkpt>
      <trkpt lat="43.3306210" lon="-1.9006680">
        <ele>131.8</ele>
        <time>2022-10-29T08:48:38Z</time>
      </trkpt>
      <trkpt lat="43.3305880" lon="-1.9007350">
        <ele>132.0</ele>
        <time>2022-10-29T08:48:39Z</time>
      </trkpt>
      <trkpt lat="43.3305700" lon="-1.9007840">
        <ele>132.2</ele>
        <time>2022-10-29T08:48:40Z</time>
      </trkpt>
      <trkpt lat="43.3305440" lon="-1.9008420">
        <ele>132.4</ele>
        <time>2022-10-29T08:48:41Z</time>
      </trkpt>
      <trkpt lat="43.3305150" lon="-1.9008910">
        <ele>132.4</ele>
        <time>2022-10-29T08:48:42Z</time>
      </trkpt>
      <trkpt lat="43.3304890" lon="-1.9009480">
        <ele>132.8</ele>
        <time>2022-10-29T08:48:43Z</time>
      </trkpt>
      <trkpt lat="43.3304700" lon="-1.9010010">
        <ele>133.2</ele>
        <time>2022-10-29T08:48:44Z</time>
      </trkpt>
      <trkpt lat="43.3304560" lon="-1.9010630">
        <ele>133.2</ele>
        <time>2022-10-29T08:48:45Z</time>
      </trkpt>
      <trkpt lat="43.3304540" lon="-1.9011090">
        <ele>133.6</ele>
        <time>2022-10-29T08:48:46Z</time>
      </trkpt>
      <trkpt lat="43.3304630" lon="-1.9011600">
        <ele>133.6</ele>
        <time>2022-10-29T08:48:47Z</time>
      </trkpt>
      <trkpt lat="43.3304830" lon="-1.9011890">
        <ele>134.0</ele>
        <time>2022-10-29T08:48:48Z</time>
      </trkpt>
      <trkpt lat="43.3305090" lon="-1.9012010">
        <ele>134.2</ele>
        <time>2022-10-29T08:48:49Z</time>
      </trkpt>
      <trkpt lat="43.3305300" lon="-1.9011950">
        <ele>134.6</ele>
        <time>2022-10-29T08:48:50Z</time>
      </trkpt>
      <trkpt lat="43.3305590" lon="-1.9011730">
        <ele>134.8</ele>
        <time>2022-10-29T08:48:51Z</time>
      </trkpt>
      <trkpt lat="43.3305710" lon="-1.9011480">
        <ele>135.2</ele>
        <time>2022-10-29T08:48:52Z</time>
      </trkpt>
      <trkpt lat="43.3305850" lon="-1.9011150">
        <ele>135.4</ele>
        <time>2022-10-29T08:48:53Z</time>
      </trkpt>
      <trkpt lat="43.3305960" lon="-1.9010840">
        <ele>135.8</ele>
        <time>2022-10-29T08:48:54Z</time>
      </trkpt>
      <trkpt lat="43.3306080" lon="-1.9010510">
        <ele>136.0</ele>
        <time>2022-10-29T08:48:55Z</time>
      </trkpt>
      <trkpt lat="43.3306220" lon="-1.9010120">
        <ele>136.4</ele>
        <time>2022-10-29T08:48:56Z</time>
      </trkpt>
      <trkpt lat="43.3306310" lon="-1.9009840">
        <ele>137.0</ele>
        <time>2022-10-29T08:48:57Z</time>
      </trkpt>
      <trkpt lat="43.3306440" lon="-1.9009440">
        <ele>137.2</ele>
        <time>2022-10-29T08:48:58Z</time>
      </trkpt>
      <trkpt lat="43.3306550" lon="-1.9009140">
        <ele>137.4</ele>
        <time>2022-10-29T08:48:59Z</time>
      </trkpt>
      <trkpt lat="43.3306660" lon="-1.9008950">
        <ele>137.6</ele>
        <time>2022-10-29T08:49:00Z</time>
      </trkpt>
      <trkpt lat="43.3306840" lon="-1.9008680">
        <ele>138.2</ele>
        <time>2022-10-29T08:49:01Z</time>
      </trkpt>
      <trkpt lat="43.3306980" lon="-1.9008440">
        <ele>138.4</ele>
        <time>2022-10-29T08:49:02Z</time>
      </trkpt>
      <trkpt lat="43.3307160" lon="-1.9008180">
        <ele>138.8</ele>
        <time>2022-10-29T08:49:03Z</time>
      </trkpt>
      <trkpt lat="43.3307300" lon="-1.9007930">
        <ele>139.0</ele>
        <time>2022-10-29T08:49:04Z</time>
      </trkpt>
      <trkpt lat="43.3307470" lon="-1.9007730">
        <ele>139.4</ele>
        <time>2022-10-29T08:49:05Z</time>
      </trkpt>
      <trkpt lat="43.3307690" lon="-1.9007480">
        <ele>139.6</ele>
        <time>2022-10-29T08:49:06Z</time>
      </trkpt>
      <trkpt lat="43.3307890" lon="-1.9007180">
        <ele>139.8</ele>
        <time>2022-10-29T08:49:07Z</time>
      </trkpt>
      <trkpt lat="43.3308110" lon="-1.9006980">
        <ele>140.2</ele>
        <time>2022-10-29T08:49:08Z</time>
      </trkpt>
      <trkpt lat="43.3308240" lon="-1.9006760">
        <ele>140.4</ele>
        <time>2022-10-29T08:49:09Z</time>
      </trkpt>
      <trkpt lat="43.3308430" lon="-1.9006470">
        <ele>140.8</ele>
        <time>2022-10-29T08:49:10Z</time>
      </trkpt>
      <trkpt lat="43.3308620" lon="-1.9006170">
        <ele>140.8</ele>
        <time>2022-10-29T08:49:11Z</time>
      </trkpt>
      <trkpt lat="43.3308730" lon="-1.9005990">
        <ele>141.0</ele>
        <time>2022-10-29T08:49:12Z</time>
      </trkpt>
      <trkpt lat="43.3308990" lon="-1.9005690">
        <ele>141.2</ele>
        <time>2022-10-29T08:49:13Z</time>
      </trkpt>
      <trkpt lat="43.3309130" lon="-1.9005410">
        <ele>141.6</ele>
        <time>2022-10-29T08:49:14Z</time>
      </trkpt>
      <trkpt lat="43.3309250" lon="-1.9005090">
        <ele>141.8</ele>
        <time>2022-10-29T08:49:15Z</time>
      </trkpt>
      <trkpt lat="43.3309420" lon="-1.9004790">
        <ele>142.0</ele>
        <time>2022-10-29T08:49:16Z</time>
      </trkpt>
      <trkpt lat="43.3309700" lon="-1.9004370">
        <ele>142.2</ele>
        <time>2022-10-29T08:49:17Z</time>
      </trkpt>
      <trkpt lat="43.3310000" lon="-1.9004110">
        <ele>142.4</ele>
        <time>2022-10-29T08:49:18Z</time>
      </trkpt>
      <trkpt lat="43.3310270" lon="-1.9003800">
        <ele>142.6</ele>
        <time>2022-10-29T08:49:19Z</time>
      </trkpt>
      <trkpt lat="43.3310500" lon="-1.9003550">
        <ele>142.6</ele>
        <time>2022-10-29T08:49:20Z</time>
      </trkpt>
      <trkpt lat="43.3310660" lon="-1.9003300">
        <ele>143.0</ele>
        <time>2022-10-29T08:49:21Z</time>
      </trkpt>
      <trkpt lat="43.3310820" lon="-1.9003080">
        <ele>143.4</ele>
        <time>2022-10-29T08:49:22Z</time>
      </trkpt>
      <trkpt lat="43.3311040" lon="-1.9002810">
        <ele>143.4</ele>
        <time>2022-10-29T08:49:23Z</time>
      </trkpt>
      <trkpt lat="43.3311240" lon="-1.9002520">
        <ele>143.6</ele>
        <time>2022-10-29T08:49:24Z</time>
      </trkpt>
      <trkpt lat="43.3311460" lon="-1.9002230">
        <ele>144.0</ele>
        <time>2022-10-29T08:49:25Z</time>
      </trkpt>
      <trkpt lat="43.3311670" lon="-1.9001970">
        <ele>144.4</ele>
        <time>2022-10-29T08:49:26Z</time>
      </trkpt>
      <trkpt lat="43.3311910" lon="-1.9001790">
        <ele>144.8</ele>
        <time>2022-10-29T08:49:27Z</time>
      </trkpt>
      <trkpt lat="43.3312170" lon="-1.9001580">
        <ele>145.2</ele>
        <time>2022-10-29T08:49:28Z</time>
      </trkpt>
      <trkpt lat="43.3312270" lon="-1.9001290">
        <ele>145.4</ele>
        <time>2022-10-29T08:49:29Z</time>
      </trkpt>
      <trkpt lat="43.3312480" lon="-1.9001010">
        <ele>145.6</ele>
        <time>2022-10-29T08:49:30Z</time>
      </trkpt>
      <trkpt lat="43.3312750" lon="-1.9000660">
        <ele>145.6</ele>
        <time>2022-10-29T08:49:31Z</time>
      </trkpt>
      <trkpt lat="43.3312920" lon="-1.9000440">
        <ele>145.8</ele>
        <time>2022-10-29T08:49:32Z</time>
      </trkpt>
      <trkpt lat="43.3313160" lon="-1.9000100">
        <ele>146.0</ele>
        <time>2022-10-29T08:49:33Z</time>
      </trkpt>
      <trkpt lat="43.3313340" lon="-1.8999700">
        <ele>146.4</ele>
        <time>2022-10-29T08:49:34Z</time>
      </trkpt>
      <trkpt lat="43.3313500" lon="-1.8999350">
        <ele>146.4</ele>
        <time>2022-10-29T08:49:35Z</time>
      </trkpt>
      <trkpt lat="43.3313750" lon="-1.8999030">
        <ele>146.8</ele>
        <time>2022-10-29T08:49:36Z</time>
      </trkpt>
      <trkpt lat="43.3313970" lon="-1.8998900">
        <ele>147.2</ele>
        <time>2022-10-29T08:49:37Z</time>
      </trkpt>
      <trkpt lat="43.3314180" lon="-1.8998660">
        <ele>147.4</ele>
        <time>2022-10-29T08:49:38Z</time>
      </trkpt>
      <trkpt lat="43.3314370" lon="-1.8998440">
        <ele>147.8</ele>
        <time>2022-10-29T08:49:39Z</time>
      </trkpt>
      <trkpt lat="43.3314560" lon="-1.8998170">
        <ele>147.8</ele>
        <time>2022-10-29T08:49:40Z</time>
      </trkpt>
      <trkpt lat="43.3314740" lon="-1.8997860">
        <ele>148.4</ele>
        <time>2022-10-29T08:49:41Z</time>
      </trkpt>
      <trkpt lat="43.3314990" lon="-1.8997580">
        <ele>148.6</ele>
        <time>2022-10-29T08:49:42Z</time>
      </trkpt>
      <trkpt lat="43.3315220" lon="-1.8997340">
        <ele>148.8</ele>
        <time>2022-10-29T08:49:43Z</time>
      </trkpt>
      <trkpt lat="43.3315430" lon="-1.8997080">
        <ele>149.0</ele>
        <time>2022-10-29T08:49:44Z</time>
      </trkpt>
      <trkpt lat="43.3315570" lon="-1.8996780">
        <ele>149.6</ele>
        <time>2022-10-29T08:49:45Z</time>
      </trkpt>
      <trkpt lat="43.3315570" lon="-1.8996430">
        <ele>150.0</ele>
        <time>2022-10-29T08:49:46Z</time>
      </trkpt>
      <trkpt lat="43.3315460" lon="-1.8995930">
        <ele>150.2</ele>
        <time>2022-10-29T08:49:47Z</time>
      </trkpt>
      <trkpt lat="43.3315330" lon="-1.8995580">
        <ele>150.6</ele>
        <time>2022-10-29T08:49:48Z</time>
      </trkpt>
      <trkpt lat="43.3315170" lon="-1.8995150">
        <ele>150.6</ele>
        <time>2022-10-29T08:49:49Z</time>
      </trkpt>
      <trkpt lat="43.3314960" lon="-1.8994730">
        <ele>151.0</ele>
        <time>2022-10-29T08:49:50Z</time>
      </trkpt>
      <trkpt lat="43.3314740" lon="-1.8994450">
        <ele>151.4</ele>
        <time>2022-10-29T08:49:51Z</time>
      </trkpt>
      <trkpt lat="43.3314550" lon="-1.8994240">
        <ele>151.6</ele>
        <time>2022-10-29T08:49:52Z</time>
      </trkpt>
      <trkpt lat="43.3314310" lon="-1.8993940">
        <ele>151.6</ele>
        <time>2022-10-29T08:49:53Z</time>
      </trkpt>
      <trkpt lat="43.3314110" lon="-1.8993650">
        <ele>152.2</ele>
        <time>2022-10-29T08:49:54Z</time>
      </trkpt>
      <trkpt lat="43.3313870" lon="-1.8993330">
        <ele>152.4</ele>
        <time>2022-10-29T08:49:55Z</time>
      </trkpt>
      <trkpt lat="43.3313680" lon="-1.8993140">
        <ele>152.8</ele>
        <time>2022-10-29T08:49:56Z</time>
      </trkpt>
      <trkpt lat="43.3313420" lon="-1.8992830">
        <ele>153.2</ele>
        <time>2022-10-29T08:49:57Z</time>
      </trkpt>
      <trkpt lat="43.3313280" lon="-1.8992600">
        <ele>153.4</ele>
        <time>2022-10-29T08:49:58Z</time>
      </trkpt>
      <trkpt lat="43.3313040" lon="-1.8992300">
        <ele>153.6</ele>
        <time>2022-10-29T08:49:59Z</time>
      </trkpt>
      <trkpt lat="43.3312740" lon="-1.8991970">
        <ele>153.8</ele>
        <time>2022-10-29T08:50:00Z</time>
      </trkpt>
      <trkpt lat="43.3312490" lon="-1.8991700">
        <ele>154.0</ele>
        <time>2022-10-29T08:50:01Z</time>
      </trkpt>
      <trkpt lat="43.3312170" lon="-1.8991380">
        <ele>154.0</ele>
        <time>2022-10-29T08:50:02Z</time>
      </trkpt>
      <trkpt lat="43.3311910" lon="-1.8991110">
        <ele>154.2</ele>
        <time>2022-10-29T08:50:03Z</time>
      </trkpt>
      <trkpt lat="43.3311650" lon="-1.8990790">
        <ele>154.2</ele>
        <time>2022-10-29T08:50:04Z</time>
      </trkpt>
      <trkpt lat="43.3311310" lon="-1.8990390">
        <ele>154.4</ele>
        <time>2022-10-29T08:50:05Z</time>
      </trkpt>
      <trkpt lat="43.3311000" lon="-1.8990050">
        <ele>154.4</ele>
        <time>2022-10-29T08:50:06Z</time>
      </trkpt>
      <trkpt lat="43.3310670" lon="-1.8989760">
        <ele>154.6</ele>
        <time>2022-10-29T08:50:07Z</time>
      </trkpt>
      <trkpt lat="43.3310370" lon="-1.8989520">
        <ele>154.6</ele>
        <time>2022-10-29T08:50:08Z</time>
      </trkpt>
      <trkpt lat="43.3309940" lon="-1.8989200">
        <ele>154.8</ele>
        <time>2022-10-29T08:50:09Z</time>
      </trkpt>
      <trkpt lat="43.3309610" lon="-1.8988950">
        <ele>155.0</ele>
        <time>2022-10-29T08:50:10Z</time>
      </trkpt>
      <trkpt lat="43.3309300" lon="-1.8988690">
        <ele>155.0</ele>
        <time>2022-10-29T08:50:11Z</time>
      </trkpt>
      <trkpt lat="43.3308980" lon="-1.8988410">
        <ele>155.2</ele>
        <time>2022-10-29T08:50:12Z</time>
      </trkpt>
      <trkpt lat="43.3308710" lon="-1.8988220">
        <ele>155.2</ele>
        <time>2022-10-29T08:50:13Z</time>
      </trkpt>
      <trkpt lat="43.3308370" lon="-1.8987930">
        <ele>155.4</ele>
        <time>2022-10-29T08:50:14Z</time>
      </trkpt>
      <trkpt lat="43.3308160" lon="-1.8987720">
        <ele>155.4</ele>
        <time>2022-10-29T08:50:15Z</time>
      </trkpt>
      <trkpt lat="43.3307810" lon="-1.8987440">
        <ele>155.8</ele>
        <time>2022-10-29T08:50:16Z</time>
      </trkpt>
      <trkpt lat="43.3307570" lon="-1.8987320">
        <ele>156.0</ele>
        <time>2022-10-29T08:50:17Z</time>
      </trkpt>
      <trkpt lat="43.3307270" lon="-1.8987160">
        <ele>156.2</ele>
        <time>2022-10-29T08:50:18Z</time>
      </trkpt>
      <trkpt lat="43.3306890" lon="-1.8987000">
        <ele>156.4</ele>
        <time>2022-10-29T08:50:19Z</time>
      </trkpt>
      <trkpt lat="43.3306520" lon="-1.8986970">
        <ele>156.6</ele>
        <time>2022-10-29T08:50:20Z</time>
      </trkpt>
      <trkpt lat="43.3306150" lon="-1.8986950">
        <ele>156.8</ele>
        <time>2022-10-29T08:50:21Z</time>
      </trkpt>
      <trkpt lat="43.3305830" lon="-1.8986870">
        <ele>156.8</ele>
        <time>2022-10-29T08:50:22Z</time>
      </trkpt>
      <trkpt lat="43.3305480" lon="-1.8986720">
        <ele>156.8</ele>
        <time>2022-10-29T08:50:23Z</time>
      </trkpt>
      <trkpt lat="43.3305040" lon="-1.8986520">
        <ele>157.0</ele>
        <time>2022-10-29T08:50:24Z</time>
      </trkpt>
      <trkpt lat="43.3304600" lon="-1.8986330">
        <ele>157.2</ele>
        <time>2022-10-29T08:50:25Z</time>
      </trkpt>
      <trkpt lat="43.3304200" lon="-1.8986280">
        <ele>157.2</ele>
        <time>2022-10-29T08:50:26Z</time>
      </trkpt>
      <trkpt lat="43.3303880" lon="-1.8986250">
        <ele>157.4</ele>
        <time>2022-10-29T08:50:27Z</time>
      </trkpt>
      <trkpt lat="43.3303520" lon="-1.8986160">
        <ele>157.8</ele>
        <time>2022-10-29T08:50:28Z</time>
      </trkpt>
      <trkpt lat="43.3303070" lon="-1.8985980">
        <ele>158.0</ele>
        <time>2022-10-29T08:50:29Z</time>
      </trkpt>
      <trkpt lat="43.3302700" lon="-1.8985840">
        <ele>158.2</ele>
        <time>2022-10-29T08:50:30Z</time>
      </trkpt>
      <trkpt lat="43.3302300" lon="-1.8985660">
        <ele>158.4</ele>
        <time>2022-10-29T08:50:31Z</time>
      </trkpt>
      <trkpt lat="43.3301990" lon="-1.8985530">
        <ele>158.8</ele>
        <time>2022-10-29T08:50:32Z</time>
      </trkpt>
      <trkpt lat="43.3301630" lon="-1.8985360">
        <ele>159.0</ele>
        <time>2022-10-29T08:50:33Z</time>
      </trkpt>
      <trkpt lat="43.3301290" lon="-1.8985210">
        <ele>159.2</ele>
        <time>2022-10-29T08:50:34Z</time>
      </trkpt>
      <trkpt lat="43.3300910" lon="-1.8985020">
        <ele>159.4</ele>
        <time>2022-10-29T08:50:35Z</time>
      </trkpt>
      <trkpt lat="43.3300610" lon="-1.8984760">
        <ele>159.6</ele>
        <time>2022-10-29T08:50:36Z</time>
      </trkpt>
      <trkpt lat="43.3300470" lon="-1.8984460">
        <ele>159.8</ele>
        <time>2022-10-29T08:50:37Z</time>
      </trkpt>
      <trkpt lat="43.3300330" lon="-1.8983960">
        <ele>160.0</ele>
        <time>2022-10-29T08:50:38Z</time>
      </trkpt>
      <trkpt lat="43.3300320" lon="-1.8983530">
        <ele>160.2</ele>
        <time>2022-10-29T08:50:39Z</time>
      </trkpt>
      <trkpt lat="43.3300350" lon="-1.8983110">
        <ele>160.2</ele>
        <time>2022-10-29T08:50:40Z</time>
      </trkpt>
      <trkpt lat="43.3300460" lon="-1.8982750">
        <ele>160.2</ele>
        <time>2022-10-29T08:50:41Z</time>
      </trkpt>
      <trkpt lat="43.3300610" lon="-1.8982440">
        <ele>160.4</ele>
        <time>2022-10-29T08:50:42Z</time>
      </trkpt>
      <trkpt lat="43.3300820" lon="-1.8982210">
        <ele>160.8</ele>
        <time>2022-10-29T08:50:43Z</time>
      </trkpt>
      <trkpt lat="43.3301070" lon="-1.8982070">
        <ele>161.0</ele>
        <time>2022-10-29T08:50:44Z</time>
      </trkpt>
      <trkpt lat="43.3301340" lon="-1.8982000">
        <ele>161.2</ele>
        <time>2022-10-29T08:50:45Z</time>
      </trkpt>
      <trkpt lat="43.3301620" lon="-1.8982010">
        <ele>161.4</ele>
        <time>2022-10-29T08:50:46Z</time>
      </trkpt>
      <trkpt lat="43.3301880" lon="-1.8982090">
        <ele>161.4</ele>
        <time>2022-10-29T08:50:47Z</time>
      </trkpt>
      <trkpt lat="43.3302130" lon="-1.8982240">
        <ele>161.8</ele>
        <time>2022-10-29T08:50:48Z</time>
      </trkpt>
      <trkpt lat="43.3302390" lon="-1.8982370">
        <ele>162.2</ele>
        <time>2022-10-29T08:50:49Z</time>
      </trkpt>
      <trkpt lat="43.3302650" lon="-1.8982460">
        <ele>162.4</ele>
        <time>2022-10-29T08:50:50Z</time>
      </trkpt>
      <trkpt lat="43.3302910" lon="-1.8982580">
        <ele>162.8</ele>
        <time>2022-10-29T08:50:51Z</time>
      </trkpt>
      <trkpt lat="43.3303170" lon="-1.8982710">
        <ele>163.4</ele>
        <time>2022-10-29T08:50:52Z</time>
      </trkpt>
      <trkpt lat="43.3303360" lon="-1.8982840">
        <ele>163.4</ele>
        <time>2022-10-29T08:50:53Z</time>
      </trkpt>
      <trkpt lat="43.3303630" lon="-1.8983060">
        <ele>163.8</ele>
        <time>2022-10-29T08:50:54Z</time>
      </trkpt>
      <trkpt lat="43.3303810" lon="-1.8983160">
        <ele>164.0</ele>
        <time>2022-10-29T08:50:55Z</time>
      </trkpt>
      <trkpt lat="43.3304060" lon="-1.8983260">
        <ele>164.2</ele>
        <time>2022-10-29T08:50:56Z</time>
      </trkpt>
      <trkpt lat="43.3304320" lon="-1.8983360">
        <ele>164.4</ele>
        <time>2022-10-29T08:50:57Z</time>
      </trkpt>
      <trkpt lat="43.3304550" lon="-1.8983480">
        <ele>164.8</ele>
        <time>2022-10-29T08:50:58Z</time>
      </trkpt>
      <trkpt lat="43.3304830" lon="-1.8983570">
        <ele>165.0</ele>
        <time>2022-10-29T08:50:59Z</time>
      </trkpt>
      <trkpt lat="43.3305040" lon="-1.8983680">
        <ele>165.2</ele>
        <time>2022-10-29T08:51:00Z</time>
      </trkpt>
      <trkpt lat="43.3305280" lon="-1.8983820">
        <ele>165.4</ele>
        <time>2022-10-29T08:51:01Z</time>
      </trkpt>
      <trkpt lat="43.3305540" lon="-1.8983970">
        <ele>165.8</ele>
        <time>2022-10-29T08:51:02Z</time>
      </trkpt>
      <trkpt lat="43.3305770" lon="-1.8984090">
        <ele>166.4</ele>
        <time>2022-10-29T08:51:03Z</time>
      </trkpt>
      <trkpt lat="43.3305990" lon="-1.8984180">
        <ele>166.6</ele>
        <time>2022-10-29T08:51:04Z</time>
      </trkpt>
      <trkpt lat="43.3306210" lon="-1.8984300">
        <ele>167.0</ele>
        <time>2022-10-29T08:51:05Z</time>
      </trkpt>
      <trkpt lat="43.3306460" lon="-1.8984410">
        <ele>167.2</ele>
        <time>2022-10-29T08:51:06Z</time>
      </trkpt>
      <trkpt lat="43.3306680" lon="-1.8984470">
        <ele>167.8</ele>
        <time>2022-10-29T08:51:07Z</time>
      </trkpt>
      <trkpt lat="43.3306900" lon="-1.8984500">
        <ele>168.2</ele>
        <time>2022-10-29T08:51:08Z</time>
      </trkpt>
      <trkpt lat="43.3307090" lon="-1.8984520">
        <ele>168.4</ele>
        <time>2022-10-29T08:51:09Z</time>
      </trkpt>
      <trkpt lat="43.3307340" lon="-1.8984540">
        <ele>168.8</ele>
        <time>2022-10-29T08:51:10Z</time>
      </trkpt>
      <trkpt lat="43.3307630" lon="-1.8984630">
        <ele>168.8</ele>
        <time>2022-10-29T08:51:11Z</time>
      </trkpt>
      <trkpt lat="43.3307850" lon="-1.8984750">
        <ele>169.2</ele>
        <time>2022-10-29T08:51:12Z</time>
      </trkpt>
      <trkpt lat="43.3308080" lon="-1.8984860">
        <ele>169.4</ele>
        <time>2022-10-29T08:51:13Z</time>
      </trkpt>
      <trkpt lat="43.3308320" lon="-1.8984970">
        <ele>169.6</ele>
        <time>2022-10-29T08:51:14Z</time>
      </trkpt>
      <trkpt lat="43.3308560" lon="-1.8985070">
        <ele>169.8</ele>
        <time>2022-10-29T08:51:15Z</time>
      </trkpt>
      <trkpt lat="43.3308760" lon="-1.8985180">
        <ele>170.2</ele>
        <time>2022-10-29T08:51:16Z</time>
      </trkpt>
      <trkpt lat="43.3308990" lon="-1.8985280">
        <ele>170.4</ele>
        <time>2022-10-29T08:51:17Z</time>
      </trkpt>
      <trkpt lat="43.3309230" lon="-1.8985330">
        <ele>170.8</ele>
        <time>2022-10-29T08:51:18Z</time>
      </trkpt>
      <trkpt lat="43.3309470" lon="-1.8985400">
        <ele>171.0</ele>
        <time>2022-10-29T08:51:19Z</time>
      </trkpt>
      <trkpt lat="43.3309710" lon="-1.8985480">
        <ele>171.2</ele>
        <time>2022-10-29T08:51:20Z</time>
      </trkpt>
      <trkpt lat="43.3309970" lon="-1.8985550">
        <ele>171.8</ele>
        <time>2022-10-29T08:51:21Z</time>
      </trkpt>
      <trkpt lat="43.3310230" lon="-1.8985630">
        <ele>172.0</ele>
        <time>2022-10-29T08:51:22Z</time>
      </trkpt>
      <trkpt lat="43.3310450" lon="-1.8985710">
        <ele>172.2</ele>
        <time>2022-10-29T08:51:23Z</time>
      </trkpt>
      <trkpt lat="43.3310700" lon="-1.8985800">
        <ele>172.6</ele>
        <time>2022-10-29T08:51:24Z</time>
      </trkpt>
      <trkpt lat="43.3310970" lon="-1.8985860">
        <ele>173.0</ele>
        <time>2022-10-29T08:51:25Z</time>
      </trkpt>
      <trkpt lat="43.3311220" lon="-1.8985930">
        <ele>173.2</ele>
        <time>2022-10-29T08:51:26Z</time>
      </trkpt>
      <trkpt lat="43.3311490" lon="-1.8986000">
        <ele>173.4</ele>
        <time>2022-10-29T08:51:27Z</time>
      </trkpt>
      <trkpt lat="43.3311750" lon="-1.8986070">
        <ele>173.8</ele>
        <time>2022-10-29T08:51:28Z</time>
      </trkpt>
      <trkpt lat="43.3312010" lon="-1.8986140">
        <ele>174.0</ele>
        <time>2022-10-29T08:51:29Z</time>
      </trkpt>
      <trkpt lat="43.3312270" lon="-1.8986230">
        <ele>174.6</ele>
        <time>2022-10-29T08:51:30Z</time>
      </trkpt>
      <trkpt lat="43.3312530" lon="-1.8986340">
        <ele>174.8</ele>
        <time>2022-10-29T08:51:31Z</time>
      </trkpt>
      <trkpt lat="43.3312770" lon="-1.8986460">
        <ele>175.2</ele>
        <time>2022-10-29T08:51:32Z</time>
      </trkpt>
      <trkpt lat="43.3313030" lon="-1.8986570">
        <ele>175.4</ele>
        <time>2022-10-29T08:51:33Z</time>
      </trkpt>
      <trkpt lat="43.3313290" lon="-1.8986670">
        <ele>175.6</ele>
        <time>2022-10-29T08:51:34Z</time>
      </trkpt>
      <trkpt lat="43.3313550" lon="-1.8986770">
        <ele>176.0</ele>
        <time>2022-10-29T08:51:35Z</time>
      </trkpt>
      <trkpt lat="43.3313810" lon="-1.8986900">
        <ele>176.6</ele>
        <time>2022-10-29T08:51:36Z</time>
      </trkpt>
      <trkpt lat="43.3314050" lon="-1.8987060">
        <ele>176.8</ele>
        <time>2022-10-29T08:51:37Z</time>
      </trkpt>
      <trkpt lat="43.3314290" lon="-1.8987250">
        <ele>177.2</ele>
        <time>2022-10-29T08:51:38Z</time>
      </trkpt>
      <trkpt lat="43.3314490" lon="-1.8987380">
        <ele>177.6</ele>
        <time>2022-10-29T08:51:39Z</time>
      </trkpt>
      <trkpt lat="43.3314790" lon="-1.8987570">
        <ele>177.8</ele>
        <time>2022-10-29T08:51:40Z</time>
      </trkpt>
      <trkpt lat="43.3315020" lon="-1.8987740">
        <ele>178.0</ele>
        <time>2022-10-29T08:51:41Z</time>
      </trkpt>
      <trkpt lat="43.3315250" lon="-1.8987910">
        <ele>178.4</ele>
        <time>2022-10-29T08:51:42Z</time>
      </trkpt>
      <trkpt lat="43.3315480" lon="-1.8988080">
        <ele>178.6</ele>
        <time>2022-10-29T08:51:43Z</time>
      </trkpt>
      <trkpt lat="43.3315700" lon="-1.8988260">
        <ele>178.8</ele>
        <time>2022-10-29T08:51:44Z</time>
      </trkpt>
      <trkpt lat="43.3315940" lon="-1.8988450">
        <ele>179.4</ele>
        <time>2022-10-29T08:51:45Z</time>
      </trkpt>
      <trkpt lat="43.3316220" lon="-1.8988650">
        <ele>179.6</ele>
        <time>2022-10-29T08:51:46Z</time>
      </trkpt>
      <trkpt lat="43.3316460" lon="-1.8988830">
        <ele>180.0</ele>
        <time>2022-10-29T08:51:47Z</time>
      </trkpt>
      <trkpt lat="43.3316650" lon="-1.8988980">
        <ele>180.2</ele>
        <time>2022-10-29T08:51:48Z</time>
      </trkpt>
      <trkpt lat="43.3316950" lon="-1.8989240">
        <ele>180.8</ele>
        <time>2022-10-29T08:51:49Z</time>
      </trkpt>
      <trkpt lat="43.3317200" lon="-1.8989460">
        <ele>181.2</ele>
        <time>2022-10-29T08:51:50Z</time>
      </trkpt>
      <trkpt lat="43.3317440" lon="-1.8989620">
        <ele>181.4</ele>
        <time>2022-10-29T08:51:51Z</time>
      </trkpt>
      <trkpt lat="43.3317610" lon="-1.8989740">
        <ele>182.0</ele>
        <time>2022-10-29T08:51:52Z</time>
      </trkpt>
      <trkpt lat="43.3317870" lon="-1.8989960">
        <ele>182.2</ele>
        <time>2022-10-29T08:51:53Z</time>
      </trkpt>
      <trkpt lat="43.3318100" lon="-1.8990080">
        <ele>182.6</ele>
        <time>2022-10-29T08:51:54Z</time>
      </trkpt>
      <trkpt lat="43.3318330" lon="-1.8990200">
        <ele>183.0</ele>
        <time>2022-10-29T08:51:55Z</time>
      </trkpt>
      <trkpt lat="43.3318550" lon="-1.8990340">
        <ele>183.4</ele>
        <time>2022-10-29T08:51:56Z</time>
      </trkpt>
      <trkpt lat="43.3318760" lon="-1.8990490">
        <ele>183.6</ele>
        <time>2022-10-29T08:51:57Z</time>
      </trkpt>
      <trkpt lat="43.3318980" lon="-1.8990610">
        <ele>184.0</ele>
        <time>2022-10-29T08:51:58Z</time>
      </trkpt>
      <trkpt lat="43.3319200" lon="-1.8990740">
        <ele>184.4</ele>
        <time>2022-10-29T08:51:59Z</time>
      </trkpt>
      <trkpt lat="43.3319440" lon="-1.8990870">
        <ele>184.6</ele>
        <time>2022-10-29T08:52:00Z</time>
      </trkpt>
      <trkpt lat="43.3319660" lon="-1.8991010">
        <ele>185.0</ele>
        <time>2022-10-29T08:52:01Z</time>
      </trkpt>
      <trkpt lat="43.3319870" lon="-1.8991160">
        <ele>185.0</ele>
        <time>2022-10-29T08:52:02Z</time>
      </trkpt>
      <trkpt lat="43.3320080" lon="-1.8991300">
        <ele>185.4</ele>
        <time>2022-10-29T08:52:03Z</time>
      </trkpt>
      <trkpt lat="43.3320320" lon="-1.8991480">
        <ele>185.8</ele>
        <time>2022-10-29T08:52:04Z</time>
      </trkpt>
      <trkpt lat="43.3320550" lon="-1.8991630">
        <ele>186.2</ele>
        <time>2022-10-29T08:52:05Z</time>
      </trkpt>
      <trkpt lat="43.3320820" lon="-1.8991760">
        <ele>186.2</ele>
        <time>2022-10-29T08:52:06Z</time>
      </trkpt>
      <trkpt lat="43.3321080" lon="-1.8991870">
        <ele>186.8</ele>
        <time>2022-10-29T08:52:07Z</time>
      </trkpt>
      <trkpt lat="43.3321350" lon="-1.8992000">
        <ele>186.8</ele>
        <time>2022-10-29T08:52:08Z</time>
      </trkpt>
      <trkpt lat="43.3321600" lon="-1.8992110">
        <ele>187.2</ele>
        <time>2022-10-29T08:52:09Z</time>
      </trkpt>
      <trkpt lat="43.3321840" lon="-1.8992210">
        <ele>187.6</ele>
        <time>2022-10-29T08:52:10Z</time>
      </trkpt>
      <trkpt lat="43.3322080" lon="-1.8992320">
        <ele>187.8</ele>
        <time>2022-10-29T08:52:11Z</time>
      </trkpt>
      <trkpt lat="43.3322320" lon="-1.8992430">
        <ele>188.2</ele>
        <time>2022-10-29T08:52:12Z</time>
      </trkpt>
      <trkpt lat="43.3322550" lon="-1.8992590">
        <ele>188.4</ele>
        <time>2022-10-29T08:52:13Z</time>
      </trkpt>
      <trkpt lat="43.3322810" lon="-1.8992750">
        <ele>188.8</ele>
        <time>2022-10-29T08:52:14Z</time>
      </trkpt>
      <trkpt lat="43.3323040" lon="-1.8992910">
        <ele>189.0</ele>
        <time>2022-10-29T08:52:15Z</time>
      </trkpt>
      <trkpt lat="43.3323260" lon="-1.8993050">
        <ele>189.4</ele>
        <time>2022-10-29T08:52:16Z</time>
      </trkpt>
      <trkpt lat="43.3323500" lon="-1.8993180">
        <ele>189.4</ele>
        <time>2022-10-29T08:52:17Z</time>
      </trkpt>
      <trkpt lat="43.3323740" lon="-1.8993290">
        <ele>189.8</ele>
        <time>2022-10-29T08:52:18Z</time>
      </trkpt>
      <trkpt lat="43.3324000" lon="-1.8993380">
        <ele>190.2</ele>
        <time>2022-10-29T08:52:19Z</time>
      </trkpt>
      <trkpt lat="43.3324240" lon="-1.8993480">
        <ele>190.4</ele>
        <time>2022-10-29T08:52:20Z</time>
      </trkpt>
      <trkpt lat="43.3324490" lon="-1.8993510">
        <ele>190.8</ele>
        <time>2022-10-29T08:52:21Z</time>
      </trkpt>
      <trkpt lat="43.3324730" lon="-1.8993550">
        <ele>191.0</ele>
        <time>2022-10-29T08:52:22Z</time>
      </trkpt>
      <trkpt lat="43.3324950" lon="-1.8993570">
        <ele>191.2</ele>
        <time>2022-10-29T08:52:23Z</time>
      </trkpt>
      <trkpt lat="43.3325170" lon="-1.8993530">
        <ele>191.4</ele>
        <time>2022-10-29T08:52:24Z</time>
      </trkpt>
      <trkpt lat="43.3325360" lon="-1.8993430">
        <ele>192.0</ele>
        <time>2022-10-29T08:52:25Z</time>
      </trkpt>
      <trkpt lat="43.3325470" lon="-1.8993200">
        <ele>192.2</ele>
        <time>2022-10-29T08:52:26Z</time>
      </trkpt>
      <trkpt lat="43.3325500" lon="-1.8992890">
        <ele>192.2</ele>
        <time>2022-10-29T08:52:27Z</time>
      </trkpt>
      <trkpt lat="43.3325450" lon="-1.8992570">
        <ele>192.8</ele>
        <time>2022-10-29T08:52:28Z</time>
      </trkpt>
      <trkpt lat="43.3325340" lon="-1.8992350">
        <ele>193.0</ele>
        <time>2022-10-29T08:52:29Z</time>
      </trkpt>
      <trkpt lat="43.3325240" lon="-1.8992200">
        <ele>193.6</ele>
        <time>2022-10-29T08:52:30Z</time>
      </trkpt>
      <trkpt lat="43.3325050" lon="-1.8992060">
        <ele>193.8</ele>
        <time>2022-10-29T08:52:31Z</time>
      </trkpt>
      <trkpt lat="43.3324870" lon="-1.8991910">
        <ele>194.4</ele>
        <time>2022-10-29T08:52:32Z</time>
      </trkpt>
      <trkpt lat="43.3324740" lon="-1.8991770">
        <ele>194.6</ele>
        <time>2022-10-29T08:52:33Z</time>
      </trkpt>
      <trkpt lat="43.3324630" lon="-1.8991670">
        <ele>194.8</ele>
        <time>2022-10-29T08:52:34Z</time>
      </trkpt>
      <trkpt lat="43.3324530" lon="-1.8991620">
        <ele>194.8</ele>
        <time>2022-10-29T08:52:35Z</time>
      </trkpt>
      <trkpt lat="43.3324410" lon="-1.8991600">
        <ele>195.0</ele>
        <time>2022-10-29T08:52:36Z</time>
      </trkpt>
      <trkpt lat="43.3324370" lon="-1.8991610">
        <ele>195.0</ele>
        <time>2022-10-29T08:52:37Z</time>
      </trkpt>
      <trkpt lat="43.3324310" lon="-1.8991570">
        <ele>195.2</ele>
        <time>2022-10-29T08:52:38Z</time>
      </trkpt>
      <trkpt lat="43.3324190" lon="-1.8991480">
        <ele>196.0</ele>
        <time>2022-10-29T08:52:39Z</time>
      </trkpt>
      <trkpt lat="43.3324060" lon="-1.8991380">
        <ele>196.4</ele>
        <time>2022-10-29T08:52:40Z</time>
      </trkpt>
      <trkpt lat="43.3323950" lon="-1.8991300">
        <ele>196.8</ele>
        <time>2022-10-29T08:52:41Z</time>
      </trkpt>
      <trkpt lat="43.3323840" lon="-1.8991220">
        <ele>197.0</ele>
        <time>2022-10-29T08:52:42Z</time>
      </trkpt>
      <trkpt lat="43.3323730" lon="-1.8991140">
        <ele>197.4</ele>
        <time>2022-10-29T08:52:43Z</time>
      </trkpt>
      <trkpt lat="43.3323590" lon="-1.8991020">
        <ele>197.8</ele>
        <time>2022-10-29T08:52:44Z</time>
      </trkpt>
      <trkpt lat="43.3323430" lon="-1.8990920">
        <ele>198.2</ele>
        <time>2022-10-29T08:52:45Z</time>
      </trkpt>
      <trkpt lat="43.3323320" lon="-1.8990840">
        <ele>198.4</ele>
        <time>2022-10-29T08:52:46Z</time>
      </trkpt>
      <trkpt lat="43.3323230" lon="-1.8990770">
        <ele>199.0</ele>
        <time>2022-10-29T08:52:47Z</time>
      </trkpt>
      <trkpt lat="43.3323100" lon="-1.8990680">
        <ele>199.4</ele>
        <time>2022-10-29T08:52:48Z</time>
      </trkpt>
      <trkpt lat="43.3322930" lon="-1.8990530">
        <ele>199.8</ele>
        <time>2022-10-29T08:52:49Z</time>
      </trkpt>
      <trkpt lat="43.3322740" lon="-1.8990390">
        <ele>200.2</ele>
        <time>2022-10-29T08:52:50Z</time>
      </trkpt>
      <trkpt lat="43.3322520" lon="-1.8990230">
        <ele>200.2</ele>
        <time>2022-10-29T08:52:51Z</time>
      </trkpt>
      <trkpt lat="43.3322330" lon="-1.8990030">
        <ele>200.6</ele>
        <time>2022-10-29T08:52:52Z</time>
      </trkpt>
      <trkpt lat="43.3322210" lon="-1.8989890">
        <ele>200.8</ele>
        <time>2022-10-29T08:52:53Z</time>
      </trkpt>
      <trkpt lat="43.3322080" lon="-1.8989690">
        <ele>201.0</ele>
        <time>2022-10-29T08:52:54Z</time>
      </trkpt>
      <trkpt lat="43.3322010" lon="-1.8989530">
        <ele>201.0</ele>
        <time>2022-10-29T08:52:55Z</time>
      </trkpt>
      <trkpt lat="43.3321870" lon="-1.8989220">
        <ele>201.2</ele>
        <time>2022-10-29T08:52:56Z</time>
      </trkpt>
      <trkpt lat="43.3321720" lon="-1.8988930">
        <ele>201.2</ele>
        <time>2022-10-29T08:52:57Z</time>
      </trkpt>
      <trkpt lat="43.3321570" lon="-1.8988600">
        <ele>201.4</ele>
        <time>2022-10-29T08:52:58Z</time>
      </trkpt>
      <trkpt lat="43.3321450" lon="-1.8988210">
        <ele>201.6</ele>
        <time>2022-10-29T08:52:59Z</time>
      </trkpt>
      <trkpt lat="43.3321450" lon="-1.8988020">
        <ele>201.6</ele>
        <time>2022-10-29T08:53:00Z</time>
      </trkpt>
      <trkpt lat="43.3321380" lon="-1.8987760">
        <ele>201.8</ele>
        <time>2022-10-29T08:53:01Z</time>
      </trkpt>
      <trkpt lat="43.3321280" lon="-1.8987480">
        <ele>202.0</ele>
        <time>2022-10-29T08:53:02Z</time>
      </trkpt>
      <trkpt lat="43.3321110" lon="-1.8987200">
        <ele>202.0</ele>
        <time>2022-10-29T08:53:03Z</time>
      </trkpt>
      <trkpt lat="43.3320920" lon="-1.8986870">
        <ele>202.0</ele>
        <time>2022-10-29T08:53:04Z</time>
      </trkpt>
      <trkpt lat="43.3320710" lon="-1.8986430">
        <ele>202.4</ele>
        <time>2022-10-29T08:53:05Z</time>
      </trkpt>
      <trkpt lat="43.3320550" lon="-1.8986210">
        <ele>202.4</ele>
        <time>2022-10-29T08:53:06Z</time>
      </trkpt>
      <trkpt lat="43.3320370" lon="-1.8986000">
        <ele>202.8</ele>
        <time>2022-10-29T08:53:07Z</time>
      </trkpt>
      <trkpt lat="43.3320070" lon="-1.8985800">
        <ele>202.8</ele>
        <time>2022-10-29T08:53:08Z</time>
      </trkpt>
      <trkpt lat="43.3319770" lon="-1.8985660">
        <ele>203.0</ele>
        <time>2022-10-29T08:53:09Z</time>
      </trkpt>
      <trkpt lat="43.3319460" lon="-1.8985590">
        <ele>203.2</ele>
        <time>2022-10-29T08:53:10Z</time>
      </trkpt>
      <trkpt lat="43.3319190" lon="-1.8985570">
        <ele>203.2</ele>
        <time>2022-10-29T08:53:11Z</time>
      </trkpt>
      <trkpt lat="43.3318990" lon="-1.8985570">
        <ele>203.4</ele>
        <time>2022-10-29T08:53:12Z</time>
      </trkpt>
      <trkpt lat="43.3318760" lon="-1.8985440">
        <ele>203.6</ele>
        <time>2022-10-29T08:53:13Z</time>
      </trkpt>
      <trkpt lat="43.3318520" lon="-1.8985350">
        <ele>203.8</ele>
        <time>2022-10-29T08:53:14Z</time>
      </trkpt>
      <trkpt lat="43.3318310" lon="-1.8985250">
        <ele>203.8</ele>
        <time>2022-10-29T08:53:15Z</time>
      </trkpt>
      <trkpt lat="43.3318030" lon="-1.8985100">
        <ele>204.0</ele>
        <time>2022-10-29T08:53:16Z</time>
      </trkpt>
      <trkpt lat="43.3317790" lon="-1.8984880">
        <ele>204.0</ele>
        <time>2022-10-29T08:53:17Z</time>
      </trkpt>
      <trkpt lat="43.3317630" lon="-1.8984640">
        <ele>204.4</ele>
        <time>2022-10-29T08:53:18Z</time>
      </trkpt>
      <trkpt lat="43.3317420" lon="-1.8984240">
        <ele>204.4</ele>
        <time>2022-10-29T08:53:19Z</time>
      </trkpt>
      <trkpt lat="43.3317090" lon="-1.8983860">
        <ele>204.6</ele>
        <time>2022-10-29T08:53:20Z</time>
      </trkpt>
      <trkpt lat="43.3316870" lon="-1.8983500">
        <ele>204.6</ele>
        <time>2022-10-29T08:53:21Z</time>
      </trkpt>
      <trkpt lat="43.3316550" lon="-1.8983000">
        <ele>204.6</ele>
        <time>2022-10-29T08:53:22Z</time>
      </trkpt>
      <trkpt lat="43.3316280" lon="-1.8982340">
        <ele>204.8</ele>
        <time>2022-10-29T08:53:23Z</time>
      </trkpt>
      <trkpt lat="43.3316060" lon="-1.8981900">
        <ele>204.8</ele>
        <time>2022-10-29T08:53:24Z</time>
      </trkpt>
      <trkpt lat="43.3315870" lon="-1.8981430">
        <ele>204.8</ele>
        <time>2022-10-29T08:53:25Z</time>
      </trkpt>
      <trkpt lat="43.3315670" lon="-1.8981090">
        <ele>204.8</ele>
        <time>2022-10-29T08:53:26Z</time>
      </trkpt>
      <trkpt lat="43.3315350" lon="-1.8980720">
        <ele>204.8</ele>
        <time>2022-10-29T08:53:27Z</time>
      </trkpt>
      <trkpt lat="43.3314970" lon="-1.8980550">
        <ele>204.6</ele>
        <time>2022-10-29T08:53:28Z</time>
      </trkpt>
      <trkpt lat="43.3314460" lon="-1.8980490">
        <ele>204.6</ele>
        <time>2022-10-29T08:53:29Z</time>
      </trkpt>
      <trkpt lat="43.3314050" lon="-1.8980460">
        <ele>204.4</ele>
        <time>2022-10-29T08:53:30Z</time>
      </trkpt>
      <trkpt lat="43.3313550" lon="-1.8980470">
        <ele>204.4</ele>
        <time>2022-10-29T08:53:31Z</time>
      </trkpt>
      <trkpt lat="43.3313010" lon="-1.8980610">
        <ele>204.4</ele>
        <time>2022-10-29T08:53:32Z</time>
      </trkpt>
      <trkpt lat="43.3312490" lon="-1.8980600">
        <ele>204.4</ele>
        <time>2022-10-29T08:53:33Z</time>
      </trkpt>
      <trkpt lat="43.3311990" lon="-1.8980340">
        <ele>204.4</ele>
        <time>2022-10-29T08:53:34Z</time>
      </trkpt>
      <trkpt lat="43.3311550" lon="-1.8980140">
        <ele>204.4</ele>
        <time>2022-10-29T08:53:35Z</time>
      </trkpt>
      <trkpt lat="43.3311150" lon="-1.8979950">
        <ele>204.4</ele>
        <time>2022-10-29T08:53:36Z</time>
      </trkpt>
      <trkpt lat="43.3310590" lon="-1.8979720">
        <ele>204.4</ele>
        <time>2022-10-29T08:53:37Z</time>
      </trkpt>
      <trkpt lat="43.3310200" lon="-1.8979490">
        <ele>204.4</ele>
        <time>2022-10-29T08:53:38Z</time>
      </trkpt>
      <trkpt lat="43.3309660" lon="-1.8979290">
        <ele>204.4</ele>
        <time>2022-10-29T08:53:39Z</time>
      </trkpt>
      <trkpt lat="43.3309180" lon="-1.8978910">
        <ele>204.4</ele>
        <time>2022-10-29T08:53:40Z</time>
      </trkpt>
      <trkpt lat="43.3308830" lon="-1.8978480">
        <ele>204.4</ele>
        <time>2022-10-29T08:53:41Z</time>
      </trkpt>
      <trkpt lat="43.3308350" lon="-1.8978060">
        <ele>204.4</ele>
        <time>2022-10-29T08:53:42Z</time>
      </trkpt>
      <trkpt lat="43.3307900" lon="-1.8977730">
        <ele>204.4</ele>
        <time>2022-10-29T08:53:43Z</time>
      </trkpt>
      <trkpt lat="43.3307010" lon="-1.8976940">
        <ele>204.4</ele>
        <time>2022-10-29T08:53:45Z</time>
      </trkpt>
      <trkpt lat="43.3306370" lon="-1.8975920">
        <ele>203.6</ele>
        <time>2022-10-29T08:53:47Z</time>
      </trkpt>
      <trkpt lat="43.3305920" lon="-1.8974470">
        <ele>203.2</ele>
        <time>2022-10-29T08:53:49Z</time>
      </trkpt>
      <trkpt lat="43.3305860" lon="-1.8973690">
        <ele>203.0</ele>
        <time>2022-10-29T08:53:50Z</time>
      </trkpt>
      <trkpt lat="43.3305750" lon="-1.8972950">
        <ele>202.8</ele>
        <time>2022-10-29T08:53:51Z</time>
      </trkpt>
      <trkpt lat="43.3305680" lon="-1.8972250">
        <ele>202.6</ele>
        <time>2022-10-29T08:53:52Z</time>
      </trkpt>
      <trkpt lat="43.3305830" lon="-1.8970870">
        <ele>202.2</ele>
        <time>2022-10-29T08:53:54Z</time>
      </trkpt>
      <trkpt lat="43.3306090" lon="-1.8969830">
        <ele>202.0</ele>
        <time>2022-10-29T08:53:56Z</time>
      </trkpt>
      <trkpt lat="43.3306230" lon="-1.8969200">
        <ele>201.8</ele>
        <time>2022-10-29T08:53:57Z</time>
      </trkpt>
      <trkpt lat="43.3306360" lon="-1.8968660">
        <ele>201.6</ele>
        <time>2022-10-29T08:53:58Z</time>
      </trkpt>
      <trkpt lat="43.3306470" lon="-1.8968290">
        <ele>201.6</ele>
        <time>2022-10-29T08:53:59Z</time>
      </trkpt>
      <trkpt lat="43.3306680" lon="-1.8967750">
        <ele>201.6</ele>
        <time>2022-10-29T08:54:00Z</time>
      </trkpt>
      <trkpt lat="43.3306840" lon="-1.8967300">
        <ele>201.6</ele>
        <time>2022-10-29T08:54:01Z</time>
      </trkpt>
      <trkpt lat="43.3307010" lon="-1.8966860">
        <ele>201.6</ele>
        <time>2022-10-29T08:54:02Z</time>
      </trkpt>
      <trkpt lat="43.3307150" lon="-1.8966470">
        <ele>201.8</ele>
        <time>2022-10-29T08:54:03Z</time>
      </trkpt>
      <trkpt lat="43.3307280" lon="-1.8966170">
        <ele>202.0</ele>
        <time>2022-10-29T08:54:04Z</time>
      </trkpt>
      <trkpt lat="43.3307590" lon="-1.8965420">
        <ele>202.2</ele>
        <time>2022-10-29T08:54:06Z</time>
      </trkpt>
      <trkpt lat="43.3307740" lon="-1.8965110">
        <ele>202.6</ele>
        <time>2022-10-29T08:54:07Z</time>
      </trkpt>
      <trkpt lat="43.3307870" lon="-1.8964830">
        <ele>202.8</ele>
        <time>2022-10-29T08:54:08Z</time>
      </trkpt>
      <trkpt lat="43.3308210" lon="-1.8964060">
        <ele>203.2</ele>
        <time>2022-10-29T08:54:10Z</time>
      </trkpt>
      <trkpt lat="43.3308370" lon="-1.8963770">
        <ele>203.2</ele>
        <time>2022-10-29T08:54:11Z</time>
      </trkpt>
      <trkpt lat="43.3308550" lon="-1.8963440">
        <ele>203.4</ele>
        <time>2022-10-29T08:54:12Z</time>
      </trkpt>
      <trkpt lat="43.3308670" lon="-1.8963170">
        <ele>203.6</ele>
        <time>2022-10-29T08:54:13Z</time>
      </trkpt>
      <trkpt lat="43.3308880" lon="-1.8962780">
        <ele>204.2</ele>
        <time>2022-10-29T08:54:14Z</time>
      </trkpt>
      <trkpt lat="43.3309070" lon="-1.8962500">
        <ele>204.2</ele>
        <time>2022-10-29T08:54:15Z</time>
      </trkpt>
      <trkpt lat="43.3309230" lon="-1.8962200">
        <ele>204.4</ele>
        <time>2022-10-29T08:54:16Z</time>
      </trkpt>
      <trkpt lat="43.3309360" lon="-1.8961850">
        <ele>204.6</ele>
        <time>2022-10-29T08:54:17Z</time>
      </trkpt>
      <trkpt lat="43.3309480" lon="-1.8961520">
        <ele>205.0</ele>
        <time>2022-10-29T08:54:18Z</time>
      </trkpt>
      <trkpt lat="43.3309580" lon="-1.8961220">
        <ele>205.2</ele>
        <time>2022-10-29T08:54:19Z</time>
      </trkpt>
      <trkpt lat="43.3309640" lon="-1.8960930">
        <ele>205.4</ele>
        <time>2022-10-29T08:54:20Z</time>
      </trkpt>
      <trkpt lat="43.3309720" lon="-1.8960610">
        <ele>205.8</ele>
        <time>2022-10-29T08:54:21Z</time>
      </trkpt>
      <trkpt lat="43.3310100" lon="-1.8960040">
        <ele>206.2</ele>
        <time>2022-10-29T08:54:23Z</time>
      </trkpt>
      <trkpt lat="43.3310260" lon="-1.8959740">
        <ele>206.4</ele>
        <time>2022-10-29T08:54:24Z</time>
      </trkpt>
      <trkpt lat="43.3310360" lon="-1.8959410">
        <ele>206.8</ele>
        <time>2022-10-29T08:54:25Z</time>
      </trkpt>
      <trkpt lat="43.3310500" lon="-1.8959040">
        <ele>207.0</ele>
        <time>2022-10-29T08:54:26Z</time>
      </trkpt>
      <trkpt lat="43.3310620" lon="-1.8958670">
        <ele>207.2</ele>
        <time>2022-10-29T08:54:27Z</time>
      </trkpt>
      <trkpt lat="43.3310650" lon="-1.8958240">
        <ele>207.4</ele>
        <time>2022-10-29T08:54:28Z</time>
      </trkpt>
      <trkpt lat="43.3310770" lon="-1.8957800">
        <ele>207.6</ele>
        <time>2022-10-29T08:54:29Z</time>
      </trkpt>
      <trkpt lat="43.3310880" lon="-1.8957410">
        <ele>208.0</ele>
        <time>2022-10-29T08:54:30Z</time>
      </trkpt>
      <trkpt lat="43.3311000" lon="-1.8956970">
        <ele>208.0</ele>
        <time>2022-10-29T08:54:31Z</time>
      </trkpt>
      <trkpt lat="43.3311120" lon="-1.8956550">
        <ele>208.2</ele>
        <time>2022-10-29T08:54:32Z</time>
      </trkpt>
      <trkpt lat="43.3311250" lon="-1.8956120">
        <ele>208.4</ele>
        <time>2022-10-29T08:54:33Z</time>
      </trkpt>
      <trkpt lat="43.3311390" lon="-1.8955680">
        <ele>208.8</ele>
        <time>2022-10-29T08:54:34Z</time>
      </trkpt>
      <trkpt lat="43.3311490" lon="-1.8955100">
        <ele>208.8</ele>
        <time>2022-10-29T08:54:35Z</time>
      </trkpt>
      <trkpt lat="43.3311590" lon="-1.8954560">
        <ele>208.8</ele>
        <time>2022-10-29T08:54:36Z</time>
      </trkpt>
      <trkpt lat="43.3311700" lon="-1.8954000">
        <ele>209.0</ele>
        <time>2022-10-29T08:54:37Z</time>
      </trkpt>
      <trkpt lat="43.3311770" lon="-1.8953440">
        <ele>209.0</ele>
        <time>2022-10-29T08:54:38Z</time>
      </trkpt>
      <trkpt lat="43.3311890" lon="-1.8952840">
        <ele>209.0</ele>
        <time>2022-10-29T08:54:39Z</time>
      </trkpt>
      <trkpt lat="43.3312060" lon="-1.8952290">
        <ele>209.0</ele>
        <time>2022-10-29T08:54:40Z</time>
      </trkpt>
      <trkpt lat="43.3312280" lon="-1.8951650">
        <ele>209.0</ele>
        <time>2022-10-29T08:54:41Z</time>
      </trkpt>
      <trkpt lat="43.3312430" lon="-1.8951290">
        <ele>209.0</ele>
        <time>2022-10-29T08:54:42Z</time>
      </trkpt>
      <trkpt lat="43.3312580" lon="-1.8950870">
        <ele>209.2</ele>
        <time>2022-10-29T08:54:43Z</time>
      </trkpt>
      <trkpt lat="43.3312650" lon="-1.8950420">
        <ele>209.4</ele>
        <time>2022-10-29T08:54:44Z</time>
      </trkpt>
      <trkpt lat="43.3312690" lon="-1.8949730">
        <ele>209.6</ele>
        <time>2022-10-29T08:54:45Z</time>
      </trkpt>
      <trkpt lat="43.3312920" lon="-1.8949010">
        <ele>209.8</ele>
        <time>2022-10-29T08:54:46Z</time>
      </trkpt>
      <trkpt lat="43.3313020" lon="-1.8948450">
        <ele>210.0</ele>
        <time>2022-10-29T08:54:47Z</time>
      </trkpt>
      <trkpt lat="43.3313220" lon="-1.8947880">
        <ele>210.2</ele>
        <time>2022-10-29T08:54:48Z</time>
      </trkpt>
      <trkpt lat="43.3313440" lon="-1.8947280">
        <ele>210.4</ele>
        <time>2022-10-29T08:54:49Z</time>
      </trkpt>
      <trkpt lat="43.3313640" lon="-1.8946730">
        <ele>210.4</ele>
        <time>2022-10-29T08:54:50Z</time>
      </trkpt>
      <trkpt lat="43.3313810" lon="-1.8946410">
        <ele>210.4</ele>
        <time>2022-10-29T08:54:51Z</time>
      </trkpt>
      <trkpt lat="43.3314050" lon="-1.8946020">
        <ele>210.6</ele>
        <time>2022-10-29T08:54:52Z</time>
      </trkpt>
      <trkpt lat="43.3314140" lon="-1.8945490">
        <ele>210.6</ele>
        <time>2022-10-29T08:54:53Z</time>
      </trkpt>
      <trkpt lat="43.3314130" lon="-1.8945140">
        <ele>210.6</ele>
        <time>2022-10-29T08:54:54Z</time>
      </trkpt>
      <trkpt lat="43.3314270" lon="-1.8944590">
        <ele>210.6</ele>
        <time>2022-10-29T08:54:55Z</time>
      </trkpt>
      <trkpt lat="43.3314460" lon="-1.8943990">
        <ele>210.6</ele>
        <time>2022-10-29T08:54:56Z</time>
      </trkpt>
      <trkpt lat="43.3314620" lon="-1.8943230">
        <ele>210.6</ele>
        <time>2022-10-29T08:54:57Z</time>
      </trkpt>
      <trkpt lat="43.3314790" lon="-1.8942240">
        <ele>210.8</ele>
        <time>2022-10-29T08:54:58Z</time>
      </trkpt>
      <trkpt lat="43.3314880" lon="-1.8941540">
        <ele>210.8</ele>
        <time>2022-10-29T08:54:59Z</time>
      </trkpt>
      <trkpt lat="43.3315050" lon="-1.8940940">
        <ele>210.8</ele>
        <time>2022-10-29T08:55:00Z</time>
      </trkpt>
      <trkpt lat="43.3315230" lon="-1.8940330">
        <ele>210.8</ele>
        <time>2022-10-29T08:55:01Z</time>
      </trkpt>
      <trkpt lat="43.3315230" lon="-1.8939640">
        <ele>210.8</ele>
        <time>2022-10-29T08:55:02Z</time>
      </trkpt>
      <trkpt lat="43.3315320" lon="-1.8938920">
        <ele>211.0</ele>
        <time>2022-10-29T08:55:03Z</time>
      </trkpt>
      <trkpt lat="43.3315300" lon="-1.8938450">
        <ele>211.0</ele>
        <time>2022-10-29T08:55:04Z</time>
      </trkpt>
      <trkpt lat="43.3315320" lon="-1.8938050">
        <ele>211.2</ele>
        <time>2022-10-29T08:55:05Z</time>
      </trkpt>
      <trkpt lat="43.3315380" lon="-1.8937600">
        <ele>211.2</ele>
        <time>2022-10-29T08:55:06Z</time>
      </trkpt>
      <trkpt lat="43.3315480" lon="-1.8937180">
        <ele>211.2</ele>
        <time>2022-10-29T08:55:07Z</time>
      </trkpt>
      <trkpt lat="43.3315640" lon="-1.8936140">
        <ele>211.4</ele>
        <time>2022-10-29T08:55:09Z</time>
      </trkpt>
      <trkpt lat="43.3315680" lon="-1.8935720">
        <ele>211.8</ele>
        <time>2022-10-29T08:55:10Z</time>
      </trkpt>
      <trkpt lat="43.3315740" lon="-1.8935360">
        <ele>212.0</ele>
        <time>2022-10-29T08:55:11Z</time>
      </trkpt>
      <trkpt lat="43.3315760" lon="-1.8934890">
        <ele>212.4</ele>
        <time>2022-10-29T08:55:12Z</time>
      </trkpt>
      <trkpt lat="43.3315690" lon="-1.8934340">
        <ele>212.6</ele>
        <time>2022-10-29T08:55:13Z</time>
      </trkpt>
      <trkpt lat="43.3315620" lon="-1.8933890">
        <ele>212.6</ele>
        <time>2022-10-29T08:55:14Z</time>
      </trkpt>
      <trkpt lat="43.3315630" lon="-1.8932370">
        <ele>213.0</ele>
        <time>2022-10-29T08:55:17Z</time>
      </trkpt>
      <trkpt lat="43.3315550" lon="-1.8931720">
        <ele>213.2</ele>
        <time>2022-10-29T08:55:18Z</time>
      </trkpt>
      <trkpt lat="43.3315480" lon="-1.8931080">
        <ele>213.4</ele>
        <time>2022-10-29T08:55:19Z</time>
      </trkpt>
      <trkpt lat="43.3315420" lon="-1.8930440">
        <ele>213.6</ele>
        <time>2022-10-29T08:55:20Z</time>
      </trkpt>
      <trkpt lat="43.3315410" lon="-1.8929890">
        <ele>213.6</ele>
        <time>2022-10-29T08:55:21Z</time>
      </trkpt>
      <trkpt lat="43.3315370" lon="-1.8929110">
        <ele>213.4</ele>
        <time>2022-10-29T08:55:22Z</time>
      </trkpt>
      <trkpt lat="43.3315390" lon="-1.8928470">
        <ele>213.4</ele>
        <time>2022-10-29T08:55:23Z</time>
      </trkpt>
      <trkpt lat="43.3315400" lon="-1.8927860">
        <ele>213.4</ele>
        <time>2022-10-29T08:55:24Z</time>
      </trkpt>
      <trkpt lat="43.3315380" lon="-1.8927310">
        <ele>213.6</ele>
        <time>2022-10-29T08:55:25Z</time>
      </trkpt>
      <trkpt lat="43.3315320" lon="-1.8926740">
        <ele>213.6</ele>
        <time>2022-10-29T08:55:26Z</time>
      </trkpt>
      <trkpt lat="43.3315200" lon="-1.8926220">
        <ele>213.8</ele>
        <time>2022-10-29T08:55:27Z</time>
      </trkpt>
      <trkpt lat="43.3315050" lon="-1.8925760">
        <ele>213.8</ele>
        <time>2022-10-29T08:55:28Z</time>
      </trkpt>
      <trkpt lat="43.3314840" lon="-1.8925310">
        <ele>213.8</ele>
        <time>2022-10-29T08:55:29Z</time>
      </trkpt>
      <trkpt lat="43.3314650" lon="-1.8924910">
        <ele>213.8</ele>
        <time>2022-10-29T08:55:30Z</time>
      </trkpt>
      <trkpt lat="43.3314480" lon="-1.8924470">
        <ele>213.8</ele>
        <time>2022-10-29T08:55:31Z</time>
      </trkpt>
      <trkpt lat="43.3314240" lon="-1.8924030">
        <ele>213.8</ele>
        <time>2022-10-29T08:55:32Z</time>
      </trkpt>
      <trkpt lat="43.3314070" lon="-1.8923650">
        <ele>213.8</ele>
        <time>2022-10-29T08:55:33Z</time>
      </trkpt>
      <trkpt lat="43.3313760" lon="-1.8923200">
        <ele>213.8</ele>
        <time>2022-10-29T08:55:34Z</time>
      </trkpt>
      <trkpt lat="43.3313380" lon="-1.8922750">
        <ele>213.8</ele>
        <time>2022-10-29T08:55:35Z</time>
      </trkpt>
      <trkpt lat="43.3313090" lon="-1.8922330">
        <ele>213.8</ele>
        <time>2022-10-29T08:55:36Z</time>
      </trkpt>
      <trkpt lat="43.3312720" lon="-1.8921740">
        <ele>213.8</ele>
        <time>2022-10-29T08:55:37Z</time>
      </trkpt>
      <trkpt lat="43.3311880" lon="-1.8920300">
        <ele>214.0</ele>
        <time>2022-10-29T08:55:39Z</time>
      </trkpt>
      <trkpt lat="43.3310890" lon="-1.8918540">
        <ele>214.4</ele>
        <time>2022-10-29T08:55:42Z</time>
      </trkpt>
      <trkpt lat="43.3310270" lon="-1.8917650">
        <ele>214.6</ele>
        <time>2022-10-29T08:55:44Z</time>
      </trkpt>
      <trkpt lat="43.3309830" lon="-1.8916450">
        <ele>214.8</ele>
        <time>2022-10-29T08:55:46Z</time>
      </trkpt>
      <trkpt lat="43.3309750" lon="-1.8915810">
        <ele>215.0</ele>
        <time>2022-10-29T08:55:47Z</time>
      </trkpt>
      <trkpt lat="43.3309730" lon="-1.8915240">
        <ele>215.0</ele>
        <time>2022-10-29T08:55:48Z</time>
      </trkpt>
      <trkpt lat="43.3309690" lon="-1.8914610">
        <ele>215.2</ele>
        <time>2022-10-29T08:55:49Z</time>
      </trkpt>
      <trkpt lat="43.3309680" lon="-1.8914040">
        <ele>215.2</ele>
        <time>2022-10-29T08:55:50Z</time>
      </trkpt>
      <trkpt lat="43.3309550" lon="-1.8913450">
        <ele>215.2</ele>
        <time>2022-10-29T08:55:51Z</time>
      </trkpt>
      <trkpt lat="43.3309480" lon="-1.8912820">
        <ele>215.2</ele>
        <time>2022-10-29T08:55:52Z</time>
      </trkpt>
      <trkpt lat="43.3309560" lon="-1.8912350">
        <ele>215.2</ele>
        <time>2022-10-29T08:55:53Z</time>
      </trkpt>
      <trkpt lat="43.3309700" lon="-1.8911650">
        <ele>215.2</ele>
        <time>2022-10-29T08:55:54Z</time>
      </trkpt>
      <trkpt lat="43.3309690" lon="-1.8910640">
        <ele>215.2</ele>
        <time>2022-10-29T08:55:55Z</time>
      </trkpt>
      <trkpt lat="43.3309480" lon="-1.8909600">
        <ele>215.2</ele>
        <time>2022-10-29T08:55:56Z</time>
      </trkpt>
      <trkpt lat="43.3309370" lon="-1.8906840">
        <ele>215.0</ele>
        <time>2022-10-29T08:55:59Z</time>
      </trkpt>
      <trkpt lat="43.3309360" lon="-1.8906080">
        <ele>214.8</ele>
        <time>2022-10-29T08:56:00Z</time>
      </trkpt>
      <trkpt lat="43.3309450" lon="-1.8904130">
        <ele>214.4</ele>
        <time>2022-10-29T08:56:02Z</time>
      </trkpt>
      <trkpt lat="43.3309610" lon="-1.8903340">
        <ele>214.4</ele>
        <time>2022-10-29T08:56:03Z</time>
      </trkpt>
      <trkpt lat="43.3310120" lon="-1.8901670">
        <ele>214.0</ele>
        <time>2022-10-29T08:56:05Z</time>
      </trkpt>
      <trkpt lat="43.3310420" lon="-1.8900950">
        <ele>213.8</ele>
        <time>2022-10-29T08:56:06Z</time>
      </trkpt>
      <trkpt lat="43.3310720" lon="-1.8900130">
        <ele>213.6</ele>
        <time>2022-10-29T08:56:07Z</time>
      </trkpt>
      <trkpt lat="43.3310940" lon="-1.8899260">
        <ele>213.4</ele>
        <time>2022-10-29T08:56:08Z</time>
      </trkpt>
      <trkpt lat="43.3311590" lon="-1.8897480">
        <ele>212.6</ele>
        <time>2022-10-29T08:56:10Z</time>
      </trkpt>
      <trkpt lat="43.3311830" lon="-1.8896440">
        <ele>212.6</ele>
        <time>2022-10-29T08:56:11Z</time>
      </trkpt>
      <trkpt lat="43.3312470" lon="-1.8894550">
        <ele>212.2</ele>
        <time>2022-10-29T08:56:13Z</time>
      </trkpt>
      <trkpt lat="43.3312780" lon="-1.8893750">
        <ele>212.2</ele>
        <time>2022-10-29T08:56:14Z</time>
      </trkpt>
      <trkpt lat="43.3313080" lon="-1.8893060">
        <ele>212.0</ele>
        <time>2022-10-29T08:56:15Z</time>
      </trkpt>
      <trkpt lat="43.3313270" lon="-1.8892420">
        <ele>212.0</ele>
        <time>2022-10-29T08:56:16Z</time>
      </trkpt>
      <trkpt lat="43.3313160" lon="-1.8891780">
        <ele>212.0</ele>
        <time>2022-10-29T08:56:17Z</time>
      </trkpt>
      <trkpt lat="43.3313210" lon="-1.8890810">
        <ele>212.0</ele>
        <time>2022-10-29T08:56:18Z</time>
      </trkpt>
      <trkpt lat="43.3313400" lon="-1.8889690">
        <ele>211.8</ele>
        <time>2022-10-29T08:56:19Z</time>
      </trkpt>
      <trkpt lat="43.3313590" lon="-1.8888650">
        <ele>211.8</ele>
        <time>2022-10-29T08:56:20Z</time>
      </trkpt>
      <trkpt lat="43.3314090" lon="-1.8887750">
        <ele>211.6</ele>
        <time>2022-10-29T08:56:21Z</time>
      </trkpt>
      <trkpt lat="43.3315320" lon="-1.8885550">
        <ele>211.8</ele>
        <time>2022-10-29T08:56:24Z</time>
      </trkpt>
      <trkpt lat="43.3315710" lon="-1.8884960">
        <ele>211.6</ele>
        <time>2022-10-29T08:56:25Z</time>
      </trkpt>
      <trkpt lat="43.3316180" lon="-1.8884290">
        <ele>211.6</ele>
        <time>2022-10-29T08:56:26Z</time>
      </trkpt>
      <trkpt lat="43.3316650" lon="-1.8883760">
        <ele>211.6</ele>
        <time>2022-10-29T08:56:27Z</time>
      </trkpt>
      <trkpt lat="43.3317030" lon="-1.8883420">
        <ele>211.2</ele>
        <time>2022-10-29T08:56:28Z</time>
      </trkpt>
      <trkpt lat="43.3317950" lon="-1.8883150">
        <ele>210.8</ele>
        <time>2022-10-29T08:56:29Z</time>
      </trkpt>
      <trkpt lat="43.3318890" lon="-1.8882670">
        <ele>210.6</ele>
        <time>2022-10-29T08:56:30Z</time>
      </trkpt>
      <trkpt lat="43.3319470" lon="-1.8882200">
        <ele>210.6</ele>
        <time>2022-10-29T08:56:31Z</time>
      </trkpt>
      <trkpt lat="43.3320700" lon="-1.8880400">
        <ele>210.2</ele>
        <time>2022-10-29T08:56:34Z</time>
      </trkpt>
      <trkpt lat="43.3321130" lon="-1.8879910">
        <ele>210.2</ele>
        <time>2022-10-29T08:56:35Z</time>
      </trkpt>
      <trkpt lat="43.3321660" lon="-1.8879590">
        <ele>210.2</ele>
        <time>2022-10-29T08:56:36Z</time>
      </trkpt>
      <trkpt lat="43.3322230" lon="-1.8879230">
        <ele>210.2</ele>
        <time>2022-10-29T08:56:37Z</time>
      </trkpt>
      <trkpt lat="43.3322640" lon="-1.8878750">
        <ele>210.4</ele>
        <time>2022-10-29T08:56:38Z</time>
      </trkpt>
      <trkpt lat="43.3323140" lon="-1.8878290">
        <ele>210.4</ele>
        <time>2022-10-29T08:56:39Z</time>
      </trkpt>
      <trkpt lat="43.3323700" lon="-1.8877700">
        <ele>210.4</ele>
        <time>2022-10-29T08:56:40Z</time>
      </trkpt>
      <trkpt lat="43.3324120" lon="-1.8877240">
        <ele>210.4</ele>
        <time>2022-10-29T08:56:41Z</time>
      </trkpt>
      <trkpt lat="43.3324530" lon="-1.8876650">
        <ele>210.4</ele>
        <time>2022-10-29T08:56:42Z</time>
      </trkpt>
      <trkpt lat="43.3324900" lon="-1.8876290">
        <ele>210.6</ele>
        <time>2022-10-29T08:56:43Z</time>
      </trkpt>
      <trkpt lat="43.3325300" lon="-1.8875900">
        <ele>210.6</ele>
        <time>2022-10-29T08:56:44Z</time>
      </trkpt>
      <trkpt lat="43.3325660" lon="-1.8875600">
        <ele>210.6</ele>
        <time>2022-10-29T08:56:45Z</time>
      </trkpt>
      <trkpt lat="43.3326040" lon="-1.8875290">
        <ele>210.8</ele>
        <time>2022-10-29T08:56:46Z</time>
      </trkpt>
      <trkpt lat="43.3326270" lon="-1.8874900">
        <ele>210.8</ele>
        <time>2022-10-29T08:56:47Z</time>
      </trkpt>
      <trkpt lat="43.3326480" lon="-1.8874620">
        <ele>211.0</ele>
        <time>2022-10-29T08:56:48Z</time>
      </trkpt>
      <trkpt lat="43.3326650" lon="-1.8874470">
        <ele>211.0</ele>
        <time>2022-10-29T08:56:49Z</time>
      </trkpt>
      <trkpt lat="43.3326680" lon="-1.8874290">
        <ele>211.0</ele>
        <time>2022-10-29T08:56:50Z</time>
      </trkpt>
      <trkpt lat="43.3326770" lon="-1.8874250">
        <ele>211.2</ele>
        <time>2022-10-29T08:56:51Z</time>
      </trkpt>
      <trkpt lat="43.3326840" lon="-1.8874030">
        <ele>211.4</ele>
        <time>2022-10-29T08:56:52Z</time>
      </trkpt>
      <trkpt lat="43.3326870" lon="-1.8873910">
        <ele>211.6</ele>
        <time>2022-10-29T08:56:53Z</time>
      </trkpt>
      <trkpt lat="43.3326960" lon="-1.8873630">
        <ele>211.6</ele>
        <time>2022-10-29T08:56:54Z</time>
      </trkpt>
      <trkpt lat="43.3326980" lon="-1.8873460">
        <ele>211.8</ele>
        <time>2022-10-29T08:56:55Z</time>
      </trkpt>
      <trkpt lat="43.3327020" lon="-1.8873190">
        <ele>212.0</ele>
        <time>2022-10-29T08:56:56Z</time>
      </trkpt>
      <trkpt lat="43.3327130" lon="-1.8872920">
        <ele>212.2</ele>
        <time>2022-10-29T08:56:57Z</time>
      </trkpt>
      <trkpt lat="43.3327270" lon="-1.8872190">
        <ele>213.2</ele>
        <time>2022-10-29T08:56:59Z</time>
      </trkpt>
      <trkpt lat="43.3327310" lon="-1.8871780">
        <ele>213.4</ele>
        <time>2022-10-29T08:57:00Z</time>
      </trkpt>
      <trkpt lat="43.3327460" lon="-1.8871360">
        <ele>213.8</ele>
        <time>2022-10-29T08:57:01Z</time>
      </trkpt>
      <trkpt lat="43.3327480" lon="-1.8871060">
        <ele>214.2</ele>
        <time>2022-10-29T08:57:02Z</time>
      </trkpt>
      <trkpt lat="43.3327430" lon="-1.8870740">
        <ele>214.6</ele>
        <time>2022-10-29T08:57:03Z</time>
      </trkpt>
      <trkpt lat="43.3327390" lon="-1.8870220">
        <ele>215.0</ele>
        <time>2022-10-29T08:57:04Z</time>
      </trkpt>
      <trkpt lat="43.3327400" lon="-1.8869830">
        <ele>215.4</ele>
        <time>2022-10-29T08:57:05Z</time>
      </trkpt>
      <trkpt lat="43.3327480" lon="-1.8869130">
        <ele>215.8</ele>
        <time>2022-10-29T08:57:06Z</time>
      </trkpt>
      <trkpt lat="43.3327560" lon="-1.8868440">
        <ele>216.6</ele>
        <time>2022-10-29T08:57:07Z</time>
      </trkpt>
      <trkpt lat="43.3327560" lon="-1.8867770">
        <ele>216.8</ele>
        <time>2022-10-29T08:57:08Z</time>
      </trkpt>
      <trkpt lat="43.3327640" lon="-1.8867220">
        <ele>217.4</ele>
        <time>2022-10-29T08:57:09Z</time>
      </trkpt>
      <trkpt lat="43.3327670" lon="-1.8866780">
        <ele>217.8</ele>
        <time>2022-10-29T08:57:10Z</time>
      </trkpt>
      <trkpt lat="43.3327590" lon="-1.8866410">
        <ele>218.0</ele>
        <time>2022-10-29T08:57:11Z</time>
      </trkpt>
      <trkpt lat="43.3327690" lon="-1.8865940">
        <ele>218.2</ele>
        <time>2022-10-29T08:57:12Z</time>
      </trkpt>
      <trkpt lat="43.3327810" lon="-1.8865480">
        <ele>218.4</ele>
        <time>2022-10-29T08:57:13Z</time>
      </trkpt>
      <trkpt lat="43.3327940" lon="-1.8865310">
        <ele>218.6</ele>
        <time>2022-10-29T08:57:14Z</time>
      </trkpt>
      <trkpt lat="43.3328060" lon="-1.8865060">
        <ele>218.8</ele>
        <time>2022-10-29T08:57:15Z</time>
      </trkpt>
      <trkpt lat="43.3328140" lon="-1.8864820">
        <ele>219.0</ele>
        <time>2022-10-29T08:57:16Z</time>
      </trkpt>
      <trkpt lat="43.3328220" lon="-1.8864530">
        <ele>219.0</ele>
        <time>2022-10-29T08:57:17Z</time>
      </trkpt>
      <trkpt lat="43.3328210" lon="-1.8864270">
        <ele>219.2</ele>
        <time>2022-10-29T08:57:18Z</time>
      </trkpt>
      <trkpt lat="43.3327880" lon="-1.8863720">
        <ele>219.2</ele>
        <time>2022-10-29T08:57:19Z</time>
      </trkpt>
      <trkpt lat="43.3327930" lon="-1.8863070">
        <ele>219.2</ele>
        <time>2022-10-29T08:57:20Z</time>
      </trkpt>
      <trkpt lat="43.3327910" lon="-1.8862430">
        <ele>219.4</ele>
        <time>2022-10-29T08:57:21Z</time>
      </trkpt>
      <trkpt lat="43.3327810" lon="-1.8861890">
        <ele>219.6</ele>
        <time>2022-10-29T08:57:22Z</time>
      </trkpt>
      <trkpt lat="43.3327620" lon="-1.8861400">
        <ele>220.0</ele>
        <time>2022-10-29T08:57:23Z</time>
      </trkpt>
      <trkpt lat="43.3327430" lon="-1.8860820">
        <ele>220.4</ele>
        <time>2022-10-29T08:57:24Z</time>
      </trkpt>
      <trkpt lat="43.3327490" lon="-1.8860130">
        <ele>220.8</ele>
        <time>2022-10-29T08:57:25Z</time>
      </trkpt>
      <trkpt lat="43.3327460" lon="-1.8859630">
        <ele>221.0</ele>
        <time>2022-10-29T08:57:26Z</time>
      </trkpt>
      <trkpt lat="43.3327500" lon="-1.8859270">
        <ele>221.2</ele>
        <time>2022-10-29T08:57:27Z</time>
      </trkpt>
      <trkpt lat="43.3327480" lon="-1.8858970">
        <ele>221.4</ele>
        <time>2022-10-29T08:57:28Z</time>
      </trkpt>
      <trkpt lat="43.3327450" lon="-1.8858650">
        <ele>221.8</ele>
        <time>2022-10-29T08:57:29Z</time>
      </trkpt>
      <trkpt lat="43.3327240" lon="-1.8858120">
        <ele>222.0</ele>
        <time>2022-10-29T08:57:30Z</time>
      </trkpt>
      <trkpt lat="43.3327020" lon="-1.8857310">
        <ele>222.0</ele>
        <time>2022-10-29T08:57:31Z</time>
      </trkpt>
      <trkpt lat="43.3327150" lon="-1.8856920">
        <ele>222.6</ele>
        <time>2022-10-29T08:57:32Z</time>
      </trkpt>
      <trkpt lat="43.3327140" lon="-1.8856490">
        <ele>222.8</ele>
        <time>2022-10-29T08:57:33Z</time>
      </trkpt>
      <trkpt lat="43.3327100" lon="-1.8855850">
        <ele>223.2</ele>
        <time>2022-10-29T08:57:34Z</time>
      </trkpt>
      <trkpt lat="43.3327180" lon="-1.8855530">
        <ele>223.4</ele>
        <time>2022-10-29T08:57:35Z</time>
      </trkpt>
      <trkpt lat="43.3327280" lon="-1.8855150">
        <ele>224.0</ele>
        <time>2022-10-29T08:57:36Z</time>
      </trkpt>
      <trkpt lat="43.3327330" lon="-1.8854850">
        <ele>224.2</ele>
        <time>2022-10-29T08:57:37Z</time>
      </trkpt>
      <trkpt lat="43.3327410" lon="-1.8854600">
        <ele>224.4</ele>
        <time>2022-10-29T08:57:38Z</time>
      </trkpt>
      <trkpt lat="43.3327530" lon="-1.8854340">
        <ele>224.8</ele>
        <time>2022-10-29T08:57:39Z</time>
      </trkpt>
      <trkpt lat="43.3327570" lon="-1.8854030">
        <ele>225.0</ele>
        <time>2022-10-29T08:57:40Z</time>
      </trkpt>
      <trkpt lat="43.3327410" lon="-1.8853760">
        <ele>225.4</ele>
        <time>2022-10-29T08:57:41Z</time>
      </trkpt>
      <trkpt lat="43.3327440" lon="-1.8853580">
        <ele>225.6</ele>
        <time>2022-10-29T08:57:42Z</time>
      </trkpt>
      <trkpt lat="43.3327470" lon="-1.8853280">
        <ele>226.0</ele>
        <time>2022-10-29T08:57:43Z</time>
      </trkpt>
      <trkpt lat="43.3327690" lon="-1.8852770">
        <ele>226.2</ele>
        <time>2022-10-29T08:57:44Z</time>
      </trkpt>
      <trkpt lat="43.3327710" lon="-1.8852300">
        <ele>226.6</ele>
        <time>2022-10-29T08:57:45Z</time>
      </trkpt>
      <trkpt lat="43.3327680" lon="-1.8851860">
        <ele>226.8</ele>
        <time>2022-10-29T08:57:46Z</time>
      </trkpt>
      <trkpt lat="43.3327790" lon="-1.8851250">
        <ele>227.4</ele>
        <time>2022-10-29T08:57:47Z</time>
      </trkpt>
      <trkpt lat="43.3327890" lon="-1.8850880">
        <ele>227.4</ele>
        <time>2022-10-29T08:57:48Z</time>
      </trkpt>
      <trkpt lat="43.3327960" lon="-1.8850410">
        <ele>228.0</ele>
        <time>2022-10-29T08:57:49Z</time>
      </trkpt>
      <trkpt lat="43.3328030" lon="-1.8849790">
        <ele>228.6</ele>
        <time>2022-10-29T08:57:50Z</time>
      </trkpt>
      <trkpt lat="43.3328170" lon="-1.8849430">
        <ele>228.6</ele>
        <time>2022-10-29T08:57:51Z</time>
      </trkpt>
      <trkpt lat="43.3328400" lon="-1.8848970">
        <ele>229.0</ele>
        <time>2022-10-29T08:57:52Z</time>
      </trkpt>
      <trkpt lat="43.3328700" lon="-1.8848550">
        <ele>229.2</ele>
        <time>2022-10-29T08:57:53Z</time>
      </trkpt>
      <trkpt lat="43.3328870" lon="-1.8848170">
        <ele>230.0</ele>
        <time>2022-10-29T08:57:54Z</time>
      </trkpt>
      <trkpt lat="43.3329030" lon="-1.8847700">
        <ele>230.6</ele>
        <time>2022-10-29T08:57:55Z</time>
      </trkpt>
      <trkpt lat="43.3329150" lon="-1.8847410">
        <ele>231.0</ele>
        <time>2022-10-29T08:57:56Z</time>
      </trkpt>
      <trkpt lat="43.3329330" lon="-1.8847090">
        <ele>231.2</ele>
        <time>2022-10-29T08:57:57Z</time>
      </trkpt>
      <trkpt lat="43.3329510" lon="-1.8846770">
        <ele>231.4</ele>
        <time>2022-10-29T08:57:58Z</time>
      </trkpt>
      <trkpt lat="43.3329420" lon="-1.8846440">
        <ele>231.6</ele>
        <time>2022-10-29T08:57:59Z</time>
      </trkpt>
      <trkpt lat="43.3329500" lon="-1.8845890">
        <ele>231.8</ele>
        <time>2022-10-29T08:58:00Z</time>
      </trkpt>
      <trkpt lat="43.3329630" lon="-1.8845420">
        <ele>231.8</ele>
        <time>2022-10-29T08:58:01Z</time>
      </trkpt>
      <trkpt lat="43.3329790" lon="-1.8844970">
        <ele>232.0</ele>
        <time>2022-10-29T08:58:02Z</time>
      </trkpt>
      <trkpt lat="43.3330000" lon="-1.8844620">
        <ele>232.2</ele>
        <time>2022-10-29T08:58:03Z</time>
      </trkpt>
      <trkpt lat="43.3330200" lon="-1.8844270">
        <ele>232.4</ele>
        <time>2022-10-29T08:58:04Z</time>
      </trkpt>
      <trkpt lat="43.3330180" lon="-1.8843800">
        <ele>232.6</ele>
        <time>2022-10-29T08:58:05Z</time>
      </trkpt>
      <trkpt lat="43.3330330" lon="-1.8843440">
        <ele>232.8</ele>
        <time>2022-10-29T08:58:06Z</time>
      </trkpt>
      <trkpt lat="43.3330410" lon="-1.8843150">
        <ele>233.2</ele>
        <time>2022-10-29T08:58:07Z</time>
      </trkpt>
      <trkpt lat="43.3330520" lon="-1.8842650">
        <ele>233.6</ele>
        <time>2022-10-29T08:58:08Z</time>
      </trkpt>
      <trkpt lat="43.3330630" lon="-1.8842310">
        <ele>234.0</ele>
        <time>2022-10-29T08:58:09Z</time>
      </trkpt>
      <trkpt lat="43.3330690" lon="-1.8842190">
        <ele>234.6</ele>
        <time>2022-10-29T08:58:10Z</time>
      </trkpt>
      <trkpt lat="43.3330830" lon="-1.8841900">
        <ele>234.8</ele>
        <time>2022-10-29T08:58:11Z</time>
      </trkpt>
      <trkpt lat="43.3331030" lon="-1.8841490">
        <ele>235.2</ele>
        <time>2022-10-29T08:58:12Z</time>
      </trkpt>
      <trkpt lat="43.3331210" lon="-1.8841120">
        <ele>235.4</ele>
        <time>2022-10-29T08:58:13Z</time>
      </trkpt>
      <trkpt lat="43.3331300" lon="-1.8840740">
        <ele>235.8</ele>
        <time>2022-10-29T08:58:14Z</time>
      </trkpt>
      <trkpt lat="43.3331260" lon="-1.8840320">
        <ele>236.0</ele>
        <time>2022-10-29T08:58:15Z</time>
      </trkpt>
      <trkpt lat="43.3331380" lon="-1.8839920">
        <ele>236.0</ele>
        <time>2022-10-29T08:58:16Z</time>
      </trkpt>
      <trkpt lat="43.3331460" lon="-1.8839570">
        <ele>236.2</ele>
        <time>2022-10-29T08:58:17Z</time>
      </trkpt>
      <trkpt lat="43.3331470" lon="-1.8839190">
        <ele>236.6</ele>
        <time>2022-10-29T08:58:18Z</time>
      </trkpt>
      <trkpt lat="43.3331550" lon="-1.8838750">
        <ele>236.8</ele>
        <time>2022-10-29T08:58:19Z</time>
      </trkpt>
      <trkpt lat="43.3331530" lon="-1.8838350">
        <ele>237.4</ele>
        <time>2022-10-29T08:58:20Z</time>
      </trkpt>
      <trkpt lat="43.3331550" lon="-1.8837970">
        <ele>238.0</ele>
        <time>2022-10-29T08:58:21Z</time>
      </trkpt>
      <trkpt lat="43.3331640" lon="-1.8837710">
        <ele>238.2</ele>
        <time>2022-10-29T08:58:22Z</time>
      </trkpt>
      <trkpt lat="43.3331730" lon="-1.8837520">
        <ele>238.6</ele>
        <time>2022-10-29T08:58:23Z</time>
      </trkpt>
      <trkpt lat="43.3331960" lon="-1.8837330">
        <ele>238.8</ele>
        <time>2022-10-29T08:58:24Z</time>
      </trkpt>
      <trkpt lat="43.3332100" lon="-1.8837090">
        <ele>239.0</ele>
        <time>2022-10-29T08:58:25Z</time>
      </trkpt>
      <trkpt lat="43.3332260" lon="-1.8836820">
        <ele>239.2</ele>
        <time>2022-10-29T08:58:26Z</time>
      </trkpt>
      <trkpt lat="43.3332260" lon="-1.8836670">
        <ele>239.2</ele>
        <time>2022-10-29T08:58:27Z</time>
      </trkpt>
      <trkpt lat="43.3332330" lon="-1.8836490">
        <ele>239.2</ele>
        <time>2022-10-29T08:58:28Z</time>
      </trkpt>
      <trkpt lat="43.3332510" lon="-1.8836270">
        <ele>239.4</ele>
        <time>2022-10-29T08:58:29Z</time>
      </trkpt>
      <trkpt lat="43.3332640" lon="-1.8836050">
        <ele>239.6</ele>
        <time>2022-10-29T08:58:30Z</time>
      </trkpt>
      <trkpt lat="43.3332800" lon="-1.8835880">
        <ele>239.6</ele>
        <time>2022-10-29T08:58:31Z</time>
      </trkpt>
      <trkpt lat="43.3332980" lon="-1.8835700">
        <ele>239.8</ele>
        <time>2022-10-29T08:58:32Z</time>
      </trkpt>
      <trkpt lat="43.3333120" lon="-1.8835500">
        <ele>239.8</ele>
        <time>2022-10-29T08:58:33Z</time>
      </trkpt>
      <trkpt lat="43.3333280" lon="-1.8835300">
        <ele>239.8</ele>
        <time>2022-10-29T08:58:34Z</time>
      </trkpt>
      <trkpt lat="43.3333420" lon="-1.8835130">
        <ele>240.0</ele>
        <time>2022-10-29T08:58:35Z</time>
      </trkpt>
      <trkpt lat="43.3333560" lon="-1.8834900">
        <ele>240.2</ele>
        <time>2022-10-29T08:58:36Z</time>
      </trkpt>
      <trkpt lat="43.3333690" lon="-1.8834670">
        <ele>240.2</ele>
        <time>2022-10-29T08:58:37Z</time>
      </trkpt>
      <trkpt lat="43.3333840" lon="-1.8834380">
        <ele>240.4</ele>
        <time>2022-10-29T08:58:38Z</time>
      </trkpt>
      <trkpt lat="43.3333970" lon="-1.8834140">
        <ele>240.6</ele>
        <time>2022-10-29T08:58:39Z</time>
      </trkpt>
      <trkpt lat="43.3334010" lon="-1.8833900">
        <ele>240.8</ele>
        <time>2022-10-29T08:58:40Z</time>
      </trkpt>
      <trkpt lat="43.3334000" lon="-1.8833670">
        <ele>241.0</ele>
        <time>2022-10-29T08:58:41Z</time>
      </trkpt>
      <trkpt lat="43.3333970" lon="-1.8833440">
        <ele>241.2</ele>
        <time>2022-10-29T08:58:42Z</time>
      </trkpt>
      <trkpt lat="43.3333940" lon="-1.8833180">
        <ele>241.6</ele>
        <time>2022-10-29T08:58:43Z</time>
      </trkpt>
      <trkpt lat="43.3333910" lon="-1.8832900">
        <ele>241.8</ele>
        <time>2022-10-29T08:58:44Z</time>
      </trkpt>
      <trkpt lat="43.3333980" lon="-1.8832570">
        <ele>242.2</ele>
        <time>2022-10-29T08:58:45Z</time>
      </trkpt>
      <trkpt lat="43.3333860" lon="-1.8832200">
        <ele>242.2</ele>
        <time>2022-10-29T08:58:46Z</time>
      </trkpt>
      <trkpt lat="43.3333930" lon="-1.8831820">
        <ele>242.6</ele>
        <time>2022-10-29T08:58:47Z</time>
      </trkpt>
      <trkpt lat="43.3333960" lon="-1.8831370">
        <ele>242.8</ele>
        <time>2022-10-29T08:58:48Z</time>
      </trkpt>
      <trkpt lat="43.3334090" lon="-1.8830900">
        <ele>243.0</ele>
        <time>2022-10-29T08:58:49Z</time>
      </trkpt>
      <trkpt lat="43.3334160" lon="-1.8830520">
        <ele>243.4</ele>
        <time>2022-10-29T08:58:50Z</time>
      </trkpt>
      <trkpt lat="43.3334230" lon="-1.8830080">
        <ele>243.2</ele>
        <time>2022-10-29T08:58:51Z</time>
      </trkpt>
      <trkpt lat="43.3334330" lon="-1.8829670">
        <ele>243.4</ele>
        <time>2022-10-29T08:58:52Z</time>
      </trkpt>
      <trkpt lat="43.3334410" lon="-1.8829330">
        <ele>243.6</ele>
        <time>2022-10-29T08:58:53Z</time>
      </trkpt>
      <trkpt lat="43.3334460" lon="-1.8829080">
        <ele>243.8</ele>
        <time>2022-10-29T08:58:54Z</time>
      </trkpt>
      <trkpt lat="43.3334450" lon="-1.8828780">
        <ele>244.0</ele>
        <time>2022-10-29T08:58:55Z</time>
      </trkpt>
      <trkpt lat="43.3334270" lon="-1.8828350">
        <ele>244.4</ele>
        <time>2022-10-29T08:58:56Z</time>
      </trkpt>
      <trkpt lat="43.3334250" lon="-1.8827980">
        <ele>244.6</ele>
        <time>2022-10-29T08:58:57Z</time>
      </trkpt>
      <trkpt lat="43.3334290" lon="-1.8827630">
        <ele>245.0</ele>
        <time>2022-10-29T08:58:58Z</time>
      </trkpt>
      <trkpt lat="43.3334340" lon="-1.8827210">
        <ele>245.2</ele>
        <time>2022-10-29T08:58:59Z</time>
      </trkpt>
      <trkpt lat="43.3334330" lon="-1.8826750">
        <ele>245.2</ele>
        <time>2022-10-29T08:59:00Z</time>
      </trkpt>
      <trkpt lat="43.3334430" lon="-1.8826340">
        <ele>245.4</ele>
        <time>2022-10-29T08:59:01Z</time>
      </trkpt>
      <trkpt lat="43.3334540" lon="-1.8825830">
        <ele>245.6</ele>
        <time>2022-10-29T08:59:02Z</time>
      </trkpt>
      <trkpt lat="43.3334540" lon="-1.8825520">
        <ele>245.6</ele>
        <time>2022-10-29T08:59:03Z</time>
      </trkpt>
      <trkpt lat="43.3334500" lon="-1.8825190">
        <ele>245.8</ele>
        <time>2022-10-29T08:59:04Z</time>
      </trkpt>
      <trkpt lat="43.3334460" lon="-1.8824860">
        <ele>246.2</ele>
        <time>2022-10-29T08:59:05Z</time>
      </trkpt>
      <trkpt lat="43.3334400" lon="-1.8824480">
        <ele>246.4</ele>
        <time>2022-10-29T08:59:06Z</time>
      </trkpt>
      <trkpt lat="43.3334240" lon="-1.8823940">
        <ele>246.8</ele>
        <time>2022-10-29T08:59:07Z</time>
      </trkpt>
      <trkpt lat="43.3334250" lon="-1.8823590">
        <ele>247.0</ele>
        <time>2022-10-29T08:59:08Z</time>
      </trkpt>
      <trkpt lat="43.3334330" lon="-1.8823280">
        <ele>247.6</ele>
        <time>2022-10-29T08:59:09Z</time>
      </trkpt>
      <trkpt lat="43.3334430" lon="-1.8822960">
        <ele>248.0</ele>
        <time>2022-10-29T08:59:10Z</time>
      </trkpt>
      <trkpt lat="43.3334450" lon="-1.8822660">
        <ele>248.2</ele>
        <time>2022-10-29T08:59:11Z</time>
      </trkpt>
      <trkpt lat="43.3334390" lon="-1.8822320">
        <ele>248.6</ele>
        <time>2022-10-29T08:59:12Z</time>
      </trkpt>
      <trkpt lat="43.3334480" lon="-1.8821940">
        <ele>248.8</ele>
        <time>2022-10-29T08:59:13Z</time>
      </trkpt>
      <trkpt lat="43.3334670" lon="-1.8821570">
        <ele>249.0</ele>
        <time>2022-10-29T08:59:14Z</time>
      </trkpt>
      <trkpt lat="43.3334910" lon="-1.8821020">
        <ele>249.0</ele>
        <time>2022-10-29T08:59:15Z</time>
      </trkpt>
      <trkpt lat="43.3334960" lon="-1.8820740">
        <ele>249.4</ele>
        <time>2022-10-29T08:59:16Z</time>
      </trkpt>
      <trkpt lat="43.3334930" lon="-1.8820390">
        <ele>249.4</ele>
        <time>2022-10-29T08:59:17Z</time>
      </trkpt>
      <trkpt lat="43.3334980" lon="-1.8820220">
        <ele>249.8</ele>
        <time>2022-10-29T08:59:18Z</time>
      </trkpt>
      <trkpt lat="43.3334950" lon="-1.8819910">
        <ele>250.0</ele>
        <time>2022-10-29T08:59:19Z</time>
      </trkpt>
      <trkpt lat="43.3334830" lon="-1.8819520">
        <ele>250.2</ele>
        <time>2022-10-29T08:59:20Z</time>
      </trkpt>
      <trkpt lat="43.3334750" lon="-1.8819160">
        <ele>250.4</ele>
        <time>2022-10-29T08:59:21Z</time>
      </trkpt>
      <trkpt lat="43.3334800" lon="-1.8818880">
        <ele>250.4</ele>
        <time>2022-10-29T08:59:22Z</time>
      </trkpt>
      <trkpt lat="43.3334940" lon="-1.8818600">
        <ele>251.0</ele>
        <time>2022-10-29T08:59:23Z</time>
      </trkpt>
      <trkpt lat="43.3335010" lon="-1.8818370">
        <ele>251.2</ele>
        <time>2022-10-29T08:59:24Z</time>
      </trkpt>
      <trkpt lat="43.3335080" lon="-1.8818100">
        <ele>251.8</ele>
        <time>2022-10-29T08:59:25Z</time>
      </trkpt>
      <trkpt lat="43.3335070" lon="-1.8817840">
        <ele>252.2</ele>
        <time>2022-10-29T08:59:26Z</time>
      </trkpt>
      <trkpt lat="43.3335060" lon="-1.8817490">
        <ele>252.6</ele>
        <time>2022-10-29T08:59:27Z</time>
      </trkpt>
      <trkpt lat="43.3335060" lon="-1.8817030">
        <ele>252.8</ele>
        <time>2022-10-29T08:59:28Z</time>
      </trkpt>
      <trkpt lat="43.3335020" lon="-1.8816510">
        <ele>253.2</ele>
        <time>2022-10-29T08:59:29Z</time>
      </trkpt>
      <trkpt lat="43.3335040" lon="-1.8816040">
        <ele>253.6</ele>
        <time>2022-10-29T08:59:30Z</time>
      </trkpt>
      <trkpt lat="43.3335060" lon="-1.8815970">
        <ele>253.6</ele>
        <time>2022-10-29T08:59:31Z</time>
      </trkpt>
      <trkpt lat="43.3335190" lon="-1.8815510">
        <ele>253.8</ele>
        <time>2022-10-29T08:59:32Z</time>
      </trkpt>
      <trkpt lat="43.3335170" lon="-1.8815260">
        <ele>253.8</ele>
        <time>2022-10-29T08:59:33Z</time>
      </trkpt>
      <trkpt lat="43.3335020" lon="-1.8815000">
        <ele>254.0</ele>
        <time>2022-10-29T08:59:34Z</time>
      </trkpt>
      <trkpt lat="43.3334920" lon="-1.8814730">
        <ele>254.2</ele>
        <time>2022-10-29T08:59:35Z</time>
      </trkpt>
      <trkpt lat="43.3334940" lon="-1.8814360">
        <ele>254.6</ele>
        <time>2022-10-29T08:59:36Z</time>
      </trkpt>
      <trkpt lat="43.3335050" lon="-1.8814010">
        <ele>254.6</ele>
        <time>2022-10-29T08:59:37Z</time>
      </trkpt>
      <trkpt lat="43.3334980" lon="-1.8813650">
        <ele>255.0</ele>
        <time>2022-10-29T08:59:38Z</time>
      </trkpt>
      <trkpt lat="43.3334860" lon="-1.8813250">
        <ele>255.4</ele>
        <time>2022-10-29T08:59:39Z</time>
      </trkpt>
      <trkpt lat="43.3334830" lon="-1.8812920">
        <ele>255.6</ele>
        <time>2022-10-29T08:59:40Z</time>
      </trkpt>
      <trkpt lat="43.3334870" lon="-1.8812570">
        <ele>256.0</ele>
        <time>2022-10-29T08:59:41Z</time>
      </trkpt>
      <trkpt lat="43.3334860" lon="-1.8812190">
        <ele>256.0</ele>
        <time>2022-10-29T08:59:42Z</time>
      </trkpt>
      <trkpt lat="43.3334700" lon="-1.8811770">
        <ele>256.6</ele>
        <time>2022-10-29T08:59:43Z</time>
      </trkpt>
      <trkpt lat="43.3334560" lon="-1.8811370">
        <ele>256.6</ele>
        <time>2022-10-29T08:59:44Z</time>
      </trkpt>
      <trkpt lat="43.3334500" lon="-1.8811040">
        <ele>257.0</ele>
        <time>2022-10-29T08:59:45Z</time>
      </trkpt>
      <trkpt lat="43.3334540" lon="-1.8810770">
        <ele>257.0</ele>
        <time>2022-10-29T08:59:46Z</time>
      </trkpt>
      <trkpt lat="43.3334670" lon="-1.8810490">
        <ele>257.4</ele>
        <time>2022-10-29T08:59:47Z</time>
      </trkpt>
      <trkpt lat="43.3334790" lon="-1.8810210">
        <ele>257.6</ele>
        <time>2022-10-29T08:59:48Z</time>
      </trkpt>
      <trkpt lat="43.3334850" lon="-1.8810000">
        <ele>258.0</ele>
        <time>2022-10-29T08:59:49Z</time>
      </trkpt>
      <trkpt lat="43.3334840" lon="-1.8809810">
        <ele>258.4</ele>
        <time>2022-10-29T08:59:50Z</time>
      </trkpt>
      <trkpt lat="43.3334870" lon="-1.8809600">
        <ele>258.4</ele>
        <time>2022-10-29T08:59:51Z</time>
      </trkpt>
      <trkpt lat="43.3334960" lon="-1.8809360">
        <ele>258.6</ele>
        <time>2022-10-29T08:59:52Z</time>
      </trkpt>
      <trkpt lat="43.3335090" lon="-1.8809120">
        <ele>258.6</ele>
        <time>2022-10-29T08:59:53Z</time>
      </trkpt>
      <trkpt lat="43.3335140" lon="-1.8808880">
        <ele>259.0</ele>
        <time>2022-10-29T08:59:54Z</time>
      </trkpt>
      <trkpt lat="43.3335210" lon="-1.8808650">
        <ele>259.2</ele>
        <time>2022-10-29T08:59:55Z</time>
      </trkpt>
      <trkpt lat="43.3335310" lon="-1.8808390">
        <ele>259.8</ele>
        <time>2022-10-29T08:59:56Z</time>
      </trkpt>
      <trkpt lat="43.3335350" lon="-1.8808200">
        <ele>259.8</ele>
        <time>2022-10-29T08:59:57Z</time>
      </trkpt>
      <trkpt lat="43.3335430" lon="-1.8807960">
        <ele>259.8</ele>
        <time>2022-10-29T08:59:58Z</time>
      </trkpt>
      <trkpt lat="43.3335520" lon="-1.8807740">
        <ele>260.2</ele>
        <time>2022-10-29T08:59:59Z</time>
      </trkpt>
      <trkpt lat="43.3335610" lon="-1.8807400">
        <ele>260.4</ele>
        <time>2022-10-29T09:00:00Z</time>
      </trkpt>
      <trkpt lat="43.3335680" lon="-1.8807170">
        <ele>260.6</ele>
        <time>2022-10-29T09:00:01Z</time>
      </trkpt>
      <trkpt lat="43.3335740" lon="-1.8806910">
        <ele>260.6</ele>
        <time>2022-10-29T09:00:02Z</time>
      </trkpt>
      <trkpt lat="43.3335840" lon="-1.8806500">
        <ele>261.0</ele>
        <time>2022-10-29T09:00:03Z</time>
      </trkpt>
      <trkpt lat="43.3335850" lon="-1.8806050">
        <ele>261.0</ele>
        <time>2022-10-29T09:00:04Z</time>
      </trkpt>
      <trkpt lat="43.3335890" lon="-1.8805580">
        <ele>261.2</ele>
        <time>2022-10-29T09:00:05Z</time>
      </trkpt>
      <trkpt lat="43.3335940" lon="-1.8805160">
        <ele>261.6</ele>
        <time>2022-10-29T09:00:06Z</time>
      </trkpt>
      <trkpt lat="43.3336010" lon="-1.8804770">
        <ele>262.0</ele>
        <time>2022-10-29T09:00:07Z</time>
      </trkpt>
      <trkpt lat="43.3336040" lon="-1.8804460">
        <ele>262.4</ele>
        <time>2022-10-29T09:00:08Z</time>
      </trkpt>
      <trkpt lat="43.3336060" lon="-1.8804100">
        <ele>263.0</ele>
        <time>2022-10-29T09:00:09Z</time>
      </trkpt>
      <trkpt lat="43.3336150" lon="-1.8803830">
        <ele>263.6</ele>
        <time>2022-10-29T09:00:10Z</time>
      </trkpt>
      <trkpt lat="43.3336210" lon="-1.8803490">
        <ele>263.8</ele>
        <time>2022-10-29T09:00:11Z</time>
      </trkpt>
      <trkpt lat="43.3336320" lon="-1.8803140">
        <ele>264.2</ele>
        <time>2022-10-29T09:00:12Z</time>
      </trkpt>
      <trkpt lat="43.3336410" lon="-1.8802770">
        <ele>264.2</ele>
        <time>2022-10-29T09:00:13Z</time>
      </trkpt>
      <trkpt lat="43.3336540" lon="-1.8802400">
        <ele>264.4</ele>
        <time>2022-10-29T09:00:14Z</time>
      </trkpt>
      <trkpt lat="43.3336660" lon="-1.8802090">
        <ele>264.4</ele>
        <time>2022-10-29T09:00:15Z</time>
      </trkpt>
      <trkpt lat="43.3336820" lon="-1.8801740">
        <ele>264.4</ele>
        <time>2022-10-29T09:00:16Z</time>
      </trkpt>
      <trkpt lat="43.3336960" lon="-1.8801460">
        <ele>264.4</ele>
        <time>2022-10-29T09:00:17Z</time>
      </trkpt>
      <trkpt lat="43.3337150" lon="-1.8801280">
        <ele>264.4</ele>
        <time>2022-10-29T09:00:18Z</time>
      </trkpt>
      <trkpt lat="43.3337310" lon="-1.8801050">
        <ele>264.4</ele>
        <time>2022-10-29T09:00:19Z</time>
      </trkpt>
      <trkpt lat="43.3337450" lon="-1.8800770">
        <ele>264.4</ele>
        <time>2022-10-29T09:00:20Z</time>
      </trkpt>
      <trkpt lat="43.3337560" lon="-1.8800490">
        <ele>264.4</ele>
        <time>2022-10-29T09:00:21Z</time>
      </trkpt>
      <trkpt lat="43.3337750" lon="-1.8800140">
        <ele>264.6</ele>
        <time>2022-10-29T09:00:22Z</time>
      </trkpt>
      <trkpt lat="43.3337830" lon="-1.8799670">
        <ele>264.8</ele>
        <time>2022-10-29T09:00:23Z</time>
      </trkpt>
      <trkpt lat="43.3337910" lon="-1.8799460">
        <ele>265.0</ele>
        <time>2022-10-29T09:00:24Z</time>
      </trkpt>
      <trkpt lat="43.3338030" lon="-1.8799330">
        <ele>265.0</ele>
        <time>2022-10-29T09:00:25Z</time>
      </trkpt>
      <trkpt lat="43.3338110" lon="-1.8799160">
        <ele>265.0</ele>
        <time>2022-10-29T09:00:26Z</time>
      </trkpt>
      <trkpt lat="43.3338240" lon="-1.8798740">
        <ele>265.2</ele>
        <time>2022-10-29T09:00:27Z</time>
      </trkpt>
      <trkpt lat="43.3338530" lon="-1.8798470">
        <ele>265.4</ele>
        <time>2022-10-29T09:00:28Z</time>
      </trkpt>
      <trkpt lat="43.3338890" lon="-1.8798070">
        <ele>265.6</ele>
        <time>2022-10-29T09:00:29Z</time>
      </trkpt>
      <trkpt lat="43.3339220" lon="-1.8797560">
        <ele>266.0</ele>
        <time>2022-10-29T09:00:30Z</time>
      </trkpt>
      <trkpt lat="43.3339460" lon="-1.8797190">
        <ele>266.0</ele>
        <time>2022-10-29T09:00:31Z</time>
      </trkpt>
      <trkpt lat="43.3339640" lon="-1.8796880">
        <ele>266.4</ele>
        <time>2022-10-29T09:00:32Z</time>
      </trkpt>
      <trkpt lat="43.3339830" lon="-1.8796620">
        <ele>266.8</ele>
        <time>2022-10-29T09:00:33Z</time>
      </trkpt>
      <trkpt lat="43.3340020" lon="-1.8796300">
        <ele>267.0</ele>
        <time>2022-10-29T09:00:34Z</time>
      </trkpt>
      <trkpt lat="43.3340250" lon="-1.8795980">
        <ele>267.0</ele>
        <time>2022-10-29T09:00:35Z</time>
      </trkpt>
      <trkpt lat="43.3340210" lon="-1.8795540">
        <ele>267.4</ele>
        <time>2022-10-29T09:00:36Z</time>
      </trkpt>
      <trkpt lat="43.3340480" lon="-1.8795090">
        <ele>267.4</ele>
        <time>2022-10-29T09:00:37Z</time>
      </trkpt>
      <trkpt lat="43.3340680" lon="-1.8794650">
        <ele>267.6</ele>
        <time>2022-10-29T09:00:38Z</time>
      </trkpt>
      <trkpt lat="43.3340730" lon="-1.8794080">
        <ele>267.6</ele>
        <time>2022-10-29T09:00:39Z</time>
      </trkpt>
      <trkpt lat="43.3340950" lon="-1.8793610">
        <ele>267.8</ele>
        <time>2022-10-29T09:00:40Z</time>
      </trkpt>
      <trkpt lat="43.3341120" lon="-1.8793170">
        <ele>268.0</ele>
        <time>2022-10-29T09:00:41Z</time>
      </trkpt>
      <trkpt lat="43.3341370" lon="-1.8792610">
        <ele>268.0</ele>
        <time>2022-10-29T09:00:42Z</time>
      </trkpt>
      <trkpt lat="43.3341630" lon="-1.8792070">
        <ele>268.2</ele>
        <time>2022-10-29T09:00:43Z</time>
      </trkpt>
      <trkpt lat="43.3341830" lon="-1.8791540">
        <ele>268.2</ele>
        <time>2022-10-29T09:00:44Z</time>
      </trkpt>
      <trkpt lat="43.3342020" lon="-1.8791170">
        <ele>268.2</ele>
        <time>2022-10-29T09:00:45Z</time>
      </trkpt>
      <trkpt lat="43.3342310" lon="-1.8790780">
        <ele>268.2</ele>
        <time>2022-10-29T09:00:46Z</time>
      </trkpt>
      <trkpt lat="43.3342330" lon="-1.8790080">
        <ele>268.2</ele>
        <time>2022-10-29T09:00:47Z</time>
      </trkpt>
      <trkpt lat="43.3342420" lon="-1.8789540">
        <ele>268.6</ele>
        <time>2022-10-29T09:00:48Z</time>
      </trkpt>
      <trkpt lat="43.3342660" lon="-1.8789050">
        <ele>268.6</ele>
        <time>2022-10-29T09:00:49Z</time>
      </trkpt>
      <trkpt lat="43.3342910" lon="-1.8788640">
        <ele>268.6</ele>
        <time>2022-10-29T09:00:50Z</time>
      </trkpt>
      <trkpt lat="43.3343200" lon="-1.8788320">
        <ele>268.8</ele>
        <time>2022-10-29T09:00:51Z</time>
      </trkpt>
      <trkpt lat="43.3343310" lon="-1.8787870">
        <ele>268.6</ele>
        <time>2022-10-29T09:00:52Z</time>
      </trkpt>
      <trkpt lat="43.3343550" lon="-1.8787440">
        <ele>268.6</ele>
        <time>2022-10-29T09:00:53Z</time>
      </trkpt>
      <trkpt lat="43.3343700" lon="-1.8786980">
        <ele>268.6</ele>
        <time>2022-10-29T09:00:54Z</time>
      </trkpt>
      <trkpt lat="43.3343800" lon="-1.8786620">
        <ele>268.6</ele>
        <time>2022-10-29T09:00:55Z</time>
      </trkpt>
      <trkpt lat="43.3343740" lon="-1.8786130">
        <ele>268.8</ele>
        <time>2022-10-29T09:00:56Z</time>
      </trkpt>
      <trkpt lat="43.3343790" lon="-1.8785660">
        <ele>268.8</ele>
        <time>2022-10-29T09:00:57Z</time>
      </trkpt>
      <trkpt lat="43.3343880" lon="-1.8785240">
        <ele>269.0</ele>
        <time>2022-10-29T09:00:58Z</time>
      </trkpt>
      <trkpt lat="43.3343900" lon="-1.8784670">
        <ele>269.0</ele>
        <time>2022-10-29T09:00:59Z</time>
      </trkpt>
      <trkpt lat="43.3344060" lon="-1.8784150">
        <ele>269.2</ele>
        <time>2022-10-29T09:01:00Z</time>
      </trkpt>
      <trkpt lat="43.3344320" lon="-1.8783420">
        <ele>269.2</ele>
        <time>2022-10-29T09:01:01Z</time>
      </trkpt>
      <trkpt lat="43.3344470" lon="-1.8782670">
        <ele>269.2</ele>
        <time>2022-10-29T09:01:02Z</time>
      </trkpt>
      <trkpt lat="43.3344590" lon="-1.8782010">
        <ele>269.2</ele>
        <time>2022-10-29T09:01:03Z</time>
      </trkpt>
      <trkpt lat="43.3344680" lon="-1.8781560">
        <ele>269.2</ele>
        <time>2022-10-29T09:01:04Z</time>
      </trkpt>
      <trkpt lat="43.3344760" lon="-1.8781110">
        <ele>269.6</ele>
        <time>2022-10-29T09:01:05Z</time>
      </trkpt>
      <trkpt lat="43.3344890" lon="-1.8780210">
        <ele>269.6</ele>
        <time>2022-10-29T09:01:06Z</time>
      </trkpt>
      <trkpt lat="43.3344850" lon="-1.8779280">
        <ele>269.4</ele>
        <time>2022-10-29T09:01:07Z</time>
      </trkpt>
      <trkpt lat="43.3345120" lon="-1.8777810">
        <ele>268.8</ele>
        <time>2022-10-29T09:01:09Z</time>
      </trkpt>
      <trkpt lat="43.3345300" lon="-1.8777100">
        <ele>268.8</ele>
        <time>2022-10-29T09:01:10Z</time>
      </trkpt>
      <trkpt lat="43.3345480" lon="-1.8776550">
        <ele>268.8</ele>
        <time>2022-10-29T09:01:11Z</time>
      </trkpt>
      <trkpt lat="43.3345490" lon="-1.8776040">
        <ele>269.0</ele>
        <time>2022-10-29T09:01:12Z</time>
      </trkpt>
      <trkpt lat="43.3345590" lon="-1.8775600">
        <ele>269.0</ele>
        <time>2022-10-29T09:01:13Z</time>
      </trkpt>
      <trkpt lat="43.3345840" lon="-1.8775120">
        <ele>269.2</ele>
        <time>2022-10-29T09:01:14Z</time>
      </trkpt>
      <trkpt lat="43.3346210" lon="-1.8774450">
        <ele>269.2</ele>
        <time>2022-10-29T09:01:15Z</time>
      </trkpt>
      <trkpt lat="43.3346620" lon="-1.8773690">
        <ele>269.4</ele>
        <time>2022-10-29T09:01:16Z</time>
      </trkpt>
      <trkpt lat="43.3346900" lon="-1.8772900">
        <ele>269.4</ele>
        <time>2022-10-29T09:01:17Z</time>
      </trkpt>
      <trkpt lat="43.3347120" lon="-1.8772200">
        <ele>269.4</ele>
        <time>2022-10-29T09:01:18Z</time>
      </trkpt>
      <trkpt lat="43.3347370" lon="-1.8771390">
        <ele>269.4</ele>
        <time>2022-10-29T09:01:19Z</time>
      </trkpt>
      <trkpt lat="43.3347750" lon="-1.8769680">
        <ele>269.4</ele>
        <time>2022-10-29T09:01:21Z</time>
      </trkpt>
      <trkpt lat="43.3348280" lon="-1.8768500">
        <ele>269.4</ele>
        <time>2022-10-29T09:01:23Z</time>
      </trkpt>
      <trkpt lat="43.3348510" lon="-1.8767930">
        <ele>269.4</ele>
        <time>2022-10-29T09:01:24Z</time>
      </trkpt>
      <trkpt lat="43.3348850" lon="-1.8767320">
        <ele>269.6</ele>
        <time>2022-10-29T09:01:25Z</time>
      </trkpt>
      <trkpt lat="43.3349190" lon="-1.8766700">
        <ele>269.4</ele>
        <time>2022-10-29T09:01:26Z</time>
      </trkpt>
      <trkpt lat="43.3349570" lon="-1.8766130">
        <ele>269.4</ele>
        <time>2022-10-29T09:01:27Z</time>
      </trkpt>
      <trkpt lat="43.3350260" lon="-1.8764830">
        <ele>269.2</ele>
        <time>2022-10-29T09:01:29Z</time>
      </trkpt>
      <trkpt lat="43.3350750" lon="-1.8763680">
        <ele>269.2</ele>
        <time>2022-10-29T09:01:31Z</time>
      </trkpt>
      <trkpt lat="43.3351030" lon="-1.8763170">
        <ele>269.0</ele>
        <time>2022-10-29T09:01:32Z</time>
      </trkpt>
      <trkpt lat="43.3351300" lon="-1.8762540">
        <ele>268.8</ele>
        <time>2022-10-29T09:01:33Z</time>
      </trkpt>
      <trkpt lat="43.3351540" lon="-1.8761890">
        <ele>268.4</ele>
        <time>2022-10-29T09:01:34Z</time>
      </trkpt>
      <trkpt lat="43.3351950" lon="-1.8760310">
        <ele>267.8</ele>
        <time>2022-10-29T09:01:36Z</time>
      </trkpt>
      <trkpt lat="43.3352490" lon="-1.8757910">
        <ele>267.2</ele>
        <time>2022-10-29T09:01:39Z</time>
      </trkpt>
      <trkpt lat="43.3352630" lon="-1.8757120">
        <ele>266.6</ele>
        <time>2022-10-29T09:01:40Z</time>
      </trkpt>
      <trkpt lat="43.3352760" lon="-1.8756310">
        <ele>265.8</ele>
        <time>2022-10-29T09:01:41Z</time>
      </trkpt>
      <trkpt lat="43.3352710" lon="-1.8755450">
        <ele>265.6</ele>
        <time>2022-10-29T09:01:42Z</time>
      </trkpt>
      <trkpt lat="43.3352490" lon="-1.8754720">
        <ele>264.8</ele>
        <time>2022-10-29T09:01:43Z</time>
      </trkpt>
      <trkpt lat="43.3352360" lon="-1.8753890">
        <ele>264.6</ele>
        <time>2022-10-29T09:01:44Z</time>
      </trkpt>
      <trkpt lat="43.3352360" lon="-1.8752960">
        <ele>264.4</ele>
        <time>2022-10-29T09:01:45Z</time>
      </trkpt>
      <trkpt lat="43.3352290" lon="-1.8751860">
        <ele>264.2</ele>
        <time>2022-10-29T09:01:46Z</time>
      </trkpt>
      <trkpt lat="43.3352000" lon="-1.8749480">
        <ele>263.8</ele>
        <time>2022-10-29T09:01:48Z</time>
      </trkpt>
      <trkpt lat="43.3351670" lon="-1.8747070">
        <ele>262.6</ele>
        <time>2022-10-29T09:01:50Z</time>
      </trkpt>
      <trkpt lat="43.3351090" lon="-1.8744650">
        <ele>261.8</ele>
        <time>2022-10-29T09:01:52Z</time>
      </trkpt>
      <trkpt lat="43.3350780" lon="-1.8743530">
        <ele>261.6</ele>
        <time>2022-10-29T09:01:53Z</time>
      </trkpt>
      <trkpt lat="43.3350460" lon="-1.8742400">
        <ele>260.8</ele>
        <time>2022-10-29T09:01:54Z</time>
      </trkpt>
      <trkpt lat="43.3350220" lon="-1.8741300">
        <ele>260.6</ele>
        <time>2022-10-29T09:01:55Z</time>
      </trkpt>
      <trkpt lat="43.3350060" lon="-1.8740150">
        <ele>260.0</ele>
        <time>2022-10-29T09:01:56Z</time>
      </trkpt>
      <trkpt lat="43.3350000" lon="-1.8739010">
        <ele>259.8</ele>
        <time>2022-10-29T09:01:57Z</time>
      </trkpt>
      <trkpt lat="43.3350200" lon="-1.8736760">
        <ele>259.2</ele>
        <time>2022-10-29T09:01:59Z</time>
      </trkpt>
      <trkpt lat="43.3350460" lon="-1.8735730">
        <ele>258.8</ele>
        <time>2022-10-29T09:02:00Z</time>
      </trkpt>
      <trkpt lat="43.3350750" lon="-1.8734900">
        <ele>258.2</ele>
        <time>2022-10-29T09:02:01Z</time>
      </trkpt>
      <trkpt lat="43.3351120" lon="-1.8734150">
        <ele>257.6</ele>
        <time>2022-10-29T09:02:02Z</time>
      </trkpt>
      <trkpt lat="43.3351550" lon="-1.8733450">
        <ele>257.2</ele>
        <time>2022-10-29T09:02:03Z</time>
      </trkpt>
      <trkpt lat="43.3352050" lon="-1.8732780">
        <ele>257.0</ele>
        <time>2022-10-29T09:02:04Z</time>
      </trkpt>
      <trkpt lat="43.3352620" lon="-1.8732130">
        <ele>255.4</ele>
        <time>2022-10-29T09:02:05Z</time>
      </trkpt>
      <trkpt lat="43.3353790" lon="-1.8730790">
        <ele>254.4</ele>
        <time>2022-10-29T09:02:07Z</time>
      </trkpt>
      <trkpt lat="43.3354850" lon="-1.8729580">
        <ele>253.4</ele>
        <time>2022-10-29T09:02:09Z</time>
      </trkpt>
      <trkpt lat="43.3355330" lon="-1.8729180">
        <ele>253.0</ele>
        <time>2022-10-29T09:02:10Z</time>
      </trkpt>
      <trkpt lat="43.3355770" lon="-1.8728850">
        <ele>252.2</ele>
        <time>2022-10-29T09:02:11Z</time>
      </trkpt>
      <trkpt lat="43.3356160" lon="-1.8728540">
        <ele>251.6</ele>
        <time>2022-10-29T09:02:12Z</time>
      </trkpt>
      <trkpt lat="43.3356490" lon="-1.8728160">
        <ele>251.6</ele>
        <time>2022-10-29T09:02:13Z</time>
      </trkpt>
      <trkpt lat="43.3356740" lon="-1.8727690">
        <ele>250.8</ele>
        <time>2022-10-29T09:02:14Z</time>
      </trkpt>
      <trkpt lat="43.3356890" lon="-1.8727200">
        <ele>250.8</ele>
        <time>2022-10-29T09:02:15Z</time>
      </trkpt>
      <trkpt lat="43.3356850" lon="-1.8726570">
        <ele>250.0</ele>
        <time>2022-10-29T09:02:16Z</time>
      </trkpt>
      <trkpt lat="43.3356710" lon="-1.8725860">
        <ele>249.8</ele>
        <time>2022-10-29T09:02:17Z</time>
      </trkpt>
      <trkpt lat="43.3356370" lon="-1.8724030">
        <ele>249.0</ele>
        <time>2022-10-29T09:02:19Z</time>
      </trkpt>
      <trkpt lat="43.3356120" lon="-1.8723060">
        <ele>248.6</ele>
        <time>2022-10-29T09:02:20Z</time>
      </trkpt>
      <trkpt lat="43.3355710" lon="-1.8721220">
        <ele>247.8</ele>
        <time>2022-10-29T09:02:22Z</time>
      </trkpt>
      <trkpt lat="43.3355610" lon="-1.8720240">
        <ele>247.2</ele>
        <time>2022-10-29T09:02:23Z</time>
      </trkpt>
      <trkpt lat="43.3355530" lon="-1.8718370">
        <ele>246.6</ele>
        <time>2022-10-29T09:02:25Z</time>
      </trkpt>
      <trkpt lat="43.3355630" lon="-1.8715360">
        <ele>245.4</ele>
        <time>2022-10-29T09:02:28Z</time>
      </trkpt>
      <trkpt lat="43.3355680" lon="-1.8714360">
        <ele>244.0</ele>
        <time>2022-10-29T09:02:29Z</time>
      </trkpt>
      <trkpt lat="43.3355940" lon="-1.8712440">
        <ele>242.2</ele>
        <time>2022-10-29T09:02:31Z</time>
      </trkpt>
      <trkpt lat="43.3356080" lon="-1.8711500">
        <ele>241.2</ele>
        <time>2022-10-29T09:02:32Z</time>
      </trkpt>
      <trkpt lat="43.3356180" lon="-1.8710610">
        <ele>241.0</ele>
        <time>2022-10-29T09:02:33Z</time>
      </trkpt>
      <trkpt lat="43.3356320" lon="-1.8709620">
        <ele>240.4</ele>
        <time>2022-10-29T09:02:34Z</time>
      </trkpt>
      <trkpt lat="43.3356460" lon="-1.8708570">
        <ele>240.0</ele>
        <time>2022-10-29T09:02:35Z</time>
      </trkpt>
      <trkpt lat="43.3356570" lon="-1.8707300">
        <ele>239.2</ele>
        <time>2022-10-29T09:02:36Z</time>
      </trkpt>
      <trkpt lat="43.3356770" lon="-1.8704830">
        <ele>238.0</ele>
        <time>2022-10-29T09:02:38Z</time>
      </trkpt>
      <trkpt lat="43.3356760" lon="-1.8703630">
        <ele>237.8</ele>
        <time>2022-10-29T09:02:39Z</time>
      </trkpt>
      <trkpt lat="43.3356650" lon="-1.8702350">
        <ele>237.4</ele>
        <time>2022-10-29T09:02:40Z</time>
      </trkpt>
      <trkpt lat="43.3356500" lon="-1.8701100">
        <ele>236.8</ele>
        <time>2022-10-29T09:02:41Z</time>
      </trkpt>
      <trkpt lat="43.3356460" lon="-1.8700010">
        <ele>236.4</ele>
        <time>2022-10-29T09:02:42Z</time>
      </trkpt>
      <trkpt lat="43.3356480" lon="-1.8699000">
        <ele>235.6</ele>
        <time>2022-10-29T09:02:43Z</time>
      </trkpt>
      <trkpt lat="43.3356630" lon="-1.8698000">
        <ele>235.4</ele>
        <time>2022-10-29T09:02:44Z</time>
      </trkpt>
      <trkpt lat="43.3356790" lon="-1.8697080">
        <ele>234.8</ele>
        <time>2022-10-29T09:02:45Z</time>
      </trkpt>
      <trkpt lat="43.3357100" lon="-1.8696240">
        <ele>234.6</ele>
        <time>2022-10-29T09:02:46Z</time>
      </trkpt>
      <trkpt lat="43.3357320" lon="-1.8695460">
        <ele>234.4</ele>
        <time>2022-10-29T09:02:47Z</time>
      </trkpt>
      <trkpt lat="43.3357500" lon="-1.8694710">
        <ele>234.2</ele>
        <time>2022-10-29T09:02:48Z</time>
      </trkpt>
      <trkpt lat="43.3357750" lon="-1.8694020">
        <ele>234.2</ele>
        <time>2022-10-29T09:02:49Z</time>
      </trkpt>
      <trkpt lat="43.3358130" lon="-1.8693360">
        <ele>233.8</ele>
        <time>2022-10-29T09:02:50Z</time>
      </trkpt>
      <trkpt lat="43.3358610" lon="-1.8692690">
        <ele>232.6</ele>
        <time>2022-10-29T09:02:51Z</time>
      </trkpt>
      <trkpt lat="43.3359040" lon="-1.8692060">
        <ele>231.4</ele>
        <time>2022-10-29T09:02:52Z</time>
      </trkpt>
      <trkpt lat="43.3360060" lon="-1.8690830">
        <ele>230.4</ele>
        <time>2022-10-29T09:02:54Z</time>
      </trkpt>
      <trkpt lat="43.3360630" lon="-1.8690330">
        <ele>230.4</ele>
        <time>2022-10-29T09:02:55Z</time>
      </trkpt>
      <trkpt lat="43.3361740" lon="-1.8689030">
        <ele>229.6</ele>
        <time>2022-10-29T09:02:57Z</time>
      </trkpt>
      <trkpt lat="43.3362070" lon="-1.8688160">
        <ele>229.2</ele>
        <time>2022-10-29T09:02:58Z</time>
      </trkpt>
      <trkpt lat="43.3362300" lon="-1.8687110">
        <ele>229.0</ele>
        <time>2022-10-29T09:02:59Z</time>
      </trkpt>
      <trkpt lat="43.3362450" lon="-1.8685930">
        <ele>228.6</ele>
        <time>2022-10-29T09:03:00Z</time>
      </trkpt>
      <trkpt lat="43.3362610" lon="-1.8684880">
        <ele>228.2</ele>
        <time>2022-10-29T09:03:01Z</time>
      </trkpt>
      <trkpt lat="43.3362800" lon="-1.8683930">
        <ele>228.0</ele>
        <time>2022-10-29T09:03:02Z</time>
      </trkpt>
      <trkpt lat="43.3363050" lon="-1.8683070">
        <ele>227.8</ele>
        <time>2022-10-29T09:03:03Z</time>
      </trkpt>
      <trkpt lat="43.3363270" lon="-1.8682280">
        <ele>227.6</ele>
        <time>2022-10-29T09:03:04Z</time>
      </trkpt>
      <trkpt lat="43.3363480" lon="-1.8681490">
        <ele>226.8</ele>
        <time>2022-10-29T09:03:05Z</time>
      </trkpt>
      <trkpt lat="43.3363830" lon="-1.8680610">
        <ele>226.4</ele>
        <time>2022-10-29T09:03:06Z</time>
      </trkpt>
      <trkpt lat="43.3364010" lon="-1.8679630">
        <ele>225.4</ele>
        <time>2022-10-29T09:03:07Z</time>
      </trkpt>
      <trkpt lat="43.3364190" lon="-1.8678610">
        <ele>224.8</ele>
        <time>2022-10-29T09:03:08Z</time>
      </trkpt>
      <trkpt lat="43.3364320" lon="-1.8677620">
        <ele>224.4</ele>
        <time>2022-10-29T09:03:09Z</time>
      </trkpt>
      <trkpt lat="43.3364590" lon="-1.8675890">
        <ele>223.8</ele>
        <time>2022-10-29T09:03:11Z</time>
      </trkpt>
      <trkpt lat="43.3364630" lon="-1.8675100">
        <ele>223.2</ele>
        <time>2022-10-29T09:03:12Z</time>
      </trkpt>
      <trkpt lat="43.3364570" lon="-1.8674310">
        <ele>223.2</ele>
        <time>2022-10-29T09:03:13Z</time>
      </trkpt>
      <trkpt lat="43.3364160" lon="-1.8672630">
        <ele>222.8</ele>
        <time>2022-10-29T09:03:15Z</time>
      </trkpt>
      <trkpt lat="43.3364000" lon="-1.8671830">
        <ele>222.2</ele>
        <time>2022-10-29T09:03:16Z</time>
      </trkpt>
      <trkpt lat="43.3363920" lon="-1.8670970">
        <ele>222.0</ele>
        <time>2022-10-29T09:03:17Z</time>
      </trkpt>
      <trkpt lat="43.3363880" lon="-1.8670100">
        <ele>221.8</ele>
        <time>2022-10-29T09:03:18Z</time>
      </trkpt>
      <trkpt lat="43.3363870" lon="-1.8669210">
        <ele>221.8</ele>
        <time>2022-10-29T09:03:19Z</time>
      </trkpt>
      <trkpt lat="43.3363860" lon="-1.8665110">
        <ele>221.2</ele>
        <time>2022-10-29T09:03:24Z</time>
      </trkpt>
      <trkpt lat="43.3363980" lon="-1.8663650">
        <ele>221.0</ele>
        <time>2022-10-29T09:03:26Z</time>
      </trkpt>
      <trkpt lat="43.3364120" lon="-1.8662980">
        <ele>221.0</ele>
        <time>2022-10-29T09:03:27Z</time>
      </trkpt>
      <trkpt lat="43.3364370" lon="-1.8662380">
        <ele>221.0</ele>
        <time>2022-10-29T09:03:28Z</time>
      </trkpt>
      <trkpt lat="43.3364650" lon="-1.8661860">
        <ele>221.2</ele>
        <time>2022-10-29T09:03:29Z</time>
      </trkpt>
      <trkpt lat="43.3364900" lon="-1.8661310">
        <ele>221.2</ele>
        <time>2022-10-29T09:03:30Z</time>
      </trkpt>
      <trkpt lat="43.3365150" lon="-1.8660890">
        <ele>221.0</ele>
        <time>2022-10-29T09:03:31Z</time>
      </trkpt>
      <trkpt lat="43.3365320" lon="-1.8660450">
        <ele>221.0</ele>
        <time>2022-10-29T09:03:32Z</time>
      </trkpt>
      <trkpt lat="43.3365620" lon="-1.8660070">
        <ele>221.0</ele>
        <time>2022-10-29T09:03:33Z</time>
      </trkpt>
      <trkpt lat="43.3365910" lon="-1.8659680">
        <ele>220.8</ele>
        <time>2022-10-29T09:03:34Z</time>
      </trkpt>
      <trkpt lat="43.3366190" lon="-1.8659250">
        <ele>220.8</ele>
        <time>2022-10-29T09:03:35Z</time>
      </trkpt>
      <trkpt lat="43.3366940" lon="-1.8658100">
        <ele>220.8</ele>
        <time>2022-10-29T09:03:38Z</time>
      </trkpt>
      <trkpt lat="43.3367230" lon="-1.8657650">
        <ele>220.8</ele>
        <time>2022-10-29T09:03:39Z</time>
      </trkpt>
      <trkpt lat="43.3367540" lon="-1.8657220">
        <ele>220.6</ele>
        <time>2022-10-29T09:03:40Z</time>
      </trkpt>
      <trkpt lat="43.3367850" lon="-1.8656760">
        <ele>220.4</ele>
        <time>2022-10-29T09:03:41Z</time>
      </trkpt>
      <trkpt lat="43.3368120" lon="-1.8656330">
        <ele>220.2</ele>
        <time>2022-10-29T09:03:42Z</time>
      </trkpt>
      <trkpt lat="43.3368420" lon="-1.8655940">
        <ele>220.2</ele>
        <time>2022-10-29T09:03:43Z</time>
      </trkpt>
      <trkpt lat="43.3368720" lon="-1.8655470">
        <ele>220.2</ele>
        <time>2022-10-29T09:03:44Z</time>
      </trkpt>
      <trkpt lat="43.3368970" lon="-1.8655050">
        <ele>220.0</ele>
        <time>2022-10-29T09:03:45Z</time>
      </trkpt>
      <trkpt lat="43.3369170" lon="-1.8654590">
        <ele>219.8</ele>
        <time>2022-10-29T09:03:46Z</time>
      </trkpt>
      <trkpt lat="43.3369330" lon="-1.8654110">
        <ele>219.6</ele>
        <time>2022-10-29T09:03:47Z</time>
      </trkpt>
      <trkpt lat="43.3369450" lon="-1.8653500">
        <ele>219.2</ele>
        <time>2022-10-29T09:03:48Z</time>
      </trkpt>
      <trkpt lat="43.3369450" lon="-1.8652820">
        <ele>219.0</ele>
        <time>2022-10-29T09:03:49Z</time>
      </trkpt>
      <trkpt lat="43.3369300" lon="-1.8651740">
        <ele>218.8</ele>
        <time>2022-10-29T09:03:50Z</time>
      </trkpt>
      <trkpt lat="43.3369020" lon="-1.8650860">
        <ele>218.4</ele>
        <time>2022-10-29T09:03:51Z</time>
      </trkpt>
      <trkpt lat="43.3368660" lon="-1.8649700">
        <ele>217.8</ele>
        <time>2022-10-29T09:03:52Z</time>
      </trkpt>
      <trkpt lat="43.3368300" lon="-1.8648720">
        <ele>217.6</ele>
        <time>2022-10-29T09:03:53Z</time>
      </trkpt>
      <trkpt lat="43.3367990" lon="-1.8647730">
        <ele>217.2</ele>
        <time>2022-10-29T09:03:54Z</time>
      </trkpt>
      <trkpt lat="43.3367590" lon="-1.8646780">
        <ele>217.0</ele>
        <time>2022-10-29T09:03:55Z</time>
      </trkpt>
      <trkpt lat="43.3367150" lon="-1.8645840">
        <ele>216.6</ele>
        <time>2022-10-29T09:03:56Z</time>
      </trkpt>
      <trkpt lat="43.3366790" lon="-1.8645220">
        <ele>216.6</ele>
        <time>2022-10-29T09:03:57Z</time>
      </trkpt>
      <trkpt lat="43.3366480" lon="-1.8644470">
        <ele>216.6</ele>
        <time>2022-10-29T09:03:58Z</time>
      </trkpt>
      <trkpt lat="43.3366250" lon="-1.8643330">
        <ele>216.4</ele>
        <time>2022-10-29T09:03:59Z</time>
      </trkpt>
      <trkpt lat="43.3366010" lon="-1.8640790">
        <ele>216.4</ele>
        <time>2022-10-29T09:04:02Z</time>
      </trkpt>
      <trkpt lat="43.3366040" lon="-1.8639290">
        <ele>216.4</ele>
        <time>2022-10-29T09:04:04Z</time>
      </trkpt>
      <trkpt lat="43.3366150" lon="-1.8638580">
        <ele>216.4</ele>
        <time>2022-10-29T09:04:05Z</time>
      </trkpt>
      <trkpt lat="43.3366270" lon="-1.8637910">
        <ele>216.6</ele>
        <time>2022-10-29T09:04:06Z</time>
      </trkpt>
      <trkpt lat="43.3366380" lon="-1.8637240">
        <ele>216.6</ele>
        <time>2022-10-29T09:04:07Z</time>
      </trkpt>
      <trkpt lat="43.3366540" lon="-1.8636560">
        <ele>216.6</ele>
        <time>2022-10-29T09:04:08Z</time>
      </trkpt>
      <trkpt lat="43.3366740" lon="-1.8636040">
        <ele>216.8</ele>
        <time>2022-10-29T09:04:09Z</time>
      </trkpt>
      <trkpt lat="43.3366980" lon="-1.8635590">
        <ele>216.8</ele>
        <time>2022-10-29T09:04:10Z</time>
      </trkpt>
      <trkpt lat="43.3367260" lon="-1.8635220">
        <ele>216.8</ele>
        <time>2022-10-29T09:04:11Z</time>
      </trkpt>
      <trkpt lat="43.3367610" lon="-1.8634950">
        <ele>217.0</ele>
        <time>2022-10-29T09:04:12Z</time>
      </trkpt>
      <trkpt lat="43.3368040" lon="-1.8634820">
        <ele>217.0</ele>
        <time>2022-10-29T09:04:13Z</time>
      </trkpt>
      <trkpt lat="43.3368900" lon="-1.8634610">
        <ele>217.2</ele>
        <time>2022-10-29T09:04:15Z</time>
      </trkpt>
      <trkpt lat="43.3369320" lon="-1.8634540">
        <ele>217.4</ele>
        <time>2022-10-29T09:04:16Z</time>
      </trkpt>
      <trkpt lat="43.3369710" lon="-1.8634420">
        <ele>217.4</ele>
        <time>2022-10-29T09:04:17Z</time>
      </trkpt>
      <trkpt lat="43.3370300" lon="-1.8634230">
        <ele>217.6</ele>
        <time>2022-10-29T09:04:19Z</time>
      </trkpt>
      <trkpt lat="43.3370610" lon="-1.8634100">
        <ele>217.8</ele>
        <time>2022-10-29T09:04:20Z</time>
      </trkpt>
      <trkpt lat="43.3370870" lon="-1.8633900">
        <ele>217.8</ele>
        <time>2022-10-29T09:04:21Z</time>
      </trkpt>
      <trkpt lat="43.3371140" lon="-1.8633670">
        <ele>218.0</ele>
        <time>2022-10-29T09:04:22Z</time>
      </trkpt>
      <trkpt lat="43.3371780" lon="-1.8633030">
        <ele>218.4</ele>
        <time>2022-10-29T09:04:24Z</time>
      </trkpt>
      <trkpt lat="43.3372130" lon="-1.8632820">
        <ele>218.8</ele>
        <time>2022-10-29T09:04:25Z</time>
      </trkpt>
      <trkpt lat="43.3372400" lon="-1.8632620">
        <ele>219.0</ele>
        <time>2022-10-29T09:04:26Z</time>
      </trkpt>
      <trkpt lat="43.3372610" lon="-1.8632370">
        <ele>219.2</ele>
        <time>2022-10-29T09:04:27Z</time>
      </trkpt>
      <trkpt lat="43.3372860" lon="-1.8632070">
        <ele>219.2</ele>
        <time>2022-10-29T09:04:28Z</time>
      </trkpt>
      <trkpt lat="43.3373100" lon="-1.8631770">
        <ele>219.4</ele>
        <time>2022-10-29T09:04:29Z</time>
      </trkpt>
      <trkpt lat="43.3373340" lon="-1.8631510">
        <ele>219.4</ele>
        <time>2022-10-29T09:04:30Z</time>
      </trkpt>
      <trkpt lat="43.3373570" lon="-1.8631260">
        <ele>219.6</ele>
        <time>2022-10-29T09:04:31Z</time>
      </trkpt>
      <trkpt lat="43.3373790" lon="-1.8631040">
        <ele>219.8</ele>
        <time>2022-10-29T09:04:32Z</time>
      </trkpt>
      <trkpt lat="43.3374060" lon="-1.8630900">
        <ele>220.4</ele>
        <time>2022-10-29T09:04:33Z</time>
      </trkpt>
      <trkpt lat="43.3374250" lon="-1.8630720">
        <ele>220.6</ele>
        <time>2022-10-29T09:04:34Z</time>
      </trkpt>
      <trkpt lat="43.3374460" lon="-1.8630580">
        <ele>220.8</ele>
        <time>2022-10-29T09:04:35Z</time>
      </trkpt>
      <trkpt lat="43.3374670" lon="-1.8630470">
        <ele>221.2</ele>
        <time>2022-10-29T09:04:36Z</time>
      </trkpt>
      <trkpt lat="43.3374830" lon="-1.8630330">
        <ele>221.2</ele>
        <time>2022-10-29T09:04:37Z</time>
      </trkpt>
      <trkpt lat="43.3374970" lon="-1.8630040">
        <ele>221.4</ele>
        <time>2022-10-29T09:04:38Z</time>
      </trkpt>
      <trkpt lat="43.3375130" lon="-1.8629820">
        <ele>221.6</ele>
        <time>2022-10-29T09:04:39Z</time>
      </trkpt>
      <trkpt lat="43.3375330" lon="-1.8629580">
        <ele>221.6</ele>
        <time>2022-10-29T09:04:40Z</time>
      </trkpt>
      <trkpt lat="43.3375470" lon="-1.8629320">
        <ele>221.8</ele>
        <time>2022-10-29T09:04:41Z</time>
      </trkpt>
      <trkpt lat="43.3375620" lon="-1.8629090">
        <ele>222.2</ele>
        <time>2022-10-29T09:04:42Z</time>
      </trkpt>
      <trkpt lat="43.3375780" lon="-1.8628910">
        <ele>222.6</ele>
        <time>2022-10-29T09:04:43Z</time>
      </trkpt>
      <trkpt lat="43.3376020" lon="-1.8628730">
        <ele>223.0</ele>
        <time>2022-10-29T09:04:44Z</time>
      </trkpt>
      <trkpt lat="43.3376220" lon="-1.8628440">
        <ele>223.4</ele>
        <time>2022-10-29T09:04:45Z</time>
      </trkpt>
      <trkpt lat="43.3376460" lon="-1.8628330">
        <ele>223.6</ele>
        <time>2022-10-29T09:04:46Z</time>
      </trkpt>
      <trkpt lat="43.3376650" lon="-1.8628210">
        <ele>223.8</ele>
        <time>2022-10-29T09:04:47Z</time>
      </trkpt>
      <trkpt lat="43.3376850" lon="-1.8628080">
        <ele>224.0</ele>
        <time>2022-10-29T09:04:48Z</time>
      </trkpt>
      <trkpt lat="43.3377080" lon="-1.8627960">
        <ele>224.2</ele>
        <time>2022-10-29T09:04:49Z</time>
      </trkpt>
      <trkpt lat="43.3377270" lon="-1.8627760">
        <ele>224.6</ele>
        <time>2022-10-29T09:04:50Z</time>
      </trkpt>
      <trkpt lat="43.3377520" lon="-1.8627470">
        <ele>225.2</ele>
        <time>2022-10-29T09:04:51Z</time>
      </trkpt>
      <trkpt lat="43.3377640" lon="-1.8627170">
        <ele>225.4</ele>
        <time>2022-10-29T09:04:52Z</time>
      </trkpt>
      <trkpt lat="43.3377810" lon="-1.8626910">
        <ele>225.6</ele>
        <time>2022-10-29T09:04:53Z</time>
      </trkpt>
      <trkpt lat="43.3378000" lon="-1.8626770">
        <ele>225.8</ele>
        <time>2022-10-29T09:04:54Z</time>
      </trkpt>
      <trkpt lat="43.3378230" lon="-1.8626560">
        <ele>225.8</ele>
        <time>2022-10-29T09:04:55Z</time>
      </trkpt>
      <trkpt lat="43.3378450" lon="-1.8626270">
        <ele>225.8</ele>
        <time>2022-10-29T09:04:56Z</time>
      </trkpt>
      <trkpt lat="43.3378560" lon="-1.8625960">
        <ele>226.2</ele>
        <time>2022-10-29T09:04:57Z</time>
      </trkpt>
      <trkpt lat="43.3378620" lon="-1.8625740">
        <ele>226.4</ele>
        <time>2022-10-29T09:04:58Z</time>
      </trkpt>
      <trkpt lat="43.3378710" lon="-1.8625570">
        <ele>226.8</ele>
        <time>2022-10-29T09:04:59Z</time>
      </trkpt>
      <trkpt lat="43.3378830" lon="-1.8625410">
        <ele>227.0</ele>
        <time>2022-10-29T09:05:00Z</time>
      </trkpt>
      <trkpt lat="43.3378890" lon="-1.8625230">
        <ele>227.2</ele>
        <time>2022-10-29T09:05:01Z</time>
      </trkpt>
      <trkpt lat="43.3378940" lon="-1.8625050">
        <ele>227.6</ele>
        <time>2022-10-29T09:05:02Z</time>
      </trkpt>
      <trkpt lat="43.3379020" lon="-1.8624840">
        <ele>227.6</ele>
        <time>2022-10-29T09:05:03Z</time>
      </trkpt>
      <trkpt lat="43.3379130" lon="-1.8624610">
        <ele>228.0</ele>
        <time>2022-10-29T09:05:04Z</time>
      </trkpt>
      <trkpt lat="43.3379260" lon="-1.8624320">
        <ele>228.4</ele>
        <time>2022-10-29T09:05:05Z</time>
      </trkpt>
      <trkpt lat="43.3379340" lon="-1.8624010">
        <ele>228.4</ele>
        <time>2022-10-29T09:05:06Z</time>
      </trkpt>
      <trkpt lat="43.3379390" lon="-1.8623640">
        <ele>228.6</ele>
        <time>2022-10-29T09:05:07Z</time>
      </trkpt>
      <trkpt lat="43.3379430" lon="-1.8623230">
        <ele>228.6</ele>
        <time>2022-10-29T09:05:08Z</time>
      </trkpt>
      <trkpt lat="43.3379450" lon="-1.8622780">
        <ele>228.8</ele>
        <time>2022-10-29T09:05:09Z</time>
      </trkpt>
      <trkpt lat="43.3379460" lon="-1.8622310">
        <ele>228.8</ele>
        <time>2022-10-29T09:05:10Z</time>
      </trkpt>
      <trkpt lat="43.3379460" lon="-1.8621860">
        <ele>229.0</ele>
        <time>2022-10-29T09:05:11Z</time>
      </trkpt>
      <trkpt lat="43.3379470" lon="-1.8621380">
        <ele>229.0</ele>
        <time>2022-10-29T09:05:12Z</time>
      </trkpt>
      <trkpt lat="43.3379500" lon="-1.8620910">
        <ele>229.0</ele>
        <time>2022-10-29T09:05:13Z</time>
      </trkpt>
      <trkpt lat="43.3379540" lon="-1.8620410">
        <ele>229.2</ele>
        <time>2022-10-29T09:05:14Z</time>
      </trkpt>
      <trkpt lat="43.3379590" lon="-1.8619860">
        <ele>229.2</ele>
        <time>2022-10-29T09:05:15Z</time>
      </trkpt>
      <trkpt lat="43.3379620" lon="-1.8619340">
        <ele>229.2</ele>
        <time>2022-10-29T09:05:16Z</time>
      </trkpt>
      <trkpt lat="43.3379560" lon="-1.8618780">
        <ele>229.4</ele>
        <time>2022-10-29T09:05:17Z</time>
      </trkpt>
      <trkpt lat="43.3379470" lon="-1.8618310">
        <ele>229.4</ele>
        <time>2022-10-29T09:05:18Z</time>
      </trkpt>
      <trkpt lat="43.3379400" lon="-1.8617910">
        <ele>229.4</ele>
        <time>2022-10-29T09:05:19Z</time>
      </trkpt>
      <trkpt lat="43.3379320" lon="-1.8617540">
        <ele>229.6</ele>
        <time>2022-10-29T09:05:20Z</time>
      </trkpt>
      <trkpt lat="43.3379200" lon="-1.8617130">
        <ele>229.4</ele>
        <time>2022-10-29T09:05:21Z</time>
      </trkpt>
      <trkpt lat="43.3379070" lon="-1.8616630">
        <ele>229.0</ele>
        <time>2022-10-29T09:05:22Z</time>
      </trkpt>
      <trkpt lat="43.3378870" lon="-1.8616060">
        <ele>229.0</ele>
        <time>2022-10-29T09:05:23Z</time>
      </trkpt>
      <trkpt lat="43.3378620" lon="-1.8615390">
        <ele>228.4</ele>
        <time>2022-10-29T09:05:24Z</time>
      </trkpt>
      <trkpt lat="43.3378390" lon="-1.8614790">
        <ele>227.6</ele>
        <time>2022-10-29T09:05:25Z</time>
      </trkpt>
      <trkpt lat="43.3378130" lon="-1.8614160">
        <ele>227.4</ele>
        <time>2022-10-29T09:05:26Z</time>
      </trkpt>
      <trkpt lat="43.3377970" lon="-1.8613510">
        <ele>227.0</ele>
        <time>2022-10-29T09:05:27Z</time>
      </trkpt>
      <trkpt lat="43.3377620" lon="-1.8612230">
        <ele>226.8</ele>
        <time>2022-10-29T09:05:29Z</time>
      </trkpt>
      <trkpt lat="43.3377600" lon="-1.8611560">
        <ele>226.6</ele>
        <time>2022-10-29T09:05:30Z</time>
      </trkpt>
      <trkpt lat="43.3377580" lon="-1.8610860">
        <ele>226.4</ele>
        <time>2022-10-29T09:05:31Z</time>
      </trkpt>
      <trkpt lat="43.3377770" lon="-1.8609400">
        <ele>226.0</ele>
        <time>2022-10-29T09:05:33Z</time>
      </trkpt>
      <trkpt lat="43.3378000" lon="-1.8608760">
        <ele>225.8</ele>
        <time>2022-10-29T09:05:34Z</time>
      </trkpt>
      <trkpt lat="43.3378160" lon="-1.8607900">
        <ele>225.4</ele>
        <time>2022-10-29T09:05:35Z</time>
      </trkpt>
      <trkpt lat="43.3378370" lon="-1.8607050">
        <ele>224.8</ele>
        <time>2022-10-29T09:05:36Z</time>
      </trkpt>
      <trkpt lat="43.3379070" lon="-1.8604430">
        <ele>223.6</ele>
        <time>2022-10-29T09:05:39Z</time>
      </trkpt>
      <trkpt lat="43.3379530" lon="-1.8603620">
        <ele>223.0</ele>
        <time>2022-10-29T09:05:40Z</time>
      </trkpt>
      <trkpt lat="43.3379820" lon="-1.8603100">
        <ele>222.6</ele>
        <time>2022-10-29T09:05:41Z</time>
      </trkpt>
      <trkpt lat="43.3380190" lon="-1.8602640">
        <ele>222.2</ele>
        <time>2022-10-29T09:05:42Z</time>
      </trkpt>
      <trkpt lat="43.3380540" lon="-1.8602220">
        <ele>222.0</ele>
        <time>2022-10-29T09:05:43Z</time>
      </trkpt>
      <trkpt lat="43.3380930" lon="-1.8601790">
        <ele>221.8</ele>
        <time>2022-10-29T09:05:44Z</time>
      </trkpt>
      <trkpt lat="43.3381400" lon="-1.8601250">
        <ele>221.6</ele>
        <time>2022-10-29T09:05:45Z</time>
      </trkpt>
      <trkpt lat="43.3382180" lon="-1.8600050">
        <ele>221.2</ele>
        <time>2022-10-29T09:05:47Z</time>
      </trkpt>
      <trkpt lat="43.3382590" lon="-1.8598740">
        <ele>220.6</ele>
        <time>2022-10-29T09:05:49Z</time>
      </trkpt>
      <trkpt lat="43.3382670" lon="-1.8598000">
        <ele>220.4</ele>
        <time>2022-10-29T09:05:50Z</time>
      </trkpt>
      <trkpt lat="43.3382680" lon="-1.8597250">
        <ele>220.2</ele>
        <time>2022-10-29T09:05:51Z</time>
      </trkpt>
      <trkpt lat="43.3382660" lon="-1.8596410">
        <ele>220.2</ele>
        <time>2022-10-29T09:05:52Z</time>
      </trkpt>
      <trkpt lat="43.3382670" lon="-1.8595830">
        <ele>219.8</ele>
        <time>2022-10-29T09:05:53Z</time>
      </trkpt>
      <trkpt lat="43.3382600" lon="-1.8595270">
        <ele>219.4</ele>
        <time>2022-10-29T09:05:54Z</time>
      </trkpt>
      <trkpt lat="43.3382500" lon="-1.8594650">
        <ele>219.2</ele>
        <time>2022-10-29T09:05:55Z</time>
      </trkpt>
      <trkpt lat="43.3382270" lon="-1.8593870">
        <ele>218.8</ele>
        <time>2022-10-29T09:05:56Z</time>
      </trkpt>
      <trkpt lat="43.3382010" lon="-1.8593070">
        <ele>218.4</ele>
        <time>2022-10-29T09:05:57Z</time>
      </trkpt>
      <trkpt lat="43.3381630" lon="-1.8592460">
        <ele>217.8</ele>
        <time>2022-10-29T09:05:58Z</time>
      </trkpt>
      <trkpt lat="43.3381220" lon="-1.8591900">
        <ele>217.6</ele>
        <time>2022-10-29T09:05:59Z</time>
      </trkpt>
      <trkpt lat="43.3380880" lon="-1.8591410">
        <ele>217.0</ele>
        <time>2022-10-29T09:06:00Z</time>
      </trkpt>
      <trkpt lat="43.3379960" lon="-1.8590490">
        <ele>216.4</ele>
        <time>2022-10-29T09:06:02Z</time>
      </trkpt>
      <trkpt lat="43.3379510" lon="-1.8590000">
        <ele>216.4</ele>
        <time>2022-10-29T09:06:03Z</time>
      </trkpt>
      <trkpt lat="43.3379050" lon="-1.8589480">
        <ele>216.0</ele>
        <time>2022-10-29T09:06:04Z</time>
      </trkpt>
      <trkpt lat="43.3378120" lon="-1.8588470">
        <ele>215.6</ele>
        <time>2022-10-29T09:06:06Z</time>
      </trkpt>
      <trkpt lat="43.3377730" lon="-1.8587870">
        <ele>215.2</ele>
        <time>2022-10-29T09:06:07Z</time>
      </trkpt>
      <trkpt lat="43.3377430" lon="-1.8587280">
        <ele>215.0</ele>
        <time>2022-10-29T09:06:08Z</time>
      </trkpt>
      <trkpt lat="43.3377020" lon="-1.8585910">
        <ele>214.6</ele>
        <time>2022-10-29T09:06:10Z</time>
      </trkpt>
      <trkpt lat="43.3376910" lon="-1.8585210">
        <ele>214.4</ele>
        <time>2022-10-29T09:06:11Z</time>
      </trkpt>
      <trkpt lat="43.3377010" lon="-1.8584640">
        <ele>214.4</ele>
        <time>2022-10-29T09:06:12Z</time>
      </trkpt>
      <trkpt lat="43.3377160" lon="-1.8583960">
        <ele>214.0</ele>
        <time>2022-10-29T09:06:13Z</time>
      </trkpt>
      <trkpt lat="43.3377270" lon="-1.8583390">
        <ele>214.0</ele>
        <time>2022-10-29T09:06:14Z</time>
      </trkpt>
      <trkpt lat="43.3377540" lon="-1.8582890">
        <ele>213.8</ele>
        <time>2022-10-29T09:06:15Z</time>
      </trkpt>
      <trkpt lat="43.3377960" lon="-1.8582440">
        <ele>213.8</ele>
        <time>2022-10-29T09:06:16Z</time>
      </trkpt>
      <trkpt lat="43.3378660" lon="-1.8581980">
        <ele>213.8</ele>
        <time>2022-10-29T09:06:17Z</time>
      </trkpt>
      <trkpt lat="43.3379350" lon="-1.8581380">
        <ele>213.0</ele>
        <time>2022-10-29T09:06:18Z</time>
      </trkpt>
      <trkpt lat="43.3379840" lon="-1.8580710">
        <ele>212.6</ele>
        <time>2022-10-29T09:06:19Z</time>
      </trkpt>
      <trkpt lat="43.3380300" lon="-1.8580320">
        <ele>212.2</ele>
        <time>2022-10-29T09:06:20Z</time>
      </trkpt>
      <trkpt lat="43.3380820" lon="-1.8579890">
        <ele>212.0</ele>
        <time>2022-10-29T09:06:21Z</time>
      </trkpt>
      <trkpt lat="43.3381370" lon="-1.8579460">
        <ele>211.6</ele>
        <time>2022-10-29T09:06:22Z</time>
      </trkpt>
      <trkpt lat="43.3381670" lon="-1.8578830">
        <ele>211.4</ele>
        <time>2022-10-29T09:06:23Z</time>
      </trkpt>
      <trkpt lat="43.3382130" lon="-1.8577490">
        <ele>211.0</ele>
        <time>2022-10-29T09:06:25Z</time>
      </trkpt>
      <trkpt lat="43.3382230" lon="-1.8577030">
        <ele>210.8</ele>
        <time>2022-10-29T09:06:26Z</time>
      </trkpt>
      <trkpt lat="43.3382090" lon="-1.8576530">
        <ele>210.4</ele>
        <time>2022-10-29T09:06:27Z</time>
      </trkpt>
      <trkpt lat="43.3381860" lon="-1.8575850">
        <ele>210.2</ele>
        <time>2022-10-29T09:06:28Z</time>
      </trkpt>
      <trkpt lat="43.3381580" lon="-1.8575110">
        <ele>210.0</ele>
        <time>2022-10-29T09:06:29Z</time>
      </trkpt>
      <trkpt lat="43.3381290" lon="-1.8574070">
        <ele>209.8</ele>
        <time>2022-10-29T09:06:30Z</time>
      </trkpt>
      <trkpt lat="43.3380920" lon="-1.8572720">
        <ele>209.6</ele>
        <time>2022-10-29T09:06:31Z</time>
      </trkpt>
      <trkpt lat="43.3379720" lon="-1.8570900">
        <ele>208.8</ele>
        <time>2022-10-29T09:06:33Z</time>
      </trkpt>
      <trkpt lat="43.3378950" lon="-1.8569530">
        <ele>208.2</ele>
        <time>2022-10-29T09:06:35Z</time>
      </trkpt>
      <trkpt lat="43.3378540" lon="-1.8568430">
        <ele>207.4</ele>
        <time>2022-10-29T09:06:36Z</time>
      </trkpt>
      <trkpt lat="43.3378050" lon="-1.8567650">
        <ele>207.2</ele>
        <time>2022-10-29T09:06:37Z</time>
      </trkpt>
      <trkpt lat="43.3377480" lon="-1.8566910">
        <ele>206.6</ele>
        <time>2022-10-29T09:06:38Z</time>
      </trkpt>
      <trkpt lat="43.3377050" lon="-1.8566420">
        <ele>206.2</ele>
        <time>2022-10-29T09:06:39Z</time>
      </trkpt>
      <trkpt lat="43.3376210" lon="-1.8565340">
        <ele>205.6</ele>
        <time>2022-10-29T09:06:41Z</time>
      </trkpt>
      <trkpt lat="43.3375920" lon="-1.8564830">
        <ele>204.8</ele>
        <time>2022-10-29T09:06:42Z</time>
      </trkpt>
      <trkpt lat="43.3375720" lon="-1.8564160">
        <ele>204.4</ele>
        <time>2022-10-29T09:06:43Z</time>
      </trkpt>
      <trkpt lat="43.3375530" lon="-1.8563360">
        <ele>202.8</ele>
        <time>2022-10-29T09:06:44Z</time>
      </trkpt>
      <trkpt lat="43.3375400" lon="-1.8562570">
        <ele>202.2</ele>
        <time>2022-10-29T09:06:45Z</time>
      </trkpt>
      <trkpt lat="43.3375370" lon="-1.8561780">
        <ele>202.0</ele>
        <time>2022-10-29T09:06:46Z</time>
      </trkpt>
      <trkpt lat="43.3375470" lon="-1.8561060">
        <ele>201.8</ele>
        <time>2022-10-29T09:06:47Z</time>
      </trkpt>
      <trkpt lat="43.3375690" lon="-1.8560400">
        <ele>201.6</ele>
        <time>2022-10-29T09:06:48Z</time>
      </trkpt>
      <trkpt lat="43.3375990" lon="-1.8559830">
        <ele>201.4</ele>
        <time>2022-10-29T09:06:49Z</time>
      </trkpt>
      <trkpt lat="43.3376360" lon="-1.8559220">
        <ele>201.4</ele>
        <time>2022-10-29T09:06:50Z</time>
      </trkpt>
      <trkpt lat="43.3376700" lon="-1.8558710">
        <ele>201.2</ele>
        <time>2022-10-29T09:06:51Z</time>
      </trkpt>
      <trkpt lat="43.3377040" lon="-1.8558100">
        <ele>201.2</ele>
        <time>2022-10-29T09:06:52Z</time>
      </trkpt>
      <trkpt lat="43.3377760" lon="-1.8556590">
        <ele>200.4</ele>
        <time>2022-10-29T09:06:55Z</time>
      </trkpt>
      <trkpt lat="43.3377980" lon="-1.8556060">
        <ele>200.0</ele>
        <time>2022-10-29T09:06:56Z</time>
      </trkpt>
      <trkpt lat="43.3378190" lon="-1.8555450">
        <ele>199.8</ele>
        <time>2022-10-29T09:06:57Z</time>
      </trkpt>
      <trkpt lat="43.3378720" lon="-1.8553880">
        <ele>199.2</ele>
        <time>2022-10-29T09:06:59Z</time>
      </trkpt>
      <trkpt lat="43.3378960" lon="-1.8552940">
        <ele>198.8</ele>
        <time>2022-10-29T09:07:00Z</time>
      </trkpt>
      <trkpt lat="43.3379250" lon="-1.8551240">
        <ele>198.8</ele>
        <time>2022-10-29T09:07:02Z</time>
      </trkpt>
      <trkpt lat="43.3379270" lon="-1.8550490">
        <ele>198.8</ele>
        <time>2022-10-29T09:07:03Z</time>
      </trkpt>
      <trkpt lat="43.3379260" lon="-1.8549740">
        <ele>199.0</ele>
        <time>2022-10-29T09:07:04Z</time>
      </trkpt>
      <trkpt lat="43.3379250" lon="-1.8549190">
        <ele>199.2</ele>
        <time>2022-10-29T09:07:05Z</time>
      </trkpt>
      <trkpt lat="43.3379280" lon="-1.8548530">
        <ele>199.0</ele>
        <time>2022-10-29T09:07:06Z</time>
      </trkpt>
      <trkpt lat="43.3379310" lon="-1.8547650">
        <ele>198.8</ele>
        <time>2022-10-29T09:07:07Z</time>
      </trkpt>
      <trkpt lat="43.3379360" lon="-1.8546860">
        <ele>198.6</ele>
        <time>2022-10-29T09:07:08Z</time>
      </trkpt>
      <trkpt lat="43.3379470" lon="-1.8546100">
        <ele>198.6</ele>
        <time>2022-10-29T09:07:09Z</time>
      </trkpt>
      <trkpt lat="43.3379560" lon="-1.8545350">
        <ele>198.4</ele>
        <time>2022-10-29T09:07:10Z</time>
      </trkpt>
      <trkpt lat="43.3379680" lon="-1.8544580">
        <ele>198.4</ele>
        <time>2022-10-29T09:07:11Z</time>
      </trkpt>
      <trkpt lat="43.3379820" lon="-1.8543910">
        <ele>198.0</ele>
        <time>2022-10-29T09:07:12Z</time>
      </trkpt>
      <trkpt lat="43.3379880" lon="-1.8543230">
        <ele>196.6</ele>
        <time>2022-10-29T09:07:13Z</time>
      </trkpt>
      <trkpt lat="43.3380000" lon="-1.8542730">
        <ele>195.6</ele>
        <time>2022-10-29T09:07:14Z</time>
      </trkpt>
      <trkpt lat="43.3380050" lon="-1.8542160">
        <ele>194.2</ele>
        <time>2022-10-29T09:07:15Z</time>
      </trkpt>
      <trkpt lat="43.3380200" lon="-1.8541680">
        <ele>193.2</ele>
        <time>2022-10-29T09:07:16Z</time>
      </trkpt>
      <trkpt lat="43.3380360" lon="-1.8541310">
        <ele>192.8</ele>
        <time>2022-10-29T09:07:17Z</time>
      </trkpt>
      <trkpt lat="43.3380540" lon="-1.8541080">
        <ele>192.2</ele>
        <time>2022-10-29T09:07:18Z</time>
      </trkpt>
      <trkpt lat="43.3380750" lon="-1.8540990">
        <ele>191.4</ele>
        <time>2022-10-29T09:07:19Z</time>
      </trkpt>
      <trkpt lat="43.3381130" lon="-1.8540950">
        <ele>190.8</ele>
        <time>2022-10-29T09:07:20Z</time>
      </trkpt>
      <trkpt lat="43.3381590" lon="-1.8540810">
        <ele>190.4</ele>
        <time>2022-10-29T09:07:21Z</time>
      </trkpt>
      <trkpt lat="43.3382040" lon="-1.8540580">
        <ele>189.6</ele>
        <time>2022-10-29T09:07:22Z</time>
      </trkpt>
      <trkpt lat="43.3382410" lon="-1.8540010">
        <ele>189.0</ele>
        <time>2022-10-29T09:07:23Z</time>
      </trkpt>
      <trkpt lat="43.3382740" lon="-1.8539360">
        <ele>188.2</ele>
        <time>2022-10-29T09:07:24Z</time>
      </trkpt>
      <trkpt lat="43.3382970" lon="-1.8538970">
        <ele>188.0</ele>
        <time>2022-10-29T09:07:25Z</time>
      </trkpt>
      <trkpt lat="43.3383290" lon="-1.8538600">
        <ele>187.6</ele>
        <time>2022-10-29T09:07:26Z</time>
      </trkpt>
      <trkpt lat="43.3383440" lon="-1.8537970">
        <ele>187.0</ele>
        <time>2022-10-29T09:07:27Z</time>
      </trkpt>
      <trkpt lat="43.3383610" lon="-1.8537510">
        <ele>186.6</ele>
        <time>2022-10-29T09:07:28Z</time>
      </trkpt>
      <trkpt lat="43.3383860" lon="-1.8537030">
        <ele>186.0</ele>
        <time>2022-10-29T09:07:29Z</time>
      </trkpt>
      <trkpt lat="43.3384190" lon="-1.8535370">
        <ele>185.2</ele>
        <time>2022-10-29T09:07:31Z</time>
      </trkpt>
      <trkpt lat="43.3384460" lon="-1.8534970">
        <ele>185.0</ele>
        <time>2022-10-29T09:07:32Z</time>
      </trkpt>
      <trkpt lat="43.3384630" lon="-1.8534320">
        <ele>184.8</ele>
        <time>2022-10-29T09:07:33Z</time>
      </trkpt>
      <trkpt lat="43.3384760" lon="-1.8533760">
        <ele>184.6</ele>
        <time>2022-10-29T09:07:34Z</time>
      </trkpt>
      <trkpt lat="43.3384870" lon="-1.8533320">
        <ele>184.4</ele>
        <time>2022-10-29T09:07:35Z</time>
      </trkpt>
      <trkpt lat="43.3384850" lon="-1.8532510">
        <ele>183.4</ele>
        <time>2022-10-29T09:07:36Z</time>
      </trkpt>
      <trkpt lat="43.3384780" lon="-1.8531660">
        <ele>183.2</ele>
        <time>2022-10-29T09:07:37Z</time>
      </trkpt>
      <trkpt lat="43.3384650" lon="-1.8530920">
        <ele>181.6</ele>
        <time>2022-10-29T09:07:38Z</time>
      </trkpt>
      <trkpt lat="43.3384330" lon="-1.8529580">
        <ele>180.4</ele>
        <time>2022-10-29T09:07:40Z</time>
      </trkpt>
      <trkpt lat="43.3384060" lon="-1.8528820">
        <ele>180.2</ele>
        <time>2022-10-29T09:07:41Z</time>
      </trkpt>
      <trkpt lat="43.3383820" lon="-1.8527920">
        <ele>179.4</ele>
        <time>2022-10-29T09:07:42Z</time>
      </trkpt>
      <trkpt lat="43.3383510" lon="-1.8527090">
        <ele>179.2</ele>
        <time>2022-10-29T09:07:43Z</time>
      </trkpt>
      <trkpt lat="43.3383280" lon="-1.8526300">
        <ele>178.4</ele>
        <time>2022-10-29T09:07:44Z</time>
      </trkpt>
      <trkpt lat="43.3382980" lon="-1.8525550">
        <ele>178.2</ele>
        <time>2022-10-29T09:07:45Z</time>
      </trkpt>
      <trkpt lat="43.3382150" lon="-1.8523890">
        <ele>176.6</ele>
        <time>2022-10-29T09:07:47Z</time>
      </trkpt>
      <trkpt lat="43.3381190" lon="-1.8521920">
        <ele>174.8</ele>
        <time>2022-10-29T09:07:49Z</time>
      </trkpt>
      <trkpt lat="43.3380690" lon="-1.8520930">
        <ele>173.8</ele>
        <time>2022-10-29T09:07:50Z</time>
      </trkpt>
      <trkpt lat="43.3380460" lon="-1.8520060">
        <ele>172.0</ele>
        <time>2022-10-29T09:07:51Z</time>
      </trkpt>
      <trkpt lat="43.3380340" lon="-1.8519180">
        <ele>171.4</ele>
        <time>2022-10-29T09:07:52Z</time>
      </trkpt>
      <trkpt lat="43.3380160" lon="-1.8518060">
        <ele>170.6</ele>
        <time>2022-10-29T09:07:53Z</time>
      </trkpt>
      <trkpt lat="43.3380040" lon="-1.8516910">
        <ele>170.4</ele>
        <time>2022-10-29T09:07:54Z</time>
      </trkpt>
      <trkpt lat="43.3380130" lon="-1.8514730">
        <ele>169.2</ele>
        <time>2022-10-29T09:07:56Z</time>
      </trkpt>
      <trkpt lat="43.3380630" lon="-1.8511600">
        <ele>167.8</ele>
        <time>2022-10-29T09:07:59Z</time>
      </trkpt>
      <trkpt lat="43.3380840" lon="-1.8510630">
        <ele>167.0</ele>
        <time>2022-10-29T09:08:00Z</time>
      </trkpt>
      <trkpt lat="43.3381280" lon="-1.8510080">
        <ele>166.6</ele>
        <time>2022-10-29T09:08:01Z</time>
      </trkpt>
      <trkpt lat="43.3381640" lon="-1.8509560">
        <ele>166.0</ele>
        <time>2022-10-29T09:08:02Z</time>
      </trkpt>
      <trkpt lat="43.3382020" lon="-1.8508950">
        <ele>165.8</ele>
        <time>2022-10-29T09:08:03Z</time>
      </trkpt>
      <trkpt lat="43.3382390" lon="-1.8508240">
        <ele>165.0</ele>
        <time>2022-10-29T09:08:04Z</time>
      </trkpt>
      <trkpt lat="43.3382720" lon="-1.8507330">
        <ele>164.6</ele>
        <time>2022-10-29T09:08:05Z</time>
      </trkpt>
      <trkpt lat="43.3383160" lon="-1.8506390">
        <ele>164.2</ele>
        <time>2022-10-29T09:08:06Z</time>
      </trkpt>
      <trkpt lat="43.3383590" lon="-1.8505610">
        <ele>164.0</ele>
        <time>2022-10-29T09:08:07Z</time>
      </trkpt>
      <trkpt lat="43.3383990" lon="-1.8504760">
        <ele>163.6</ele>
        <time>2022-10-29T09:08:08Z</time>
      </trkpt>
      <trkpt lat="43.3384930" lon="-1.8503010">
        <ele>162.8</ele>
        <time>2022-10-29T09:08:10Z</time>
      </trkpt>
      <trkpt lat="43.3385670" lon="-1.8502240">
        <ele>162.6</ele>
        <time>2022-10-29T09:08:11Z</time>
      </trkpt>
      <trkpt lat="43.3386450" lon="-1.8501540">
        <ele>162.4</ele>
        <time>2022-10-29T09:08:12Z</time>
      </trkpt>
      <trkpt lat="43.3387650" lon="-1.8499860">
        <ele>162.0</ele>
        <time>2022-10-29T09:08:14Z</time>
      </trkpt>
      <trkpt lat="43.3388070" lon="-1.8498850">
        <ele>161.2</ele>
        <time>2022-10-29T09:08:15Z</time>
      </trkpt>
      <trkpt lat="43.3388660" lon="-1.8497700">
        <ele>160.4</ele>
        <time>2022-10-29T09:08:17Z</time>
      </trkpt>
      <trkpt lat="43.3388940" lon="-1.8497400">
        <ele>160.2</ele>
        <time>2022-10-29T09:08:18Z</time>
      </trkpt>
      <trkpt lat="43.3389220" lon="-1.8497090">
        <ele>160.0</ele>
        <time>2022-10-29T09:08:19Z</time>
      </trkpt>
      <trkpt lat="43.3389560" lon="-1.8496870">
        <ele>159.4</ele>
        <time>2022-10-29T09:08:20Z</time>
      </trkpt>
      <trkpt lat="43.3389970" lon="-1.8496660">
        <ele>159.4</ele>
        <time>2022-10-29T09:08:21Z</time>
      </trkpt>
      <trkpt lat="43.3390450" lon="-1.8496400">
        <ele>158.8</ele>
        <time>2022-10-29T09:08:22Z</time>
      </trkpt>
      <trkpt lat="43.3391360" lon="-1.8496300">
        <ele>158.2</ele>
        <time>2022-10-29T09:08:23Z</time>
      </trkpt>
      <trkpt lat="43.3391900" lon="-1.8495950">
        <ele>157.6</ele>
        <time>2022-10-29T09:08:24Z</time>
      </trkpt>
      <trkpt lat="43.3393000" lon="-1.8495040">
        <ele>157.2</ele>
        <time>2022-10-29T09:08:26Z</time>
      </trkpt>
      <trkpt lat="43.3394030" lon="-1.8494550">
        <ele>157.2</ele>
        <time>2022-10-29T09:08:27Z</time>
      </trkpt>
      <trkpt lat="43.3394960" lon="-1.8493830">
        <ele>156.6</ele>
        <time>2022-10-29T09:08:29Z</time>
      </trkpt>
      <trkpt lat="43.3395350" lon="-1.8493800">
        <ele>156.6</ele>
        <time>2022-10-29T09:08:30Z</time>
      </trkpt>
      <trkpt lat="43.3395660" lon="-1.8493740">
        <ele>156.4</ele>
        <time>2022-10-29T09:08:31Z</time>
      </trkpt>
      <trkpt lat="43.3396120" lon="-1.8493730">
        <ele>156.4</ele>
        <time>2022-10-29T09:08:32Z</time>
      </trkpt>
      <trkpt lat="43.3396440" lon="-1.8493740">
        <ele>156.4</ele>
        <time>2022-10-29T09:08:33Z</time>
      </trkpt>
      <trkpt lat="43.3397130" lon="-1.8493800">
        <ele>156.4</ele>
        <time>2022-10-29T09:08:34Z</time>
      </trkpt>
      <trkpt lat="43.3397530" lon="-1.8493870">
        <ele>156.4</ele>
        <time>2022-10-29T09:08:35Z</time>
      </trkpt>
      <trkpt lat="43.3397660" lon="-1.8493920">
        <ele>156.4</ele>
        <time>2022-10-29T09:08:36Z</time>
      </trkpt>
      <trkpt lat="43.3397900" lon="-1.8493970">
        <ele>156.4</ele>
        <time>2022-10-29T09:08:37Z</time>
      </trkpt>
      <trkpt lat="43.3398030" lon="-1.8494080">
        <ele>156.4</ele>
        <time>2022-10-29T09:08:38Z</time>
      </trkpt>
      <trkpt lat="43.3398250" lon="-1.8493800">
        <ele>156.4</ele>
        <time>2022-10-29T09:08:39Z</time>
      </trkpt>
      <trkpt lat="43.3398780" lon="-1.8493740">
        <ele>156.4</ele>
        <time>2022-10-29T09:08:40Z</time>
      </trkpt>
      <trkpt lat="43.3399020" lon="-1.8493820">
        <ele>156.4</ele>
        <time>2022-10-29T09:08:41Z</time>
      </trkpt>
      <trkpt lat="43.3399280" lon="-1.8493650">
        <ele>156.4</ele>
        <time>2022-10-29T09:08:43Z</time>
      </trkpt>
      <trkpt lat="43.3399410" lon="-1.8493650">
        <ele>156.8</ele>
        <time>2022-10-29T09:08:44Z</time>
      </trkpt>
      <trkpt lat="43.3399680" lon="-1.8493600">
        <ele>157.0</ele>
        <time>2022-10-29T09:08:45Z</time>
      </trkpt>
      <trkpt lat="43.3399920" lon="-1.8493490">
        <ele>157.2</ele>
        <time>2022-10-29T09:08:46Z</time>
      </trkpt>
      <trkpt lat="43.3400140" lon="-1.8493480">
        <ele>157.4</ele>
        <time>2022-10-29T09:08:47Z</time>
      </trkpt>
      <trkpt lat="43.3400310" lon="-1.8493520">
        <ele>157.4</ele>
        <time>2022-10-29T09:08:48Z</time>
      </trkpt>
      <trkpt lat="43.3400470" lon="-1.8493490">
        <ele>157.6</ele>
        <time>2022-10-29T09:08:49Z</time>
      </trkpt>
      <trkpt lat="43.3400590" lon="-1.8493480">
        <ele>157.6</ele>
        <time>2022-10-29T09:08:50Z</time>
      </trkpt>
      <trkpt lat="43.3400770" lon="-1.8493480">
        <ele>158.0</ele>
        <time>2022-10-29T09:08:51Z</time>
      </trkpt>
      <trkpt lat="43.3400890" lon="-1.8493510">
        <ele>158.2</ele>
        <time>2022-10-29T09:08:52Z</time>
      </trkpt>
      <trkpt lat="43.3401050" lon="-1.8493510">
        <ele>158.4</ele>
        <time>2022-10-29T09:08:53Z</time>
      </trkpt>
      <trkpt lat="43.3401400" lon="-1.8493640">
        <ele>158.8</ele>
        <time>2022-10-29T09:08:55Z</time>
      </trkpt>
      <trkpt lat="43.3401590" lon="-1.8493640">
        <ele>158.8</ele>
        <time>2022-10-29T09:08:56Z</time>
      </trkpt>
      <trkpt lat="43.3401720" lon="-1.8493610">
        <ele>159.0</ele>
        <time>2022-10-29T09:08:57Z</time>
      </trkpt>
      <trkpt lat="43.3401870" lon="-1.8493550">
        <ele>159.2</ele>
        <time>2022-10-29T09:08:58Z</time>
      </trkpt>
      <trkpt lat="43.3402050" lon="-1.8493510">
        <ele>159.4</ele>
        <time>2022-10-29T09:08:59Z</time>
      </trkpt>
      <trkpt lat="43.3402240" lon="-1.8493510">
        <ele>159.6</ele>
        <time>2022-10-29T09:09:00Z</time>
      </trkpt>
      <trkpt lat="43.3402400" lon="-1.8493520">
        <ele>159.8</ele>
        <time>2022-10-29T09:09:01Z</time>
      </trkpt>
      <trkpt lat="43.3402550" lon="-1.8493540">
        <ele>160.0</ele>
        <time>2022-10-29T09:09:02Z</time>
      </trkpt>
      <trkpt lat="43.3402730" lon="-1.8493670">
        <ele>160.2</ele>
        <time>2022-10-29T09:09:04Z</time>
      </trkpt>
      <trkpt lat="43.3402830" lon="-1.8493690">
        <ele>160.4</ele>
        <time>2022-10-29T09:09:05Z</time>
      </trkpt>
      <trkpt lat="43.3402950" lon="-1.8493690">
        <ele>160.4</ele>
        <time>2022-10-29T09:09:06Z</time>
      </trkpt>
      <trkpt lat="43.3403030" lon="-1.8493680">
        <ele>160.6</ele>
        <time>2022-10-29T09:09:07Z</time>
      </trkpt>
      <trkpt lat="43.3403110" lon="-1.8493610">
        <ele>160.8</ele>
        <time>2022-10-29T09:09:08Z</time>
      </trkpt>
      <trkpt lat="43.3403190" lon="-1.8493490">
        <ele>160.8</ele>
        <time>2022-10-29T09:09:09Z</time>
      </trkpt>
      <trkpt lat="43.3403270" lon="-1.8493330">
        <ele>160.8</ele>
        <time>2022-10-29T09:09:10Z</time>
      </trkpt>
      <trkpt lat="43.3403300" lon="-1.8493170">
        <ele>160.8</ele>
        <time>2022-10-29T09:09:11Z</time>
      </trkpt>
      <trkpt lat="43.3403330" lon="-1.8493000">
        <ele>161.0</ele>
        <time>2022-10-29T09:09:12Z</time>
      </trkpt>
      <trkpt lat="43.3403400" lon="-1.8492810">
        <ele>161.0</ele>
        <time>2022-10-29T09:09:13Z</time>
      </trkpt>
      <trkpt lat="43.3403420" lon="-1.8492620">
        <ele>161.2</ele>
        <time>2022-10-29T09:09:14Z</time>
      </trkpt>
      <trkpt lat="43.3403430" lon="-1.8492380">
        <ele>161.4</ele>
        <time>2022-10-29T09:09:15Z</time>
      </trkpt>
      <trkpt lat="43.3403450" lon="-1.8492190">
        <ele>161.6</ele>
        <time>2022-10-29T09:09:16Z</time>
      </trkpt>
      <trkpt lat="43.3403480" lon="-1.8491990">
        <ele>161.6</ele>
        <time>2022-10-29T09:09:17Z</time>
      </trkpt>
      <trkpt lat="43.3403530" lon="-1.8491700">
        <ele>162.0</ele>
        <time>2022-10-29T09:09:18Z</time>
      </trkpt>
      <trkpt lat="43.3403580" lon="-1.8491460">
        <ele>162.0</ele>
        <time>2022-10-29T09:09:19Z</time>
      </trkpt>
      <trkpt lat="43.3403680" lon="-1.8491300">
        <ele>162.2</ele>
        <time>2022-10-29T09:09:20Z</time>
      </trkpt>
      <trkpt lat="43.3403720" lon="-1.8491070">
        <ele>162.4</ele>
        <time>2022-10-29T09:09:21Z</time>
      </trkpt>
      <trkpt lat="43.3403720" lon="-1.8490650">
        <ele>162.4</ele>
        <time>2022-10-29T09:09:22Z</time>
      </trkpt>
      <trkpt lat="43.3403740" lon="-1.8490430">
        <ele>162.6</ele>
        <time>2022-10-29T09:09:23Z</time>
      </trkpt>
      <trkpt lat="43.3403760" lon="-1.8490250">
        <ele>162.8</ele>
        <time>2022-10-29T09:09:24Z</time>
      </trkpt>
      <trkpt lat="43.3403830" lon="-1.8489920">
        <ele>163.0</ele>
        <time>2022-10-29T09:09:25Z</time>
      </trkpt>
      <trkpt lat="43.3403870" lon="-1.8489660">
        <ele>163.2</ele>
        <time>2022-10-29T09:09:26Z</time>
      </trkpt>
      <trkpt lat="43.3403890" lon="-1.8489310">
        <ele>163.4</ele>
        <time>2022-10-29T09:09:27Z</time>
      </trkpt>
      <trkpt lat="43.3403920" lon="-1.8488930">
        <ele>163.6</ele>
        <time>2022-10-29T09:09:28Z</time>
      </trkpt>
      <trkpt lat="43.3403950" lon="-1.8488710">
        <ele>164.0</ele>
        <time>2022-10-29T09:09:29Z</time>
      </trkpt>
      <trkpt lat="43.3403950" lon="-1.8488480">
        <ele>164.0</ele>
        <time>2022-10-29T09:09:30Z</time>
      </trkpt>
      <trkpt lat="43.3403940" lon="-1.8488040">
        <ele>164.0</ele>
        <time>2022-10-29T09:09:31Z</time>
      </trkpt>
      <trkpt lat="43.3403930" lon="-1.8487640">
        <ele>164.2</ele>
        <time>2022-10-29T09:09:32Z</time>
      </trkpt>
      <trkpt lat="43.3403910" lon="-1.8487350">
        <ele>164.2</ele>
        <time>2022-10-29T09:09:33Z</time>
      </trkpt>
      <trkpt lat="43.3403820" lon="-1.8487010">
        <ele>164.4</ele>
        <time>2022-10-29T09:09:34Z</time>
      </trkpt>
      <trkpt lat="43.3403800" lon="-1.8486670">
        <ele>164.8</ele>
        <time>2022-10-29T09:09:35Z</time>
      </trkpt>
      <trkpt lat="43.3403850" lon="-1.8486290">
        <ele>164.8</ele>
        <time>2022-10-29T09:09:36Z</time>
      </trkpt>
      <trkpt lat="43.3403880" lon="-1.8486030">
        <ele>165.0</ele>
        <time>2022-10-29T09:09:37Z</time>
      </trkpt>
      <trkpt lat="43.3403860" lon="-1.8485800">
        <ele>165.2</ele>
        <time>2022-10-29T09:09:38Z</time>
      </trkpt>
      <trkpt lat="43.3403820" lon="-1.8485300">
        <ele>165.2</ele>
        <time>2022-10-29T09:09:39Z</time>
      </trkpt>
      <trkpt lat="43.3403750" lon="-1.8484760">
        <ele>165.2</ele>
        <time>2022-10-29T09:09:40Z</time>
      </trkpt>
      <trkpt lat="43.3403460" lon="-1.8484050">
        <ele>165.2</ele>
        <time>2022-10-29T09:09:41Z</time>
      </trkpt>
      <trkpt lat="43.3403320" lon="-1.8483710">
        <ele>165.2</ele>
        <time>2022-10-29T09:09:42Z</time>
      </trkpt>
      <trkpt lat="43.3403240" lon="-1.8483460">
        <ele>165.4</ele>
        <time>2022-10-29T09:09:43Z</time>
      </trkpt>
      <trkpt lat="43.3403170" lon="-1.8483070">
        <ele>165.6</ele>
        <time>2022-10-29T09:09:44Z</time>
      </trkpt>
      <trkpt lat="43.3403130" lon="-1.8482760">
        <ele>165.8</ele>
        <time>2022-10-29T09:09:45Z</time>
      </trkpt>
      <trkpt lat="43.3403160" lon="-1.8482220">
        <ele>166.0</ele>
        <time>2022-10-29T09:09:46Z</time>
      </trkpt>
      <trkpt lat="43.3403160" lon="-1.8481810">
        <ele>166.0</ele>
        <time>2022-10-29T09:09:47Z</time>
      </trkpt>
      <trkpt lat="43.3403200" lon="-1.8481490">
        <ele>166.2</ele>
        <time>2022-10-29T09:09:48Z</time>
      </trkpt>
      <trkpt lat="43.3403320" lon="-1.8480980">
        <ele>166.2</ele>
        <time>2022-10-29T09:09:49Z</time>
      </trkpt>
      <trkpt lat="43.3403360" lon="-1.8480450">
        <ele>166.4</ele>
        <time>2022-10-29T09:09:50Z</time>
      </trkpt>
      <trkpt lat="43.3403430" lon="-1.8480140">
        <ele>166.4</ele>
        <time>2022-10-29T09:09:51Z</time>
      </trkpt>
      <trkpt lat="43.3403430" lon="-1.8479890">
        <ele>166.6</ele>
        <time>2022-10-29T09:09:52Z</time>
      </trkpt>
      <trkpt lat="43.3403410" lon="-1.8479600">
        <ele>166.6</ele>
        <time>2022-10-29T09:09:53Z</time>
      </trkpt>
      <trkpt lat="43.3403490" lon="-1.8479320">
        <ele>167.0</ele>
        <time>2022-10-29T09:09:54Z</time>
      </trkpt>
      <trkpt lat="43.3403510" lon="-1.8478960">
        <ele>167.4</ele>
        <time>2022-10-29T09:09:55Z</time>
      </trkpt>
      <trkpt lat="43.3403610" lon="-1.8478830">
        <ele>167.6</ele>
        <time>2022-10-29T09:09:56Z</time>
      </trkpt>
      <trkpt lat="43.3403740" lon="-1.8478680">
        <ele>167.6</ele>
        <time>2022-10-29T09:09:57Z</time>
      </trkpt>
      <trkpt lat="43.3403870" lon="-1.8478550">
        <ele>167.8</ele>
        <time>2022-10-29T09:09:58Z</time>
      </trkpt>
      <trkpt lat="43.3404010" lon="-1.8478420">
        <ele>168.0</ele>
        <time>2022-10-29T09:09:59Z</time>
      </trkpt>
      <trkpt lat="43.3404170" lon="-1.8478260">
        <ele>168.4</ele>
        <time>2022-10-29T09:10:00Z</time>
      </trkpt>
      <trkpt lat="43.3404320" lon="-1.8478100">
        <ele>168.6</ele>
        <time>2022-10-29T09:10:01Z</time>
      </trkpt>
      <trkpt lat="43.3404490" lon="-1.8477960">
        <ele>168.8</ele>
        <time>2022-10-29T09:10:02Z</time>
      </trkpt>
      <trkpt lat="43.3404700" lon="-1.8477830">
        <ele>168.8</ele>
        <time>2022-10-29T09:10:03Z</time>
      </trkpt>
      <trkpt lat="43.3404920" lon="-1.8477760">
        <ele>169.2</ele>
        <time>2022-10-29T09:10:04Z</time>
      </trkpt>
      <trkpt lat="43.3405110" lon="-1.8477590">
        <ele>169.2</ele>
        <time>2022-10-29T09:10:05Z</time>
      </trkpt>
      <trkpt lat="43.3405310" lon="-1.8477380">
        <ele>169.4</ele>
        <time>2022-10-29T09:10:06Z</time>
      </trkpt>
      <trkpt lat="43.3405520" lon="-1.8477230">
        <ele>169.4</ele>
        <time>2022-10-29T09:10:07Z</time>
      </trkpt>
      <trkpt lat="43.3405710" lon="-1.8477080">
        <ele>169.6</ele>
        <time>2022-10-29T09:10:08Z</time>
      </trkpt>
      <trkpt lat="43.3405900" lon="-1.8476990">
        <ele>169.6</ele>
        <time>2022-10-29T09:10:09Z</time>
      </trkpt>
      <trkpt lat="43.3406090" lon="-1.8476910">
        <ele>170.0</ele>
        <time>2022-10-29T09:10:10Z</time>
      </trkpt>
      <trkpt lat="43.3406270" lon="-1.8476810">
        <ele>170.4</ele>
        <time>2022-10-29T09:10:11Z</time>
      </trkpt>
      <trkpt lat="43.3406430" lon="-1.8476660">
        <ele>170.6</ele>
        <time>2022-10-29T09:10:12Z</time>
      </trkpt>
      <trkpt lat="43.3406600" lon="-1.8476510">
        <ele>171.0</ele>
        <time>2022-10-29T09:10:13Z</time>
      </trkpt>
      <trkpt lat="43.3406780" lon="-1.8476350">
        <ele>171.2</ele>
        <time>2022-10-29T09:10:14Z</time>
      </trkpt>
      <trkpt lat="43.3406940" lon="-1.8476240">
        <ele>171.6</ele>
        <time>2022-10-29T09:10:15Z</time>
      </trkpt>
      <trkpt lat="43.3407100" lon="-1.8476080">
        <ele>171.8</ele>
        <time>2022-10-29T09:10:16Z</time>
      </trkpt>
      <trkpt lat="43.3407280" lon="-1.8475850">
        <ele>172.0</ele>
        <time>2022-10-29T09:10:17Z</time>
      </trkpt>
      <trkpt lat="43.3407500" lon="-1.8475480">
        <ele>172.2</ele>
        <time>2022-10-29T09:10:18Z</time>
      </trkpt>
      <trkpt lat="43.3407730" lon="-1.8475370">
        <ele>172.2</ele>
        <time>2022-10-29T09:10:19Z</time>
      </trkpt>
      <trkpt lat="43.3407960" lon="-1.8475310">
        <ele>172.6</ele>
        <time>2022-10-29T09:10:20Z</time>
      </trkpt>
      <trkpt lat="43.3408210" lon="-1.8475250">
        <ele>172.6</ele>
        <time>2022-10-29T09:10:21Z</time>
      </trkpt>
      <trkpt lat="43.3408380" lon="-1.8475090">
        <ele>172.8</ele>
        <time>2022-10-29T09:10:22Z</time>
      </trkpt>
      <trkpt lat="43.3408530" lon="-1.8474990">
        <ele>173.2</ele>
        <time>2022-10-29T09:10:23Z</time>
      </trkpt>
      <trkpt lat="43.3408720" lon="-1.8474920">
        <ele>173.4</ele>
        <time>2022-10-29T09:10:24Z</time>
      </trkpt>
      <trkpt lat="43.3408990" lon="-1.8474870">
        <ele>173.4</ele>
        <time>2022-10-29T09:10:25Z</time>
      </trkpt>
      <trkpt lat="43.3409280" lon="-1.8474770">
        <ele>173.8</ele>
        <time>2022-10-29T09:10:26Z</time>
      </trkpt>
      <trkpt lat="43.3409530" lon="-1.8474690">
        <ele>174.0</ele>
        <time>2022-10-29T09:10:27Z</time>
      </trkpt>
      <trkpt lat="43.3409760" lon="-1.8474560">
        <ele>174.2</ele>
        <time>2022-10-29T09:10:28Z</time>
      </trkpt>
      <trkpt lat="43.3410150" lon="-1.8474250">
        <ele>174.6</ele>
        <time>2022-10-29T09:10:29Z</time>
      </trkpt>
      <trkpt lat="43.3410540" lon="-1.8473990">
        <ele>174.8</ele>
        <time>2022-10-29T09:10:30Z</time>
      </trkpt>
      <trkpt lat="43.3410920" lon="-1.8473880">
        <ele>175.0</ele>
        <time>2022-10-29T09:10:31Z</time>
      </trkpt>
      <trkpt lat="43.3411330" lon="-1.8473780">
        <ele>175.0</ele>
        <time>2022-10-29T09:10:32Z</time>
      </trkpt>
      <trkpt lat="43.3411730" lon="-1.8473670">
        <ele>175.0</ele>
        <time>2022-10-29T09:10:33Z</time>
      </trkpt>
      <trkpt lat="43.3412090" lon="-1.8473510">
        <ele>175.0</ele>
        <time>2022-10-29T09:10:34Z</time>
      </trkpt>
      <trkpt lat="43.3412490" lon="-1.8473470">
        <ele>175.2</ele>
        <time>2022-10-29T09:10:35Z</time>
      </trkpt>
      <trkpt lat="43.3412930" lon="-1.8473370">
        <ele>175.4</ele>
        <time>2022-10-29T09:10:36Z</time>
      </trkpt>
      <trkpt lat="43.3413300" lon="-1.8473320">
        <ele>175.6</ele>
        <time>2022-10-29T09:10:37Z</time>
      </trkpt>
      <trkpt lat="43.3413660" lon="-1.8473450">
        <ele>175.6</ele>
        <time>2022-10-29T09:10:38Z</time>
      </trkpt>
      <trkpt lat="43.3413960" lon="-1.8473620">
        <ele>175.6</ele>
        <time>2022-10-29T09:10:39Z</time>
      </trkpt>
      <trkpt lat="43.3414200" lon="-1.8473740">
        <ele>175.8</ele>
        <time>2022-10-29T09:10:40Z</time>
      </trkpt>
      <trkpt lat="43.3414470" lon="-1.8473790">
        <ele>175.8</ele>
        <time>2022-10-29T09:10:41Z</time>
      </trkpt>
      <trkpt lat="43.3414520" lon="-1.8473800">
        <ele>175.8</ele>
        <time>2022-10-29T09:10:42Z</time>
      </trkpt>
      <trkpt lat="43.3414640" lon="-1.8473690">
        <ele>176.0</ele>
        <time>2022-10-29T09:10:43Z</time>
      </trkpt>
      <trkpt lat="43.3414660" lon="-1.8473690">
        <ele>176.2</ele>
        <time>2022-10-29T09:10:44Z</time>
      </trkpt>
      <trkpt lat="43.3414660" lon="-1.8473690">
        <ele>176.4</ele>
        <time>2022-10-29T09:10:47Z</time>
      </trkpt>
      <trkpt lat="43.3414660" lon="-1.8473690">
        <ele>176.4</ele>
        <time>2022-10-29T09:10:48Z</time>
      </trkpt>
      <trkpt lat="43.3414770" lon="-1.8473690">
        <ele>176.2</ele>
        <time>2022-10-29T09:10:49Z</time>
      </trkpt>
      <trkpt lat="43.3414950" lon="-1.8473680">
        <ele>176.4</ele>
        <time>2022-10-29T09:10:50Z</time>
      </trkpt>
      <trkpt lat="43.3415120" lon="-1.8473750">
        <ele>176.4</ele>
        <time>2022-10-29T09:10:51Z</time>
      </trkpt>
      <trkpt lat="43.3415330" lon="-1.8473830">
        <ele>176.4</ele>
        <time>2022-10-29T09:10:52Z</time>
      </trkpt>
      <trkpt lat="43.3415370" lon="-1.8473880">
        <ele>176.4</ele>
        <time>2022-10-29T09:10:53Z</time>
      </trkpt>
      <trkpt lat="43.3415500" lon="-1.8473910">
        <ele>176.4</ele>
        <time>2022-10-29T09:10:54Z</time>
      </trkpt>
      <trkpt lat="43.3415750" lon="-1.8473900">
        <ele>176.4</ele>
        <time>2022-10-29T09:10:55Z</time>
      </trkpt>
      <trkpt lat="43.3416050" lon="-1.8473830">
        <ele>176.4</ele>
        <time>2022-10-29T09:10:56Z</time>
      </trkpt>
      <trkpt lat="43.3416570" lon="-1.8473960">
        <ele>176.6</ele>
        <time>2022-10-29T09:10:58Z</time>
      </trkpt>
      <trkpt lat="43.3417150" lon="-1.8474460">
        <ele>176.6</ele>
        <time>2022-10-29T09:10:59Z</time>
      </trkpt>
      <trkpt lat="43.3418050" lon="-1.8474800">
        <ele>176.8</ele>
        <time>2022-10-29T09:11:00Z</time>
      </trkpt>
      <trkpt lat="43.3418600" lon="-1.8474910">
        <ele>176.8</ele>
        <time>2022-10-29T09:11:01Z</time>
      </trkpt>
      <trkpt lat="43.3419420" lon="-1.8475000">
        <ele>176.6</ele>
        <time>2022-10-29T09:11:02Z</time>
      </trkpt>
      <trkpt lat="43.3420940" lon="-1.8474800">
        <ele>176.6</ele>
        <time>2022-10-29T09:11:04Z</time>
      </trkpt>
      <trkpt lat="43.3421520" lon="-1.8474360">
        <ele>177.0</ele>
        <time>2022-10-29T09:11:05Z</time>
      </trkpt>
      <trkpt lat="43.3422080" lon="-1.8473770">
        <ele>177.0</ele>
        <time>2022-10-29T09:11:06Z</time>
      </trkpt>
      <trkpt lat="43.3422540" lon="-1.8473300">
        <ele>177.0</ele>
        <time>2022-10-29T09:11:07Z</time>
      </trkpt>
      <trkpt lat="43.3423070" lon="-1.8472930">
        <ele>177.2</ele>
        <time>2022-10-29T09:11:08Z</time>
      </trkpt>
      <trkpt lat="43.3423640" lon="-1.8472640">
        <ele>177.4</ele>
        <time>2022-10-29T09:11:09Z</time>
      </trkpt>
      <trkpt lat="43.3424200" lon="-1.8472460">
        <ele>177.4</ele>
        <time>2022-10-29T09:11:10Z</time>
      </trkpt>
      <trkpt lat="43.3424780" lon="-1.8472470">
        <ele>177.8</ele>
        <time>2022-10-29T09:11:11Z</time>
      </trkpt>
      <trkpt lat="43.3425420" lon="-1.8472620">
        <ele>178.0</ele>
        <time>2022-10-29T09:11:12Z</time>
      </trkpt>
      <trkpt lat="43.3425950" lon="-1.8472650">
        <ele>178.2</ele>
        <time>2022-10-29T09:11:13Z</time>
      </trkpt>
      <trkpt lat="43.3426450" lon="-1.8472520">
        <ele>178.2</ele>
        <time>2022-10-29T09:11:14Z</time>
      </trkpt>
      <trkpt lat="43.3426950" lon="-1.8472440">
        <ele>178.4</ele>
        <time>2022-10-29T09:11:15Z</time>
      </trkpt>
      <trkpt lat="43.3427490" lon="-1.8472240">
        <ele>178.6</ele>
        <time>2022-10-29T09:11:16Z</time>
      </trkpt>
      <trkpt lat="43.3427970" lon="-1.8471880">
        <ele>178.8</ele>
        <time>2022-10-29T09:11:17Z</time>
      </trkpt>
      <trkpt lat="43.3428240" lon="-1.8471470">
        <ele>179.0</ele>
        <time>2022-10-29T09:11:18Z</time>
      </trkpt>
      <trkpt lat="43.3428470" lon="-1.8471120">
        <ele>179.0</ele>
        <time>2022-10-29T09:11:19Z</time>
      </trkpt>
      <trkpt lat="43.3428600" lon="-1.8470760">
        <ele>179.2</ele>
        <time>2022-10-29T09:11:20Z</time>
      </trkpt>
      <trkpt lat="43.3428760" lon="-1.8470540">
        <ele>179.2</ele>
        <time>2022-10-29T09:11:21Z</time>
      </trkpt>
      <trkpt lat="43.3428970" lon="-1.8470480">
        <ele>179.2</ele>
        <time>2022-10-29T09:11:22Z</time>
      </trkpt>
      <trkpt lat="43.3429120" lon="-1.8470370">
        <ele>179.2</ele>
        <time>2022-10-29T09:11:23Z</time>
      </trkpt>
      <trkpt lat="43.3429280" lon="-1.8470150">
        <ele>179.2</ele>
        <time>2022-10-29T09:11:24Z</time>
      </trkpt>
      <trkpt lat="43.3429410" lon="-1.8469830">
        <ele>179.2</ele>
        <time>2022-10-29T09:11:25Z</time>
      </trkpt>
      <trkpt lat="43.3429580" lon="-1.8469490">
        <ele>179.4</ele>
        <time>2022-10-29T09:11:26Z</time>
      </trkpt>
      <trkpt lat="43.3429800" lon="-1.8469140">
        <ele>179.4</ele>
        <time>2022-10-29T09:11:27Z</time>
      </trkpt>
      <trkpt lat="43.3429850" lon="-1.8468790">
        <ele>179.6</ele>
        <time>2022-10-29T09:11:28Z</time>
      </trkpt>
      <trkpt lat="43.3429900" lon="-1.8468470">
        <ele>179.6</ele>
        <time>2022-10-29T09:11:29Z</time>
      </trkpt>
      <trkpt lat="43.3429860" lon="-1.8467940">
        <ele>179.6</ele>
        <time>2022-10-29T09:11:30Z</time>
      </trkpt>
      <trkpt lat="43.3429810" lon="-1.8467580">
        <ele>179.8</ele>
        <time>2022-10-29T09:11:31Z</time>
      </trkpt>
      <trkpt lat="43.3429760" lon="-1.8467170">
        <ele>179.8</ele>
        <time>2022-10-29T09:11:32Z</time>
      </trkpt>
      <trkpt lat="43.3429600" lon="-1.8466730">
        <ele>180.0</ele>
        <time>2022-10-29T09:11:33Z</time>
      </trkpt>
      <trkpt lat="43.3429460" lon="-1.8466510">
        <ele>180.2</ele>
        <time>2022-10-29T09:11:34Z</time>
      </trkpt>
      <trkpt lat="43.3429310" lon="-1.8466280">
        <ele>180.6</ele>
        <time>2022-10-29T09:11:35Z</time>
      </trkpt>
      <trkpt lat="43.3429200" lon="-1.8465890">
        <ele>180.8</ele>
        <time>2022-10-29T09:11:36Z</time>
      </trkpt>
      <trkpt lat="43.3429140" lon="-1.8465630">
        <ele>181.0</ele>
        <time>2022-10-29T09:11:37Z</time>
      </trkpt>
      <trkpt lat="43.3429030" lon="-1.8465470">
        <ele>181.2</ele>
        <time>2022-10-29T09:11:38Z</time>
      </trkpt>
      <trkpt lat="43.3428950" lon="-1.8465290">
        <ele>181.2</ele>
        <time>2022-10-29T09:11:39Z</time>
      </trkpt>
      <trkpt lat="43.3428870" lon="-1.8465110">
        <ele>181.4</ele>
        <time>2022-10-29T09:11:40Z</time>
      </trkpt>
      <trkpt lat="43.3428840" lon="-1.8464940">
        <ele>181.6</ele>
        <time>2022-10-29T09:11:41Z</time>
      </trkpt>
      <trkpt lat="43.3428750" lon="-1.8464820">
        <ele>182.0</ele>
        <time>2022-10-29T09:11:42Z</time>
      </trkpt>
      <trkpt lat="43.3428680" lon="-1.8464770">
        <ele>182.0</ele>
        <time>2022-10-29T09:11:43Z</time>
      </trkpt>
      <trkpt lat="43.3428600" lon="-1.8464640">
        <ele>182.2</ele>
        <time>2022-10-29T09:11:44Z</time>
      </trkpt>
      <trkpt lat="43.3428510" lon="-1.8464370">
        <ele>182.2</ele>
        <time>2022-10-29T09:11:45Z</time>
      </trkpt>
      <trkpt lat="43.3428300" lon="-1.8463990">
        <ele>182.2</ele>
        <time>2022-10-29T09:11:46Z</time>
      </trkpt>
      <trkpt lat="43.3428140" lon="-1.8463730">
        <ele>182.4</ele>
        <time>2022-10-29T09:11:47Z</time>
      </trkpt>
      <trkpt lat="43.3428010" lon="-1.8463560">
        <ele>182.4</ele>
        <time>2022-10-29T09:11:48Z</time>
      </trkpt>
      <trkpt lat="43.3427910" lon="-1.8463200">
        <ele>182.6</ele>
        <time>2022-10-29T09:11:49Z</time>
      </trkpt>
      <trkpt lat="43.3427780" lon="-1.8463060">
        <ele>182.6</ele>
        <time>2022-10-29T09:11:50Z</time>
      </trkpt>
      <trkpt lat="43.3427650" lon="-1.8462940">
        <ele>182.8</ele>
        <time>2022-10-29T09:11:51Z</time>
      </trkpt>
      <trkpt lat="43.3427510" lon="-1.8462680">
        <ele>183.2</ele>
        <time>2022-10-29T09:11:52Z</time>
      </trkpt>
      <trkpt lat="43.3427460" lon="-1.8462570">
        <ele>183.4</ele>
        <time>2022-10-29T09:11:53Z</time>
      </trkpt>
      <trkpt lat="43.3427380" lon="-1.8462410">
        <ele>183.8</ele>
        <time>2022-10-29T09:11:54Z</time>
      </trkpt>
      <trkpt lat="43.3427350" lon="-1.8462140">
        <ele>184.2</ele>
        <time>2022-10-29T09:11:55Z</time>
      </trkpt>
      <trkpt lat="43.3427180" lon="-1.8461910">
        <ele>184.4</ele>
        <time>2022-10-29T09:11:56Z</time>
      </trkpt>
      <trkpt lat="43.3427060" lon="-1.8461720">
        <ele>184.6</ele>
        <time>2022-10-29T09:11:57Z</time>
      </trkpt>
      <trkpt lat="43.3426990" lon="-1.8461440">
        <ele>185.0</ele>
        <time>2022-10-29T09:11:58Z</time>
      </trkpt>
      <trkpt lat="43.3426920" lon="-1.8461180">
        <ele>185.2</ele>
        <time>2022-10-29T09:11:59Z</time>
      </trkpt>
      <trkpt lat="43.3426830" lon="-1.8460910">
        <ele>185.4</ele>
        <time>2022-10-29T09:12:00Z</time>
      </trkpt>
      <trkpt lat="43.3426680" lon="-1.8460630">
        <ele>185.4</ele>
        <time>2022-10-29T09:12:01Z</time>
      </trkpt>
      <trkpt lat="43.3426560" lon="-1.8460360">
        <ele>185.6</ele>
        <time>2022-10-29T09:12:02Z</time>
      </trkpt>
      <trkpt lat="43.3426340" lon="-1.8459980">
        <ele>185.8</ele>
        <time>2022-10-29T09:12:03Z</time>
      </trkpt>
      <trkpt lat="43.3426180" lon="-1.8459530">
        <ele>185.8</ele>
        <time>2022-10-29T09:12:04Z</time>
      </trkpt>
      <trkpt lat="43.3426040" lon="-1.8459270">
        <ele>185.8</ele>
        <time>2022-10-29T09:12:05Z</time>
      </trkpt>
      <trkpt lat="43.3425900" lon="-1.8459010">
        <ele>186.0</ele>
        <time>2022-10-29T09:12:06Z</time>
      </trkpt>
      <trkpt lat="43.3425760" lon="-1.8458760">
        <ele>186.0</ele>
        <time>2022-10-29T09:12:07Z</time>
      </trkpt>
      <trkpt lat="43.3425640" lon="-1.8458530">
        <ele>186.2</ele>
        <time>2022-10-29T09:12:08Z</time>
      </trkpt>
      <trkpt lat="43.3425600" lon="-1.8458320">
        <ele>186.6</ele>
        <time>2022-10-29T09:12:09Z</time>
      </trkpt>
      <trkpt lat="43.3425530" lon="-1.8458150">
        <ele>187.0</ele>
        <time>2022-10-29T09:12:10Z</time>
      </trkpt>
      <trkpt lat="43.3425470" lon="-1.8457880">
        <ele>187.4</ele>
        <time>2022-10-29T09:12:11Z</time>
      </trkpt>
      <trkpt lat="43.3425440" lon="-1.8457570">
        <ele>187.4</ele>
        <time>2022-10-29T09:12:12Z</time>
      </trkpt>
      <trkpt lat="43.3425390" lon="-1.8457380">
        <ele>187.6</ele>
        <time>2022-10-29T09:12:13Z</time>
      </trkpt>
      <trkpt lat="43.3425340" lon="-1.8457150">
        <ele>187.6</ele>
        <time>2022-10-29T09:12:14Z</time>
      </trkpt>
      <trkpt lat="43.3425290" lon="-1.8456830">
        <ele>187.8</ele>
        <time>2022-10-29T09:12:15Z</time>
      </trkpt>
      <trkpt lat="43.3425160" lon="-1.8456440">
        <ele>188.0</ele>
        <time>2022-10-29T09:12:16Z</time>
      </trkpt>
      <trkpt lat="43.3424990" lon="-1.8456190">
        <ele>188.4</ele>
        <time>2022-10-29T09:12:17Z</time>
      </trkpt>
      <trkpt lat="43.3424850" lon="-1.8455840">
        <ele>188.6</ele>
        <time>2022-10-29T09:12:18Z</time>
      </trkpt>
      <trkpt lat="43.3424740" lon="-1.8455540">
        <ele>188.8</ele>
        <time>2022-10-29T09:12:19Z</time>
      </trkpt>
      <trkpt lat="43.3424540" lon="-1.8455010">
        <ele>189.0</ele>
        <time>2022-10-29T09:12:20Z</time>
      </trkpt>
      <trkpt lat="43.3424440" lon="-1.8454640">
        <ele>189.0</ele>
        <time>2022-10-29T09:12:21Z</time>
      </trkpt>
      <trkpt lat="43.3424390" lon="-1.8454380">
        <ele>189.0</ele>
        <time>2022-10-29T09:12:22Z</time>
      </trkpt>
      <trkpt lat="43.3424420" lon="-1.8454120">
        <ele>189.0</ele>
        <time>2022-10-29T09:12:23Z</time>
      </trkpt>
      <trkpt lat="43.3424400" lon="-1.8453760">
        <ele>189.0</ele>
        <time>2022-10-29T09:12:24Z</time>
      </trkpt>
      <trkpt lat="43.3424400" lon="-1.8453460">
        <ele>189.2</ele>
        <time>2022-10-29T09:12:25Z</time>
      </trkpt>
      <trkpt lat="43.3424330" lon="-1.8453110">
        <ele>189.4</ele>
        <time>2022-10-29T09:12:26Z</time>
      </trkpt>
      <trkpt lat="43.3424320" lon="-1.8452830">
        <ele>189.6</ele>
        <time>2022-10-29T09:12:27Z</time>
      </trkpt>
      <trkpt lat="43.3424350" lon="-1.8452570">
        <ele>190.0</ele>
        <time>2022-10-29T09:12:28Z</time>
      </trkpt>
      <trkpt lat="43.3424290" lon="-1.8452330">
        <ele>190.2</ele>
        <time>2022-10-29T09:12:29Z</time>
      </trkpt>
      <trkpt lat="43.3424340" lon="-1.8452050">
        <ele>190.2</ele>
        <time>2022-10-29T09:12:30Z</time>
      </trkpt>
      <trkpt lat="43.3424390" lon="-1.8451720">
        <ele>190.8</ele>
        <time>2022-10-29T09:12:31Z</time>
      </trkpt>
      <trkpt lat="43.3424490" lon="-1.8451410">
        <ele>191.0</ele>
        <time>2022-10-29T09:12:32Z</time>
      </trkpt>
      <trkpt lat="43.3424650" lon="-1.8451130">
        <ele>191.4</ele>
        <time>2022-10-29T09:12:33Z</time>
      </trkpt>
      <trkpt lat="43.3424750" lon="-1.8450910">
        <ele>191.6</ele>
        <time>2022-10-29T09:12:34Z</time>
      </trkpt>
      <trkpt lat="43.3424840" lon="-1.8450640">
        <ele>192.0</ele>
        <time>2022-10-29T09:12:35Z</time>
      </trkpt>
      <trkpt lat="43.3424820" lon="-1.8450330">
        <ele>192.2</ele>
        <time>2022-10-29T09:12:36Z</time>
      </trkpt>
      <trkpt lat="43.3424890" lon="-1.8450070">
        <ele>192.4</ele>
        <time>2022-10-29T09:12:37Z</time>
      </trkpt>
      <trkpt lat="43.3425020" lon="-1.8449760">
        <ele>192.6</ele>
        <time>2022-10-29T09:12:38Z</time>
      </trkpt>
      <trkpt lat="43.3425270" lon="-1.8449480">
        <ele>192.6</ele>
        <time>2022-10-29T09:12:39Z</time>
      </trkpt>
      <trkpt lat="43.3425460" lon="-1.8449010">
        <ele>192.8</ele>
        <time>2022-10-29T09:12:40Z</time>
      </trkpt>
      <trkpt lat="43.3425590" lon="-1.8448450">
        <ele>192.8</ele>
        <time>2022-10-29T09:12:41Z</time>
      </trkpt>
      <trkpt lat="43.3425770" lon="-1.8448020">
        <ele>193.0</ele>
        <time>2022-10-29T09:12:42Z</time>
      </trkpt>
      <trkpt lat="43.3426080" lon="-1.8447740">
        <ele>193.0</ele>
        <time>2022-10-29T09:12:43Z</time>
      </trkpt>
      <trkpt lat="43.3426370" lon="-1.8447530">
        <ele>193.2</ele>
        <time>2022-10-29T09:12:44Z</time>
      </trkpt>
      <trkpt lat="43.3426630" lon="-1.8447230">
        <ele>193.2</ele>
        <time>2022-10-29T09:12:45Z</time>
      </trkpt>
      <trkpt lat="43.3426910" lon="-1.8446880">
        <ele>193.2</ele>
        <time>2022-10-29T09:12:46Z</time>
      </trkpt>
      <trkpt lat="43.3427350" lon="-1.8446560">
        <ele>193.2</ele>
        <time>2022-10-29T09:12:47Z</time>
      </trkpt>
      <trkpt lat="43.3427830" lon="-1.8446260">
        <ele>193.4</ele>
        <time>2022-10-29T09:12:48Z</time>
      </trkpt>
      <trkpt lat="43.3428280" lon="-1.8445870">
        <ele>193.4</ele>
        <time>2022-10-29T09:12:49Z</time>
      </trkpt>
      <trkpt lat="43.3428820" lon="-1.8445630">
        <ele>193.4</ele>
        <time>2022-10-29T09:12:50Z</time>
      </trkpt>
      <trkpt lat="43.3429270" lon="-1.8445410">
        <ele>193.4</ele>
        <time>2022-10-29T09:12:51Z</time>
      </trkpt>
      <trkpt lat="43.3429730" lon="-1.8445100">
        <ele>193.4</ele>
        <time>2022-10-29T09:12:52Z</time>
      </trkpt>
      <trkpt lat="43.3430290" lon="-1.8444810">
        <ele>193.6</ele>
        <time>2022-10-29T09:12:53Z</time>
      </trkpt>
      <trkpt lat="43.3430870" lon="-1.8444840">
        <ele>193.6</ele>
        <time>2022-10-29T09:12:54Z</time>
      </trkpt>
      <trkpt lat="43.3431450" lon="-1.8445020">
        <ele>193.6</ele>
        <time>2022-10-29T09:12:55Z</time>
      </trkpt>
      <trkpt lat="43.3431980" lon="-1.8445200">
        <ele>193.6</ele>
        <time>2022-10-29T09:12:56Z</time>
      </trkpt>
      <trkpt lat="43.3432530" lon="-1.8445570">
        <ele>193.8</ele>
        <time>2022-10-29T09:12:57Z</time>
      </trkpt>
      <trkpt lat="43.3433070" lon="-1.8446010">
        <ele>194.0</ele>
        <time>2022-10-29T09:12:58Z</time>
      </trkpt>
      <trkpt lat="43.3433620" lon="-1.8446330">
        <ele>194.2</ele>
        <time>2022-10-29T09:12:59Z</time>
      </trkpt>
      <trkpt lat="43.3434330" lon="-1.8446600">
        <ele>194.4</ele>
        <time>2022-10-29T09:13:00Z</time>
      </trkpt>
      <trkpt lat="43.3435150" lon="-1.8446660">
        <ele>194.4</ele>
        <time>2022-10-29T09:13:01Z</time>
      </trkpt>
      <trkpt lat="43.3436200" lon="-1.8446780">
        <ele>194.6</ele>
        <time>2022-10-29T09:13:02Z</time>
      </trkpt>
      <trkpt lat="43.3436840" lon="-1.8446680">
        <ele>194.6</ele>
        <time>2022-10-29T09:13:03Z</time>
      </trkpt>
      <trkpt lat="43.3437290" lon="-1.8446420">
        <ele>194.6</ele>
        <time>2022-10-29T09:13:04Z</time>
      </trkpt>
      <trkpt lat="43.3437950" lon="-1.8446290">
        <ele>194.6</ele>
        <time>2022-10-29T09:13:05Z</time>
      </trkpt>
      <trkpt lat="43.3438630" lon="-1.8446190">
        <ele>194.6</ele>
        <time>2022-10-29T09:13:06Z</time>
      </trkpt>
      <trkpt lat="43.3439350" lon="-1.8446030">
        <ele>194.6</ele>
        <time>2022-10-29T09:13:07Z</time>
      </trkpt>
      <trkpt lat="43.3440620" lon="-1.8446060">
        <ele>194.6</ele>
        <time>2022-10-29T09:13:09Z</time>
      </trkpt>
      <trkpt lat="43.3441130" lon="-1.8446010">
        <ele>194.6</ele>
        <time>2022-10-29T09:13:10Z</time>
      </trkpt>
      <trkpt lat="43.3441650" lon="-1.8446050">
        <ele>194.4</ele>
        <time>2022-10-29T09:13:11Z</time>
      </trkpt>
      <trkpt lat="43.3442160" lon="-1.8446080">
        <ele>194.4</ele>
        <time>2022-10-29T09:13:12Z</time>
      </trkpt>
      <trkpt lat="43.3442630" lon="-1.8446030">
        <ele>194.4</ele>
        <time>2022-10-29T09:13:13Z</time>
      </trkpt>
      <trkpt lat="43.3443080" lon="-1.8446140">
        <ele>194.2</ele>
        <time>2022-10-29T09:13:14Z</time>
      </trkpt>
      <trkpt lat="43.3443610" lon="-1.8446350">
        <ele>194.0</ele>
        <time>2022-10-29T09:13:15Z</time>
      </trkpt>
      <trkpt lat="43.3444130" lon="-1.8446360">
        <ele>194.0</ele>
        <time>2022-10-29T09:13:16Z</time>
      </trkpt>
      <trkpt lat="43.3444670" lon="-1.8446290">
        <ele>194.0</ele>
        <time>2022-10-29T09:13:17Z</time>
      </trkpt>
      <trkpt lat="43.3446100" lon="-1.8446000">
        <ele>194.0</ele>
        <time>2022-10-29T09:13:20Z</time>
      </trkpt>
      <trkpt lat="43.3446520" lon="-1.8445850">
        <ele>194.0</ele>
        <time>2022-10-29T09:13:21Z</time>
      </trkpt>
      <trkpt lat="43.3446870" lon="-1.8445700">
        <ele>194.0</ele>
        <time>2022-10-29T09:13:22Z</time>
      </trkpt>
      <trkpt lat="43.3447160" lon="-1.8445560">
        <ele>194.0</ele>
        <time>2022-10-29T09:13:23Z</time>
      </trkpt>
      <trkpt lat="43.3447500" lon="-1.8445370">
        <ele>194.2</ele>
        <time>2022-10-29T09:13:24Z</time>
      </trkpt>
      <trkpt lat="43.3447840" lon="-1.8445210">
        <ele>194.2</ele>
        <time>2022-10-29T09:13:25Z</time>
      </trkpt>
      <trkpt lat="43.3448150" lon="-1.8445070">
        <ele>194.2</ele>
        <time>2022-10-29T09:13:26Z</time>
      </trkpt>
      <trkpt lat="43.3448360" lon="-1.8444970">
        <ele>194.2</ele>
        <time>2022-10-29T09:13:27Z</time>
      </trkpt>
      <trkpt lat="43.3448580" lon="-1.8444810">
        <ele>194.2</ele>
        <time>2022-10-29T09:13:28Z</time>
      </trkpt>
      <trkpt lat="43.3448860" lon="-1.8444630">
        <ele>194.2</ele>
        <time>2022-10-29T09:13:29Z</time>
      </trkpt>
      <trkpt lat="43.3449150" lon="-1.8444500">
        <ele>194.2</ele>
        <time>2022-10-29T09:13:30Z</time>
      </trkpt>
      <trkpt lat="43.3449400" lon="-1.8444270">
        <ele>194.0</ele>
        <time>2022-10-29T09:13:31Z</time>
      </trkpt>
      <trkpt lat="43.3449750" lon="-1.8443860">
        <ele>194.0</ele>
        <time>2022-10-29T09:13:32Z</time>
      </trkpt>
      <trkpt lat="43.3450100" lon="-1.8442900">
        <ele>194.0</ele>
        <time>2022-10-29T09:13:34Z</time>
      </trkpt>
      <trkpt lat="43.3450210" lon="-1.8442220">
        <ele>194.2</ele>
        <time>2022-10-29T09:13:35Z</time>
      </trkpt>
      <trkpt lat="43.3450290" lon="-1.8441820">
        <ele>194.2</ele>
        <time>2022-10-29T09:13:36Z</time>
      </trkpt>
      <trkpt lat="43.3450330" lon="-1.8441400">
        <ele>194.2</ele>
        <time>2022-10-29T09:13:37Z</time>
      </trkpt>
      <trkpt lat="43.3450440" lon="-1.8440680">
        <ele>194.4</ele>
        <time>2022-10-29T09:13:38Z</time>
      </trkpt>
      <trkpt lat="43.3450550" lon="-1.8440260">
        <ele>194.4</ele>
        <time>2022-10-29T09:13:39Z</time>
      </trkpt>
      <trkpt lat="43.3450600" lon="-1.8439620">
        <ele>194.6</ele>
        <time>2022-10-29T09:13:40Z</time>
      </trkpt>
      <trkpt lat="43.3450980" lon="-1.8437850">
        <ele>195.0</ele>
        <time>2022-10-29T09:13:43Z</time>
      </trkpt>
      <trkpt lat="43.3451090" lon="-1.8437350">
        <ele>195.2</ele>
        <time>2022-10-29T09:13:44Z</time>
      </trkpt>
      <trkpt lat="43.3451180" lon="-1.8436630">
        <ele>195.4</ele>
        <time>2022-10-29T09:13:45Z</time>
      </trkpt>
      <trkpt lat="43.3451350" lon="-1.8436140">
        <ele>195.6</ele>
        <time>2022-10-29T09:13:46Z</time>
      </trkpt>
      <trkpt lat="43.3451480" lon="-1.8434760">
        <ele>196.2</ele>
        <time>2022-10-29T09:13:49Z</time>
      </trkpt>
      <trkpt lat="43.3451700" lon="-1.8431870">
        <ele>197.2</ele>
        <time>2022-10-29T09:13:54Z</time>
      </trkpt>
      <trkpt lat="43.3451900" lon="-1.8431470">
        <ele>197.4</ele>
        <time>2022-10-29T09:13:55Z</time>
      </trkpt>
      <trkpt lat="43.3452040" lon="-1.8430980">
        <ele>197.6</ele>
        <time>2022-10-29T09:13:56Z</time>
      </trkpt>
      <trkpt lat="43.3452170" lon="-1.8430320">
        <ele>198.0</ele>
        <time>2022-10-29T09:13:57Z</time>
      </trkpt>
      <trkpt lat="43.3452540" lon="-1.8429680">
        <ele>198.2</ele>
        <time>2022-10-29T09:13:58Z</time>
      </trkpt>
      <trkpt lat="43.3452650" lon="-1.8429080">
        <ele>198.6</ele>
        <time>2022-10-29T09:13:59Z</time>
      </trkpt>
      <trkpt lat="43.3452760" lon="-1.8428510">
        <ele>199.0</ele>
        <time>2022-10-29T09:14:00Z</time>
      </trkpt>
      <trkpt lat="43.3452950" lon="-1.8428190">
        <ele>199.2</ele>
        <time>2022-10-29T09:14:01Z</time>
      </trkpt>
      <trkpt lat="43.3453240" lon="-1.8427970">
        <ele>199.4</ele>
        <time>2022-10-29T09:14:02Z</time>
      </trkpt>
      <trkpt lat="43.3453740" lon="-1.8427870">
        <ele>199.6</ele>
        <time>2022-10-29T09:14:03Z</time>
      </trkpt>
      <trkpt lat="43.3454190" lon="-1.8427770">
        <ele>199.6</ele>
        <time>2022-10-29T09:14:04Z</time>
      </trkpt>
      <trkpt lat="43.3454590" lon="-1.8427820">
        <ele>199.6</ele>
        <time>2022-10-29T09:14:05Z</time>
      </trkpt>
      <trkpt lat="43.3454930" lon="-1.8427940">
        <ele>199.6</ele>
        <time>2022-10-29T09:14:06Z</time>
      </trkpt>
      <trkpt lat="43.3455240" lon="-1.8428130">
        <ele>199.6</ele>
        <time>2022-10-29T09:14:07Z</time>
      </trkpt>
      <trkpt lat="43.3455560" lon="-1.8428350">
        <ele>199.6</ele>
        <time>2022-10-29T09:14:08Z</time>
      </trkpt>
      <trkpt lat="43.3455980" lon="-1.8428550">
        <ele>199.6</ele>
        <time>2022-10-29T09:14:09Z</time>
      </trkpt>
      <trkpt lat="43.3456480" lon="-1.8428690">
        <ele>199.6</ele>
        <time>2022-10-29T09:14:10Z</time>
      </trkpt>
      <trkpt lat="43.3457010" lon="-1.8428540">
        <ele>199.4</ele>
        <time>2022-10-29T09:14:11Z</time>
      </trkpt>
      <trkpt lat="43.3457590" lon="-1.8428400">
        <ele>199.4</ele>
        <time>2022-10-29T09:14:12Z</time>
      </trkpt>
      <trkpt lat="43.3458290" lon="-1.8428130">
        <ele>199.4</ele>
        <time>2022-10-29T09:14:13Z</time>
      </trkpt>
      <trkpt lat="43.3458800" lon="-1.8427960">
        <ele>199.4</ele>
        <time>2022-10-29T09:14:14Z</time>
      </trkpt>
      <trkpt lat="43.3459200" lon="-1.8427790">
        <ele>199.0</ele>
        <time>2022-10-29T09:14:15Z</time>
      </trkpt>
      <trkpt lat="43.3459630" lon="-1.8427700">
        <ele>199.0</ele>
        <time>2022-10-29T09:14:16Z</time>
      </trkpt>
      <trkpt lat="43.3460040" lon="-1.8427720">
        <ele>198.8</ele>
        <time>2022-10-29T09:14:17Z</time>
      </trkpt>
      <trkpt lat="43.3460520" lon="-1.8427710">
        <ele>198.4</ele>
        <time>2022-10-29T09:14:18Z</time>
      </trkpt>
      <trkpt lat="43.3461380" lon="-1.8427540">
        <ele>198.2</ele>
        <time>2022-10-29T09:14:19Z</time>
      </trkpt>
      <trkpt lat="43.3462130" lon="-1.8427210">
        <ele>198.2</ele>
        <time>2022-10-29T09:14:20Z</time>
      </trkpt>
      <trkpt lat="43.3463590" lon="-1.8426310">
        <ele>198.0</ele>
        <time>2022-10-29T09:14:22Z</time>
      </trkpt>
      <trkpt lat="43.3464420" lon="-1.8425940">
        <ele>197.8</ele>
        <time>2022-10-29T09:14:23Z</time>
      </trkpt>
      <trkpt lat="43.3464770" lon="-1.8425720">
        <ele>197.6</ele>
        <time>2022-10-29T09:14:24Z</time>
      </trkpt>
      <trkpt lat="43.3465080" lon="-1.8425550">
        <ele>197.4</ele>
        <time>2022-10-29T09:14:25Z</time>
      </trkpt>
      <trkpt lat="43.3465390" lon="-1.8425440">
        <ele>196.8</ele>
        <time>2022-10-29T09:14:26Z</time>
      </trkpt>
      <trkpt lat="43.3465720" lon="-1.8424970">
        <ele>196.0</ele>
        <time>2022-10-29T09:14:27Z</time>
      </trkpt>
      <trkpt lat="43.3465780" lon="-1.8424880">
        <ele>195.6</ele>
        <time>2022-10-29T09:14:28Z</time>
      </trkpt>
      <trkpt lat="43.3465950" lon="-1.8424670">
        <ele>194.6</ele>
        <time>2022-10-29T09:14:29Z</time>
      </trkpt>
      <trkpt lat="43.3466420" lon="-1.8424510">
        <ele>193.8</ele>
        <time>2022-10-29T09:14:30Z</time>
      </trkpt>
      <trkpt lat="43.3466710" lon="-1.8424290">
        <ele>193.0</ele>
        <time>2022-10-29T09:14:31Z</time>
      </trkpt>
      <trkpt lat="43.3466940" lon="-1.8424140">
        <ele>192.6</ele>
        <time>2022-10-29T09:14:32Z</time>
      </trkpt>
      <trkpt lat="43.3467150" lon="-1.8424050">
        <ele>191.8</ele>
        <time>2022-10-29T09:14:33Z</time>
      </trkpt>
      <trkpt lat="43.3467710" lon="-1.8423250">
        <ele>191.4</ele>
        <time>2022-10-29T09:14:34Z</time>
      </trkpt>
      <trkpt lat="43.3468130" lon="-1.8422680">
        <ele>190.8</ele>
        <time>2022-10-29T09:14:35Z</time>
      </trkpt>
      <trkpt lat="43.3468500" lon="-1.8421800">
        <ele>190.0</ele>
        <time>2022-10-29T09:14:36Z</time>
      </trkpt>
      <trkpt lat="43.3468930" lon="-1.8420550">
        <ele>189.4</ele>
        <time>2022-10-29T09:14:38Z</time>
      </trkpt>
      <trkpt lat="43.3469070" lon="-1.8419730">
        <ele>189.2</ele>
        <time>2022-10-29T09:14:39Z</time>
      </trkpt>
      <trkpt lat="43.3469120" lon="-1.8418670">
        <ele>188.6</ele>
        <time>2022-10-29T09:14:40Z</time>
      </trkpt>
      <trkpt lat="43.3469110" lon="-1.8417580">
        <ele>188.4</ele>
        <time>2022-10-29T09:14:41Z</time>
      </trkpt>
      <trkpt lat="43.3469010" lon="-1.8416600">
        <ele>188.2</ele>
        <time>2022-10-29T09:14:42Z</time>
      </trkpt>
      <trkpt lat="43.3468960" lon="-1.8415760">
        <ele>188.0</ele>
        <time>2022-10-29T09:14:43Z</time>
      </trkpt>
      <trkpt lat="43.3468970" lon="-1.8414740">
        <ele>187.6</ele>
        <time>2022-10-29T09:14:44Z</time>
      </trkpt>
      <trkpt lat="43.3468970" lon="-1.8412520">
        <ele>186.6</ele>
        <time>2022-10-29T09:14:46Z</time>
      </trkpt>
      <trkpt lat="43.3468940" lon="-1.8411610">
        <ele>185.8</ele>
        <time>2022-10-29T09:14:47Z</time>
      </trkpt>
      <trkpt lat="43.3468890" lon="-1.8410580">
        <ele>185.6</ele>
        <time>2022-10-29T09:14:48Z</time>
      </trkpt>
      <trkpt lat="43.3468850" lon="-1.8409580">
        <ele>185.2</ele>
        <time>2022-10-29T09:14:49Z</time>
      </trkpt>
      <trkpt lat="43.3468760" lon="-1.8408510">
        <ele>185.0</ele>
        <time>2022-10-29T09:14:50Z</time>
      </trkpt>
      <trkpt lat="43.3468750" lon="-1.8407470">
        <ele>184.8</ele>
        <time>2022-10-29T09:14:51Z</time>
      </trkpt>
      <trkpt lat="43.3469040" lon="-1.8405440">
        <ele>184.2</ele>
        <time>2022-10-29T09:14:53Z</time>
      </trkpt>
      <trkpt lat="43.3469410" lon="-1.8404860">
        <ele>184.2</ele>
        <time>2022-10-29T09:14:54Z</time>
      </trkpt>
      <trkpt lat="43.3469860" lon="-1.8404270">
        <ele>183.4</ele>
        <time>2022-10-29T09:14:55Z</time>
      </trkpt>
      <trkpt lat="43.3470630" lon="-1.8404030">
        <ele>183.2</ele>
        <time>2022-10-29T09:14:56Z</time>
      </trkpt>
      <trkpt lat="43.3471220" lon="-1.8403840">
        <ele>183.0</ele>
        <time>2022-10-29T09:14:57Z</time>
      </trkpt>
      <trkpt lat="43.3472380" lon="-1.8404260">
        <ele>182.4</ele>
        <time>2022-10-29T09:14:59Z</time>
      </trkpt>
      <trkpt lat="43.3472870" lon="-1.8404640">
        <ele>181.8</ele>
        <time>2022-10-29T09:15:00Z</time>
      </trkpt>
      <trkpt lat="43.3473380" lon="-1.8404990">
        <ele>181.6</ele>
        <time>2022-10-29T09:15:01Z</time>
      </trkpt>
      <trkpt lat="43.3473820" lon="-1.8405240">
        <ele>181.2</ele>
        <time>2022-10-29T09:15:02Z</time>
      </trkpt>
      <trkpt lat="43.3474280" lon="-1.8405340">
        <ele>181.2</ele>
        <time>2022-10-29T09:15:03Z</time>
      </trkpt>
      <trkpt lat="43.3474820" lon="-1.8405410">
        <ele>180.6</ele>
        <time>2022-10-29T09:15:04Z</time>
      </trkpt>
      <trkpt lat="43.3475280" lon="-1.8405440">
        <ele>180.2</ele>
        <time>2022-10-29T09:15:05Z</time>
      </trkpt>
      <trkpt lat="43.3475870" lon="-1.8405350">
        <ele>180.2</ele>
        <time>2022-10-29T09:15:06Z</time>
      </trkpt>
      <trkpt lat="43.3476750" lon="-1.8405070">
        <ele>179.6</ele>
        <time>2022-10-29T09:15:07Z</time>
      </trkpt>
      <trkpt lat="43.3477540" lon="-1.8404620">
        <ele>179.4</ele>
        <time>2022-10-29T09:15:08Z</time>
      </trkpt>
      <trkpt lat="43.3478240" lon="-1.8404080">
        <ele>178.6</ele>
        <time>2022-10-29T09:15:09Z</time>
      </trkpt>
      <trkpt lat="43.3478870" lon="-1.8403520">
        <ele>178.4</ele>
        <time>2022-10-29T09:15:10Z</time>
      </trkpt>
      <trkpt lat="43.3479360" lon="-1.8402830">
        <ele>177.8</ele>
        <time>2022-10-29T09:15:11Z</time>
      </trkpt>
      <trkpt lat="43.3479860" lon="-1.8402210">
        <ele>177.6</ele>
        <time>2022-10-29T09:15:12Z</time>
      </trkpt>
      <trkpt lat="43.3480360" lon="-1.8401620">
        <ele>177.0</ele>
        <time>2022-10-29T09:15:13Z</time>
      </trkpt>
      <trkpt lat="43.3480810" lon="-1.8401040">
        <ele>176.8</ele>
        <time>2022-10-29T09:15:14Z</time>
      </trkpt>
      <trkpt lat="43.3481150" lon="-1.8400620">
        <ele>176.2</ele>
        <time>2022-10-29T09:15:15Z</time>
      </trkpt>
      <trkpt lat="43.3481400" lon="-1.8400390">
        <ele>175.2</ele>
        <time>2022-10-29T09:15:16Z</time>
      </trkpt>
      <trkpt lat="43.3481670" lon="-1.8400200">
        <ele>174.8</ele>
        <time>2022-10-29T09:15:17Z</time>
      </trkpt>
      <trkpt lat="43.3481910" lon="-1.8400030">
        <ele>173.8</ele>
        <time>2022-10-29T09:15:18Z</time>
      </trkpt>
      <trkpt lat="43.3482120" lon="-1.8399790">
        <ele>173.6</ele>
        <time>2022-10-29T09:15:19Z</time>
      </trkpt>
      <trkpt lat="43.3482320" lon="-1.8399390">
        <ele>172.6</ele>
        <time>2022-10-29T09:15:20Z</time>
      </trkpt>
      <trkpt lat="43.3482500" lon="-1.8399110">
        <ele>172.2</ele>
        <time>2022-10-29T09:15:21Z</time>
      </trkpt>
      <trkpt lat="43.3482640" lon="-1.8398720">
        <ele>171.4</ele>
        <time>2022-10-29T09:15:22Z</time>
      </trkpt>
      <trkpt lat="43.3482650" lon="-1.8398330">
        <ele>171.0</ele>
        <time>2022-10-29T09:15:23Z</time>
      </trkpt>
      <trkpt lat="43.3482650" lon="-1.8397820">
        <ele>170.2</ele>
        <time>2022-10-29T09:15:24Z</time>
      </trkpt>
      <trkpt lat="43.3482670" lon="-1.8397390">
        <ele>169.8</ele>
        <time>2022-10-29T09:15:25Z</time>
      </trkpt>
      <trkpt lat="43.3482740" lon="-1.8396820">
        <ele>169.6</ele>
        <time>2022-10-29T09:15:26Z</time>
      </trkpt>
      <trkpt lat="43.3482850" lon="-1.8396040">
        <ele>169.2</ele>
        <time>2022-10-29T09:15:27Z</time>
      </trkpt>
      <trkpt lat="43.3482970" lon="-1.8395380">
        <ele>168.8</ele>
        <time>2022-10-29T09:15:28Z</time>
      </trkpt>
      <trkpt lat="43.3483000" lon="-1.8394620">
        <ele>168.2</ele>
        <time>2022-10-29T09:15:29Z</time>
      </trkpt>
      <trkpt lat="43.3483030" lon="-1.8393860">
        <ele>167.8</ele>
        <time>2022-10-29T09:15:30Z</time>
      </trkpt>
      <trkpt lat="43.3483140" lon="-1.8392910">
        <ele>167.6</ele>
        <time>2022-10-29T09:15:31Z</time>
      </trkpt>
      <trkpt lat="43.3483250" lon="-1.8390410">
        <ele>166.2</ele>
        <time>2022-10-29T09:15:34Z</time>
      </trkpt>
      <trkpt lat="43.3483180" lon="-1.8389450">
        <ele>166.0</ele>
        <time>2022-10-29T09:15:35Z</time>
      </trkpt>
      <trkpt lat="43.3483050" lon="-1.8388430">
        <ele>165.8</ele>
        <time>2022-10-29T09:15:36Z</time>
      </trkpt>
      <trkpt lat="43.3482870" lon="-1.8386360">
        <ele>165.6</ele>
        <time>2022-10-29T09:15:38Z</time>
      </trkpt>
      <trkpt lat="43.3482820" lon="-1.8385390">
        <ele>165.0</ele>
        <time>2022-10-29T09:15:39Z</time>
      </trkpt>
      <trkpt lat="43.3482700" lon="-1.8383210">
        <ele>164.6</ele>
        <time>2022-10-29T09:15:41Z</time>
      </trkpt>
      <trkpt lat="43.3483140" lon="-1.8381000">
        <ele>164.2</ele>
        <time>2022-10-29T09:15:43Z</time>
      </trkpt>
      <trkpt lat="43.3483390" lon="-1.8379940">
        <ele>163.8</ele>
        <time>2022-10-29T09:15:44Z</time>
      </trkpt>
      <trkpt lat="43.3483670" lon="-1.8378880">
        <ele>163.6</ele>
        <time>2022-10-29T09:15:45Z</time>
      </trkpt>
      <trkpt lat="43.3484460" lon="-1.8376830">
        <ele>163.0</ele>
        <time>2022-10-29T09:15:47Z</time>
      </trkpt>
      <trkpt lat="43.3485040" lon="-1.8374900">
        <ele>162.6</ele>
        <time>2022-10-29T09:15:49Z</time>
      </trkpt>
      <trkpt lat="43.3485360" lon="-1.8374000">
        <ele>161.8</ele>
        <time>2022-10-29T09:15:50Z</time>
      </trkpt>
      <trkpt lat="43.3485750" lon="-1.8373220">
        <ele>160.8</ele>
        <time>2022-10-29T09:15:51Z</time>
      </trkpt>
      <trkpt lat="43.3486200" lon="-1.8372560">
        <ele>160.4</ele>
        <time>2022-10-29T09:15:52Z</time>
      </trkpt>
      <trkpt lat="43.3486790" lon="-1.8372070">
        <ele>159.8</ele>
        <time>2022-10-29T09:15:53Z</time>
      </trkpt>
      <trkpt lat="43.3487400" lon="-1.8371900">
        <ele>159.2</ele>
        <time>2022-10-29T09:15:54Z</time>
      </trkpt>
      <trkpt lat="43.3487970" lon="-1.8371770">
        <ele>159.0</ele>
        <time>2022-10-29T09:15:55Z</time>
      </trkpt>
      <trkpt lat="43.3488460" lon="-1.8371630">
        <ele>157.8</ele>
        <time>2022-10-29T09:15:56Z</time>
      </trkpt>
      <trkpt lat="43.3488940" lon="-1.8371460">
        <ele>157.4</ele>
        <time>2022-10-29T09:15:57Z</time>
      </trkpt>
      <trkpt lat="43.3489460" lon="-1.8371490">
        <ele>156.4</ele>
        <time>2022-10-29T09:15:58Z</time>
      </trkpt>
      <trkpt lat="43.3490020" lon="-1.8371710">
        <ele>155.8</ele>
        <time>2022-10-29T09:15:59Z</time>
      </trkpt>
      <trkpt lat="43.3490570" lon="-1.8372160">
        <ele>155.2</ele>
        <time>2022-10-29T09:16:00Z</time>
      </trkpt>
      <trkpt lat="43.3491070" lon="-1.8372660">
        <ele>155.0</ele>
        <time>2022-10-29T09:16:01Z</time>
      </trkpt>
      <trkpt lat="43.3491570" lon="-1.8373140">
        <ele>154.6</ele>
        <time>2022-10-29T09:16:02Z</time>
      </trkpt>
      <trkpt lat="43.3492150" lon="-1.8373600">
        <ele>154.0</ele>
        <time>2022-10-29T09:16:03Z</time>
      </trkpt>
      <trkpt lat="43.3493550" lon="-1.8374470">
        <ele>153.4</ele>
        <time>2022-10-29T09:16:05Z</time>
      </trkpt>
      <trkpt lat="43.3494160" lon="-1.8374770">
        <ele>153.0</ele>
        <time>2022-10-29T09:16:06Z</time>
      </trkpt>
      <trkpt lat="43.3495460" lon="-1.8375320">
        <ele>153.0</ele>
        <time>2022-10-29T09:16:08Z</time>
      </trkpt>
      <trkpt lat="43.3496150" lon="-1.8375540">
        <ele>152.0</ele>
        <time>2022-10-29T09:16:09Z</time>
      </trkpt>
      <trkpt lat="43.3496870" lon="-1.8375620">
        <ele>151.8</ele>
        <time>2022-10-29T09:16:10Z</time>
      </trkpt>
      <trkpt lat="43.3497630" lon="-1.8375760">
        <ele>151.6</ele>
        <time>2022-10-29T09:16:11Z</time>
      </trkpt>
      <trkpt lat="43.3499130" lon="-1.8375870">
        <ele>150.8</ele>
        <time>2022-10-29T09:16:13Z</time>
      </trkpt>
      <trkpt lat="43.3499820" lon="-1.8375740">
        <ele>150.2</ele>
        <time>2022-10-29T09:16:14Z</time>
      </trkpt>
      <trkpt lat="43.3500520" lon="-1.8375400">
        <ele>150.0</ele>
        <time>2022-10-29T09:16:15Z</time>
      </trkpt>
      <trkpt lat="43.3501220" lon="-1.8375110">
        <ele>149.8</ele>
        <time>2022-10-29T09:16:16Z</time>
      </trkpt>
      <trkpt lat="43.3501920" lon="-1.8374800">
        <ele>149.8</ele>
        <time>2022-10-29T09:16:17Z</time>
      </trkpt>
      <trkpt lat="43.3503130" lon="-1.8373930">
        <ele>149.4</ele>
        <time>2022-10-29T09:16:19Z</time>
      </trkpt>
      <trkpt lat="43.3503520" lon="-1.8373450">
        <ele>149.2</ele>
        <time>2022-10-29T09:16:20Z</time>
      </trkpt>
      <trkpt lat="43.3503890" lon="-1.8373040">
        <ele>149.2</ele>
        <time>2022-10-29T09:16:21Z</time>
      </trkpt>
      <trkpt lat="43.3504140" lon="-1.8372340">
        <ele>148.8</ele>
        <time>2022-10-29T09:16:22Z</time>
      </trkpt>
      <trkpt lat="43.3504350" lon="-1.8371740">
        <ele>148.6</ele>
        <time>2022-10-29T09:16:23Z</time>
      </trkpt>
      <trkpt lat="43.3504540" lon="-1.8371170">
        <ele>148.4</ele>
        <time>2022-10-29T09:16:24Z</time>
      </trkpt>
      <trkpt lat="43.3504720" lon="-1.8370530">
        <ele>148.2</ele>
        <time>2022-10-29T09:16:25Z</time>
      </trkpt>
      <trkpt lat="43.3505330" lon="-1.8368660">
        <ele>147.8</ele>
        <time>2022-10-29T09:16:28Z</time>
      </trkpt>
      <trkpt lat="43.3505430" lon="-1.8367900">
        <ele>147.8</ele>
        <time>2022-10-29T09:16:29Z</time>
      </trkpt>
      <trkpt lat="43.3505600" lon="-1.8366540">
        <ele>147.8</ele>
        <time>2022-10-29T09:16:31Z</time>
      </trkpt>
      <trkpt lat="43.3505710" lon="-1.8365860">
        <ele>148.0</ele>
        <time>2022-10-29T09:16:32Z</time>
      </trkpt>
      <trkpt lat="43.3505830" lon="-1.8365200">
        <ele>148.0</ele>
        <time>2022-10-29T09:16:33Z</time>
      </trkpt>
      <trkpt lat="43.3506090" lon="-1.8363790">
        <ele>148.4</ele>
        <time>2022-10-29T09:16:35Z</time>
      </trkpt>
      <trkpt lat="43.3506280" lon="-1.8363100">
        <ele>148.8</ele>
        <time>2022-10-29T09:16:36Z</time>
      </trkpt>
      <trkpt lat="43.3506830" lon="-1.8361790">
        <ele>149.2</ele>
        <time>2022-10-29T09:16:38Z</time>
      </trkpt>
      <trkpt lat="43.3507110" lon="-1.8361070">
        <ele>149.2</ele>
        <time>2022-10-29T09:16:39Z</time>
      </trkpt>
      <trkpt lat="43.3507760" lon="-1.8359630">
        <ele>149.4</ele>
        <time>2022-10-29T09:16:41Z</time>
      </trkpt>
      <trkpt lat="43.3509240" lon="-1.8356570">
        <ele>149.4</ele>
        <time>2022-10-29T09:16:45Z</time>
      </trkpt>
      <trkpt lat="43.3510380" lon="-1.8354260">
        <ele>149.4</ele>
        <time>2022-10-29T09:16:48Z</time>
      </trkpt>
      <trkpt lat="43.3510900" lon="-1.8352410">
        <ele>149.4</ele>
        <time>2022-10-29T09:16:50Z</time>
      </trkpt>
      <trkpt lat="43.3511560" lon="-1.8348900">
        <ele>149.2</ele>
        <time>2022-10-29T09:16:54Z</time>
      </trkpt>
      <trkpt lat="43.3511960" lon="-1.8347210">
        <ele>148.8</ele>
        <time>2022-10-29T09:16:56Z</time>
      </trkpt>
      <trkpt lat="43.3512220" lon="-1.8346450">
        <ele>148.8</ele>
        <time>2022-10-29T09:16:57Z</time>
      </trkpt>
      <trkpt lat="43.3512470" lon="-1.8345710">
        <ele>148.6</ele>
        <time>2022-10-29T09:16:58Z</time>
      </trkpt>
      <trkpt lat="43.3512720" lon="-1.8344970">
        <ele>148.4</ele>
        <time>2022-10-29T09:16:59Z</time>
      </trkpt>
      <trkpt lat="43.3512940" lon="-1.8344170">
        <ele>148.4</ele>
        <time>2022-10-29T09:17:00Z</time>
      </trkpt>
      <trkpt lat="43.3513220" lon="-1.8343430">
        <ele>148.6</ele>
        <time>2022-10-29T09:17:01Z</time>
      </trkpt>
      <trkpt lat="43.3513470" lon="-1.8342620">
        <ele>148.6</ele>
        <time>2022-10-29T09:17:02Z</time>
      </trkpt>
      <trkpt lat="43.3513780" lon="-1.8341820">
        <ele>148.6</ele>
        <time>2022-10-29T09:17:03Z</time>
      </trkpt>
      <trkpt lat="43.3514170" lon="-1.8340990">
        <ele>148.6</ele>
        <time>2022-10-29T09:17:04Z</time>
      </trkpt>
      <trkpt lat="43.3514870" lon="-1.8339350">
        <ele>148.8</ele>
        <time>2022-10-29T09:17:06Z</time>
      </trkpt>
      <trkpt lat="43.3515280" lon="-1.8338700">
        <ele>148.8</ele>
        <time>2022-10-29T09:17:07Z</time>
      </trkpt>
      <trkpt lat="43.3515710" lon="-1.8338120">
        <ele>148.8</ele>
        <time>2022-10-29T09:17:08Z</time>
      </trkpt>
      <trkpt lat="43.3516150" lon="-1.8337670">
        <ele>148.8</ele>
        <time>2022-10-29T09:17:09Z</time>
      </trkpt>
      <trkpt lat="43.3516510" lon="-1.8337470">
        <ele>148.8</ele>
        <time>2022-10-29T09:17:10Z</time>
      </trkpt>
      <trkpt lat="43.3516970" lon="-1.8337240">
        <ele>148.8</ele>
        <time>2022-10-29T09:17:11Z</time>
      </trkpt>
      <trkpt lat="43.3517400" lon="-1.8337050">
        <ele>148.6</ele>
        <time>2022-10-29T09:17:12Z</time>
      </trkpt>
      <trkpt lat="43.3518000" lon="-1.8337020">
        <ele>148.6</ele>
        <time>2022-10-29T09:17:13Z</time>
      </trkpt>
      <trkpt lat="43.3518610" lon="-1.8336970">
        <ele>148.4</ele>
        <time>2022-10-29T09:17:14Z</time>
      </trkpt>
      <trkpt lat="43.3519260" lon="-1.8337060">
        <ele>148.2</ele>
        <time>2022-10-29T09:17:15Z</time>
      </trkpt>
      <trkpt lat="43.3520040" lon="-1.8337020">
        <ele>147.8</ele>
        <time>2022-10-29T09:17:16Z</time>
      </trkpt>
      <trkpt lat="43.3521190" lon="-1.8337060">
        <ele>147.6</ele>
        <time>2022-10-29T09:17:18Z</time>
      </trkpt>
      <trkpt lat="43.3521580" lon="-1.8337410">
        <ele>147.4</ele>
        <time>2022-10-29T09:17:19Z</time>
      </trkpt>
      <trkpt lat="43.3521940" lon="-1.8337820">
        <ele>147.4</ele>
        <time>2022-10-29T09:17:20Z</time>
      </trkpt>
      <trkpt lat="43.3522240" lon="-1.8338290">
        <ele>147.4</ele>
        <time>2022-10-29T09:17:21Z</time>
      </trkpt>
      <trkpt lat="43.3522510" lon="-1.8338860">
        <ele>147.4</ele>
        <time>2022-10-29T09:17:22Z</time>
      </trkpt>
      <trkpt lat="43.3522790" lon="-1.8339480">
        <ele>147.0</ele>
        <time>2022-10-29T09:17:23Z</time>
      </trkpt>
      <trkpt lat="43.3523060" lon="-1.8340090">
        <ele>147.0</ele>
        <time>2022-10-29T09:17:24Z</time>
      </trkpt>
      <trkpt lat="43.3523380" lon="-1.8340630">
        <ele>146.8</ele>
        <time>2022-10-29T09:17:25Z</time>
      </trkpt>
      <trkpt lat="43.3523750" lon="-1.8341210">
        <ele>146.6</ele>
        <time>2022-10-29T09:17:26Z</time>
      </trkpt>
      <trkpt lat="43.3524290" lon="-1.8342000">
        <ele>146.4</ele>
        <time>2022-10-29T09:17:27Z</time>
      </trkpt>
      <trkpt lat="43.3525250" lon="-1.8343290">
        <ele>146.2</ele>
        <time>2022-10-29T09:17:29Z</time>
      </trkpt>
      <trkpt lat="43.3525850" lon="-1.8343850">
        <ele>145.6</ele>
        <time>2022-10-29T09:17:30Z</time>
      </trkpt>
      <trkpt lat="43.3526380" lon="-1.8344170">
        <ele>145.4</ele>
        <time>2022-10-29T09:17:31Z</time>
      </trkpt>
      <trkpt lat="43.3526970" lon="-1.8344310">
        <ele>144.8</ele>
        <time>2022-10-29T09:17:32Z</time>
      </trkpt>
      <trkpt lat="43.3527580" lon="-1.8344400">
        <ele>144.6</ele>
        <time>2022-10-29T09:17:33Z</time>
      </trkpt>
      <trkpt lat="43.3528230" lon="-1.8344520">
        <ele>144.0</ele>
        <time>2022-10-29T09:17:34Z</time>
      </trkpt>
      <trkpt lat="43.3528810" lon="-1.8344710">
        <ele>143.8</ele>
        <time>2022-10-29T09:17:35Z</time>
      </trkpt>
      <trkpt lat="43.3529390" lon="-1.8344880">
        <ele>142.8</ele>
        <time>2022-10-29T09:17:36Z</time>
      </trkpt>
      <trkpt lat="43.3529970" lon="-1.8345100">
        <ele>142.2</ele>
        <time>2022-10-29T09:17:37Z</time>
      </trkpt>
      <trkpt lat="43.3531250" lon="-1.8345610">
        <ele>141.6</ele>
        <time>2022-10-29T09:17:39Z</time>
      </trkpt>
      <trkpt lat="43.3532150" lon="-1.8345900">
        <ele>141.0</ele>
        <time>2022-10-29T09:17:40Z</time>
      </trkpt>
      <trkpt lat="43.3532990" lon="-1.8346210">
        <ele>140.6</ele>
        <time>2022-10-29T09:17:41Z</time>
      </trkpt>
      <trkpt lat="43.3533640" lon="-1.8346340">
        <ele>140.0</ele>
        <time>2022-10-29T09:17:42Z</time>
      </trkpt>
      <trkpt lat="43.3534370" lon="-1.8346530">
        <ele>139.2</ele>
        <time>2022-10-29T09:17:43Z</time>
      </trkpt>
      <trkpt lat="43.3534970" lon="-1.8346500">
        <ele>138.8</ele>
        <time>2022-10-29T09:17:44Z</time>
      </trkpt>
      <trkpt lat="43.3535390" lon="-1.8346420">
        <ele>138.0</ele>
        <time>2022-10-29T09:17:45Z</time>
      </trkpt>
      <trkpt lat="43.3535900" lon="-1.8346310">
        <ele>137.6</ele>
        <time>2022-10-29T09:17:46Z</time>
      </trkpt>
      <trkpt lat="43.3536330" lon="-1.8346230">
        <ele>137.2</ele>
        <time>2022-10-29T09:17:47Z</time>
      </trkpt>
      <trkpt lat="43.3536680" lon="-1.8346170">
        <ele>137.0</ele>
        <time>2022-10-29T09:17:48Z</time>
      </trkpt>
      <trkpt lat="43.3537000" lon="-1.8346200">
        <ele>136.6</ele>
        <time>2022-10-29T09:17:49Z</time>
      </trkpt>
      <trkpt lat="43.3537270" lon="-1.8346190">
        <ele>136.4</ele>
        <time>2022-10-29T09:17:50Z</time>
      </trkpt>
      <trkpt lat="43.3537590" lon="-1.8346130">
        <ele>136.2</ele>
        <time>2022-10-29T09:17:51Z</time>
      </trkpt>
      <trkpt lat="43.3537910" lon="-1.8346050">
        <ele>135.8</ele>
        <time>2022-10-29T09:17:52Z</time>
      </trkpt>
      <trkpt lat="43.3538230" lon="-1.8345950">
        <ele>135.4</ele>
        <time>2022-10-29T09:17:53Z</time>
      </trkpt>
      <trkpt lat="43.3538580" lon="-1.8345790">
        <ele>135.2</ele>
        <time>2022-10-29T09:17:54Z</time>
      </trkpt>
      <trkpt lat="43.3538820" lon="-1.8345340">
        <ele>135.0</ele>
        <time>2022-10-29T09:17:55Z</time>
      </trkpt>
      <trkpt lat="43.3538990" lon="-1.8344610">
        <ele>134.6</ele>
        <time>2022-10-29T09:17:56Z</time>
      </trkpt>
      <trkpt lat="43.3539450" lon="-1.8342250">
        <ele>134.2</ele>
        <time>2022-10-29T09:17:59Z</time>
      </trkpt>
      <trkpt lat="43.3539510" lon="-1.8341510">
        <ele>134.2</ele>
        <time>2022-10-29T09:18:00Z</time>
      </trkpt>
      <trkpt lat="43.3539580" lon="-1.8340430">
        <ele>134.2</ele>
        <time>2022-10-29T09:18:01Z</time>
      </trkpt>
      <trkpt lat="43.3539630" lon="-1.8339330">
        <ele>134.4</ele>
        <time>2022-10-29T09:18:03Z</time>
      </trkpt>
      <trkpt lat="43.3539600" lon="-1.8338910">
        <ele>134.4</ele>
        <time>2022-10-29T09:18:04Z</time>
      </trkpt>
      <trkpt lat="43.3539700" lon="-1.8338460">
        <ele>134.6</ele>
        <time>2022-10-29T09:18:05Z</time>
      </trkpt>
      <trkpt lat="43.3539810" lon="-1.8337950">
        <ele>134.6</ele>
        <time>2022-10-29T09:18:06Z</time>
      </trkpt>
      <trkpt lat="43.3539860" lon="-1.8337240">
        <ele>134.8</ele>
        <time>2022-10-29T09:18:07Z</time>
      </trkpt>
      <trkpt lat="43.3539960" lon="-1.8336380">
        <ele>135.2</ele>
        <time>2022-10-29T09:18:09Z</time>
      </trkpt>
      <trkpt lat="43.3539970" lon="-1.8335970">
        <ele>135.6</ele>
        <time>2022-10-29T09:18:10Z</time>
      </trkpt>
      <trkpt lat="43.3539950" lon="-1.8335500">
        <ele>135.6</ele>
        <time>2022-10-29T09:18:11Z</time>
      </trkpt>
      <trkpt lat="43.3539950" lon="-1.8335070">
        <ele>135.6</ele>
        <time>2022-10-29T09:18:12Z</time>
      </trkpt>
      <trkpt lat="43.3539780" lon="-1.8334480">
        <ele>135.8</ele>
        <time>2022-10-29T09:18:13Z</time>
      </trkpt>
      <trkpt lat="43.3539740" lon="-1.8333800">
        <ele>136.4</ele>
        <time>2022-10-29T09:18:14Z</time>
      </trkpt>
      <trkpt lat="43.3539590" lon="-1.8333110">
        <ele>136.4</ele>
        <time>2022-10-29T09:18:15Z</time>
      </trkpt>
      <trkpt lat="43.3539540" lon="-1.8332650">
        <ele>136.8</ele>
        <time>2022-10-29T09:18:16Z</time>
      </trkpt>
      <trkpt lat="43.3539650" lon="-1.8332250">
        <ele>136.8</ele>
        <time>2022-10-29T09:18:17Z</time>
      </trkpt>
      <trkpt lat="43.3539730" lon="-1.8331900">
        <ele>136.8</ele>
        <time>2022-10-29T09:18:18Z</time>
      </trkpt>
      <trkpt lat="43.3539670" lon="-1.8331450">
        <ele>137.0</ele>
        <time>2022-10-29T09:18:19Z</time>
      </trkpt>
      <trkpt lat="43.3539660" lon="-1.8330590">
        <ele>137.0</ele>
        <time>2022-10-29T09:18:20Z</time>
      </trkpt>
      <trkpt lat="43.3539700" lon="-1.8330080">
        <ele>137.2</ele>
        <time>2022-10-29T09:18:21Z</time>
      </trkpt>
      <trkpt lat="43.3540000" lon="-1.8328240">
        <ele>137.4</ele>
        <time>2022-10-29T09:18:24Z</time>
      </trkpt>
      <trkpt lat="43.3540070" lon="-1.8327720">
        <ele>137.6</ele>
        <time>2022-10-29T09:18:25Z</time>
      </trkpt>
      <trkpt lat="43.3540260" lon="-1.8325990">
        <ele>137.8</ele>
        <time>2022-10-29T09:18:28Z</time>
      </trkpt>
      <trkpt lat="43.3540970" lon="-1.8324290">
        <ele>138.2</ele>
        <time>2022-10-29T09:18:31Z</time>
      </trkpt>
      <trkpt lat="43.3541070" lon="-1.8323720">
        <ele>138.6</ele>
        <time>2022-10-29T09:18:32Z</time>
      </trkpt>
      <trkpt lat="43.3541710" lon="-1.8322830">
        <ele>138.8</ele>
        <time>2022-10-29T09:18:34Z</time>
      </trkpt>
      <trkpt lat="43.3541880" lon="-1.8322400">
        <ele>138.8</ele>
        <time>2022-10-29T09:18:35Z</time>
      </trkpt>
      <trkpt lat="43.3542140" lon="-1.8321740">
        <ele>139.0</ele>
        <time>2022-10-29T09:18:36Z</time>
      </trkpt>
      <trkpt lat="43.3542360" lon="-1.8321130">
        <ele>139.0</ele>
        <time>2022-10-29T09:18:37Z</time>
      </trkpt>
      <trkpt lat="43.3542470" lon="-1.8320430">
        <ele>139.2</ele>
        <time>2022-10-29T09:18:38Z</time>
      </trkpt>
      <trkpt lat="43.3542480" lon="-1.8319900">
        <ele>139.4</ele>
        <time>2022-10-29T09:18:39Z</time>
      </trkpt>
      <trkpt lat="43.3542520" lon="-1.8319280">
        <ele>139.6</ele>
        <time>2022-10-29T09:18:40Z</time>
      </trkpt>
      <trkpt lat="43.3542600" lon="-1.8318600">
        <ele>139.6</ele>
        <time>2022-10-29T09:18:41Z</time>
      </trkpt>
      <trkpt lat="43.3542670" lon="-1.8318220">
        <ele>139.6</ele>
        <time>2022-10-29T09:18:42Z</time>
      </trkpt>
      <trkpt lat="43.3542750" lon="-1.8317790">
        <ele>139.6</ele>
        <time>2022-10-29T09:18:43Z</time>
      </trkpt>
      <trkpt lat="43.3542760" lon="-1.8317170">
        <ele>139.8</ele>
        <time>2022-10-29T09:18:44Z</time>
      </trkpt>
      <trkpt lat="43.3542950" lon="-1.8316720">
        <ele>139.8</ele>
        <time>2022-10-29T09:18:45Z</time>
      </trkpt>
      <trkpt lat="43.3543030" lon="-1.8316210">
        <ele>139.8</ele>
        <time>2022-10-29T09:18:46Z</time>
      </trkpt>
      <trkpt lat="43.3543110" lon="-1.8315450">
        <ele>139.8</ele>
        <time>2022-10-29T09:18:47Z</time>
      </trkpt>
      <trkpt lat="43.3543270" lon="-1.8314720">
        <ele>139.8</ele>
        <time>2022-10-29T09:18:48Z</time>
      </trkpt>
      <trkpt lat="43.3543360" lon="-1.8314040">
        <ele>139.8</ele>
        <time>2022-10-29T09:18:49Z</time>
      </trkpt>
      <trkpt lat="43.3543360" lon="-1.8313570">
        <ele>140.0</ele>
        <time>2022-10-29T09:18:50Z</time>
      </trkpt>
      <trkpt lat="43.3543530" lon="-1.8313200">
        <ele>140.0</ele>
        <time>2022-10-29T09:18:51Z</time>
      </trkpt>
      <trkpt lat="43.3543730" lon="-1.8312710">
        <ele>140.0</ele>
        <time>2022-10-29T09:18:52Z</time>
      </trkpt>
      <trkpt lat="43.3543860" lon="-1.8311920">
        <ele>140.2</ele>
        <time>2022-10-29T09:18:53Z</time>
      </trkpt>
      <trkpt lat="43.3544220" lon="-1.8310540">
        <ele>140.4</ele>
        <time>2022-10-29T09:18:55Z</time>
      </trkpt>
      <trkpt lat="43.3544420" lon="-1.8310010">
        <ele>140.6</ele>
        <time>2022-10-29T09:18:56Z</time>
      </trkpt>
      <trkpt lat="43.3545000" lon="-1.8309190">
        <ele>140.8</ele>
        <time>2022-10-29T09:18:58Z</time>
      </trkpt>
      <trkpt lat="43.3545280" lon="-1.8308760">
        <ele>141.0</ele>
        <time>2022-10-29T09:18:59Z</time>
      </trkpt>
      <trkpt lat="43.3545590" lon="-1.8307990">
        <ele>141.0</ele>
        <time>2022-10-29T09:19:00Z</time>
      </trkpt>
      <trkpt lat="43.3547120" lon="-1.8306990">
        <ele>141.8</ele>
        <time>2022-10-29T09:19:04Z</time>
      </trkpt>
      <trkpt lat="43.3547650" lon="-1.8306980">
        <ele>141.8</ele>
        <time>2022-10-29T09:19:05Z</time>
      </trkpt>
      <trkpt lat="43.3548130" lon="-1.8307050">
        <ele>142.0</ele>
        <time>2022-10-29T09:19:06Z</time>
      </trkpt>
      <trkpt lat="43.3548590" lon="-1.8307180">
        <ele>142.0</ele>
        <time>2022-10-29T09:19:07Z</time>
      </trkpt>
      <trkpt lat="43.3549040" lon="-1.8307400">
        <ele>142.0</ele>
        <time>2022-10-29T09:19:08Z</time>
      </trkpt>
      <trkpt lat="43.3549500" lon="-1.8307640">
        <ele>142.0</ele>
        <time>2022-10-29T09:19:09Z</time>
      </trkpt>
      <trkpt lat="43.3549950" lon="-1.8307880">
        <ele>142.0</ele>
        <time>2022-10-29T09:19:10Z</time>
      </trkpt>
      <trkpt lat="43.3550400" lon="-1.8308080">
        <ele>142.0</ele>
        <time>2022-10-29T09:19:11Z</time>
      </trkpt>
      <trkpt lat="43.3550840" lon="-1.8308360">
        <ele>142.0</ele>
        <time>2022-10-29T09:19:12Z</time>
      </trkpt>
      <trkpt lat="43.3551220" lon="-1.8308760">
        <ele>142.0</ele>
        <time>2022-10-29T09:19:13Z</time>
      </trkpt>
      <trkpt lat="43.3551600" lon="-1.8309230">
        <ele>142.0</ele>
        <time>2022-10-29T09:19:14Z</time>
      </trkpt>
      <trkpt lat="43.3552520" lon="-1.8310270">
        <ele>142.0</ele>
        <time>2022-10-29T09:19:16Z</time>
      </trkpt>
      <trkpt lat="43.3553530" lon="-1.8311020">
        <ele>142.2</ele>
        <time>2022-10-29T09:19:18Z</time>
      </trkpt>
      <trkpt lat="43.3554600" lon="-1.8311380">
        <ele>142.4</ele>
        <time>2022-10-29T09:19:20Z</time>
      </trkpt>
      <trkpt lat="43.3555090" lon="-1.8311500">
        <ele>142.4</ele>
        <time>2022-10-29T09:19:21Z</time>
      </trkpt>
      <trkpt lat="43.3555620" lon="-1.8311600">
        <ele>142.6</ele>
        <time>2022-10-29T09:19:22Z</time>
      </trkpt>
      <trkpt lat="43.3556170" lon="-1.8311670">
        <ele>142.6</ele>
        <time>2022-10-29T09:19:23Z</time>
      </trkpt>
      <trkpt lat="43.3556740" lon="-1.8311760">
        <ele>142.6</ele>
        <time>2022-10-29T09:19:24Z</time>
      </trkpt>
      <trkpt lat="43.3557810" lon="-1.8311820">
        <ele>143.0</ele>
        <time>2022-10-29T09:19:26Z</time>
      </trkpt>
      <trkpt lat="43.3558400" lon="-1.8311760">
        <ele>143.0</ele>
        <time>2022-10-29T09:19:27Z</time>
      </trkpt>
      <trkpt lat="43.3558960" lon="-1.8311660">
        <ele>143.0</ele>
        <time>2022-10-29T09:19:28Z</time>
      </trkpt>
      <trkpt lat="43.3559410" lon="-1.8311410">
        <ele>143.0</ele>
        <time>2022-10-29T09:19:29Z</time>
      </trkpt>
      <trkpt lat="43.3559870" lon="-1.8311000">
        <ele>143.0</ele>
        <time>2022-10-29T09:19:30Z</time>
      </trkpt>
      <trkpt lat="43.3560330" lon="-1.8310330">
        <ele>143.0</ele>
        <time>2022-10-29T09:19:31Z</time>
      </trkpt>
      <trkpt lat="43.3560710" lon="-1.8309670">
        <ele>142.8</ele>
        <time>2022-10-29T09:19:32Z</time>
      </trkpt>
      <trkpt lat="43.3561040" lon="-1.8309120">
        <ele>142.6</ele>
        <time>2022-10-29T09:19:33Z</time>
      </trkpt>
      <trkpt lat="43.3561420" lon="-1.8308530">
        <ele>142.4</ele>
        <time>2022-10-29T09:19:34Z</time>
      </trkpt>
      <trkpt lat="43.3561940" lon="-1.8308010">
        <ele>142.4</ele>
        <time>2022-10-29T09:19:35Z</time>
      </trkpt>
      <trkpt lat="43.3562370" lon="-1.8307720">
        <ele>142.4</ele>
        <time>2022-10-29T09:19:36Z</time>
      </trkpt>
      <trkpt lat="43.3562740" lon="-1.8307440">
        <ele>142.4</ele>
        <time>2022-10-29T09:19:37Z</time>
      </trkpt>
      <trkpt lat="43.3562940" lon="-1.8307180">
        <ele>142.4</ele>
        <time>2022-10-29T09:19:38Z</time>
      </trkpt>
      <trkpt lat="43.3563150" lon="-1.8306840">
        <ele>142.4</ele>
        <time>2022-10-29T09:19:39Z</time>
      </trkpt>
      <trkpt lat="43.3563260" lon="-1.8306670">
        <ele>142.4</ele>
        <time>2022-10-29T09:19:40Z</time>
      </trkpt>
      <trkpt lat="43.3563400" lon="-1.8306400">
        <ele>142.4</ele>
        <time>2022-10-29T09:19:41Z</time>
      </trkpt>
      <trkpt lat="43.3563610" lon="-1.8305880">
        <ele>142.4</ele>
        <time>2022-10-29T09:19:42Z</time>
      </trkpt>
      <trkpt lat="43.3563980" lon="-1.8305510">
        <ele>142.4</ele>
        <time>2022-10-29T09:19:43Z</time>
      </trkpt>
      <trkpt lat="43.3564220" lon="-1.8305110">
        <ele>142.6</ele>
        <time>2022-10-29T09:19:44Z</time>
      </trkpt>
      <trkpt lat="43.3564990" lon="-1.8303210">
        <ele>142.6</ele>
        <time>2022-10-29T09:19:47Z</time>
      </trkpt>
      <trkpt lat="43.3565220" lon="-1.8302030">
        <ele>142.6</ele>
        <time>2022-10-29T09:19:48Z</time>
      </trkpt>
      <trkpt lat="43.3565740" lon="-1.8300970">
        <ele>142.6</ele>
        <time>2022-10-29T09:19:50Z</time>
      </trkpt>
      <trkpt lat="43.3566050" lon="-1.8300280">
        <ele>142.6</ele>
        <time>2022-10-29T09:19:51Z</time>
      </trkpt>
      <trkpt lat="43.3566240" lon="-1.8299530">
        <ele>142.6</ele>
        <time>2022-10-29T09:19:52Z</time>
      </trkpt>
      <trkpt lat="43.3566470" lon="-1.8298550">
        <ele>142.6</ele>
        <time>2022-10-29T09:19:53Z</time>
      </trkpt>
      <trkpt lat="43.3566700" lon="-1.8296960">
        <ele>143.0</ele>
        <time>2022-10-29T09:19:55Z</time>
      </trkpt>
      <trkpt lat="43.3566840" lon="-1.8296380">
        <ele>142.8</ele>
        <time>2022-10-29T09:19:56Z</time>
      </trkpt>
      <trkpt lat="43.3566940" lon="-1.8295880">
        <ele>142.8</ele>
        <time>2022-10-29T09:19:57Z</time>
      </trkpt>
      <trkpt lat="43.3566970" lon="-1.8295460">
        <ele>142.8</ele>
        <time>2022-10-29T09:19:58Z</time>
      </trkpt>
      <trkpt lat="43.3566970" lon="-1.8295090">
        <ele>143.0</ele>
        <time>2022-10-29T09:19:59Z</time>
      </trkpt>
      <trkpt lat="43.3567030" lon="-1.8294590">
        <ele>143.0</ele>
        <time>2022-10-29T09:20:00Z</time>
      </trkpt>
      <trkpt lat="43.3566930" lon="-1.8294050">
        <ele>143.0</ele>
        <time>2022-10-29T09:20:01Z</time>
      </trkpt>
      <trkpt lat="43.3566770" lon="-1.8292870">
        <ele>143.2</ele>
        <time>2022-10-29T09:20:03Z</time>
      </trkpt>
      <trkpt lat="43.3567310" lon="-1.8290900">
        <ele>143.4</ele>
        <time>2022-10-29T09:20:06Z</time>
      </trkpt>
      <trkpt lat="43.3567410" lon="-1.8290510">
        <ele>143.4</ele>
        <time>2022-10-29T09:20:07Z</time>
      </trkpt>
      <trkpt lat="43.3567530" lon="-1.8290020">
        <ele>143.4</ele>
        <time>2022-10-29T09:20:08Z</time>
      </trkpt>
      <trkpt lat="43.3567580" lon="-1.8289410">
        <ele>143.6</ele>
        <time>2022-10-29T09:20:09Z</time>
      </trkpt>
      <trkpt lat="43.3567730" lon="-1.8287170">
        <ele>144.0</ele>
        <time>2022-10-29T09:20:12Z</time>
      </trkpt>
      <trkpt lat="43.3567810" lon="-1.8286450">
        <ele>144.2</ele>
        <time>2022-10-29T09:20:13Z</time>
      </trkpt>
      <trkpt lat="43.3568530" lon="-1.8284690">
        <ele>144.6</ele>
        <time>2022-10-29T09:20:17Z</time>
      </trkpt>
      <trkpt lat="43.3568830" lon="-1.8284470">
        <ele>144.8</ele>
        <time>2022-10-29T09:20:18Z</time>
      </trkpt>
      <trkpt lat="43.3569220" lon="-1.8284110">
        <ele>145.0</ele>
        <time>2022-10-29T09:20:19Z</time>
      </trkpt>
      <trkpt lat="43.3569610" lon="-1.8283960">
        <ele>145.2</ele>
        <time>2022-10-29T09:20:20Z</time>
      </trkpt>
      <trkpt lat="43.3570010" lon="-1.8284010">
        <ele>145.2</ele>
        <time>2022-10-29T09:20:21Z</time>
      </trkpt>
      <trkpt lat="43.3570460" lon="-1.8284110">
        <ele>145.2</ele>
        <time>2022-10-29T09:20:22Z</time>
      </trkpt>
      <trkpt lat="43.3570890" lon="-1.8284230">
        <ele>145.6</ele>
        <time>2022-10-29T09:20:23Z</time>
      </trkpt>
      <trkpt lat="43.3571320" lon="-1.8284340">
        <ele>145.6</ele>
        <time>2022-10-29T09:20:24Z</time>
      </trkpt>
      <trkpt lat="43.3571690" lon="-1.8284440">
        <ele>145.8</ele>
        <time>2022-10-29T09:20:25Z</time>
      </trkpt>
      <trkpt lat="43.3572340" lon="-1.8284400">
        <ele>146.0</ele>
        <time>2022-10-29T09:20:27Z</time>
      </trkpt>
      <trkpt lat="43.3572700" lon="-1.8284380">
        <ele>146.2</ele>
        <time>2022-10-29T09:20:28Z</time>
      </trkpt>
      <trkpt lat="43.3573070" lon="-1.8284340">
        <ele>146.4</ele>
        <time>2022-10-29T09:20:29Z</time>
      </trkpt>
      <trkpt lat="43.3573420" lon="-1.8284350">
        <ele>146.4</ele>
        <time>2022-10-29T09:20:30Z</time>
      </trkpt>
      <trkpt lat="43.3573740" lon="-1.8284350">
        <ele>146.6</ele>
        <time>2022-10-29T09:20:31Z</time>
      </trkpt>
      <trkpt lat="43.3574060" lon="-1.8284410">
        <ele>146.8</ele>
        <time>2022-10-29T09:20:32Z</time>
      </trkpt>
      <trkpt lat="43.3574390" lon="-1.8284380">
        <ele>146.8</ele>
        <time>2022-10-29T09:20:33Z</time>
      </trkpt>
      <trkpt lat="43.3574740" lon="-1.8284420">
        <ele>146.8</ele>
        <time>2022-10-29T09:20:34Z</time>
      </trkpt>
      <trkpt lat="43.3575030" lon="-1.8284490">
        <ele>147.0</ele>
        <time>2022-10-29T09:20:35Z</time>
      </trkpt>
      <trkpt lat="43.3575330" lon="-1.8284550">
        <ele>147.0</ele>
        <time>2022-10-29T09:20:36Z</time>
      </trkpt>
      <trkpt lat="43.3575620" lon="-1.8284580">
        <ele>147.0</ele>
        <time>2022-10-29T09:20:37Z</time>
      </trkpt>
      <trkpt lat="43.3575880" lon="-1.8284550">
        <ele>147.0</ele>
        <time>2022-10-29T09:20:38Z</time>
      </trkpt>
      <trkpt lat="43.3576210" lon="-1.8284480">
        <ele>147.2</ele>
        <time>2022-10-29T09:20:39Z</time>
      </trkpt>
      <trkpt lat="43.3576530" lon="-1.8284380">
        <ele>147.2</ele>
        <time>2022-10-29T09:20:40Z</time>
      </trkpt>
      <trkpt lat="43.3576930" lon="-1.8284200">
        <ele>147.4</ele>
        <time>2022-10-29T09:20:41Z</time>
      </trkpt>
      <trkpt lat="43.3577310" lon="-1.8283970">
        <ele>147.6</ele>
        <time>2022-10-29T09:20:42Z</time>
      </trkpt>
      <trkpt lat="43.3577750" lon="-1.8283550">
        <ele>147.6</ele>
        <time>2022-10-29T09:20:43Z</time>
      </trkpt>
      <trkpt lat="43.3578240" lon="-1.8283010">
        <ele>147.6</ele>
        <time>2022-10-29T09:20:44Z</time>
      </trkpt>
      <trkpt lat="43.3578850" lon="-1.8282150">
        <ele>147.6</ele>
        <time>2022-10-29T09:20:45Z</time>
      </trkpt>
      <trkpt lat="43.3579380" lon="-1.8281170">
        <ele>147.6</ele>
        <time>2022-10-29T09:20:46Z</time>
      </trkpt>
      <trkpt lat="43.3579830" lon="-1.8280430">
        <ele>147.6</ele>
        <time>2022-10-29T09:20:47Z</time>
      </trkpt>
      <trkpt lat="43.3580120" lon="-1.8279540">
        <ele>147.8</ele>
        <time>2022-10-29T09:20:48Z</time>
      </trkpt>
      <trkpt lat="43.3580480" lon="-1.8278350">
        <ele>147.8</ele>
        <time>2022-10-29T09:20:49Z</time>
      </trkpt>
      <trkpt lat="43.3581710" lon="-1.8275710">
        <ele>148.0</ele>
        <time>2022-10-29T09:20:52Z</time>
      </trkpt>
      <trkpt lat="43.3582140" lon="-1.8274920">
        <ele>148.0</ele>
        <time>2022-10-29T09:20:53Z</time>
      </trkpt>
      <trkpt lat="43.3583110" lon="-1.8272350">
        <ele>148.0</ele>
        <time>2022-10-29T09:20:56Z</time>
      </trkpt>
      <trkpt lat="43.3583250" lon="-1.8271420">
        <ele>148.0</ele>
        <time>2022-10-29T09:20:57Z</time>
      </trkpt>
      <trkpt lat="43.3583360" lon="-1.8270630">
        <ele>148.0</ele>
        <time>2022-10-29T09:20:58Z</time>
      </trkpt>
      <trkpt lat="43.3583500" lon="-1.8269490">
        <ele>148.2</ele>
        <time>2022-10-29T09:20:59Z</time>
      </trkpt>
      <trkpt lat="43.3583670" lon="-1.8268870">
        <ele>148.4</ele>
        <time>2022-10-29T09:21:00Z</time>
      </trkpt>
      <trkpt lat="43.3584150" lon="-1.8268090">
        <ele>148.4</ele>
        <time>2022-10-29T09:21:01Z</time>
      </trkpt>
      <trkpt lat="43.3584430" lon="-1.8267340">
        <ele>148.4</ele>
        <time>2022-10-29T09:21:02Z</time>
      </trkpt>
      <trkpt lat="43.3585050" lon="-1.8264990">
        <ele>148.4</ele>
        <time>2022-10-29T09:21:05Z</time>
      </trkpt>
      <trkpt lat="43.3585280" lon="-1.8263550">
        <ele>148.6</ele>
        <time>2022-10-29T09:21:07Z</time>
      </trkpt>
      <trkpt lat="43.3585490" lon="-1.8262930">
        <ele>148.6</ele>
        <time>2022-10-29T09:21:08Z</time>
      </trkpt>
      <trkpt lat="43.3585820" lon="-1.8262330">
        <ele>148.6</ele>
        <time>2022-10-29T09:21:09Z</time>
      </trkpt>
      <trkpt lat="43.3586240" lon="-1.8261860">
        <ele>148.6</ele>
        <time>2022-10-29T09:21:10Z</time>
      </trkpt>
      <trkpt lat="43.3586780" lon="-1.8261600">
        <ele>148.6</ele>
        <time>2022-10-29T09:21:11Z</time>
      </trkpt>
      <trkpt lat="43.3587140" lon="-1.8261510">
        <ele>148.6</ele>
        <time>2022-10-29T09:21:12Z</time>
      </trkpt>
      <trkpt lat="43.3587570" lon="-1.8261450">
        <ele>148.8</ele>
        <time>2022-10-29T09:21:13Z</time>
      </trkpt>
      <trkpt lat="43.3587990" lon="-1.8261610">
        <ele>148.8</ele>
        <time>2022-10-29T09:21:14Z</time>
      </trkpt>
      <trkpt lat="43.3588390" lon="-1.8261890">
        <ele>149.0</ele>
        <time>2022-10-29T09:21:15Z</time>
      </trkpt>
      <trkpt lat="43.3588840" lon="-1.8262190">
        <ele>149.0</ele>
        <time>2022-10-29T09:21:16Z</time>
      </trkpt>
      <trkpt lat="43.3589310" lon="-1.8262460">
        <ele>149.2</ele>
        <time>2022-10-29T09:21:17Z</time>
      </trkpt>
      <trkpt lat="43.3589840" lon="-1.8262730">
        <ele>149.4</ele>
        <time>2022-10-29T09:21:18Z</time>
      </trkpt>
      <trkpt lat="43.3590400" lon="-1.8263010">
        <ele>149.6</ele>
        <time>2022-10-29T09:21:19Z</time>
      </trkpt>
      <trkpt lat="43.3590740" lon="-1.8263130">
        <ele>149.8</ele>
        <time>2022-10-29T09:21:20Z</time>
      </trkpt>
      <trkpt lat="43.3591150" lon="-1.8263080">
        <ele>149.8</ele>
        <time>2022-10-29T09:21:21Z</time>
      </trkpt>
      <trkpt lat="43.3591720" lon="-1.8263040">
        <ele>150.0</ele>
        <time>2022-10-29T09:21:22Z</time>
      </trkpt>
      <trkpt lat="43.3592270" lon="-1.8263000">
        <ele>150.2</ele>
        <time>2022-10-29T09:21:23Z</time>
      </trkpt>
      <trkpt lat="43.3592850" lon="-1.8262920">
        <ele>150.4</ele>
        <time>2022-10-29T09:21:24Z</time>
      </trkpt>
      <trkpt lat="43.3593580" lon="-1.8262760">
        <ele>150.6</ele>
        <time>2022-10-29T09:21:25Z</time>
      </trkpt>
      <trkpt lat="43.3594940" lon="-1.8262440">
        <ele>151.2</ele>
        <time>2022-10-29T09:21:27Z</time>
      </trkpt>
      <trkpt lat="43.3595530" lon="-1.8262130">
        <ele>151.2</ele>
        <time>2022-10-29T09:21:28Z</time>
      </trkpt>
      <trkpt lat="43.3596010" lon="-1.8261660">
        <ele>151.2</ele>
        <time>2022-10-29T09:21:29Z</time>
      </trkpt>
      <trkpt lat="43.3596590" lon="-1.8261120">
        <ele>151.4</ele>
        <time>2022-10-29T09:21:30Z</time>
      </trkpt>
      <trkpt lat="43.3596940" lon="-1.8260460">
        <ele>151.4</ele>
        <time>2022-10-29T09:21:31Z</time>
      </trkpt>
      <trkpt lat="43.3597400" lon="-1.8259910">
        <ele>151.6</ele>
        <time>2022-10-29T09:21:32Z</time>
      </trkpt>
      <trkpt lat="43.3597790" lon="-1.8259330">
        <ele>151.6</ele>
        <time>2022-10-29T09:21:33Z</time>
      </trkpt>
      <trkpt lat="43.3598120" lon="-1.8258650">
        <ele>151.6</ele>
        <time>2022-10-29T09:21:34Z</time>
      </trkpt>
      <trkpt lat="43.3598460" lon="-1.8257940">
        <ele>151.8</ele>
        <time>2022-10-29T09:21:35Z</time>
      </trkpt>
      <trkpt lat="43.3598860" lon="-1.8257060">
        <ele>152.0</ele>
        <time>2022-10-29T09:21:36Z</time>
      </trkpt>
      <trkpt lat="43.3599310" lon="-1.8256390">
        <ele>152.2</ele>
        <time>2022-10-29T09:21:37Z</time>
      </trkpt>
      <trkpt lat="43.3599620" lon="-1.8255630">
        <ele>152.2</ele>
        <time>2022-10-29T09:21:38Z</time>
      </trkpt>
      <trkpt lat="43.3599850" lon="-1.8254670">
        <ele>152.4</ele>
        <time>2022-10-29T09:21:39Z</time>
      </trkpt>
      <trkpt lat="43.3600100" lon="-1.8253920">
        <ele>152.4</ele>
        <time>2022-10-29T09:21:40Z</time>
      </trkpt>
      <trkpt lat="43.3600320" lon="-1.8253300">
        <ele>152.4</ele>
        <time>2022-10-29T09:21:41Z</time>
      </trkpt>
      <trkpt lat="43.3601360" lon="-1.8252680">
        <ele>152.2</ele>
        <time>2022-10-29T09:21:42Z</time>
      </trkpt>
      <trkpt lat="43.3601760" lon="-1.8252310">
        <ele>152.2</ele>
        <time>2022-10-29T09:21:43Z</time>
      </trkpt>
      <trkpt lat="43.3602190" lon="-1.8251900">
        <ele>152.2</ele>
        <time>2022-10-29T09:21:44Z</time>
      </trkpt>
      <trkpt lat="43.3602650" lon="-1.8251440">
        <ele>152.2</ele>
        <time>2022-10-29T09:21:45Z</time>
      </trkpt>
      <trkpt lat="43.3602860" lon="-1.8251200">
        <ele>152.2</ele>
        <time>2022-10-29T09:21:46Z</time>
      </trkpt>
      <trkpt lat="43.3603230" lon="-1.8250850">
        <ele>152.4</ele>
        <time>2022-10-29T09:21:47Z</time>
      </trkpt>
      <trkpt lat="43.3603570" lon="-1.8250450">
        <ele>152.2</ele>
        <time>2022-10-29T09:21:48Z</time>
      </trkpt>
      <trkpt lat="43.3603920" lon="-1.8250010">
        <ele>152.2</ele>
        <time>2022-10-29T09:21:49Z</time>
      </trkpt>
      <trkpt lat="43.3604460" lon="-1.8248970">
        <ele>152.0</ele>
        <time>2022-10-29T09:21:51Z</time>
      </trkpt>
      <trkpt lat="43.3604860" lon="-1.8248550">
        <ele>152.0</ele>
        <time>2022-10-29T09:21:52Z</time>
      </trkpt>
      <trkpt lat="43.3605770" lon="-1.8248110">
        <ele>152.0</ele>
        <time>2022-10-29T09:21:54Z</time>
      </trkpt>
      <trkpt lat="43.3606180" lon="-1.8248060">
        <ele>152.0</ele>
        <time>2022-10-29T09:21:55Z</time>
      </trkpt>
      <trkpt lat="43.3607090" lon="-1.8248280">
        <ele>152.0</ele>
        <time>2022-10-29T09:21:57Z</time>
      </trkpt>
      <trkpt lat="43.3607790" lon="-1.8248400">
        <ele>152.0</ele>
        <time>2022-10-29T09:21:58Z</time>
      </trkpt>
      <trkpt lat="43.3608880" lon="-1.8248610">
        <ele>152.0</ele>
        <time>2022-10-29T09:22:00Z</time>
      </trkpt>
      <trkpt lat="43.3610030" lon="-1.8248450">
        <ele>152.4</ele>
        <time>2022-10-29T09:22:02Z</time>
      </trkpt>
      <trkpt lat="43.3611120" lon="-1.8248140">
        <ele>152.2</ele>
        <time>2022-10-29T09:22:04Z</time>
      </trkpt>
      <trkpt lat="43.3611750" lon="-1.8248000">
        <ele>152.2</ele>
        <time>2022-10-29T09:22:05Z</time>
      </trkpt>
      <trkpt lat="43.3612400" lon="-1.8247910">
        <ele>152.2</ele>
        <time>2022-10-29T09:22:06Z</time>
      </trkpt>
      <trkpt lat="43.3613790" lon="-1.8247750">
        <ele>152.2</ele>
        <time>2022-10-29T09:22:08Z</time>
      </trkpt>
      <trkpt lat="43.3615910" lon="-1.8247220">
        <ele>152.2</ele>
        <time>2022-10-29T09:22:11Z</time>
      </trkpt>
      <trkpt lat="43.3616590" lon="-1.8246950">
        <ele>152.2</ele>
        <time>2022-10-29T09:22:12Z</time>
      </trkpt>
      <trkpt lat="43.3617080" lon="-1.8246700">
        <ele>152.4</ele>
        <time>2022-10-29T09:22:13Z</time>
      </trkpt>
      <trkpt lat="43.3617830" lon="-1.8246310">
        <ele>152.4</ele>
        <time>2022-10-29T09:22:14Z</time>
      </trkpt>
      <trkpt lat="43.3618340" lon="-1.8246000">
        <ele>152.4</ele>
        <time>2022-10-29T09:22:15Z</time>
      </trkpt>
      <trkpt lat="43.3619360" lon="-1.8245260">
        <ele>152.8</ele>
        <time>2022-10-29T09:22:17Z</time>
      </trkpt>
      <trkpt lat="43.3619840" lon="-1.8244970">
        <ele>152.8</ele>
        <time>2022-10-29T09:22:18Z</time>
      </trkpt>
      <trkpt lat="43.3620200" lon="-1.8244490">
        <ele>153.2</ele>
        <time>2022-10-29T09:22:19Z</time>
      </trkpt>
      <trkpt lat="43.3620510" lon="-1.8243660">
        <ele>153.6</ele>
        <time>2022-10-29T09:22:20Z</time>
      </trkpt>
      <trkpt lat="43.3620530" lon="-1.8243160">
        <ele>153.8</ele>
        <time>2022-10-29T09:22:21Z</time>
      </trkpt>
      <trkpt lat="43.3620600" lon="-1.8242730">
        <ele>153.8</ele>
        <time>2022-10-29T09:22:22Z</time>
      </trkpt>
      <trkpt lat="43.3620810" lon="-1.8242330">
        <ele>153.8</ele>
        <time>2022-10-29T09:22:23Z</time>
      </trkpt>
      <trkpt lat="43.3620950" lon="-1.8241870">
        <ele>154.0</ele>
        <time>2022-10-29T09:22:24Z</time>
      </trkpt>
      <trkpt lat="43.3621070" lon="-1.8241500">
        <ele>154.0</ele>
        <time>2022-10-29T09:22:25Z</time>
      </trkpt>
      <trkpt lat="43.3621200" lon="-1.8241010">
        <ele>154.0</ele>
        <time>2022-10-29T09:22:26Z</time>
      </trkpt>
      <trkpt lat="43.3621330" lon="-1.8240600">
        <ele>154.0</ele>
        <time>2022-10-29T09:22:27Z</time>
      </trkpt>
      <trkpt lat="43.3621470" lon="-1.8239400">
        <ele>153.8</ele>
        <time>2022-10-29T09:22:30Z</time>
      </trkpt>
      <trkpt lat="43.3621530" lon="-1.8238880">
        <ele>154.0</ele>
        <time>2022-10-29T09:22:31Z</time>
      </trkpt>
      <trkpt lat="43.3621360" lon="-1.8238460">
        <ele>154.0</ele>
        <time>2022-10-29T09:22:32Z</time>
      </trkpt>
      <trkpt lat="43.3621270" lon="-1.8238070">
        <ele>154.0</ele>
        <time>2022-10-29T09:22:33Z</time>
      </trkpt>
      <trkpt lat="43.3621200" lon="-1.8237760">
        <ele>154.0</ele>
        <time>2022-10-29T09:22:34Z</time>
      </trkpt>
      <trkpt lat="43.3621070" lon="-1.8237340">
        <ele>154.0</ele>
        <time>2022-10-29T09:22:35Z</time>
      </trkpt>
      <trkpt lat="43.3621040" lon="-1.8236750">
        <ele>154.0</ele>
        <time>2022-10-29T09:22:36Z</time>
      </trkpt>
      <trkpt lat="43.3621000" lon="-1.8236320">
        <ele>154.0</ele>
        <time>2022-10-29T09:22:37Z</time>
      </trkpt>
      <trkpt lat="43.3620990" lon="-1.8235750">
        <ele>154.2</ele>
        <time>2022-10-29T09:22:38Z</time>
      </trkpt>
      <trkpt lat="43.3620910" lon="-1.8235250">
        <ele>154.4</ele>
        <time>2022-10-29T09:22:39Z</time>
      </trkpt>
      <trkpt lat="43.3620790" lon="-1.8234630">
        <ele>154.6</ele>
        <time>2022-10-29T09:22:40Z</time>
      </trkpt>
      <trkpt lat="43.3620750" lon="-1.8233990">
        <ele>154.8</ele>
        <time>2022-10-29T09:22:41Z</time>
      </trkpt>
      <trkpt lat="43.3620610" lon="-1.8232870">
        <ele>155.4</ele>
        <time>2022-10-29T09:22:43Z</time>
      </trkpt>
      <trkpt lat="43.3620760" lon="-1.8231520">
        <ele>155.8</ele>
        <time>2022-10-29T09:22:46Z</time>
      </trkpt>
      <trkpt lat="43.3620790" lon="-1.8230120">
        <ele>156.2</ele>
        <time>2022-10-29T09:22:49Z</time>
      </trkpt>
      <trkpt lat="43.3620890" lon="-1.8229860">
        <ele>156.2</ele>
        <time>2022-10-29T09:22:50Z</time>
      </trkpt>
      <trkpt lat="43.3621140" lon="-1.8229700">
        <ele>156.4</ele>
        <time>2022-10-29T09:22:51Z</time>
      </trkpt>
      <trkpt lat="43.3621290" lon="-1.8229490">
        <ele>156.4</ele>
        <time>2022-10-29T09:22:52Z</time>
      </trkpt>
      <trkpt lat="43.3621360" lon="-1.8229190">
        <ele>156.6</ele>
        <time>2022-10-29T09:22:53Z</time>
      </trkpt>
      <trkpt lat="43.3621440" lon="-1.8228960">
        <ele>156.8</ele>
        <time>2022-10-29T09:22:54Z</time>
      </trkpt>
      <trkpt lat="43.3621590" lon="-1.8228690">
        <ele>156.8</ele>
        <time>2022-10-29T09:22:55Z</time>
      </trkpt>
      <trkpt lat="43.3621770" lon="-1.8228250">
        <ele>157.0</ele>
        <time>2022-10-29T09:22:56Z</time>
      </trkpt>
      <trkpt lat="43.3621860" lon="-1.8227820">
        <ele>157.0</ele>
        <time>2022-10-29T09:22:57Z</time>
      </trkpt>
      <trkpt lat="43.3621980" lon="-1.8227450">
        <ele>157.2</ele>
        <time>2022-10-29T09:22:58Z</time>
      </trkpt>
      <trkpt lat="43.3622100" lon="-1.8227120">
        <ele>157.8</ele>
        <time>2022-10-29T09:22:59Z</time>
      </trkpt>
      <trkpt lat="43.3622210" lon="-1.8226740">
        <ele>158.0</ele>
        <time>2022-10-29T09:23:00Z</time>
      </trkpt>
      <trkpt lat="43.3622370" lon="-1.8226450">
        <ele>158.4</ele>
        <time>2022-10-29T09:23:01Z</time>
      </trkpt>
      <trkpt lat="43.3622570" lon="-1.8226210">
        <ele>158.8</ele>
        <time>2022-10-29T09:23:02Z</time>
      </trkpt>
      <trkpt lat="43.3622870" lon="-1.8225970">
        <ele>158.8</ele>
        <time>2022-10-29T09:23:03Z</time>
      </trkpt>
      <trkpt lat="43.3623230" lon="-1.8225680">
        <ele>159.0</ele>
        <time>2022-10-29T09:23:04Z</time>
      </trkpt>
      <trkpt lat="43.3623430" lon="-1.8225390">
        <ele>159.0</ele>
        <time>2022-10-29T09:23:05Z</time>
      </trkpt>
      <trkpt lat="43.3623680" lon="-1.8225200">
        <ele>159.2</ele>
        <time>2022-10-29T09:23:06Z</time>
      </trkpt>
      <trkpt lat="43.3623960" lon="-1.8225030">
        <ele>159.2</ele>
        <time>2022-10-29T09:23:07Z</time>
      </trkpt>
      <trkpt lat="43.3624320" lon="-1.8224910">
        <ele>159.4</ele>
        <time>2022-10-29T09:23:08Z</time>
      </trkpt>
      <trkpt lat="43.3624620" lon="-1.8224820">
        <ele>159.8</ele>
        <time>2022-10-29T09:23:09Z</time>
      </trkpt>
      <trkpt lat="43.3624900" lon="-1.8224720">
        <ele>160.0</ele>
        <time>2022-10-29T09:23:10Z</time>
      </trkpt>
      <trkpt lat="43.3625170" lon="-1.8224680">
        <ele>160.6</ele>
        <time>2022-10-29T09:23:11Z</time>
      </trkpt>
      <trkpt lat="43.3625450" lon="-1.8224740">
        <ele>160.8</ele>
        <time>2022-10-29T09:23:12Z</time>
      </trkpt>
      <trkpt lat="43.3625730" lon="-1.8224810">
        <ele>161.0</ele>
        <time>2022-10-29T09:23:13Z</time>
      </trkpt>
      <trkpt lat="43.3625950" lon="-1.8224890">
        <ele>161.2</ele>
        <time>2022-10-29T09:23:14Z</time>
      </trkpt>
      <trkpt lat="43.3626060" lon="-1.8224950">
        <ele>161.4</ele>
        <time>2022-10-29T09:23:15Z</time>
      </trkpt>
      <trkpt lat="43.3626180" lon="-1.8224930">
        <ele>161.6</ele>
        <time>2022-10-29T09:23:16Z</time>
      </trkpt>
      <trkpt lat="43.3626370" lon="-1.8224970">
        <ele>161.8</ele>
        <time>2022-10-29T09:23:17Z</time>
      </trkpt>
      <trkpt lat="43.3626560" lon="-1.8225070">
        <ele>162.2</ele>
        <time>2022-10-29T09:23:18Z</time>
      </trkpt>
      <trkpt lat="43.3626820" lon="-1.8225210">
        <ele>162.2</ele>
        <time>2022-10-29T09:23:19Z</time>
      </trkpt>
      <trkpt lat="43.3627010" lon="-1.8225400">
        <ele>162.4</ele>
        <time>2022-10-29T09:23:20Z</time>
      </trkpt>
      <trkpt lat="43.3627240" lon="-1.8225590">
        <ele>162.4</ele>
        <time>2022-10-29T09:23:21Z</time>
      </trkpt>
      <trkpt lat="43.3627440" lon="-1.8225820">
        <ele>162.8</ele>
        <time>2022-10-29T09:23:22Z</time>
      </trkpt>
      <trkpt lat="43.3627610" lon="-1.8226080">
        <ele>162.8</ele>
        <time>2022-10-29T09:23:23Z</time>
      </trkpt>
      <trkpt lat="43.3627750" lon="-1.8226230">
        <ele>163.0</ele>
        <time>2022-10-29T09:23:24Z</time>
      </trkpt>
      <trkpt lat="43.3627940" lon="-1.8226360">
        <ele>163.0</ele>
        <time>2022-10-29T09:23:25Z</time>
      </trkpt>
      <trkpt lat="43.3628140" lon="-1.8226600">
        <ele>163.4</ele>
        <time>2022-10-29T09:23:26Z</time>
      </trkpt>
      <trkpt lat="43.3628390" lon="-1.8226790">
        <ele>163.8</ele>
        <time>2022-10-29T09:23:27Z</time>
      </trkpt>
      <trkpt lat="43.3628740" lon="-1.8227040">
        <ele>164.2</ele>
        <time>2022-10-29T09:23:28Z</time>
      </trkpt>
      <trkpt lat="43.3629040" lon="-1.8227310">
        <ele>164.6</ele>
        <time>2022-10-29T09:23:29Z</time>
      </trkpt>
      <trkpt lat="43.3629330" lon="-1.8227430">
        <ele>164.6</ele>
        <time>2022-10-29T09:23:30Z</time>
      </trkpt>
      <trkpt lat="43.3629670" lon="-1.8227550">
        <ele>165.0</ele>
        <time>2022-10-29T09:23:31Z</time>
      </trkpt>
      <trkpt lat="43.3630000" lon="-1.8227650">
        <ele>165.0</ele>
        <time>2022-10-29T09:23:32Z</time>
      </trkpt>
      <trkpt lat="43.3630340" lon="-1.8227890">
        <ele>165.2</ele>
        <time>2022-10-29T09:23:33Z</time>
      </trkpt>
      <trkpt lat="43.3630560" lon="-1.8228090">
        <ele>165.4</ele>
        <time>2022-10-29T09:23:34Z</time>
      </trkpt>
      <trkpt lat="43.3630780" lon="-1.8228320">
        <ele>165.6</ele>
        <time>2022-10-29T09:23:35Z</time>
      </trkpt>
      <trkpt lat="43.3631010" lon="-1.8228650">
        <ele>165.8</ele>
        <time>2022-10-29T09:23:36Z</time>
      </trkpt>
      <trkpt lat="43.3631250" lon="-1.8228950">
        <ele>166.2</ele>
        <time>2022-10-29T09:23:37Z</time>
      </trkpt>
      <trkpt lat="43.3631580" lon="-1.8229120">
        <ele>166.6</ele>
        <time>2022-10-29T09:23:38Z</time>
      </trkpt>
      <trkpt lat="43.3631920" lon="-1.8229390">
        <ele>166.8</ele>
        <time>2022-10-29T09:23:39Z</time>
      </trkpt>
      <trkpt lat="43.3632210" lon="-1.8229840">
        <ele>167.0</ele>
        <time>2022-10-29T09:23:40Z</time>
      </trkpt>
      <trkpt lat="43.3632400" lon="-1.8230090">
        <ele>167.2</ele>
        <time>2022-10-29T09:23:41Z</time>
      </trkpt>
      <trkpt lat="43.3632620" lon="-1.8230290">
        <ele>167.6</ele>
        <time>2022-10-29T09:23:42Z</time>
      </trkpt>
      <trkpt lat="43.3632860" lon="-1.8230540">
        <ele>167.8</ele>
        <time>2022-10-29T09:23:43Z</time>
      </trkpt>
      <trkpt lat="43.3632930" lon="-1.8230760">
        <ele>168.0</ele>
        <time>2022-10-29T09:23:44Z</time>
      </trkpt>
      <trkpt lat="43.3633020" lon="-1.8230950">
        <ele>168.2</ele>
        <time>2022-10-29T09:23:45Z</time>
      </trkpt>
      <trkpt lat="43.3633210" lon="-1.8231130">
        <ele>168.4</ele>
        <time>2022-10-29T09:23:46Z</time>
      </trkpt>
      <trkpt lat="43.3633410" lon="-1.8231320">
        <ele>168.6</ele>
        <time>2022-10-29T09:23:47Z</time>
      </trkpt>
      <trkpt lat="43.3633660" lon="-1.8231570">
        <ele>168.8</ele>
        <time>2022-10-29T09:23:48Z</time>
      </trkpt>
      <trkpt lat="43.3633940" lon="-1.8231830">
        <ele>169.2</ele>
        <time>2022-10-29T09:23:49Z</time>
      </trkpt>
      <trkpt lat="43.3634200" lon="-1.8232130">
        <ele>169.2</ele>
        <time>2022-10-29T09:23:50Z</time>
      </trkpt>
      <trkpt lat="43.3634480" lon="-1.8232390">
        <ele>169.6</ele>
        <time>2022-10-29T09:23:51Z</time>
      </trkpt>
      <trkpt lat="43.3634830" lon="-1.8232640">
        <ele>169.8</ele>
        <time>2022-10-29T09:23:52Z</time>
      </trkpt>
      <trkpt lat="43.3635170" lon="-1.8232740">
        <ele>170.0</ele>
        <time>2022-10-29T09:23:53Z</time>
      </trkpt>
      <trkpt lat="43.3635440" lon="-1.8232960">
        <ele>170.0</ele>
        <time>2022-10-29T09:23:54Z</time>
      </trkpt>
      <trkpt lat="43.3635680" lon="-1.8233320">
        <ele>170.4</ele>
        <time>2022-10-29T09:23:55Z</time>
      </trkpt>
      <trkpt lat="43.3635850" lon="-1.8233550">
        <ele>170.6</ele>
        <time>2022-10-29T09:23:56Z</time>
      </trkpt>
      <trkpt lat="43.3636030" lon="-1.8233700">
        <ele>171.2</ele>
        <time>2022-10-29T09:23:57Z</time>
      </trkpt>
      <trkpt lat="43.3636130" lon="-1.8233790">
        <ele>171.6</ele>
        <time>2022-10-29T09:23:58Z</time>
      </trkpt>
      <trkpt lat="43.3636310" lon="-1.8233940">
        <ele>171.6</ele>
        <time>2022-10-29T09:23:59Z</time>
      </trkpt>
      <trkpt lat="43.3636460" lon="-1.8234050">
        <ele>172.2</ele>
        <time>2022-10-29T09:24:00Z</time>
      </trkpt>
      <trkpt lat="43.3636570" lon="-1.8234190">
        <ele>172.2</ele>
        <time>2022-10-29T09:24:01Z</time>
      </trkpt>
      <trkpt lat="43.3636720" lon="-1.8234290">
        <ele>172.4</ele>
        <time>2022-10-29T09:24:02Z</time>
      </trkpt>
      <trkpt lat="43.3636900" lon="-1.8234400">
        <ele>172.6</ele>
        <time>2022-10-29T09:24:03Z</time>
      </trkpt>
      <trkpt lat="43.3637130" lon="-1.8234580">
        <ele>172.8</ele>
        <time>2022-10-29T09:24:04Z</time>
      </trkpt>
      <trkpt lat="43.3637340" lon="-1.8234820">
        <ele>173.0</ele>
        <time>2022-10-29T09:24:05Z</time>
      </trkpt>
      <trkpt lat="43.3637530" lon="-1.8235070">
        <ele>173.2</ele>
        <time>2022-10-29T09:24:06Z</time>
      </trkpt>
      <trkpt lat="43.3637660" lon="-1.8235310">
        <ele>173.4</ele>
        <time>2022-10-29T09:24:07Z</time>
      </trkpt>
      <trkpt lat="43.3637780" lon="-1.8235520">
        <ele>173.4</ele>
        <time>2022-10-29T09:24:08Z</time>
      </trkpt>
      <trkpt lat="43.3637990" lon="-1.8235740">
        <ele>173.4</ele>
        <time>2022-10-29T09:24:09Z</time>
      </trkpt>
      <trkpt lat="43.3638170" lon="-1.8235960">
        <ele>173.4</ele>
        <time>2022-10-29T09:24:10Z</time>
      </trkpt>
      <trkpt lat="43.3638320" lon="-1.8236140">
        <ele>173.6</ele>
        <time>2022-10-29T09:24:11Z</time>
      </trkpt>
      <trkpt lat="43.3638490" lon="-1.8236260">
        <ele>173.6</ele>
        <time>2022-10-29T09:24:12Z</time>
      </trkpt>
      <trkpt lat="43.3638680" lon="-1.8236400">
        <ele>173.8</ele>
        <time>2022-10-29T09:24:13Z</time>
      </trkpt>
      <trkpt lat="43.3638890" lon="-1.8236620">
        <ele>173.8</ele>
        <time>2022-10-29T09:24:14Z</time>
      </trkpt>
      <trkpt lat="43.3639180" lon="-1.8236830">
        <ele>174.0</ele>
        <time>2022-10-29T09:24:15Z</time>
      </trkpt>
      <trkpt lat="43.3639460" lon="-1.8236960">
        <ele>174.2</ele>
        <time>2022-10-29T09:24:16Z</time>
      </trkpt>
      <trkpt lat="43.3639720" lon="-1.8237050">
        <ele>174.2</ele>
        <time>2022-10-29T09:24:17Z</time>
      </trkpt>
      <trkpt lat="43.3639960" lon="-1.8237130">
        <ele>174.4</ele>
        <time>2022-10-29T09:24:18Z</time>
      </trkpt>
      <trkpt lat="43.3640180" lon="-1.8237230">
        <ele>174.6</ele>
        <time>2022-10-29T09:24:19Z</time>
      </trkpt>
      <trkpt lat="43.3640450" lon="-1.8237280">
        <ele>175.0</ele>
        <time>2022-10-29T09:24:20Z</time>
      </trkpt>
      <trkpt lat="43.3640770" lon="-1.8237380">
        <ele>174.8</ele>
        <time>2022-10-29T09:24:21Z</time>
      </trkpt>
      <trkpt lat="43.3641060" lon="-1.8237380">
        <ele>175.2</ele>
        <time>2022-10-29T09:24:22Z</time>
      </trkpt>
      <trkpt lat="43.3641360" lon="-1.8237360">
        <ele>175.2</ele>
        <time>2022-10-29T09:24:23Z</time>
      </trkpt>
      <trkpt lat="43.3641740" lon="-1.8237370">
        <ele>175.6</ele>
        <time>2022-10-29T09:24:24Z</time>
      </trkpt>
      <trkpt lat="43.3642050" lon="-1.8237260">
        <ele>175.8</ele>
        <time>2022-10-29T09:24:25Z</time>
      </trkpt>
      <trkpt lat="43.3642320" lon="-1.8237170">
        <ele>176.2</ele>
        <time>2022-10-29T09:24:26Z</time>
      </trkpt>
      <trkpt lat="43.3642690" lon="-1.8237120">
        <ele>176.4</ele>
        <time>2022-10-29T09:24:27Z</time>
      </trkpt>
      <trkpt lat="43.3643020" lon="-1.8236920">
        <ele>176.6</ele>
        <time>2022-10-29T09:24:28Z</time>
      </trkpt>
      <trkpt lat="43.3643240" lon="-1.8236770">
        <ele>176.8</ele>
        <time>2022-10-29T09:24:29Z</time>
      </trkpt>
      <trkpt lat="43.3643430" lon="-1.8236570">
        <ele>177.0</ele>
        <time>2022-10-29T09:24:30Z</time>
      </trkpt>
      <trkpt lat="43.3643670" lon="-1.8236410">
        <ele>177.4</ele>
        <time>2022-10-29T09:24:31Z</time>
      </trkpt>
      <trkpt lat="43.3643900" lon="-1.8236250">
        <ele>177.4</ele>
        <time>2022-10-29T09:24:32Z</time>
      </trkpt>
      <trkpt lat="43.3644150" lon="-1.8235920">
        <ele>177.8</ele>
        <time>2022-10-29T09:24:33Z</time>
      </trkpt>
      <trkpt lat="43.3644430" lon="-1.8235470">
        <ele>178.0</ele>
        <time>2022-10-29T09:24:34Z</time>
      </trkpt>
      <trkpt lat="43.3644760" lon="-1.8235300">
        <ele>178.2</ele>
        <time>2022-10-29T09:24:35Z</time>
      </trkpt>
      <trkpt lat="43.3645040" lon="-1.8235090">
        <ele>178.8</ele>
        <time>2022-10-29T09:24:36Z</time>
      </trkpt>
      <trkpt lat="43.3645170" lon="-1.8234680">
        <ele>179.0</ele>
        <time>2022-10-29T09:24:37Z</time>
      </trkpt>
      <trkpt lat="43.3645360" lon="-1.8234400">
        <ele>179.2</ele>
        <time>2022-10-29T09:24:38Z</time>
      </trkpt>
      <trkpt lat="43.3645680" lon="-1.8234030">
        <ele>179.4</ele>
        <time>2022-10-29T09:24:39Z</time>
      </trkpt>
      <trkpt lat="43.3645930" lon="-1.8233700">
        <ele>179.6</ele>
        <time>2022-10-29T09:24:40Z</time>
      </trkpt>
      <trkpt lat="43.3646220" lon="-1.8233350">
        <ele>179.8</ele>
        <time>2022-10-29T09:24:41Z</time>
      </trkpt>
      <trkpt lat="43.3646390" lon="-1.8232990">
        <ele>179.8</ele>
        <time>2022-10-29T09:24:42Z</time>
      </trkpt>
      <trkpt lat="43.3646600" lon="-1.8232710">
        <ele>180.2</ele>
        <time>2022-10-29T09:24:43Z</time>
      </trkpt>
      <trkpt lat="43.3646780" lon="-1.8232490">
        <ele>180.4</ele>
        <time>2022-10-29T09:24:44Z</time>
      </trkpt>
      <trkpt lat="43.3647020" lon="-1.8232240">
        <ele>180.6</ele>
        <time>2022-10-29T09:24:45Z</time>
      </trkpt>
      <trkpt lat="43.3647280" lon="-1.8231880">
        <ele>180.8</ele>
        <time>2022-10-29T09:24:46Z</time>
      </trkpt>
      <trkpt lat="43.3647480" lon="-1.8231590">
        <ele>181.0</ele>
        <time>2022-10-29T09:24:47Z</time>
      </trkpt>
      <trkpt lat="43.3647600" lon="-1.8231300">
        <ele>181.2</ele>
        <time>2022-10-29T09:24:48Z</time>
      </trkpt>
      <trkpt lat="43.3647720" lon="-1.8231090">
        <ele>181.4</ele>
        <time>2022-10-29T09:24:49Z</time>
      </trkpt>
      <trkpt lat="43.3647940" lon="-1.8230790">
        <ele>181.4</ele>
        <time>2022-10-29T09:24:50Z</time>
      </trkpt>
      <trkpt lat="43.3648180" lon="-1.8230570">
        <ele>181.6</ele>
        <time>2022-10-29T09:24:51Z</time>
      </trkpt>
      <trkpt lat="43.3648380" lon="-1.8230220">
        <ele>181.8</ele>
        <time>2022-10-29T09:24:52Z</time>
      </trkpt>
      <trkpt lat="43.3648580" lon="-1.8229820">
        <ele>182.2</ele>
        <time>2022-10-29T09:24:53Z</time>
      </trkpt>
      <trkpt lat="43.3648780" lon="-1.8229490">
        <ele>182.4</ele>
        <time>2022-10-29T09:24:54Z</time>
      </trkpt>
      <trkpt lat="43.3648900" lon="-1.8229100">
        <ele>182.6</ele>
        <time>2022-10-29T09:24:55Z</time>
      </trkpt>
      <trkpt lat="43.3649040" lon="-1.8228600">
        <ele>182.8</ele>
        <time>2022-10-29T09:24:56Z</time>
      </trkpt>
      <trkpt lat="43.3649250" lon="-1.8228360">
        <ele>183.0</ele>
        <time>2022-10-29T09:24:57Z</time>
      </trkpt>
      <trkpt lat="43.3649430" lon="-1.8228150">
        <ele>183.4</ele>
        <time>2022-10-29T09:24:58Z</time>
      </trkpt>
      <trkpt lat="43.3649640" lon="-1.8227840">
        <ele>183.8</ele>
        <time>2022-10-29T09:24:59Z</time>
      </trkpt>
      <trkpt lat="43.3649870" lon="-1.8227660">
        <ele>184.2</ele>
        <time>2022-10-29T09:25:00Z</time>
      </trkpt>
      <trkpt lat="43.3650060" lon="-1.8227500">
        <ele>184.2</ele>
        <time>2022-10-29T09:25:01Z</time>
      </trkpt>
      <trkpt lat="43.3650160" lon="-1.8227280">
        <ele>184.6</ele>
        <time>2022-10-29T09:25:02Z</time>
      </trkpt>
      <trkpt lat="43.3650280" lon="-1.8227140">
        <ele>184.6</ele>
        <time>2022-10-29T09:25:03Z</time>
      </trkpt>
      <trkpt lat="43.3650360" lon="-1.8226870">
        <ele>184.8</ele>
        <time>2022-10-29T09:25:04Z</time>
      </trkpt>
      <trkpt lat="43.3650460" lon="-1.8226540">
        <ele>185.0</ele>
        <time>2022-10-29T09:25:05Z</time>
      </trkpt>
      <trkpt lat="43.3650620" lon="-1.8226260">
        <ele>185.2</ele>
        <time>2022-10-29T09:25:06Z</time>
      </trkpt>
      <trkpt lat="43.3650730" lon="-1.8226030">
        <ele>185.4</ele>
        <time>2022-10-29T09:25:07Z</time>
      </trkpt>
      <trkpt lat="43.3650850" lon="-1.8225840">
        <ele>185.6</ele>
        <time>2022-10-29T09:25:08Z</time>
      </trkpt>
      <trkpt lat="43.3651060" lon="-1.8225650">
        <ele>185.8</ele>
        <time>2022-10-29T09:25:09Z</time>
      </trkpt>
      <trkpt lat="43.3651190" lon="-1.8225500">
        <ele>185.8</ele>
        <time>2022-10-29T09:25:10Z</time>
      </trkpt>
      <trkpt lat="43.3651300" lon="-1.8225340">
        <ele>186.0</ele>
        <time>2022-10-29T09:25:11Z</time>
      </trkpt>
      <trkpt lat="43.3651380" lon="-1.8225170">
        <ele>186.2</ele>
        <time>2022-10-29T09:25:12Z</time>
      </trkpt>
      <trkpt lat="43.3651440" lon="-1.8225000">
        <ele>186.4</ele>
        <time>2022-10-29T09:25:13Z</time>
      </trkpt>
      <trkpt lat="43.3651520" lon="-1.8224800">
        <ele>186.4</ele>
        <time>2022-10-29T09:25:14Z</time>
      </trkpt>
      <trkpt lat="43.3651550" lon="-1.8224530">
        <ele>186.6</ele>
        <time>2022-10-29T09:25:15Z</time>
      </trkpt>
      <trkpt lat="43.3651630" lon="-1.8224260">
        <ele>187.0</ele>
        <time>2022-10-29T09:25:16Z</time>
      </trkpt>
      <trkpt lat="43.3651710" lon="-1.8223970">
        <ele>187.2</ele>
        <time>2022-10-29T09:25:17Z</time>
      </trkpt>
      <trkpt lat="43.3651790" lon="-1.8223730">
        <ele>187.4</ele>
        <time>2022-10-29T09:25:18Z</time>
      </trkpt>
      <trkpt lat="43.3651830" lon="-1.8223420">
        <ele>187.6</ele>
        <time>2022-10-29T09:25:19Z</time>
      </trkpt>
      <trkpt lat="43.3651840" lon="-1.8223170">
        <ele>187.6</ele>
        <time>2022-10-29T09:25:20Z</time>
      </trkpt>
      <trkpt lat="43.3651860" lon="-1.8222930">
        <ele>187.8</ele>
        <time>2022-10-29T09:25:21Z</time>
      </trkpt>
      <trkpt lat="43.3651920" lon="-1.8222620">
        <ele>188.2</ele>
        <time>2022-10-29T09:25:22Z</time>
      </trkpt>
      <trkpt lat="43.3652010" lon="-1.8222320">
        <ele>188.4</ele>
        <time>2022-10-29T09:25:23Z</time>
      </trkpt>
      <trkpt lat="43.3652090" lon="-1.8222030">
        <ele>188.6</ele>
        <time>2022-10-29T09:25:24Z</time>
      </trkpt>
      <trkpt lat="43.3652180" lon="-1.8221770">
        <ele>188.8</ele>
        <time>2022-10-29T09:25:25Z</time>
      </trkpt>
      <trkpt lat="43.3652290" lon="-1.8221510">
        <ele>189.0</ele>
        <time>2022-10-29T09:25:26Z</time>
      </trkpt>
      <trkpt lat="43.3652380" lon="-1.8221200">
        <ele>189.4</ele>
        <time>2022-10-29T09:25:27Z</time>
      </trkpt>
      <trkpt lat="43.3652480" lon="-1.8220820">
        <ele>189.6</ele>
        <time>2022-10-29T09:25:28Z</time>
      </trkpt>
      <trkpt lat="43.3652640" lon="-1.8220510">
        <ele>190.0</ele>
        <time>2022-10-29T09:25:29Z</time>
      </trkpt>
      <trkpt lat="43.3652800" lon="-1.8220140">
        <ele>190.4</ele>
        <time>2022-10-29T09:25:30Z</time>
      </trkpt>
      <trkpt lat="43.3652950" lon="-1.8219750">
        <ele>190.8</ele>
        <time>2022-10-29T09:25:31Z</time>
      </trkpt>
      <trkpt lat="43.3653040" lon="-1.8219320">
        <ele>191.2</ele>
        <time>2022-10-29T09:25:32Z</time>
      </trkpt>
      <trkpt lat="43.3653130" lon="-1.8218980">
        <ele>191.6</ele>
        <time>2022-10-29T09:25:33Z</time>
      </trkpt>
      <trkpt lat="43.3653190" lon="-1.8218580">
        <ele>192.0</ele>
        <time>2022-10-29T09:25:34Z</time>
      </trkpt>
      <trkpt lat="43.3653320" lon="-1.8218240">
        <ele>192.2</ele>
        <time>2022-10-29T09:25:35Z</time>
      </trkpt>
      <trkpt lat="43.3653530" lon="-1.8217970">
        <ele>192.4</ele>
        <time>2022-10-29T09:25:36Z</time>
      </trkpt>
      <trkpt lat="43.3653670" lon="-1.8217640">
        <ele>192.6</ele>
        <time>2022-10-29T09:25:37Z</time>
      </trkpt>
      <trkpt lat="43.3653830" lon="-1.8217290">
        <ele>193.2</ele>
        <time>2022-10-29T09:25:38Z</time>
      </trkpt>
      <trkpt lat="43.3653990" lon="-1.8216980">
        <ele>193.4</ele>
        <time>2022-10-29T09:25:39Z</time>
      </trkpt>
      <trkpt lat="43.3654090" lon="-1.8216690">
        <ele>193.8</ele>
        <time>2022-10-29T09:25:40Z</time>
      </trkpt>
      <trkpt lat="43.3654280" lon="-1.8216470">
        <ele>194.0</ele>
        <time>2022-10-29T09:25:41Z</time>
      </trkpt>
      <trkpt lat="43.3654440" lon="-1.8216290">
        <ele>194.4</ele>
        <time>2022-10-29T09:25:42Z</time>
      </trkpt>
      <trkpt lat="43.3654600" lon="-1.8216040">
        <ele>194.6</ele>
        <time>2022-10-29T09:25:43Z</time>
      </trkpt>
      <trkpt lat="43.3654790" lon="-1.8215820">
        <ele>194.8</ele>
        <time>2022-10-29T09:25:44Z</time>
      </trkpt>
      <trkpt lat="43.3654990" lon="-1.8215580">
        <ele>195.0</ele>
        <time>2022-10-29T09:25:45Z</time>
      </trkpt>
      <trkpt lat="43.3655250" lon="-1.8215400">
        <ele>195.2</ele>
        <time>2022-10-29T09:25:46Z</time>
      </trkpt>
      <trkpt lat="43.3655540" lon="-1.8215210">
        <ele>195.6</ele>
        <time>2022-10-29T09:25:47Z</time>
      </trkpt>
      <trkpt lat="43.3655850" lon="-1.8215040">
        <ele>195.8</ele>
        <time>2022-10-29T09:25:48Z</time>
      </trkpt>
      <trkpt lat="43.3656160" lon="-1.8214950">
        <ele>195.8</ele>
        <time>2022-10-29T09:25:49Z</time>
      </trkpt>
      <trkpt lat="43.3656440" lon="-1.8214920">
        <ele>195.8</ele>
        <time>2022-10-29T09:25:50Z</time>
      </trkpt>
      <trkpt lat="43.3656690" lon="-1.8214910">
        <ele>196.0</ele>
        <time>2022-10-29T09:25:51Z</time>
      </trkpt>
      <trkpt lat="43.3656940" lon="-1.8214890">
        <ele>196.0</ele>
        <time>2022-10-29T09:25:52Z</time>
      </trkpt>
      <trkpt lat="43.3657210" lon="-1.8214830">
        <ele>196.0</ele>
        <time>2022-10-29T09:25:53Z</time>
      </trkpt>
      <trkpt lat="43.3657520" lon="-1.8214820">
        <ele>196.0</ele>
        <time>2022-10-29T09:25:54Z</time>
      </trkpt>
      <trkpt lat="43.3657910" lon="-1.8214870">
        <ele>196.0</ele>
        <time>2022-10-29T09:25:55Z</time>
      </trkpt>
      <trkpt lat="43.3658360" lon="-1.8214940">
        <ele>196.0</ele>
        <time>2022-10-29T09:25:56Z</time>
      </trkpt>
      <trkpt lat="43.3658840" lon="-1.8214980">
        <ele>195.8</ele>
        <time>2022-10-29T09:25:57Z</time>
      </trkpt>
      <trkpt lat="43.3659300" lon="-1.8215030">
        <ele>196.0</ele>
        <time>2022-10-29T09:25:58Z</time>
      </trkpt>
      <trkpt lat="43.3659760" lon="-1.8215080">
        <ele>195.8</ele>
        <time>2022-10-29T09:25:59Z</time>
      </trkpt>
      <trkpt lat="43.3660310" lon="-1.8215140">
        <ele>195.8</ele>
        <time>2022-10-29T09:26:00Z</time>
      </trkpt>
      <trkpt lat="43.3660900" lon="-1.8215220">
        <ele>195.6</ele>
        <time>2022-10-29T09:26:01Z</time>
      </trkpt>
      <trkpt lat="43.3661560" lon="-1.8215190">
        <ele>195.6</ele>
        <time>2022-10-29T09:26:02Z</time>
      </trkpt>
      <trkpt lat="43.3662260" lon="-1.8215090">
        <ele>195.4</ele>
        <time>2022-10-29T09:26:03Z</time>
      </trkpt>
      <trkpt lat="43.3662940" lon="-1.8215030">
        <ele>195.4</ele>
        <time>2022-10-29T09:26:04Z</time>
      </trkpt>
      <trkpt lat="43.3663660" lon="-1.8214930">
        <ele>195.4</ele>
        <time>2022-10-29T09:26:05Z</time>
      </trkpt>
      <trkpt lat="43.3664370" lon="-1.8214840">
        <ele>195.2</ele>
        <time>2022-10-29T09:26:06Z</time>
      </trkpt>
      <trkpt lat="43.3665070" lon="-1.8214730">
        <ele>195.2</ele>
        <time>2022-10-29T09:26:07Z</time>
      </trkpt>
      <trkpt lat="43.3665760" lon="-1.8214590">
        <ele>195.2</ele>
        <time>2022-10-29T09:26:08Z</time>
      </trkpt>
      <trkpt lat="43.3666860" lon="-1.8214150">
        <ele>194.6</ele>
        <time>2022-10-29T09:26:10Z</time>
      </trkpt>
      <trkpt lat="43.3667240" lon="-1.8213940">
        <ele>194.0</ele>
        <time>2022-10-29T09:26:11Z</time>
      </trkpt>
      <trkpt lat="43.3667620" lon="-1.8213940">
        <ele>193.6</ele>
        <time>2022-10-29T09:26:12Z</time>
      </trkpt>
      <trkpt lat="43.3668060" lon="-1.8214150">
        <ele>193.2</ele>
        <time>2022-10-29T09:26:13Z</time>
      </trkpt>
      <trkpt lat="43.3668470" lon="-1.8214470">
        <ele>192.8</ele>
        <time>2022-10-29T09:26:14Z</time>
      </trkpt>
      <trkpt lat="43.3668890" lon="-1.8214890">
        <ele>192.6</ele>
        <time>2022-10-29T09:26:15Z</time>
      </trkpt>
      <trkpt lat="43.3669320" lon="-1.8215300">
        <ele>192.4</ele>
        <time>2022-10-29T09:26:16Z</time>
      </trkpt>
      <trkpt lat="43.3669740" lon="-1.8215720">
        <ele>192.2</ele>
        <time>2022-10-29T09:26:17Z</time>
      </trkpt>
      <trkpt lat="43.3670270" lon="-1.8216070">
        <ele>192.0</ele>
        <time>2022-10-29T09:26:18Z</time>
      </trkpt>
      <trkpt lat="43.3671370" lon="-1.8216110">
        <ele>191.8</ele>
        <time>2022-10-29T09:26:20Z</time>
      </trkpt>
      <trkpt lat="43.3671990" lon="-1.8215970">
        <ele>191.8</ele>
        <time>2022-10-29T09:26:21Z</time>
      </trkpt>
      <trkpt lat="43.3672580" lon="-1.8215710">
        <ele>191.8</ele>
        <time>2022-10-29T09:26:22Z</time>
      </trkpt>
      <trkpt lat="43.3673150" lon="-1.8215300">
        <ele>191.8</ele>
        <time>2022-10-29T09:26:23Z</time>
      </trkpt>
      <trkpt lat="43.3673680" lon="-1.8214850">
        <ele>191.8</ele>
        <time>2022-10-29T09:26:24Z</time>
      </trkpt>
      <trkpt lat="43.3674110" lon="-1.8214440">
        <ele>191.8</ele>
        <time>2022-10-29T09:26:25Z</time>
      </trkpt>
      <trkpt lat="43.3674570" lon="-1.8214020">
        <ele>192.0</ele>
        <time>2022-10-29T09:26:26Z</time>
      </trkpt>
      <trkpt lat="43.3675000" lon="-1.8213550">
        <ele>192.2</ele>
        <time>2022-10-29T09:26:27Z</time>
      </trkpt>
      <trkpt lat="43.3675400" lon="-1.8213110">
        <ele>192.4</ele>
        <time>2022-10-29T09:26:28Z</time>
      </trkpt>
      <trkpt lat="43.3676100" lon="-1.8212320">
        <ele>192.8</ele>
        <time>2022-10-29T09:26:30Z</time>
      </trkpt>
      <trkpt lat="43.3676450" lon="-1.8211940">
        <ele>193.0</ele>
        <time>2022-10-29T09:26:31Z</time>
      </trkpt>
      <trkpt lat="43.3676820" lon="-1.8211550">
        <ele>193.2</ele>
        <time>2022-10-29T09:26:32Z</time>
      </trkpt>
      <trkpt lat="43.3678340" lon="-1.8209850">
        <ele>194.0</ele>
        <time>2022-10-29T09:26:36Z</time>
      </trkpt>
      <trkpt lat="43.3678730" lon="-1.8209450">
        <ele>194.0</ele>
        <time>2022-10-29T09:26:37Z</time>
      </trkpt>
      <trkpt lat="43.3679100" lon="-1.8209050">
        <ele>194.4</ele>
        <time>2022-10-29T09:26:38Z</time>
      </trkpt>
      <trkpt lat="43.3679450" lon="-1.8208660">
        <ele>194.4</ele>
        <time>2022-10-29T09:26:39Z</time>
      </trkpt>
      <trkpt lat="43.3679810" lon="-1.8208290">
        <ele>194.6</ele>
        <time>2022-10-29T09:26:40Z</time>
      </trkpt>
      <trkpt lat="43.3680150" lon="-1.8207920">
        <ele>194.6</ele>
        <time>2022-10-29T09:26:41Z</time>
      </trkpt>
      <trkpt lat="43.3682020" lon="-1.8205890">
        <ele>195.0</ele>
        <time>2022-10-29T09:26:46Z</time>
      </trkpt>
      <trkpt lat="43.3682340" lon="-1.8205490">
        <ele>195.2</ele>
        <time>2022-10-29T09:26:47Z</time>
      </trkpt>
      <trkpt lat="43.3682700" lon="-1.8205100">
        <ele>195.2</ele>
        <time>2022-10-29T09:26:48Z</time>
      </trkpt>
      <trkpt lat="43.3683100" lon="-1.8204670">
        <ele>195.6</ele>
        <time>2022-10-29T09:26:49Z</time>
      </trkpt>
      <trkpt lat="43.3683960" lon="-1.8203750">
        <ele>196.0</ele>
        <time>2022-10-29T09:26:51Z</time>
      </trkpt>
      <trkpt lat="43.3684400" lon="-1.8203300">
        <ele>196.2</ele>
        <time>2022-10-29T09:26:52Z</time>
      </trkpt>
      <trkpt lat="43.3684850" lon="-1.8202830">
        <ele>196.2</ele>
        <time>2022-10-29T09:26:53Z</time>
      </trkpt>
      <trkpt lat="43.3685280" lon="-1.8202370">
        <ele>196.4</ele>
        <time>2022-10-29T09:26:54Z</time>
      </trkpt>
      <trkpt lat="43.3685690" lon="-1.8201930">
        <ele>196.4</ele>
        <time>2022-10-29T09:26:55Z</time>
      </trkpt>
      <trkpt lat="43.3686100" lon="-1.8201530">
        <ele>196.4</ele>
        <time>2022-10-29T09:26:56Z</time>
      </trkpt>
      <trkpt lat="43.3686570" lon="-1.8201160">
        <ele>196.4</ele>
        <time>2022-10-29T09:26:57Z</time>
      </trkpt>
      <trkpt lat="43.3687060" lon="-1.8200810">
        <ele>196.6</ele>
        <time>2022-10-29T09:26:58Z</time>
      </trkpt>
      <trkpt lat="43.3687560" lon="-1.8200510">
        <ele>196.6</ele>
        <time>2022-10-29T09:26:59Z</time>
      </trkpt>
      <trkpt lat="43.3688070" lon="-1.8200240">
        <ele>196.8</ele>
        <time>2022-10-29T09:27:00Z</time>
      </trkpt>
      <trkpt lat="43.3688600" lon="-1.8199960">
        <ele>197.2</ele>
        <time>2022-10-29T09:27:01Z</time>
      </trkpt>
      <trkpt lat="43.3689130" lon="-1.8199690">
        <ele>197.2</ele>
        <time>2022-10-29T09:27:02Z</time>
      </trkpt>
      <trkpt lat="43.3689700" lon="-1.8199480">
        <ele>197.4</ele>
        <time>2022-10-29T09:27:03Z</time>
      </trkpt>
      <trkpt lat="43.3690280" lon="-1.8199320">
        <ele>197.4</ele>
        <time>2022-10-29T09:27:04Z</time>
      </trkpt>
      <trkpt lat="43.3690870" lon="-1.8199170">
        <ele>197.4</ele>
        <time>2022-10-29T09:27:05Z</time>
      </trkpt>
      <trkpt lat="43.3691470" lon="-1.8199040">
        <ele>197.6</ele>
        <time>2022-10-29T09:27:06Z</time>
      </trkpt>
      <trkpt lat="43.3692090" lon="-1.8198880">
        <ele>197.8</ele>
        <time>2022-10-29T09:27:07Z</time>
      </trkpt>
      <trkpt lat="43.3692690" lon="-1.8198740">
        <ele>197.8</ele>
        <time>2022-10-29T09:27:08Z</time>
      </trkpt>
      <trkpt lat="43.3693320" lon="-1.8198600">
        <ele>197.8</ele>
        <time>2022-10-29T09:27:09Z</time>
      </trkpt>
      <trkpt lat="43.3693970" lon="-1.8198470">
        <ele>197.8</ele>
        <time>2022-10-29T09:27:10Z</time>
      </trkpt>
      <trkpt lat="43.3694600" lon="-1.8198390">
        <ele>197.6</ele>
        <time>2022-10-29T09:27:11Z</time>
      </trkpt>
      <trkpt lat="43.3695240" lon="-1.8198330">
        <ele>197.6</ele>
        <time>2022-10-29T09:27:12Z</time>
      </trkpt>
      <trkpt lat="43.3695890" lon="-1.8198280">
        <ele>197.4</ele>
        <time>2022-10-29T09:27:13Z</time>
      </trkpt>
      <trkpt lat="43.3696560" lon="-1.8198210">
        <ele>197.6</ele>
        <time>2022-10-29T09:27:14Z</time>
      </trkpt>
      <trkpt lat="43.3698600" lon="-1.8198130">
        <ele>197.6</ele>
        <time>2022-10-29T09:27:17Z</time>
      </trkpt>
      <trkpt lat="43.3701280" lon="-1.8198100">
        <ele>197.2</ele>
        <time>2022-10-29T09:27:21Z</time>
      </trkpt>
      <trkpt lat="43.3702560" lon="-1.8197720">
        <ele>197.2</ele>
        <time>2022-10-29T09:27:23Z</time>
      </trkpt>
      <trkpt lat="43.3703770" lon="-1.8196800">
        <ele>197.4</ele>
        <time>2022-10-29T09:27:25Z</time>
      </trkpt>
      <trkpt lat="43.3704380" lon="-1.8196290">
        <ele>197.4</ele>
        <time>2022-10-29T09:27:26Z</time>
      </trkpt>
      <trkpt lat="43.3706710" lon="-1.8195010">
        <ele>197.4</ele>
        <time>2022-10-29T09:27:29Z</time>
      </trkpt>
      <trkpt lat="43.3707710" lon="-1.8194740">
        <ele>197.4</ele>
        <time>2022-10-29T09:27:30Z</time>
      </trkpt>
      <trkpt lat="43.3710000" lon="-1.8194430">
        <ele>197.2</ele>
        <time>2022-10-29T09:27:32Z</time>
      </trkpt>
      <trkpt lat="43.3711190" lon="-1.8194110">
        <ele>197.0</ele>
        <time>2022-10-29T09:27:33Z</time>
      </trkpt>
      <trkpt lat="43.3713600" lon="-1.8192950">
        <ele>195.2</ele>
        <time>2022-10-29T09:27:35Z</time>
      </trkpt>
      <trkpt lat="43.3717100" lon="-1.8190740">
        <ele>194.0</ele>
        <time>2022-10-29T09:27:38Z</time>
      </trkpt>
      <trkpt lat="43.3718270" lon="-1.8190150">
        <ele>193.8</ele>
        <time>2022-10-29T09:27:39Z</time>
      </trkpt>
      <trkpt lat="43.3719330" lon="-1.8189670">
        <ele>192.6</ele>
        <time>2022-10-29T09:27:40Z</time>
      </trkpt>
      <trkpt lat="43.3720280" lon="-1.8189200">
        <ele>190.4</ele>
        <time>2022-10-29T09:27:41Z</time>
      </trkpt>
      <trkpt lat="43.3721100" lon="-1.8188640">
        <ele>189.0</ele>
        <time>2022-10-29T09:27:42Z</time>
      </trkpt>
      <trkpt lat="43.3721730" lon="-1.8187900">
        <ele>187.2</ele>
        <time>2022-10-29T09:27:43Z</time>
      </trkpt>
      <trkpt lat="43.3722060" lon="-1.8186920">
        <ele>186.4</ele>
        <time>2022-10-29T09:27:44Z</time>
      </trkpt>
      <trkpt lat="43.3721930" lon="-1.8185610">
        <ele>185.4</ele>
        <time>2022-10-29T09:27:45Z</time>
      </trkpt>
      <trkpt lat="43.3721610" lon="-1.8184320">
        <ele>185.2</ele>
        <time>2022-10-29T09:27:46Z</time>
      </trkpt>
      <trkpt lat="43.3721310" lon="-1.8183120">
        <ele>183.8</ele>
        <time>2022-10-29T09:27:47Z</time>
      </trkpt>
      <trkpt lat="43.3721410" lon="-1.8182150">
        <ele>183.0</ele>
        <time>2022-10-29T09:27:48Z</time>
      </trkpt>
      <trkpt lat="43.3721630" lon="-1.8181440">
        <ele>181.6</ele>
        <time>2022-10-29T09:27:49Z</time>
      </trkpt>
      <trkpt lat="43.3721970" lon="-1.8180980">
        <ele>180.2</ele>
        <time>2022-10-29T09:27:50Z</time>
      </trkpt>
      <trkpt lat="43.3722420" lon="-1.8180670">
        <ele>179.4</ele>
        <time>2022-10-29T09:27:51Z</time>
      </trkpt>
      <trkpt lat="43.3722890" lon="-1.8180340">
        <ele>178.0</ele>
        <time>2022-10-29T09:27:52Z</time>
      </trkpt>
      <trkpt lat="43.3723460" lon="-1.8180050">
        <ele>177.4</ele>
        <time>2022-10-29T09:27:53Z</time>
      </trkpt>
      <trkpt lat="43.3724090" lon="-1.8179750">
        <ele>176.0</ele>
        <time>2022-10-29T09:27:54Z</time>
      </trkpt>
      <trkpt lat="43.3724730" lon="-1.8179470">
        <ele>175.4</ele>
        <time>2022-10-29T09:27:55Z</time>
      </trkpt>
      <trkpt lat="43.3725420" lon="-1.8179210">
        <ele>174.8</ele>
        <time>2022-10-29T09:27:56Z</time>
      </trkpt>
      <trkpt lat="43.3727620" lon="-1.8178760">
        <ele>173.6</ele>
        <time>2022-10-29T09:27:59Z</time>
      </trkpt>
      <trkpt lat="43.3728370" lon="-1.8178720">
        <ele>173.2</ele>
        <time>2022-10-29T09:28:00Z</time>
      </trkpt>
      <trkpt lat="43.3731350" lon="-1.8178160">
        <ele>172.4</ele>
        <time>2022-10-29T09:28:04Z</time>
      </trkpt>
      <trkpt lat="43.3731960" lon="-1.8177940">
        <ele>172.2</ele>
        <time>2022-10-29T09:28:05Z</time>
      </trkpt>
      <trkpt lat="43.3732540" lon="-1.8177850">
        <ele>172.0</ele>
        <time>2022-10-29T09:28:06Z</time>
      </trkpt>
      <trkpt lat="43.3733060" lon="-1.8177960">
        <ele>171.8</ele>
        <time>2022-10-29T09:28:07Z</time>
      </trkpt>
      <trkpt lat="43.3733520" lon="-1.8178440">
        <ele>171.6</ele>
        <time>2022-10-29T09:28:08Z</time>
      </trkpt>
      <trkpt lat="43.3733960" lon="-1.8179090">
        <ele>171.4</ele>
        <time>2022-10-29T09:28:09Z</time>
      </trkpt>
      <trkpt lat="43.3734440" lon="-1.8179720">
        <ele>170.8</ele>
        <time>2022-10-29T09:28:10Z</time>
      </trkpt>
      <trkpt lat="43.3735030" lon="-1.8180290">
        <ele>170.4</ele>
        <time>2022-10-29T09:28:11Z</time>
      </trkpt>
      <trkpt lat="43.3735780" lon="-1.8180710">
        <ele>170.2</ele>
        <time>2022-10-29T09:28:12Z</time>
      </trkpt>
      <trkpt lat="43.3736650" lon="-1.8181000">
        <ele>170.0</ele>
        <time>2022-10-29T09:28:13Z</time>
      </trkpt>
      <trkpt lat="43.3737620" lon="-1.8181110">
        <ele>169.8</ele>
        <time>2022-10-29T09:28:14Z</time>
      </trkpt>
      <trkpt lat="43.3738660" lon="-1.8181130">
        <ele>169.2</ele>
        <time>2022-10-29T09:28:15Z</time>
      </trkpt>
      <trkpt lat="43.3739770" lon="-1.8181150">
        <ele>168.8</ele>
        <time>2022-10-29T09:28:16Z</time>
      </trkpt>
      <trkpt lat="43.3740960" lon="-1.8181210">
        <ele>168.6</ele>
        <time>2022-10-29T09:28:17Z</time>
      </trkpt>
      <trkpt lat="43.3742230" lon="-1.8181310">
        <ele>167.8</ele>
        <time>2022-10-29T09:28:18Z</time>
      </trkpt>
      <trkpt lat="43.3743530" lon="-1.8181450">
        <ele>167.0</ele>
        <time>2022-10-29T09:28:19Z</time>
      </trkpt>
      <trkpt lat="43.3744880" lon="-1.8181680">
        <ele>166.4</ele>
        <time>2022-10-29T09:28:20Z</time>
      </trkpt>
      <trkpt lat="43.3747640" lon="-1.8182460">
        <ele>164.8</ele>
        <time>2022-10-29T09:28:22Z</time>
      </trkpt>
      <trkpt lat="43.3749070" lon="-1.8182900">
        <ele>163.4</ele>
        <time>2022-10-29T09:28:23Z</time>
      </trkpt>
      <trkpt lat="43.3751920" lon="-1.8183920">
        <ele>161.8</ele>
        <time>2022-10-29T09:28:25Z</time>
      </trkpt>
      <trkpt lat="43.3754730" lon="-1.8184950">
        <ele>160.2</ele>
        <time>2022-10-29T09:28:27Z</time>
      </trkpt>
      <trkpt lat="43.3756050" lon="-1.8185460">
        <ele>159.2</ele>
        <time>2022-10-29T09:28:28Z</time>
      </trkpt>
      <trkpt lat="43.3757270" lon="-1.8185870">
        <ele>157.6</ele>
        <time>2022-10-29T09:28:29Z</time>
      </trkpt>
      <trkpt lat="43.3758470" lon="-1.8186110">
        <ele>156.4</ele>
        <time>2022-10-29T09:28:30Z</time>
      </trkpt>
      <trkpt lat="43.3759620" lon="-1.8186200">
        <ele>155.8</ele>
        <time>2022-10-29T09:28:31Z</time>
      </trkpt>
      <trkpt lat="43.3760760" lon="-1.8186170">
        <ele>154.4</ele>
        <time>2022-10-29T09:28:32Z</time>
      </trkpt>
      <trkpt lat="43.3761890" lon="-1.8186110">
        <ele>153.4</ele>
        <time>2022-10-29T09:28:33Z</time>
      </trkpt>
      <trkpt lat="43.3763020" lon="-1.8186030">
        <ele>151.8</ele>
        <time>2022-10-29T09:28:34Z</time>
      </trkpt>
      <trkpt lat="43.3764140" lon="-1.8185930">
        <ele>151.0</ele>
        <time>2022-10-29T09:28:35Z</time>
      </trkpt>
      <trkpt lat="43.3765260" lon="-1.8185900">
        <ele>149.6</ele>
        <time>2022-10-29T09:28:36Z</time>
      </trkpt>
      <trkpt lat="43.3766340" lon="-1.8186000">
        <ele>148.8</ele>
        <time>2022-10-29T09:28:37Z</time>
      </trkpt>
      <trkpt lat="43.3767350" lon="-1.8186220">
        <ele>147.8</ele>
        <time>2022-10-29T09:28:38Z</time>
      </trkpt>
      <trkpt lat="43.3768290" lon="-1.8186420">
        <ele>147.0</ele>
        <time>2022-10-29T09:28:39Z</time>
      </trkpt>
      <trkpt lat="43.3769060" lon="-1.8186610">
        <ele>146.8</ele>
        <time>2022-10-29T09:28:40Z</time>
      </trkpt>
      <trkpt lat="43.3769680" lon="-1.8186810">
        <ele>145.8</ele>
        <time>2022-10-29T09:28:41Z</time>
      </trkpt>
      <trkpt lat="43.3770160" lon="-1.8187080">
        <ele>145.2</ele>
        <time>2022-10-29T09:28:42Z</time>
      </trkpt>
      <trkpt lat="43.3770510" lon="-1.8187400">
        <ele>143.6</ele>
        <time>2022-10-29T09:28:43Z</time>
      </trkpt>
      <trkpt lat="43.3770840" lon="-1.8187620">
        <ele>142.8</ele>
        <time>2022-10-29T09:28:44Z</time>
      </trkpt>
      <trkpt lat="43.3771220" lon="-1.8187770">
        <ele>141.2</ele>
        <time>2022-10-29T09:28:45Z</time>
      </trkpt>
      <trkpt lat="43.3771650" lon="-1.8187880">
        <ele>140.6</ele>
        <time>2022-10-29T09:28:46Z</time>
      </trkpt>
      <trkpt lat="43.3772120" lon="-1.8187980">
        <ele>139.8</ele>
        <time>2022-10-29T09:28:47Z</time>
      </trkpt>
      <trkpt lat="43.3772640" lon="-1.8188080">
        <ele>138.4</ele>
        <time>2022-10-29T09:28:48Z</time>
      </trkpt>
      <trkpt lat="43.3773250" lon="-1.8188140">
        <ele>137.8</ele>
        <time>2022-10-29T09:28:49Z</time>
      </trkpt>
      <trkpt lat="43.3773930" lon="-1.8188220">
        <ele>136.8</ele>
        <time>2022-10-29T09:28:50Z</time>
      </trkpt>
      <trkpt lat="43.3776400" lon="-1.8188290">
        <ele>135.6</ele>
        <time>2022-10-29T09:28:53Z</time>
      </trkpt>
      <trkpt lat="43.3777280" lon="-1.8188140">
        <ele>134.6</ele>
        <time>2022-10-29T09:28:54Z</time>
      </trkpt>
      <trkpt lat="43.3778140" lon="-1.8187900">
        <ele>134.4</ele>
        <time>2022-10-29T09:28:55Z</time>
      </trkpt>
      <trkpt lat="43.3779950" lon="-1.8187350">
        <ele>133.0</ele>
        <time>2022-10-29T09:28:57Z</time>
      </trkpt>
      <trkpt lat="43.3780870" lon="-1.8186990">
        <ele>131.4</ele>
        <time>2022-10-29T09:28:58Z</time>
      </trkpt>
      <trkpt lat="43.3781710" lon="-1.8186670">
        <ele>130.4</ele>
        <time>2022-10-29T09:28:59Z</time>
      </trkpt>
      <trkpt lat="43.3782430" lon="-1.8186470">
        <ele>130.0</ele>
        <time>2022-10-29T09:29:00Z</time>
      </trkpt>
      <trkpt lat="43.3783070" lon="-1.8186410">
        <ele>128.6</ele>
        <time>2022-10-29T09:29:01Z</time>
      </trkpt>
      <trkpt lat="43.3783690" lon="-1.8186390">
        <ele>127.8</ele>
        <time>2022-10-29T09:29:02Z</time>
      </trkpt>
      <trkpt lat="43.3784300" lon="-1.8186440">
        <ele>127.0</ele>
        <time>2022-10-29T09:29:03Z</time>
      </trkpt>
      <trkpt lat="43.3784970" lon="-1.8186550">
        <ele>126.6</ele>
        <time>2022-10-29T09:29:04Z</time>
      </trkpt>
      <trkpt lat="43.3785700" lon="-1.8186700">
        <ele>125.8</ele>
        <time>2022-10-29T09:29:05Z</time>
      </trkpt>
      <trkpt lat="43.3786470" lon="-1.8186930">
        <ele>125.4</ele>
        <time>2022-10-29T09:29:06Z</time>
      </trkpt>
      <trkpt lat="43.3787290" lon="-1.8187160">
        <ele>124.4</ele>
        <time>2022-10-29T09:29:07Z</time>
      </trkpt>
      <trkpt lat="43.3788080" lon="-1.8187300">
        <ele>122.8</ele>
        <time>2022-10-29T09:29:08Z</time>
      </trkpt>
      <trkpt lat="43.3789680" lon="-1.8187330">
        <ele>121.8</ele>
        <time>2022-10-29T09:29:10Z</time>
      </trkpt>
      <trkpt lat="43.3790510" lon="-1.8187370">
        <ele>121.4</ele>
        <time>2022-10-29T09:29:11Z</time>
      </trkpt>
      <trkpt lat="43.3791340" lon="-1.8187510">
        <ele>119.8</ele>
        <time>2022-10-29T09:29:12Z</time>
      </trkpt>
      <trkpt lat="43.3792910" lon="-1.8187880">
        <ele>118.4</ele>
        <time>2022-10-29T09:29:14Z</time>
      </trkpt>
      <trkpt lat="43.3794530" lon="-1.8188100">
        <ele>117.0</ele>
        <time>2022-10-29T09:29:16Z</time>
      </trkpt>
      <trkpt lat="43.3796070" lon="-1.8188420">
        <ele>115.2</ele>
        <time>2022-10-29T09:29:18Z</time>
      </trkpt>
      <trkpt lat="43.3796790" lon="-1.8188630">
        <ele>113.8</ele>
        <time>2022-10-29T09:29:19Z</time>
      </trkpt>
      <trkpt lat="43.3797440" lon="-1.8188830">
        <ele>113.4</ele>
        <time>2022-10-29T09:29:20Z</time>
      </trkpt>
      <trkpt lat="43.3798110" lon="-1.8189010">
        <ele>112.8</ele>
        <time>2022-10-29T09:29:21Z</time>
      </trkpt>
      <trkpt lat="43.3798790" lon="-1.8189230">
        <ele>112.4</ele>
        <time>2022-10-29T09:29:22Z</time>
      </trkpt>
      <trkpt lat="43.3799480" lon="-1.8189540">
        <ele>111.6</ele>
        <time>2022-10-29T09:29:23Z</time>
      </trkpt>
      <trkpt lat="43.3800170" lon="-1.8189900">
        <ele>111.4</ele>
        <time>2022-10-29T09:29:24Z</time>
      </trkpt>
      <trkpt lat="43.3800810" lon="-1.8190340">
        <ele>110.4</ele>
        <time>2022-10-29T09:29:25Z</time>
      </trkpt>
      <trkpt lat="43.3801440" lon="-1.8190790">
        <ele>109.8</ele>
        <time>2022-10-29T09:29:26Z</time>
      </trkpt>
      <trkpt lat="43.3802070" lon="-1.8191300">
        <ele>108.6</ele>
        <time>2022-10-29T09:29:27Z</time>
      </trkpt>
      <trkpt lat="43.3803910" lon="-1.8192940">
        <ele>107.0</ele>
        <time>2022-10-29T09:29:30Z</time>
      </trkpt>
      <trkpt lat="43.3804980" lon="-1.8194310">
        <ele>105.8</ele>
        <time>2022-10-29T09:29:32Z</time>
      </trkpt>
      <trkpt lat="43.3805470" lon="-1.8195110">
        <ele>104.6</ele>
        <time>2022-10-29T09:29:33Z</time>
      </trkpt>
      <trkpt lat="43.3805950" lon="-1.8195930">
        <ele>103.4</ele>
        <time>2022-10-29T09:29:34Z</time>
      </trkpt>
      <trkpt lat="43.3806430" lon="-1.8196730">
        <ele>103.0</ele>
        <time>2022-10-29T09:29:35Z</time>
      </trkpt>
      <trkpt lat="43.3807540" lon="-1.8197790">
        <ele>101.6</ele>
        <time>2022-10-29T09:29:37Z</time>
      </trkpt>
      <trkpt lat="43.3808150" lon="-1.8197900">
        <ele>100.4</ele>
        <time>2022-10-29T09:29:38Z</time>
      </trkpt>
      <trkpt lat="43.3808760" lon="-1.8197840">
        <ele>99.4</ele>
        <time>2022-10-29T09:29:39Z</time>
      </trkpt>
      <trkpt lat="43.3809350" lon="-1.8197650">
        <ele>98.6</ele>
        <time>2022-10-29T09:29:40Z</time>
      </trkpt>
      <trkpt lat="43.3809970" lon="-1.8197360">
        <ele>97.8</ele>
        <time>2022-10-29T09:29:41Z</time>
      </trkpt>
      <trkpt lat="43.3810560" lon="-1.8196960">
        <ele>97.4</ele>
        <time>2022-10-29T09:29:42Z</time>
      </trkpt>
      <trkpt lat="43.3811060" lon="-1.8196520">
        <ele>96.6</ele>
        <time>2022-10-29T09:29:43Z</time>
      </trkpt>
      <trkpt lat="43.3811560" lon="-1.8196080">
        <ele>96.2</ele>
        <time>2022-10-29T09:29:44Z</time>
      </trkpt>
      <trkpt lat="43.3812070" lon="-1.8195550">
        <ele>95.6</ele>
        <time>2022-10-29T09:29:45Z</time>
      </trkpt>
      <trkpt lat="43.3813230" lon="-1.8194410">
        <ele>94.8</ele>
        <time>2022-10-29T09:29:47Z</time>
      </trkpt>
      <trkpt lat="43.3813810" lon="-1.8193860">
        <ele>94.2</ele>
        <time>2022-10-29T09:29:48Z</time>
      </trkpt>
      <trkpt lat="43.3814410" lon="-1.8193380">
        <ele>94.2</ele>
        <time>2022-10-29T09:29:49Z</time>
      </trkpt>
      <trkpt lat="43.3815030" lon="-1.8192960">
        <ele>93.6</ele>
        <time>2022-10-29T09:29:50Z</time>
      </trkpt>
      <trkpt lat="43.3815680" lon="-1.8192500">
        <ele>93.2</ele>
        <time>2022-10-29T09:29:51Z</time>
      </trkpt>
      <trkpt lat="43.3816320" lon="-1.8192170">
        <ele>92.4</ele>
        <time>2022-10-29T09:29:52Z</time>
      </trkpt>
      <trkpt lat="43.3816970" lon="-1.8191910">
        <ele>92.0</ele>
        <time>2022-10-29T09:29:53Z</time>
      </trkpt>
      <trkpt lat="43.3817620" lon="-1.8191770">
        <ele>90.8</ele>
        <time>2022-10-29T09:29:54Z</time>
      </trkpt>
      <trkpt lat="43.3818160" lon="-1.8191750">
        <ele>90.2</ele>
        <time>2022-10-29T09:29:55Z</time>
      </trkpt>
      <trkpt lat="43.3818740" lon="-1.8191670">
        <ele>89.2</ele>
        <time>2022-10-29T09:29:56Z</time>
      </trkpt>
      <trkpt lat="43.3819330" lon="-1.8191700">
        <ele>87.8</ele>
        <time>2022-10-29T09:29:57Z</time>
      </trkpt>
      <trkpt lat="43.3819900" lon="-1.8191770">
        <ele>87.4</ele>
        <time>2022-10-29T09:29:58Z</time>
      </trkpt>
      <trkpt lat="43.3820420" lon="-1.8191840">
        <ele>86.8</ele>
        <time>2022-10-29T09:29:59Z</time>
      </trkpt>
      <trkpt lat="43.3820920" lon="-1.8192130">
        <ele>86.6</ele>
        <time>2022-10-29T09:30:00Z</time>
      </trkpt>
      <trkpt lat="43.3821340" lon="-1.8192480">
        <ele>85.4</ele>
        <time>2022-10-29T09:30:01Z</time>
      </trkpt>
      <trkpt lat="43.3821700" lon="-1.8192830">
        <ele>84.8</ele>
        <time>2022-10-29T09:30:02Z</time>
      </trkpt>
      <trkpt lat="43.3822000" lon="-1.8193080">
        <ele>83.6</ele>
        <time>2022-10-29T09:30:03Z</time>
      </trkpt>
      <trkpt lat="43.3822330" lon="-1.8193300">
        <ele>83.2</ele>
        <time>2022-10-29T09:30:04Z</time>
      </trkpt>
      <trkpt lat="43.3822730" lon="-1.8193540">
        <ele>82.8</ele>
        <time>2022-10-29T09:30:05Z</time>
      </trkpt>
      <trkpt lat="43.3823140" lon="-1.8193760">
        <ele>82.2</ele>
        <time>2022-10-29T09:30:06Z</time>
      </trkpt>
      <trkpt lat="43.3823530" lon="-1.8193840">
        <ele>81.4</ele>
        <time>2022-10-29T09:30:07Z</time>
      </trkpt>
      <trkpt lat="43.3823940" lon="-1.8193750">
        <ele>80.6</ele>
        <time>2022-10-29T09:30:08Z</time>
      </trkpt>
      <trkpt lat="43.3824360" lon="-1.8193410">
        <ele>80.4</ele>
        <time>2022-10-29T09:30:09Z</time>
      </trkpt>
      <trkpt lat="43.3824800" lon="-1.8192990">
        <ele>79.6</ele>
        <time>2022-10-29T09:30:10Z</time>
      </trkpt>
      <trkpt lat="43.3825230" lon="-1.8192400">
        <ele>79.0</ele>
        <time>2022-10-29T09:30:11Z</time>
      </trkpt>
      <trkpt lat="43.3825600" lon="-1.8191830">
        <ele>77.8</ele>
        <time>2022-10-29T09:30:12Z</time>
      </trkpt>
      <trkpt lat="43.3826060" lon="-1.8191030">
        <ele>77.2</ele>
        <time>2022-10-29T09:30:13Z</time>
      </trkpt>
      <trkpt lat="43.3826420" lon="-1.8190380">
        <ele>76.2</ele>
        <time>2022-10-29T09:30:14Z</time>
      </trkpt>
      <trkpt lat="43.3826900" lon="-1.8189780">
        <ele>76.0</ele>
        <time>2022-10-29T09:30:15Z</time>
      </trkpt>
      <trkpt lat="43.3827450" lon="-1.8189350">
        <ele>75.4</ele>
        <time>2022-10-29T09:30:16Z</time>
      </trkpt>
      <trkpt lat="43.3827950" lon="-1.8189200">
        <ele>75.2</ele>
        <time>2022-10-29T09:30:17Z</time>
      </trkpt>
      <trkpt lat="43.3829140" lon="-1.8189370">
        <ele>74.0</ele>
        <time>2022-10-29T09:30:19Z</time>
      </trkpt>
      <trkpt lat="43.3829780" lon="-1.8189280">
        <ele>73.8</ele>
        <time>2022-10-29T09:30:20Z</time>
      </trkpt>
      <trkpt lat="43.3830300" lon="-1.8189290">
        <ele>73.0</ele>
        <time>2022-10-29T09:30:21Z</time>
      </trkpt>
      <trkpt lat="43.3831590" lon="-1.8189280">
        <ele>72.4</ele>
        <time>2022-10-29T09:30:23Z</time>
      </trkpt>
      <trkpt lat="43.3832190" lon="-1.8189150">
        <ele>72.4</ele>
        <time>2022-10-29T09:30:24Z</time>
      </trkpt>
      <trkpt lat="43.3833420" lon="-1.8188870">
        <ele>71.6</ele>
        <time>2022-10-29T09:30:26Z</time>
      </trkpt>
      <trkpt lat="43.3834070" lon="-1.8188730">
        <ele>71.0</ele>
        <time>2022-10-29T09:30:27Z</time>
      </trkpt>
      <trkpt lat="43.3835210" lon="-1.8188510">
        <ele>69.6</ele>
        <time>2022-10-29T09:30:29Z</time>
      </trkpt>
      <trkpt lat="43.3835660" lon="-1.8188300">
        <ele>67.4</ele>
        <time>2022-10-29T09:30:30Z</time>
      </trkpt>
      <trkpt lat="43.3836090" lon="-1.8188050">
        <ele>66.6</ele>
        <time>2022-10-29T09:30:31Z</time>
      </trkpt>
      <trkpt lat="43.3836550" lon="-1.8187800">
        <ele>65.4</ele>
        <time>2022-10-29T09:30:32Z</time>
      </trkpt>
      <trkpt lat="43.3837060" lon="-1.8187490">
        <ele>64.8</ele>
        <time>2022-10-29T09:30:33Z</time>
      </trkpt>
      <trkpt lat="43.3837500" lon="-1.8187130">
        <ele>64.0</ele>
        <time>2022-10-29T09:30:34Z</time>
      </trkpt>
      <trkpt lat="43.3838360" lon="-1.8186400">
        <ele>63.6</ele>
        <time>2022-10-29T09:30:36Z</time>
      </trkpt>
      <trkpt lat="43.3838780" lon="-1.8186080">
        <ele>63.4</ele>
        <time>2022-10-29T09:30:37Z</time>
      </trkpt>
      <trkpt lat="43.3839210" lon="-1.8185740">
        <ele>63.0</ele>
        <time>2022-10-29T09:30:38Z</time>
      </trkpt>
      <trkpt lat="43.3839670" lon="-1.8185310">
        <ele>62.6</ele>
        <time>2022-10-29T09:30:39Z</time>
      </trkpt>
      <trkpt lat="43.3840610" lon="-1.8184160">
        <ele>60.0</ele>
        <time>2022-10-29T09:30:41Z</time>
      </trkpt>
      <trkpt lat="43.3841540" lon="-1.8182870">
        <ele>58.8</ele>
        <time>2022-10-29T09:30:43Z</time>
      </trkpt>
      <trkpt lat="43.3842350" lon="-1.8181740">
        <ele>57.8</ele>
        <time>2022-10-29T09:30:45Z</time>
      </trkpt>
      <trkpt lat="43.3842790" lon="-1.8181300">
        <ele>57.6</ele>
        <time>2022-10-29T09:30:46Z</time>
      </trkpt>
      <trkpt lat="43.3843330" lon="-1.8180870">
        <ele>57.2</ele>
        <time>2022-10-29T09:30:47Z</time>
      </trkpt>
      <trkpt lat="43.3843780" lon="-1.8180310">
        <ele>56.4</ele>
        <time>2022-10-29T09:30:48Z</time>
      </trkpt>
      <trkpt lat="43.3844380" lon="-1.8178910">
        <ele>55.0</ele>
        <time>2022-10-29T09:30:50Z</time>
      </trkpt>
      <trkpt lat="43.3844510" lon="-1.8178220">
        <ele>54.4</ele>
        <time>2022-10-29T09:30:51Z</time>
      </trkpt>
      <trkpt lat="43.3844560" lon="-1.8177580">
        <ele>53.4</ele>
        <time>2022-10-29T09:30:52Z</time>
      </trkpt>
      <trkpt lat="43.3844490" lon="-1.8177000">
        <ele>53.2</ele>
        <time>2022-10-29T09:30:53Z</time>
      </trkpt>
      <trkpt lat="43.3844340" lon="-1.8176480">
        <ele>52.8</ele>
        <time>2022-10-29T09:30:54Z</time>
      </trkpt>
      <trkpt lat="43.3844140" lon="-1.8176010">
        <ele>52.6</ele>
        <time>2022-10-29T09:30:55Z</time>
      </trkpt>
      <trkpt lat="43.3843920" lon="-1.8175500">
        <ele>52.2</ele>
        <time>2022-10-29T09:30:56Z</time>
      </trkpt>
      <trkpt lat="43.3843610" lon="-1.8174980">
        <ele>51.6</ele>
        <time>2022-10-29T09:30:57Z</time>
      </trkpt>
      <trkpt lat="43.3843270" lon="-1.8174580">
        <ele>51.0</ele>
        <time>2022-10-29T09:30:58Z</time>
      </trkpt>
      <trkpt lat="43.3842970" lon="-1.8174180">
        <ele>50.2</ele>
        <time>2022-10-29T09:30:59Z</time>
      </trkpt>
      <trkpt lat="43.3842530" lon="-1.8173770">
        <ele>50.0</ele>
        <time>2022-10-29T09:31:00Z</time>
      </trkpt>
      <trkpt lat="43.3842030" lon="-1.8173410">
        <ele>49.2</ele>
        <time>2022-10-29T09:31:01Z</time>
      </trkpt>
      <trkpt lat="43.3841630" lon="-1.8172990">
        <ele>48.6</ele>
        <time>2022-10-29T09:31:02Z</time>
      </trkpt>
      <trkpt lat="43.3841060" lon="-1.8171980">
        <ele>47.6</ele>
        <time>2022-10-29T09:31:04Z</time>
      </trkpt>
      <trkpt lat="43.3840840" lon="-1.8171460">
        <ele>47.0</ele>
        <time>2022-10-29T09:31:05Z</time>
      </trkpt>
      <trkpt lat="43.3841030" lon="-1.8170400">
        <ele>46.8</ele>
        <time>2022-10-29T09:31:06Z</time>
      </trkpt>
      <trkpt lat="43.3841370" lon="-1.8169200">
        <ele>46.4</ele>
        <time>2022-10-29T09:31:07Z</time>
      </trkpt>
      <trkpt lat="43.3841610" lon="-1.8168320">
        <ele>46.2</ele>
        <time>2022-10-29T09:31:08Z</time>
      </trkpt>
      <trkpt lat="43.3841830" lon="-1.8167510">
        <ele>46.0</ele>
        <time>2022-10-29T09:31:09Z</time>
      </trkpt>
      <trkpt lat="43.3842210" lon="-1.8166920">
        <ele>45.8</ele>
        <time>2022-10-29T09:31:10Z</time>
      </trkpt>
      <trkpt lat="43.3842620" lon="-1.8166270">
        <ele>45.6</ele>
        <time>2022-10-29T09:31:11Z</time>
      </trkpt>
      <trkpt lat="43.3843000" lon="-1.8165690">
        <ele>45.6</ele>
        <time>2022-10-29T09:31:12Z</time>
      </trkpt>
      <trkpt lat="43.3843470" lon="-1.8165130">
        <ele>45.6</ele>
        <time>2022-10-29T09:31:13Z</time>
      </trkpt>
      <trkpt lat="43.3844700" lon="-1.8163070">
        <ele>45.6</ele>
        <time>2022-10-29T09:31:16Z</time>
      </trkpt>
      <trkpt lat="43.3845040" lon="-1.8162280">
        <ele>45.8</ele>
        <time>2022-10-29T09:31:17Z</time>
      </trkpt>
      <trkpt lat="43.3845740" lon="-1.8160540">
        <ele>46.2</ele>
        <time>2022-10-29T09:31:19Z</time>
      </trkpt>
      <trkpt lat="43.3846400" lon="-1.8159230">
        <ele>46.8</ele>
        <time>2022-10-29T09:31:21Z</time>
      </trkpt>
      <trkpt lat="43.3847140" lon="-1.8157410">
        <ele>47.0</ele>
        <time>2022-10-29T09:31:23Z</time>
      </trkpt>
      <trkpt lat="43.3847420" lon="-1.8156570">
        <ele>47.0</ele>
        <time>2022-10-29T09:31:24Z</time>
      </trkpt>
      <trkpt lat="43.3847660" lon="-1.8155680">
        <ele>47.0</ele>
        <time>2022-10-29T09:31:25Z</time>
      </trkpt>
      <trkpt lat="43.3848180" lon="-1.8153580">
        <ele>47.4</ele>
        <time>2022-10-29T09:31:27Z</time>
      </trkpt>
      <trkpt lat="43.3848330" lon="-1.8152630">
        <ele>47.6</ele>
        <time>2022-10-29T09:31:28Z</time>
      </trkpt>
      <trkpt lat="43.3848580" lon="-1.8150820">
        <ele>48.8</ele>
        <time>2022-10-29T09:31:30Z</time>
      </trkpt>
      <trkpt lat="43.3848910" lon="-1.8150030">
        <ele>49.4</ele>
        <time>2022-10-29T09:31:31Z</time>
      </trkpt>
      <trkpt lat="43.3849160" lon="-1.8149270">
        <ele>49.8</ele>
        <time>2022-10-29T09:31:32Z</time>
      </trkpt>
      <trkpt lat="43.3849320" lon="-1.8148460">
        <ele>50.0</ele>
        <time>2022-10-29T09:31:33Z</time>
      </trkpt>
      <trkpt lat="43.3849390" lon="-1.8147620">
        <ele>50.2</ele>
        <time>2022-10-29T09:31:34Z</time>
      </trkpt>
      <trkpt lat="43.3849320" lon="-1.8146830">
        <ele>50.4</ele>
        <time>2022-10-29T09:31:35Z</time>
      </trkpt>
      <trkpt lat="43.3849090" lon="-1.8146140">
        <ele>50.4</ele>
        <time>2022-10-29T09:31:36Z</time>
      </trkpt>
      <trkpt lat="43.3848420" lon="-1.8144890">
        <ele>50.4</ele>
        <time>2022-10-29T09:31:38Z</time>
      </trkpt>
      <trkpt lat="43.3848100" lon="-1.8144320">
        <ele>50.4</ele>
        <time>2022-10-29T09:31:39Z</time>
      </trkpt>
      <trkpt lat="43.3847810" lon="-1.8143670">
        <ele>50.4</ele>
        <time>2022-10-29T09:31:40Z</time>
      </trkpt>
      <trkpt lat="43.3847570" lon="-1.8142950">
        <ele>50.4</ele>
        <time>2022-10-29T09:31:41Z</time>
      </trkpt>
      <trkpt lat="43.3847400" lon="-1.8142130">
        <ele>50.4</ele>
        <time>2022-10-29T09:31:42Z</time>
      </trkpt>
      <trkpt lat="43.3847350" lon="-1.8141190">
        <ele>50.2</ele>
        <time>2022-10-29T09:31:43Z</time>
      </trkpt>
      <trkpt lat="43.3847490" lon="-1.8140270">
        <ele>50.2</ele>
        <time>2022-10-29T09:31:44Z</time>
      </trkpt>
      <trkpt lat="43.3847720" lon="-1.8139220">
        <ele>50.2</ele>
        <time>2022-10-29T09:31:45Z</time>
      </trkpt>
      <trkpt lat="43.3847820" lon="-1.8138300">
        <ele>50.0</ele>
        <time>2022-10-29T09:31:46Z</time>
      </trkpt>
      <trkpt lat="43.3847790" lon="-1.8137020">
        <ele>50.0</ele>
        <time>2022-10-29T09:31:47Z</time>
      </trkpt>
      <trkpt lat="43.3847610" lon="-1.8135960">
        <ele>49.8</ele>
        <time>2022-10-29T09:31:48Z</time>
      </trkpt>
      <trkpt lat="43.3847260" lon="-1.8134970">
        <ele>49.8</ele>
        <time>2022-10-29T09:31:49Z</time>
      </trkpt>
      <trkpt lat="43.3846930" lon="-1.8134050">
        <ele>49.8</ele>
        <time>2022-10-29T09:31:50Z</time>
      </trkpt>
      <trkpt lat="43.3846650" lon="-1.8133140">
        <ele>49.8</ele>
        <time>2022-10-29T09:31:51Z</time>
      </trkpt>
      <trkpt lat="43.3846350" lon="-1.8132270">
        <ele>49.6</ele>
        <time>2022-10-29T09:31:52Z</time>
      </trkpt>
      <trkpt lat="43.3846090" lon="-1.8131410">
        <ele>49.6</ele>
        <time>2022-10-29T09:31:53Z</time>
      </trkpt>
      <trkpt lat="43.3845870" lon="-1.8130570">
        <ele>49.6</ele>
        <time>2022-10-29T09:31:54Z</time>
      </trkpt>
      <trkpt lat="43.3845770" lon="-1.8129690">
        <ele>49.6</ele>
        <time>2022-10-29T09:31:55Z</time>
      </trkpt>
      <trkpt lat="43.3845860" lon="-1.8128780">
        <ele>49.6</ele>
        <time>2022-10-29T09:31:56Z</time>
      </trkpt>
      <trkpt lat="43.3845900" lon="-1.8127700">
        <ele>49.2</ele>
        <time>2022-10-29T09:31:57Z</time>
      </trkpt>
      <trkpt lat="43.3845970" lon="-1.8126610">
        <ele>49.0</ele>
        <time>2022-10-29T09:31:58Z</time>
      </trkpt>
      <trkpt lat="43.3846080" lon="-1.8125750">
        <ele>48.8</ele>
        <time>2022-10-29T09:31:59Z</time>
      </trkpt>
      <trkpt lat="43.3846010" lon="-1.8124560">
        <ele>48.6</ele>
        <time>2022-10-29T09:32:00Z</time>
      </trkpt>
      <trkpt lat="43.3845780" lon="-1.8123570">
        <ele>48.8</ele>
        <time>2022-10-29T09:32:01Z</time>
      </trkpt>
      <trkpt lat="43.3845460" lon="-1.8122460">
        <ele>48.6</ele>
        <time>2022-10-29T09:32:02Z</time>
      </trkpt>
      <trkpt lat="43.3844950" lon="-1.8120610">
        <ele>48.4</ele>
        <time>2022-10-29T09:32:04Z</time>
      </trkpt>
      <trkpt lat="43.3844090" lon="-1.8118750">
        <ele>48.0</ele>
        <time>2022-10-29T09:32:06Z</time>
      </trkpt>
      <trkpt lat="43.3843110" lon="-1.8117750">
        <ele>47.6</ele>
        <time>2022-10-29T09:32:08Z</time>
      </trkpt>
      <trkpt lat="43.3842750" lon="-1.8117540">
        <ele>47.4</ele>
        <time>2022-10-29T09:32:09Z</time>
      </trkpt>
      <trkpt lat="43.3842260" lon="-1.8117320">
        <ele>46.4</ele>
        <time>2022-10-29T09:32:10Z</time>
      </trkpt>
      <trkpt lat="43.3841620" lon="-1.8117050">
        <ele>46.0</ele>
        <time>2022-10-29T09:32:11Z</time>
      </trkpt>
      <trkpt lat="43.3841090" lon="-1.8116880">
        <ele>45.2</ele>
        <time>2022-10-29T09:32:12Z</time>
      </trkpt>
      <trkpt lat="43.3840500" lon="-1.8116650">
        <ele>45.0</ele>
        <time>2022-10-29T09:32:13Z</time>
      </trkpt>
      <trkpt lat="43.3839080" lon="-1.8116190">
        <ele>43.8</ele>
        <time>2022-10-29T09:32:15Z</time>
      </trkpt>
      <trkpt lat="43.3838310" lon="-1.8116230">
        <ele>42.6</ele>
        <time>2022-10-29T09:32:16Z</time>
      </trkpt>
      <trkpt lat="43.3837730" lon="-1.8116460">
        <ele>41.4</ele>
        <time>2022-10-29T09:32:17Z</time>
      </trkpt>
      <trkpt lat="43.3837150" lon="-1.8116910">
        <ele>41.0</ele>
        <time>2022-10-29T09:32:18Z</time>
      </trkpt>
      <trkpt lat="43.3836600" lon="-1.8117390">
        <ele>40.4</ele>
        <time>2022-10-29T09:32:19Z</time>
      </trkpt>
      <trkpt lat="43.3836120" lon="-1.8117780">
        <ele>40.0</ele>
        <time>2022-10-29T09:32:20Z</time>
      </trkpt>
      <trkpt lat="43.3835850" lon="-1.8118080">
        <ele>39.2</ele>
        <time>2022-10-29T09:32:21Z</time>
      </trkpt>
      <trkpt lat="43.3835530" lon="-1.8118330">
        <ele>38.8</ele>
        <time>2022-10-29T09:32:22Z</time>
      </trkpt>
      <trkpt lat="43.3835260" lon="-1.8118470">
        <ele>38.6</ele>
        <time>2022-10-29T09:32:23Z</time>
      </trkpt>
      <trkpt lat="43.3835000" lon="-1.8118510">
        <ele>38.6</ele>
        <time>2022-10-29T09:32:24Z</time>
      </trkpt>
      <trkpt lat="43.3834780" lon="-1.8118570">
        <ele>38.8</ele>
        <time>2022-10-29T09:32:25Z</time>
      </trkpt>
      <trkpt lat="43.3834550" lon="-1.8118630">
        <ele>39.0</ele>
        <time>2022-10-29T09:32:26Z</time>
      </trkpt>
      <trkpt lat="43.3834270" lon="-1.8118670">
        <ele>39.2</ele>
        <time>2022-10-29T09:32:27Z</time>
      </trkpt>
      <trkpt lat="43.3834080" lon="-1.8118740">
        <ele>39.4</ele>
        <time>2022-10-29T09:32:28Z</time>
      </trkpt>
      <trkpt lat="43.3833850" lon="-1.8118730">
        <ele>39.4</ele>
        <time>2022-10-29T09:32:29Z</time>
      </trkpt>
      <trkpt lat="43.3833580" lon="-1.8118690">
        <ele>39.8</ele>
        <time>2022-10-29T09:32:30Z</time>
      </trkpt>
      <trkpt lat="43.3833360" lon="-1.8118720">
        <ele>39.8</ele>
        <time>2022-10-29T09:32:31Z</time>
      </trkpt>
      <trkpt lat="43.3833210" lon="-1.8118850">
        <ele>40.2</ele>
        <time>2022-10-29T09:32:32Z</time>
      </trkpt>
      <trkpt lat="43.3832990" lon="-1.8118960">
        <ele>40.4</ele>
        <time>2022-10-29T09:32:33Z</time>
      </trkpt>
      <trkpt lat="43.3832660" lon="-1.8118990">
        <ele>40.8</ele>
        <time>2022-10-29T09:32:34Z</time>
      </trkpt>
      <trkpt lat="43.3832260" lon="-1.8119020">
        <ele>41.4</ele>
        <time>2022-10-29T09:32:36Z</time>
      </trkpt>
      <trkpt lat="43.3832040" lon="-1.8119010">
        <ele>42.0</ele>
        <time>2022-10-29T09:32:37Z</time>
      </trkpt>
      <trkpt lat="43.3831740" lon="-1.8118950">
        <ele>42.0</ele>
        <time>2022-10-29T09:32:38Z</time>
      </trkpt>
      <trkpt lat="43.3831570" lon="-1.8118870">
        <ele>42.6</ele>
        <time>2022-10-29T09:32:39Z</time>
      </trkpt>
      <trkpt lat="43.3831450" lon="-1.8118800">
        <ele>42.8</ele>
        <time>2022-10-29T09:32:40Z</time>
      </trkpt>
      <trkpt lat="43.3831320" lon="-1.8118720">
        <ele>43.6</ele>
        <time>2022-10-29T09:32:41Z</time>
      </trkpt>
      <trkpt lat="43.3831130" lon="-1.8118570">
        <ele>43.8</ele>
        <time>2022-10-29T09:32:42Z</time>
      </trkpt>
      <trkpt lat="43.3831070" lon="-1.8118350">
        <ele>44.2</ele>
        <time>2022-10-29T09:32:43Z</time>
      </trkpt>
      <trkpt lat="43.3831030" lon="-1.8117880">
        <ele>44.6</ele>
        <time>2022-10-29T09:32:45Z</time>
      </trkpt>
      <trkpt lat="43.3831080" lon="-1.8117590">
        <ele>44.8</ele>
        <time>2022-10-29T09:32:46Z</time>
      </trkpt>
      <trkpt lat="43.3831220" lon="-1.8117350">
        <ele>45.0</ele>
        <time>2022-10-29T09:32:47Z</time>
      </trkpt>
      <trkpt lat="43.3831280" lon="-1.8117210">
        <ele>45.2</ele>
        <time>2022-10-29T09:32:48Z</time>
      </trkpt>
      <trkpt lat="43.3831320" lon="-1.8117050">
        <ele>45.4</ele>
        <time>2022-10-29T09:32:49Z</time>
      </trkpt>
      <trkpt lat="43.3831350" lon="-1.8116810">
        <ele>45.8</ele>
        <time>2022-10-29T09:32:50Z</time>
      </trkpt>
      <trkpt lat="43.3831410" lon="-1.8116590">
        <ele>45.8</ele>
        <time>2022-10-29T09:32:51Z</time>
      </trkpt>
      <trkpt lat="43.3831480" lon="-1.8116380">
        <ele>46.0</ele>
        <time>2022-10-29T09:32:52Z</time>
      </trkpt>
      <trkpt lat="43.3831680" lon="-1.8116190">
        <ele>46.2</ele>
        <time>2022-10-29T09:32:53Z</time>
      </trkpt>
      <trkpt lat="43.3831890" lon="-1.8115940">
        <ele>46.4</ele>
        <time>2022-10-29T09:32:54Z</time>
      </trkpt>
      <trkpt lat="43.3832130" lon="-1.8115680">
        <ele>46.4</ele>
        <time>2022-10-29T09:32:55Z</time>
      </trkpt>
      <trkpt lat="43.3832300" lon="-1.8115450">
        <ele>46.6</ele>
        <time>2022-10-29T09:32:56Z</time>
      </trkpt>
      <trkpt lat="43.3832440" lon="-1.8115200">
        <ele>46.6</ele>
        <time>2022-10-29T09:32:57Z</time>
      </trkpt>
      <trkpt lat="43.3832570" lon="-1.8114970">
        <ele>46.8</ele>
        <time>2022-10-29T09:32:58Z</time>
      </trkpt>
      <trkpt lat="43.3832670" lon="-1.8114710">
        <ele>46.8</ele>
        <time>2022-10-29T09:32:59Z</time>
      </trkpt>
      <trkpt lat="43.3832740" lon="-1.8114440">
        <ele>46.8</ele>
        <time>2022-10-29T09:33:00Z</time>
      </trkpt>
      <trkpt lat="43.3832780" lon="-1.8114140">
        <ele>47.0</ele>
        <time>2022-10-29T09:33:01Z</time>
      </trkpt>
      <trkpt lat="43.3832850" lon="-1.8113850">
        <ele>47.0</ele>
        <time>2022-10-29T09:33:02Z</time>
      </trkpt>
      <trkpt lat="43.3832940" lon="-1.8113610">
        <ele>47.0</ele>
        <time>2022-10-29T09:33:03Z</time>
      </trkpt>
      <trkpt lat="43.3833010" lon="-1.8113410">
        <ele>47.0</ele>
        <time>2022-10-29T09:33:04Z</time>
      </trkpt>
      <trkpt lat="43.3833080" lon="-1.8113210">
        <ele>47.2</ele>
        <time>2022-10-29T09:33:05Z</time>
      </trkpt>
      <trkpt lat="43.3833160" lon="-1.8112970">
        <ele>47.4</ele>
        <time>2022-10-29T09:33:06Z</time>
      </trkpt>
      <trkpt lat="43.3833220" lon="-1.8112710">
        <ele>47.4</ele>
        <time>2022-10-29T09:33:07Z</time>
      </trkpt>
      <trkpt lat="43.3833310" lon="-1.8112470">
        <ele>47.6</ele>
        <time>2022-10-29T09:33:08Z</time>
      </trkpt>
      <trkpt lat="43.3833400" lon="-1.8112210">
        <ele>47.8</ele>
        <time>2022-10-29T09:33:09Z</time>
      </trkpt>
      <trkpt lat="43.3833460" lon="-1.8111970">
        <ele>48.2</ele>
        <time>2022-10-29T09:33:10Z</time>
      </trkpt>
      <trkpt lat="43.3833550" lon="-1.8111750">
        <ele>48.6</ele>
        <time>2022-10-29T09:33:11Z</time>
      </trkpt>
      <trkpt lat="43.3833690" lon="-1.8111490">
        <ele>49.0</ele>
        <time>2022-10-29T09:33:12Z</time>
      </trkpt>
      <trkpt lat="43.3833840" lon="-1.8111170">
        <ele>49.2</ele>
        <time>2022-10-29T09:33:13Z</time>
      </trkpt>
      <trkpt lat="43.3834030" lon="-1.8110860">
        <ele>49.6</ele>
        <time>2022-10-29T09:33:14Z</time>
      </trkpt>
      <trkpt lat="43.3834260" lon="-1.8110540">
        <ele>49.8</ele>
        <time>2022-10-29T09:33:15Z</time>
      </trkpt>
      <trkpt lat="43.3834420" lon="-1.8110240">
        <ele>49.8</ele>
        <time>2022-10-29T09:33:16Z</time>
      </trkpt>
      <trkpt lat="43.3834590" lon="-1.8109860">
        <ele>49.8</ele>
        <time>2022-10-29T09:33:17Z</time>
      </trkpt>
      <trkpt lat="43.3834780" lon="-1.8109540">
        <ele>50.0</ele>
        <time>2022-10-29T09:33:18Z</time>
      </trkpt>
      <trkpt lat="43.3834950" lon="-1.8109280">
        <ele>50.2</ele>
        <time>2022-10-29T09:33:19Z</time>
      </trkpt>
      <trkpt lat="43.3835130" lon="-1.8109100">
        <ele>50.2</ele>
        <time>2022-10-29T09:33:20Z</time>
      </trkpt>
      <trkpt lat="43.3835330" lon="-1.8108920">
        <ele>50.6</ele>
        <time>2022-10-29T09:33:21Z</time>
      </trkpt>
      <trkpt lat="43.3835540" lon="-1.8108720">
        <ele>51.0</ele>
        <time>2022-10-29T09:33:22Z</time>
      </trkpt>
      <trkpt lat="43.3835810" lon="-1.8108500">
        <ele>51.6</ele>
        <time>2022-10-29T09:33:23Z</time>
      </trkpt>
      <trkpt lat="43.3836010" lon="-1.8108200">
        <ele>51.6</ele>
        <time>2022-10-29T09:33:24Z</time>
      </trkpt>
      <trkpt lat="43.3836120" lon="-1.8108080">
        <ele>51.8</ele>
        <time>2022-10-29T09:33:25Z</time>
      </trkpt>
      <trkpt lat="43.3836210" lon="-1.8107990">
        <ele>52.2</ele>
        <time>2022-10-29T09:33:26Z</time>
      </trkpt>
      <trkpt lat="43.3836370" lon="-1.8107970">
        <ele>52.6</ele>
        <time>2022-10-29T09:33:27Z</time>
      </trkpt>
      <trkpt lat="43.3836560" lon="-1.8107900">
        <ele>53.2</ele>
        <time>2022-10-29T09:33:28Z</time>
      </trkpt>
      <trkpt lat="43.3836700" lon="-1.8107840">
        <ele>53.4</ele>
        <time>2022-10-29T09:33:29Z</time>
      </trkpt>
      <trkpt lat="43.3836840" lon="-1.8107770">
        <ele>53.8</ele>
        <time>2022-10-29T09:33:30Z</time>
      </trkpt>
      <trkpt lat="43.3836970" lon="-1.8107660">
        <ele>54.0</ele>
        <time>2022-10-29T09:33:31Z</time>
      </trkpt>
      <trkpt lat="43.3837120" lon="-1.8107540">
        <ele>54.2</ele>
        <time>2022-10-29T09:33:32Z</time>
      </trkpt>
      <trkpt lat="43.3837300" lon="-1.8107440">
        <ele>54.2</ele>
        <time>2022-10-29T09:33:33Z</time>
      </trkpt>
      <trkpt lat="43.3837490" lon="-1.8107310">
        <ele>54.4</ele>
        <time>2022-10-29T09:33:34Z</time>
      </trkpt>
      <trkpt lat="43.3837720" lon="-1.8107140">
        <ele>54.6</ele>
        <time>2022-10-29T09:33:35Z</time>
      </trkpt>
      <trkpt lat="43.3837900" lon="-1.8106980">
        <ele>54.6</ele>
        <time>2022-10-29T09:33:36Z</time>
      </trkpt>
      <trkpt lat="43.3838070" lon="-1.8106910">
        <ele>54.8</ele>
        <time>2022-10-29T09:33:37Z</time>
      </trkpt>
      <trkpt lat="43.3838290" lon="-1.8106770">
        <ele>55.0</ele>
        <time>2022-10-29T09:33:38Z</time>
      </trkpt>
      <trkpt lat="43.3838480" lon="-1.8106630">
        <ele>55.4</ele>
        <time>2022-10-29T09:33:39Z</time>
      </trkpt>
      <trkpt lat="43.3838680" lon="-1.8106510">
        <ele>55.6</ele>
        <time>2022-10-29T09:33:40Z</time>
      </trkpt>
      <trkpt lat="43.3838880" lon="-1.8106350">
        <ele>55.6</ele>
        <time>2022-10-29T09:33:41Z</time>
      </trkpt>
      <trkpt lat="43.3838970" lon="-1.8106160">
        <ele>55.8</ele>
        <time>2022-10-29T09:33:42Z</time>
      </trkpt>
      <trkpt lat="43.3839090" lon="-1.8105830">
        <ele>56.2</ele>
        <time>2022-10-29T09:33:43Z</time>
      </trkpt>
      <trkpt lat="43.3839240" lon="-1.8105510">
        <ele>56.4</ele>
        <time>2022-10-29T09:33:44Z</time>
      </trkpt>
      <trkpt lat="43.3839350" lon="-1.8105310">
        <ele>56.8</ele>
        <time>2022-10-29T09:33:45Z</time>
      </trkpt>
      <trkpt lat="43.3839470" lon="-1.8105100">
        <ele>57.0</ele>
        <time>2022-10-29T09:33:46Z</time>
      </trkpt>
      <trkpt lat="43.3839610" lon="-1.8104890">
        <ele>57.2</ele>
        <time>2022-10-29T09:33:47Z</time>
      </trkpt>
      <trkpt lat="43.3839730" lon="-1.8104520">
        <ele>57.4</ele>
        <time>2022-10-29T09:33:48Z</time>
      </trkpt>
      <trkpt lat="43.3839860" lon="-1.8104210">
        <ele>57.6</ele>
        <time>2022-10-29T09:33:49Z</time>
      </trkpt>
      <trkpt lat="43.3840090" lon="-1.8104020">
        <ele>57.8</ele>
        <time>2022-10-29T09:33:50Z</time>
      </trkpt>
      <trkpt lat="43.3840360" lon="-1.8103840">
        <ele>57.8</ele>
        <time>2022-10-29T09:33:51Z</time>
      </trkpt>
      <trkpt lat="43.3840670" lon="-1.8103630">
        <ele>57.8</ele>
        <time>2022-10-29T09:33:52Z</time>
      </trkpt>
      <trkpt lat="43.3841070" lon="-1.8103290">
        <ele>58.0</ele>
        <time>2022-10-29T09:33:53Z</time>
      </trkpt>
      <trkpt lat="43.3841430" lon="-1.8102790">
        <ele>58.0</ele>
        <time>2022-10-29T09:33:54Z</time>
      </trkpt>
      <trkpt lat="43.3841780" lon="-1.8102450">
        <ele>58.0</ele>
        <time>2022-10-29T09:33:55Z</time>
      </trkpt>
      <trkpt lat="43.3842130" lon="-1.8102140">
        <ele>58.0</ele>
        <time>2022-10-29T09:33:56Z</time>
      </trkpt>
      <trkpt lat="43.3842510" lon="-1.8101860">
        <ele>58.2</ele>
        <time>2022-10-29T09:33:57Z</time>
      </trkpt>
      <trkpt lat="43.3842880" lon="-1.8101520">
        <ele>58.2</ele>
        <time>2022-10-29T09:33:58Z</time>
      </trkpt>
      <trkpt lat="43.3843270" lon="-1.8101230">
        <ele>58.2</ele>
        <time>2022-10-29T09:33:59Z</time>
      </trkpt>
      <trkpt lat="43.3843700" lon="-1.8100980">
        <ele>58.2</ele>
        <time>2022-10-29T09:34:00Z</time>
      </trkpt>
      <trkpt lat="43.3844300" lon="-1.8100700">
        <ele>58.2</ele>
        <time>2022-10-29T09:34:01Z</time>
      </trkpt>
      <trkpt lat="43.3844910" lon="-1.8100570">
        <ele>58.2</ele>
        <time>2022-10-29T09:34:02Z</time>
      </trkpt>
      <trkpt lat="43.3845300" lon="-1.8100850">
        <ele>58.2</ele>
        <time>2022-10-29T09:34:03Z</time>
      </trkpt>
      <trkpt lat="43.3845710" lon="-1.8101220">
        <ele>58.2</ele>
        <time>2022-10-29T09:34:04Z</time>
      </trkpt>
      <trkpt lat="43.3846080" lon="-1.8101590">
        <ele>58.0</ele>
        <time>2022-10-29T09:34:05Z</time>
      </trkpt>
      <trkpt lat="43.3846340" lon="-1.8101890">
        <ele>58.0</ele>
        <time>2022-10-29T09:34:06Z</time>
      </trkpt>
      <trkpt lat="43.3846650" lon="-1.8102120">
        <ele>58.0</ele>
        <time>2022-10-29T09:34:07Z</time>
      </trkpt>
      <trkpt lat="43.3846960" lon="-1.8102360">
        <ele>57.8</ele>
        <time>2022-10-29T09:34:08Z</time>
      </trkpt>
      <trkpt lat="43.3847290" lon="-1.8102640">
        <ele>57.6</ele>
        <time>2022-10-29T09:34:09Z</time>
      </trkpt>
      <trkpt lat="43.3847640" lon="-1.8102940">
        <ele>57.6</ele>
        <time>2022-10-29T09:34:10Z</time>
      </trkpt>
      <trkpt lat="43.3847970" lon="-1.8103250">
        <ele>57.6</ele>
        <time>2022-10-29T09:34:11Z</time>
      </trkpt>
      <trkpt lat="43.3849050" lon="-1.8104000">
        <ele>57.6</ele>
        <time>2022-10-29T09:34:14Z</time>
      </trkpt>
      <trkpt lat="43.3849440" lon="-1.8104180">
        <ele>57.6</ele>
        <time>2022-10-29T09:34:15Z</time>
      </trkpt>
      <trkpt lat="43.3849880" lon="-1.8104500">
        <ele>57.6</ele>
        <time>2022-10-29T09:34:16Z</time>
      </trkpt>
      <trkpt lat="43.3850290" lon="-1.8104810">
        <ele>57.6</ele>
        <time>2022-10-29T09:34:17Z</time>
      </trkpt>
      <trkpt lat="43.3850940" lon="-1.8105490">
        <ele>57.6</ele>
        <time>2022-10-29T09:34:19Z</time>
      </trkpt>
      <trkpt lat="43.3851260" lon="-1.8105840">
        <ele>57.8</ele>
        <time>2022-10-29T09:34:20Z</time>
      </trkpt>
      <trkpt lat="43.3851580" lon="-1.8106130">
        <ele>58.0</ele>
        <time>2022-10-29T09:34:21Z</time>
      </trkpt>
      <trkpt lat="43.3851910" lon="-1.8106460">
        <ele>58.0</ele>
        <time>2022-10-29T09:34:22Z</time>
      </trkpt>
      <trkpt lat="43.3852320" lon="-1.8106840">
        <ele>58.2</ele>
        <time>2022-10-29T09:34:23Z</time>
      </trkpt>
      <trkpt lat="43.3853080" lon="-1.8107500">
        <ele>59.0</ele>
        <time>2022-10-29T09:34:25Z</time>
      </trkpt>
      <trkpt lat="43.3853710" lon="-1.8107870">
        <ele>59.2</ele>
        <time>2022-10-29T09:34:27Z</time>
      </trkpt>
      <trkpt lat="43.3854070" lon="-1.8108120">
        <ele>59.6</ele>
        <time>2022-10-29T09:34:28Z</time>
      </trkpt>
      <trkpt lat="43.3854420" lon="-1.8108460">
        <ele>59.8</ele>
        <time>2022-10-29T09:34:29Z</time>
      </trkpt>
      <trkpt lat="43.3854690" lon="-1.8108780">
        <ele>60.2</ele>
        <time>2022-10-29T09:34:30Z</time>
      </trkpt>
      <trkpt lat="43.3855390" lon="-1.8109500">
        <ele>60.6</ele>
        <time>2022-10-29T09:34:32Z</time>
      </trkpt>
      <trkpt lat="43.3856630" lon="-1.8110720">
        <ele>61.2</ele>
        <time>2022-10-29T09:34:35Z</time>
      </trkpt>
      <trkpt lat="43.3856900" lon="-1.8110940">
        <ele>61.4</ele>
        <time>2022-10-29T09:34:36Z</time>
      </trkpt>
      <trkpt lat="43.3857160" lon="-1.8111150">
        <ele>62.4</ele>
        <time>2022-10-29T09:34:37Z</time>
      </trkpt>
      <trkpt lat="43.3857480" lon="-1.8111390">
        <ele>63.0</ele>
        <time>2022-10-29T09:34:38Z</time>
      </trkpt>
      <trkpt lat="43.3857910" lon="-1.8111640">
        <ele>63.6</ele>
        <time>2022-10-29T09:34:39Z</time>
      </trkpt>
      <trkpt lat="43.3858240" lon="-1.8111960">
        <ele>64.0</ele>
        <time>2022-10-29T09:34:40Z</time>
      </trkpt>
      <trkpt lat="43.3858620" lon="-1.8112210">
        <ele>64.6</ele>
        <time>2022-10-29T09:34:41Z</time>
      </trkpt>
      <trkpt lat="43.3859040" lon="-1.8112070">
        <ele>65.0</ele>
        <time>2022-10-29T09:34:42Z</time>
      </trkpt>
      <trkpt lat="43.3859420" lon="-1.8111970">
        <ele>65.4</ele>
        <time>2022-10-29T09:34:43Z</time>
      </trkpt>
      <trkpt lat="43.3859720" lon="-1.8111820">
        <ele>65.6</ele>
        <time>2022-10-29T09:34:44Z</time>
      </trkpt>
      <trkpt lat="43.3860130" lon="-1.8111410">
        <ele>66.0</ele>
        <time>2022-10-29T09:34:45Z</time>
      </trkpt>
      <trkpt lat="43.3860550" lon="-1.8110850">
        <ele>66.6</ele>
        <time>2022-10-29T09:34:46Z</time>
      </trkpt>
      <trkpt lat="43.3860900" lon="-1.8110300">
        <ele>66.8</ele>
        <time>2022-10-29T09:34:47Z</time>
      </trkpt>
      <trkpt lat="43.3861130" lon="-1.8109870">
        <ele>67.2</ele>
        <time>2022-10-29T09:34:48Z</time>
      </trkpt>
      <trkpt lat="43.3861310" lon="-1.8109350">
        <ele>67.6</ele>
        <time>2022-10-29T09:34:49Z</time>
      </trkpt>
      <trkpt lat="43.3861540" lon="-1.8108730">
        <ele>68.2</ele>
        <time>2022-10-29T09:34:50Z</time>
      </trkpt>
      <trkpt lat="43.3861800" lon="-1.8108320">
        <ele>68.2</ele>
        <time>2022-10-29T09:34:51Z</time>
      </trkpt>
      <trkpt lat="43.3862000" lon="-1.8108050">
        <ele>68.6</ele>
        <time>2022-10-29T09:34:52Z</time>
      </trkpt>
      <trkpt lat="43.3862180" lon="-1.8107700">
        <ele>68.8</ele>
        <time>2022-10-29T09:34:53Z</time>
      </trkpt>
      <trkpt lat="43.3862280" lon="-1.8107300">
        <ele>69.0</ele>
        <time>2022-10-29T09:34:54Z</time>
      </trkpt>
      <trkpt lat="43.3862410" lon="-1.8106800">
        <ele>69.4</ele>
        <time>2022-10-29T09:34:55Z</time>
      </trkpt>
      <trkpt lat="43.3862490" lon="-1.8106370">
        <ele>69.6</ele>
        <time>2022-10-29T09:34:56Z</time>
      </trkpt>
      <trkpt lat="43.3862580" lon="-1.8105880">
        <ele>70.0</ele>
        <time>2022-10-29T09:34:57Z</time>
      </trkpt>
      <trkpt lat="43.3862710" lon="-1.8105410">
        <ele>70.4</ele>
        <time>2022-10-29T09:34:58Z</time>
      </trkpt>
      <trkpt lat="43.3862910" lon="-1.8104830">
        <ele>71.2</ele>
        <time>2022-10-29T09:34:59Z</time>
      </trkpt>
      <trkpt lat="43.3863050" lon="-1.8104360">
        <ele>71.6</ele>
        <time>2022-10-29T09:35:00Z</time>
      </trkpt>
      <trkpt lat="43.3863160" lon="-1.8103860">
        <ele>71.8</ele>
        <time>2022-10-29T09:35:01Z</time>
      </trkpt>
      <trkpt lat="43.3863280" lon="-1.8103400">
        <ele>72.0</ele>
        <time>2022-10-29T09:35:02Z</time>
      </trkpt>
      <trkpt lat="43.3863380" lon="-1.8103030">
        <ele>72.2</ele>
        <time>2022-10-29T09:35:03Z</time>
      </trkpt>
      <trkpt lat="43.3863500" lon="-1.8102570">
        <ele>72.2</ele>
        <time>2022-10-29T09:35:04Z</time>
      </trkpt>
      <trkpt lat="43.3863600" lon="-1.8102050">
        <ele>72.6</ele>
        <time>2022-10-29T09:35:05Z</time>
      </trkpt>
      <trkpt lat="43.3863660" lon="-1.8101640">
        <ele>73.4</ele>
        <time>2022-10-29T09:35:06Z</time>
      </trkpt>
      <trkpt lat="43.3863700" lon="-1.8101330">
        <ele>73.6</ele>
        <time>2022-10-29T09:35:07Z</time>
      </trkpt>
      <trkpt lat="43.3863720" lon="-1.8100980">
        <ele>74.0</ele>
        <time>2022-10-29T09:35:08Z</time>
      </trkpt>
      <trkpt lat="43.3863770" lon="-1.8100650">
        <ele>74.2</ele>
        <time>2022-10-29T09:35:09Z</time>
      </trkpt>
      <trkpt lat="43.3863830" lon="-1.8100280">
        <ele>74.6</ele>
        <time>2022-10-29T09:35:10Z</time>
      </trkpt>
      <trkpt lat="43.3863850" lon="-1.8099890">
        <ele>75.0</ele>
        <time>2022-10-29T09:35:11Z</time>
      </trkpt>
      <trkpt lat="43.3863870" lon="-1.8099510">
        <ele>75.4</ele>
        <time>2022-10-29T09:35:12Z</time>
      </trkpt>
      <trkpt lat="43.3863880" lon="-1.8099080">
        <ele>75.6</ele>
        <time>2022-10-29T09:35:13Z</time>
      </trkpt>
      <trkpt lat="43.3863840" lon="-1.8098650">
        <ele>75.6</ele>
        <time>2022-10-29T09:35:14Z</time>
      </trkpt>
      <trkpt lat="43.3863760" lon="-1.8098110">
        <ele>75.6</ele>
        <time>2022-10-29T09:35:15Z</time>
      </trkpt>
      <trkpt lat="43.3863700" lon="-1.8097610">
        <ele>75.8</ele>
        <time>2022-10-29T09:35:16Z</time>
      </trkpt>
      <trkpt lat="43.3863630" lon="-1.8097130">
        <ele>75.8</ele>
        <time>2022-10-29T09:35:17Z</time>
      </trkpt>
      <trkpt lat="43.3863500" lon="-1.8096660">
        <ele>75.8</ele>
        <time>2022-10-29T09:35:18Z</time>
      </trkpt>
      <trkpt lat="43.3863330" lon="-1.8096040">
        <ele>75.6</ele>
        <time>2022-10-29T09:35:19Z</time>
      </trkpt>
      <trkpt lat="43.3863090" lon="-1.8095140">
        <ele>75.6</ele>
        <time>2022-10-29T09:35:20Z</time>
      </trkpt>
      <trkpt lat="43.3862890" lon="-1.8094190">
        <ele>75.4</ele>
        <time>2022-10-29T09:35:21Z</time>
      </trkpt>
      <trkpt lat="43.3862840" lon="-1.8093400">
        <ele>75.4</ele>
        <time>2022-10-29T09:35:22Z</time>
      </trkpt>
      <trkpt lat="43.3862830" lon="-1.8092150">
        <ele>75.2</ele>
        <time>2022-10-29T09:35:23Z</time>
      </trkpt>
      <trkpt lat="43.3862830" lon="-1.8091240">
        <ele>75.4</ele>
        <time>2022-10-29T09:35:24Z</time>
      </trkpt>
      <trkpt lat="43.3862960" lon="-1.8089800">
        <ele>74.8</ele>
        <time>2022-10-29T09:35:25Z</time>
      </trkpt>
      <trkpt lat="43.3863260" lon="-1.8088510">
        <ele>74.4</ele>
        <time>2022-10-29T09:35:26Z</time>
      </trkpt>
      <trkpt lat="43.3863520" lon="-1.8087290">
        <ele>74.0</ele>
        <time>2022-10-29T09:35:27Z</time>
      </trkpt>
      <trkpt lat="43.3863660" lon="-1.8086270">
        <ele>73.4</ele>
        <time>2022-10-29T09:35:28Z</time>
      </trkpt>
      <trkpt lat="43.3863960" lon="-1.8085030">
        <ele>73.2</ele>
        <time>2022-10-29T09:35:29Z</time>
      </trkpt>
      <trkpt lat="43.3864260" lon="-1.8083780">
        <ele>72.8</ele>
        <time>2022-10-29T09:35:30Z</time>
      </trkpt>
      <trkpt lat="43.3864450" lon="-1.8082660">
        <ele>72.6</ele>
        <time>2022-10-29T09:35:31Z</time>
      </trkpt>
      <trkpt lat="43.3864580" lon="-1.8081410">
        <ele>71.6</ele>
        <time>2022-10-29T09:35:32Z</time>
      </trkpt>
      <trkpt lat="43.3864770" lon="-1.8080250">
        <ele>71.2</ele>
        <time>2022-10-29T09:35:33Z</time>
      </trkpt>
      <trkpt lat="43.3864970" lon="-1.8079100">
        <ele>70.2</ele>
        <time>2022-10-29T09:35:34Z</time>
      </trkpt>
      <trkpt lat="43.3865160" lon="-1.8077900">
        <ele>69.0</ele>
        <time>2022-10-29T09:35:35Z</time>
      </trkpt>
      <trkpt lat="43.3865690" lon="-1.8075470">
        <ele>68.0</ele>
        <time>2022-10-29T09:35:37Z</time>
      </trkpt>
      <trkpt lat="43.3865980" lon="-1.8074490">
        <ele>67.6</ele>
        <time>2022-10-29T09:35:38Z</time>
      </trkpt>
      <trkpt lat="43.3866570" lon="-1.8072160">
        <ele>66.8</ele>
        <time>2022-10-29T09:35:40Z</time>
      </trkpt>
      <trkpt lat="43.3866670" lon="-1.8071280">
        <ele>66.4</ele>
        <time>2022-10-29T09:35:41Z</time>
      </trkpt>
      <trkpt lat="43.3866670" lon="-1.8070400">
        <ele>66.2</ele>
        <time>2022-10-29T09:35:42Z</time>
      </trkpt>
      <trkpt lat="43.3866460" lon="-1.8069550">
        <ele>65.6</ele>
        <time>2022-10-29T09:35:43Z</time>
      </trkpt>
      <trkpt lat="43.3866230" lon="-1.8068900">
        <ele>65.2</ele>
        <time>2022-10-29T09:35:44Z</time>
      </trkpt>
      <trkpt lat="43.3865820" lon="-1.8067820">
        <ele>64.6</ele>
        <time>2022-10-29T09:35:45Z</time>
      </trkpt>
      <trkpt lat="43.3865260" lon="-1.8066890">
        <ele>63.8</ele>
        <time>2022-10-29T09:35:46Z</time>
      </trkpt>
      <trkpt lat="43.3864710" lon="-1.8066190">
        <ele>63.6</ele>
        <time>2022-10-29T09:35:47Z</time>
      </trkpt>
      <trkpt lat="43.3864000" lon="-1.8065480">
        <ele>62.0</ele>
        <time>2022-10-29T09:35:48Z</time>
      </trkpt>
      <trkpt lat="43.3862490" lon="-1.8064460">
        <ele>60.6</ele>
        <time>2022-10-29T09:35:50Z</time>
      </trkpt>
      <trkpt lat="43.3861670" lon="-1.8064240">
        <ele>60.0</ele>
        <time>2022-10-29T09:35:51Z</time>
      </trkpt>
      <trkpt lat="43.3860900" lon="-1.8064220">
        <ele>59.4</ele>
        <time>2022-10-29T09:35:52Z</time>
      </trkpt>
      <trkpt lat="43.3860290" lon="-1.8064380">
        <ele>59.0</ele>
        <time>2022-10-29T09:35:53Z</time>
      </trkpt>
      <trkpt lat="43.3859680" lon="-1.8064600">
        <ele>58.4</ele>
        <time>2022-10-29T09:35:54Z</time>
      </trkpt>
      <trkpt lat="43.3859150" lon="-1.8064680">
        <ele>57.8</ele>
        <time>2022-10-29T09:35:55Z</time>
      </trkpt>
      <trkpt lat="43.3858700" lon="-1.8064830">
        <ele>57.4</ele>
        <time>2022-10-29T09:35:56Z</time>
      </trkpt>
      <trkpt lat="43.3858330" lon="-1.8064950">
        <ele>57.0</ele>
        <time>2022-10-29T09:35:57Z</time>
      </trkpt>
      <trkpt lat="43.3857930" lon="-1.8064670">
        <ele>56.8</ele>
        <time>2022-10-29T09:35:58Z</time>
      </trkpt>
      <trkpt lat="43.3857980" lon="-1.8064350">
        <ele>56.2</ele>
        <time>2022-10-29T09:35:59Z</time>
      </trkpt>
      <trkpt lat="43.3858000" lon="-1.8063950">
        <ele>55.8</ele>
        <time>2022-10-29T09:36:00Z</time>
      </trkpt>
      <trkpt lat="43.3858110" lon="-1.8063440">
        <ele>55.2</ele>
        <time>2022-10-29T09:36:01Z</time>
      </trkpt>
      <trkpt lat="43.3858290" lon="-1.8062710">
        <ele>55.0</ele>
        <time>2022-10-29T09:36:02Z</time>
      </trkpt>
      <trkpt lat="43.3858630" lon="-1.8062040">
        <ele>54.6</ele>
        <time>2022-10-29T09:36:03Z</time>
      </trkpt>
      <trkpt lat="43.3859010" lon="-1.8061370">
        <ele>54.6</ele>
        <time>2022-10-29T09:36:04Z</time>
      </trkpt>
      <trkpt lat="43.3860050" lon="-1.8059820">
        <ele>54.2</ele>
        <time>2022-10-29T09:36:06Z</time>
      </trkpt>
      <trkpt lat="43.3860490" lon="-1.8059010">
        <ele>54.2</ele>
        <time>2022-10-29T09:36:07Z</time>
      </trkpt>
      <trkpt lat="43.3860910" lon="-1.8058040">
        <ele>54.0</ele>
        <time>2022-10-29T09:36:08Z</time>
      </trkpt>
      <trkpt lat="43.3861700" lon="-1.8056210">
        <ele>54.2</ele>
        <time>2022-10-29T09:36:10Z</time>
      </trkpt>
      <trkpt lat="43.3862660" lon="-1.8054550">
        <ele>54.6</ele>
        <time>2022-10-29T09:36:12Z</time>
      </trkpt>
      <trkpt lat="43.3863030" lon="-1.8053910">
        <ele>54.6</ele>
        <time>2022-10-29T09:36:13Z</time>
      </trkpt>
      <trkpt lat="43.3863620" lon="-1.8052780">
        <ele>55.0</ele>
        <time>2022-10-29T09:36:14Z</time>
      </trkpt>
      <trkpt lat="43.3864890" lon="-1.8051260">
        <ele>55.4</ele>
        <time>2022-10-29T09:36:16Z</time>
      </trkpt>
      <trkpt lat="43.3865470" lon="-1.8050640">
        <ele>55.4</ele>
        <time>2022-10-29T09:36:17Z</time>
      </trkpt>
      <trkpt lat="43.3866460" lon="-1.8048930">
        <ele>55.8</ele>
        <time>2022-10-29T09:36:19Z</time>
      </trkpt>
      <trkpt lat="43.3866760" lon="-1.8047920">
        <ele>56.0</ele>
        <time>2022-10-29T09:36:20Z</time>
      </trkpt>
      <trkpt lat="43.3867030" lon="-1.8047030">
        <ele>56.2</ele>
        <time>2022-10-29T09:36:21Z</time>
      </trkpt>
      <trkpt lat="43.3867250" lon="-1.8046180">
        <ele>56.2</ele>
        <time>2022-10-29T09:36:22Z</time>
      </trkpt>
      <trkpt lat="43.3867310" lon="-1.8045590">
        <ele>56.2</ele>
        <time>2022-10-29T09:36:23Z</time>
      </trkpt>
      <trkpt lat="43.3867290" lon="-1.8044500">
        <ele>56.6</ele>
        <time>2022-10-29T09:36:24Z</time>
      </trkpt>
      <trkpt lat="43.3867080" lon="-1.8043200">
        <ele>56.6</ele>
        <time>2022-10-29T09:36:25Z</time>
      </trkpt>
      <trkpt lat="43.3866850" lon="-1.8042150">
        <ele>56.8</ele>
        <time>2022-10-29T09:36:26Z</time>
      </trkpt>
      <trkpt lat="43.3866780" lon="-1.8041530">
        <ele>57.0</ele>
        <time>2022-10-29T09:36:27Z</time>
      </trkpt>
      <trkpt lat="43.3866800" lon="-1.8040950">
        <ele>56.8</ele>
        <time>2022-10-29T09:36:28Z</time>
      </trkpt>
      <trkpt lat="43.3866690" lon="-1.8040210">
        <ele>57.0</ele>
        <time>2022-10-29T09:36:29Z</time>
      </trkpt>
      <trkpt lat="43.3866430" lon="-1.8039470">
        <ele>57.0</ele>
        <time>2022-10-29T09:36:30Z</time>
      </trkpt>
      <trkpt lat="43.3866280" lon="-1.8038960">
        <ele>56.8</ele>
        <time>2022-10-29T09:36:31Z</time>
      </trkpt>
      <trkpt lat="43.3866180" lon="-1.8038510">
        <ele>56.8</ele>
        <time>2022-10-29T09:36:32Z</time>
      </trkpt>
      <trkpt lat="43.3865830" lon="-1.8038040">
        <ele>56.8</ele>
        <time>2022-10-29T09:36:33Z</time>
      </trkpt>
      <trkpt lat="43.3865400" lon="-1.8037660">
        <ele>56.8</ele>
        <time>2022-10-29T09:36:34Z</time>
      </trkpt>
      <trkpt lat="43.3864890" lon="-1.8037640">
        <ele>57.0</ele>
        <time>2022-10-29T09:36:35Z</time>
      </trkpt>
      <trkpt lat="43.3864480" lon="-1.8037660">
        <ele>57.0</ele>
        <time>2022-10-29T09:36:36Z</time>
      </trkpt>
      <trkpt lat="43.3863700" lon="-1.8037780">
        <ele>57.0</ele>
        <time>2022-10-29T09:36:38Z</time>
      </trkpt>
      <trkpt lat="43.3863230" lon="-1.8037950">
        <ele>57.0</ele>
        <time>2022-10-29T09:36:39Z</time>
      </trkpt>
      <trkpt lat="43.3862510" lon="-1.8038620">
        <ele>57.0</ele>
        <time>2022-10-29T09:36:41Z</time>
      </trkpt>
      <trkpt lat="43.3862220" lon="-1.8038970">
        <ele>57.0</ele>
        <time>2022-10-29T09:36:42Z</time>
      </trkpt>
      <trkpt lat="43.3861860" lon="-1.8039390">
        <ele>57.0</ele>
        <time>2022-10-29T09:36:43Z</time>
      </trkpt>
      <trkpt lat="43.3861490" lon="-1.8039930">
        <ele>57.0</ele>
        <time>2022-10-29T09:36:44Z</time>
      </trkpt>
      <trkpt lat="43.3861120" lon="-1.8040400">
        <ele>57.0</ele>
        <time>2022-10-29T09:36:45Z</time>
      </trkpt>
      <trkpt lat="43.3860770" lon="-1.8040950">
        <ele>57.0</ele>
        <time>2022-10-29T09:36:46Z</time>
      </trkpt>
      <trkpt lat="43.3860500" lon="-1.8041360">
        <ele>56.8</ele>
        <time>2022-10-29T09:36:47Z</time>
      </trkpt>
      <trkpt lat="43.3860050" lon="-1.8041850">
        <ele>56.8</ele>
        <time>2022-10-29T09:36:48Z</time>
      </trkpt>
      <trkpt lat="43.3859560" lon="-1.8042310">
        <ele>56.6</ele>
        <time>2022-10-29T09:36:49Z</time>
      </trkpt>
      <trkpt lat="43.3859190" lon="-1.8042510">
        <ele>56.6</ele>
        <time>2022-10-29T09:36:50Z</time>
      </trkpt>
      <trkpt lat="43.3858550" lon="-1.8042810">
        <ele>56.4</ele>
        <time>2022-10-29T09:36:51Z</time>
      </trkpt>
      <trkpt lat="43.3858020" lon="-1.8042980">
        <ele>56.4</ele>
        <time>2022-10-29T09:36:52Z</time>
      </trkpt>
      <trkpt lat="43.3856780" lon="-1.8043420">
        <ele>56.0</ele>
        <time>2022-10-29T09:36:54Z</time>
      </trkpt>
      <trkpt lat="43.3854490" lon="-1.8044030">
        <ele>56.0</ele>
        <time>2022-10-29T09:36:57Z</time>
      </trkpt>
      <trkpt lat="43.3853660" lon="-1.8044280">
        <ele>56.0</ele>
        <time>2022-10-29T09:36:58Z</time>
      </trkpt>
      <trkpt lat="43.3853050" lon="-1.8044500">
        <ele>56.0</ele>
        <time>2022-10-29T09:36:59Z</time>
      </trkpt>
      <trkpt lat="43.3852330" lon="-1.8044780">
        <ele>56.0</ele>
        <time>2022-10-29T09:37:00Z</time>
      </trkpt>
      <trkpt lat="43.3851630" lon="-1.8044990">
        <ele>56.2</ele>
        <time>2022-10-29T09:37:01Z</time>
      </trkpt>
      <trkpt lat="43.3849550" lon="-1.8045440">
        <ele>56.4</ele>
        <time>2022-10-29T09:37:04Z</time>
      </trkpt>
      <trkpt lat="43.3848900" lon="-1.8045490">
        <ele>56.4</ele>
        <time>2022-10-29T09:37:05Z</time>
      </trkpt>
      <trkpt lat="43.3848210" lon="-1.8045620">
        <ele>56.4</ele>
        <time>2022-10-29T09:37:06Z</time>
      </trkpt>
      <trkpt lat="43.3847630" lon="-1.8045780">
        <ele>56.4</ele>
        <time>2022-10-29T09:37:07Z</time>
      </trkpt>
      <trkpt lat="43.3847210" lon="-1.8045970">
        <ele>56.2</ele>
        <time>2022-10-29T09:37:08Z</time>
      </trkpt>
      <trkpt lat="43.3846700" lon="-1.8046240">
        <ele>56.2</ele>
        <time>2022-10-29T09:37:09Z</time>
      </trkpt>
      <trkpt lat="43.3846080" lon="-1.8046530">
        <ele>56.2</ele>
        <time>2022-10-29T09:37:10Z</time>
      </trkpt>
      <trkpt lat="43.3845440" lon="-1.8046800">
        <ele>56.0</ele>
        <time>2022-10-29T09:37:11Z</time>
      </trkpt>
      <trkpt lat="43.3844680" lon="-1.8047230">
        <ele>55.6</ele>
        <time>2022-10-29T09:37:12Z</time>
      </trkpt>
      <trkpt lat="43.3843740" lon="-1.8047530">
        <ele>54.8</ele>
        <time>2022-10-29T09:37:14Z</time>
      </trkpt>
      <trkpt lat="43.3843410" lon="-1.8047450">
        <ele>54.4</ele>
        <time>2022-10-29T09:37:15Z</time>
      </trkpt>
      <trkpt lat="43.3843330" lon="-1.8047180">
        <ele>54.4</ele>
        <time>2022-10-29T09:37:16Z</time>
      </trkpt>
      <trkpt lat="43.3843290" lon="-1.8046750">
        <ele>54.0</ele>
        <time>2022-10-29T09:37:17Z</time>
      </trkpt>
      <trkpt lat="43.3843360" lon="-1.8046250">
        <ele>53.8</ele>
        <time>2022-10-29T09:37:18Z</time>
      </trkpt>
      <trkpt lat="43.3843580" lon="-1.8045620">
        <ele>53.6</ele>
        <time>2022-10-29T09:37:19Z</time>
      </trkpt>
      <trkpt lat="43.3844250" lon="-1.8044310">
        <ele>53.4</ele>
        <time>2022-10-29T09:37:21Z</time>
      </trkpt>
      <trkpt lat="43.3844510" lon="-1.8043930">
        <ele>53.4</ele>
        <time>2022-10-29T09:37:22Z</time>
      </trkpt>
      <trkpt lat="43.3844780" lon="-1.8043430">
        <ele>53.2</ele>
        <time>2022-10-29T09:37:23Z</time>
      </trkpt>
      <trkpt lat="43.3845020" lon="-1.8042640">
        <ele>53.0</ele>
        <time>2022-10-29T09:37:24Z</time>
      </trkpt>
      <trkpt lat="43.3845260" lon="-1.8041800">
        <ele>52.8</ele>
        <time>2022-10-29T09:37:25Z</time>
      </trkpt>
      <trkpt lat="43.3845510" lon="-1.8040860">
        <ele>52.6</ele>
        <time>2022-10-29T09:37:26Z</time>
      </trkpt>
      <trkpt lat="43.3845800" lon="-1.8039870">
        <ele>52.6</ele>
        <time>2022-10-29T09:37:27Z</time>
      </trkpt>
      <trkpt lat="43.3846200" lon="-1.8038880">
        <ele>52.0</ele>
        <time>2022-10-29T09:37:28Z</time>
      </trkpt>
      <trkpt lat="43.3846630" lon="-1.8038170">
        <ele>51.8</ele>
        <time>2022-10-29T09:37:29Z</time>
      </trkpt>
      <trkpt lat="43.3847250" lon="-1.8037520">
        <ele>51.6</ele>
        <time>2022-10-29T09:37:30Z</time>
      </trkpt>
      <trkpt lat="43.3848080" lon="-1.8037010">
        <ele>51.6</ele>
        <time>2022-10-29T09:37:31Z</time>
      </trkpt>
      <trkpt lat="43.3848950" lon="-1.8036540">
        <ele>51.4</ele>
        <time>2022-10-29T09:37:32Z</time>
      </trkpt>
      <trkpt lat="43.3849750" lon="-1.8036130">
        <ele>51.0</ele>
        <time>2022-10-29T09:37:33Z</time>
      </trkpt>
      <trkpt lat="43.3850590" lon="-1.8035780">
        <ele>50.8</ele>
        <time>2022-10-29T09:37:34Z</time>
      </trkpt>
      <trkpt lat="43.3852370" lon="-1.8035070">
        <ele>50.0</ele>
        <time>2022-10-29T09:37:36Z</time>
      </trkpt>
      <trkpt lat="43.3853100" lon="-1.8034430">
        <ele>49.6</ele>
        <time>2022-10-29T09:37:37Z</time>
      </trkpt>
      <trkpt lat="43.3854370" lon="-1.8032910">
        <ele>48.6</ele>
        <time>2022-10-29T09:37:39Z</time>
      </trkpt>
      <trkpt lat="43.3855070" lon="-1.8032060">
        <ele>48.0</ele>
        <time>2022-10-29T09:37:40Z</time>
      </trkpt>
      <trkpt lat="43.3855720" lon="-1.8030880">
        <ele>46.8</ele>
        <time>2022-10-29T09:37:41Z</time>
      </trkpt>
      <trkpt lat="43.3856800" lon="-1.8028660">
        <ele>46.0</ele>
        <time>2022-10-29T09:37:43Z</time>
      </trkpt>
      <trkpt lat="43.3857280" lon="-1.8027870">
        <ele>45.8</ele>
        <time>2022-10-29T09:37:44Z</time>
      </trkpt>
      <trkpt lat="43.3857690" lon="-1.8027180">
        <ele>45.0</ele>
        <time>2022-10-29T09:37:45Z</time>
      </trkpt>
      <trkpt lat="43.3858320" lon="-1.8026930">
        <ele>43.8</ele>
        <time>2022-10-29T09:37:46Z</time>
      </trkpt>
      <trkpt lat="43.3858850" lon="-1.8026720">
        <ele>43.2</ele>
        <time>2022-10-29T09:37:47Z</time>
      </trkpt>
      <trkpt lat="43.3859270" lon="-1.8026870">
        <ele>42.4</ele>
        <time>2022-10-29T09:37:48Z</time>
      </trkpt>
      <trkpt lat="43.3859660" lon="-1.8027050">
        <ele>42.0</ele>
        <time>2022-10-29T09:37:49Z</time>
      </trkpt>
      <trkpt lat="43.3860120" lon="-1.8027210">
        <ele>41.6</ele>
        <time>2022-10-29T09:37:50Z</time>
      </trkpt>
      <trkpt lat="43.3860620" lon="-1.8027150">
        <ele>41.4</ele>
        <time>2022-10-29T09:37:51Z</time>
      </trkpt>
      <trkpt lat="43.3861120" lon="-1.8026850">
        <ele>41.2</ele>
        <time>2022-10-29T09:37:52Z</time>
      </trkpt>
      <trkpt lat="43.3861640" lon="-1.8026550">
        <ele>40.8</ele>
        <time>2022-10-29T09:37:53Z</time>
      </trkpt>
      <trkpt lat="43.3862610" lon="-1.8025910">
        <ele>40.2</ele>
        <time>2022-10-29T09:37:55Z</time>
      </trkpt>
      <trkpt lat="43.3863060" lon="-1.8025680">
        <ele>40.0</ele>
        <time>2022-10-29T09:37:56Z</time>
      </trkpt>
      <trkpt lat="43.3863450" lon="-1.8025420">
        <ele>39.8</ele>
        <time>2022-10-29T09:37:57Z</time>
      </trkpt>
      <trkpt lat="43.3863920" lon="-1.8025310">
        <ele>39.8</ele>
        <time>2022-10-29T09:37:58Z</time>
      </trkpt>
      <trkpt lat="43.3864420" lon="-1.8025220">
        <ele>40.0</ele>
        <time>2022-10-29T09:37:59Z</time>
      </trkpt>
      <trkpt lat="43.3864890" lon="-1.8025070">
        <ele>40.0</ele>
        <time>2022-10-29T09:38:00Z</time>
      </trkpt>
      <trkpt lat="43.3865360" lon="-1.8024990">
        <ele>40.0</ele>
        <time>2022-10-29T09:38:01Z</time>
      </trkpt>
      <trkpt lat="43.3866150" lon="-1.8024520">
        <ele>40.8</ele>
        <time>2022-10-29T09:38:03Z</time>
      </trkpt>
      <trkpt lat="43.3866310" lon="-1.8024250">
        <ele>41.0</ele>
        <time>2022-10-29T09:38:04Z</time>
      </trkpt>
      <trkpt lat="43.3866580" lon="-1.8023980">
        <ele>41.2</ele>
        <time>2022-10-29T09:38:05Z</time>
      </trkpt>
      <trkpt lat="43.3866950" lon="-1.8023570">
        <ele>41.6</ele>
        <time>2022-10-29T09:38:06Z</time>
      </trkpt>
      <trkpt lat="43.3867270" lon="-1.8023200">
        <ele>41.8</ele>
        <time>2022-10-29T09:38:07Z</time>
      </trkpt>
      <trkpt lat="43.3867530" lon="-1.8022890">
        <ele>42.0</ele>
        <time>2022-10-29T09:38:08Z</time>
      </trkpt>
      <trkpt lat="43.3867710" lon="-1.8022470">
        <ele>42.0</ele>
        <time>2022-10-29T09:38:09Z</time>
      </trkpt>
      <trkpt lat="43.3868450" lon="-1.8021450">
        <ele>42.2</ele>
        <time>2022-10-29T09:38:11Z</time>
      </trkpt>
      <trkpt lat="43.3868720" lon="-1.8020600">
        <ele>43.0</ele>
        <time>2022-10-29T09:38:13Z</time>
      </trkpt>
      <trkpt lat="43.3868870" lon="-1.8019900">
        <ele>43.4</ele>
        <time>2022-10-29T09:38:14Z</time>
      </trkpt>
      <trkpt lat="43.3869080" lon="-1.8019330">
        <ele>43.8</ele>
        <time>2022-10-29T09:38:15Z</time>
      </trkpt>
      <trkpt lat="43.3869140" lon="-1.8018840">
        <ele>44.0</ele>
        <time>2022-10-29T09:38:16Z</time>
      </trkpt>
      <trkpt lat="43.3869200" lon="-1.8018420">
        <ele>44.6</ele>
        <time>2022-10-29T09:38:17Z</time>
      </trkpt>
      <trkpt lat="43.3869310" lon="-1.8016880">
        <ele>45.2</ele>
        <time>2022-10-29T09:38:20Z</time>
      </trkpt>
      <trkpt lat="43.3869360" lon="-1.8016430">
        <ele>45.4</ele>
        <time>2022-10-29T09:38:21Z</time>
      </trkpt>
      <trkpt lat="43.3869440" lon="-1.8016080">
        <ele>45.8</ele>
        <time>2022-10-29T09:38:22Z</time>
      </trkpt>
      <trkpt lat="43.3869520" lon="-1.8015660">
        <ele>46.2</ele>
        <time>2022-10-29T09:38:23Z</time>
      </trkpt>
      <trkpt lat="43.3869610" lon="-1.8015200">
        <ele>46.4</ele>
        <time>2022-10-29T09:38:24Z</time>
      </trkpt>
      <trkpt lat="43.3869670" lon="-1.8014690">
        <ele>46.4</ele>
        <time>2022-10-29T09:38:25Z</time>
      </trkpt>
      <trkpt lat="43.3869750" lon="-1.8014300">
        <ele>46.4</ele>
        <time>2022-10-29T09:38:26Z</time>
      </trkpt>
      <trkpt lat="43.3869840" lon="-1.8014020">
        <ele>46.6</ele>
        <time>2022-10-29T09:38:27Z</time>
      </trkpt>
      <trkpt lat="43.3869910" lon="-1.8013660">
        <ele>46.8</ele>
        <time>2022-10-29T09:38:28Z</time>
      </trkpt>
      <trkpt lat="43.3869960" lon="-1.8013220">
        <ele>47.0</ele>
        <time>2022-10-29T09:38:29Z</time>
      </trkpt>
      <trkpt lat="43.3869990" lon="-1.8012870">
        <ele>47.2</ele>
        <time>2022-10-29T09:38:30Z</time>
      </trkpt>
      <trkpt lat="43.3870030" lon="-1.8012560">
        <ele>47.2</ele>
        <time>2022-10-29T09:38:31Z</time>
      </trkpt>
      <trkpt lat="43.3870160" lon="-1.8012180">
        <ele>47.4</ele>
        <time>2022-10-29T09:38:32Z</time>
      </trkpt>
      <trkpt lat="43.3870260" lon="-1.8011820">
        <ele>47.6</ele>
        <time>2022-10-29T09:38:33Z</time>
      </trkpt>
      <trkpt lat="43.3870390" lon="-1.8011320">
        <ele>47.6</ele>
        <time>2022-10-29T09:38:34Z</time>
      </trkpt>
      <trkpt lat="43.3870570" lon="-1.8010710">
        <ele>47.6</ele>
        <time>2022-10-29T09:38:35Z</time>
      </trkpt>
      <trkpt lat="43.3870670" lon="-1.8010150">
        <ele>47.8</ele>
        <time>2022-10-29T09:38:36Z</time>
      </trkpt>
      <trkpt lat="43.3870740" lon="-1.8009660">
        <ele>47.8</ele>
        <time>2022-10-29T09:38:37Z</time>
      </trkpt>
      <trkpt lat="43.3870870" lon="-1.8008900">
        <ele>48.0</ele>
        <time>2022-10-29T09:38:38Z</time>
      </trkpt>
      <trkpt lat="43.3870990" lon="-1.8008280">
        <ele>48.0</ele>
        <time>2022-10-29T09:38:39Z</time>
      </trkpt>
      <trkpt lat="43.3871120" lon="-1.8007630">
        <ele>48.0</ele>
        <time>2022-10-29T09:38:40Z</time>
      </trkpt>
      <trkpt lat="43.3871290" lon="-1.8006980">
        <ele>48.2</ele>
        <time>2022-10-29T09:38:41Z</time>
      </trkpt>
      <trkpt lat="43.3871440" lon="-1.8006460">
        <ele>48.6</ele>
        <time>2022-10-29T09:38:42Z</time>
      </trkpt>
      <trkpt lat="43.3871730" lon="-1.8005900">
        <ele>48.8</ele>
        <time>2022-10-29T09:38:43Z</time>
      </trkpt>
      <trkpt lat="43.3872240" lon="-1.8005440">
        <ele>49.0</ele>
        <time>2022-10-29T09:38:44Z</time>
      </trkpt>
      <trkpt lat="43.3872710" lon="-1.8005420">
        <ele>49.0</ele>
        <time>2022-10-29T09:38:45Z</time>
      </trkpt>
      <trkpt lat="43.3873130" lon="-1.8005680">
        <ele>49.0</ele>
        <time>2022-10-29T09:38:46Z</time>
      </trkpt>
      <trkpt lat="43.3873480" lon="-1.8006200">
        <ele>49.0</ele>
        <time>2022-10-29T09:38:47Z</time>
      </trkpt>
      <trkpt lat="43.3873750" lon="-1.8006860">
        <ele>48.8</ele>
        <time>2022-10-29T09:38:48Z</time>
      </trkpt>
      <trkpt lat="43.3873830" lon="-1.8007490">
        <ele>48.6</ele>
        <time>2022-10-29T09:38:49Z</time>
      </trkpt>
      <trkpt lat="43.3873910" lon="-1.8008420">
        <ele>48.6</ele>
        <time>2022-10-29T09:38:50Z</time>
      </trkpt>
      <trkpt lat="43.3874010" lon="-1.8009180">
        <ele>48.6</ele>
        <time>2022-10-29T09:38:51Z</time>
      </trkpt>
      <trkpt lat="43.3874130" lon="-1.8009820">
        <ele>48.6</ele>
        <time>2022-10-29T09:38:52Z</time>
      </trkpt>
      <trkpt lat="43.3874280" lon="-1.8010620">
        <ele>48.6</ele>
        <time>2022-10-29T09:38:53Z</time>
      </trkpt>
      <trkpt lat="43.3874420" lon="-1.8011630">
        <ele>48.6</ele>
        <time>2022-10-29T09:38:54Z</time>
      </trkpt>
      <trkpt lat="43.3874530" lon="-1.8012450">
        <ele>48.6</ele>
        <time>2022-10-29T09:38:55Z</time>
      </trkpt>
      <trkpt lat="43.3874640" lon="-1.8013280">
        <ele>48.4</ele>
        <time>2022-10-29T09:38:56Z</time>
      </trkpt>
      <trkpt lat="43.3874790" lon="-1.8013920">
        <ele>48.6</ele>
        <time>2022-10-29T09:38:57Z</time>
      </trkpt>
      <trkpt lat="43.3875490" lon="-1.8016720">
        <ele>48.8</ele>
        <time>2022-10-29T09:39:01Z</time>
      </trkpt>
      <trkpt lat="43.3875650" lon="-1.8017370">
        <ele>48.6</ele>
        <time>2022-10-29T09:39:02Z</time>
      </trkpt>
      <trkpt lat="43.3875880" lon="-1.8017940">
        <ele>48.8</ele>
        <time>2022-10-29T09:39:03Z</time>
      </trkpt>
      <trkpt lat="43.3876180" lon="-1.8018470">
        <ele>48.6</ele>
        <time>2022-10-29T09:39:04Z</time>
      </trkpt>
      <trkpt lat="43.3876570" lon="-1.8018860">
        <ele>48.4</ele>
        <time>2022-10-29T09:39:05Z</time>
      </trkpt>
      <trkpt lat="43.3877070" lon="-1.8019120">
        <ele>48.4</ele>
        <time>2022-10-29T09:39:06Z</time>
      </trkpt>
      <trkpt lat="43.3878260" lon="-1.8019180">
        <ele>48.6</ele>
        <time>2022-10-29T09:39:08Z</time>
      </trkpt>
      <trkpt lat="43.3878890" lon="-1.8019050">
        <ele>48.6</ele>
        <time>2022-10-29T09:39:09Z</time>
      </trkpt>
      <trkpt lat="43.3880220" lon="-1.8018630">
        <ele>48.6</ele>
        <time>2022-10-29T09:39:11Z</time>
      </trkpt>
      <trkpt lat="43.3881440" lon="-1.8018190">
        <ele>48.6</ele>
        <time>2022-10-29T09:39:13Z</time>
      </trkpt>
      <trkpt lat="43.3882160" lon="-1.8017850">
        <ele>48.6</ele>
        <time>2022-10-29T09:39:14Z</time>
      </trkpt>
      <trkpt lat="43.3883270" lon="-1.8016930">
        <ele>48.8</ele>
        <time>2022-10-29T09:39:16Z</time>
      </trkpt>
      <trkpt lat="43.3883690" lon="-1.8016460">
        <ele>48.8</ele>
        <time>2022-10-29T09:39:17Z</time>
      </trkpt>
      <trkpt lat="43.3884270" lon="-1.8015710">
        <ele>48.8</ele>
        <time>2022-10-29T09:39:18Z</time>
      </trkpt>
      <trkpt lat="43.3884700" lon="-1.8015080">
        <ele>48.8</ele>
        <time>2022-10-29T09:39:19Z</time>
      </trkpt>
      <trkpt lat="43.3885480" lon="-1.8013900">
        <ele>49.2</ele>
        <time>2022-10-29T09:39:21Z</time>
      </trkpt>
      <trkpt lat="43.3885850" lon="-1.8013310">
        <ele>49.4</ele>
        <time>2022-10-29T09:39:22Z</time>
      </trkpt>
      <trkpt lat="43.3886230" lon="-1.8012770">
        <ele>49.4</ele>
        <time>2022-10-29T09:39:23Z</time>
      </trkpt>
      <trkpt lat="43.3886620" lon="-1.8012270">
        <ele>49.8</ele>
        <time>2022-10-29T09:39:24Z</time>
      </trkpt>
      <trkpt lat="43.3887000" lon="-1.8011780">
        <ele>49.8</ele>
        <time>2022-10-29T09:39:25Z</time>
      </trkpt>
      <trkpt lat="43.3887350" lon="-1.8011300">
        <ele>49.8</ele>
        <time>2022-10-29T09:39:26Z</time>
      </trkpt>
      <trkpt lat="43.3887680" lon="-1.8010800">
        <ele>49.8</ele>
        <time>2022-10-29T09:39:27Z</time>
      </trkpt>
      <trkpt lat="43.3887910" lon="-1.8010370">
        <ele>50.0</ele>
        <time>2022-10-29T09:39:28Z</time>
      </trkpt>
      <trkpt lat="43.3888180" lon="-1.8009650">
        <ele>50.2</ele>
        <time>2022-10-29T09:39:29Z</time>
      </trkpt>
      <trkpt lat="43.3888540" lon="-1.8008400">
        <ele>51.0</ele>
        <time>2022-10-29T09:39:31Z</time>
      </trkpt>
      <trkpt lat="43.3888710" lon="-1.8007790">
        <ele>51.2</ele>
        <time>2022-10-29T09:39:32Z</time>
      </trkpt>
      <trkpt lat="43.3888900" lon="-1.8007170">
        <ele>51.6</ele>
        <time>2022-10-29T09:39:33Z</time>
      </trkpt>
      <trkpt lat="43.3889130" lon="-1.8006570">
        <ele>51.6</ele>
        <time>2022-10-29T09:39:34Z</time>
      </trkpt>
      <trkpt lat="43.3889380" lon="-1.8005990">
        <ele>52.2</ele>
        <time>2022-10-29T09:39:35Z</time>
      </trkpt>
      <trkpt lat="43.3890040" lon="-1.8004950">
        <ele>52.4</ele>
        <time>2022-10-29T09:39:37Z</time>
      </trkpt>
      <trkpt lat="43.3890370" lon="-1.8004430">
        <ele>52.6</ele>
        <time>2022-10-29T09:39:38Z</time>
      </trkpt>
      <trkpt lat="43.3890720" lon="-1.8003910">
        <ele>52.8</ele>
        <time>2022-10-29T09:39:39Z</time>
      </trkpt>
      <trkpt lat="43.3891110" lon="-1.8003390">
        <ele>53.0</ele>
        <time>2022-10-29T09:39:40Z</time>
      </trkpt>
      <trkpt lat="43.3891540" lon="-1.8002890">
        <ele>53.0</ele>
        <time>2022-10-29T09:39:41Z</time>
      </trkpt>
      <trkpt lat="43.3891890" lon="-1.8002510">
        <ele>53.2</ele>
        <time>2022-10-29T09:39:42Z</time>
      </trkpt>
      <trkpt lat="43.3892340" lon="-1.8002030">
        <ele>53.2</ele>
        <time>2022-10-29T09:39:43Z</time>
      </trkpt>
      <trkpt lat="43.3892850" lon="-1.8001480">
        <ele>53.4</ele>
        <time>2022-10-29T09:39:44Z</time>
      </trkpt>
      <trkpt lat="43.3893260" lon="-1.8001010">
        <ele>53.4</ele>
        <time>2022-10-29T09:39:45Z</time>
      </trkpt>
      <trkpt lat="43.3893640" lon="-1.8000510">
        <ele>53.6</ele>
        <time>2022-10-29T09:39:46Z</time>
      </trkpt>
      <trkpt lat="43.3893930" lon="-1.8000120">
        <ele>53.6</ele>
        <time>2022-10-29T09:39:47Z</time>
      </trkpt>
      <trkpt lat="43.3894380" lon="-1.7999550">
        <ele>53.6</ele>
        <time>2022-10-29T09:39:48Z</time>
      </trkpt>
      <trkpt lat="43.3894770" lon="-1.7999090">
        <ele>53.6</ele>
        <time>2022-10-29T09:39:49Z</time>
      </trkpt>
      <trkpt lat="43.3895160" lon="-1.7998640">
        <ele>53.6</ele>
        <time>2022-10-29T09:39:50Z</time>
      </trkpt>
      <trkpt lat="43.3895550" lon="-1.7998190">
        <ele>53.8</ele>
        <time>2022-10-29T09:39:51Z</time>
      </trkpt>
      <trkpt lat="43.3895870" lon="-1.7997830">
        <ele>53.8</ele>
        <time>2022-10-29T09:39:52Z</time>
      </trkpt>
      <trkpt lat="43.3896260" lon="-1.7997340">
        <ele>54.0</ele>
        <time>2022-10-29T09:39:53Z</time>
      </trkpt>
      <trkpt lat="43.3896710" lon="-1.7996680">
        <ele>54.2</ele>
        <time>2022-10-29T09:39:54Z</time>
      </trkpt>
      <trkpt lat="43.3897050" lon="-1.7996120">
        <ele>54.4</ele>
        <time>2022-10-29T09:39:55Z</time>
      </trkpt>
      <trkpt lat="43.3897400" lon="-1.7995510">
        <ele>54.4</ele>
        <time>2022-10-29T09:39:56Z</time>
      </trkpt>
      <trkpt lat="43.3897690" lon="-1.7994860">
        <ele>54.4</ele>
        <time>2022-10-29T09:39:57Z</time>
      </trkpt>
      <trkpt lat="43.3897980" lon="-1.7994330">
        <ele>54.4</ele>
        <time>2022-10-29T09:39:58Z</time>
      </trkpt>
      <trkpt lat="43.3898400" lon="-1.7993540">
        <ele>54.4</ele>
        <time>2022-10-29T09:39:59Z</time>
      </trkpt>
      <trkpt lat="43.3898720" lon="-1.7992890">
        <ele>54.2</ele>
        <time>2022-10-29T09:40:00Z</time>
      </trkpt>
      <trkpt lat="43.3899080" lon="-1.7992200">
        <ele>54.2</ele>
        <time>2022-10-29T09:40:01Z</time>
      </trkpt>
      <trkpt lat="43.3899400" lon="-1.7991570">
        <ele>54.0</ele>
        <time>2022-10-29T09:40:02Z</time>
      </trkpt>
      <trkpt lat="43.3899800" lon="-1.7990720">
        <ele>53.8</ele>
        <time>2022-10-29T09:40:03Z</time>
      </trkpt>
      <trkpt lat="43.3900280" lon="-1.7989670">
        <ele>53.8</ele>
        <time>2022-10-29T09:40:04Z</time>
      </trkpt>
      <trkpt lat="43.3901090" lon="-1.7987870">
        <ele>53.0</ele>
        <time>2022-10-29T09:40:06Z</time>
      </trkpt>
      <trkpt lat="43.3901460" lon="-1.7987090">
        <ele>52.8</ele>
        <time>2022-10-29T09:40:07Z</time>
      </trkpt>
      <trkpt lat="43.3902280" lon="-1.7984890">
        <ele>52.0</ele>
        <time>2022-10-29T09:40:09Z</time>
      </trkpt>
      <trkpt lat="43.3902400" lon="-1.7983850">
        <ele>51.4</ele>
        <time>2022-10-29T09:40:10Z</time>
      </trkpt>
      <trkpt lat="43.3902290" lon="-1.7982990">
        <ele>50.4</ele>
        <time>2022-10-29T09:40:11Z</time>
      </trkpt>
      <trkpt lat="43.3902180" lon="-1.7982370">
        <ele>50.0</ele>
        <time>2022-10-29T09:40:12Z</time>
      </trkpt>
      <trkpt lat="43.3902080" lon="-1.7981680">
        <ele>49.4</ele>
        <time>2022-10-29T09:40:13Z</time>
      </trkpt>
      <trkpt lat="43.3902040" lon="-1.7980830">
        <ele>49.2</ele>
        <time>2022-10-29T09:40:14Z</time>
      </trkpt>
      <trkpt lat="43.3902030" lon="-1.7980070">
        <ele>48.6</ele>
        <time>2022-10-29T09:40:15Z</time>
      </trkpt>
      <trkpt lat="43.3902020" lon="-1.7979270">
        <ele>48.2</ele>
        <time>2022-10-29T09:40:16Z</time>
      </trkpt>
      <trkpt lat="43.3902020" lon="-1.7978610">
        <ele>48.0</ele>
        <time>2022-10-29T09:40:17Z</time>
      </trkpt>
      <trkpt lat="43.3901920" lon="-1.7977710">
        <ele>47.8</ele>
        <time>2022-10-29T09:40:18Z</time>
      </trkpt>
      <trkpt lat="43.3901300" lon="-1.7975700">
        <ele>47.8</ele>
        <time>2022-10-29T09:40:20Z</time>
      </trkpt>
      <trkpt lat="43.3900850" lon="-1.7974800">
        <ele>47.6</ele>
        <time>2022-10-29T09:40:21Z</time>
      </trkpt>
      <trkpt lat="43.3900490" lon="-1.7974050">
        <ele>47.2</ele>
        <time>2022-10-29T09:40:22Z</time>
      </trkpt>
      <trkpt lat="43.3900070" lon="-1.7973140">
        <ele>47.0</ele>
        <time>2022-10-29T09:40:23Z</time>
      </trkpt>
      <trkpt lat="43.3899620" lon="-1.7972150">
        <ele>46.4</ele>
        <time>2022-10-29T09:40:24Z</time>
      </trkpt>
      <trkpt lat="43.3899070" lon="-1.7970980">
        <ele>46.0</ele>
        <time>2022-10-29T09:40:26Z</time>
      </trkpt>
      <trkpt lat="43.3898890" lon="-1.7970680">
        <ele>46.0</ele>
        <time>2022-10-29T09:40:27Z</time>
      </trkpt>
      <trkpt lat="43.3898690" lon="-1.7970360">
        <ele>45.6</ele>
        <time>2022-10-29T09:40:28Z</time>
      </trkpt>
      <trkpt lat="43.3898480" lon="-1.7969930">
        <ele>45.2</ele>
        <time>2022-10-29T09:40:29Z</time>
      </trkpt>
      <trkpt lat="43.3898300" lon="-1.7969540">
        <ele>45.0</ele>
        <time>2022-10-29T09:40:30Z</time>
      </trkpt>
      <trkpt lat="43.3898140" lon="-1.7969140">
        <ele>44.4</ele>
        <time>2022-10-29T09:40:31Z</time>
      </trkpt>
      <trkpt lat="43.3898000" lon="-1.7968820">
        <ele>44.0</ele>
        <time>2022-10-29T09:40:32Z</time>
      </trkpt>
      <trkpt lat="43.3897770" lon="-1.7968370">
        <ele>43.6</ele>
        <time>2022-10-29T09:40:33Z</time>
      </trkpt>
      <trkpt lat="43.3897000" lon="-1.7966540">
        <ele>43.0</ele>
        <time>2022-10-29T09:40:37Z</time>
      </trkpt>
      <trkpt lat="43.3896890" lon="-1.7966090">
        <ele>43.0</ele>
        <time>2022-10-29T09:40:38Z</time>
      </trkpt>
      <trkpt lat="43.3896500" lon="-1.7964550">
        <ele>42.8</ele>
        <time>2022-10-29T09:40:42Z</time>
      </trkpt>
      <trkpt lat="43.3896510" lon="-1.7963630">
        <ele>43.4</ele>
        <time>2022-10-29T09:40:44Z</time>
      </trkpt>
      <trkpt lat="43.3896550" lon="-1.7962940">
        <ele>44.0</ele>
        <time>2022-10-29T09:40:45Z</time>
      </trkpt>
      <trkpt lat="43.3896660" lon="-1.7962480">
        <ele>44.8</ele>
        <time>2022-10-29T09:40:46Z</time>
      </trkpt>
      <trkpt lat="43.3896860" lon="-1.7962130">
        <ele>45.0</ele>
        <time>2022-10-29T09:40:47Z</time>
      </trkpt>
      <trkpt lat="43.3897090" lon="-1.7961880">
        <ele>45.2</ele>
        <time>2022-10-29T09:40:48Z</time>
      </trkpt>
      <trkpt lat="43.3897310" lon="-1.7961790">
        <ele>45.6</ele>
        <time>2022-10-29T09:40:49Z</time>
      </trkpt>
      <trkpt lat="43.3897670" lon="-1.7961760">
        <ele>45.6</ele>
        <time>2022-10-29T09:40:50Z</time>
      </trkpt>
      <trkpt lat="43.3897960" lon="-1.7961770">
        <ele>46.0</ele>
        <time>2022-10-29T09:40:51Z</time>
      </trkpt>
      <trkpt lat="43.3898220" lon="-1.7961780">
        <ele>46.2</ele>
        <time>2022-10-29T09:40:52Z</time>
      </trkpt>
      <trkpt lat="43.3898570" lon="-1.7961630">
        <ele>46.4</ele>
        <time>2022-10-29T09:40:53Z</time>
      </trkpt>
      <trkpt lat="43.3898840" lon="-1.7961470">
        <ele>46.6</ele>
        <time>2022-10-29T09:40:54Z</time>
      </trkpt>
      <trkpt lat="43.3899210" lon="-1.7961300">
        <ele>47.0</ele>
        <time>2022-10-29T09:40:55Z</time>
      </trkpt>
      <trkpt lat="43.3899450" lon="-1.7961110">
        <ele>47.6</ele>
        <time>2022-10-29T09:40:56Z</time>
      </trkpt>
      <trkpt lat="43.3899620" lon="-1.7960870">
        <ele>48.2</ele>
        <time>2022-10-29T09:40:57Z</time>
      </trkpt>
      <trkpt lat="43.3899850" lon="-1.7960480">
        <ele>48.8</ele>
        <time>2022-10-29T09:40:58Z</time>
      </trkpt>
      <trkpt lat="43.3900330" lon="-1.7959790">
        <ele>48.8</ele>
        <time>2022-10-29T09:40:59Z</time>
      </trkpt>
      <trkpt lat="43.3900620" lon="-1.7959280">
        <ele>49.4</ele>
        <time>2022-10-29T09:41:00Z</time>
      </trkpt>
      <trkpt lat="43.3900940" lon="-1.7958840">
        <ele>49.4</ele>
        <time>2022-10-29T09:41:01Z</time>
      </trkpt>
      <trkpt lat="43.3901250" lon="-1.7958740">
        <ele>49.6</ele>
        <time>2022-10-29T09:41:02Z</time>
      </trkpt>
      <trkpt lat="43.3901610" lon="-1.7958780">
        <ele>49.6</ele>
        <time>2022-10-29T09:41:03Z</time>
      </trkpt>
      <trkpt lat="43.3901920" lon="-1.7958880">
        <ele>49.6</ele>
        <time>2022-10-29T09:41:04Z</time>
      </trkpt>
      <trkpt lat="43.3902220" lon="-1.7959070">
        <ele>49.8</ele>
        <time>2022-10-29T09:41:05Z</time>
      </trkpt>
      <trkpt lat="43.3902500" lon="-1.7959240">
        <ele>50.0</ele>
        <time>2022-10-29T09:41:06Z</time>
      </trkpt>
      <trkpt lat="43.3902830" lon="-1.7959220">
        <ele>50.0</ele>
        <time>2022-10-29T09:41:07Z</time>
      </trkpt>
      <trkpt lat="43.3903040" lon="-1.7959250">
        <ele>50.0</ele>
        <time>2022-10-29T09:41:08Z</time>
      </trkpt>
      <trkpt lat="43.3903220" lon="-1.7959400">
        <ele>50.2</ele>
        <time>2022-10-29T09:41:09Z</time>
      </trkpt>
      <trkpt lat="43.3903490" lon="-1.7959580">
        <ele>50.2</ele>
        <time>2022-10-29T09:41:10Z</time>
      </trkpt>
      <trkpt lat="43.3903710" lon="-1.7959690">
        <ele>50.2</ele>
        <time>2022-10-29T09:41:11Z</time>
      </trkpt>
      <trkpt lat="43.3903980" lon="-1.7959770">
        <ele>50.2</ele>
        <time>2022-10-29T09:41:12Z</time>
      </trkpt>
      <trkpt lat="43.3904250" lon="-1.7959780">
        <ele>50.4</ele>
        <time>2022-10-29T09:41:13Z</time>
      </trkpt>
      <trkpt lat="43.3904530" lon="-1.7959770">
        <ele>50.4</ele>
        <time>2022-10-29T09:41:14Z</time>
      </trkpt>
      <trkpt lat="43.3904870" lon="-1.7959700">
        <ele>50.6</ele>
        <time>2022-10-29T09:41:15Z</time>
      </trkpt>
      <trkpt lat="43.3905160" lon="-1.7959520">
        <ele>50.8</ele>
        <time>2022-10-29T09:41:16Z</time>
      </trkpt>
      <trkpt lat="43.3905390" lon="-1.7959300">
        <ele>51.0</ele>
        <time>2022-10-29T09:41:17Z</time>
      </trkpt>
      <trkpt lat="43.3905670" lon="-1.7958990">
        <ele>51.2</ele>
        <time>2022-10-29T09:41:18Z</time>
      </trkpt>
      <trkpt lat="43.3905990" lon="-1.7958560">
        <ele>51.4</ele>
        <time>2022-10-29T09:41:19Z</time>
      </trkpt>
      <trkpt lat="43.3906300" lon="-1.7958120">
        <ele>51.8</ele>
        <time>2022-10-29T09:41:20Z</time>
      </trkpt>
      <trkpt lat="43.3906550" lon="-1.7957750">
        <ele>52.0</ele>
        <time>2022-10-29T09:41:21Z</time>
      </trkpt>
      <trkpt lat="43.3906730" lon="-1.7957400">
        <ele>52.2</ele>
        <time>2022-10-29T09:41:22Z</time>
      </trkpt>
      <trkpt lat="43.3907030" lon="-1.7956820">
        <ele>52.2</ele>
        <time>2022-10-29T09:41:23Z</time>
      </trkpt>
      <trkpt lat="43.3907280" lon="-1.7956290">
        <ele>52.2</ele>
        <time>2022-10-29T09:41:24Z</time>
      </trkpt>
      <trkpt lat="43.3907530" lon="-1.7955780">
        <ele>52.2</ele>
        <time>2022-10-29T09:41:25Z</time>
      </trkpt>
      <trkpt lat="43.3907820" lon="-1.7955240">
        <ele>52.2</ele>
        <time>2022-10-29T09:41:26Z</time>
      </trkpt>
      <trkpt lat="43.3908070" lon="-1.7954680">
        <ele>52.4</ele>
        <time>2022-10-29T09:41:27Z</time>
      </trkpt>
      <trkpt lat="43.3908320" lon="-1.7954140">
        <ele>52.4</ele>
        <time>2022-10-29T09:41:28Z</time>
      </trkpt>
      <trkpt lat="43.3908510" lon="-1.7953720">
        <ele>52.2</ele>
        <time>2022-10-29T09:41:29Z</time>
      </trkpt>
      <trkpt lat="43.3908820" lon="-1.7953080">
        <ele>52.2</ele>
        <time>2022-10-29T09:41:30Z</time>
      </trkpt>
      <trkpt lat="43.3909090" lon="-1.7952490">
        <ele>52.2</ele>
        <time>2022-10-29T09:41:31Z</time>
      </trkpt>
      <trkpt lat="43.3909350" lon="-1.7951890">
        <ele>52.2</ele>
        <time>2022-10-29T09:41:32Z</time>
      </trkpt>
      <trkpt lat="43.3909580" lon="-1.7951260">
        <ele>52.2</ele>
        <time>2022-10-29T09:41:33Z</time>
      </trkpt>
      <trkpt lat="43.3909760" lon="-1.7950750">
        <ele>52.2</ele>
        <time>2022-10-29T09:41:34Z</time>
      </trkpt>
      <trkpt lat="43.3910040" lon="-1.7949980">
        <ele>52.2</ele>
        <time>2022-10-29T09:41:35Z</time>
      </trkpt>
      <trkpt lat="43.3910290" lon="-1.7949410">
        <ele>52.2</ele>
        <time>2022-10-29T09:41:36Z</time>
      </trkpt>
      <trkpt lat="43.3910510" lon="-1.7948810">
        <ele>52.2</ele>
        <time>2022-10-29T09:41:37Z</time>
      </trkpt>
      <trkpt lat="43.3910710" lon="-1.7948330">
        <ele>52.0</ele>
        <time>2022-10-29T09:41:38Z</time>
      </trkpt>
      <trkpt lat="43.3911300" lon="-1.7947060">
        <ele>52.0</ele>
        <time>2022-10-29T09:41:40Z</time>
      </trkpt>
      <trkpt lat="43.3912040" lon="-1.7944540">
        <ele>52.2</ele>
        <time>2022-10-29T09:41:44Z</time>
      </trkpt>
      <trkpt lat="43.3912220" lon="-1.7943080">
        <ele>52.0</ele>
        <time>2022-10-29T09:41:46Z</time>
      </trkpt>
      <trkpt lat="43.3912870" lon="-1.7940070">
        <ele>52.0</ele>
        <time>2022-10-29T09:41:50Z</time>
      </trkpt>
      <trkpt lat="43.3914230" lon="-1.7933770">
        <ele>52.4</ele>
        <time>2022-10-29T09:41:58Z</time>
      </trkpt>
      <trkpt lat="43.3914610" lon="-1.7931540">
        <ele>52.4</ele>
        <time>2022-10-29T09:42:01Z</time>
      </trkpt>
      <trkpt lat="43.3914680" lon="-1.7930750">
        <ele>52.4</ele>
        <time>2022-10-29T09:42:02Z</time>
      </trkpt>
      <trkpt lat="43.3914750" lon="-1.7929910">
        <ele>52.4</ele>
        <time>2022-10-29T09:42:03Z</time>
      </trkpt>
      <trkpt lat="43.3914740" lon="-1.7929250">
        <ele>52.6</ele>
        <time>2022-10-29T09:42:04Z</time>
      </trkpt>
      <trkpt lat="43.3914640" lon="-1.7928220">
        <ele>52.6</ele>
        <time>2022-10-29T09:42:05Z</time>
      </trkpt>
      <trkpt lat="43.3914590" lon="-1.7927360">
        <ele>52.6</ele>
        <time>2022-10-29T09:42:06Z</time>
      </trkpt>
      <trkpt lat="43.3914860" lon="-1.7924830">
        <ele>52.6</ele>
        <time>2022-10-29T09:42:09Z</time>
      </trkpt>
      <trkpt lat="43.3914950" lon="-1.7923950">
        <ele>52.6</ele>
        <time>2022-10-29T09:42:10Z</time>
      </trkpt>
      <trkpt lat="43.3914970" lon="-1.7922030">
        <ele>52.6</ele>
        <time>2022-10-29T09:42:12Z</time>
      </trkpt>
      <trkpt lat="43.3914730" lon="-1.7921110">
        <ele>52.6</ele>
        <time>2022-10-29T09:42:13Z</time>
      </trkpt>
      <trkpt lat="43.3914300" lon="-1.7920390">
        <ele>52.6</ele>
        <time>2022-10-29T09:42:14Z</time>
      </trkpt>
      <trkpt lat="43.3913710" lon="-1.7920010">
        <ele>52.6</ele>
        <time>2022-10-29T09:42:15Z</time>
      </trkpt>
      <trkpt lat="43.3913060" lon="-1.7919930">
        <ele>52.6</ele>
        <time>2022-10-29T09:42:16Z</time>
      </trkpt>
      <trkpt lat="43.3912420" lon="-1.7919980">
        <ele>52.4</ele>
        <time>2022-10-29T09:42:17Z</time>
      </trkpt>
      <trkpt lat="43.3911810" lon="-1.7920070">
        <ele>52.2</ele>
        <time>2022-10-29T09:42:18Z</time>
      </trkpt>
      <trkpt lat="43.3911230" lon="-1.7920150">
        <ele>52.2</ele>
        <time>2022-10-29T09:42:19Z</time>
      </trkpt>
      <trkpt lat="43.3910630" lon="-1.7920150">
        <ele>52.2</ele>
        <time>2022-10-29T09:42:20Z</time>
      </trkpt>
      <trkpt lat="43.3910030" lon="-1.7920020">
        <ele>52.2</ele>
        <time>2022-10-29T09:42:21Z</time>
      </trkpt>
      <trkpt lat="43.3909450" lon="-1.7919790">
        <ele>52.2</ele>
        <time>2022-10-29T09:42:22Z</time>
      </trkpt>
      <trkpt lat="43.3908900" lon="-1.7919500">
        <ele>52.4</ele>
        <time>2022-10-29T09:42:23Z</time>
      </trkpt>
      <trkpt lat="43.3908420" lon="-1.7919160">
        <ele>52.6</ele>
        <time>2022-10-29T09:42:24Z</time>
      </trkpt>
      <trkpt lat="43.3908040" lon="-1.7918710">
        <ele>53.0</ele>
        <time>2022-10-29T09:42:25Z</time>
      </trkpt>
      <trkpt lat="43.3907640" lon="-1.7918180">
        <ele>53.0</ele>
        <time>2022-10-29T09:42:26Z</time>
      </trkpt>
      <trkpt lat="43.3907230" lon="-1.7917740">
        <ele>53.8</ele>
        <time>2022-10-29T09:42:27Z</time>
      </trkpt>
      <trkpt lat="43.3906800" lon="-1.7917220">
        <ele>54.2</ele>
        <time>2022-10-29T09:42:28Z</time>
      </trkpt>
      <trkpt lat="43.3906380" lon="-1.7916790">
        <ele>54.6</ele>
        <time>2022-10-29T09:42:29Z</time>
      </trkpt>
      <trkpt lat="43.3905930" lon="-1.7916410">
        <ele>54.8</ele>
        <time>2022-10-29T09:42:30Z</time>
      </trkpt>
      <trkpt lat="43.3905430" lon="-1.7916060">
        <ele>55.6</ele>
        <time>2022-10-29T09:42:31Z</time>
      </trkpt>
      <trkpt lat="43.3904940" lon="-1.7915770">
        <ele>55.8</ele>
        <time>2022-10-29T09:42:32Z</time>
      </trkpt>
      <trkpt lat="43.3904400" lon="-1.7915500">
        <ele>56.4</ele>
        <time>2022-10-29T09:42:33Z</time>
      </trkpt>
      <trkpt lat="43.3903410" lon="-1.7915130">
        <ele>56.8</ele>
        <time>2022-10-29T09:42:35Z</time>
      </trkpt>
      <trkpt lat="43.3902870" lon="-1.7914870">
        <ele>57.0</ele>
        <time>2022-10-29T09:42:36Z</time>
      </trkpt>
      <trkpt lat="43.3902310" lon="-1.7914640">
        <ele>57.0</ele>
        <time>2022-10-29T09:42:37Z</time>
      </trkpt>
      <trkpt lat="43.3901740" lon="-1.7914450">
        <ele>57.0</ele>
        <time>2022-10-29T09:42:38Z</time>
      </trkpt>
      <trkpt lat="43.3901170" lon="-1.7914240">
        <ele>57.0</ele>
        <time>2022-10-29T09:42:39Z</time>
      </trkpt>
      <trkpt lat="43.3900610" lon="-1.7914020">
        <ele>57.0</ele>
        <time>2022-10-29T09:42:40Z</time>
      </trkpt>
      <trkpt lat="43.3900040" lon="-1.7913820">
        <ele>57.0</ele>
        <time>2022-10-29T09:42:41Z</time>
      </trkpt>
      <trkpt lat="43.3899520" lon="-1.7913660">
        <ele>57.0</ele>
        <time>2022-10-29T09:42:42Z</time>
      </trkpt>
      <trkpt lat="43.3898970" lon="-1.7913400">
        <ele>57.0</ele>
        <time>2022-10-29T09:42:43Z</time>
      </trkpt>
      <trkpt lat="43.3898430" lon="-1.7913200">
        <ele>57.2</ele>
        <time>2022-10-29T09:42:44Z</time>
      </trkpt>
      <trkpt lat="43.3897920" lon="-1.7913150">
        <ele>57.2</ele>
        <time>2022-10-29T09:42:45Z</time>
      </trkpt>
      <trkpt lat="43.3897390" lon="-1.7913160">
        <ele>57.2</ele>
        <time>2022-10-29T09:42:46Z</time>
      </trkpt>
      <trkpt lat="43.3896870" lon="-1.7913300">
        <ele>57.8</ele>
        <time>2022-10-29T09:42:47Z</time>
      </trkpt>
      <trkpt lat="43.3896310" lon="-1.7913520">
        <ele>57.8</ele>
        <time>2022-10-29T09:42:48Z</time>
      </trkpt>
      <trkpt lat="43.3895800" lon="-1.7913820">
        <ele>58.2</ele>
        <time>2022-10-29T09:42:49Z</time>
      </trkpt>
      <trkpt lat="43.3895330" lon="-1.7914140">
        <ele>58.4</ele>
        <time>2022-10-29T09:42:50Z</time>
      </trkpt>
      <trkpt lat="43.3894870" lon="-1.7914600">
        <ele>58.8</ele>
        <time>2022-10-29T09:42:51Z</time>
      </trkpt>
      <trkpt lat="43.3894390" lon="-1.7915000">
        <ele>59.0</ele>
        <time>2022-10-29T09:42:52Z</time>
      </trkpt>
      <trkpt lat="43.3893920" lon="-1.7915430">
        <ele>59.0</ele>
        <time>2022-10-29T09:42:53Z</time>
      </trkpt>
      <trkpt lat="43.3893450" lon="-1.7915810">
        <ele>59.2</ele>
        <time>2022-10-29T09:42:54Z</time>
      </trkpt>
      <trkpt lat="43.3892950" lon="-1.7916190">
        <ele>59.4</ele>
        <time>2022-10-29T09:42:55Z</time>
      </trkpt>
      <trkpt lat="43.3892460" lon="-1.7916570">
        <ele>59.6</ele>
        <time>2022-10-29T09:42:56Z</time>
      </trkpt>
      <trkpt lat="43.3891940" lon="-1.7916880">
        <ele>59.8</ele>
        <time>2022-10-29T09:42:57Z</time>
      </trkpt>
      <trkpt lat="43.3891370" lon="-1.7917070">
        <ele>59.8</ele>
        <time>2022-10-29T09:42:58Z</time>
      </trkpt>
      <trkpt lat="43.3890800" lon="-1.7917120">
        <ele>60.0</ele>
        <time>2022-10-29T09:42:59Z</time>
      </trkpt>
      <trkpt lat="43.3890200" lon="-1.7917030">
        <ele>60.6</ele>
        <time>2022-10-29T09:43:00Z</time>
      </trkpt>
      <trkpt lat="43.3889600" lon="-1.7916810">
        <ele>60.6</ele>
        <time>2022-10-29T09:43:01Z</time>
      </trkpt>
      <trkpt lat="43.3889020" lon="-1.7916490">
        <ele>61.0</ele>
        <time>2022-10-29T09:43:02Z</time>
      </trkpt>
      <trkpt lat="43.3888490" lon="-1.7916170">
        <ele>61.0</ele>
        <time>2022-10-29T09:43:03Z</time>
      </trkpt>
      <trkpt lat="43.3887950" lon="-1.7915900">
        <ele>61.2</ele>
        <time>2022-10-29T09:43:04Z</time>
      </trkpt>
      <trkpt lat="43.3887390" lon="-1.7915660">
        <ele>61.6</ele>
        <time>2022-10-29T09:43:05Z</time>
      </trkpt>
      <trkpt lat="43.3886820" lon="-1.7915530">
        <ele>61.8</ele>
        <time>2022-10-29T09:43:06Z</time>
      </trkpt>
      <trkpt lat="43.3886240" lon="-1.7915540">
        <ele>62.0</ele>
        <time>2022-10-29T09:43:07Z</time>
      </trkpt>
      <trkpt lat="43.3885690" lon="-1.7915650">
        <ele>62.2</ele>
        <time>2022-10-29T09:43:08Z</time>
      </trkpt>
      <trkpt lat="43.3885180" lon="-1.7915840">
        <ele>63.0</ele>
        <time>2022-10-29T09:43:09Z</time>
      </trkpt>
      <trkpt lat="43.3884710" lon="-1.7916100">
        <ele>63.2</ele>
        <time>2022-10-29T09:43:10Z</time>
      </trkpt>
      <trkpt lat="43.3884310" lon="-1.7916460">
        <ele>63.6</ele>
        <time>2022-10-29T09:43:11Z</time>
      </trkpt>
      <trkpt lat="43.3883960" lon="-1.7916880">
        <ele>63.6</ele>
        <time>2022-10-29T09:43:12Z</time>
      </trkpt>
      <trkpt lat="43.3883670" lon="-1.7917370">
        <ele>63.8</ele>
        <time>2022-10-29T09:43:13Z</time>
      </trkpt>
      <trkpt lat="43.3883370" lon="-1.7917860">
        <ele>63.8</ele>
        <time>2022-10-29T09:43:14Z</time>
      </trkpt>
      <trkpt lat="43.3883070" lon="-1.7918310">
        <ele>63.8</ele>
        <time>2022-10-29T09:43:15Z</time>
      </trkpt>
      <trkpt lat="43.3882760" lon="-1.7918750">
        <ele>63.8</ele>
        <time>2022-10-29T09:43:16Z</time>
      </trkpt>
      <trkpt lat="43.3882440" lon="-1.7919150">
        <ele>63.6</ele>
        <time>2022-10-29T09:43:17Z</time>
      </trkpt>
      <trkpt lat="43.3882080" lon="-1.7919480">
        <ele>63.2</ele>
        <time>2022-10-29T09:43:18Z</time>
      </trkpt>
      <trkpt lat="43.3881690" lon="-1.7919770">
        <ele>63.2</ele>
        <time>2022-10-29T09:43:19Z</time>
      </trkpt>
      <trkpt lat="43.3881290" lon="-1.7920030">
        <ele>63.0</ele>
        <time>2022-10-29T09:43:20Z</time>
      </trkpt>
      <trkpt lat="43.3880890" lon="-1.7920300">
        <ele>62.8</ele>
        <time>2022-10-29T09:43:21Z</time>
      </trkpt>
      <trkpt lat="43.3880480" lon="-1.7920570">
        <ele>62.6</ele>
        <time>2022-10-29T09:43:22Z</time>
      </trkpt>
      <trkpt lat="43.3880070" lon="-1.7920940">
        <ele>62.6</ele>
        <time>2022-10-29T09:43:23Z</time>
      </trkpt>
      <trkpt lat="43.3879640" lon="-1.7921270">
        <ele>62.4</ele>
        <time>2022-10-29T09:43:24Z</time>
      </trkpt>
      <trkpt lat="43.3879220" lon="-1.7921640">
        <ele>62.4</ele>
        <time>2022-10-29T09:43:25Z</time>
      </trkpt>
      <trkpt lat="43.3878820" lon="-1.7922050">
        <ele>62.2</ele>
        <time>2022-10-29T09:43:26Z</time>
      </trkpt>
      <trkpt lat="43.3878430" lon="-1.7922510">
        <ele>62.2</ele>
        <time>2022-10-29T09:43:27Z</time>
      </trkpt>
      <trkpt lat="43.3877650" lon="-1.7923520">
        <ele>62.0</ele>
        <time>2022-10-29T09:43:29Z</time>
      </trkpt>
      <trkpt lat="43.3877270" lon="-1.7924010">
        <ele>62.0</ele>
        <time>2022-10-29T09:43:30Z</time>
      </trkpt>
      <trkpt lat="43.3876940" lon="-1.7924580">
        <ele>61.6</ele>
        <time>2022-10-29T09:43:31Z</time>
      </trkpt>
      <trkpt lat="43.3875970" lon="-1.7926360">
        <ele>61.0</ele>
        <time>2022-10-29T09:43:34Z</time>
      </trkpt>
      <trkpt lat="43.3875600" lon="-1.7926900">
        <ele>60.8</ele>
        <time>2022-10-29T09:43:35Z</time>
      </trkpt>
      <trkpt lat="43.3874740" lon="-1.7928040">
        <ele>60.2</ele>
        <time>2022-10-29T09:43:37Z</time>
      </trkpt>
      <trkpt lat="43.3874230" lon="-1.7928580">
        <ele>60.0</ele>
        <time>2022-10-29T09:43:38Z</time>
      </trkpt>
      <trkpt lat="43.3873140" lon="-1.7929770">
        <ele>59.4</ele>
        <time>2022-10-29T09:43:40Z</time>
      </trkpt>
      <trkpt lat="43.3871380" lon="-1.7931390">
        <ele>59.2</ele>
        <time>2022-10-29T09:43:43Z</time>
      </trkpt>
      <trkpt lat="43.3868990" lon="-1.7933740">
        <ele>59.0</ele>
        <time>2022-10-29T09:43:47Z</time>
      </trkpt>
      <trkpt lat="43.3868470" lon="-1.7934410">
        <ele>59.0</ele>
        <time>2022-10-29T09:43:48Z</time>
      </trkpt>
      <trkpt lat="43.3867970" lon="-1.7935050">
        <ele>59.2</ele>
        <time>2022-10-29T09:43:49Z</time>
      </trkpt>
      <trkpt lat="43.3867550" lon="-1.7935800">
        <ele>59.2</ele>
        <time>2022-10-29T09:43:50Z</time>
      </trkpt>
      <trkpt lat="43.3866360" lon="-1.7938220">
        <ele>59.2</ele>
        <time>2022-10-29T09:43:53Z</time>
      </trkpt>
      <trkpt lat="43.3865400" lon="-1.7939770">
        <ele>59.2</ele>
        <time>2022-10-29T09:43:55Z</time>
      </trkpt>
      <trkpt lat="43.3864210" lon="-1.7940950">
        <ele>59.2</ele>
        <time>2022-10-29T09:43:57Z</time>
      </trkpt>
      <trkpt lat="43.3862460" lon="-1.7942460">
        <ele>58.8</ele>
        <time>2022-10-29T09:44:00Z</time>
      </trkpt>
      <trkpt lat="43.3860150" lon="-1.7944410">
        <ele>59.0</ele>
        <time>2022-10-29T09:44:04Z</time>
      </trkpt>
      <trkpt lat="43.3859580" lon="-1.7944900">
        <ele>59.2</ele>
        <time>2022-10-29T09:44:05Z</time>
      </trkpt>
      <trkpt lat="43.3859010" lon="-1.7945390">
        <ele>59.2</ele>
        <time>2022-10-29T09:44:06Z</time>
      </trkpt>
      <trkpt lat="43.3858490" lon="-1.7945980">
        <ele>59.8</ele>
        <time>2022-10-29T09:44:07Z</time>
      </trkpt>
      <trkpt lat="43.3857970" lon="-1.7946590">
        <ele>60.0</ele>
        <time>2022-10-29T09:44:08Z</time>
      </trkpt>
      <trkpt lat="43.3857040" lon="-1.7947840">
        <ele>60.4</ele>
        <time>2022-10-29T09:44:10Z</time>
      </trkpt>
      <trkpt lat="43.3856110" lon="-1.7949070">
        <ele>61.2</ele>
        <time>2022-10-29T09:44:12Z</time>
      </trkpt>
      <trkpt lat="43.3855660" lon="-1.7949690">
        <ele>61.2</ele>
        <time>2022-10-29T09:44:13Z</time>
      </trkpt>
      <trkpt lat="43.3855200" lon="-1.7950310">
        <ele>61.4</ele>
        <time>2022-10-29T09:44:14Z</time>
      </trkpt>
      <trkpt lat="43.3854650" lon="-1.7951070">
        <ele>61.6</ele>
        <time>2022-10-29T09:44:15Z</time>
      </trkpt>
      <trkpt lat="43.3854180" lon="-1.7951710">
        <ele>61.6</ele>
        <time>2022-10-29T09:44:16Z</time>
      </trkpt>
      <trkpt lat="43.3850560" lon="-1.7956680">
        <ele>62.2</ele>
        <time>2022-10-29T09:44:24Z</time>
      </trkpt>
      <trkpt lat="43.3850080" lon="-1.7957310">
        <ele>62.4</ele>
        <time>2022-10-29T09:44:25Z</time>
      </trkpt>
      <trkpt lat="43.3849630" lon="-1.7957950">
        <ele>62.6</ele>
        <time>2022-10-29T09:44:26Z</time>
      </trkpt>
      <trkpt lat="43.3849230" lon="-1.7958590">
        <ele>63.0</ele>
        <time>2022-10-29T09:44:27Z</time>
      </trkpt>
      <trkpt lat="43.3848880" lon="-1.7959280">
        <ele>63.0</ele>
        <time>2022-10-29T09:44:28Z</time>
      </trkpt>
      <trkpt lat="43.3848530" lon="-1.7960010">
        <ele>63.0</ele>
        <time>2022-10-29T09:44:29Z</time>
      </trkpt>
      <trkpt lat="43.3848190" lon="-1.7960710">
        <ele>63.2</ele>
        <time>2022-10-29T09:44:30Z</time>
      </trkpt>
      <trkpt lat="43.3847910" lon="-1.7961480">
        <ele>63.2</ele>
        <time>2022-10-29T09:44:31Z</time>
      </trkpt>
      <trkpt lat="43.3847660" lon="-1.7962270">
        <ele>63.2</ele>
        <time>2022-10-29T09:44:32Z</time>
      </trkpt>
      <trkpt lat="43.3847390" lon="-1.7963070">
        <ele>63.2</ele>
        <time>2022-10-29T09:44:33Z</time>
      </trkpt>
      <trkpt lat="43.3847120" lon="-1.7963850">
        <ele>63.2</ele>
        <time>2022-10-29T09:44:34Z</time>
      </trkpt>
      <trkpt lat="43.3846790" lon="-1.7964590">
        <ele>63.2</ele>
        <time>2022-10-29T09:44:35Z</time>
      </trkpt>
      <trkpt lat="43.3846380" lon="-1.7965220">
        <ele>63.2</ele>
        <time>2022-10-29T09:44:36Z</time>
      </trkpt>
      <trkpt lat="43.3845940" lon="-1.7965760">
        <ele>63.2</ele>
        <time>2022-10-29T09:44:37Z</time>
      </trkpt>
      <trkpt lat="43.3845420" lon="-1.7966190">
        <ele>63.2</ele>
        <time>2022-10-29T09:44:38Z</time>
      </trkpt>
      <trkpt lat="43.3844820" lon="-1.7966480">
        <ele>63.2</ele>
        <time>2022-10-29T09:44:39Z</time>
      </trkpt>
      <trkpt lat="43.3844160" lon="-1.7966700">
        <ele>63.2</ele>
        <time>2022-10-29T09:44:40Z</time>
      </trkpt>
      <trkpt lat="43.3843470" lon="-1.7966870">
        <ele>63.2</ele>
        <time>2022-10-29T09:44:41Z</time>
      </trkpt>
      <trkpt lat="43.3840970" lon="-1.7967710">
        <ele>63.6</ele>
        <time>2022-10-29T09:44:45Z</time>
      </trkpt>
      <trkpt lat="43.3840430" lon="-1.7967950">
        <ele>63.8</ele>
        <time>2022-10-29T09:44:46Z</time>
      </trkpt>
      <trkpt lat="43.3839960" lon="-1.7968220">
        <ele>64.2</ele>
        <time>2022-10-29T09:44:47Z</time>
      </trkpt>
      <trkpt lat="43.3839510" lon="-1.7968530">
        <ele>64.4</ele>
        <time>2022-10-29T09:44:48Z</time>
      </trkpt>
      <trkpt lat="43.3839100" lon="-1.7968840">
        <ele>65.0</ele>
        <time>2022-10-29T09:44:49Z</time>
      </trkpt>
      <trkpt lat="43.3838690" lon="-1.7969150">
        <ele>65.6</ele>
        <time>2022-10-29T09:44:50Z</time>
      </trkpt>
      <trkpt lat="43.3838310" lon="-1.7969510">
        <ele>65.6</ele>
        <time>2022-10-29T09:44:51Z</time>
      </trkpt>
      <trkpt lat="43.3837950" lon="-1.7969900">
        <ele>66.0</ele>
        <time>2022-10-29T09:44:52Z</time>
      </trkpt>
      <trkpt lat="43.3837580" lon="-1.7970300">
        <ele>66.0</ele>
        <time>2022-10-29T09:44:53Z</time>
      </trkpt>
      <trkpt lat="43.3837190" lon="-1.7970690">
        <ele>66.2</ele>
        <time>2022-10-29T09:44:54Z</time>
      </trkpt>
      <trkpt lat="43.3836830" lon="-1.7971070">
        <ele>66.2</ele>
        <time>2022-10-29T09:44:55Z</time>
      </trkpt>
      <trkpt lat="43.3836450" lon="-1.7971430">
        <ele>66.4</ele>
        <time>2022-10-29T09:44:56Z</time>
      </trkpt>
      <trkpt lat="43.3836080" lon="-1.7971820">
        <ele>66.4</ele>
        <time>2022-10-29T09:44:57Z</time>
      </trkpt>
      <trkpt lat="43.3835690" lon="-1.7972180">
        <ele>66.6</ele>
        <time>2022-10-29T09:44:58Z</time>
      </trkpt>
      <trkpt lat="43.3835310" lon="-1.7972510">
        <ele>66.8</ele>
        <time>2022-10-29T09:44:59Z</time>
      </trkpt>
      <trkpt lat="43.3834920" lon="-1.7972860">
        <ele>67.0</ele>
        <time>2022-10-29T09:45:00Z</time>
      </trkpt>
      <trkpt lat="43.3834550" lon="-1.7973230">
        <ele>67.0</ele>
        <time>2022-10-29T09:45:01Z</time>
      </trkpt>
      <trkpt lat="43.3834200" lon="-1.7973580">
        <ele>67.0</ele>
        <time>2022-10-29T09:45:02Z</time>
      </trkpt>
      <trkpt lat="43.3833790" lon="-1.7973970">
        <ele>67.0</ele>
        <time>2022-10-29T09:45:03Z</time>
      </trkpt>
      <trkpt lat="43.3833420" lon="-1.7974320">
        <ele>67.2</ele>
        <time>2022-10-29T09:45:04Z</time>
      </trkpt>
      <trkpt lat="43.3833010" lon="-1.7974720">
        <ele>67.2</ele>
        <time>2022-10-29T09:45:05Z</time>
      </trkpt>
      <trkpt lat="43.3832590" lon="-1.7975150">
        <ele>67.0</ele>
        <time>2022-10-29T09:45:06Z</time>
      </trkpt>
      <trkpt lat="43.3832220" lon="-1.7975530">
        <ele>67.0</ele>
        <time>2022-10-29T09:45:07Z</time>
      </trkpt>
      <trkpt lat="43.3831660" lon="-1.7976150">
        <ele>66.4</ele>
        <time>2022-10-29T09:45:08Z</time>
      </trkpt>
      <trkpt lat="43.3831180" lon="-1.7976700">
        <ele>66.2</ele>
        <time>2022-10-29T09:45:09Z</time>
      </trkpt>
      <trkpt lat="43.3830640" lon="-1.7977230">
        <ele>65.6</ele>
        <time>2022-10-29T09:45:10Z</time>
      </trkpt>
      <trkpt lat="43.3830170" lon="-1.7977660">
        <ele>65.4</ele>
        <time>2022-10-29T09:45:11Z</time>
      </trkpt>
      <trkpt lat="43.3829560" lon="-1.7978210">
        <ele>65.0</ele>
        <time>2022-10-29T09:45:12Z</time>
      </trkpt>
      <trkpt lat="43.3827250" lon="-1.7980800">
        <ele>64.2</ele>
        <time>2022-10-29T09:45:16Z</time>
      </trkpt>
      <trkpt lat="43.3826750" lon="-1.7981520">
        <ele>64.0</ele>
        <time>2022-10-29T09:45:17Z</time>
      </trkpt>
      <trkpt lat="43.3826320" lon="-1.7982300">
        <ele>63.4</ele>
        <time>2022-10-29T09:45:18Z</time>
      </trkpt>
      <trkpt lat="43.3825940" lon="-1.7983170">
        <ele>62.6</ele>
        <time>2022-10-29T09:45:19Z</time>
      </trkpt>
      <trkpt lat="43.3825560" lon="-1.7984070">
        <ele>62.4</ele>
        <time>2022-10-29T09:45:20Z</time>
      </trkpt>
      <trkpt lat="43.3825000" lon="-1.7984980">
        <ele>61.8</ele>
        <time>2022-10-29T09:45:21Z</time>
      </trkpt>
      <trkpt lat="43.3824450" lon="-1.7985570">
        <ele>61.6</ele>
        <time>2022-10-29T09:45:22Z</time>
      </trkpt>
      <trkpt lat="43.3823820" lon="-1.7985980">
        <ele>61.0</ele>
        <time>2022-10-29T09:45:23Z</time>
      </trkpt>
      <trkpt lat="43.3823110" lon="-1.7986290">
        <ele>61.0</ele>
        <time>2022-10-29T09:45:24Z</time>
      </trkpt>
      <trkpt lat="43.3822440" lon="-1.7986600">
        <ele>60.6</ele>
        <time>2022-10-29T09:45:25Z</time>
      </trkpt>
      <trkpt lat="43.3821840" lon="-1.7987000">
        <ele>60.4</ele>
        <time>2022-10-29T09:45:26Z</time>
      </trkpt>
      <trkpt lat="43.3821250" lon="-1.7987620">
        <ele>60.2</ele>
        <time>2022-10-29T09:45:27Z</time>
      </trkpt>
      <trkpt lat="43.3820760" lon="-1.7988440">
        <ele>60.0</ele>
        <time>2022-10-29T09:45:28Z</time>
      </trkpt>
      <trkpt lat="43.3820370" lon="-1.7989220">
        <ele>60.0</ele>
        <time>2022-10-29T09:45:29Z</time>
      </trkpt>
      <trkpt lat="43.3819910" lon="-1.7989950">
        <ele>59.6</ele>
        <time>2022-10-29T09:45:30Z</time>
      </trkpt>
      <trkpt lat="43.3818650" lon="-1.7991120">
        <ele>58.6</ele>
        <time>2022-10-29T09:45:32Z</time>
      </trkpt>
      <trkpt lat="43.3817920" lon="-1.7991410">
        <ele>58.2</ele>
        <time>2022-10-29T09:45:33Z</time>
      </trkpt>
      <trkpt lat="43.3817190" lon="-1.7991490">
        <ele>57.8</ele>
        <time>2022-10-29T09:45:34Z</time>
      </trkpt>
      <trkpt lat="43.3816490" lon="-1.7991540">
        <ele>57.6</ele>
        <time>2022-10-29T09:45:35Z</time>
      </trkpt>
      <trkpt lat="43.3815810" lon="-1.7991730">
        <ele>57.4</ele>
        <time>2022-10-29T09:45:36Z</time>
      </trkpt>
      <trkpt lat="43.3815180" lon="-1.7992120">
        <ele>57.2</ele>
        <time>2022-10-29T09:45:37Z</time>
      </trkpt>
      <trkpt lat="43.3814580" lon="-1.7992700">
        <ele>57.2</ele>
        <time>2022-10-29T09:45:38Z</time>
      </trkpt>
      <trkpt lat="43.3814050" lon="-1.7993520">
        <ele>57.0</ele>
        <time>2022-10-29T09:45:39Z</time>
      </trkpt>
      <trkpt lat="43.3813600" lon="-1.7994440">
        <ele>57.0</ele>
        <time>2022-10-29T09:45:40Z</time>
      </trkpt>
      <trkpt lat="43.3813180" lon="-1.7995470">
        <ele>56.8</ele>
        <time>2022-10-29T09:45:41Z</time>
      </trkpt>
      <trkpt lat="43.3812750" lon="-1.7996520">
        <ele>56.8</ele>
        <time>2022-10-29T09:45:42Z</time>
      </trkpt>
      <trkpt lat="43.3811860" lon="-1.7998610">
        <ele>56.2</ele>
        <time>2022-10-29T09:45:44Z</time>
      </trkpt>
      <trkpt lat="43.3811250" lon="-1.7999570">
        <ele>55.8</ele>
        <time>2022-10-29T09:45:45Z</time>
      </trkpt>
      <trkpt lat="43.3810460" lon="-1.8000290">
        <ele>55.8</ele>
        <time>2022-10-29T09:45:46Z</time>
      </trkpt>
      <trkpt lat="43.3809600" lon="-1.8000630">
        <ele>55.6</ele>
        <time>2022-10-29T09:45:47Z</time>
      </trkpt>
      <trkpt lat="43.3808740" lon="-1.8000600">
        <ele>55.4</ele>
        <time>2022-10-29T09:45:48Z</time>
      </trkpt>
      <trkpt lat="43.3807870" lon="-1.8000500">
        <ele>55.2</ele>
        <time>2022-10-29T09:45:49Z</time>
      </trkpt>
      <trkpt lat="43.3807180" lon="-1.8000530">
        <ele>55.0</ele>
        <time>2022-10-29T09:45:50Z</time>
      </trkpt>
      <trkpt lat="43.3806380" lon="-1.8000760">
        <ele>54.8</ele>
        <time>2022-10-29T09:45:51Z</time>
      </trkpt>
      <trkpt lat="43.3805640" lon="-1.8001180">
        <ele>54.8</ele>
        <time>2022-10-29T09:45:52Z</time>
      </trkpt>
      <trkpt lat="43.3804010" lon="-1.8002030">
        <ele>54.6</ele>
        <time>2022-10-29T09:45:54Z</time>
      </trkpt>
      <trkpt lat="43.3803210" lon="-1.8002140">
        <ele>54.6</ele>
        <time>2022-10-29T09:45:55Z</time>
      </trkpt>
      <trkpt lat="43.3802400" lon="-1.8002040">
        <ele>54.6</ele>
        <time>2022-10-29T09:45:56Z</time>
      </trkpt>
      <trkpt lat="43.3801630" lon="-1.8001800">
        <ele>54.4</ele>
        <time>2022-10-29T09:45:57Z</time>
      </trkpt>
      <trkpt lat="43.3800840" lon="-1.8001580">
        <ele>54.4</ele>
        <time>2022-10-29T09:45:58Z</time>
      </trkpt>
      <trkpt lat="43.3800020" lon="-1.8001340">
        <ele>54.2</ele>
        <time>2022-10-29T09:45:59Z</time>
      </trkpt>
      <trkpt lat="43.3799220" lon="-1.8001020">
        <ele>54.0</ele>
        <time>2022-10-29T09:46:00Z</time>
      </trkpt>
      <trkpt lat="43.3798580" lon="-1.8000770">
        <ele>53.6</ele>
        <time>2022-10-29T09:46:01Z</time>
      </trkpt>
      <trkpt lat="43.3796990" lon="-1.8000270">
        <ele>52.8</ele>
        <time>2022-10-29T09:46:03Z</time>
      </trkpt>
      <trkpt lat="43.3796060" lon="-1.8000080">
        <ele>52.6</ele>
        <time>2022-10-29T09:46:04Z</time>
      </trkpt>
      <trkpt lat="43.3795260" lon="-1.7999960">
        <ele>52.4</ele>
        <time>2022-10-29T09:46:05Z</time>
      </trkpt>
      <trkpt lat="43.3792740" lon="-1.7999980">
        <ele>51.4</ele>
        <time>2022-10-29T09:46:08Z</time>
      </trkpt>
      <trkpt lat="43.3791870" lon="-1.8000020">
        <ele>51.0</ele>
        <time>2022-10-29T09:46:09Z</time>
      </trkpt>
      <trkpt lat="43.3790120" lon="-1.8000090">
        <ele>50.2</ele>
        <time>2022-10-29T09:46:11Z</time>
      </trkpt>
      <trkpt lat="43.3787640" lon="-1.8000180">
        <ele>49.0</ele>
        <time>2022-10-29T09:46:14Z</time>
      </trkpt>
      <trkpt lat="43.3784960" lon="-1.8000270">
        <ele>47.8</ele>
        <time>2022-10-29T09:46:17Z</time>
      </trkpt>
      <trkpt lat="43.3783890" lon="-1.8000260">
        <ele>47.6</ele>
        <time>2022-10-29T09:46:18Z</time>
      </trkpt>
      <trkpt lat="43.3783180" lon="-1.8000230">
        <ele>47.2</ele>
        <time>2022-10-29T09:46:19Z</time>
      </trkpt>
      <trkpt lat="43.3781410" lon="-1.8000400">
        <ele>46.6</ele>
        <time>2022-10-29T09:46:21Z</time>
      </trkpt>
      <trkpt lat="43.3780590" lon="-1.8000890">
        <ele>46.4</ele>
        <time>2022-10-29T09:46:22Z</time>
      </trkpt>
      <trkpt lat="43.3779820" lon="-1.8001850">
        <ele>46.0</ele>
        <time>2022-10-29T09:46:23Z</time>
      </trkpt>
      <trkpt lat="43.3779570" lon="-1.8002740">
        <ele>45.8</ele>
        <time>2022-10-29T09:46:24Z</time>
      </trkpt>
      <trkpt lat="43.3779310" lon="-1.8003930">
        <ele>45.4</ele>
        <time>2022-10-29T09:46:25Z</time>
      </trkpt>
      <trkpt lat="43.3778490" lon="-1.8006400">
        <ele>44.8</ele>
        <time>2022-10-29T09:46:27Z</time>
      </trkpt>
      <trkpt lat="43.3777740" lon="-1.8007280">
        <ele>43.8</ele>
        <time>2022-10-29T09:46:28Z</time>
      </trkpt>
      <trkpt lat="43.3776840" lon="-1.8007930">
        <ele>43.4</ele>
        <time>2022-10-29T09:46:29Z</time>
      </trkpt>
      <trkpt lat="43.3775910" lon="-1.8008440">
        <ele>42.4</ele>
        <time>2022-10-29T09:46:30Z</time>
      </trkpt>
      <trkpt lat="43.3774980" lon="-1.8008940">
        <ele>41.8</ele>
        <time>2022-10-29T09:46:31Z</time>
      </trkpt>
      <trkpt lat="43.3774060" lon="-1.8009510">
        <ele>41.0</ele>
        <time>2022-10-29T09:46:32Z</time>
      </trkpt>
      <trkpt lat="43.3773110" lon="-1.8010070">
        <ele>40.8</ele>
        <time>2022-10-29T09:46:33Z</time>
      </trkpt>
      <trkpt lat="43.3771090" lon="-1.8010460">
        <ele>39.2</ele>
        <time>2022-10-29T09:46:35Z</time>
      </trkpt>
      <trkpt lat="43.3770250" lon="-1.8009900">
        <ele>38.8</ele>
        <time>2022-10-29T09:46:36Z</time>
      </trkpt>
      <trkpt lat="43.3769540" lon="-1.8009030">
        <ele>38.2</ele>
        <time>2022-10-29T09:46:37Z</time>
      </trkpt>
      <trkpt lat="43.3768970" lon="-1.8007900">
        <ele>37.8</ele>
        <time>2022-10-29T09:46:38Z</time>
      </trkpt>
      <trkpt lat="43.3768380" lon="-1.8006710">
        <ele>37.0</ele>
        <time>2022-10-29T09:46:39Z</time>
      </trkpt>
      <trkpt lat="43.3767710" lon="-1.8005520">
        <ele>36.8</ele>
        <time>2022-10-29T09:46:40Z</time>
      </trkpt>
      <trkpt lat="43.3767030" lon="-1.8004380">
        <ele>36.4</ele>
        <time>2022-10-29T09:46:41Z</time>
      </trkpt>
      <trkpt lat="43.3766260" lon="-1.8003470">
        <ele>36.2</ele>
        <time>2022-10-29T09:46:42Z</time>
      </trkpt>
      <trkpt lat="43.3765320" lon="-1.8002920">
        <ele>36.0</ele>
        <time>2022-10-29T09:46:43Z</time>
      </trkpt>
      <trkpt lat="43.3764270" lon="-1.8002690">
        <ele>34.8</ele>
        <time>2022-10-29T09:46:44Z</time>
      </trkpt>
      <trkpt lat="43.3763170" lon="-1.8002640">
        <ele>34.4</ele>
        <time>2022-10-29T09:46:45Z</time>
      </trkpt>
      <trkpt lat="43.3762080" lon="-1.8002570">
        <ele>33.2</ele>
        <time>2022-10-29T09:46:46Z</time>
      </trkpt>
      <trkpt lat="43.3760990" lon="-1.8002540">
        <ele>33.0</ele>
        <time>2022-10-29T09:46:47Z</time>
      </trkpt>
      <trkpt lat="43.3759940" lon="-1.8002400">
        <ele>32.2</ele>
        <time>2022-10-29T09:46:48Z</time>
      </trkpt>
      <trkpt lat="43.3758950" lon="-1.8001980">
        <ele>31.8</ele>
        <time>2022-10-29T09:46:49Z</time>
      </trkpt>
      <trkpt lat="43.3758020" lon="-1.8001350">
        <ele>30.6</ele>
        <time>2022-10-29T09:46:50Z</time>
      </trkpt>
      <trkpt lat="43.3757270" lon="-1.8000470">
        <ele>30.2</ele>
        <time>2022-10-29T09:46:51Z</time>
      </trkpt>
      <trkpt lat="43.3756740" lon="-1.7999280">
        <ele>29.6</ele>
        <time>2022-10-29T09:46:52Z</time>
      </trkpt>
      <trkpt lat="43.3756670" lon="-1.7997850">
        <ele>28.6</ele>
        <time>2022-10-29T09:46:53Z</time>
      </trkpt>
      <trkpt lat="43.3756700" lon="-1.7996350">
        <ele>28.2</ele>
        <time>2022-10-29T09:46:54Z</time>
      </trkpt>
      <trkpt lat="43.3756530" lon="-1.7993340">
        <ele>26.8</ele>
        <time>2022-10-29T09:46:56Z</time>
      </trkpt>
      <trkpt lat="43.3756290" lon="-1.7991800">
        <ele>26.2</ele>
        <time>2022-10-29T09:46:57Z</time>
      </trkpt>
      <trkpt lat="43.3755900" lon="-1.7990320">
        <ele>26.0</ele>
        <time>2022-10-29T09:46:58Z</time>
      </trkpt>
      <trkpt lat="43.3755450" lon="-1.7988900">
        <ele>25.2</ele>
        <time>2022-10-29T09:46:59Z</time>
      </trkpt>
      <trkpt lat="43.3754960" lon="-1.7987500">
        <ele>24.8</ele>
        <time>2022-10-29T09:47:00Z</time>
      </trkpt>
      <trkpt lat="43.3754480" lon="-1.7986160">
        <ele>24.4</ele>
        <time>2022-10-29T09:47:01Z</time>
      </trkpt>
      <trkpt lat="43.3754010" lon="-1.7984830">
        <ele>24.0</ele>
        <time>2022-10-29T09:47:02Z</time>
      </trkpt>
      <trkpt lat="43.3753560" lon="-1.7983540">
        <ele>23.4</ele>
        <time>2022-10-29T09:47:03Z</time>
      </trkpt>
      <trkpt lat="43.3753110" lon="-1.7982390">
        <ele>23.0</ele>
        <time>2022-10-29T09:47:04Z</time>
      </trkpt>
      <trkpt lat="43.3752560" lon="-1.7981520">
        <ele>22.6</ele>
        <time>2022-10-29T09:47:05Z</time>
      </trkpt>
      <trkpt lat="43.3752060" lon="-1.7980900">
        <ele>21.6</ele>
        <time>2022-10-29T09:47:06Z</time>
      </trkpt>
      <trkpt lat="43.3751760" lon="-1.7980220">
        <ele>21.0</ele>
        <time>2022-10-29T09:47:07Z</time>
      </trkpt>
      <trkpt lat="43.3751570" lon="-1.7979450">
        <ele>20.0</ele>
        <time>2022-10-29T09:47:08Z</time>
      </trkpt>
      <trkpt lat="43.3751400" lon="-1.7978600">
        <ele>19.2</ele>
        <time>2022-10-29T09:47:09Z</time>
      </trkpt>
      <trkpt lat="43.3751240" lon="-1.7977730">
        <ele>18.0</ele>
        <time>2022-10-29T09:47:10Z</time>
      </trkpt>
      <trkpt lat="43.3751110" lon="-1.7976850">
        <ele>17.0</ele>
        <time>2022-10-29T09:47:11Z</time>
      </trkpt>
      <trkpt lat="43.3750940" lon="-1.7975900">
        <ele>16.2</ele>
        <time>2022-10-29T09:47:12Z</time>
      </trkpt>
      <trkpt lat="43.3750730" lon="-1.7974930">
        <ele>15.4</ele>
        <time>2022-10-29T09:47:13Z</time>
      </trkpt>
      <trkpt lat="43.3750380" lon="-1.7974050">
        <ele>15.0</ele>
        <time>2022-10-29T09:47:14Z</time>
      </trkpt>
      <trkpt lat="43.3749870" lon="-1.7973300">
        <ele>14.4</ele>
        <time>2022-10-29T09:47:15Z</time>
      </trkpt>
      <trkpt lat="43.3749360" lon="-1.7972620">
        <ele>14.0</ele>
        <time>2022-10-29T09:47:16Z</time>
      </trkpt>
      <trkpt lat="43.3748920" lon="-1.7971850">
        <ele>13.6</ele>
        <time>2022-10-29T09:47:17Z</time>
      </trkpt>
      <trkpt lat="43.3747730" lon="-1.7969530">
        <ele>13.0</ele>
        <time>2022-10-29T09:47:20Z</time>
      </trkpt>
      <trkpt lat="43.3747310" lon="-1.7968800">
        <ele>12.8</ele>
        <time>2022-10-29T09:47:21Z</time>
      </trkpt>
      <trkpt lat="43.3746890" lon="-1.7968100">
        <ele>12.8</ele>
        <time>2022-10-29T09:47:22Z</time>
      </trkpt>
      <trkpt lat="43.3746000" lon="-1.7966760">
        <ele>12.6</ele>
        <time>2022-10-29T09:47:24Z</time>
      </trkpt>
      <trkpt lat="43.3745500" lon="-1.7966180">
        <ele>12.6</ele>
        <time>2022-10-29T09:47:25Z</time>
      </trkpt>
      <trkpt lat="43.3744940" lon="-1.7965680">
        <ele>13.0</ele>
        <time>2022-10-29T09:47:26Z</time>
      </trkpt>
      <trkpt lat="43.3744350" lon="-1.7965300">
        <ele>13.0</ele>
        <time>2022-10-29T09:47:27Z</time>
      </trkpt>
      <trkpt lat="43.3743730" lon="-1.7965000">
        <ele>13.0</ele>
        <time>2022-10-29T09:47:28Z</time>
      </trkpt>
      <trkpt lat="43.3742490" lon="-1.7964630">
        <ele>13.4</ele>
        <time>2022-10-29T09:47:30Z</time>
      </trkpt>
      <trkpt lat="43.3740640" lon="-1.7964400">
        <ele>13.6</ele>
        <time>2022-10-29T09:47:33Z</time>
      </trkpt>
      <trkpt lat="43.3739470" lon="-1.7964230">
        <ele>13.6</ele>
        <time>2022-10-29T09:47:35Z</time>
      </trkpt>
      <trkpt lat="43.3738890" lon="-1.7964100">
        <ele>13.6</ele>
        <time>2022-10-29T09:47:36Z</time>
      </trkpt>
      <trkpt lat="43.3738210" lon="-1.7963950">
        <ele>13.6</ele>
        <time>2022-10-29T09:47:37Z</time>
      </trkpt>
      <trkpt lat="43.3737640" lon="-1.7963780">
        <ele>13.6</ele>
        <time>2022-10-29T09:47:38Z</time>
      </trkpt>
      <trkpt lat="43.3737190" lon="-1.7963610">
        <ele>13.4</ele>
        <time>2022-10-29T09:47:39Z</time>
      </trkpt>
      <trkpt lat="43.3736620" lon="-1.7963340">
        <ele>13.4</ele>
        <time>2022-10-29T09:47:40Z</time>
      </trkpt>
      <trkpt lat="43.3735950" lon="-1.7962960">
        <ele>13.2</ele>
        <time>2022-10-29T09:47:41Z</time>
      </trkpt>
      <trkpt lat="43.3735420" lon="-1.7962630">
        <ele>13.2</ele>
        <time>2022-10-29T09:47:42Z</time>
      </trkpt>
      <trkpt lat="43.3733090" lon="-1.7960640">
        <ele>13.0</ele>
        <time>2022-10-29T09:47:47Z</time>
      </trkpt>
      <trkpt lat="43.3732650" lon="-1.7960140">
        <ele>12.8</ele>
        <time>2022-10-29T09:47:48Z</time>
      </trkpt>
      <trkpt lat="43.3731380" lon="-1.7958610">
        <ele>12.8</ele>
        <time>2022-10-29T09:47:51Z</time>
      </trkpt>
      <trkpt lat="43.3730850" lon="-1.7958370">
        <ele>12.8</ele>
        <time>2022-10-29T09:47:52Z</time>
      </trkpt>
      <trkpt lat="43.3730310" lon="-1.7958490">
        <ele>12.6</ele>
        <time>2022-10-29T09:47:53Z</time>
      </trkpt>
      <trkpt lat="43.3729860" lon="-1.7958860">
        <ele>12.4</ele>
        <time>2022-10-29T09:47:54Z</time>
      </trkpt>
      <trkpt lat="43.3729490" lon="-1.7959310">
        <ele>12.4</ele>
        <time>2022-10-29T09:47:55Z</time>
      </trkpt>
      <trkpt lat="43.3729150" lon="-1.7959750">
        <ele>12.4</ele>
        <time>2022-10-29T09:47:56Z</time>
      </trkpt>
      <trkpt lat="43.3728740" lon="-1.7960210">
        <ele>12.2</ele>
        <time>2022-10-29T09:47:57Z</time>
      </trkpt>
      <trkpt lat="43.3728440" lon="-1.7960550">
        <ele>12.2</ele>
        <time>2022-10-29T09:47:58Z</time>
      </trkpt>
      <trkpt lat="43.3728200" lon="-1.7960860">
        <ele>12.2</ele>
        <time>2022-10-29T09:47:59Z</time>
      </trkpt>
      <trkpt lat="43.3727820" lon="-1.7961270">
        <ele>12.0</ele>
        <time>2022-10-29T09:48:00Z</time>
      </trkpt>
      <trkpt lat="43.3727470" lon="-1.7961570">
        <ele>12.0</ele>
        <time>2022-10-29T09:48:01Z</time>
      </trkpt>
      <trkpt lat="43.3726110" lon="-1.7962470">
        <ele>12.4</ele>
        <time>2022-10-29T09:48:05Z</time>
      </trkpt>
      <trkpt lat="43.3725380" lon="-1.7962860">
        <ele>12.8</ele>
        <time>2022-10-29T09:48:07Z</time>
      </trkpt>
      <trkpt lat="43.3724990" lon="-1.7963100">
        <ele>13.0</ele>
        <time>2022-10-29T09:48:08Z</time>
      </trkpt>
      <trkpt lat="43.3724570" lon="-1.7963380">
        <ele>13.2</ele>
        <time>2022-10-29T09:48:09Z</time>
      </trkpt>
      <trkpt lat="43.3723300" lon="-1.7964190">
        <ele>13.6</ele>
        <time>2022-10-29T09:48:12Z</time>
      </trkpt>
      <trkpt lat="43.3722860" lon="-1.7964470">
        <ele>14.0</ele>
        <time>2022-10-29T09:48:13Z</time>
      </trkpt>
      <trkpt lat="43.3721190" lon="-1.7965690">
        <ele>15.0</ele>
        <time>2022-10-29T09:48:17Z</time>
      </trkpt>
      <trkpt lat="43.3720730" lon="-1.7966060">
        <ele>15.4</ele>
        <time>2022-10-29T09:48:18Z</time>
      </trkpt>
      <trkpt lat="43.3718990" lon="-1.7967590">
        <ele>15.6</ele>
        <time>2022-10-29T09:48:22Z</time>
      </trkpt>
      <trkpt lat="43.3718570" lon="-1.7968050">
        <ele>15.6</ele>
        <time>2022-10-29T09:48:23Z</time>
      </trkpt>
      <trkpt lat="43.3718140" lon="-1.7968560">
        <ele>15.8</ele>
        <time>2022-10-29T09:48:24Z</time>
      </trkpt>
      <trkpt lat="43.3717700" lon="-1.7969070">
        <ele>15.8</ele>
        <time>2022-10-29T09:48:25Z</time>
      </trkpt>
      <trkpt lat="43.3717260" lon="-1.7969600">
        <ele>15.8</ele>
        <time>2022-10-29T09:48:26Z</time>
      </trkpt>
      <trkpt lat="43.3716830" lon="-1.7970110">
        <ele>15.8</ele>
        <time>2022-10-29T09:48:27Z</time>
      </trkpt>
      <trkpt lat="43.3716420" lon="-1.7970640">
        <ele>15.8</ele>
        <time>2022-10-29T09:48:28Z</time>
      </trkpt>
      <trkpt lat="43.3716000" lon="-1.7971160">
        <ele>15.8</ele>
        <time>2022-10-29T09:48:29Z</time>
      </trkpt>
      <trkpt lat="43.3715550" lon="-1.7971660">
        <ele>15.8</ele>
        <time>2022-10-29T09:48:30Z</time>
      </trkpt>
      <trkpt lat="43.3715090" lon="-1.7972180">
        <ele>15.8</ele>
        <time>2022-10-29T09:48:31Z</time>
      </trkpt>
      <trkpt lat="43.3714640" lon="-1.7972700">
        <ele>15.8</ele>
        <time>2022-10-29T09:48:32Z</time>
      </trkpt>
      <trkpt lat="43.3714190" lon="-1.7973220">
        <ele>16.0</ele>
        <time>2022-10-29T09:48:33Z</time>
      </trkpt>
      <trkpt lat="43.3713740" lon="-1.7973760">
        <ele>16.0</ele>
        <time>2022-10-29T09:48:34Z</time>
      </trkpt>
      <trkpt lat="43.3713280" lon="-1.7974330">
        <ele>16.2</ele>
        <time>2022-10-29T09:48:35Z</time>
      </trkpt>
      <trkpt lat="43.3712830" lon="-1.7974820">
        <ele>16.4</ele>
        <time>2022-10-29T09:48:36Z</time>
      </trkpt>
      <trkpt lat="43.3712350" lon="-1.7975260">
        <ele>16.4</ele>
        <time>2022-10-29T09:48:37Z</time>
      </trkpt>
      <trkpt lat="43.3710820" lon="-1.7976520">
        <ele>16.6</ele>
        <time>2022-10-29T09:48:40Z</time>
      </trkpt>
      <trkpt lat="43.3706960" lon="-1.7979100">
        <ele>16.6</ele>
        <time>2022-10-29T09:48:47Z</time>
      </trkpt>
      <trkpt lat="43.3704380" lon="-1.7980470">
        <ele>17.0</ele>
        <time>2022-10-29T09:48:52Z</time>
      </trkpt>
      <trkpt lat="43.3703850" lon="-1.7980680">
        <ele>17.0</ele>
        <time>2022-10-29T09:48:53Z</time>
      </trkpt>
      <trkpt lat="43.3703330" lon="-1.7980850">
        <ele>17.2</ele>
        <time>2022-10-29T09:48:54Z</time>
      </trkpt>
      <trkpt lat="43.3702310" lon="-1.7981140">
        <ele>17.2</ele>
        <time>2022-10-29T09:48:56Z</time>
      </trkpt>
      <trkpt lat="43.3701810" lon="-1.7981280">
        <ele>17.2</ele>
        <time>2022-10-29T09:48:57Z</time>
      </trkpt>
      <trkpt lat="43.3701290" lon="-1.7981420">
        <ele>17.4</ele>
        <time>2022-10-29T09:48:58Z</time>
      </trkpt>
      <trkpt lat="43.3700780" lon="-1.7981530">
        <ele>17.4</ele>
        <time>2022-10-29T09:48:59Z</time>
      </trkpt>
      <trkpt lat="43.3699510" lon="-1.7981760">
        <ele>17.6</ele>
        <time>2022-10-29T09:49:02Z</time>
      </trkpt>
      <trkpt lat="43.3699100" lon="-1.7981810">
        <ele>17.6</ele>
        <time>2022-10-29T09:49:03Z</time>
      </trkpt>
      <trkpt lat="43.3698680" lon="-1.7981860">
        <ele>17.6</ele>
        <time>2022-10-29T09:49:04Z</time>
      </trkpt>
      <trkpt lat="43.3698270" lon="-1.7981910">
        <ele>17.8</ele>
        <time>2022-10-29T09:49:05Z</time>
      </trkpt>
      <trkpt lat="43.3697870" lon="-1.7981950">
        <ele>17.8</ele>
        <time>2022-10-29T09:49:06Z</time>
      </trkpt>
      <trkpt lat="43.3696700" lon="-1.7981940">
        <ele>18.2</ele>
        <time>2022-10-29T09:49:09Z</time>
      </trkpt>
      <trkpt lat="43.3696330" lon="-1.7981910">
        <ele>18.2</ele>
        <time>2022-10-29T09:49:10Z</time>
      </trkpt>
      <trkpt lat="43.3695970" lon="-1.7981890">
        <ele>18.4</ele>
        <time>2022-10-29T09:49:11Z</time>
      </trkpt>
      <trkpt lat="43.3695610" lon="-1.7981850">
        <ele>18.6</ele>
        <time>2022-10-29T09:49:12Z</time>
      </trkpt>
      <trkpt lat="43.3695260" lon="-1.7981770">
        <ele>19.0</ele>
        <time>2022-10-29T09:49:13Z</time>
      </trkpt>
      <trkpt lat="43.3694940" lon="-1.7981680">
        <ele>19.2</ele>
        <time>2022-10-29T09:49:14Z</time>
      </trkpt>
      <trkpt lat="43.3694590" lon="-1.7981590">
        <ele>19.6</ele>
        <time>2022-10-29T09:49:15Z</time>
      </trkpt>
      <trkpt lat="43.3694250" lon="-1.7981590">
        <ele>20.0</ele>
        <time>2022-10-29T09:49:16Z</time>
      </trkpt>
      <trkpt lat="43.3693920" lon="-1.7981710">
        <ele>20.0</ele>
        <time>2022-10-29T09:49:17Z</time>
      </trkpt>
      <trkpt lat="43.3693640" lon="-1.7981970">
        <ele>20.2</ele>
        <time>2022-10-29T09:49:18Z</time>
      </trkpt>
      <trkpt lat="43.3693370" lon="-1.7982360">
        <ele>20.4</ele>
        <time>2022-10-29T09:49:19Z</time>
      </trkpt>
      <trkpt lat="43.3693150" lon="-1.7982790">
        <ele>20.6</ele>
        <time>2022-10-29T09:49:20Z</time>
      </trkpt>
      <trkpt lat="43.3692940" lon="-1.7983230">
        <ele>21.0</ele>
        <time>2022-10-29T09:49:21Z</time>
      </trkpt>
      <trkpt lat="43.3692740" lon="-1.7983710">
        <ele>21.4</ele>
        <time>2022-10-29T09:49:22Z</time>
      </trkpt>
      <trkpt lat="43.3692540" lon="-1.7984210">
        <ele>21.6</ele>
        <time>2022-10-29T09:49:23Z</time>
      </trkpt>
      <trkpt lat="43.3692360" lon="-1.7984700">
        <ele>21.8</ele>
        <time>2022-10-29T09:49:24Z</time>
      </trkpt>
      <trkpt lat="43.3692190" lon="-1.7985210">
        <ele>22.0</ele>
        <time>2022-10-29T09:49:25Z</time>
      </trkpt>
      <trkpt lat="43.3692000" lon="-1.7985710">
        <ele>22.0</ele>
        <time>2022-10-29T09:49:26Z</time>
      </trkpt>
      <trkpt lat="43.3691810" lon="-1.7986220">
        <ele>22.4</ele>
        <time>2022-10-29T09:49:27Z</time>
      </trkpt>
      <trkpt lat="43.3691600" lon="-1.7986780">
        <ele>22.6</ele>
        <time>2022-10-29T09:49:28Z</time>
      </trkpt>
      <trkpt lat="43.3691420" lon="-1.7987340">
        <ele>22.8</ele>
        <time>2022-10-29T09:49:29Z</time>
      </trkpt>
      <trkpt lat="43.3691230" lon="-1.7987900">
        <ele>22.8</ele>
        <time>2022-10-29T09:49:30Z</time>
      </trkpt>
      <trkpt lat="43.3691050" lon="-1.7988450">
        <ele>23.0</ele>
        <time>2022-10-29T09:49:31Z</time>
      </trkpt>
      <trkpt lat="43.3690860" lon="-1.7989040">
        <ele>23.0</ele>
        <time>2022-10-29T09:49:32Z</time>
      </trkpt>
      <trkpt lat="43.3690640" lon="-1.7989590">
        <ele>23.2</ele>
        <time>2022-10-29T09:49:33Z</time>
      </trkpt>
      <trkpt lat="43.3690390" lon="-1.7990120">
        <ele>23.4</ele>
        <time>2022-10-29T09:49:34Z</time>
      </trkpt>
      <trkpt lat="43.3690120" lon="-1.7990640">
        <ele>23.4</ele>
        <time>2022-10-29T09:49:35Z</time>
      </trkpt>
      <trkpt lat="43.3689860" lon="-1.7991170">
        <ele>23.8</ele>
        <time>2022-10-29T09:49:36Z</time>
      </trkpt>
      <trkpt lat="43.3689610" lon="-1.7991690">
        <ele>23.8</ele>
        <time>2022-10-29T09:49:37Z</time>
      </trkpt>
      <trkpt lat="43.3689350" lon="-1.7992220">
        <ele>24.0</ele>
        <time>2022-10-29T09:49:38Z</time>
      </trkpt>
      <trkpt lat="43.3689080" lon="-1.7992790">
        <ele>24.2</ele>
        <time>2022-10-29T09:49:39Z</time>
      </trkpt>
      <trkpt lat="43.3688810" lon="-1.7993340">
        <ele>24.4</ele>
        <time>2022-10-29T09:49:40Z</time>
      </trkpt>
      <trkpt lat="43.3688550" lon="-1.7993840">
        <ele>24.6</ele>
        <time>2022-10-29T09:49:41Z</time>
      </trkpt>
      <trkpt lat="43.3688310" lon="-1.7994390">
        <ele>24.8</ele>
        <time>2022-10-29T09:49:42Z</time>
      </trkpt>
      <trkpt lat="43.3688140" lon="-1.7994950">
        <ele>25.0</ele>
        <time>2022-10-29T09:49:43Z</time>
      </trkpt>
      <trkpt lat="43.3688060" lon="-1.7995560">
        <ele>25.2</ele>
        <time>2022-10-29T09:49:44Z</time>
      </trkpt>
      <trkpt lat="43.3688100" lon="-1.7996170">
        <ele>25.4</ele>
        <time>2022-10-29T09:49:45Z</time>
      </trkpt>
      <trkpt lat="43.3688220" lon="-1.7996800">
        <ele>25.4</ele>
        <time>2022-10-29T09:49:46Z</time>
      </trkpt>
      <trkpt lat="43.3688310" lon="-1.7997470">
        <ele>25.6</ele>
        <time>2022-10-29T09:49:47Z</time>
      </trkpt>
      <trkpt lat="43.3688270" lon="-1.7998150">
        <ele>25.6</ele>
        <time>2022-10-29T09:49:48Z</time>
      </trkpt>
      <trkpt lat="43.3688080" lon="-1.7998790">
        <ele>26.0</ele>
        <time>2022-10-29T09:49:49Z</time>
      </trkpt>
      <trkpt lat="43.3687750" lon="-1.7999310">
        <ele>26.0</ele>
        <time>2022-10-29T09:49:50Z</time>
      </trkpt>
      <trkpt lat="43.3687310" lon="-1.7999650">
        <ele>26.2</ele>
        <time>2022-10-29T09:49:51Z</time>
      </trkpt>
      <trkpt lat="43.3686830" lon="-1.7999880">
        <ele>26.4</ele>
        <time>2022-10-29T09:49:52Z</time>
      </trkpt>
      <trkpt lat="43.3686340" lon="-1.8000090">
        <ele>26.4</ele>
        <time>2022-10-29T09:49:53Z</time>
      </trkpt>
      <trkpt lat="43.3685860" lon="-1.8000380">
        <ele>27.0</ele>
        <time>2022-10-29T09:49:54Z</time>
      </trkpt>
      <trkpt lat="43.3685400" lon="-1.8000800">
        <ele>27.0</ele>
        <time>2022-10-29T09:49:55Z</time>
      </trkpt>
      <trkpt lat="43.3684960" lon="-1.8001260">
        <ele>27.4</ele>
        <time>2022-10-29T09:49:56Z</time>
      </trkpt>
      <trkpt lat="43.3684500" lon="-1.8001700">
        <ele>27.4</ele>
        <time>2022-10-29T09:49:57Z</time>
      </trkpt>
      <trkpt lat="43.3684060" lon="-1.8002130">
        <ele>27.6</ele>
        <time>2022-10-29T09:49:58Z</time>
      </trkpt>
      <trkpt lat="43.3683620" lon="-1.8002580">
        <ele>27.8</ele>
        <time>2022-10-29T09:49:59Z</time>
      </trkpt>
      <trkpt lat="43.3683170" lon="-1.8003060">
        <ele>27.8</ele>
        <time>2022-10-29T09:50:00Z</time>
      </trkpt>
      <trkpt lat="43.3682720" lon="-1.8003560">
        <ele>28.0</ele>
        <time>2022-10-29T09:50:01Z</time>
      </trkpt>
      <trkpt lat="43.3682300" lon="-1.8004010">
        <ele>28.0</ele>
        <time>2022-10-29T09:50:02Z</time>
      </trkpt>
      <trkpt lat="43.3681880" lon="-1.8004460">
        <ele>28.2</ele>
        <time>2022-10-29T09:50:03Z</time>
      </trkpt>
      <trkpt lat="43.3681450" lon="-1.8004910">
        <ele>28.2</ele>
        <time>2022-10-29T09:50:04Z</time>
      </trkpt>
      <trkpt lat="43.3681030" lon="-1.8005350">
        <ele>28.2</ele>
        <time>2022-10-29T09:50:05Z</time>
      </trkpt>
      <trkpt lat="43.3680600" lon="-1.8005790">
        <ele>28.4</ele>
        <time>2022-10-29T09:50:06Z</time>
      </trkpt>
      <trkpt lat="43.3680170" lon="-1.8006230">
        <ele>28.4</ele>
        <time>2022-10-29T09:50:07Z</time>
      </trkpt>
      <trkpt lat="43.3679740" lon="-1.8006650">
        <ele>28.4</ele>
        <time>2022-10-29T09:50:08Z</time>
      </trkpt>
      <trkpt lat="43.3679310" lon="-1.8007080">
        <ele>28.4</ele>
        <time>2022-10-29T09:50:09Z</time>
      </trkpt>
      <trkpt lat="43.3678860" lon="-1.8007580">
        <ele>28.4</ele>
        <time>2022-10-29T09:50:10Z</time>
      </trkpt>
      <trkpt lat="43.3678390" lon="-1.8008100">
        <ele>28.6</ele>
        <time>2022-10-29T09:50:11Z</time>
      </trkpt>
      <trkpt lat="43.3677860" lon="-1.8008620">
        <ele>28.6</ele>
        <time>2022-10-29T09:50:12Z</time>
      </trkpt>
      <trkpt lat="43.3677320" lon="-1.8009190">
        <ele>28.6</ele>
        <time>2022-10-29T09:50:13Z</time>
      </trkpt>
      <trkpt lat="43.3676750" lon="-1.8009780">
        <ele>28.4</ele>
        <time>2022-10-29T09:50:14Z</time>
      </trkpt>
      <trkpt lat="43.3676160" lon="-1.8010350">
        <ele>28.4</ele>
        <time>2022-10-29T09:50:15Z</time>
      </trkpt>
      <trkpt lat="43.3675540" lon="-1.8010940">
        <ele>28.2</ele>
        <time>2022-10-29T09:50:16Z</time>
      </trkpt>
      <trkpt lat="43.3674910" lon="-1.8011550">
        <ele>28.2</ele>
        <time>2022-10-29T09:50:17Z</time>
      </trkpt>
      <trkpt lat="43.3674310" lon="-1.8012220">
        <ele>28.0</ele>
        <time>2022-10-29T09:50:18Z</time>
      </trkpt>
      <trkpt lat="43.3672390" lon="-1.8014340">
        <ele>27.4</ele>
        <time>2022-10-29T09:50:21Z</time>
      </trkpt>
      <trkpt lat="43.3671000" lon="-1.8015650">
        <ele>27.0</ele>
        <time>2022-10-29T09:50:23Z</time>
      </trkpt>
      <trkpt lat="43.3670270" lon="-1.8016270">
        <ele>27.0</ele>
        <time>2022-10-29T09:50:24Z</time>
      </trkpt>
      <trkpt lat="43.3668690" lon="-1.8017350">
        <ele>26.2</ele>
        <time>2022-10-29T09:50:26Z</time>
      </trkpt>
      <trkpt lat="43.3667810" lon="-1.8017800">
        <ele>26.0</ele>
        <time>2022-10-29T09:50:27Z</time>
      </trkpt>
      <trkpt lat="43.3664270" lon="-1.8019790">
        <ele>25.0</ele>
        <time>2022-10-29T09:50:31Z</time>
      </trkpt>
      <trkpt lat="43.3663350" lon="-1.8020210">
        <ele>24.6</ele>
        <time>2022-10-29T09:50:32Z</time>
      </trkpt>
      <trkpt lat="43.3661470" lon="-1.8020250">
        <ele>23.8</ele>
        <time>2022-10-29T09:50:34Z</time>
      </trkpt>
      <trkpt lat="43.3660600" lon="-1.8020070">
        <ele>23.6</ele>
        <time>2022-10-29T09:50:35Z</time>
      </trkpt>
      <trkpt lat="43.3659720" lon="-1.8020000">
        <ele>23.4</ele>
        <time>2022-10-29T09:50:36Z</time>
      </trkpt>
      <trkpt lat="43.3658870" lon="-1.8020050">
        <ele>23.4</ele>
        <time>2022-10-29T09:50:37Z</time>
      </trkpt>
      <trkpt lat="43.3658050" lon="-1.8020150">
        <ele>23.0</ele>
        <time>2022-10-29T09:50:38Z</time>
      </trkpt>
      <trkpt lat="43.3657240" lon="-1.8020230">
        <ele>23.0</ele>
        <time>2022-10-29T09:50:39Z</time>
      </trkpt>
      <trkpt lat="43.3656440" lon="-1.8020270">
        <ele>22.8</ele>
        <time>2022-10-29T09:50:40Z</time>
      </trkpt>
      <trkpt lat="43.3655660" lon="-1.8020300">
        <ele>22.8</ele>
        <time>2022-10-29T09:50:41Z</time>
      </trkpt>
      <trkpt lat="43.3654900" lon="-1.8020310">
        <ele>22.6</ele>
        <time>2022-10-29T09:50:42Z</time>
      </trkpt>
      <trkpt lat="43.3654150" lon="-1.8020260">
        <ele>22.4</ele>
        <time>2022-10-29T09:50:43Z</time>
      </trkpt>
      <trkpt lat="43.3653380" lon="-1.8020200">
        <ele>22.4</ele>
        <time>2022-10-29T09:50:44Z</time>
      </trkpt>
      <trkpt lat="43.3651060" lon="-1.8019830">
        <ele>22.0</ele>
        <time>2022-10-29T09:50:47Z</time>
      </trkpt>
      <trkpt lat="43.3650300" lon="-1.8019670">
        <ele>21.8</ele>
        <time>2022-10-29T09:50:48Z</time>
      </trkpt>
      <trkpt lat="43.3648720" lon="-1.8019200">
        <ele>21.2</ele>
        <time>2022-10-29T09:50:50Z</time>
      </trkpt>
      <trkpt lat="43.3647920" lon="-1.8018900">
        <ele>21.0</ele>
        <time>2022-10-29T09:50:51Z</time>
      </trkpt>
      <trkpt lat="43.3646320" lon="-1.8018220">
        <ele>20.2</ele>
        <time>2022-10-29T09:50:53Z</time>
      </trkpt>
      <trkpt lat="43.3644740" lon="-1.8017390">
        <ele>19.8</ele>
        <time>2022-10-29T09:50:55Z</time>
      </trkpt>
      <trkpt lat="43.3643220" lon="-1.8016450">
        <ele>19.4</ele>
        <time>2022-10-29T09:50:57Z</time>
      </trkpt>
      <trkpt lat="43.3641780" lon="-1.8015350">
        <ele>19.0</ele>
        <time>2022-10-29T09:50:59Z</time>
      </trkpt>
      <trkpt lat="43.3641090" lon="-1.8014790">
        <ele>18.8</ele>
        <time>2022-10-29T09:51:00Z</time>
      </trkpt>
      <trkpt lat="43.3640400" lon="-1.8014200">
        <ele>18.6</ele>
        <time>2022-10-29T09:51:01Z</time>
      </trkpt>
      <trkpt lat="43.3638440" lon="-1.8012270">
        <ele>18.2</ele>
        <time>2022-10-29T09:51:04Z</time>
      </trkpt>
      <trkpt lat="43.3637840" lon="-1.8011580">
        <ele>17.8</ele>
        <time>2022-10-29T09:51:05Z</time>
      </trkpt>
      <trkpt lat="43.3637240" lon="-1.8010880">
        <ele>17.6</ele>
        <time>2022-10-29T09:51:06Z</time>
      </trkpt>
      <trkpt lat="43.3636660" lon="-1.8010160">
        <ele>17.4</ele>
        <time>2022-10-29T09:51:07Z</time>
      </trkpt>
      <trkpt lat="43.3636110" lon="-1.8009420">
        <ele>17.2</ele>
        <time>2022-10-29T09:51:08Z</time>
      </trkpt>
      <trkpt lat="43.3635090" lon="-1.8007930">
        <ele>16.8</ele>
        <time>2022-10-29T09:51:10Z</time>
      </trkpt>
      <trkpt lat="43.3634130" lon="-1.8006420">
        <ele>16.0</ele>
        <time>2022-10-29T09:51:12Z</time>
      </trkpt>
      <trkpt lat="43.3633590" lon="-1.8005510">
        <ele>15.6</ele>
        <time>2022-10-29T09:51:13Z</time>
      </trkpt>
      <trkpt lat="43.3633240" lon="-1.8004900">
        <ele>15.2</ele>
        <time>2022-10-29T09:51:14Z</time>
      </trkpt>
      <trkpt lat="43.3632810" lon="-1.8004130">
        <ele>15.2</ele>
        <time>2022-10-29T09:51:15Z</time>
      </trkpt>
      <trkpt lat="43.3632410" lon="-1.8003390">
        <ele>15.0</ele>
        <time>2022-10-29T09:51:16Z</time>
      </trkpt>
      <trkpt lat="43.3632030" lon="-1.8002640">
        <ele>14.8</ele>
        <time>2022-10-29T09:51:17Z</time>
      </trkpt>
      <trkpt lat="43.3631640" lon="-1.8001910">
        <ele>14.4</ele>
        <time>2022-10-29T09:51:18Z</time>
      </trkpt>
      <trkpt lat="43.3631190" lon="-1.8001250">
        <ele>14.0</ele>
        <time>2022-10-29T09:51:19Z</time>
      </trkpt>
      <trkpt lat="43.3630690" lon="-1.8000690">
        <ele>13.8</ele>
        <time>2022-10-29T09:51:20Z</time>
      </trkpt>
      <trkpt lat="43.3630130" lon="-1.8000220">
        <ele>13.4</ele>
        <time>2022-10-29T09:51:21Z</time>
      </trkpt>
      <trkpt lat="43.3629520" lon="-1.7999840">
        <ele>13.4</ele>
        <time>2022-10-29T09:51:22Z</time>
      </trkpt>
      <trkpt lat="43.3628860" lon="-1.7999540">
        <ele>13.0</ele>
        <time>2022-10-29T09:51:23Z</time>
      </trkpt>
      <trkpt lat="43.3628210" lon="-1.7999220">
        <ele>13.0</ele>
        <time>2022-10-29T09:51:24Z</time>
      </trkpt>
      <trkpt lat="43.3627110" lon="-1.7998170">
        <ele>12.2</ele>
        <time>2022-10-29T09:51:26Z</time>
      </trkpt>
      <trkpt lat="43.3626740" lon="-1.7997420">
        <ele>12.2</ele>
        <time>2022-10-29T09:51:27Z</time>
      </trkpt>
      <trkpt lat="43.3626490" lon="-1.7996570">
        <ele>12.0</ele>
        <time>2022-10-29T09:51:28Z</time>
      </trkpt>
      <trkpt lat="43.3626310" lon="-1.7995690">
        <ele>11.8</ele>
        <time>2022-10-29T09:51:29Z</time>
      </trkpt>
      <trkpt lat="43.3626110" lon="-1.7994830">
        <ele>11.6</ele>
        <time>2022-10-29T09:51:30Z</time>
      </trkpt>
      <trkpt lat="43.3625860" lon="-1.7993980">
        <ele>11.6</ele>
        <time>2022-10-29T09:51:31Z</time>
      </trkpt>
      <trkpt lat="43.3625570" lon="-1.7993130">
        <ele>11.4</ele>
        <time>2022-10-29T09:51:32Z</time>
      </trkpt>
      <trkpt lat="43.3624490" lon="-1.7990530">
        <ele>11.2</ele>
        <time>2022-10-29T09:51:35Z</time>
      </trkpt>
      <trkpt lat="43.3622830" lon="-1.7986350">
        <ele>10.6</ele>
        <time>2022-10-29T09:51:40Z</time>
      </trkpt>
      <trkpt lat="43.3621570" lon="-1.7983050">
        <ele>10.4</ele>
        <time>2022-10-29T09:51:44Z</time>
      </trkpt>
      <trkpt lat="43.3621300" lon="-1.7982230">
        <ele>10.2</ele>
        <time>2022-10-29T09:51:45Z</time>
      </trkpt>
      <trkpt lat="43.3620990" lon="-1.7981430">
        <ele>10.2</ele>
        <time>2022-10-29T09:51:46Z</time>
      </trkpt>
      <trkpt lat="43.3618030" lon="-1.7974140">
        <ele>10.6</ele>
        <time>2022-10-29T09:51:55Z</time>
      </trkpt>
      <trkpt lat="43.3617720" lon="-1.7973310">
        <ele>10.6</ele>
        <time>2022-10-29T09:51:56Z</time>
      </trkpt>
      <trkpt lat="43.3615040" lon="-1.7966570">
        <ele>10.4</ele>
        <time>2022-10-29T09:52:04Z</time>
      </trkpt>
      <trkpt lat="43.3614750" lon="-1.7965940">
        <ele>10.4</ele>
        <time>2022-10-29T09:52:05Z</time>
      </trkpt>
      <trkpt lat="43.3614100" lon="-1.7964340">
        <ele>10.2</ele>
        <time>2022-10-29T09:52:07Z</time>
      </trkpt>
      <trkpt lat="43.3612770" lon="-1.7961120">
        <ele>10.0</ele>
        <time>2022-10-29T09:52:11Z</time>
      </trkpt>
      <trkpt lat="43.3612490" lon="-1.7959390">
        <ele>10.4</ele>
        <time>2022-10-29T09:52:13Z</time>
      </trkpt>
      <trkpt lat="43.3612580" lon="-1.7958570">
        <ele>10.4</ele>
        <time>2022-10-29T09:52:14Z</time>
      </trkpt>
      <trkpt lat="43.3612810" lon="-1.7957810">
        <ele>10.4</ele>
        <time>2022-10-29T09:52:15Z</time>
      </trkpt>
      <trkpt lat="43.3612910" lon="-1.7956970">
        <ele>10.4</ele>
        <time>2022-10-29T09:52:16Z</time>
      </trkpt>
      <trkpt lat="43.3612830" lon="-1.7956080">
        <ele>10.4</ele>
        <time>2022-10-29T09:52:17Z</time>
      </trkpt>
      <trkpt lat="43.3612580" lon="-1.7955190">
        <ele>10.4</ele>
        <time>2022-10-29T09:52:18Z</time>
      </trkpt>
      <trkpt lat="43.3612240" lon="-1.7954330">
        <ele>10.2</ele>
        <time>2022-10-29T09:52:19Z</time>
      </trkpt>
      <trkpt lat="43.3611820" lon="-1.7953550">
        <ele>10.2</ele>
        <time>2022-10-29T09:52:20Z</time>
      </trkpt>
      <trkpt lat="43.3611300" lon="-1.7952880">
        <ele>10.2</ele>
        <time>2022-10-29T09:52:21Z</time>
      </trkpt>
      <trkpt lat="43.3610650" lon="-1.7952360">
        <ele>10.2</ele>
        <time>2022-10-29T09:52:22Z</time>
      </trkpt>
      <trkpt lat="43.3610000" lon="-1.7951920">
        <ele>10.2</ele>
        <time>2022-10-29T09:52:23Z</time>
      </trkpt>
      <trkpt lat="43.3609320" lon="-1.7951570">
        <ele>10.0</ele>
        <time>2022-10-29T09:52:24Z</time>
      </trkpt>
      <trkpt lat="43.3608600" lon="-1.7951290">
        <ele>10.0</ele>
        <time>2022-10-29T09:52:25Z</time>
      </trkpt>
      <trkpt lat="43.3607860" lon="-1.7951140">
        <ele>9.8</ele>
        <time>2022-10-29T09:52:26Z</time>
      </trkpt>
      <trkpt lat="43.3607130" lon="-1.7951090">
        <ele>9.6</ele>
        <time>2022-10-29T09:52:27Z</time>
      </trkpt>
      <trkpt lat="43.3606430" lon="-1.7951240">
        <ele>9.4</ele>
        <time>2022-10-29T09:52:28Z</time>
      </trkpt>
      <trkpt lat="43.3605790" lon="-1.7951630">
        <ele>9.4</ele>
        <time>2022-10-29T09:52:29Z</time>
      </trkpt>
      <trkpt lat="43.3604970" lon="-1.7953030">
        <ele>9.2</ele>
        <time>2022-10-29T09:52:31Z</time>
      </trkpt>
      <trkpt lat="43.3604600" lon="-1.7953810">
        <ele>9.2</ele>
        <time>2022-10-29T09:52:32Z</time>
      </trkpt>
      <trkpt lat="43.3604120" lon="-1.7954450">
        <ele>9.2</ele>
        <time>2022-10-29T09:52:33Z</time>
      </trkpt>
      <trkpt lat="43.3603570" lon="-1.7954910">
        <ele>9.2</ele>
        <time>2022-10-29T09:52:34Z</time>
      </trkpt>
      <trkpt lat="43.3602970" lon="-1.7955180">
        <ele>9.2</ele>
        <time>2022-10-29T09:52:35Z</time>
      </trkpt>
      <trkpt lat="43.3602350" lon="-1.7955390">
        <ele>9.2</ele>
        <time>2022-10-29T09:52:36Z</time>
      </trkpt>
      <trkpt lat="43.3601620" lon="-1.7955610">
        <ele>9.2</ele>
        <time>2022-10-29T09:52:37Z</time>
      </trkpt>
      <trkpt lat="43.3601140" lon="-1.7955720">
        <ele>9.2</ele>
        <time>2022-10-29T09:52:38Z</time>
      </trkpt>
      <trkpt lat="43.3600570" lon="-1.7955930">
        <ele>9.2</ele>
        <time>2022-10-29T09:52:39Z</time>
      </trkpt>
      <trkpt lat="43.3600020" lon="-1.7956270">
        <ele>9.0</ele>
        <time>2022-10-29T09:52:40Z</time>
      </trkpt>
      <trkpt lat="43.3599550" lon="-1.7956730">
        <ele>9.0</ele>
        <time>2022-10-29T09:52:41Z</time>
      </trkpt>
      <trkpt lat="43.3599100" lon="-1.7957310">
        <ele>9.0</ele>
        <time>2022-10-29T09:52:42Z</time>
      </trkpt>
      <trkpt lat="43.3598630" lon="-1.7957990">
        <ele>9.0</ele>
        <time>2022-10-29T09:52:43Z</time>
      </trkpt>
      <trkpt lat="43.3598150" lon="-1.7958700">
        <ele>8.6</ele>
        <time>2022-10-29T09:52:44Z</time>
      </trkpt>
      <trkpt lat="43.3597160" lon="-1.7960140">
        <ele>8.2</ele>
        <time>2022-10-29T09:52:46Z</time>
      </trkpt>
      <trkpt lat="43.3596210" lon="-1.7961530">
        <ele>8.2</ele>
        <time>2022-10-29T09:52:48Z</time>
      </trkpt>
      <trkpt lat="43.3595730" lon="-1.7962210">
        <ele>8.2</ele>
        <time>2022-10-29T09:52:49Z</time>
      </trkpt>
      <trkpt lat="43.3595190" lon="-1.7962800">
        <ele>8.2</ele>
        <time>2022-10-29T09:52:50Z</time>
      </trkpt>
      <trkpt lat="43.3591700" lon="-1.7965960">
        <ele>8.2</ele>
        <time>2022-10-29T09:52:56Z</time>
      </trkpt>
      <trkpt lat="43.3590040" lon="-1.7967480">
        <ele>8.4</ele>
        <time>2022-10-29T09:52:59Z</time>
      </trkpt>
      <trkpt lat="43.3589480" lon="-1.7967990">
        <ele>8.4</ele>
        <time>2022-10-29T09:53:00Z</time>
      </trkpt>
      <trkpt lat="43.3588870" lon="-1.7968480">
        <ele>8.2</ele>
        <time>2022-10-29T09:53:01Z</time>
      </trkpt>
      <trkpt lat="43.3587590" lon="-1.7969450">
        <ele>8.2</ele>
        <time>2022-10-29T09:53:03Z</time>
      </trkpt>
      <trkpt lat="43.3586150" lon="-1.7970070">
        <ele>8.2</ele>
        <time>2022-10-29T09:53:05Z</time>
      </trkpt>
      <trkpt lat="43.3584710" lon="-1.7970650">
        <ele>8.2</ele>
        <time>2022-10-29T09:53:07Z</time>
      </trkpt>
      <trkpt lat="43.3583210" lon="-1.7971110">
        <ele>8.6</ele>
        <time>2022-10-29T09:53:09Z</time>
      </trkpt>
      <trkpt lat="43.3581010" lon="-1.7971610">
        <ele>8.8</ele>
        <time>2022-10-29T09:53:12Z</time>
      </trkpt>
      <trkpt lat="43.3579520" lon="-1.7971980">
        <ele>8.8</ele>
        <time>2022-10-29T09:53:14Z</time>
      </trkpt>
      <trkpt lat="43.3578810" lon="-1.7972150">
        <ele>8.8</ele>
        <time>2022-10-29T09:53:15Z</time>
      </trkpt>
      <trkpt lat="43.3578110" lon="-1.7972310">
        <ele>8.8</ele>
        <time>2022-10-29T09:53:16Z</time>
      </trkpt>
      <trkpt lat="43.3576720" lon="-1.7972670">
        <ele>9.0</ele>
        <time>2022-10-29T09:53:18Z</time>
      </trkpt>
      <trkpt lat="43.3576000" lon="-1.7972800">
        <ele>9.2</ele>
        <time>2022-10-29T09:53:19Z</time>
      </trkpt>
      <trkpt lat="43.3575320" lon="-1.7972900">
        <ele>9.2</ele>
        <time>2022-10-29T09:53:20Z</time>
      </trkpt>
      <trkpt lat="43.3574650" lon="-1.7973000">
        <ele>9.2</ele>
        <time>2022-10-29T09:53:21Z</time>
      </trkpt>
      <trkpt lat="43.3573970" lon="-1.7973160">
        <ele>9.4</ele>
        <time>2022-10-29T09:53:22Z</time>
      </trkpt>
      <trkpt lat="43.3573310" lon="-1.7973380">
        <ele>9.4</ele>
        <time>2022-10-29T09:53:23Z</time>
      </trkpt>
      <trkpt lat="43.3572630" lon="-1.7973590">
        <ele>9.6</ele>
        <time>2022-10-29T09:53:24Z</time>
      </trkpt>
      <trkpt lat="43.3571960" lon="-1.7973810">
        <ele>9.6</ele>
        <time>2022-10-29T09:53:25Z</time>
      </trkpt>
      <trkpt lat="43.3570590" lon="-1.7974260">
        <ele>9.4</ele>
        <time>2022-10-29T09:53:27Z</time>
      </trkpt>
      <trkpt lat="43.3569930" lon="-1.7974510">
        <ele>9.4</ele>
        <time>2022-10-29T09:53:28Z</time>
      </trkpt>
      <trkpt lat="43.3569240" lon="-1.7974740">
        <ele>9.2</ele>
        <time>2022-10-29T09:53:29Z</time>
      </trkpt>
      <trkpt lat="43.3568590" lon="-1.7974980">
        <ele>9.2</ele>
        <time>2022-10-29T09:53:30Z</time>
      </trkpt>
      <trkpt lat="43.3565840" lon="-1.7975980">
        <ele>9.0</ele>
        <time>2022-10-29T09:53:34Z</time>
      </trkpt>
      <trkpt lat="43.3561750" lon="-1.7977600">
        <ele>9.0</ele>
        <time>2022-10-29T09:53:40Z</time>
      </trkpt>
      <trkpt lat="43.3559650" lon="-1.7978540">
        <ele>9.0</ele>
        <time>2022-10-29T09:53:43Z</time>
      </trkpt>
      <trkpt lat="43.3556930" lon="-1.7979380">
        <ele>9.2</ele>
        <time>2022-10-29T09:53:47Z</time>
      </trkpt>
      <trkpt lat="43.3556070" lon="-1.7979630">
        <ele>9.2</ele>
        <time>2022-10-29T09:53:48Z</time>
      </trkpt>
      <trkpt lat="43.3554800" lon="-1.7980020">
        <ele>9.2</ele>
        <time>2022-10-29T09:53:50Z</time>
      </trkpt>
      <trkpt lat="43.3554080" lon="-1.7980090">
        <ele>9.2</ele>
        <time>2022-10-29T09:53:51Z</time>
      </trkpt>
      <trkpt lat="43.3551300" lon="-1.7980730">
        <ele>8.8</ele>
        <time>2022-10-29T09:53:55Z</time>
      </trkpt>
      <trkpt lat="43.3549960" lon="-1.7980930">
        <ele>8.8</ele>
        <time>2022-10-29T09:53:57Z</time>
      </trkpt>
      <trkpt lat="43.3547250" lon="-1.7980660">
        <ele>8.8</ele>
        <time>2022-10-29T09:54:01Z</time>
      </trkpt>
      <trkpt lat="43.3546540" lon="-1.7980650">
        <ele>8.8</ele>
        <time>2022-10-29T09:54:02Z</time>
      </trkpt>
      <trkpt lat="43.3545880" lon="-1.7980590">
        <ele>8.8</ele>
        <time>2022-10-29T09:54:03Z</time>
      </trkpt>
      <trkpt lat="43.3545270" lon="-1.7980580">
        <ele>8.8</ele>
        <time>2022-10-29T09:54:04Z</time>
      </trkpt>
      <trkpt lat="43.3541780" lon="-1.7980110">
        <ele>9.2</ele>
        <time>2022-10-29T09:54:09Z</time>
      </trkpt>
      <trkpt lat="43.3537120" lon="-1.7979540">
        <ele>9.8</ele>
        <time>2022-10-29T09:54:16Z</time>
      </trkpt>
      <trkpt lat="43.3536460" lon="-1.7979450">
        <ele>9.8</ele>
        <time>2022-10-29T09:54:17Z</time>
      </trkpt>
      <trkpt lat="43.3535790" lon="-1.7979370">
        <ele>10.0</ele>
        <time>2022-10-29T09:54:18Z</time>
      </trkpt>
      <trkpt lat="43.3534510" lon="-1.7979230">
        <ele>10.0</ele>
        <time>2022-10-29T09:54:20Z</time>
      </trkpt>
      <trkpt lat="43.3533900" lon="-1.7979160">
        <ele>10.0</ele>
        <time>2022-10-29T09:54:21Z</time>
      </trkpt>
      <trkpt lat="43.3532650" lon="-1.7979100">
        <ele>10.0</ele>
        <time>2022-10-29T09:54:23Z</time>
      </trkpt>
      <trkpt lat="43.3532030" lon="-1.7979110">
        <ele>10.0</ele>
        <time>2022-10-29T09:54:24Z</time>
      </trkpt>
      <trkpt lat="43.3531400" lon="-1.7979140">
        <ele>10.0</ele>
        <time>2022-10-29T09:54:25Z</time>
      </trkpt>
      <trkpt lat="43.3530780" lon="-1.7979190">
        <ele>10.0</ele>
        <time>2022-10-29T09:54:26Z</time>
      </trkpt>
      <trkpt lat="43.3529570" lon="-1.7979620">
        <ele>9.8</ele>
        <time>2022-10-29T09:54:28Z</time>
      </trkpt>
      <trkpt lat="43.3528990" lon="-1.7979800">
        <ele>9.8</ele>
        <time>2022-10-29T09:54:29Z</time>
      </trkpt>
      <trkpt lat="43.3528270" lon="-1.7979760">
        <ele>9.8</ele>
        <time>2022-10-29T09:54:30Z</time>
      </trkpt>
      <trkpt lat="43.3527850" lon="-1.7979450">
        <ele>9.6</ele>
        <time>2022-10-29T09:54:31Z</time>
      </trkpt>
      <trkpt lat="43.3527490" lon="-1.7978820">
        <ele>9.6</ele>
        <time>2022-10-29T09:54:32Z</time>
      </trkpt>
      <trkpt lat="43.3526860" lon="-1.7977420">
        <ele>9.4</ele>
        <time>2022-10-29T09:54:34Z</time>
      </trkpt>
      <trkpt lat="43.3526620" lon="-1.7976630">
        <ele>9.4</ele>
        <time>2022-10-29T09:54:35Z</time>
      </trkpt>
      <trkpt lat="43.3526400" lon="-1.7975830">
        <ele>9.2</ele>
        <time>2022-10-29T09:54:36Z</time>
      </trkpt>
      <trkpt lat="43.3526000" lon="-1.7974180">
        <ele>9.0</ele>
        <time>2022-10-29T09:54:38Z</time>
      </trkpt>
      <trkpt lat="43.3525360" lon="-1.7972700">
        <ele>9.0</ele>
        <time>2022-10-29T09:54:40Z</time>
      </trkpt>
      <trkpt lat="43.3525120" lon="-1.7971890">
        <ele>9.0</ele>
        <time>2022-10-29T09:54:41Z</time>
      </trkpt>
      <trkpt lat="43.3524870" lon="-1.7971240">
        <ele>8.8</ele>
        <time>2022-10-29T09:54:42Z</time>
      </trkpt>
      <trkpt lat="43.3524460" lon="-1.7970850">
        <ele>8.8</ele>
        <time>2022-10-29T09:54:43Z</time>
      </trkpt>
      <trkpt lat="43.3523990" lon="-1.7971140">
        <ele>8.8</ele>
        <time>2022-10-29T09:54:44Z</time>
      </trkpt>
      <trkpt lat="43.3523590" lon="-1.7971650">
        <ele>8.6</ele>
        <time>2022-10-29T09:54:45Z</time>
      </trkpt>
      <trkpt lat="43.3522450" lon="-1.7973410">
        <ele>8.6</ele>
        <time>2022-10-29T09:54:48Z</time>
      </trkpt>
      <trkpt lat="43.3522000" lon="-1.7973960">
        <ele>8.6</ele>
        <time>2022-10-29T09:54:49Z</time>
      </trkpt>
      <trkpt lat="43.3521540" lon="-1.7974540">
        <ele>8.6</ele>
        <time>2022-10-29T09:54:50Z</time>
      </trkpt>
      <trkpt lat="43.3521090" lon="-1.7975110">
        <ele>8.6</ele>
        <time>2022-10-29T09:54:51Z</time>
      </trkpt>
      <trkpt lat="43.3520650" lon="-1.7975660">
        <ele>8.8</ele>
        <time>2022-10-29T09:54:52Z</time>
      </trkpt>
      <trkpt lat="43.3516370" lon="-1.7980800">
        <ele>8.6</ele>
        <time>2022-10-29T09:55:01Z</time>
      </trkpt>
      <trkpt lat="43.3515890" lon="-1.7981370">
        <ele>8.4</ele>
        <time>2022-10-29T09:55:02Z</time>
      </trkpt>
      <trkpt lat="43.3514830" lon="-1.7982610">
        <ele>8.4</ele>
        <time>2022-10-29T09:55:04Z</time>
      </trkpt>
      <trkpt lat="43.3513670" lon="-1.7984640">
        <ele>8.2</ele>
        <time>2022-10-29T09:55:07Z</time>
      </trkpt>
      <trkpt lat="43.3512470" lon="-1.7986160">
        <ele>8.2</ele>
        <time>2022-10-29T09:55:10Z</time>
      </trkpt>
      <trkpt lat="43.3512290" lon="-1.7986870">
        <ele>8.2</ele>
        <time>2022-10-29T09:55:11Z</time>
      </trkpt>
      <trkpt lat="43.3512140" lon="-1.7987650">
        <ele>8.0</ele>
        <time>2022-10-29T09:55:12Z</time>
      </trkpt>
      <trkpt lat="43.3511920" lon="-1.7988410">
        <ele>8.0</ele>
        <time>2022-10-29T09:55:13Z</time>
      </trkpt>
      <trkpt lat="43.3511570" lon="-1.7989080">
        <ele>7.8</ele>
        <time>2022-10-29T09:55:14Z</time>
      </trkpt>
      <trkpt lat="43.3511170" lon="-1.7989700">
        <ele>7.8</ele>
        <time>2022-10-29T09:55:15Z</time>
      </trkpt>
      <trkpt lat="43.3510740" lon="-1.7990260">
        <ele>7.6</ele>
        <time>2022-10-29T09:55:16Z</time>
      </trkpt>
      <trkpt lat="43.3510190" lon="-1.7990650">
        <ele>7.6</ele>
        <time>2022-10-29T09:55:17Z</time>
      </trkpt>
      <trkpt lat="43.3509580" lon="-1.7990760">
        <ele>7.4</ele>
        <time>2022-10-29T09:55:18Z</time>
      </trkpt>
      <trkpt lat="43.3508970" lon="-1.7990650">
        <ele>7.4</ele>
        <time>2022-10-29T09:55:19Z</time>
      </trkpt>
      <trkpt lat="43.3508400" lon="-1.7990590">
        <ele>7.4</ele>
        <time>2022-10-29T09:55:20Z</time>
      </trkpt>
      <trkpt lat="43.3507860" lon="-1.7990790">
        <ele>7.4</ele>
        <time>2022-10-29T09:55:21Z</time>
      </trkpt>
      <trkpt lat="43.3507420" lon="-1.7991240">
        <ele>7.4</ele>
        <time>2022-10-29T09:55:22Z</time>
      </trkpt>
      <trkpt lat="43.3507000" lon="-1.7991810">
        <ele>7.8</ele>
        <time>2022-10-29T09:55:23Z</time>
      </trkpt>
      <trkpt lat="43.3506570" lon="-1.7992390">
        <ele>8.0</ele>
        <time>2022-10-29T09:55:24Z</time>
      </trkpt>
      <trkpt lat="43.3506130" lon="-1.7992970">
        <ele>8.2</ele>
        <time>2022-10-29T09:55:25Z</time>
      </trkpt>
      <trkpt lat="43.3504530" lon="-1.7995610">
        <ele>8.4</ele>
        <time>2022-10-29T09:55:29Z</time>
      </trkpt>
      <trkpt lat="43.3504280" lon="-1.7996410">
        <ele>8.4</ele>
        <time>2022-10-29T09:55:30Z</time>
      </trkpt>
      <trkpt lat="43.3504140" lon="-1.7997280">
        <ele>8.4</ele>
        <time>2022-10-29T09:55:31Z</time>
      </trkpt>
      <trkpt lat="43.3503820" lon="-1.7999040">
        <ele>8.4</ele>
        <time>2022-10-29T09:55:33Z</time>
      </trkpt>
      <trkpt lat="43.3503500" lon="-1.7999840">
        <ele>8.4</ele>
        <time>2022-10-29T09:55:34Z</time>
      </trkpt>
      <trkpt lat="43.3503050" lon="-1.8000540">
        <ele>8.2</ele>
        <time>2022-10-29T09:55:35Z</time>
      </trkpt>
      <trkpt lat="43.3502550" lon="-1.8001200">
        <ele>8.2</ele>
        <time>2022-10-29T09:55:36Z</time>
      </trkpt>
      <trkpt lat="43.3502110" lon="-1.8001920">
        <ele>8.2</ele>
        <time>2022-10-29T09:55:37Z</time>
      </trkpt>
      <trkpt lat="43.3501740" lon="-1.8002730">
        <ele>8.2</ele>
        <time>2022-10-29T09:55:38Z</time>
      </trkpt>
      <trkpt lat="43.3500240" lon="-1.8007940">
        <ele>8.2</ele>
        <time>2022-10-29T09:55:44Z</time>
      </trkpt>
      <trkpt lat="43.3498990" lon="-1.8015260">
        <ele>8.6</ele>
        <time>2022-10-29T09:55:52Z</time>
      </trkpt>
      <trkpt lat="43.3498820" lon="-1.8016200">
        <ele>8.6</ele>
        <time>2022-10-29T09:55:53Z</time>
      </trkpt>
      <trkpt lat="43.3497520" lon="-1.8023630">
        <ele>8.8</ele>
        <time>2022-10-29T09:56:01Z</time>
      </trkpt>
      <trkpt lat="43.3497370" lon="-1.8024570">
        <ele>8.8</ele>
        <time>2022-10-29T09:56:02Z</time>
      </trkpt>
      <trkpt lat="43.3496560" lon="-1.8029120">
        <ele>8.8</ele>
        <time>2022-10-29T09:56:07Z</time>
      </trkpt>
      <trkpt lat="43.3496230" lon="-1.8030920">
        <ele>8.8</ele>
        <time>2022-10-29T09:56:09Z</time>
      </trkpt>
      <trkpt lat="43.3495920" lon="-1.8032780">
        <ele>9.0</ele>
        <time>2022-10-29T09:56:11Z</time>
      </trkpt>
      <trkpt lat="43.3494590" lon="-1.8040370">
        <ele>9.0</ele>
        <time>2022-10-29T09:56:19Z</time>
      </trkpt>
      <trkpt lat="43.3493210" lon="-1.8048120">
        <ele>8.8</ele>
        <time>2022-10-29T09:56:27Z</time>
      </trkpt>
      <trkpt lat="43.3493070" lon="-1.8049130">
        <ele>8.8</ele>
        <time>2022-10-29T09:56:28Z</time>
      </trkpt>
      <trkpt lat="43.3491900" lon="-1.8055680">
        <ele>9.0</ele>
        <time>2022-10-29T09:56:35Z</time>
      </trkpt>
      <trkpt lat="43.3491820" lon="-1.8056630">
        <ele>9.0</ele>
        <time>2022-10-29T09:56:36Z</time>
      </trkpt>
      <trkpt lat="43.3491860" lon="-1.8057540">
        <ele>9.0</ele>
        <time>2022-10-29T09:56:37Z</time>
      </trkpt>
      <trkpt lat="43.3491990" lon="-1.8058430">
        <ele>9.0</ele>
        <time>2022-10-29T09:56:38Z</time>
      </trkpt>
      <trkpt lat="43.3492040" lon="-1.8059320">
        <ele>9.0</ele>
        <time>2022-10-29T09:56:39Z</time>
      </trkpt>
      <trkpt lat="43.3491850" lon="-1.8060150">
        <ele>9.0</ele>
        <time>2022-10-29T09:56:40Z</time>
      </trkpt>
      <trkpt lat="43.3491470" lon="-1.8060850">
        <ele>8.8</ele>
        <time>2022-10-29T09:56:41Z</time>
      </trkpt>
      <trkpt lat="43.3491110" lon="-1.8061550">
        <ele>8.8</ele>
        <time>2022-10-29T09:56:42Z</time>
      </trkpt>
      <trkpt lat="43.3490860" lon="-1.8062360">
        <ele>8.8</ele>
        <time>2022-10-29T09:56:43Z</time>
      </trkpt>
      <trkpt lat="43.3490670" lon="-1.8063250">
        <ele>8.8</ele>
        <time>2022-10-29T09:56:44Z</time>
      </trkpt>
      <trkpt lat="43.3490330" lon="-1.8065090">
        <ele>8.6</ele>
        <time>2022-10-29T09:56:46Z</time>
      </trkpt>
      <trkpt lat="43.3489810" lon="-1.8068030">
        <ele>8.6</ele>
        <time>2022-10-29T09:56:49Z</time>
      </trkpt>
      <trkpt lat="43.3489240" lon="-1.8071030">
        <ele>8.8</ele>
        <time>2022-10-29T09:56:52Z</time>
      </trkpt>
      <trkpt lat="43.3488060" lon="-1.8077750">
        <ele>9.4</ele>
        <time>2022-10-29T09:56:59Z</time>
      </trkpt>
      <trkpt lat="43.3487900" lon="-1.8078710">
        <ele>9.4</ele>
        <time>2022-10-29T09:57:00Z</time>
      </trkpt>
      <trkpt lat="43.3487750" lon="-1.8079640">
        <ele>9.4</ele>
        <time>2022-10-29T09:57:01Z</time>
      </trkpt>
      <trkpt lat="43.3487580" lon="-1.8080570">
        <ele>9.6</ele>
        <time>2022-10-29T09:57:02Z</time>
      </trkpt>
      <trkpt lat="43.3487400" lon="-1.8081510">
        <ele>9.6</ele>
        <time>2022-10-29T09:57:03Z</time>
      </trkpt>
      <trkpt lat="43.3487040" lon="-1.8083330">
        <ele>9.8</ele>
        <time>2022-10-29T09:57:05Z</time>
      </trkpt>
      <trkpt lat="43.3486880" lon="-1.8084250">
        <ele>10.0</ele>
        <time>2022-10-29T09:57:06Z</time>
      </trkpt>
      <trkpt lat="43.3486710" lon="-1.8085160">
        <ele>10.0</ele>
        <time>2022-10-29T09:57:07Z</time>
      </trkpt>
      <trkpt lat="43.3486550" lon="-1.8086080">
        <ele>10.0</ele>
        <time>2022-10-29T09:57:08Z</time>
      </trkpt>
      <trkpt lat="43.3486390" lon="-1.8086980">
        <ele>10.0</ele>
        <time>2022-10-29T09:57:09Z</time>
      </trkpt>
      <trkpt lat="43.3486030" lon="-1.8088960">
        <ele>10.2</ele>
        <time>2022-10-29T09:57:11Z</time>
      </trkpt>
      <trkpt lat="43.3485920" lon="-1.8089670">
        <ele>10.2</ele>
        <time>2022-10-29T09:57:12Z</time>
      </trkpt>
      <trkpt lat="43.3485760" lon="-1.8090560">
        <ele>10.2</ele>
        <time>2022-10-29T09:57:13Z</time>
      </trkpt>
      <trkpt lat="43.3485600" lon="-1.8091450">
        <ele>10.4</ele>
        <time>2022-10-29T09:57:14Z</time>
      </trkpt>
      <trkpt lat="43.3485450" lon="-1.8092340">
        <ele>10.4</ele>
        <time>2022-10-29T09:57:15Z</time>
      </trkpt>
      <trkpt lat="43.3485320" lon="-1.8093230">
        <ele>10.4</ele>
        <time>2022-10-29T09:57:16Z</time>
      </trkpt>
      <trkpt lat="43.3485060" lon="-1.8095820">
        <ele>10.8</ele>
        <time>2022-10-29T09:57:19Z</time>
      </trkpt>
      <trkpt lat="43.3484980" lon="-1.8096630">
        <ele>10.8</ele>
        <time>2022-10-29T09:57:20Z</time>
      </trkpt>
      <trkpt lat="43.3484560" lon="-1.8098240">
        <ele>11.0</ele>
        <time>2022-10-29T09:57:22Z</time>
      </trkpt>
      <trkpt lat="43.3484340" lon="-1.8099060">
        <ele>11.0</ele>
        <time>2022-10-29T09:57:23Z</time>
      </trkpt>
      <trkpt lat="43.3483650" lon="-1.8101550">
        <ele>11.2</ele>
        <time>2022-10-29T09:57:26Z</time>
      </trkpt>
      <trkpt lat="43.3481650" lon="-1.8108020">
        <ele>11.6</ele>
        <time>2022-10-29T09:57:34Z</time>
      </trkpt>
      <trkpt lat="43.3481090" lon="-1.8109610">
        <ele>11.8</ele>
        <time>2022-10-29T09:57:36Z</time>
      </trkpt>
      <trkpt lat="43.3479070" lon="-1.8114130">
        <ele>12.4</ele>
        <time>2022-10-29T09:57:42Z</time>
      </trkpt>
      <trkpt lat="43.3477340" lon="-1.8117770">
        <ele>12.6</ele>
        <time>2022-10-29T09:57:47Z</time>
      </trkpt>
      <trkpt lat="43.3477010" lon="-1.8118470">
        <ele>12.8</ele>
        <time>2022-10-29T09:57:48Z</time>
      </trkpt>
      <trkpt lat="43.3476750" lon="-1.8119240">
        <ele>12.8</ele>
        <time>2022-10-29T09:57:49Z</time>
      </trkpt>
      <trkpt lat="43.3476640" lon="-1.8120030">
        <ele>13.0</ele>
        <time>2022-10-29T09:57:50Z</time>
      </trkpt>
      <trkpt lat="43.3476600" lon="-1.8120840">
        <ele>13.0</ele>
        <time>2022-10-29T09:57:51Z</time>
      </trkpt>
      <trkpt lat="43.3476510" lon="-1.8121660">
        <ele>13.0</ele>
        <time>2022-10-29T09:57:52Z</time>
      </trkpt>
      <trkpt lat="43.3476360" lon="-1.8122450">
        <ele>13.0</ele>
        <time>2022-10-29T09:57:53Z</time>
      </trkpt>
      <trkpt lat="43.3475970" lon="-1.8123990">
        <ele>13.4</ele>
        <time>2022-10-29T09:57:55Z</time>
      </trkpt>
      <trkpt lat="43.3475180" lon="-1.8126230">
        <ele>13.6</ele>
        <time>2022-10-29T09:57:58Z</time>
      </trkpt>
      <trkpt lat="43.3474300" lon="-1.8127490">
        <ele>13.8</ele>
        <time>2022-10-29T09:58:00Z</time>
      </trkpt>
      <trkpt lat="43.3470290" lon="-1.8131290">
        <ele>14.0</ele>
        <time>2022-10-29T09:58:07Z</time>
      </trkpt>
      <trkpt lat="43.3468040" lon="-1.8133550">
        <ele>13.6</ele>
        <time>2022-10-29T09:58:11Z</time>
      </trkpt>
      <trkpt lat="43.3466880" lon="-1.8134810">
        <ele>13.2</ele>
        <time>2022-10-29T09:58:13Z</time>
      </trkpt>
      <trkpt lat="43.3464550" lon="-1.8137480">
        <ele>13.0</ele>
        <time>2022-10-29T09:58:17Z</time>
      </trkpt>
      <trkpt lat="43.3461650" lon="-1.8140790">
        <ele>13.2</ele>
        <time>2022-10-29T09:58:22Z</time>
      </trkpt>
      <trkpt lat="43.3457070" lon="-1.8146220">
        <ele>13.2</ele>
        <time>2022-10-29T09:58:30Z</time>
      </trkpt>
      <trkpt lat="43.3453400" lon="-1.8151230">
        <ele>12.0</ele>
        <time>2022-10-29T09:58:37Z</time>
      </trkpt>
      <trkpt lat="43.3452940" lon="-1.8151980">
        <ele>11.8</ele>
        <time>2022-10-29T09:58:38Z</time>
      </trkpt>
      <trkpt lat="43.3452490" lon="-1.8152720">
        <ele>11.6</ele>
        <time>2022-10-29T09:58:39Z</time>
      </trkpt>
      <trkpt lat="43.3452040" lon="-1.8153370">
        <ele>11.4</ele>
        <time>2022-10-29T09:58:40Z</time>
      </trkpt>
      <trkpt lat="43.3451620" lon="-1.8153940">
        <ele>11.2</ele>
        <time>2022-10-29T09:58:41Z</time>
      </trkpt>
      <trkpt lat="43.3451250" lon="-1.8154470">
        <ele>11.0</ele>
        <time>2022-10-29T09:58:42Z</time>
      </trkpt>
      <trkpt lat="43.3450920" lon="-1.8154970">
        <ele>11.0</ele>
        <time>2022-10-29T09:58:43Z</time>
      </trkpt>
      <trkpt lat="43.3450610" lon="-1.8155420">
        <ele>10.6</ele>
        <time>2022-10-29T09:58:44Z</time>
      </trkpt>
      <trkpt lat="43.3450320" lon="-1.8155840">
        <ele>10.6</ele>
        <time>2022-10-29T09:58:45Z</time>
      </trkpt>
      <trkpt lat="43.3450050" lon="-1.8156220">
        <ele>10.4</ele>
        <time>2022-10-29T09:58:46Z</time>
      </trkpt>
      <trkpt lat="43.3449810" lon="-1.8156570">
        <ele>10.2</ele>
        <time>2022-10-29T09:58:47Z</time>
      </trkpt>
      <trkpt lat="43.3449590" lon="-1.8156900">
        <ele>10.2</ele>
        <time>2022-10-29T09:58:48Z</time>
      </trkpt>
      <trkpt lat="43.3449380" lon="-1.8157230">
        <ele>10.0</ele>
        <time>2022-10-29T09:58:49Z</time>
      </trkpt>
      <trkpt lat="43.3449140" lon="-1.8157560">
        <ele>10.0</ele>
        <time>2022-10-29T09:58:50Z</time>
      </trkpt>
      <trkpt lat="43.3448560" lon="-1.8158430">
        <ele>9.8</ele>
        <time>2022-10-29T09:58:52Z</time>
      </trkpt>
      <trkpt lat="43.3447830" lon="-1.8159660">
        <ele>9.8</ele>
        <time>2022-10-29T09:58:54Z</time>
      </trkpt>
      <trkpt lat="43.3447390" lon="-1.8160360">
        <ele>9.6</ele>
        <time>2022-10-29T09:58:55Z</time>
      </trkpt>
      <trkpt lat="43.3446570" lon="-1.8161590">
        <ele>9.6</ele>
        <time>2022-10-29T09:58:57Z</time>
      </trkpt>
      <trkpt lat="43.3446160" lon="-1.8162150">
        <ele>9.6</ele>
        <time>2022-10-29T09:58:58Z</time>
      </trkpt>
      <trkpt lat="43.3445750" lon="-1.8162750">
        <ele>9.6</ele>
        <time>2022-10-29T09:58:59Z</time>
      </trkpt>
      <trkpt lat="43.3444970" lon="-1.8163980">
        <ele>9.8</ele>
        <time>2022-10-29T09:59:01Z</time>
      </trkpt>
      <trkpt lat="43.3443770" lon="-1.8165670">
        <ele>10.8</ele>
        <time>2022-10-29T09:59:04Z</time>
      </trkpt>
      <trkpt lat="43.3443440" lon="-1.8166100">
        <ele>10.8</ele>
        <time>2022-10-29T09:59:05Z</time>
      </trkpt>
      <trkpt lat="43.3443050" lon="-1.8166290">
        <ele>11.6</ele>
        <time>2022-10-29T09:59:06Z</time>
      </trkpt>
      <trkpt lat="43.3442670" lon="-1.8166190">
        <ele>11.8</ele>
        <time>2022-10-29T09:59:07Z</time>
      </trkpt>
      <trkpt lat="43.3442340" lon="-1.8165810">
        <ele>12.4</ele>
        <time>2022-10-29T09:59:08Z</time>
      </trkpt>
      <trkpt lat="43.3442000" lon="-1.8165310">
        <ele>13.0</ele>
        <time>2022-10-29T09:59:09Z</time>
      </trkpt>
      <trkpt lat="43.3441330" lon="-1.8164320">
        <ele>13.8</ele>
        <time>2022-10-29T09:59:11Z</time>
      </trkpt>
      <trkpt lat="43.3440490" lon="-1.8164240">
        <ele>14.2</ele>
        <time>2022-10-29T09:59:13Z</time>
      </trkpt>
      <trkpt lat="43.3440050" lon="-1.8164580">
        <ele>14.2</ele>
        <time>2022-10-29T09:59:14Z</time>
      </trkpt>
      <trkpt lat="43.3439560" lon="-1.8165020">
        <ele>14.2</ele>
        <time>2022-10-29T09:59:15Z</time>
      </trkpt>
      <trkpt lat="43.3438990" lon="-1.8165450">
        <ele>14.2</ele>
        <time>2022-10-29T09:59:16Z</time>
      </trkpt>
      <trkpt lat="43.3438390" lon="-1.8165890">
        <ele>14.2</ele>
        <time>2022-10-29T09:59:17Z</time>
      </trkpt>
      <trkpt lat="43.3437740" lon="-1.8166350">
        <ele>14.2</ele>
        <time>2022-10-29T09:59:18Z</time>
      </trkpt>
      <trkpt lat="43.3437060" lon="-1.8166810">
        <ele>14.2</ele>
        <time>2022-10-29T09:59:19Z</time>
      </trkpt>
      <trkpt lat="43.3436360" lon="-1.8167260">
        <ele>14.2</ele>
        <time>2022-10-29T09:59:20Z</time>
      </trkpt>
      <trkpt lat="43.3435590" lon="-1.8167580">
        <ele>14.2</ele>
        <time>2022-10-29T09:59:21Z</time>
      </trkpt>
      <trkpt lat="43.3434760" lon="-1.8167810">
        <ele>14.2</ele>
        <time>2022-10-29T09:59:22Z</time>
      </trkpt>
      <trkpt lat="43.3433900" lon="-1.8168040">
        <ele>14.2</ele>
        <time>2022-10-29T09:59:23Z</time>
      </trkpt>
      <trkpt lat="43.3433080" lon="-1.8168350">
        <ele>14.0</ele>
        <time>2022-10-29T09:59:24Z</time>
      </trkpt>
      <trkpt lat="43.3432330" lon="-1.8168710">
        <ele>13.8</ele>
        <time>2022-10-29T09:59:25Z</time>
      </trkpt>
      <trkpt lat="43.3431600" lon="-1.8168940">
        <ele>13.4</ele>
        <time>2022-10-29T09:59:26Z</time>
      </trkpt>
      <trkpt lat="43.3430900" lon="-1.8168950">
        <ele>13.2</ele>
        <time>2022-10-29T09:59:27Z</time>
      </trkpt>
      <trkpt lat="43.3430220" lon="-1.8168770">
        <ele>13.0</ele>
        <time>2022-10-29T09:59:28Z</time>
      </trkpt>
      <trkpt lat="43.3429590" lon="-1.8168510">
        <ele>13.0</ele>
        <time>2022-10-29T09:59:29Z</time>
      </trkpt>
      <trkpt lat="43.3429030" lon="-1.8168200">
        <ele>13.0</ele>
        <time>2022-10-29T09:59:30Z</time>
      </trkpt>
      <trkpt lat="43.3428460" lon="-1.8167950">
        <ele>13.0</ele>
        <time>2022-10-29T09:59:31Z</time>
      </trkpt>
      <trkpt lat="43.3427880" lon="-1.8167900">
        <ele>13.0</ele>
        <time>2022-10-29T09:59:32Z</time>
      </trkpt>
      <trkpt lat="43.3427380" lon="-1.8167880">
        <ele>13.0</ele>
        <time>2022-10-29T09:59:33Z</time>
      </trkpt>
      <trkpt lat="43.3426930" lon="-1.8167760">
        <ele>13.0</ele>
        <time>2022-10-29T09:59:34Z</time>
      </trkpt>
      <trkpt lat="43.3426530" lon="-1.8167560">
        <ele>13.2</ele>
        <time>2022-10-29T09:59:35Z</time>
      </trkpt>
      <trkpt lat="43.3426140" lon="-1.8167320">
        <ele>13.2</ele>
        <time>2022-10-29T09:59:36Z</time>
      </trkpt>
      <trkpt lat="43.3425790" lon="-1.8167060">
        <ele>13.4</ele>
        <time>2022-10-29T09:59:37Z</time>
      </trkpt>
      <trkpt lat="43.3425470" lon="-1.8166760">
        <ele>13.8</ele>
        <time>2022-10-29T09:59:38Z</time>
      </trkpt>
      <trkpt lat="43.3425170" lon="-1.8166470">
        <ele>14.0</ele>
        <time>2022-10-29T09:59:39Z</time>
      </trkpt>
      <trkpt lat="43.3424850" lon="-1.8166150">
        <ele>14.4</ele>
        <time>2022-10-29T09:59:40Z</time>
      </trkpt>
      <trkpt lat="43.3424210" lon="-1.8165490">
        <ele>15.2</ele>
        <time>2022-10-29T09:59:42Z</time>
      </trkpt>
      <trkpt lat="43.3423190" lon="-1.8164520">
        <ele>16.0</ele>
        <time>2022-10-29T09:59:45Z</time>
      </trkpt>
      <trkpt lat="43.3422880" lon="-1.8164170">
        <ele>16.6</ele>
        <time>2022-10-29T09:59:46Z</time>
      </trkpt>
      <trkpt lat="43.3422580" lon="-1.8163820">
        <ele>16.8</ele>
        <time>2022-10-29T09:59:47Z</time>
      </trkpt>
      <trkpt lat="43.3421990" lon="-1.8163170">
        <ele>17.6</ele>
        <time>2022-10-29T09:59:49Z</time>
      </trkpt>
      <trkpt lat="43.3421710" lon="-1.8162820">
        <ele>17.8</ele>
        <time>2022-10-29T09:59:50Z</time>
      </trkpt>
      <trkpt lat="43.3421450" lon="-1.8162470">
        <ele>18.0</ele>
        <time>2022-10-29T09:59:51Z</time>
      </trkpt>
      <trkpt lat="43.3421200" lon="-1.8162110">
        <ele>18.0</ele>
        <time>2022-10-29T09:59:52Z</time>
      </trkpt>
      <trkpt lat="43.3420960" lon="-1.8161750">
        <ele>18.2</ele>
        <time>2022-10-29T09:59:53Z</time>
      </trkpt>
      <trkpt lat="43.3420720" lon="-1.8161400">
        <ele>18.4</ele>
        <time>2022-10-29T09:59:54Z</time>
      </trkpt>
      <trkpt lat="43.3420480" lon="-1.8161030">
        <ele>18.6</ele>
        <time>2022-10-29T09:59:55Z</time>
      </trkpt>
      <trkpt lat="43.3420240" lon="-1.8160650">
        <ele>19.0</ele>
        <time>2022-10-29T09:59:56Z</time>
      </trkpt>
      <trkpt lat="43.3420010" lon="-1.8160260">
        <ele>19.2</ele>
        <time>2022-10-29T09:59:57Z</time>
      </trkpt>
      <trkpt lat="43.3419780" lon="-1.8159880">
        <ele>19.6</ele>
        <time>2022-10-29T09:59:58Z</time>
      </trkpt>
      <trkpt lat="43.3419570" lon="-1.8159470">
        <ele>19.8</ele>
        <time>2022-10-29T09:59:59Z</time>
      </trkpt>
      <trkpt lat="43.3419360" lon="-1.8159070">
        <ele>20.2</ele>
        <time>2022-10-29T10:00:00Z</time>
      </trkpt>
      <trkpt lat="43.3419160" lon="-1.8158670">
        <ele>20.4</ele>
        <time>2022-10-29T10:00:01Z</time>
      </trkpt>
      <trkpt lat="43.3418940" lon="-1.8158260">
        <ele>20.6</ele>
        <time>2022-10-29T10:00:02Z</time>
      </trkpt>
      <trkpt lat="43.3418750" lon="-1.8157860">
        <ele>20.8</ele>
        <time>2022-10-29T10:00:03Z</time>
      </trkpt>
      <trkpt lat="43.3418550" lon="-1.8157450">
        <ele>21.0</ele>
        <time>2022-10-29T10:00:04Z</time>
      </trkpt>
      <trkpt lat="43.3418370" lon="-1.8157040">
        <ele>21.4</ele>
        <time>2022-10-29T10:00:05Z</time>
      </trkpt>
      <trkpt lat="43.3418150" lon="-1.8156610">
        <ele>21.8</ele>
        <time>2022-10-29T10:00:06Z</time>
      </trkpt>
      <trkpt lat="43.3417940" lon="-1.8156160">
        <ele>22.0</ele>
        <time>2022-10-29T10:00:07Z</time>
      </trkpt>
      <trkpt lat="43.3417740" lon="-1.8155720">
        <ele>22.2</ele>
        <time>2022-10-29T10:00:08Z</time>
      </trkpt>
      <trkpt lat="43.3417550" lon="-1.8155300">
        <ele>22.6</ele>
        <time>2022-10-29T10:00:09Z</time>
      </trkpt>
      <trkpt lat="43.3417350" lon="-1.8154900">
        <ele>22.6</ele>
        <time>2022-10-29T10:00:10Z</time>
      </trkpt>
      <trkpt lat="43.3417110" lon="-1.8154530">
        <ele>22.8</ele>
        <time>2022-10-29T10:00:11Z</time>
      </trkpt>
      <trkpt lat="43.3416840" lon="-1.8154170">
        <ele>22.8</ele>
        <time>2022-10-29T10:00:12Z</time>
      </trkpt>
      <trkpt lat="43.3416530" lon="-1.8153810">
        <ele>23.0</ele>
        <time>2022-10-29T10:00:13Z</time>
      </trkpt>
      <trkpt lat="43.3416190" lon="-1.8153470">
        <ele>23.0</ele>
        <time>2022-10-29T10:00:14Z</time>
      </trkpt>
      <trkpt lat="43.3415850" lon="-1.8153160">
        <ele>23.2</ele>
        <time>2022-10-29T10:00:15Z</time>
      </trkpt>
      <trkpt lat="43.3415510" lon="-1.8152850">
        <ele>23.4</ele>
        <time>2022-10-29T10:00:16Z</time>
      </trkpt>
      <trkpt lat="43.3415150" lon="-1.8152540">
        <ele>23.4</ele>
        <time>2022-10-29T10:00:17Z</time>
      </trkpt>
      <trkpt lat="43.3414850" lon="-1.8152190">
        <ele>23.6</ele>
        <time>2022-10-29T10:00:18Z</time>
      </trkpt>
      <trkpt lat="43.3414600" lon="-1.8151820">
        <ele>23.6</ele>
        <time>2022-10-29T10:00:19Z</time>
      </trkpt>
      <trkpt lat="43.3414400" lon="-1.8151350">
        <ele>23.8</ele>
        <time>2022-10-29T10:00:20Z</time>
      </trkpt>
      <trkpt lat="43.3414260" lon="-1.8150820">
        <ele>23.8</ele>
        <time>2022-10-29T10:00:21Z</time>
      </trkpt>
      <trkpt lat="43.3414180" lon="-1.8150250">
        <ele>24.0</ele>
        <time>2022-10-29T10:00:22Z</time>
      </trkpt>
      <trkpt lat="43.3414100" lon="-1.8149650">
        <ele>24.0</ele>
        <time>2022-10-29T10:00:23Z</time>
      </trkpt>
      <trkpt lat="43.3414030" lon="-1.8149010">
        <ele>24.2</ele>
        <time>2022-10-29T10:00:24Z</time>
      </trkpt>
      <trkpt lat="43.3413940" lon="-1.8148380">
        <ele>24.2</ele>
        <time>2022-10-29T10:00:25Z</time>
      </trkpt>
      <trkpt lat="43.3413850" lon="-1.8147760">
        <ele>24.2</ele>
        <time>2022-10-29T10:00:26Z</time>
      </trkpt>
      <trkpt lat="43.3413740" lon="-1.8147120">
        <ele>24.2</ele>
        <time>2022-10-29T10:00:27Z</time>
      </trkpt>
      <trkpt lat="43.3413580" lon="-1.8146460">
        <ele>24.2</ele>
        <time>2022-10-29T10:00:28Z</time>
      </trkpt>
      <trkpt lat="43.3413350" lon="-1.8145830">
        <ele>24.4</ele>
        <time>2022-10-29T10:00:29Z</time>
      </trkpt>
      <trkpt lat="43.3413120" lon="-1.8145200">
        <ele>24.4</ele>
        <time>2022-10-29T10:00:30Z</time>
      </trkpt>
      <trkpt lat="43.3412870" lon="-1.8144580">
        <ele>24.4</ele>
        <time>2022-10-29T10:00:31Z</time>
      </trkpt>
      <trkpt lat="43.3412600" lon="-1.8144010">
        <ele>24.4</ele>
        <time>2022-10-29T10:00:32Z</time>
      </trkpt>
      <trkpt lat="43.3412340" lon="-1.8143470">
        <ele>24.4</ele>
        <time>2022-10-29T10:00:33Z</time>
      </trkpt>
      <trkpt lat="43.3412150" lon="-1.8142990">
        <ele>24.6</ele>
        <time>2022-10-29T10:00:34Z</time>
      </trkpt>
      <trkpt lat="43.3411840" lon="-1.8142440">
        <ele>24.6</ele>
        <time>2022-10-29T10:00:35Z</time>
      </trkpt>
      <trkpt lat="43.3411510" lon="-1.8141900">
        <ele>24.6</ele>
        <time>2022-10-29T10:00:36Z</time>
      </trkpt>
      <trkpt lat="43.3411150" lon="-1.8141230">
        <ele>24.6</ele>
        <time>2022-10-29T10:00:37Z</time>
      </trkpt>
      <trkpt lat="43.3410860" lon="-1.8140620">
        <ele>24.8</ele>
        <time>2022-10-29T10:00:38Z</time>
      </trkpt>
      <trkpt lat="43.3410540" lon="-1.8140000">
        <ele>25.0</ele>
        <time>2022-10-29T10:00:39Z</time>
      </trkpt>
      <trkpt lat="43.3409590" lon="-1.8138140">
        <ele>25.6</ele>
        <time>2022-10-29T10:00:42Z</time>
      </trkpt>
      <trkpt lat="43.3408960" lon="-1.8136880">
        <ele>26.4</ele>
        <time>2022-10-29T10:00:44Z</time>
      </trkpt>
      <trkpt lat="43.3408620" lon="-1.8136260">
        <ele>26.8</ele>
        <time>2022-10-29T10:00:45Z</time>
      </trkpt>
      <trkpt lat="43.3407970" lon="-1.8134950">
        <ele>27.4</ele>
        <time>2022-10-29T10:00:47Z</time>
      </trkpt>
      <trkpt lat="43.3407640" lon="-1.8134290">
        <ele>27.4</ele>
        <time>2022-10-29T10:00:48Z</time>
      </trkpt>
      <trkpt lat="43.3407310" lon="-1.8133660">
        <ele>27.8</ele>
        <time>2022-10-29T10:00:49Z</time>
      </trkpt>
      <trkpt lat="43.3406910" lon="-1.8133070">
        <ele>27.8</ele>
        <time>2022-10-29T10:00:50Z</time>
      </trkpt>
      <trkpt lat="43.3406470" lon="-1.8132550">
        <ele>28.0</ele>
        <time>2022-10-29T10:00:51Z</time>
      </trkpt>
      <trkpt lat="43.3405990" lon="-1.8132080">
        <ele>28.2</ele>
        <time>2022-10-29T10:00:52Z</time>
      </trkpt>
      <trkpt lat="43.3405520" lon="-1.8131630">
        <ele>28.4</ele>
        <time>2022-10-29T10:00:53Z</time>
      </trkpt>
      <trkpt lat="43.3405030" lon="-1.8131120">
        <ele>28.6</ele>
        <time>2022-10-29T10:00:54Z</time>
      </trkpt>
      <trkpt lat="43.3404580" lon="-1.8130560">
        <ele>28.8</ele>
        <time>2022-10-29T10:00:55Z</time>
      </trkpt>
      <trkpt lat="43.3404160" lon="-1.8129910">
        <ele>28.8</ele>
        <time>2022-10-29T10:00:56Z</time>
      </trkpt>
      <trkpt lat="43.3403800" lon="-1.8129250">
        <ele>28.8</ele>
        <time>2022-10-29T10:00:57Z</time>
      </trkpt>
      <trkpt lat="43.3403480" lon="-1.8128540">
        <ele>29.0</ele>
        <time>2022-10-29T10:00:58Z</time>
      </trkpt>
      <trkpt lat="43.3403160" lon="-1.8127870">
        <ele>29.0</ele>
        <time>2022-10-29T10:00:59Z</time>
      </trkpt>
      <trkpt lat="43.3402850" lon="-1.8127180">
        <ele>29.2</ele>
        <time>2022-10-29T10:01:00Z</time>
      </trkpt>
      <trkpt lat="43.3402510" lon="-1.8126450">
        <ele>29.2</ele>
        <time>2022-10-29T10:01:01Z</time>
      </trkpt>
      <trkpt lat="43.3402160" lon="-1.8125740">
        <ele>29.2</ele>
        <time>2022-10-29T10:01:02Z</time>
      </trkpt>
      <trkpt lat="43.3401800" lon="-1.8125050">
        <ele>29.2</ele>
        <time>2022-10-29T10:01:03Z</time>
      </trkpt>
      <trkpt lat="43.3401380" lon="-1.8124400">
        <ele>29.2</ele>
        <time>2022-10-29T10:01:04Z</time>
      </trkpt>
      <trkpt lat="43.3400830" lon="-1.8123910">
        <ele>29.2</ele>
        <time>2022-10-29T10:01:05Z</time>
      </trkpt>
      <trkpt lat="43.3400260" lon="-1.8123490">
        <ele>29.2</ele>
        <time>2022-10-29T10:01:06Z</time>
      </trkpt>
      <trkpt lat="43.3399700" lon="-1.8123010">
        <ele>29.2</ele>
        <time>2022-10-29T10:01:07Z</time>
      </trkpt>
      <trkpt lat="43.3399220" lon="-1.8122440">
        <ele>29.2</ele>
        <time>2022-10-29T10:01:08Z</time>
      </trkpt>
      <trkpt lat="43.3398870" lon="-1.8121730">
        <ele>29.4</ele>
        <time>2022-10-29T10:01:09Z</time>
      </trkpt>
      <trkpt lat="43.3398590" lon="-1.8120940">
        <ele>29.4</ele>
        <time>2022-10-29T10:01:10Z</time>
      </trkpt>
      <trkpt lat="43.3398300" lon="-1.8120150">
        <ele>29.4</ele>
        <time>2022-10-29T10:01:11Z</time>
      </trkpt>
      <trkpt lat="43.3397960" lon="-1.8119400">
        <ele>29.4</ele>
        <time>2022-10-29T10:01:12Z</time>
      </trkpt>
      <trkpt lat="43.3397560" lon="-1.8118700">
        <ele>29.6</ele>
        <time>2022-10-29T10:01:13Z</time>
      </trkpt>
      <trkpt lat="43.3397220" lon="-1.8117980">
        <ele>29.8</ele>
        <time>2022-10-29T10:01:14Z</time>
      </trkpt>
      <trkpt lat="43.3396970" lon="-1.8117200">
        <ele>29.8</ele>
        <time>2022-10-29T10:01:15Z</time>
      </trkpt>
      <trkpt lat="43.3396530" lon="-1.8115580">
        <ele>30.2</ele>
        <time>2022-10-29T10:01:17Z</time>
      </trkpt>
      <trkpt lat="43.3396170" lon="-1.8114860">
        <ele>30.2</ele>
        <time>2022-10-29T10:01:18Z</time>
      </trkpt>
      <trkpt lat="43.3395690" lon="-1.8114260">
        <ele>30.4</ele>
        <time>2022-10-29T10:01:19Z</time>
      </trkpt>
      <trkpt lat="43.3394760" lon="-1.8113020">
        <ele>30.4</ele>
        <time>2022-10-29T10:01:21Z</time>
      </trkpt>
      <trkpt lat="43.3394410" lon="-1.8112290">
        <ele>30.4</ele>
        <time>2022-10-29T10:01:22Z</time>
      </trkpt>
      <trkpt lat="43.3394170" lon="-1.8111480">
        <ele>30.6</ele>
        <time>2022-10-29T10:01:23Z</time>
      </trkpt>
      <trkpt lat="43.3393970" lon="-1.8110640">
        <ele>30.6</ele>
        <time>2022-10-29T10:01:24Z</time>
      </trkpt>
      <trkpt lat="43.3393630" lon="-1.8109850">
        <ele>30.8</ele>
        <time>2022-10-29T10:01:25Z</time>
      </trkpt>
      <trkpt lat="43.3393120" lon="-1.8109260">
        <ele>30.8</ele>
        <time>2022-10-29T10:01:26Z</time>
      </trkpt>
      <trkpt lat="43.3392500" lon="-1.8108950">
        <ele>31.0</ele>
        <time>2022-10-29T10:01:27Z</time>
      </trkpt>
      <trkpt lat="43.3391860" lon="-1.8108830">
        <ele>31.0</ele>
        <time>2022-10-29T10:01:28Z</time>
      </trkpt>
      <trkpt lat="43.3391220" lon="-1.8108800">
        <ele>31.2</ele>
        <time>2022-10-29T10:01:29Z</time>
      </trkpt>
      <trkpt lat="43.3390600" lon="-1.8108810">
        <ele>31.4</ele>
        <time>2022-10-29T10:01:30Z</time>
      </trkpt>
      <trkpt lat="43.3389980" lon="-1.8108860">
        <ele>31.4</ele>
        <time>2022-10-29T10:01:31Z</time>
      </trkpt>
      <trkpt lat="43.3388730" lon="-1.8108980">
        <ele>31.6</ele>
        <time>2022-10-29T10:01:33Z</time>
      </trkpt>
      <trkpt lat="43.3388110" lon="-1.8109030">
        <ele>31.8</ele>
        <time>2022-10-29T10:01:34Z</time>
      </trkpt>
      <trkpt lat="43.3386870" lon="-1.8109110">
        <ele>32.0</ele>
        <time>2022-10-29T10:01:36Z</time>
      </trkpt>
      <trkpt lat="43.3386260" lon="-1.8109070">
        <ele>32.2</ele>
        <time>2022-10-29T10:01:37Z</time>
      </trkpt>
      <trkpt lat="43.3385660" lon="-1.8109000">
        <ele>32.4</ele>
        <time>2022-10-29T10:01:38Z</time>
      </trkpt>
      <trkpt lat="43.3385040" lon="-1.8108930">
        <ele>32.6</ele>
        <time>2022-10-29T10:01:39Z</time>
      </trkpt>
      <trkpt lat="43.3383800" lon="-1.8108720">
        <ele>33.0</ele>
        <time>2022-10-29T10:01:41Z</time>
      </trkpt>
      <trkpt lat="43.3383180" lon="-1.8108580">
        <ele>33.2</ele>
        <time>2022-10-29T10:01:42Z</time>
      </trkpt>
      <trkpt lat="43.3382560" lon="-1.8108430">
        <ele>33.4</ele>
        <time>2022-10-29T10:01:43Z</time>
      </trkpt>
      <trkpt lat="43.3381920" lon="-1.8108300">
        <ele>33.6</ele>
        <time>2022-10-29T10:01:44Z</time>
      </trkpt>
      <trkpt lat="43.3381280" lon="-1.8108180">
        <ele>33.8</ele>
        <time>2022-10-29T10:01:45Z</time>
      </trkpt>
      <trkpt lat="43.3380650" lon="-1.8108040">
        <ele>33.8</ele>
        <time>2022-10-29T10:01:46Z</time>
      </trkpt>
      <trkpt lat="43.3380010" lon="-1.8107920">
        <ele>34.0</ele>
        <time>2022-10-29T10:01:47Z</time>
      </trkpt>
      <trkpt lat="43.3379380" lon="-1.8107790">
        <ele>34.0</ele>
        <time>2022-10-29T10:01:48Z</time>
      </trkpt>
      <trkpt lat="43.3378750" lon="-1.8107630">
        <ele>34.2</ele>
        <time>2022-10-29T10:01:49Z</time>
      </trkpt>
      <trkpt lat="43.3378150" lon="-1.8107450">
        <ele>34.4</ele>
        <time>2022-10-29T10:01:50Z</time>
      </trkpt>
      <trkpt lat="43.3377550" lon="-1.8107370">
        <ele>34.4</ele>
        <time>2022-10-29T10:01:51Z</time>
      </trkpt>
      <trkpt lat="43.3376970" lon="-1.8107560">
        <ele>34.8</ele>
        <time>2022-10-29T10:01:52Z</time>
      </trkpt>
      <trkpt lat="43.3376420" lon="-1.8107920">
        <ele>34.8</ele>
        <time>2022-10-29T10:01:53Z</time>
      </trkpt>
      <trkpt lat="43.3375870" lon="-1.8108260">
        <ele>35.0</ele>
        <time>2022-10-29T10:01:54Z</time>
      </trkpt>
      <trkpt lat="43.3375320" lon="-1.8108430">
        <ele>35.2</ele>
        <time>2022-10-29T10:01:55Z</time>
      </trkpt>
      <trkpt lat="43.3374730" lon="-1.8108440">
        <ele>35.2</ele>
        <time>2022-10-29T10:01:56Z</time>
      </trkpt>
      <trkpt lat="43.3374130" lon="-1.8108300">
        <ele>35.4</ele>
        <time>2022-10-29T10:01:57Z</time>
      </trkpt>
      <trkpt lat="43.3373590" lon="-1.8107960">
        <ele>35.4</ele>
        <time>2022-10-29T10:01:58Z</time>
      </trkpt>
      <trkpt lat="43.3373160" lon="-1.8107440">
        <ele>35.6</ele>
        <time>2022-10-29T10:01:59Z</time>
      </trkpt>
      <trkpt lat="43.3372870" lon="-1.8106770">
        <ele>35.6</ele>
        <time>2022-10-29T10:02:00Z</time>
      </trkpt>
      <trkpt lat="43.3372660" lon="-1.8106010">
        <ele>35.8</ele>
        <time>2022-10-29T10:02:01Z</time>
      </trkpt>
      <trkpt lat="43.3372470" lon="-1.8105210">
        <ele>36.0</ele>
        <time>2022-10-29T10:02:02Z</time>
      </trkpt>
      <trkpt lat="43.3372220" lon="-1.8104430">
        <ele>36.0</ele>
        <time>2022-10-29T10:02:03Z</time>
      </trkpt>
      <trkpt lat="43.3371930" lon="-1.8103680">
        <ele>36.0</ele>
        <time>2022-10-29T10:02:04Z</time>
      </trkpt>
      <trkpt lat="43.3371520" lon="-1.8103010">
        <ele>36.0</ele>
        <time>2022-10-29T10:02:05Z</time>
      </trkpt>
      <trkpt lat="43.3371020" lon="-1.8102460">
        <ele>36.0</ele>
        <time>2022-10-29T10:02:06Z</time>
      </trkpt>
      <trkpt lat="43.3370500" lon="-1.8101920">
        <ele>36.0</ele>
        <time>2022-10-29T10:02:07Z</time>
      </trkpt>
      <trkpt lat="43.3369990" lon="-1.8101310">
        <ele>36.0</ele>
        <time>2022-10-29T10:02:08Z</time>
      </trkpt>
      <trkpt lat="43.3369510" lon="-1.8100650">
        <ele>36.0</ele>
        <time>2022-10-29T10:02:09Z</time>
      </trkpt>
      <trkpt lat="43.3369060" lon="-1.8099980">
        <ele>36.0</ele>
        <time>2022-10-29T10:02:10Z</time>
      </trkpt>
      <trkpt lat="43.3368610" lon="-1.8099290">
        <ele>36.0</ele>
        <time>2022-10-29T10:02:11Z</time>
      </trkpt>
      <trkpt lat="43.3368180" lon="-1.8098580">
        <ele>36.0</ele>
        <time>2022-10-29T10:02:12Z</time>
      </trkpt>
      <trkpt lat="43.3367800" lon="-1.8097830">
        <ele>36.0</ele>
        <time>2022-10-29T10:02:13Z</time>
      </trkpt>
      <trkpt lat="43.3367430" lon="-1.8097090">
        <ele>36.2</ele>
        <time>2022-10-29T10:02:14Z</time>
      </trkpt>
      <trkpt lat="43.3365650" lon="-1.8093330">
        <ele>36.6</ele>
        <time>2022-10-29T10:02:19Z</time>
      </trkpt>
      <trkpt lat="43.3365180" lon="-1.8092640">
        <ele>36.6</ele>
        <time>2022-10-29T10:02:20Z</time>
      </trkpt>
      <trkpt lat="43.3363140" lon="-1.8090010">
        <ele>36.6</ele>
        <time>2022-10-29T10:02:24Z</time>
      </trkpt>
      <trkpt lat="43.3360050" lon="-1.8087490">
        <ele>36.6</ele>
        <time>2022-10-29T10:02:29Z</time>
      </trkpt>
      <trkpt lat="43.3357330" lon="-1.8086280">
        <ele>36.2</ele>
        <time>2022-10-29T10:02:33Z</time>
      </trkpt>
      <trkpt lat="43.3355940" lon="-1.8086000">
        <ele>36.2</ele>
        <time>2022-10-29T10:02:35Z</time>
      </trkpt>
      <trkpt lat="43.3352430" lon="-1.8085140">
        <ele>36.2</ele>
        <time>2022-10-29T10:02:40Z</time>
      </trkpt>
      <trkpt lat="43.3350430" lon="-1.8084360">
        <ele>36.2</ele>
        <time>2022-10-29T10:02:43Z</time>
      </trkpt>
      <trkpt lat="43.3349780" lon="-1.8084030">
        <ele>36.4</ele>
        <time>2022-10-29T10:02:44Z</time>
      </trkpt>
      <trkpt lat="43.3348490" lon="-1.8083350">
        <ele>36.6</ele>
        <time>2022-10-29T10:02:46Z</time>
      </trkpt>
      <trkpt lat="43.3347890" lon="-1.8083020">
        <ele>36.6</ele>
        <time>2022-10-29T10:02:47Z</time>
      </trkpt>
      <trkpt lat="43.3347300" lon="-1.8082690">
        <ele>36.6</ele>
        <time>2022-10-29T10:02:48Z</time>
      </trkpt>
      <trkpt lat="43.3346150" lon="-1.8082050">
        <ele>36.6</ele>
        <time>2022-10-29T10:02:50Z</time>
      </trkpt>
      <trkpt lat="43.3345580" lon="-1.8081720">
        <ele>36.6</ele>
        <time>2022-10-29T10:02:51Z</time>
      </trkpt>
      <trkpt lat="43.3345020" lon="-1.8081380">
        <ele>36.8</ele>
        <time>2022-10-29T10:02:52Z</time>
      </trkpt>
      <trkpt lat="43.3344490" lon="-1.8081030">
        <ele>36.8</ele>
        <time>2022-10-29T10:02:53Z</time>
      </trkpt>
      <trkpt lat="43.3343980" lon="-1.8080680">
        <ele>36.8</ele>
        <time>2022-10-29T10:02:54Z</time>
      </trkpt>
      <trkpt lat="43.3343480" lon="-1.8080310">
        <ele>36.6</ele>
        <time>2022-10-29T10:02:55Z</time>
      </trkpt>
      <trkpt lat="43.3343000" lon="-1.8079900">
        <ele>36.6</ele>
        <time>2022-10-29T10:02:56Z</time>
      </trkpt>
      <trkpt lat="43.3342530" lon="-1.8079430">
        <ele>36.8</ele>
        <time>2022-10-29T10:02:57Z</time>
      </trkpt>
      <trkpt lat="43.3342030" lon="-1.8079080">
        <ele>36.8</ele>
        <time>2022-10-29T10:02:58Z</time>
      </trkpt>
      <trkpt lat="43.3341520" lon="-1.8078830">
        <ele>37.0</ele>
        <time>2022-10-29T10:02:59Z</time>
      </trkpt>
      <trkpt lat="43.3341060" lon="-1.8078610">
        <ele>37.0</ele>
        <time>2022-10-29T10:03:00Z</time>
      </trkpt>
      <trkpt lat="43.3340650" lon="-1.8078340">
        <ele>37.2</ele>
        <time>2022-10-29T10:03:01Z</time>
      </trkpt>
      <trkpt lat="43.3340300" lon="-1.8078080">
        <ele>37.4</ele>
        <time>2022-10-29T10:03:02Z</time>
      </trkpt>
      <trkpt lat="43.3339990" lon="-1.8077820">
        <ele>37.4</ele>
        <time>2022-10-29T10:03:03Z</time>
      </trkpt>
      <trkpt lat="43.3339660" lon="-1.8077540">
        <ele>37.4</ele>
        <time>2022-10-29T10:03:04Z</time>
      </trkpt>
      <trkpt lat="43.3339330" lon="-1.8077280">
        <ele>37.8</ele>
        <time>2022-10-29T10:03:05Z</time>
      </trkpt>
      <trkpt lat="43.3338990" lon="-1.8077030">
        <ele>38.0</ele>
        <time>2022-10-29T10:03:06Z</time>
      </trkpt>
      <trkpt lat="43.3337920" lon="-1.8076200">
        <ele>38.4</ele>
        <time>2022-10-29T10:03:09Z</time>
      </trkpt>
      <trkpt lat="43.3337590" lon="-1.8075930">
        <ele>38.4</ele>
        <time>2022-10-29T10:03:10Z</time>
      </trkpt>
      <trkpt lat="43.3336860" lon="-1.8075400">
        <ele>38.6</ele>
        <time>2022-10-29T10:03:12Z</time>
      </trkpt>
      <trkpt lat="43.3336160" lon="-1.8074880">
        <ele>39.0</ele>
        <time>2022-10-29T10:03:14Z</time>
      </trkpt>
      <trkpt lat="43.3334510" lon="-1.8073530">
        <ele>40.0</ele>
        <time>2022-10-29T10:03:19Z</time>
      </trkpt>
      <trkpt lat="43.3334200" lon="-1.8073290">
        <ele>40.2</ele>
        <time>2022-10-29T10:03:20Z</time>
      </trkpt>
      <trkpt lat="43.3333870" lon="-1.8073040">
        <ele>40.6</ele>
        <time>2022-10-29T10:03:21Z</time>
      </trkpt>
      <trkpt lat="43.3333560" lon="-1.8072790">
        <ele>40.6</ele>
        <time>2022-10-29T10:03:22Z</time>
      </trkpt>
      <trkpt lat="43.3333220" lon="-1.8072570">
        <ele>40.8</ele>
        <time>2022-10-29T10:03:23Z</time>
      </trkpt>
      <trkpt lat="43.3332890" lon="-1.8072340">
        <ele>41.0</ele>
        <time>2022-10-29T10:03:24Z</time>
      </trkpt>
      <trkpt lat="43.3332570" lon="-1.8072080">
        <ele>41.2</ele>
        <time>2022-10-29T10:03:25Z</time>
      </trkpt>
      <trkpt lat="43.3332270" lon="-1.8071800">
        <ele>41.6</ele>
        <time>2022-10-29T10:03:26Z</time>
      </trkpt>
      <trkpt lat="43.3331950" lon="-1.8071520">
        <ele>41.8</ele>
        <time>2022-10-29T10:03:27Z</time>
      </trkpt>
      <trkpt lat="43.3331640" lon="-1.8071260">
        <ele>42.2</ele>
        <time>2022-10-29T10:03:28Z</time>
      </trkpt>
      <trkpt lat="43.3331340" lon="-1.8071000">
        <ele>42.4</ele>
        <time>2022-10-29T10:03:29Z</time>
      </trkpt>
      <trkpt lat="43.3331030" lon="-1.8070870">
        <ele>42.6</ele>
        <time>2022-10-29T10:03:30Z</time>
      </trkpt>
      <trkpt lat="43.3330670" lon="-1.8070870">
        <ele>42.6</ele>
        <time>2022-10-29T10:03:31Z</time>
      </trkpt>
      <trkpt lat="43.3330290" lon="-1.8070930">
        <ele>42.8</ele>
        <time>2022-10-29T10:03:32Z</time>
      </trkpt>
      <trkpt lat="43.3329900" lon="-1.8070890">
        <ele>42.8</ele>
        <time>2022-10-29T10:03:33Z</time>
      </trkpt>
      <trkpt lat="43.3329500" lon="-1.8070840">
        <ele>43.2</ele>
        <time>2022-10-29T10:03:34Z</time>
      </trkpt>
      <trkpt lat="43.3329110" lon="-1.8070920">
        <ele>43.6</ele>
        <time>2022-10-29T10:03:35Z</time>
      </trkpt>
      <trkpt lat="43.3328790" lon="-1.8071260">
        <ele>43.6</ele>
        <time>2022-10-29T10:03:36Z</time>
      </trkpt>
      <trkpt lat="43.3328540" lon="-1.8071730">
        <ele>44.0</ele>
        <time>2022-10-29T10:03:37Z</time>
      </trkpt>
      <trkpt lat="43.3328360" lon="-1.8072290">
        <ele>44.2</ele>
        <time>2022-10-29T10:03:38Z</time>
      </trkpt>
      <trkpt lat="43.3328200" lon="-1.8072910">
        <ele>44.6</ele>
        <time>2022-10-29T10:03:39Z</time>
      </trkpt>
      <trkpt lat="43.3328010" lon="-1.8073560">
        <ele>44.8</ele>
        <time>2022-10-29T10:03:40Z</time>
      </trkpt>
      <trkpt lat="43.3327780" lon="-1.8074240">
        <ele>45.0</ele>
        <time>2022-10-29T10:03:41Z</time>
      </trkpt>
      <trkpt lat="43.3327560" lon="-1.8074940">
        <ele>45.0</ele>
        <time>2022-10-29T10:03:42Z</time>
      </trkpt>
      <trkpt lat="43.3327360" lon="-1.8075680">
        <ele>45.0</ele>
        <time>2022-10-29T10:03:43Z</time>
      </trkpt>
      <trkpt lat="43.3327140" lon="-1.8076440">
        <ele>45.2</ele>
        <time>2022-10-29T10:03:44Z</time>
      </trkpt>
      <trkpt lat="43.3326920" lon="-1.8077220">
        <ele>45.2</ele>
        <time>2022-10-29T10:03:45Z</time>
      </trkpt>
      <trkpt lat="43.3326680" lon="-1.8078030">
        <ele>45.2</ele>
        <time>2022-10-29T10:03:46Z</time>
      </trkpt>
      <trkpt lat="43.3326420" lon="-1.8078840">
        <ele>45.2</ele>
        <time>2022-10-29T10:03:47Z</time>
      </trkpt>
      <trkpt lat="43.3326160" lon="-1.8079660">
        <ele>45.0</ele>
        <time>2022-10-29T10:03:48Z</time>
      </trkpt>
      <trkpt lat="43.3325890" lon="-1.8080490">
        <ele>45.0</ele>
        <time>2022-10-29T10:03:49Z</time>
      </trkpt>
      <trkpt lat="43.3325610" lon="-1.8081360">
        <ele>44.8</ele>
        <time>2022-10-29T10:03:50Z</time>
      </trkpt>
      <trkpt lat="43.3325310" lon="-1.8082280">
        <ele>44.8</ele>
        <time>2022-10-29T10:03:51Z</time>
      </trkpt>
      <trkpt lat="43.3324980" lon="-1.8083180">
        <ele>44.6</ele>
        <time>2022-10-29T10:03:52Z</time>
      </trkpt>
      <trkpt lat="43.3324660" lon="-1.8084050">
        <ele>44.6</ele>
        <time>2022-10-29T10:03:53Z</time>
      </trkpt>
      <trkpt lat="43.3324340" lon="-1.8084960">
        <ele>44.4</ele>
        <time>2022-10-29T10:03:54Z</time>
      </trkpt>
      <trkpt lat="43.3324040" lon="-1.8085900">
        <ele>44.2</ele>
        <time>2022-10-29T10:03:55Z</time>
      </trkpt>
      <trkpt lat="43.3323760" lon="-1.8086890">
        <ele>44.0</ele>
        <time>2022-10-29T10:03:56Z</time>
      </trkpt>
      <trkpt lat="43.3323460" lon="-1.8087890">
        <ele>43.6</ele>
        <time>2022-10-29T10:03:57Z</time>
      </trkpt>
      <trkpt lat="43.3323140" lon="-1.8088860">
        <ele>43.6</ele>
        <time>2022-10-29T10:03:58Z</time>
      </trkpt>
      <trkpt lat="43.3322460" lon="-1.8090770">
        <ele>43.4</ele>
        <time>2022-10-29T10:04:00Z</time>
      </trkpt>
      <trkpt lat="43.3322130" lon="-1.8091750">
        <ele>43.0</ele>
        <time>2022-10-29T10:04:01Z</time>
      </trkpt>
      <trkpt lat="43.3321510" lon="-1.8093780">
        <ele>42.4</ele>
        <time>2022-10-29T10:04:03Z</time>
      </trkpt>
      <trkpt lat="43.3321260" lon="-1.8094770">
        <ele>42.2</ele>
        <time>2022-10-29T10:04:04Z</time>
      </trkpt>
      <trkpt lat="43.3320670" lon="-1.8096760">
        <ele>41.8</ele>
        <time>2022-10-29T10:04:06Z</time>
      </trkpt>
      <trkpt lat="43.3319820" lon="-1.8098780">
        <ele>41.2</ele>
        <time>2022-10-29T10:04:08Z</time>
      </trkpt>
      <trkpt lat="43.3318860" lon="-1.8100760">
        <ele>40.6</ele>
        <time>2022-10-29T10:04:10Z</time>
      </trkpt>
      <trkpt lat="43.3318270" lon="-1.8101700">
        <ele>40.4</ele>
        <time>2022-10-29T10:04:11Z</time>
      </trkpt>
      <trkpt lat="43.3317580" lon="-1.8102420">
        <ele>40.2</ele>
        <time>2022-10-29T10:04:12Z</time>
      </trkpt>
      <trkpt lat="43.3316780" lon="-1.8102890">
        <ele>40.0</ele>
        <time>2022-10-29T10:04:13Z</time>
      </trkpt>
      <trkpt lat="43.3316050" lon="-1.8103230">
        <ele>39.6</ele>
        <time>2022-10-29T10:04:14Z</time>
      </trkpt>
      <trkpt lat="43.3315420" lon="-1.8103590">
        <ele>39.2</ele>
        <time>2022-10-29T10:04:15Z</time>
      </trkpt>
      <trkpt lat="43.3315100" lon="-1.8104190">
        <ele>39.0</ele>
        <time>2022-10-29T10:04:16Z</time>
      </trkpt>
      <trkpt lat="43.3315010" lon="-1.8104970">
        <ele>38.0</ele>
        <time>2022-10-29T10:04:17Z</time>
      </trkpt>
      <trkpt lat="43.3314960" lon="-1.8105860">
        <ele>37.6</ele>
        <time>2022-10-29T10:04:18Z</time>
      </trkpt>
      <trkpt lat="43.3314730" lon="-1.8107810">
        <ele>36.6</ele>
        <time>2022-10-29T10:04:20Z</time>
      </trkpt>
      <trkpt lat="43.3314540" lon="-1.8108790">
        <ele>36.2</ele>
        <time>2022-10-29T10:04:21Z</time>
      </trkpt>
      <trkpt lat="43.3314260" lon="-1.8109850">
        <ele>35.8</ele>
        <time>2022-10-29T10:04:22Z</time>
      </trkpt>
      <trkpt lat="43.3314060" lon="-1.8110910">
        <ele>35.6</ele>
        <time>2022-10-29T10:04:23Z</time>
      </trkpt>
      <trkpt lat="43.3313950" lon="-1.8112050">
        <ele>35.4</ele>
        <time>2022-10-29T10:04:24Z</time>
      </trkpt>
      <trkpt lat="43.3313790" lon="-1.8114360">
        <ele>34.2</ele>
        <time>2022-10-29T10:04:26Z</time>
      </trkpt>
      <trkpt lat="43.3313750" lon="-1.8115500">
        <ele>33.8</ele>
        <time>2022-10-29T10:04:27Z</time>
      </trkpt>
      <trkpt lat="43.3313790" lon="-1.8116570">
        <ele>33.4</ele>
        <time>2022-10-29T10:04:28Z</time>
      </trkpt>
      <trkpt lat="43.3313980" lon="-1.8117510">
        <ele>33.2</ele>
        <time>2022-10-29T10:04:29Z</time>
      </trkpt>
      <trkpt lat="43.3314530" lon="-1.8118120">
        <ele>32.4</ele>
        <time>2022-10-29T10:04:30Z</time>
      </trkpt>
      <trkpt lat="43.3315090" lon="-1.8118480">
        <ele>32.2</ele>
        <time>2022-10-29T10:04:31Z</time>
      </trkpt>
      <trkpt lat="43.3315660" lon="-1.8118670">
        <ele>32.0</ele>
        <time>2022-10-29T10:04:32Z</time>
      </trkpt>
      <trkpt lat="43.3316260" lon="-1.8118720">
        <ele>31.6</ele>
        <time>2022-10-29T10:04:33Z</time>
      </trkpt>
      <trkpt lat="43.3316850" lon="-1.8118800">
        <ele>31.6</ele>
        <time>2022-10-29T10:04:34Z</time>
      </trkpt>
      <trkpt lat="43.3317480" lon="-1.8118900">
        <ele>31.2</ele>
        <time>2022-10-29T10:04:35Z</time>
      </trkpt>
      <trkpt lat="43.3318190" lon="-1.8119050">
        <ele>31.2</ele>
        <time>2022-10-29T10:04:36Z</time>
      </trkpt>
      <trkpt lat="43.3318850" lon="-1.8119200">
        <ele>31.0</ele>
        <time>2022-10-29T10:04:37Z</time>
      </trkpt>
      <trkpt lat="43.3320100" lon="-1.8119370">
        <ele>30.8</ele>
        <time>2022-10-29T10:04:39Z</time>
      </trkpt>
      <trkpt lat="43.3320700" lon="-1.8119420">
        <ele>30.8</ele>
        <time>2022-10-29T10:04:40Z</time>
      </trkpt>
      <trkpt lat="43.3321330" lon="-1.8119520">
        <ele>30.8</ele>
        <time>2022-10-29T10:04:41Z</time>
      </trkpt>
      <trkpt lat="43.3321960" lon="-1.8119660">
        <ele>30.8</ele>
        <time>2022-10-29T10:04:42Z</time>
      </trkpt>
      <trkpt lat="43.3322550" lon="-1.8119850">
        <ele>30.8</ele>
        <time>2022-10-29T10:04:43Z</time>
      </trkpt>
      <trkpt lat="43.3324200" lon="-1.8120500">
        <ele>30.8</ele>
        <time>2022-10-29T10:04:46Z</time>
      </trkpt>
      <trkpt lat="43.3324770" lon="-1.8120620">
        <ele>30.8</ele>
        <time>2022-10-29T10:04:47Z</time>
      </trkpt>
      <trkpt lat="43.3325270" lon="-1.8120610">
        <ele>30.8</ele>
        <time>2022-10-29T10:04:48Z</time>
      </trkpt>
      <trkpt lat="43.3325550" lon="-1.8120230">
        <ele>30.8</ele>
        <time>2022-10-29T10:04:49Z</time>
      </trkpt>
      <trkpt lat="43.3325770" lon="-1.8119600">
        <ele>30.8</ele>
        <time>2022-10-29T10:04:50Z</time>
      </trkpt>
      <trkpt lat="43.3325960" lon="-1.8118970">
        <ele>30.6</ele>
        <time>2022-10-29T10:04:51Z</time>
      </trkpt>
      <trkpt lat="43.3326100" lon="-1.8118350">
        <ele>30.4</ele>
        <time>2022-10-29T10:04:52Z</time>
      </trkpt>
      <trkpt lat="43.3326190" lon="-1.8117860">
        <ele>30.4</ele>
        <time>2022-10-29T10:04:53Z</time>
      </trkpt>
    </trkseg>
  </trk>
</gpx>
